<?xml version='1.0' encoding='UTF-8'?><gpx version="1.1" creator="JPX - https://github.com/jenetics/jpx" xmlns="http://www.topografix.com/GPX/1/1"><trk><trkseg><trkpt lat="43.430146230356165" lon="11.890037496675383"><ele>288.0</ele><time>2026-04-26T07:48:39.435Z</time></trkpt><trkpt lat="43.430082805444044" lon="11.890052173299088"><ele>288.0</ele><time>2026-04-26T07:51:05Z</time></trkpt><trkpt lat="43.430044817542544" lon="11.890147506439384"><ele>288.0</ele><time>2026-04-26T07:52:11Z</time></trkpt><trkpt lat="43.43011971284103" lon="11.890197168655062"><ele>288.0</ele><time>2026-04-26T07:52:14Z</time></trkpt><trkpt lat="43.43019610078792" lon="11.890183667414723"><ele>288.0</ele><time>2026-04-26T07:52:16Z</time></trkpt><trkpt lat="43.43027297546573" lon="11.890162102989292"><ele>288.0</ele><time>2026-04-26T07:52:18Z</time></trkpt><trkpt lat="43.430346160839974" lon="11.890137081664651"><ele>288.0</ele><time>2026-04-26T07:52:21Z</time></trkpt><trkpt lat="43.43041553974012" lon="11.890066115104263"><ele>288.0</ele><time>2026-04-26T07:52:43.999Z</time></trkpt><trkpt lat="43.43047480348828" lon="11.889912903669892"><ele>288.0</ele><time>2026-04-26T07:52:45.999Z</time></trkpt><trkpt lat="43.43050682654391" lon="11.889821253016216"><ele>288.0</ele><time>2026-04-26T07:52:46.999Z</time></trkpt><trkpt lat="43.43054333224198" lon="11.889722954329567"><ele>288.0</ele><time>2026-04-26T07:52:47.999Z</time></trkpt><trkpt lat="43.430581730688054" lon="11.889630656765396"><ele>288.0</ele><time>2026-04-26T07:52:48.999Z</time></trkpt><trkpt lat="43.43061175727658" lon="11.88954857545376"><ele>287.5</ele><time>2026-04-26T07:52:49.999Z</time></trkpt><trkpt lat="43.43065540311575" lon="11.889480958579774"><ele>287.0</ele><time>2026-04-26T07:52:50.999Z</time></trkpt><trkpt lat="43.43072064405693" lon="11.889326088250115"><ele>286.5</ele><time>2026-04-26T07:52:53Z</time></trkpt><trkpt lat="43.43075468769052" lon="11.889246331012913"><ele>286.0</ele><time>2026-04-26T07:52:54Z</time></trkpt><trkpt lat="43.4307870310136" lon="11.889167077870548"><ele>285.5</ele><time>2026-04-26T07:52:55Z</time></trkpt><trkpt lat="43.430851874129004" lon="11.889078317941228"><ele>285.0</ele><time>2026-04-26T07:52:57Z</time></trkpt><trkpt lat="43.43090552911561" lon="11.88912506041783"><ele>285.0</ele><time>2026-04-26T07:52:58Z</time></trkpt><trkpt lat="43.43098211643593" lon="11.889157341788863"><ele>285.0</ele><time>2026-04-26T07:52:59Z</time></trkpt><trkpt lat="43.43106786925889" lon="11.889193486398117"><ele>285.0</ele><time>2026-04-26T07:53:00Z</time></trkpt><trkpt lat="43.43116494504339" lon="11.889217533679446"><ele>285.0</ele><time>2026-04-26T07:53:01Z</time></trkpt><trkpt lat="43.43125103670687" lon="11.889284934359427"><ele>285.0</ele><time>2026-04-26T07:53:02Z</time></trkpt><trkpt lat="43.43134941531143" lon="11.889342146792517"><ele>284.5</ele><time>2026-04-26T07:53:03Z</time></trkpt><trkpt lat="43.43145427381173" lon="11.889405182567"><ele>284.0</ele><time>2026-04-26T07:53:04Z</time></trkpt><trkpt lat="43.431563954207064" lon="11.889471117028169"><ele>283.5</ele><time>2026-04-26T07:53:05Z</time></trkpt><trkpt lat="43.431673802980455" lon="11.889519108626853"><ele>283.0</ele><time>2026-04-26T07:53:06Z</time></trkpt><trkpt lat="43.431768241977316" lon="11.889573965332607"><ele>283.0</ele><time>2026-04-26T07:53:07Z</time></trkpt><trkpt lat="43.43184877023947" lon="11.889636224803642"><ele>283.0</ele><time>2026-04-26T07:53:08Z</time></trkpt><trkpt lat="43.431935033302636" lon="11.889670817930341"><ele>283.0</ele><time>2026-04-26T07:53:09Z</time></trkpt><trkpt lat="43.432008870518025" lon="11.889750325823496"><ele>283.0</ele><time>2026-04-26T07:53:10Z</time></trkpt><trkpt lat="43.43209916578789" lon="11.889824947570222"><ele>283.0</ele><time>2026-04-26T07:53:11Z</time></trkpt><trkpt lat="43.432190851949755" lon="11.889916438500984"><ele>282.5</ele><time>2026-04-26T07:53:12Z</time></trkpt><trkpt lat="43.43228428153545" lon="11.89001169079647"><ele>282.0</ele><time>2026-04-26T07:53:13Z</time></trkpt><trkpt lat="43.432383175984334" lon="11.890115982821447"><ele>281.5</ele><time>2026-04-26T07:53:14Z</time></trkpt><trkpt lat="43.43249521575643" lon="11.890204646176343"><ele>281.0</ele><time>2026-04-26T07:53:15Z</time></trkpt><trkpt lat="43.43261019517483" lon="11.89026171090808"><ele>281.0</ele><time>2026-04-26T07:53:16Z</time></trkpt><trkpt lat="43.4327238957848" lon="11.890341724796858"><ele>281.0</ele><time>2026-04-26T07:53:17Z</time></trkpt><trkpt lat="43.43282741073596" lon="11.89045447773988"><ele>281.0</ele><time>2026-04-26T07:53:18Z</time></trkpt><trkpt lat="43.43293565176596" lon="11.89056010274453"><ele>281.0</ele><time>2026-04-26T07:53:19Z</time></trkpt><trkpt lat="43.43305162768948" lon="11.89065864917297"><ele>280.5</ele><time>2026-04-26T07:53:20Z</time></trkpt><trkpt lat="43.43315440532293" lon="11.89078602794548"><ele>280.0</ele><time>2026-04-26T07:53:21Z</time></trkpt><trkpt lat="43.43326527460174" lon="11.890900980847043"><ele>279.5</ele><time>2026-04-26T07:53:22Z</time></trkpt><trkpt lat="43.43337952304916" lon="11.891007802769325"><ele>279.0</ele><time>2026-04-26T07:53:23Z</time></trkpt><trkpt lat="43.43348966767389" lon="11.891122987576642"><ele>278.5</ele><time>2026-04-26T07:53:24Z</time></trkpt><trkpt lat="43.43359772395866" lon="11.891242569810753"><ele>278.0</ele><time>2026-04-26T07:53:25Z</time></trkpt><trkpt lat="43.43370829275956" lon="11.891353286857631"><ele>277.5</ele><time>2026-04-26T07:53:26Z</time></trkpt><trkpt lat="43.43382488210182" lon="11.891454731440177"><ele>277.0</ele><time>2026-04-26T07:53:27Z</time></trkpt><trkpt lat="43.43394230549517" lon="11.891551847833277"><ele>277.0</ele><time>2026-04-26T07:53:28Z</time></trkpt><trkpt lat="43.43405784940105" lon="11.89165020696908"><ele>277.0</ele><time>2026-04-26T07:53:29Z</time></trkpt><trkpt lat="43.43417220129701" lon="11.891748477225644"><ele>277.0</ele><time>2026-04-26T07:53:30Z</time></trkpt><trkpt lat="43.434278951093845" lon="11.89183500213217"><ele>277.0</ele><time>2026-04-26T07:53:31Z</time></trkpt><trkpt lat="43.434381718093874" lon="11.89192114985477"><ele>277.0</ele><time>2026-04-26T07:53:32Z</time></trkpt><trkpt lat="43.43447663825228" lon="11.89200192846062"><ele>277.0</ele><time>2026-04-26T07:53:33Z</time></trkpt><trkpt lat="43.434558581402705" lon="11.892082436711336"><ele>277.0</ele><time>2026-04-26T07:53:34Z</time></trkpt><trkpt lat="43.434627632304874" lon="11.892152291113138"><ele>277.0</ele><time>2026-04-26T07:53:35Z</time></trkpt><trkpt lat="43.43468053777699" lon="11.892213768356475"><ele>277.0</ele><time>2026-04-26T07:53:36Z</time></trkpt><trkpt lat="43.434754484413446" lon="11.89230824557466"><ele>276.25</ele><time>2026-04-26T07:53:38Z</time></trkpt><trkpt lat="43.43490297395296" lon="11.892221055386878"><ele>275.5</ele><time>2026-04-26T07:53:39.999Z</time></trkpt><trkpt lat="43.43499655520226" lon="11.892118826777741"><ele>274.75</ele><time>2026-04-26T07:53:40.999Z</time></trkpt><trkpt lat="43.435104318093245" lon="11.892014334306984"><ele>274.0</ele><time>2026-04-26T07:53:41.999Z</time></trkpt><trkpt lat="43.435226228767014" lon="11.89190985318393"><ele>274.0</ele><time>2026-04-26T07:53:42.999Z</time></trkpt><trkpt lat="43.43535723643837" lon="11.891802017183775"><ele>274.0</ele><time>2026-04-26T07:53:43.999Z</time></trkpt><trkpt lat="43.43549681254148" lon="11.891694891924448"><ele>274.0</ele><time>2026-04-26T07:53:44.999Z</time></trkpt><trkpt lat="43.43564127158703" lon="11.891592906960769"><ele>273.3333333333333</ele><time>2026-04-26T07:53:45.999Z</time></trkpt><trkpt lat="43.43580503762321" lon="11.891499159389975"><ele>272.6666666666667</ele><time>2026-04-26T07:53:46.999Z</time></trkpt><trkpt lat="43.43595837159168" lon="11.891375639242407"><ele>272.0</ele><time>2026-04-26T07:53:47.999Z</time></trkpt><trkpt lat="43.43611762749333" lon="11.891244570220813"><ele>272.0</ele><time>2026-04-26T07:53:48.999Z</time></trkpt><trkpt lat="43.43627263137445" lon="11.891118031341628"><ele>272.0</ele><time>2026-04-26T07:53:49.999Z</time></trkpt><trkpt lat="43.43642517639074" lon="11.891006341153338"><ele>272.0</ele><time>2026-04-26T07:53:50.999Z</time></trkpt><trkpt lat="43.436571139749205" lon="11.890904358464663"><ele>271.33333333333337</ele><time>2026-04-26T07:53:51.999Z</time></trkpt><trkpt lat="43.436717494645606" lon="11.890804954847008"><ele>270.6666666666667</ele><time>2026-04-26T07:53:52.999Z</time></trkpt><trkpt lat="43.43686991076044" lon="11.890705649446689"><ele>270.0</ele><time>2026-04-26T07:53:53.999Z</time></trkpt><trkpt lat="43.437028501871346" lon="11.890606706267414"><ele>269.6666666666667</ele><time>2026-04-26T07:53:54.999Z</time></trkpt><trkpt lat="43.43718832272566" lon="11.890506489120666"><ele>269.33333333333337</ele><time>2026-04-26T07:53:55.999Z</time></trkpt><trkpt lat="43.437351402993926" lon="11.890396078921963"><ele>269.0</ele><time>2026-04-26T07:53:56.999Z</time></trkpt><trkpt lat="43.43751306527231" lon="11.890283174679558"><ele>269.0</ele><time>2026-04-26T07:53:57.999Z</time></trkpt><trkpt lat="43.43767657617161" lon="11.890167240615577"><ele>269.0</ele><time>2026-04-26T07:53:58.999Z</time></trkpt><trkpt lat="43.43783942934306" lon="11.890046134123086"><ele>269.0</ele><time>2026-04-26T07:53:59.999Z</time></trkpt><trkpt lat="43.43800238287973" lon="11.889919033430646"><ele>269.33333333333337</ele><time>2026-04-26T07:54:00.999Z</time></trkpt><trkpt lat="43.43815642086262" lon="11.889794308543332"><ele>269.6666666666667</ele><time>2026-04-26T07:54:01.999Z</time></trkpt><trkpt lat="43.43829088301572" lon="11.889650840886672"><ele>270.0</ele><time>2026-04-26T07:54:02.999Z</time></trkpt><trkpt lat="43.4384318470468" lon="11.889545510556099"><ele>270.0</ele><time>2026-04-26T07:54:03.999Z</time></trkpt><trkpt lat="43.43856327163186" lon="11.889422206961433"><ele>270.0</ele><time>2026-04-26T07:54:04.999Z</time></trkpt><trkpt lat="43.43868702799982" lon="11.889294886305514"><ele>270.0</ele><time>2026-04-26T07:54:05.999Z</time></trkpt><trkpt lat="43.43879940124207" lon="11.889163919660875"><ele>270.0</ele><time>2026-04-26T07:54:06.999Z</time></trkpt><trkpt lat="43.438908650272296" lon="11.889034600016757"><ele>270.0</ele><time>2026-04-26T07:54:07.999Z</time></trkpt><trkpt lat="43.439017459439945" lon="11.888907661199601"><ele>270.0</ele><time>2026-04-26T07:54:08.999Z</time></trkpt><trkpt lat="43.43914291752324" lon="11.888779809372148"><ele>270.0</ele><time>2026-04-26T07:54:09.999Z</time></trkpt><trkpt lat="43.439283455698835" lon="11.88864613869447"><ele>270.0</ele><time>2026-04-26T07:54:10.999Z</time></trkpt><trkpt lat="43.43943068860255" lon="11.888509928570961"><ele>270.0</ele><time>2026-04-26T07:54:11.999Z</time></trkpt><trkpt lat="43.4395808576237" lon="11.88837522067473"><ele>270.0</ele><time>2026-04-26T07:54:12.999Z</time></trkpt><trkpt lat="43.439718838935725" lon="11.888218193501155"><ele>269.75</ele><time>2026-04-26T07:54:13.999Z</time></trkpt><trkpt lat="43.43986137217044" lon="11.88810010558649"><ele>269.5</ele><time>2026-04-26T07:54:14.999Z</time></trkpt><trkpt lat="43.439968648789964" lon="11.887976286457409"><ele>269.25</ele><time>2026-04-26T07:54:15.999Z</time></trkpt><trkpt lat="43.44004914890769" lon="11.887861872222125"><ele>269.0</ele><time>2026-04-26T07:54:16.999Z</time></trkpt><trkpt lat="43.44012000718797" lon="11.887736263085216"><ele>268.5</ele><time>2026-04-26T07:54:17.999Z</time></trkpt><trkpt lat="43.44017451246272" lon="11.88759080816882"><ele>268.0</ele><time>2026-04-26T07:54:18.999Z</time></trkpt><trkpt lat="43.44024812386129" lon="11.887441486680835"><ele>267.5</ele><time>2026-04-26T07:54:19.999Z</time></trkpt><trkpt lat="43.44030744753038" lon="11.88727737531475"><ele>267.0</ele><time>2026-04-26T07:54:20.999Z</time></trkpt><trkpt lat="43.44036860602395" lon="11.887103762170312"><ele>267.0</ele><time>2026-04-26T07:54:21.999Z</time></trkpt><trkpt lat="43.44043705539193" lon="11.886923294269428"><ele>267.0</ele><time>2026-04-26T07:54:22.999Z</time></trkpt><trkpt lat="43.4405116258955" lon="11.886735679579782"><ele>267.0</ele><time>2026-04-26T07:54:23.999Z</time></trkpt><trkpt lat="43.44059062942915" lon="11.886548690337554"><ele>267.0</ele><time>2026-04-26T07:54:24.999Z</time></trkpt><trkpt lat="43.440659004946816" lon="11.886344987442286"><ele>267.0</ele><time>2026-04-26T07:54:25.999Z</time></trkpt><trkpt lat="43.44076044463379" lon="11.886160188492939"><ele>267.0</ele><time>2026-04-26T07:54:26.999Z</time></trkpt><trkpt lat="43.440852901581884" lon="11.885961411170584"><ele>266.6666666666667</ele><time>2026-04-26T07:54:27.999Z</time></trkpt><trkpt lat="43.440948861462175" lon="11.88575935322784"><ele>266.33333333333337</ele><time>2026-04-26T07:54:28.999Z</time></trkpt><trkpt lat="43.44103303594737" lon="11.885543022373051"><ele>266.0</ele><time>2026-04-26T07:54:29.999Z</time></trkpt><trkpt lat="43.44113284461236" lon="11.885338268184732"><ele>266.0</ele><time>2026-04-26T07:54:30.999Z</time></trkpt><trkpt lat="43.441257003289444" lon="11.885164536409661"><ele>266.0</ele><time>2026-04-26T07:54:31.999Z</time></trkpt><trkpt lat="43.44138054515904" lon="11.885016103911843"><ele>266.0</ele><time>2026-04-26T07:54:32.999Z</time></trkpt><trkpt lat="43.44151959746723" lon="11.884891566090406"><ele>266.33333333333337</ele><time>2026-04-26T07:54:33.999Z</time></trkpt><trkpt lat="43.44167353864986" lon="11.88477329269672"><ele>266.6666666666667</ele><time>2026-04-26T07:54:34.999Z</time></trkpt><trkpt lat="43.441819853375634" lon="11.884635605720966"><ele>267.0</ele><time>2026-04-26T07:54:35.999Z</time></trkpt><trkpt lat="43.44195742679955" lon="11.884470134117281"><ele>267.0</ele><time>2026-04-26T07:54:36.999Z</time></trkpt><trkpt lat="43.44209171641954" lon="11.884298398902533"><ele>267.0</ele><time>2026-04-26T07:54:37.999Z</time></trkpt><trkpt lat="43.44221758046034" lon="11.884128478395164"><ele>267.0</ele><time>2026-04-26T07:54:38.999Z</time></trkpt><trkpt lat="43.44233132188442" lon="11.883931065060919"><ele>266.0</ele><time>2026-04-26T07:54:39.999Z</time></trkpt><trkpt lat="43.442445296517526" lon="11.883731634697696"><ele>265.0</ele><time>2026-04-26T07:54:40.999Z</time></trkpt><trkpt lat="43.44254565373903" lon="11.883511438531528"><ele>264.0</ele><time>2026-04-26T07:54:41.999Z</time></trkpt><trkpt lat="43.44263101348748" lon="11.883281702303652"><ele>263.3333333333333</ele><time>2026-04-26T07:54:42.999Z</time></trkpt><trkpt lat="43.442705992935686" lon="11.883051110550284"><ele>262.66666666666663</ele><time>2026-04-26T07:54:43.999Z</time></trkpt><trkpt lat="43.44276715331564" lon="11.882830799101272"><ele>262.0</ele><time>2026-04-26T07:54:44.999Z</time></trkpt><trkpt lat="43.442824110950326" lon="11.882613562630592"><ele>262.0</ele><time>2026-04-26T07:54:45.999Z</time></trkpt><trkpt lat="43.44288160037747" lon="11.882411851129607"><ele>262.0</ele><time>2026-04-26T07:54:46.999Z</time></trkpt><trkpt lat="43.442927801118444" lon="11.882222400396506"><ele>262.0</ele><time>2026-04-26T07:54:47.999Z</time></trkpt><trkpt lat="43.44298979009389" lon="11.882053834582416"><ele>262.0</ele><time>2026-04-26T07:54:48.999Z</time></trkpt><trkpt lat="43.44300907854379" lon="11.88187247377137"><ele>261.75</ele><time>2026-04-26T07:54:49.999Z</time></trkpt><trkpt lat="43.44303790391632" lon="11.881709839438589"><ele>261.5</ele><time>2026-04-26T07:54:50.999Z</time></trkpt><trkpt lat="43.443082585684635" lon="11.88155535290055"><ele>261.25</ele><time>2026-04-26T07:54:51.999Z</time></trkpt><trkpt lat="43.443135510645675" lon="11.881412890374248"><ele>261.0</ele><time>2026-04-26T07:54:52.999Z</time></trkpt><trkpt lat="43.44317558192058" lon="11.881266142705472"><ele>261.0</ele><time>2026-04-26T07:54:53.999Z</time></trkpt><trkpt lat="43.44320473166451" lon="11.881119708707693"><ele>261.0</ele><time>2026-04-26T07:54:54.999Z</time></trkpt><trkpt lat="43.44326820824938" lon="11.881002969683546"><ele>261.0</ele><time>2026-04-26T07:54:55.999Z</time></trkpt><trkpt lat="43.44336360386579" lon="11.880932687306752"><ele>261.0</ele><time>2026-04-26T07:54:56.999Z</time></trkpt><trkpt lat="43.44350228223201" lon="11.88097093502403"><ele>261.3333333333333</ele><time>2026-04-26T07:54:57.999Z</time></trkpt><trkpt lat="43.4436417834527" lon="11.880913731718588"><ele>261.66666666666663</ele><time>2026-04-26T07:54:58.999Z</time></trkpt><trkpt lat="43.44378171077414" lon="11.880799595767096"><ele>262.0</ele><time>2026-04-26T07:54:59.999Z</time></trkpt><trkpt lat="43.443936668455144" lon="11.880658349598225"><ele>262.25</ele><time>2026-04-26T07:55:00.999Z</time></trkpt><trkpt lat="43.44409210594998" lon="11.880541139835902"><ele>262.5</ele><time>2026-04-26T07:55:01.999Z</time></trkpt><trkpt lat="43.44420818930742" lon="11.88043418843252"><ele>262.75</ele><time>2026-04-26T07:55:02.999Z</time></trkpt><trkpt lat="43.44430918840254" lon="11.880341134637046"><ele>263.0</ele><time>2026-04-26T07:55:03.999Z</time></trkpt><trkpt lat="43.44439766946225" lon="11.880280485054396"><ele>263.0</ele><time>2026-04-26T07:55:05Z</time></trkpt><trkpt lat="43.444465369050015" lon="11.880248658055764"><ele>263.0</ele><time>2026-04-26T07:55:06Z</time></trkpt><trkpt lat="43.444504442935234" lon="11.880332808774153"><ele>263.0</ele><time>2026-04-26T07:55:07Z</time></trkpt><trkpt lat="43.44457614505736" lon="11.880375700149184"><ele>263.0</ele><time>2026-04-26T07:55:12Z</time></trkpt><trkpt lat="43.44467997145641" lon="11.880094985191143"><ele>262.75</ele><time>2026-04-26T07:55:14Z</time></trkpt><trkpt lat="43.44471913266072" lon="11.87994970760036"><ele>262.5</ele><time>2026-04-26T07:55:15Z</time></trkpt><trkpt lat="43.44477150298044" lon="11.87977537160546"><ele>262.25</ele><time>2026-04-26T07:55:16Z</time></trkpt><trkpt lat="43.4448356142802" lon="11.879583414060916"><ele>262.0</ele><time>2026-04-26T07:55:17Z</time></trkpt><trkpt lat="43.44490400381775" lon="11.879392729572917"><ele>261.66666666666663</ele><time>2026-04-26T07:55:18Z</time></trkpt><trkpt lat="43.44498020164807" lon="11.879173416565077"><ele>261.3333333333333</ele><time>2026-04-26T07:55:19Z</time></trkpt><trkpt lat="43.44506657278398" lon="11.878941592912046"><ele>261.0</ele><time>2026-04-26T07:55:20Z</time></trkpt><trkpt lat="43.44516146172291" lon="11.878713448103253"><ele>261.0</ele><time>2026-04-26T07:55:21Z</time></trkpt><trkpt lat="43.44526823460711" lon="11.87846684561195"><ele>261.0</ele><time>2026-04-26T07:55:22Z</time></trkpt><trkpt lat="43.44538542069365" lon="11.878209522016117"><ele>261.0</ele><time>2026-04-26T07:55:23Z</time></trkpt><trkpt lat="43.445509162218755" lon="11.877952162567613"><ele>260.0</ele><time>2026-04-26T07:55:24Z</time></trkpt><trkpt lat="43.44566020828072" lon="11.877701186809864"><ele>259.0</ele><time>2026-04-26T07:55:25Z</time></trkpt><trkpt lat="43.44580348221398" lon="11.87744395248948"><ele>259.0</ele><time>2026-04-26T07:55:26Z</time></trkpt><trkpt lat="43.445948619298306" lon="11.877197640278993"><ele>259.0</ele><time>2026-04-26T07:55:27Z</time></trkpt><trkpt lat="43.44609891269459" lon="11.87695201274421"><ele>259.0</ele><time>2026-04-26T07:55:28Z</time></trkpt><trkpt lat="43.44623962200592" lon="11.876694480504138"><ele>259.0</ele><time>2026-04-26T07:55:29Z</time></trkpt><trkpt lat="43.44639967546228" lon="11.876461120884246"><ele>259.0</ele><time>2026-04-26T07:55:30Z</time></trkpt><trkpt lat="43.44656620107426" lon="11.876236012209262"><ele>259.0</ele><time>2026-04-26T07:55:31Z</time></trkpt><trkpt lat="43.44673065760098" lon="11.876000191876638"><ele>258.0</ele><time>2026-04-26T07:55:32Z</time></trkpt><trkpt lat="43.44689570680039" lon="11.875776351355848"><ele>257.0</ele><time>2026-04-26T07:55:33Z</time></trkpt><trkpt lat="43.44706076871677" lon="11.875566910144807"><ele>257.5</ele><time>2026-04-26T07:55:33.999Z</time></trkpt><trkpt lat="43.447216672147654" lon="11.875307372354657"><ele>258.0</ele><time>2026-04-26T07:55:34.999Z</time></trkpt><trkpt lat="43.44736444468257" lon="11.87506758987387"><ele>258.5</ele><time>2026-04-26T07:55:35.999Z</time></trkpt><trkpt lat="43.447512791469755" lon="11.874823796588574"><ele>259.0</ele><time>2026-04-26T07:55:36.999Z</time></trkpt><trkpt lat="43.447655549221096" lon="11.874580812676868"><ele>259.0</ele><time>2026-04-26T07:55:37.999Z</time></trkpt><trkpt lat="43.44779311971683" lon="11.874338406040895"><ele>259.0</ele><time>2026-04-26T07:55:38.999Z</time></trkpt><trkpt lat="43.44792863879265" lon="11.874093063617929"><ele>259.0</ele><time>2026-04-26T07:55:39.999Z</time></trkpt><trkpt lat="43.44806541960822" lon="11.873851610904312"><ele>258.3333333333333</ele><time>2026-04-26T07:55:40.999Z</time></trkpt><trkpt lat="43.448203955091515" lon="11.873612510916354"><ele>257.6666666666667</ele><time>2026-04-26T07:55:41.999Z</time></trkpt><trkpt lat="43.44834280045312" lon="11.873375760663675"><ele>257.0</ele><time>2026-04-26T07:55:42.999Z</time></trkpt><trkpt lat="43.44848569496111" lon="11.87313280430664"><ele>256.5</ele><time>2026-04-26T07:55:43.999Z</time></trkpt><trkpt lat="43.44862206415638" lon="11.872881224158315"><ele>256.0</ele><time>2026-04-26T07:55:44.999Z</time></trkpt><trkpt lat="43.448767899999844" lon="11.872637585412628"><ele>257.0</ele><time>2026-04-26T07:55:45.999Z</time></trkpt><trkpt lat="43.4488869454226" lon="11.87236788400822"><ele>258.0</ele><time>2026-04-26T07:55:46.999Z</time></trkpt><trkpt lat="43.44904027185344" lon="11.872124747354622"><ele>258.0</ele><time>2026-04-26T07:55:47.999Z</time></trkpt><trkpt lat="43.449184949472155" lon="11.871870370104453"><ele>258.0</ele><time>2026-04-26T07:55:48.999Z</time></trkpt><trkpt lat="43.44933134686924" lon="11.87161455172546"><ele>257.5</ele><time>2026-04-26T07:55:49.999Z</time></trkpt><trkpt lat="43.44948153607765" lon="11.871361411932563"><ele>257.0</ele><time>2026-04-26T07:55:50.999Z</time></trkpt><trkpt lat="43.449636089395234" lon="11.87111457817856"><ele>256.5</ele><time>2026-04-26T07:55:51.999Z</time></trkpt><trkpt lat="43.44978371702786" lon="11.870860793600782"><ele>256.0</ele><time>2026-04-26T07:55:52.999Z</time></trkpt><trkpt lat="43.449931126165886" lon="11.870606205570077"><ele>256.0</ele><time>2026-04-26T07:55:53.999Z</time></trkpt><trkpt lat="43.45008013833365" lon="11.870350603664093"><ele>256.0</ele><time>2026-04-26T07:55:54.999Z</time></trkpt><trkpt lat="43.45022805645022" lon="11.870096878376948"><ele>255.5</ele><time>2026-04-26T07:55:55.999Z</time></trkpt><trkpt lat="43.45037634829103" lon="11.869842452710179"><ele>255.0</ele><time>2026-04-26T07:55:56.999Z</time></trkpt><trkpt lat="43.450526527083056" lon="11.86958372748743"><ele>255.0</ele><time>2026-04-26T07:55:57.999Z</time></trkpt><trkpt lat="43.45067804783409" lon="11.8693218114934"><ele>255.0</ele><time>2026-04-26T07:55:58.999Z</time></trkpt><trkpt lat="43.4508304808725" lon="11.869058318541432"><ele>255.5</ele><time>2026-04-26T07:55:59.999Z</time></trkpt><trkpt lat="43.45098424912" lon="11.86879286389901"><ele>256.0</ele><time>2026-04-26T07:56:00.999Z</time></trkpt><trkpt lat="43.45113410881236" lon="11.868534243122815"><ele>255.66666666666666</ele><time>2026-04-26T07:56:01.999Z</time></trkpt><trkpt lat="43.45127628030629" lon="11.86828889031726"><ele>255.33333333333331</ele><time>2026-04-26T07:56:02.999Z</time></trkpt><trkpt lat="43.45141407659814" lon="11.868052181201499"><ele>255.0</ele><time>2026-04-26T07:56:03.999Z</time></trkpt><trkpt lat="43.45154243923803" lon="11.867833849392017"><ele>254.66666666666669</ele><time>2026-04-26T07:56:04.999Z</time></trkpt><trkpt lat="43.451667532276076" lon="11.867604994570998"><ele>254.33333333333334</ele><time>2026-04-26T07:56:05.999Z</time></trkpt><trkpt lat="43.451795610930105" lon="11.867377786153327"><ele>254.0</ele><time>2026-04-26T07:56:06.999Z</time></trkpt><trkpt lat="43.45192831993589" lon="11.867160572379442"><ele>254.0</ele><time>2026-04-26T07:56:07.999Z</time></trkpt><trkpt lat="43.45207443305482" lon="11.866946233349644"><ele>254.0</ele><time>2026-04-26T07:56:08.999Z</time></trkpt><trkpt lat="43.452225466124275" lon="11.866735054686131"><ele>254.0</ele><time>2026-04-26T07:56:09.999Z</time></trkpt><trkpt lat="43.4523749346182" lon="11.866534612095208"><ele>253.0</ele><time>2026-04-26T07:56:10.999Z</time></trkpt><trkpt lat="43.452518278848004" lon="11.866344696305479"><ele>252.0</ele><time>2026-04-26T07:56:11.999Z</time></trkpt><trkpt lat="43.4526499011763" lon="11.8661683453151"><ele>251.0</ele><time>2026-04-26T07:56:12.999Z</time></trkpt><trkpt lat="43.45275985727231" lon="11.86603255556434"><ele>251.25</ele><time>2026-04-26T07:56:13.999Z</time></trkpt><trkpt lat="43.45286818483139" lon="11.865900773455113"><ele>251.5</ele><time>2026-04-26T07:56:14.999Z</time></trkpt><trkpt lat="43.452952316905346" lon="11.865781547624461"><ele>251.75</ele><time>2026-04-26T07:56:15.999Z</time></trkpt><trkpt lat="43.45305487417196" lon="11.86574213797231"><ele>252.0</ele><time>2026-04-26T07:56:16.999Z</time></trkpt><trkpt lat="43.453137196724505" lon="11.865667575436976"><ele>252.0</ele><time>2026-04-26T07:56:17.999Z</time></trkpt><trkpt lat="43.45323553658057" lon="11.865659896333591"><ele>252.0</ele><time>2026-04-26T07:56:18.999Z</time></trkpt><trkpt lat="43.4533223067767" lon="11.86566434308919"><ele>252.0</ele><time>2026-04-26T07:56:19.999Z</time></trkpt><trkpt lat="43.45339445049058" lon="11.865628143332563"><ele>252.0</ele><time>2026-04-26T07:56:20.999Z</time></trkpt><trkpt lat="43.453449862924415" lon="11.865556839879973"><ele>252.0</ele><time>2026-04-26T07:56:21.999Z</time></trkpt><trkpt lat="43.45348723471969" lon="11.865467558153183"><ele>252.0</ele><time>2026-04-26T07:56:22.999Z</time></trkpt><trkpt lat="43.45350999803711" lon="11.865363842015821"><ele>252.0</ele><time>2026-04-26T07:56:23.999Z</time></trkpt><trkpt lat="43.45352425155483" lon="11.86524909980979"><ele>252.0</ele><time>2026-04-26T07:56:24.999Z</time></trkpt><trkpt lat="43.453554436497235" lon="11.865136029470799"><ele>252.0</ele><time>2026-04-26T07:56:25.999Z</time></trkpt><trkpt lat="43.45361387214238" lon="11.865026460062506"><ele>252.0</ele><time>2026-04-26T07:56:26.999Z</time></trkpt><trkpt lat="43.45369800313399" lon="11.864919372109911"><ele>252.0</ele><time>2026-04-26T07:56:27.999Z</time></trkpt><trkpt lat="43.45380154584941" lon="11.864831699275223"><ele>252.75</ele><time>2026-04-26T07:56:28.999Z</time></trkpt><trkpt lat="43.453901655518315" lon="11.864727411583923"><ele>253.5</ele><time>2026-04-26T07:56:29.999Z</time></trkpt><trkpt lat="43.454019367187506" lon="11.86461273490454"><ele>254.25</ele><time>2026-04-26T07:56:30.999Z</time></trkpt><trkpt lat="43.45415326223627" lon="11.864491735864352"><ele>255.0</ele><time>2026-04-26T07:56:31.999Z</time></trkpt><trkpt lat="43.45429622327239" lon="11.864360430590065"><ele>255.0</ele><time>2026-04-26T07:56:32.999Z</time></trkpt><trkpt lat="43.45442882164422" lon="11.864241120737079"><ele>255.0</ele><time>2026-04-26T07:56:33.999Z</time></trkpt><trkpt lat="43.4545491261509" lon="11.864111151245146"><ele>255.0</ele><time>2026-04-26T07:56:34.999Z</time></trkpt><trkpt lat="43.454677904046385" lon="11.864005720292448"><ele>254.5</ele><time>2026-04-26T07:56:35.999Z</time></trkpt><trkpt lat="43.45480800674664" lon="11.863904575815631"><ele>254.0</ele><time>2026-04-26T07:56:36.999Z</time></trkpt><trkpt lat="43.45493567526778" lon="11.863801321098874"><ele>253.5</ele><time>2026-04-26T07:56:37.999Z</time></trkpt><trkpt lat="43.455064876972784" lon="11.863696410287073"><ele>253.0</ele><time>2026-04-26T07:56:38.999Z</time></trkpt><trkpt lat="43.45519257706714" lon="11.863598091215923"><ele>253.0</ele><time>2026-04-26T07:56:39.999Z</time></trkpt><trkpt lat="43.45532115088475" lon="11.863500210459245"><ele>253.0</ele><time>2026-04-26T07:56:40.999Z</time></trkpt><trkpt lat="43.45545038529666" lon="11.863402716390514"><ele>253.0</ele><time>2026-04-26T07:56:41.999Z</time></trkpt><trkpt lat="43.455580178693545" lon="11.863310964161993"><ele>253.0</ele><time>2026-04-26T07:56:42.999Z</time></trkpt><trkpt lat="43.455708267969214" lon="11.863225024497075"><ele>252.5</ele><time>2026-04-26T07:56:43.999Z</time></trkpt><trkpt lat="43.45583636564154" lon="11.86314320231588"><ele>252.0</ele><time>2026-04-26T07:56:44.999Z</time></trkpt><trkpt lat="43.455968800002644" lon="11.86306769081549"><ele>251.5</ele><time>2026-04-26T07:56:45.999Z</time></trkpt><trkpt lat="43.45610724463701" lon="11.862990812307302"><ele>251.0</ele><time>2026-04-26T07:56:46.999Z</time></trkpt><trkpt lat="43.45625133218639" lon="11.86291284055207"><ele>251.0</ele><time>2026-04-26T07:56:47.999Z</time></trkpt><trkpt lat="43.456401178518284" lon="11.862826925102565"><ele>251.0</ele><time>2026-04-26T07:56:48.999Z</time></trkpt><trkpt lat="43.45655668074741" lon="11.862736474779485"><ele>251.0</ele><time>2026-04-26T07:56:49.999Z</time></trkpt><trkpt lat="43.456718016977305" lon="11.862643756075917"><ele>251.0</ele><time>2026-04-26T07:56:50.999Z</time></trkpt><trkpt lat="43.456884273411994" lon="11.862555736644865"><ele>251.0</ele><time>2026-04-26T07:56:51.999Z</time></trkpt><trkpt lat="43.45705302138503" lon="11.862467808300416"><ele>251.0</ele><time>2026-04-26T07:56:52.999Z</time></trkpt><trkpt lat="43.45722941209037" lon="11.86237291712107"><ele>250.33333333333334</ele><time>2026-04-26T07:56:53.999Z</time></trkpt><trkpt lat="43.4574081021433" lon="11.86227997443185"><ele>249.66666666666669</ele><time>2026-04-26T07:56:54.999Z</time></trkpt><trkpt lat="43.4575858649362" lon="11.862189860855521"><ele>249.0</ele><time>2026-04-26T07:56:55.999Z</time></trkpt><trkpt lat="43.45776062002881" lon="11.862104495910431"><ele>249.0</ele><time>2026-04-26T07:56:56.999Z</time></trkpt><trkpt lat="43.45792483170256" lon="11.862032562265368"><ele>249.0</ele><time>2026-04-26T07:56:57.999Z</time></trkpt><trkpt lat="43.4580784027758" lon="11.861969953185373"><ele>249.0</ele><time>2026-04-26T07:56:58.999Z</time></trkpt><trkpt lat="43.4582293492832" lon="11.861910383868913"><ele>248.75</ele><time>2026-04-26T07:56:59.999Z</time></trkpt><trkpt lat="43.45837338968617" lon="11.861853002232108"><ele>248.5</ele><time>2026-04-26T07:57:00.999Z</time></trkpt><trkpt lat="43.458505123906896" lon="11.86179869556053"><ele>248.25</ele><time>2026-04-26T07:57:01.999Z</time></trkpt><trkpt lat="43.45862582802662" lon="11.861756559053362"><ele>248.0</ele><time>2026-04-26T07:57:02.999Z</time></trkpt><trkpt lat="43.45873933982333" lon="11.861732174491342"><ele>247.5</ele><time>2026-04-26T07:57:03.999Z</time></trkpt><trkpt lat="43.458844531589435" lon="11.861758329499558"><ele>247.0</ele><time>2026-04-26T07:57:05Z</time></trkpt><trkpt lat="43.458945724674535" lon="11.861821831616734"><ele>246.5</ele><time>2026-04-26T07:57:06Z</time></trkpt><trkpt lat="43.45904559523306" lon="11.861912650210494"><ele>246.0</ele><time>2026-04-26T07:57:07Z</time></trkpt><trkpt lat="43.45914123940484" lon="11.862018927640262"><ele>247.0</ele><time>2026-04-26T07:57:08Z</time></trkpt><trkpt lat="43.4592564785904" lon="11.862072458221734"><ele>248.0</ele><time>2026-04-26T07:57:09Z</time></trkpt><trkpt lat="43.459382479285544" lon="11.862050768340767"><ele>249.0</ele><time>2026-04-26T07:57:10Z</time></trkpt><trkpt lat="43.45950543119852" lon="11.861964357948795"><ele>250.0</ele><time>2026-04-26T07:57:11Z</time></trkpt><trkpt lat="43.45959837058378" lon="11.86183171884915"><ele>250.0</ele><time>2026-04-26T07:57:12Z</time></trkpt><trkpt lat="43.45968044622225" lon="11.86167899748131"><ele>250.0</ele><time>2026-04-26T07:57:13Z</time></trkpt><trkpt lat="43.459769331534574" lon="11.86154567864297"><ele>250.0</ele><time>2026-04-26T07:57:14Z</time></trkpt><trkpt lat="43.45989146272126" lon="11.8614555731382"><ele>250.0</ele><time>2026-04-26T07:57:15Z</time></trkpt><trkpt lat="43.460047971323014" lon="11.861455462295167"><ele>250.0</ele><time>2026-04-26T07:57:16Z</time></trkpt><trkpt lat="43.46021682959267" lon="11.861431228804566"><ele>250.0</ele><time>2026-04-26T07:57:17Z</time></trkpt><trkpt lat="43.460397477093025" lon="11.86140559184318"><ele>250.0</ele><time>2026-04-26T07:57:18Z</time></trkpt><trkpt lat="43.460588336948" lon="11.861382840011242"><ele>250.0</ele><time>2026-04-26T07:57:19Z</time></trkpt><trkpt lat="43.4607823659668" lon="11.861362888539837"><ele>250.0</ele><time>2026-04-26T07:57:20Z</time></trkpt><trkpt lat="43.460982180942594" lon="11.861344723820636"><ele>250.0</ele><time>2026-04-26T07:57:21Z</time></trkpt><trkpt lat="43.46118765595803" lon="11.861325927128348"><ele>249.33333333333331</ele><time>2026-04-26T07:57:22Z</time></trkpt><trkpt lat="43.46140238225041" lon="11.861306284148133"><ele>248.66666666666669</ele><time>2026-04-26T07:57:23Z</time></trkpt><trkpt lat="43.461616994545935" lon="11.86128743884118"><ele>248.0</ele><time>2026-04-26T07:57:24Z</time></trkpt><trkpt lat="43.46182866057296" lon="11.86124605521935"><ele>248.0</ele><time>2026-04-26T07:57:25Z</time></trkpt><trkpt lat="43.46204574777529" lon="11.861228145127363"><ele>248.0</ele><time>2026-04-26T07:57:26Z</time></trkpt><trkpt lat="43.46226788734628" lon="11.861207161926783"><ele>248.0</ele><time>2026-04-26T07:57:27Z</time></trkpt><trkpt lat="43.46249149279135" lon="11.861191246507108"><ele>248.33333333333334</ele><time>2026-04-26T07:57:28Z</time></trkpt><trkpt lat="43.46271702284876" lon="11.861166393900438"><ele>248.66666666666669</ele><time>2026-04-26T07:57:29Z</time></trkpt><trkpt lat="43.46293824939578" lon="11.861151689853736"><ele>249.0</ele><time>2026-04-26T07:57:30Z</time></trkpt><trkpt lat="43.46315855140452" lon="11.861137400305765"><ele>249.0</ele><time>2026-04-26T07:57:31Z</time></trkpt><trkpt lat="43.46338387985987" lon="11.86111691481727"><ele>249.0</ele><time>2026-04-26T07:57:32Z</time></trkpt><trkpt lat="43.46360383672307" lon="11.86109683337889"><ele>249.0</ele><time>2026-04-26T07:57:33Z</time></trkpt><trkpt lat="43.46382754021724" lon="11.861077713421428"><ele>249.0</ele><time>2026-04-26T07:57:34Z</time></trkpt><trkpt lat="43.46404423096521" lon="11.861058809216381"><ele>249.0</ele><time>2026-04-26T07:57:35Z</time></trkpt><trkpt lat="43.46426555923093" lon="11.861039555204497"><ele>249.0</ele><time>2026-04-26T07:57:36Z</time></trkpt><trkpt lat="43.46449031328199" lon="11.861016769678404"><ele>249.33333333333331</ele><time>2026-04-26T07:57:37Z</time></trkpt><trkpt lat="43.4647115458367" lon="11.860988089481143"><ele>249.66666666666666</ele><time>2026-04-26T07:57:38Z</time></trkpt><trkpt lat="43.46492781759378" lon="11.860959518627741"><ele>250.0</ele><time>2026-04-26T07:57:39Z</time></trkpt><trkpt lat="43.46514799052889" lon="11.860959127339607"><ele>249.66666666666666</ele><time>2026-04-26T07:57:40Z</time></trkpt><trkpt lat="43.46536935506565" lon="11.860942888710778"><ele>249.33333333333331</ele><time>2026-04-26T07:57:41Z</time></trkpt><trkpt lat="43.465592107867955" lon="11.860930662460204"><ele>249.0</ele><time>2026-04-26T07:57:42Z</time></trkpt><trkpt lat="43.46580707911153" lon="11.86092059064145"><ele>249.33333333333331</ele><time>2026-04-26T07:57:43Z</time></trkpt><trkpt lat="43.466007607743094" lon="11.860915730080297"><ele>249.66666666666666</ele><time>2026-04-26T07:57:44Z</time></trkpt><trkpt lat="43.46620857769235" lon="11.860915560649289"><ele>250.0</ele><time>2026-04-26T07:57:45Z</time></trkpt><trkpt lat="43.46640507315118" lon="11.860918878380442"><ele>250.0</ele><time>2026-04-26T07:57:46Z</time></trkpt><trkpt lat="43.46660052480477" lon="11.860927166627018"><ele>250.0</ele><time>2026-04-26T07:57:47Z</time></trkpt><trkpt lat="43.466794907467865" lon="11.860940912866438"><ele>250.0</ele><time>2026-04-26T07:57:48Z</time></trkpt><trkpt lat="43.46698141267292" lon="11.86095778694446"><ele>249.33333333333331</ele><time>2026-04-26T07:57:49Z</time></trkpt><trkpt lat="43.46715966028962" lon="11.860977028072554"><ele>248.66666666666669</ele><time>2026-04-26T07:57:50Z</time></trkpt><trkpt lat="43.467333603686626" lon="11.860999940412084"><ele>248.0</ele><time>2026-04-26T07:57:51Z</time></trkpt><trkpt lat="43.46749578532759" lon="11.861023382961083"><ele>248.0</ele><time>2026-04-26T07:57:52Z</time></trkpt><trkpt lat="43.467656504091494" lon="11.861050274761459"><ele>248.0</ele><time>2026-04-26T07:57:53Z</time></trkpt><trkpt lat="43.467815753498805" lon="11.861078041440217"><ele>248.0</ele><time>2026-04-26T07:57:54Z</time></trkpt><trkpt lat="43.467974552359614" lon="11.861103850193912"><ele>248.33333333333334</ele><time>2026-04-26T07:57:55Z</time></trkpt><trkpt lat="43.468133341240936" lon="11.861130397382173"><ele>248.66666666666669</ele><time>2026-04-26T07:57:56Z</time></trkpt><trkpt lat="43.468295712393385" lon="11.861158257414585"><ele>249.0</ele><time>2026-04-26T07:57:57Z</time></trkpt><trkpt lat="43.46845753931184" lon="11.861190229303201"><ele>249.0</ele><time>2026-04-26T07:57:58Z</time></trkpt><trkpt lat="43.46861321038829" lon="11.861223308606723"><ele>249.0</ele><time>2026-04-26T07:57:59Z</time></trkpt><trkpt lat="43.4687599856352" lon="11.861257027606097"><ele>249.0</ele><time>2026-04-26T07:58:00Z</time></trkpt><trkpt lat="43.46889659910068" lon="11.861272574714414"><ele>249.0</ele><time>2026-04-26T07:58:01Z</time></trkpt><trkpt lat="43.469024748465095" lon="11.861314936138331"><ele>249.0</ele><time>2026-04-26T07:58:02Z</time></trkpt><trkpt lat="43.46914964178463" lon="11.861358332289711"><ele>249.0</ele><time>2026-04-26T07:58:03Z</time></trkpt><trkpt lat="43.469278034640965" lon="11.861399327245783"><ele>249.0</ele><time>2026-04-26T07:58:04Z</time></trkpt><trkpt lat="43.46940896783829" lon="11.861439182171132"><ele>249.0</ele><time>2026-04-26T07:58:05Z</time></trkpt><trkpt lat="43.46954059241469" lon="11.861479529318213"><ele>248.75</ele><time>2026-04-26T07:58:06Z</time></trkpt><trkpt lat="43.46967091416004" lon="11.861519374617176"><ele>248.5</ele><time>2026-04-26T07:58:07Z</time></trkpt><trkpt lat="43.469802549935665" lon="11.861560871770525"><ele>248.25</ele><time>2026-04-26T07:58:08Z</time></trkpt><trkpt lat="43.46993587689222" lon="11.861602608314294"><ele>248.0</ele><time>2026-04-26T07:58:09Z</time></trkpt><trkpt lat="43.470073669695644" lon="11.861645112470113"><ele>248.0</ele><time>2026-04-26T07:58:10Z</time></trkpt><trkpt lat="43.47021431580427" lon="11.861686136905005"><ele>248.0</ele><time>2026-04-26T07:58:11Z</time></trkpt><trkpt lat="43.47035446532344" lon="11.861720573911873"><ele>248.0</ele><time>2026-04-26T07:58:12Z</time></trkpt><trkpt lat="43.47049299658417" lon="11.861748795186946"><ele>248.0</ele><time>2026-04-26T07:58:13Z</time></trkpt><trkpt lat="43.47062690651466" lon="11.861785445553638"><ele>248.25</ele><time>2026-04-26T07:58:14Z</time></trkpt><trkpt lat="43.47075988893" lon="11.861829197177604"><ele>248.5</ele><time>2026-04-26T07:58:15Z</time></trkpt><trkpt lat="43.47089087771162" lon="11.861871630462824"><ele>248.75</ele><time>2026-04-26T07:58:16Z</time></trkpt><trkpt lat="43.47102015334555" lon="11.861912926337045"><ele>249.0</ele><time>2026-04-26T07:58:17Z</time></trkpt><trkpt lat="43.47115105372519" lon="11.8619539066236"><ele>249.25</ele><time>2026-04-26T07:58:18Z</time></trkpt><trkpt lat="43.47128030115688" lon="11.861993119009158"><ele>249.5</ele><time>2026-04-26T07:58:19Z</time></trkpt><trkpt lat="43.471410867045165" lon="11.862032304134217"><ele>249.75</ele><time>2026-04-26T07:58:20Z</time></trkpt><trkpt lat="43.47154027935536" lon="11.862074653296915"><ele>250.0</ele><time>2026-04-26T07:58:21Z</time></trkpt><trkpt lat="43.47166299637958" lon="11.862115685505419"><ele>250.0</ele><time>2026-04-26T07:58:22Z</time></trkpt><trkpt lat="43.4717808144523" lon="11.862158149274048"><ele>250.0</ele><time>2026-04-26T07:58:23Z</time></trkpt><trkpt lat="43.471899407262946" lon="11.862208524263334"><ele>250.0</ele><time>2026-04-26T07:58:24Z</time></trkpt><trkpt lat="43.472018832320565" lon="11.862275620220768"><ele>250.0</ele><time>2026-04-26T07:58:25Z</time></trkpt><trkpt lat="43.47213833217141" lon="11.862349032352785"><ele>249.25</ele><time>2026-04-26T07:58:26Z</time></trkpt><trkpt lat="43.47225958696715" lon="11.862430055611366"><ele>248.5</ele><time>2026-04-26T07:58:27Z</time></trkpt><trkpt lat="43.472383689842964" lon="11.862510223662412"><ele>247.75</ele><time>2026-04-26T07:58:28Z</time></trkpt><trkpt lat="43.47252118455977" lon="11.862608517920988"><ele>247.0</ele><time>2026-04-26T07:58:29Z</time></trkpt><trkpt lat="43.4726679674636" lon="11.862727975433177"><ele>246.66666666666666</ele><time>2026-04-26T07:58:30Z</time></trkpt><trkpt lat="43.472826529396436" lon="11.862862953761102"><ele>246.33333333333331</ele><time>2026-04-26T07:58:31Z</time></trkpt><trkpt lat="43.47298616797641" lon="11.86300476886545"><ele>246.0</ele><time>2026-04-26T07:58:32Z</time></trkpt><trkpt lat="43.473141678918104" lon="11.86315117364804"><ele>246.0</ele><time>2026-04-26T07:58:33Z</time></trkpt><trkpt lat="43.473311713534905" lon="11.863300274558016"><ele>246.0</ele><time>2026-04-26T07:58:34Z</time></trkpt><trkpt lat="43.47348760362801" lon="11.863452475868094"><ele>246.0</ele><time>2026-04-26T07:58:35Z</time></trkpt><trkpt lat="43.47366163265971" lon="11.863607150362087"><ele>245.66666666666669</ele><time>2026-04-26T07:58:36Z</time></trkpt><trkpt lat="43.47383659352927" lon="11.8637610387775"><ele>245.33333333333334</ele><time>2026-04-26T07:58:37Z</time></trkpt><trkpt lat="43.47401362697742" lon="11.863912365713317"><ele>245.0</ele><time>2026-04-26T07:58:38Z</time></trkpt><trkpt lat="43.47419348418427" lon="11.864069845957038"><ele>245.0</ele><time>2026-04-26T07:58:39Z</time></trkpt><trkpt lat="43.47437609025389" lon="11.86423167361549"><ele>245.0</ele><time>2026-04-26T07:58:40Z</time></trkpt><trkpt lat="43.474564389387446" lon="11.864393986067206"><ele>245.0</ele><time>2026-04-26T07:58:41Z</time></trkpt><trkpt lat="43.47475587789481" lon="11.864554375554361"><ele>245.5</ele><time>2026-04-26T07:58:41.999Z</time></trkpt><trkpt lat="43.474948032174744" lon="11.86471285317415"><ele>246.0</ele><time>2026-04-26T07:58:42.999Z</time></trkpt><trkpt lat="43.47514599498203" lon="11.864866929152539"><ele>246.0</ele><time>2026-04-26T07:58:43.999Z</time></trkpt><trkpt lat="43.47534695588129" lon="11.865015376448072"><ele>246.0</ele><time>2026-04-26T07:58:44.999Z</time></trkpt><trkpt lat="43.475546513488815" lon="11.865162246644546"><ele>247.0</ele><time>2026-04-26T07:58:45.999Z</time></trkpt><trkpt lat="43.47574507905301" lon="11.865310707972618"><ele>248.0</ele><time>2026-04-26T07:58:46.999Z</time></trkpt><trkpt lat="43.47594346723379" lon="11.865465102580888"><ele>248.0</ele><time>2026-04-26T07:58:47.999Z</time></trkpt><trkpt lat="43.47614238824349" lon="11.865618114006258"><ele>248.0</ele><time>2026-04-26T07:58:48.999Z</time></trkpt><trkpt lat="43.47634199978893" lon="11.865772569516748"><ele>248.5</ele><time>2026-04-26T07:58:49.999Z</time></trkpt><trkpt lat="43.47654175397738" lon="11.865926378669943"><ele>249.0</ele><time>2026-04-26T07:58:50.999Z</time></trkpt><trkpt lat="43.47674007461291" lon="11.866081590164715"><ele>249.0</ele><time>2026-04-26T07:58:51.999Z</time></trkpt><trkpt lat="43.47692552774747" lon="11.866226877527454"><ele>249.0</ele><time>2026-04-26T07:58:52.999Z</time></trkpt><trkpt lat="43.4771010347856" lon="11.866363854933386"><ele>249.0</ele><time>2026-04-26T07:58:53.999Z</time></trkpt><trkpt lat="43.477265478008334" lon="11.866499146668861"><ele>249.0</ele><time>2026-04-26T07:58:54.999Z</time></trkpt><trkpt lat="43.47741733913693" lon="11.866622677855403"><ele>249.0</ele><time>2026-04-26T07:58:55.999Z</time></trkpt><trkpt lat="43.47755161653742" lon="11.866733500220052"><ele>249.0</ele><time>2026-04-26T07:58:56.999Z</time></trkpt><trkpt lat="43.47766642967411" lon="11.866828733214982"><ele>248.6</ele><time>2026-04-26T07:58:57.999Z</time></trkpt><trkpt lat="43.47775897530437" lon="11.866915602707888"><ele>248.2</ele><time>2026-04-26T07:58:58.999Z</time></trkpt><trkpt lat="43.477823731542344" lon="11.867017107081065"><ele>247.79999999999998</ele><time>2026-04-26T07:58:59.999Z</time></trkpt><trkpt lat="43.47785560396321" lon="11.867151216392553"><ele>247.39999999999998</ele><time>2026-04-26T07:59:00.999Z</time></trkpt><trkpt lat="43.477879092248195" lon="11.867293742658754"><ele>247.0</ele><time>2026-04-26T07:59:01.999Z</time></trkpt><trkpt lat="43.477905679795576" lon="11.867415019713615"><ele>247.0</ele><time>2026-04-26T07:59:02.999Z</time></trkpt><trkpt lat="43.47796697479741" lon="11.867500685477754"><ele>247.0</ele><time>2026-04-26T07:59:03.999Z</time></trkpt><trkpt lat="43.47804443324973" lon="11.867577951842716"><ele>247.0</ele><time>2026-04-26T07:59:04.999Z</time></trkpt><trkpt lat="43.478129035200396" lon="11.867622100755932"><ele>247.0</ele><time>2026-04-26T07:59:05.999Z</time></trkpt><trkpt lat="43.47821515908402" lon="11.86764372455148"><ele>247.0</ele><time>2026-04-26T07:59:06.999Z</time></trkpt><trkpt lat="43.47831394898068" lon="11.867631729388643"><ele>247.25</ele><time>2026-04-26T07:59:07.999Z</time></trkpt><trkpt lat="43.47842283597836" lon="11.867551646938873"><ele>247.5</ele><time>2026-04-26T07:59:08.999Z</time></trkpt><trkpt lat="43.478523542049686" lon="11.867469269831712"><ele>247.75</ele><time>2026-04-26T07:59:09.999Z</time></trkpt><trkpt lat="43.47863618309662" lon="11.867425631787018"><ele>248.0</ele><time>2026-04-26T07:59:11Z</time></trkpt><trkpt lat="43.47875841400676" lon="11.867445333684573"><ele>248.25</ele><time>2026-04-26T07:59:12.001Z</time></trkpt><trkpt lat="43.478885994627056" lon="11.86750273268119"><ele>248.5</ele><time>2026-04-26T07:59:13Z</time></trkpt><trkpt lat="43.47902260096345" lon="11.867596474544992"><ele>248.75</ele><time>2026-04-26T07:59:14.001Z</time></trkpt><trkpt lat="43.479157082314636" lon="11.867718478540102"><ele>249.0</ele><time>2026-04-26T07:59:15.001Z</time></trkpt><trkpt lat="43.47929395212831" lon="11.867834069070232"><ele>248.33333333333331</ele><time>2026-04-26T07:59:16.001Z</time></trkpt><trkpt lat="43.47944403714534" lon="11.867948537295383"><ele>247.66666666666666</ele><time>2026-04-26T07:59:17.001Z</time></trkpt><trkpt lat="43.47960676892669" lon="11.86806824683716"><ele>247.0</ele><time>2026-04-26T07:59:18.001Z</time></trkpt><trkpt lat="43.47976188103083" lon="11.86818955944194"><ele>247.0</ele><time>2026-04-26T07:59:19.001Z</time></trkpt><trkpt lat="43.47992020860188" lon="11.868314530006627"><ele>247.0</ele><time>2026-04-26T07:59:20.001Z</time></trkpt><trkpt lat="43.48008527630847" lon="11.868443340059484"><ele>247.0</ele><time>2026-04-26T07:59:21.001Z</time></trkpt><trkpt lat="43.48025622303631" lon="11.868575740545538"><ele>247.0</ele><time>2026-04-26T07:59:22.001Z</time></trkpt><trkpt lat="43.480434027542906" lon="11.86871423072676"><ele>247.0</ele><time>2026-04-26T07:59:23.001Z</time></trkpt><trkpt lat="43.48061060308804" lon="11.868850134426195"><ele>247.0</ele><time>2026-04-26T07:59:24.001Z</time></trkpt><trkpt lat="43.48078473500131" lon="11.868982564118514"><ele>247.0</ele><time>2026-04-26T07:59:25.001Z</time></trkpt><trkpt lat="43.48096175921176" lon="11.869112913554186"><ele>247.0</ele><time>2026-04-26T07:59:26.001Z</time></trkpt><trkpt lat="43.48114261322934" lon="11.86924958412174"><ele>247.0</ele><time>2026-04-26T07:59:27.001Z</time></trkpt><trkpt lat="43.48132551302429" lon="11.869388625866277"><ele>247.66666666666666</ele><time>2026-04-26T07:59:28Z</time></trkpt><trkpt lat="43.48151252584048" lon="11.869527743099873"><ele>248.33333333333331</ele><time>2026-04-26T07:59:29Z</time></trkpt><trkpt lat="43.481702466310686" lon="11.869665408516475"><ele>249.0</ele><time>2026-04-26T07:59:30Z</time></trkpt><trkpt lat="43.48189262493573" lon="11.869806696506641"><ele>249.0</ele><time>2026-04-26T07:59:31Z</time></trkpt><trkpt lat="43.48208809487368" lon="11.869950566372907"><ele>249.0</ele><time>2026-04-26T07:59:32Z</time></trkpt><trkpt lat="43.482285729439916" lon="11.870097710967656"><ele>249.0</ele><time>2026-04-26T07:59:33Z</time></trkpt><trkpt lat="43.48248590869417" lon="11.870249186019507"><ele>250.0</ele><time>2026-04-26T07:59:34Z</time></trkpt><trkpt lat="43.4826866151201" lon="11.870401494843945"><ele>251.0</ele><time>2026-04-26T07:59:35Z</time></trkpt><trkpt lat="43.48288712322414" lon="11.870555578388538"><ele>251.0</ele><time>2026-04-26T07:59:36Z</time></trkpt><trkpt lat="43.48308770312429" lon="11.870710455924595"><ele>251.0</ele><time>2026-04-26T07:59:37Z</time></trkpt><trkpt lat="43.48328964171603" lon="11.870869170220345"><ele>250.0</ele><time>2026-04-26T07:59:38Z</time></trkpt><trkpt lat="43.48348841483918" lon="11.871033021828797"><ele>249.0</ele><time>2026-04-26T07:59:39Z</time></trkpt><trkpt lat="43.48368559551246" lon="11.871205871558807"><ele>250.0</ele><time>2026-04-26T07:59:40Z</time></trkpt><trkpt lat="43.48387646163241" lon="11.87139029516604"><ele>251.0</ele><time>2026-04-26T07:59:41Z</time></trkpt><trkpt lat="43.484059298923924" lon="11.871584619750884"><ele>251.0</ele><time>2026-04-26T07:59:42Z</time></trkpt><trkpt lat="43.484238996193426" lon="11.871789876923325"><ele>251.0</ele><time>2026-04-26T07:59:43Z</time></trkpt><trkpt lat="43.48440401305962" lon="11.87200169502655"><ele>251.0</ele><time>2026-04-26T07:59:44Z</time></trkpt><trkpt lat="43.48455138725408" lon="11.872212358051527"><ele>251.0</ele><time>2026-04-26T07:59:45Z</time></trkpt><trkpt lat="43.48468596456437" lon="11.872419605100346"><ele>251.0</ele><time>2026-04-26T07:59:46Z</time></trkpt><trkpt lat="43.48481398590398" lon="11.87262959256094"><ele>251.0</ele><time>2026-04-26T07:59:47Z</time></trkpt><trkpt lat="43.4849357209588" lon="11.872839597752153"><ele>251.0</ele><time>2026-04-26T07:59:48Z</time></trkpt><trkpt lat="43.48504976736188" lon="11.873052154882771"><ele>251.0</ele><time>2026-04-26T07:59:49Z</time></trkpt><trkpt lat="43.48515416944022" lon="11.87326824615942"><ele>251.0</ele><time>2026-04-26T07:59:50Z</time></trkpt><trkpt lat="43.485253574973235" lon="11.873483783282419"><ele>251.0</ele><time>2026-04-26T07:59:51Z</time></trkpt><trkpt lat="43.485341452701135" lon="11.873694283204864"><ele>251.0</ele><time>2026-04-26T07:59:52Z</time></trkpt><trkpt lat="43.48542403471214" lon="11.873899509553885"><ele>251.0</ele><time>2026-04-26T07:59:53Z</time></trkpt><trkpt lat="43.48549104993121" lon="11.874098031892816"><ele>251.0</ele><time>2026-04-26T07:59:54Z</time></trkpt><trkpt lat="43.48555314204092" lon="11.874291058456135"><ele>251.0</ele><time>2026-04-26T07:59:55Z</time></trkpt><trkpt lat="43.48561043835135" lon="11.874472289496213"><ele>251.0</ele><time>2026-04-26T07:59:56Z</time></trkpt><trkpt lat="43.48565778070564" lon="11.87463735537604"><ele>251.0</ele><time>2026-04-26T07:59:57Z</time></trkpt><trkpt lat="43.485701252810756" lon="11.874795074190867"><ele>251.0</ele><time>2026-04-26T07:59:58Z</time></trkpt><trkpt lat="43.48574163200711" lon="11.874944412706693"><ele>251.0</ele><time>2026-04-26T07:59:59Z</time></trkpt><trkpt lat="43.48577227924125" lon="11.87508779461104"><ele>250.83333333333334</ele><time>2026-04-26T08:00:00Z</time></trkpt><trkpt lat="43.48581044125318" lon="11.875233345517696"><ele>250.66666666666669</ele><time>2026-04-26T08:00:01Z</time></trkpt><trkpt lat="43.48581942127151" lon="11.875349467048157"><ele>250.5</ele><time>2026-04-26T08:00:02Z</time></trkpt><trkpt lat="43.485836451687625" lon="11.875447739513112"><ele>250.33333333333331</ele><time>2026-04-26T08:00:03Z</time></trkpt><trkpt lat="43.48585803814509" lon="11.875546012784744"><ele>250.16666666666666</ele><time>2026-04-26T08:00:04Z</time></trkpt><trkpt lat="43.48587255177044" lon="11.875643747141163"><ele>250.0</ele><time>2026-04-26T08:00:05Z</time></trkpt><trkpt lat="43.485866477278734" lon="11.875736243736304"><ele>250.0</ele><time>2026-04-26T08:00:06Z</time></trkpt><trkpt lat="43.48582317204958" lon="11.875883442291073"><ele>250.0</ele><time>2026-04-26T08:00:08Z</time></trkpt><trkpt lat="43.48578389819261" lon="11.875975452138702"><ele>250.0</ele><time>2026-04-26T08:00:09Z</time></trkpt><trkpt lat="43.48571975002838" lon="11.876083693058012"><ele>250.0</ele><time>2026-04-26T08:00:10Z</time></trkpt><trkpt lat="43.48566711355463" lon="11.876214028247572"><ele>250.0</ele><time>2026-04-26T08:00:11Z</time></trkpt><trkpt lat="43.48565936782071" lon="11.876352005453485"><ele>250.4</ele><time>2026-04-26T08:00:12Z</time></trkpt><trkpt lat="43.485689983735796" lon="11.87648742446633"><ele>250.8</ele><time>2026-04-26T08:00:13Z</time></trkpt><trkpt lat="43.48574967744123" lon="11.876600180719862"><ele>251.2</ele><time>2026-04-26T08:00:14Z</time></trkpt><trkpt lat="43.48584060644754" lon="11.876687651525001"><ele>251.6</ele><time>2026-04-26T08:00:15Z</time></trkpt><trkpt lat="43.48595270697538" lon="11.876720492256746"><ele>252.0</ele><time>2026-04-26T08:00:16Z</time></trkpt><trkpt lat="43.486071645081665" lon="11.87668966990417"><ele>252.0</ele><time>2026-04-26T08:00:17Z</time></trkpt><trkpt lat="43.48618090326414" lon="11.876611859728836"><ele>252.0</ele><time>2026-04-26T08:00:18Z</time></trkpt><trkpt lat="43.486275380454245" lon="11.876488130700062"><ele>252.0</ele><time>2026-04-26T08:00:19Z</time></trkpt><trkpt lat="43.48636107299735" lon="11.876341614092398"><ele>252.0</ele><time>2026-04-26T08:00:20Z</time></trkpt><trkpt lat="43.486463105236936" lon="11.876217490319606"><ele>252.0</ele><time>2026-04-26T08:00:21Z</time></trkpt><trkpt lat="43.48655230979003" lon="11.87610073290649"><ele>252.0</ele><time>2026-04-26T08:00:22Z</time></trkpt><trkpt lat="43.48672734948539" lon="11.87613121142775"><ele>252.0</ele><time>2026-04-26T08:00:23Z</time></trkpt><trkpt lat="43.48687066771949" lon="11.876103850533"><ele>252.0</ele><time>2026-04-26T08:00:24Z</time></trkpt><trkpt lat="43.487017689239345" lon="11.876075420935667"><ele>252.25</ele><time>2026-04-26T08:00:25Z</time></trkpt><trkpt lat="43.4871658568278" lon="11.876044727941336"><ele>252.5</ele><time>2026-04-26T08:00:25.999Z</time></trkpt><trkpt lat="43.48731145887233" lon="11.87601249548604"><ele>252.75</ele><time>2026-04-26T08:00:26.999Z</time></trkpt><trkpt lat="43.4874530179138" lon="11.875980306346555"><ele>253.0</ele><time>2026-04-26T08:00:27.999Z</time></trkpt><trkpt lat="43.48759612943124" lon="11.875923407516364"><ele>253.0</ele><time>2026-04-26T08:00:28.999Z</time></trkpt><trkpt lat="43.48774930547701" lon="11.87588625926134"><ele>253.0</ele><time>2026-04-26T08:00:29.999Z</time></trkpt><trkpt lat="43.48790517633551" lon="11.875849309497212"><ele>253.0</ele><time>2026-04-26T08:00:30.999Z</time></trkpt><trkpt lat="43.48804299610125" lon="11.87581397908051"><ele>253.0</ele><time>2026-04-26T08:00:31.999Z</time></trkpt><trkpt lat="43.48816728399458" lon="11.875820307075598"><ele>253.0</ele><time>2026-04-26T08:00:32.999Z</time></trkpt><trkpt lat="43.488284221385854" lon="11.875794861562932"><ele>253.0</ele><time>2026-04-26T08:00:33.999Z</time></trkpt><trkpt lat="43.488395075388155" lon="11.875770739812097"><ele>253.0</ele><time>2026-04-26T08:00:34.999Z</time></trkpt><trkpt lat="43.488512718983905" lon="11.875745347457404"><ele>253.0</ele><time>2026-04-26T08:00:35.999Z</time></trkpt><trkpt lat="43.48863685332468" lon="11.875717327236393"><ele>253.0</ele><time>2026-04-26T08:00:36.999Z</time></trkpt><trkpt lat="43.48875720527227" lon="11.875670360038312"><ele>253.0</ele><time>2026-04-26T08:00:37.999Z</time></trkpt><trkpt lat="43.48887553995209" lon="11.875644447138505"><ele>253.0</ele><time>2026-04-26T08:00:38.999Z</time></trkpt><trkpt lat="43.48898608255467" lon="11.875621827279854"><ele>253.2</ele><time>2026-04-26T08:00:39.999Z</time></trkpt><trkpt lat="43.48909817754843" lon="11.875596932168087"><ele>253.4</ele><time>2026-04-26T08:00:40.999Z</time></trkpt><trkpt lat="43.489208659128444" lon="11.875579539032508"><ele>253.59999999999997</ele><time>2026-04-26T08:00:41.999Z</time></trkpt><trkpt lat="43.489315974876604" lon="11.875557770622791"><ele>253.79999999999998</ele><time>2026-04-26T08:00:42.999Z</time></trkpt><trkpt lat="43.48941443959764" lon="11.875556929172227"><ele>254.0</ele><time>2026-04-26T08:00:43.999Z</time></trkpt><trkpt lat="43.48951584195762" lon="11.875552580435787"><ele>253.6</ele><time>2026-04-26T08:00:44.999Z</time></trkpt><trkpt lat="43.489621078340356" lon="11.87556474757869"><ele>253.2</ele><time>2026-04-26T08:00:45.999Z</time></trkpt><trkpt lat="43.48972511902565" lon="11.87558843894808"><ele>252.79999999999998</ele><time>2026-04-26T08:00:46.999Z</time></trkpt><trkpt lat="43.48982260539836" lon="11.875594346090859"><ele>252.39999999999998</ele><time>2026-04-26T08:00:47.999Z</time></trkpt><trkpt lat="43.4899062227526" lon="11.875632422336304"><ele>252.0</ele><time>2026-04-26T08:00:48.999Z</time></trkpt><trkpt lat="43.48997926133864" lon="11.875666176517134"><ele>252.0</ele><time>2026-04-26T08:00:49.999Z</time></trkpt><trkpt lat="43.4900477275612" lon="11.875697505694449"><ele>252.0</ele><time>2026-04-26T08:00:50.999Z</time></trkpt><trkpt lat="43.49012295738553" lon="11.875736887002311"><ele>252.0</ele><time>2026-04-26T08:00:51.999Z</time></trkpt><trkpt lat="43.49021529637168" lon="11.875799034766638"><ele>252.0</ele><time>2026-04-26T08:00:52.999Z</time></trkpt><trkpt lat="43.49031129743381" lon="11.875902178140873"><ele>252.0</ele><time>2026-04-26T08:00:53.999Z</time></trkpt><trkpt lat="43.49039767971743" lon="11.875996013009111"><ele>252.2</ele><time>2026-04-26T08:00:54.999Z</time></trkpt><trkpt lat="43.490488927182696" lon="11.876057970360426"><ele>252.39999999999998</ele><time>2026-04-26T08:00:55.999Z</time></trkpt><trkpt lat="43.490580622473644" lon="11.876062571784397"><ele>252.60000000000002</ele><time>2026-04-26T08:00:56.999Z</time></trkpt><trkpt lat="43.4906720739733" lon="11.87600849952973"><ele>252.8</ele><time>2026-04-26T08:00:57.999Z</time></trkpt><trkpt lat="43.49074094584579" lon="11.875913287973932"><ele>253.0</ele><time>2026-04-26T08:00:58.999Z</time></trkpt><trkpt lat="43.490789807172106" lon="11.875783479106195"><ele>253.0</ele><time>2026-04-26T08:00:59.999Z</time></trkpt><trkpt lat="43.49082217781946" lon="11.875632265543102"><ele>253.0</ele><time>2026-04-26T08:01:00.999Z</time></trkpt><trkpt lat="43.490872176454175" lon="11.875488751561116"><ele>253.0</ele><time>2026-04-26T08:01:01.999Z</time></trkpt><trkpt lat="43.49095908175986" lon="11.875371561697948"><ele>253.0</ele><time>2026-04-26T08:01:02.999Z</time></trkpt><trkpt lat="43.491091842220335" lon="11.875295171204012"><ele>253.0</ele><time>2026-04-26T08:01:03.999Z</time></trkpt><trkpt lat="43.491220751938165" lon="11.875172812282699"><ele>253.0</ele><time>2026-04-26T08:01:04.999Z</time></trkpt><trkpt lat="43.49137661521315" lon="11.875127855046548"><ele>253.0</ele><time>2026-04-26T08:01:05.999Z</time></trkpt><trkpt lat="43.4915342851344" lon="11.875087192193433"><ele>253.0</ele><time>2026-04-26T08:01:06.999Z</time></trkpt><trkpt lat="43.49170492376411" lon="11.875048678248332"><ele>253.0</ele><time>2026-04-26T08:01:07.999Z</time></trkpt><trkpt lat="43.4918778102277" lon="11.874996915359581"><ele>253.0</ele><time>2026-04-26T08:01:08.999Z</time></trkpt><trkpt lat="43.492052705563005" lon="11.87496140205523"><ele>252.66666666666666</ele><time>2026-04-26T08:01:09.999Z</time></trkpt><trkpt lat="43.49223350301047" lon="11.874917148443473"><ele>252.33333333333331</ele><time>2026-04-26T08:01:10.999Z</time></trkpt><trkpt lat="43.49242055828811" lon="11.874877145636075"><ele>252.0</ele><time>2026-04-26T08:01:11.999Z</time></trkpt><trkpt lat="43.492614005426674" lon="11.874835796011986"><ele>252.0</ele><time>2026-04-26T08:01:12.999Z</time></trkpt><trkpt lat="43.49281099878469" lon="11.874791650724243"><ele>252.0</ele><time>2026-04-26T08:01:13.999Z</time></trkpt><trkpt lat="43.49300474763957" lon="11.874746313748425"><ele>252.0</ele><time>2026-04-26T08:01:14.999Z</time></trkpt><trkpt lat="43.49320043444102" lon="11.874699610556632"><ele>252.66666666666669</ele><time>2026-04-26T08:01:16Z</time></trkpt><trkpt lat="43.49339895069124" lon="11.874652797333496"><ele>253.33333333333334</ele><time>2026-04-26T08:01:17Z</time></trkpt><trkpt lat="43.493601966765716" lon="11.874627456744914"><ele>254.0</ele><time>2026-04-26T08:01:18Z</time></trkpt><trkpt lat="43.4938052106748" lon="11.8745793598526"><ele>254.0</ele><time>2026-04-26T08:01:19Z</time></trkpt><trkpt lat="43.494010678002795" lon="11.874530736800196"><ele>254.0</ele><time>2026-04-26T08:01:20Z</time></trkpt><trkpt lat="43.49422122803353" lon="11.874480951548051"><ele>254.0</ele><time>2026-04-26T08:01:21Z</time></trkpt><trkpt lat="43.49442947977714" lon="11.87443251898047"><ele>253.0</ele><time>2026-04-26T08:01:22Z</time></trkpt><trkpt lat="43.494643275667784" lon="11.874384284866784"><ele>252.0</ele><time>2026-04-26T08:01:23Z</time></trkpt><trkpt lat="43.49485667483878" lon="11.874336364904307"><ele>251.0</ele><time>2026-04-26T08:01:24Z</time></trkpt><trkpt lat="43.495069487957856" lon="11.874287137485407"><ele>251.0</ele><time>2026-04-26T08:01:25Z</time></trkpt><trkpt lat="43.495278020035116" lon="11.874217221278863"><ele>251.0</ele><time>2026-04-26T08:01:26Z</time></trkpt><trkpt lat="43.495490006052236" lon="11.874192355724437"><ele>251.0</ele><time>2026-04-26T08:01:27Z</time></trkpt><trkpt lat="43.49570275921486" lon="11.87414453897078"><ele>251.0</ele><time>2026-04-26T08:01:28Z</time></trkpt><trkpt lat="43.49591685410668" lon="11.874096527853114"><ele>251.0</ele><time>2026-04-26T08:01:29Z</time></trkpt><trkpt lat="43.496130548413994" lon="11.874048985572271"><ele>251.0</ele><time>2026-04-26T08:01:30Z</time></trkpt><trkpt lat="43.496348280421934" lon="11.874001062839682"><ele>251.33333333333334</ele><time>2026-04-26T08:01:31Z</time></trkpt><trkpt lat="43.49656633761731" lon="11.87395312199662"><ele>251.66666666666669</ele><time>2026-04-26T08:01:32Z</time></trkpt><trkpt lat="43.496784280779536" lon="11.873905408934931"><ele>252.0</ele><time>2026-04-26T08:01:33Z</time></trkpt><trkpt lat="43.49700202102563" lon="11.873858214373072"><ele>252.0</ele><time>2026-04-26T08:01:34Z</time></trkpt><trkpt lat="43.497220303947536" lon="11.873810879213735"><ele>252.0</ele><time>2026-04-26T08:01:35Z</time></trkpt><trkpt lat="43.49743915819445" lon="11.87376342016323"><ele>252.0</ele><time>2026-04-26T08:01:36Z</time></trkpt><trkpt lat="43.497660314328" lon="11.873719200928623"><ele>252.0</ele><time>2026-04-26T08:01:37Z</time></trkpt><trkpt lat="43.497881277343815" lon="11.873675943423112"><ele>252.0</ele><time>2026-04-26T08:01:38Z</time></trkpt><trkpt lat="43.498103865372606" lon="11.873637107064479"><ele>252.0</ele><time>2026-04-26T08:01:39Z</time></trkpt><trkpt lat="43.498325990837685" lon="11.873600674811655"><ele>252.5</ele><time>2026-04-26T08:01:40Z</time></trkpt><trkpt lat="43.49854915516118" lon="11.873561461191857"><ele>253.0</ele><time>2026-04-26T08:01:41Z</time></trkpt><trkpt lat="43.49877146292596" lon="11.873516220675008"><ele>253.0</ele><time>2026-04-26T08:01:42Z</time></trkpt><trkpt lat="43.49899291277007" lon="11.873469677526643"><ele>253.0</ele><time>2026-04-26T08:01:43Z</time></trkpt><trkpt lat="43.49921451324106" lon="11.87342065268472"><ele>253.0</ele><time>2026-04-26T08:01:44Z</time></trkpt><trkpt lat="43.49943705595722" lon="11.873371521717532"><ele>252.0</ele><time>2026-04-26T08:01:45Z</time></trkpt><trkpt lat="43.49966011815863" lon="11.873321971522689"><ele>251.0</ele><time>2026-04-26T08:01:46Z</time></trkpt><trkpt lat="43.499881849293985" lon="11.873272717004093"><ele>251.0</ele><time>2026-04-26T08:01:47Z</time></trkpt><trkpt lat="43.50010531766755" lon="11.873223872542765"><ele>251.0</ele><time>2026-04-26T08:01:48Z</time></trkpt><trkpt lat="43.500327683626715" lon="11.873175824799441"><ele>252.0</ele><time>2026-04-26T08:01:49Z</time></trkpt><trkpt lat="43.50054997323848" lon="11.873127791775342"><ele>253.0</ele><time>2026-04-26T08:01:50Z</time></trkpt><trkpt lat="43.50077309574403" lon="11.873079339460428"><ele>253.0</ele><time>2026-04-26T08:01:51Z</time></trkpt><trkpt lat="43.500993441169804" lon="11.873031197876164"><ele>253.0</ele><time>2026-04-26T08:01:52Z</time></trkpt><trkpt lat="43.501215609116706" lon="11.872982658111049"><ele>253.0</ele><time>2026-04-26T08:01:53Z</time></trkpt><trkpt lat="43.50143747321386" lon="11.872934184726398"><ele>253.33333333333331</ele><time>2026-04-26T08:01:54Z</time></trkpt><trkpt lat="43.50165339228365" lon="11.872855226215282"><ele>253.66666666666669</ele><time>2026-04-26T08:01:55Z</time></trkpt><trkpt lat="43.50186072727462" lon="11.872808147658674"><ele>254.0</ele><time>2026-04-26T08:01:56Z</time></trkpt><trkpt lat="43.50205406515087" lon="11.87276130530827"><ele>253.66666666666669</ele><time>2026-04-26T08:01:57Z</time></trkpt><trkpt lat="43.50224579896006" lon="11.872717773680233"><ele>253.33333333333331</ele><time>2026-04-26T08:01:58Z</time></trkpt><trkpt lat="43.502440271816894" lon="11.87267447835236"><ele>253.0</ele><time>2026-04-26T08:01:59Z</time></trkpt><trkpt lat="43.50263261614754" lon="11.872632099099953"><ele>253.0</ele><time>2026-04-26T08:02:00Z</time></trkpt><trkpt lat="43.50281579788081" lon="11.872587347175893"><ele>253.0</ele><time>2026-04-26T08:02:01Z</time></trkpt><trkpt lat="43.503001975421576" lon="11.872581207192983"><ele>253.0</ele><time>2026-04-26T08:02:02Z</time></trkpt><trkpt lat="43.503178914302055" lon="11.872542022152405"><ele>253.0</ele><time>2026-04-26T08:02:03Z</time></trkpt><trkpt lat="43.50335434932339" lon="11.872503255730711"><ele>253.0</ele><time>2026-04-26T08:02:04Z</time></trkpt><trkpt lat="43.503533653339176" lon="11.872463664840083"><ele>253.0</ele><time>2026-04-26T08:02:04.999Z</time></trkpt><trkpt lat="43.503718250796986" lon="11.872422905137025"><ele>253.0</ele><time>2026-04-26T08:02:05.999Z</time></trkpt><trkpt lat="43.50391244474272" lon="11.872380026482539"><ele>253.0</ele><time>2026-04-26T08:02:06.999Z</time></trkpt><trkpt lat="43.504121251964754" lon="11.872333921159465"><ele>253.0</ele><time>2026-04-26T08:02:07.999Z</time></trkpt><trkpt lat="43.504348727127116" lon="11.87228369394228"><ele>254.0</ele><time>2026-04-26T08:02:08.999Z</time></trkpt><trkpt lat="43.504592499400665" lon="11.872229868558593"><ele>255.0</ele><time>2026-04-26T08:02:09.999Z</time></trkpt><trkpt lat="43.50484497935554" lon="11.872173246132737"><ele>255.0</ele><time>2026-04-26T08:02:10.999Z</time></trkpt><trkpt lat="43.505095865435045" lon="11.87209898121579"><ele>255.0</ele><time>2026-04-26T08:02:11.999Z</time></trkpt><trkpt lat="43.50534851201887" lon="11.872042043663166"><ele>254.5</ele><time>2026-04-26T08:02:12.999Z</time></trkpt><trkpt lat="43.50559979272108" lon="11.87198549928264"><ele>254.0</ele><time>2026-04-26T08:02:13.999Z</time></trkpt><trkpt lat="43.505852486168926" lon="11.87195325205194"><ele>254.0</ele><time>2026-04-26T08:02:14.999Z</time></trkpt><trkpt lat="43.506100498962496" lon="11.871875954333465"><ele>254.0</ele><time>2026-04-26T08:02:15.999Z</time></trkpt><trkpt lat="43.50634957054639" lon="11.87182389830898"><ele>254.0</ele><time>2026-04-26T08:02:16.999Z</time></trkpt><trkpt lat="43.506599730145616" lon="11.871790987769879"><ele>254.0</ele><time>2026-04-26T08:02:17.999Z</time></trkpt><trkpt lat="43.5068450585696" lon="11.87173856298857"><ele>255.5</ele><time>2026-04-26T08:02:18.999Z</time></trkpt><trkpt lat="43.50708829182319" lon="11.871686585929622"><ele>257.0</ele><time>2026-04-26T08:02:19.999Z</time></trkpt><trkpt lat="43.507331385337245" lon="11.871634638737747"><ele>257.0</ele><time>2026-04-26T08:02:20.999Z</time></trkpt><trkpt lat="43.50757481211148" lon="11.871582620328928"><ele>257.0</ele><time>2026-04-26T08:02:21.999Z</time></trkpt><trkpt lat="43.50781536117603" lon="11.87153121686987"><ele>256.5</ele><time>2026-04-26T08:02:22.999Z</time></trkpt><trkpt lat="43.508056147351844" lon="11.871480427085716"><ele>256.0</ele><time>2026-04-26T08:02:23.999Z</time></trkpt><trkpt lat="43.50829550534487" lon="11.87143010806105"><ele>256.0</ele><time>2026-04-26T08:02:24.999Z</time></trkpt><trkpt lat="43.50853555029086" lon="11.871379644627709"><ele>256.0</ele><time>2026-04-26T08:02:25.999Z</time></trkpt><trkpt lat="43.50877051811518" lon="11.871330249638714"><ele>256.5</ele><time>2026-04-26T08:02:26.999Z</time></trkpt><trkpt lat="43.50901342795377" lon="11.871279185604175"><ele>257.0</ele><time>2026-04-26T08:02:27.999Z</time></trkpt><trkpt lat="43.509252467019685" lon="11.871227451142381"><ele>257.0</ele><time>2026-04-26T08:02:28.999Z</time></trkpt><trkpt lat="43.509489404483155" lon="11.871148430356188"><ele>257.0</ele><time>2026-04-26T08:02:29.999Z</time></trkpt><trkpt lat="43.50972818979162" lon="11.87109771795195"><ele>256.5</ele><time>2026-04-26T08:02:30.999Z</time></trkpt><trkpt lat="43.5099687484554" lon="11.871047013075469"><ele>256.0</ele><time>2026-04-26T08:02:31.999Z</time></trkpt><trkpt lat="43.51020835358754" lon="11.87099777146844"><ele>257.0</ele><time>2026-04-26T08:02:32.999Z</time></trkpt><trkpt lat="43.51044895444589" lon="11.870948067804909"><ele>258.0</ele><time>2026-04-26T08:02:33.999Z</time></trkpt><trkpt lat="43.51068872154545" lon="11.870893799237658"><ele>258.0</ele><time>2026-04-26T08:02:34.999Z</time></trkpt><trkpt lat="43.51093075041641" lon="11.870843702676515"><ele>258.0</ele><time>2026-04-26T08:02:35.999Z</time></trkpt><trkpt lat="43.51117146335404" lon="11.870796914404622"><ele>258.0</ele><time>2026-04-26T08:02:36.999Z</time></trkpt><trkpt lat="43.51141225774695" lon="11.870749009160033"><ele>258.0</ele><time>2026-04-26T08:02:37.999Z</time></trkpt><trkpt lat="43.511653549444326" lon="11.8707016077163"><ele>258.0</ele><time>2026-04-26T08:02:38.999Z</time></trkpt><trkpt lat="43.511893537199455" lon="11.870653609788869"><ele>258.0</ele><time>2026-04-26T08:02:39.999Z</time></trkpt><trkpt lat="43.512133791636565" lon="11.870604688941372"><ele>257.5</ele><time>2026-04-26T08:02:40.999Z</time></trkpt><trkpt lat="43.51237516336619" lon="11.87055407037721"><ele>257.0</ele><time>2026-04-26T08:02:41.999Z</time></trkpt><trkpt lat="43.512616520144526" lon="11.870503529290069"><ele>257.0</ele><time>2026-04-26T08:02:42.999Z</time></trkpt><trkpt lat="43.51285904413682" lon="11.870452733482242"><ele>257.0</ele><time>2026-04-26T08:02:43.999Z</time></trkpt><trkpt lat="43.51310005284373" lon="11.870401891387328"><ele>258.0</ele><time>2026-04-26T08:02:44.999Z</time></trkpt><trkpt lat="43.51334191412808" lon="11.870346696338123"><ele>259.0</ele><time>2026-04-26T08:02:45.999Z</time></trkpt><trkpt lat="43.51358401288416" lon="11.870287082024468"><ele>258.0</ele><time>2026-04-26T08:02:46.999Z</time></trkpt><trkpt lat="43.51382389393173" lon="11.870222704292592"><ele>257.0</ele><time>2026-04-26T08:02:47.999Z</time></trkpt><trkpt lat="43.514063062333456" lon="11.870153312624714"><ele>257.5</ele><time>2026-04-26T08:02:48.999Z</time></trkpt><trkpt lat="43.514302302381346" lon="11.870085818865014"><ele>258.0</ele><time>2026-04-26T08:02:49.999Z</time></trkpt><trkpt lat="43.514542906376654" lon="11.870016365144043"><ele>258.0</ele><time>2026-04-26T08:02:50.999Z</time></trkpt><trkpt lat="43.514785011289106" lon="11.869945687776076"><ele>258.0</ele><time>2026-04-26T08:02:51.999Z</time></trkpt><trkpt lat="43.51502680186205" lon="11.869877109493563"><ele>258.0</ele><time>2026-04-26T08:02:52.999Z</time></trkpt><trkpt lat="43.51527014848131" lon="11.869807211651722"><ele>258.0</ele><time>2026-04-26T08:02:53.999Z</time></trkpt><trkpt lat="43.51551493354807" lon="11.869738365897785"><ele>257.0</ele><time>2026-04-26T08:02:54.999Z</time></trkpt><trkpt lat="43.515758284093934" lon="11.86966902131697"><ele>256.0</ele><time>2026-04-26T08:02:55.999Z</time></trkpt><trkpt lat="43.516002045648825" lon="11.869594486307031"><ele>255.5</ele><time>2026-04-26T08:02:56.999Z</time></trkpt><trkpt lat="43.516243627017985" lon="11.869523794369336"><ele>255.0</ele><time>2026-04-26T08:02:57.999Z</time></trkpt><trkpt lat="43.516485510031465" lon="11.86945564873156"><ele>255.0</ele><time>2026-04-26T08:02:58.999Z</time></trkpt><trkpt lat="43.516730048084646" lon="11.869388939442278"><ele>255.0</ele><time>2026-04-26T08:02:59.999Z</time></trkpt><trkpt lat="43.51697274332677" lon="11.869321668310304"><ele>256.5</ele><time>2026-04-26T08:03:00.999Z</time></trkpt><trkpt lat="43.51721660012386" lon="11.869254849529653"><ele>258.0</ele><time>2026-04-26T08:03:01.999Z</time></trkpt><trkpt lat="43.51746065906065" lon="11.86918931254007"><ele>258.0</ele><time>2026-04-26T08:03:02.999Z</time></trkpt><trkpt lat="43.51770394818069" lon="11.869124483682798"><ele>258.0</ele><time>2026-04-26T08:03:03.999Z</time></trkpt><trkpt lat="43.517946696676255" lon="11.869060123664505"><ele>256.5</ele><time>2026-04-26T08:03:04.999Z</time></trkpt><trkpt lat="43.5181904300111" lon="11.868997841100272"><ele>255.0</ele><time>2026-04-26T08:03:05.999Z</time></trkpt><trkpt lat="43.51843494978509" lon="11.868936062553711"><ele>255.0</ele><time>2026-04-26T08:03:06.999Z</time></trkpt><trkpt lat="43.51868012763" lon="11.86887724275171"><ele>255.0</ele><time>2026-04-26T08:03:07.999Z</time></trkpt><trkpt lat="43.518926385198554" lon="11.868822803013554"><ele>254.5</ele><time>2026-04-26T08:03:08.999Z</time></trkpt><trkpt lat="43.51917504028306" lon="11.868775534238097"><ele>254.0</ele><time>2026-04-26T08:03:09.999Z</time></trkpt><trkpt lat="43.519424070972185" lon="11.868738871538437"><ele>253.0</ele><time>2026-04-26T08:03:10.999Z</time></trkpt><trkpt lat="43.51968301367041" lon="11.868723664502015"><ele>252.0</ele><time>2026-04-26T08:03:11.999Z</time></trkpt><trkpt lat="43.51993368183103" lon="11.86870280506698"><ele>252.0</ele><time>2026-04-26T08:03:12.999Z</time></trkpt><trkpt lat="43.52018662185315" lon="11.86869378696685"><ele>252.0</ele><time>2026-04-26T08:03:13.999Z</time></trkpt><trkpt lat="43.52044129004747" lon="11.868688157832453"><ele>250.0</ele><time>2026-04-26T08:03:14.999Z</time></trkpt><trkpt lat="43.520696879082216" lon="11.868681334899426"><ele>248.0</ele><time>2026-04-26T08:03:15.999Z</time></trkpt><trkpt lat="43.520952018845115" lon="11.868673888942256"><ele>248.0</ele><time>2026-04-26T08:03:16.999Z</time></trkpt><trkpt lat="43.52120796260304" lon="11.868656883328699"><ele>248.0</ele><time>2026-04-26T08:03:17.999Z</time></trkpt><trkpt lat="43.521462922996406" lon="11.868639178210573"><ele>248.0</ele><time>2026-04-26T08:03:18.999Z</time></trkpt><trkpt lat="43.52171733526937" lon="11.86863029346461"><ele>248.0</ele><time>2026-04-26T08:03:19.999Z</time></trkpt><trkpt lat="43.52197241385946" lon="11.868624872626809"><ele>248.5</ele><time>2026-04-26T08:03:20.999Z</time></trkpt><trkpt lat="43.522226224592494" lon="11.868627798042"><ele>249.0</ele><time>2026-04-26T08:03:22Z</time></trkpt><trkpt lat="43.522480940580216" lon="11.868634137905692"><ele>249.0</ele><time>2026-04-26T08:03:23Z</time></trkpt><trkpt lat="43.52273678937235" lon="11.868632412671976"><ele>249.0</ele><time>2026-04-26T08:03:24Z</time></trkpt><trkpt lat="43.52299139707917" lon="11.868629138164195"><ele>249.0</ele><time>2026-04-26T08:03:25Z</time></trkpt><trkpt lat="43.523250075480945" lon="11.868624642508266"><ele>249.0</ele><time>2026-04-26T08:03:26Z</time></trkpt><trkpt lat="43.52350888013619" lon="11.868619228456241"><ele>250.0</ele><time>2026-04-26T08:03:27Z</time></trkpt><trkpt lat="43.52376918616822" lon="11.868617199207508"><ele>251.0</ele><time>2026-04-26T08:03:28Z</time></trkpt><trkpt lat="43.5240303029622" lon="11.868613308958558"><ele>251.0</ele><time>2026-04-26T08:03:29Z</time></trkpt><trkpt lat="43.524292560107206" lon="11.868604713648864"><ele>251.0</ele><time>2026-04-26T08:03:30Z</time></trkpt><trkpt lat="43.524556577414586" lon="11.868594942170526"><ele>252.5</ele><time>2026-04-26T08:03:31Z</time></trkpt><trkpt lat="43.52482181027591" lon="11.868589602187935"><ele>254.0</ele><time>2026-04-26T08:03:32Z</time></trkpt><trkpt lat="43.52508719939561" lon="11.868586711042362"><ele>254.0</ele><time>2026-04-26T08:03:33Z</time></trkpt><trkpt lat="43.52535238424676" lon="11.868584384335632"><ele>254.0</ele><time>2026-04-26T08:03:34Z</time></trkpt><trkpt lat="43.52561751395263" lon="11.868579874973399"><ele>253.0</ele><time>2026-04-26T08:03:35Z</time></trkpt><trkpt lat="43.52588352499981" lon="11.868576136916873"><ele>252.0</ele><time>2026-04-26T08:03:36Z</time></trkpt><trkpt lat="43.52614707915821" lon="11.868571731955981"><ele>253.0</ele><time>2026-04-26T08:03:37Z</time></trkpt><trkpt lat="43.52640993024091" lon="11.868566712561005"><ele>254.0</ele><time>2026-04-26T08:03:38Z</time></trkpt><trkpt lat="43.526674162732306" lon="11.868561528078114"><ele>254.0</ele><time>2026-04-26T08:03:39Z</time></trkpt><trkpt lat="43.52693651042604" lon="11.868556368837904"><ele>254.0</ele><time>2026-04-26T08:03:40Z</time></trkpt><trkpt lat="43.52719895310196" lon="11.86854775945992"><ele>253.5</ele><time>2026-04-26T08:03:41Z</time></trkpt><trkpt lat="43.52746062030929" lon="11.868562039392103"><ele>253.0</ele><time>2026-04-26T08:03:42Z</time></trkpt><trkpt lat="43.527722515963795" lon="11.868550284166586"><ele>254.0</ele><time>2026-04-26T08:03:43Z</time></trkpt><trkpt lat="43.52798242355136" lon="11.868524730704747"><ele>255.0</ele><time>2026-04-26T08:03:44Z</time></trkpt><trkpt lat="43.528238144187796" lon="11.868468308281464"><ele>255.0</ele><time>2026-04-26T08:03:45Z</time></trkpt><trkpt lat="43.52849503261335" lon="11.86842296683478"><ele>255.0</ele><time>2026-04-26T08:03:46Z</time></trkpt><trkpt lat="43.52874935919214" lon="11.868369742826077"><ele>256.0</ele><time>2026-04-26T08:03:47Z</time></trkpt><trkpt lat="43.52900196246505" lon="11.868307877170727"><ele>257.0</ele><time>2026-04-26T08:03:48Z</time></trkpt><trkpt lat="43.52925618538132" lon="11.868256459437626"><ele>257.0</ele><time>2026-04-26T08:03:49Z</time></trkpt><trkpt lat="43.529507372866085" lon="11.86818455821891"><ele>257.0</ele><time>2026-04-26T08:03:50Z</time></trkpt><trkpt lat="43.52975794976919" lon="11.868112187925606"><ele>257.0</ele><time>2026-04-26T08:03:51Z</time></trkpt><trkpt lat="43.53000752241521" lon="11.868041448545881"><ele>257.0</ele><time>2026-04-26T08:03:52Z</time></trkpt><trkpt lat="43.53025640429517" lon="11.867972343315806"><ele>256.5</ele><time>2026-04-26T08:03:53Z</time></trkpt><trkpt lat="43.53050371392012" lon="11.867900888684177"><ele>256.0</ele><time>2026-04-26T08:03:54Z</time></trkpt><trkpt lat="43.530752309190966" lon="11.867828049932248"><ele>256.0</ele><time>2026-04-26T08:03:55Z</time></trkpt><trkpt lat="43.53100089117129" lon="11.867755881611727"><ele>256.0</ele><time>2026-04-26T08:03:56Z</time></trkpt><trkpt lat="43.531250664014614" lon="11.86768358040707"><ele>256.5</ele><time>2026-04-26T08:03:57Z</time></trkpt><trkpt lat="43.531499459786076" lon="11.867611561998114"><ele>257.0</ele><time>2026-04-26T08:03:58Z</time></trkpt><trkpt lat="43.53174843727803" lon="11.867539491055128"><ele>257.0</ele><time>2026-04-26T08:03:59Z</time></trkpt><trkpt lat="43.531995324424656" lon="11.86746802516918"><ele>257.0</ele><time>2026-04-26T08:04:00Z</time></trkpt><trkpt lat="43.532240443381035" lon="11.867397072884009"><ele>257.0</ele><time>2026-04-26T08:04:01Z</time></trkpt><trkpt lat="43.53247568905134" lon="11.86730566058817"><ele>257.0</ele><time>2026-04-26T08:04:02Z</time></trkpt><trkpt lat="43.53271258394097" lon="11.867241160953627"><ele>257.5</ele><time>2026-04-26T08:04:03Z</time></trkpt><trkpt lat="43.53294916666321" lon="11.867172410887884"><ele>258.0</ele><time>2026-04-26T08:04:04Z</time></trkpt><trkpt lat="43.53318618457081" lon="11.86710209568192"><ele>258.0</ele><time>2026-04-26T08:04:05Z</time></trkpt><trkpt lat="43.5334215276806" lon="11.867032732182533"><ele>258.0</ele><time>2026-04-26T08:04:06Z</time></trkpt><trkpt lat="43.53365556938575" lon="11.866963683302616"><ele>258.5</ele><time>2026-04-26T08:04:07Z</time></trkpt><trkpt lat="43.53388858015982" lon="11.866895788449728"><ele>259.0</ele><time>2026-04-26T08:04:08Z</time></trkpt><trkpt lat="43.53412020473305" lon="11.866827877794302"><ele>259.0</ele><time>2026-04-26T08:04:09Z</time></trkpt><trkpt lat="43.53435392389316" lon="11.866783036038779"><ele>259.0</ele><time>2026-04-26T08:04:10Z</time></trkpt><trkpt lat="43.53458106406844" lon="11.866703195281964"><ele>258.0</ele><time>2026-04-26T08:04:11Z</time></trkpt><trkpt lat="43.534816986421625" lon="11.866686744576555"><ele>257.0</ele><time>2026-04-26T08:04:12Z</time></trkpt><trkpt lat="43.535053794811226" lon="11.866703461581258"><ele>257.0</ele><time>2026-04-26T08:04:13Z</time></trkpt><trkpt lat="43.53527140190315" lon="11.86651834567235"><ele>257.0</ele><time>2026-04-26T08:04:14Z</time></trkpt><trkpt lat="43.535501674387994" lon="11.866446483128922"><ele>256.0</ele><time>2026-04-26T08:04:15Z</time></trkpt><trkpt lat="43.53572650737298" lon="11.866359243383668"><ele>255.0</ele><time>2026-04-26T08:04:16Z</time></trkpt><trkpt lat="43.53595435303608" lon="11.866286143112603"><ele>255.0</ele><time>2026-04-26T08:04:17Z</time></trkpt><trkpt lat="43.53618041899792" lon="11.866204692042299"><ele>255.0</ele><time>2026-04-26T08:04:18Z</time></trkpt><trkpt lat="43.5364048856755" lon="11.86611029041242"><ele>253.5</ele><time>2026-04-26T08:04:19Z</time></trkpt><trkpt lat="43.536628036950496" lon="11.86601520906455"><ele>252.0</ele><time>2026-04-26T08:04:20Z</time></trkpt><trkpt lat="43.536847008575116" lon="11.86591230938795"><ele>253.0</ele><time>2026-04-26T08:04:21Z</time></trkpt><trkpt lat="43.53705981636123" lon="11.865800783110288"><ele>254.0</ele><time>2026-04-26T08:04:22Z</time></trkpt><trkpt lat="43.53727038746501" lon="11.865684305498025"><ele>254.0</ele><time>2026-04-26T08:04:23Z</time></trkpt><trkpt lat="43.537478706599494" lon="11.865553338195811"><ele>254.0</ele><time>2026-04-26T08:04:24Z</time></trkpt><trkpt lat="43.53768410460028" lon="11.865419604543904"><ele>254.0</ele><time>2026-04-26T08:04:25Z</time></trkpt><trkpt lat="43.53788542729372" lon="11.865281369029951"><ele>254.0</ele><time>2026-04-26T08:04:26Z</time></trkpt><trkpt lat="43.538084565278574" lon="11.86514888109717"><ele>254.0</ele><time>2026-04-26T08:04:27Z</time></trkpt><trkpt lat="43.53829317448788" lon="11.865038923909276"><ele>255.66666666666669</ele><time>2026-04-26T08:04:28Z</time></trkpt><trkpt lat="43.53849563779988" lon="11.86490734331382"><ele>257.3333333333333</ele><time>2026-04-26T08:04:29Z</time></trkpt><trkpt lat="43.53869856417865" lon="11.864774787048233"><ele>259.0</ele><time>2026-04-26T08:04:30Z</time></trkpt><trkpt lat="43.53890113352936" lon="11.864642463996411"><ele>259.5</ele><time>2026-04-26T08:04:31Z</time></trkpt><trkpt lat="43.53910506590177" lon="11.864509250486552"><ele>260.0</ele><time>2026-04-26T08:04:32Z</time></trkpt><trkpt lat="43.53931180584056" lon="11.864373094671846"><ele>260.0</ele><time>2026-04-26T08:04:33Z</time></trkpt><trkpt lat="43.539517945672" lon="11.864237288924986"><ele>260.0</ele><time>2026-04-26T08:04:34Z</time></trkpt><trkpt lat="43.53972238550214" lon="11.864102603191125"><ele>259.6666666666667</ele><time>2026-04-26T08:04:35Z</time></trkpt><trkpt lat="43.53992142662687" lon="11.863971695852188"><ele>259.3333333333333</ele><time>2026-04-26T08:04:36Z</time></trkpt><trkpt lat="43.54011116706899" lon="11.863831757782933"><ele>259.0</ele><time>2026-04-26T08:04:37Z</time></trkpt><trkpt lat="43.54030331005826" lon="11.863710165837048"><ele>259.66666666666663</ele><time>2026-04-26T08:04:38Z</time></trkpt><trkpt lat="43.540489078481684" lon="11.863586447241394"><ele>260.3333333333333</ele><time>2026-04-26T08:04:39Z</time></trkpt><trkpt lat="43.54067372266132" lon="11.863463738711472"><ele>261.0</ele><time>2026-04-26T08:04:40Z</time></trkpt><trkpt lat="43.54086020386528" lon="11.86336348614273"><ele>261.0</ele><time>2026-04-26T08:04:41Z</time></trkpt><trkpt lat="43.541039550757695" lon="11.863247566621673"><ele>261.0</ele><time>2026-04-26T08:04:42Z</time></trkpt><trkpt lat="43.5412144312705" lon="11.863133012631641"><ele>261.0</ele><time>2026-04-26T08:04:43Z</time></trkpt><trkpt lat="43.54137999416277" lon="11.862995075986394"><ele>260.3333333333333</ele><time>2026-04-26T08:04:44Z</time></trkpt><trkpt lat="43.54154853792077" lon="11.862885381640663"><ele>259.66666666666663</ele><time>2026-04-26T08:04:45Z</time></trkpt><trkpt lat="43.54170840975336" lon="11.86278417801958"><ele>259.0</ele><time>2026-04-26T08:04:46Z</time></trkpt><trkpt lat="43.5418654546294" lon="11.862685238348977"><ele>258.66666666666663</ele><time>2026-04-26T08:04:47Z</time></trkpt><trkpt lat="43.54202768791491" lon="11.86257372637092"><ele>258.3333333333333</ele><time>2026-04-26T08:04:48Z</time></trkpt><trkpt lat="43.54220054252311" lon="11.862460977154253"><ele>258.0</ele><time>2026-04-26T08:04:49Z</time></trkpt><trkpt lat="43.54238402662333" lon="11.862341793281546"><ele>258.0</ele><time>2026-04-26T08:04:50Z</time></trkpt><trkpt lat="43.54257980351826" lon="11.862217861463836"><ele>258.0</ele><time>2026-04-26T08:04:51Z</time></trkpt><trkpt lat="43.54278355144169" lon="11.862082877774462"><ele>258.0</ele><time>2026-04-26T08:04:52Z</time></trkpt><trkpt lat="43.54300102364054" lon="11.861937857713766"><ele>258.0</ele><time>2026-04-26T08:04:53Z</time></trkpt><trkpt lat="43.5432199710654" lon="11.861791924459471"><ele>258.0</ele><time>2026-04-26T08:04:54Z</time></trkpt><trkpt lat="43.54345238041785" lon="11.861642812193182"><ele>258.0</ele><time>2026-04-26T08:04:55Z</time></trkpt><trkpt lat="43.54369172283011" lon="11.861483448254823"><ele>258.0</ele><time>2026-04-26T08:04:56Z</time></trkpt><trkpt lat="43.54392827915774" lon="11.861318742553994"><ele>259.0</ele><time>2026-04-26T08:04:57Z</time></trkpt><trkpt lat="43.54416195786114" lon="11.861140505355056"><ele>260.0</ele><time>2026-04-26T08:04:58Z</time></trkpt><trkpt lat="43.544389685583155" lon="11.860947870338059"><ele>260.0</ele><time>2026-04-26T08:04:59Z</time></trkpt><trkpt lat="43.54461572414053" lon="11.86075000380436"><ele>260.0</ele><time>2026-04-26T08:05:00Z</time></trkpt><trkpt lat="43.54483849225685" lon="11.860547211926043"><ele>260.0</ele><time>2026-04-26T08:05:00.999Z</time></trkpt><trkpt lat="43.54505716624795" lon="11.860335654645587"><ele>260.0</ele><time>2026-04-26T08:05:01.999Z</time></trkpt><trkpt lat="43.545268538376284" lon="11.860118796919954"><ele>260.0</ele><time>2026-04-26T08:05:02.999Z</time></trkpt><trkpt lat="43.5454717228722" lon="11.85989267968211"><ele>260.0</ele><time>2026-04-26T08:05:03.999Z</time></trkpt><trkpt lat="43.54567313076134" lon="11.859657649595539"><ele>260.0</ele><time>2026-04-26T08:05:04.999Z</time></trkpt><trkpt lat="43.54586722534113" lon="11.8594216155824"><ele>260.0</ele><time>2026-04-26T08:05:05.999Z</time></trkpt><trkpt lat="43.54605997299988" lon="11.859182193337526"><ele>259.5</ele><time>2026-04-26T08:05:06.999Z</time></trkpt><trkpt lat="43.54624935336918" lon="11.858941624947569"><ele>259.0</ele><time>2026-04-26T08:05:07.999Z</time></trkpt><trkpt lat="43.546438110738954" lon="11.858701954721578"><ele>259.0</ele><time>2026-04-26T08:05:08.999Z</time></trkpt><trkpt lat="43.54662678425791" lon="11.858464200412552"><ele>259.0</ele><time>2026-04-26T08:05:09.999Z</time></trkpt><trkpt lat="43.546813522059196" lon="11.858227773264854"><ele>259.0</ele><time>2026-04-26T08:05:10.999Z</time></trkpt><trkpt lat="43.546999496578636" lon="11.85798984939578"><ele>259.0</ele><time>2026-04-26T08:05:11.999Z</time></trkpt><trkpt lat="43.5471854785947" lon="11.857755475255916"><ele>258.0</ele><time>2026-04-26T08:05:12.999Z</time></trkpt><trkpt lat="43.54737469708239" lon="11.857524082094479"><ele>257.0</ele><time>2026-04-26T08:05:13.999Z</time></trkpt><trkpt lat="43.54755779030933" lon="11.857289808725808"><ele>257.0</ele><time>2026-04-26T08:05:14.999Z</time></trkpt><trkpt lat="43.54774161542848" lon="11.857056362232852"><ele>257.0</ele><time>2026-04-26T08:05:15.999Z</time></trkpt><trkpt lat="43.54792897487497" lon="11.856832609874505"><ele>258.0</ele><time>2026-04-26T08:05:16.999Z</time></trkpt><trkpt lat="43.54812036964204" lon="11.856613911537275"><ele>259.0</ele><time>2026-04-26T08:05:17.999Z</time></trkpt><trkpt lat="43.54831575238559" lon="11.85640029970842"><ele>259.0</ele><time>2026-04-26T08:05:18.999Z</time></trkpt><trkpt lat="43.54851432945982" lon="11.856192343190655"><ele>259.0</ele><time>2026-04-26T08:05:19.999Z</time></trkpt><trkpt lat="43.548719422428036" lon="11.855990401603195"><ele>258.5</ele><time>2026-04-26T08:05:20.999Z</time></trkpt><trkpt lat="43.54893003694664" lon="11.85579430883719"><ele>258.0</ele><time>2026-04-26T08:05:21.999Z</time></trkpt><trkpt lat="43.54914453953492" lon="11.855607807983835"><ele>258.0</ele><time>2026-04-26T08:05:22.999Z</time></trkpt><trkpt lat="43.54936327578856" lon="11.855428107946738"><ele>258.0</ele><time>2026-04-26T08:05:23.999Z</time></trkpt><trkpt lat="43.549586329656144" lon="11.855253815651734"><ele>257.0</ele><time>2026-04-26T08:05:24.999Z</time></trkpt><trkpt lat="43.549814047645135" lon="11.855091386855726"><ele>256.0</ele><time>2026-04-26T08:05:25.999Z</time></trkpt><trkpt lat="43.55004733327078" lon="11.854935440818148"><ele>256.0</ele><time>2026-04-26T08:05:27.001Z</time></trkpt><trkpt lat="43.55028208828142" lon="11.854786743003121"><ele>256.0</ele><time>2026-04-26T08:05:28.001Z</time></trkpt><trkpt lat="43.55051850111324" lon="11.854646276859253"><ele>257.0</ele><time>2026-04-26T08:05:29.001Z</time></trkpt><trkpt lat="43.55075544756544" lon="11.854506844481948"><ele>258.0</ele><time>2026-04-26T08:05:30.001Z</time></trkpt><trkpt lat="43.55099096353831" lon="11.854360896408666"><ele>258.5</ele><time>2026-04-26T08:05:31.001Z</time></trkpt><trkpt lat="43.55122442721" lon="11.85421951248664"><ele>259.0</ele><time>2026-04-26T08:05:32.001Z</time></trkpt><trkpt lat="43.551452171367096" lon="11.854074773504289"><ele>259.0</ele><time>2026-04-26T08:05:33.001Z</time></trkpt><trkpt lat="43.551675136029324" lon="11.853935736043255"><ele>259.0</ele><time>2026-04-26T08:05:34.001Z</time></trkpt><trkpt lat="43.55189998410791" lon="11.853798016254288"><ele>260.5</ele><time>2026-04-26T08:05:35.001Z</time></trkpt><trkpt lat="43.55212718626155" lon="11.853669065849905"><ele>262.0</ele><time>2026-04-26T08:05:36.001Z</time></trkpt><trkpt lat="43.55235006501389" lon="11.853532574999978"><ele>259.5</ele><time>2026-04-26T08:05:37.001Z</time></trkpt><trkpt lat="43.552570346413965" lon="11.853389633951592"><ele>257.0</ele><time>2026-04-26T08:05:38.001Z</time></trkpt><trkpt lat="43.55279455805342" lon="11.85324406125962"><ele>258.5</ele><time>2026-04-26T08:05:39.001Z</time></trkpt><trkpt lat="43.55302268995627" lon="11.853093742216894"><ele>260.0</ele><time>2026-04-26T08:05:40.001Z</time></trkpt><trkpt lat="43.55325926864577" lon="11.85293970054153"><ele>260.0</ele><time>2026-04-26T08:05:41.001Z</time></trkpt><trkpt lat="43.55349938459969" lon="11.85279578076956"><ele>260.0</ele><time>2026-04-26T08:05:42.001Z</time></trkpt><trkpt lat="43.55373874987467" lon="11.852661849959205"><ele>259.0</ele><time>2026-04-26T08:05:43Z</time></trkpt><trkpt lat="43.553974310385705" lon="11.8525212182226"><ele>258.0</ele><time>2026-04-26T08:05:44Z</time></trkpt><trkpt lat="43.55421005558046" lon="11.852383263057055"><ele>258.0</ele><time>2026-04-26T08:05:45Z</time></trkpt><trkpt lat="43.554440229433396" lon="11.852243539791983"><ele>258.0</ele><time>2026-04-26T08:05:46Z</time></trkpt><trkpt lat="43.554672531754264" lon="11.852107625595254"><ele>258.5</ele><time>2026-04-26T08:05:47Z</time></trkpt><trkpt lat="43.55490438711041" lon="11.85197514953394"><ele>259.0</ele><time>2026-04-26T08:05:48Z</time></trkpt><trkpt lat="43.555134169752684" lon="11.851837245674687"><ele>259.0</ele><time>2026-04-26T08:05:49Z</time></trkpt><trkpt lat="43.55536434599331" lon="11.85170012972036"><ele>259.0</ele><time>2026-04-26T08:05:50Z</time></trkpt><trkpt lat="43.555595290803524" lon="11.851560369497376"><ele>259.0</ele><time>2026-04-26T08:05:51Z</time></trkpt><trkpt lat="43.555830145313706" lon="11.851435103315128"><ele>259.0</ele><time>2026-04-26T08:05:52Z</time></trkpt><trkpt lat="43.55606342596893" lon="11.851288760956855"><ele>259.0</ele><time>2026-04-26T08:05:53Z</time></trkpt><trkpt lat="43.556286902973405" lon="11.851122958547787"><ele>259.0</ele><time>2026-04-26T08:05:54Z</time></trkpt><trkpt lat="43.55651858236496" lon="11.850976690130972"><ele>259.0</ele><time>2026-04-26T08:05:55Z</time></trkpt><trkpt lat="43.55675627156739" lon="11.850849246630299"><ele>259.0</ele><time>2026-04-26T08:05:56Z</time></trkpt><trkpt lat="43.55698201192535" lon="11.850681939442408"><ele>259.0</ele><time>2026-04-26T08:05:57Z</time></trkpt><trkpt lat="43.55721945377007" lon="11.850555360429558"><ele>259.0</ele><time>2026-04-26T08:05:58Z</time></trkpt><trkpt lat="43.557450681255276" lon="11.850409273495863"><ele>259.0</ele><time>2026-04-26T08:05:59Z</time></trkpt><trkpt lat="43.557677296789606" lon="11.850243699720204"><ele>259.0</ele><time>2026-04-26T08:06:00Z</time></trkpt><trkpt lat="43.557909048758866" lon="11.850098519729595"><ele>258.0</ele><time>2026-04-26T08:06:01Z</time></trkpt><trkpt lat="43.55814065578926" lon="11.849951147071701"><ele>257.0</ele><time>2026-04-26T08:06:02Z</time></trkpt><trkpt lat="43.558373184096325" lon="11.849803037147865"><ele>257.0</ele><time>2026-04-26T08:06:03Z</time></trkpt><trkpt lat="43.55860738674336" lon="11.849654763954481"><ele>257.0</ele><time>2026-04-26T08:06:04Z</time></trkpt><trkpt lat="43.558845216135595" lon="11.849508668579002"><ele>257.0</ele><time>2026-04-26T08:06:05Z</time></trkpt><trkpt lat="43.55908070187042" lon="11.849369549834558"><ele>257.0</ele><time>2026-04-26T08:06:06Z</time></trkpt><trkpt lat="43.55932264688527" lon="11.849243610618126"><ele>255.0</ele><time>2026-04-26T08:06:07Z</time></trkpt><trkpt lat="43.559568045255396" lon="11.849136273533919"><ele>253.0</ele><time>2026-04-26T08:06:08Z</time></trkpt><trkpt lat="43.559821590333016" lon="11.84907318824457"><ele>253.0</ele><time>2026-04-26T08:06:09Z</time></trkpt><trkpt lat="43.56007668657184" lon="11.849019562739452"><ele>253.0</ele><time>2026-04-26T08:06:10Z</time></trkpt><trkpt lat="43.56032740132525" lon="11.848991682345632"><ele>251.5</ele><time>2026-04-26T08:06:11Z</time></trkpt><trkpt lat="43.56057495044136" lon="11.848986072981383"><ele>250.0</ele><time>2026-04-26T08:06:12Z</time></trkpt><trkpt lat="43.56082464188371" lon="11.848998056615192"><ele>250.0</ele><time>2026-04-26T08:06:13Z</time></trkpt><trkpt lat="43.56107315878257" lon="11.849031154434394"><ele>250.0</ele><time>2026-04-26T08:06:14Z</time></trkpt><trkpt lat="43.56132066980146" lon="11.849085833466305"><ele>254.5</ele><time>2026-04-26T08:06:15Z</time></trkpt><trkpt lat="43.56156557876827" lon="11.849161800673087"><ele>259.0</ele><time>2026-04-26T08:06:16Z</time></trkpt><trkpt lat="43.5618084059956" lon="11.849258448076434"><ele>258.5</ele><time>2026-04-26T08:06:17Z</time></trkpt><trkpt lat="43.56204559477241" lon="11.849373718514617"><ele>258.0</ele><time>2026-04-26T08:06:18Z</time></trkpt><trkpt lat="43.56227662333916" lon="11.849513112565766"><ele>258.0</ele><time>2026-04-26T08:06:19Z</time></trkpt><trkpt lat="43.56250115545652" lon="11.84967540857854"><ele>258.0</ele><time>2026-04-26T08:06:20Z</time></trkpt><trkpt lat="43.56271985160134" lon="11.849851422007605"><ele>259.5</ele><time>2026-04-26T08:06:21Z</time></trkpt><trkpt lat="43.56293882192418" lon="11.850029808077444"><ele>261.0</ele><time>2026-04-26T08:06:22Z</time></trkpt><trkpt lat="43.56314010582689" lon="11.85024632897453"><ele>262.5</ele><time>2026-04-26T08:06:23Z</time></trkpt><trkpt lat="43.56333110892712" lon="11.850477858867718"><ele>264.0</ele><time>2026-04-26T08:06:24Z</time></trkpt><trkpt lat="43.563512250923274" lon="11.850726121105607"><ele>264.5</ele><time>2026-04-26T08:06:25Z</time></trkpt><trkpt lat="43.56368037441448" lon="11.85098772148164"><ele>265.0</ele><time>2026-04-26T08:06:26Z</time></trkpt><trkpt lat="43.563840494086605" lon="11.851264443748834"><ele>271.0</ele><time>2026-04-26T08:06:27Z</time></trkpt><trkpt lat="43.56398375158376" lon="11.851554977460221"><ele>277.0</ele><time>2026-04-26T08:06:28Z</time></trkpt><trkpt lat="43.56411316467938" lon="11.85186073750942"><ele>277.0</ele><time>2026-04-26T08:06:29Z</time></trkpt><trkpt lat="43.56423057744795" lon="11.852175384084937"><ele>277.0</ele><time>2026-04-26T08:06:30Z</time></trkpt><trkpt lat="43.56433641200492" lon="11.85249853762647"><ele>272.0</ele><time>2026-04-26T08:06:31Z</time></trkpt><trkpt lat="43.56442681656471" lon="11.852827626919924"><ele>267.0</ele><time>2026-04-26T08:06:32Z</time></trkpt><trkpt lat="43.564501692101786" lon="11.853159660768798"><ele>271.5</ele><time>2026-04-26T08:06:33Z</time></trkpt><trkpt lat="43.56457341984363" lon="11.853488605626477"><ele>276.0</ele><time>2026-04-26T08:06:34Z</time></trkpt><trkpt lat="43.56464596093368" lon="11.853811093423982"><ele>276.0</ele><time>2026-04-26T08:06:35Z</time></trkpt><trkpt lat="43.56472035178116" lon="11.85413430250262"><ele>276.0</ele><time>2026-04-26T08:06:36Z</time></trkpt><trkpt lat="43.56479454724013" lon="11.854461839415775"><ele>272.0</ele><time>2026-04-26T08:06:37Z</time></trkpt><trkpt lat="43.564854209059945" lon="11.854797749998598"><ele>268.0</ele><time>2026-04-26T08:06:38Z</time></trkpt><trkpt lat="43.564943201336" lon="11.855122238797009"><ele>266.5</ele><time>2026-04-26T08:06:39Z</time></trkpt><trkpt lat="43.565015969797656" lon="11.855457308500872"><ele>265.0</ele><time>2026-04-26T08:06:40Z</time></trkpt><trkpt lat="43.56508759934757" lon="11.855790323408474"><ele>264.5</ele><time>2026-04-26T08:06:41Z</time></trkpt><trkpt lat="43.565164920864206" lon="11.856117562743288"><ele>264.0</ele><time>2026-04-26T08:06:42Z</time></trkpt><trkpt lat="43.56521923524121" lon="11.856429851963258"><ele>264.0</ele><time>2026-04-26T08:06:43Z</time></trkpt><trkpt lat="43.565300734837905" lon="11.856721410190543"><ele>264.0</ele><time>2026-04-26T08:06:44Z</time></trkpt><trkpt lat="43.565364818384474" lon="11.85701872005998"><ele>267.3333333333333</ele><time>2026-04-26T08:06:45Z</time></trkpt><trkpt lat="43.56543026841706" lon="11.857317022476174"><ele>270.66666666666663</ele><time>2026-04-26T08:06:46Z</time></trkpt><trkpt lat="43.565499239085405" lon="11.857606350947782"><ele>274.0</ele><time>2026-04-26T08:06:47Z</time></trkpt><trkpt lat="43.56556818305564" lon="11.85788537974581"><ele>274.0</ele><time>2026-04-26T08:06:48Z</time></trkpt><trkpt lat="43.56564474564211" lon="11.85816372615533"><ele>274.0</ele><time>2026-04-26T08:06:49Z</time></trkpt><trkpt lat="43.565730463705556" lon="11.858444103327242"><ele>274.0</ele><time>2026-04-26T08:06:50Z</time></trkpt><trkpt lat="43.56582094182354" lon="11.858711065803218"><ele>273.0</ele><time>2026-04-26T08:06:51Z</time></trkpt><trkpt lat="43.56591514492473" lon="11.858959256673856"><ele>272.0</ele><time>2026-04-26T08:06:52Z</time></trkpt><trkpt lat="43.56601155842994" lon="11.859198071407484"><ele>271.0</ele><time>2026-04-26T08:06:53Z</time></trkpt><trkpt lat="43.566109358395714" lon="11.859435816600685"><ele>269.3333333333333</ele><time>2026-04-26T08:06:54Z</time></trkpt><trkpt lat="43.56620943966046" lon="11.859676476500356"><ele>267.6666666666667</ele><time>2026-04-26T08:06:55Z</time></trkpt><trkpt lat="43.56631439065409" lon="11.859926919175285"><ele>266.0</ele><time>2026-04-26T08:06:56Z</time></trkpt><trkpt lat="43.566422299337496" lon="11.86018413359967"><ele>266.0</ele><time>2026-04-26T08:06:57Z</time></trkpt><trkpt lat="43.56653146617609" lon="11.860446329730324"><ele>266.0</ele><time>2026-04-26T08:06:58Z</time></trkpt><trkpt lat="43.566629407757866" lon="11.860725043165553"><ele>266.0</ele><time>2026-04-26T08:06:59Z</time></trkpt><trkpt lat="43.566740651749726" lon="11.86098944699237"><ele>266.33333333333337</ele><time>2026-04-26T08:07:00Z</time></trkpt><trkpt lat="43.566865238265734" lon="11.861239954264967"><ele>266.6666666666667</ele><time>2026-04-26T08:07:01Z</time></trkpt><trkpt lat="43.56697246165053" lon="11.86149873989722"><ele>267.0</ele><time>2026-04-26T08:07:02Z</time></trkpt><trkpt lat="43.567077834680724" lon="11.861751004626944"><ele>266.0</ele><time>2026-04-26T08:07:03Z</time></trkpt><trkpt lat="43.56718125733444" lon="11.86199741714407"><ele>265.0</ele><time>2026-04-26T08:07:04Z</time></trkpt><trkpt lat="43.56726932272163" lon="11.862251185670972"><ele>264.0</ele><time>2026-04-26T08:07:05Z</time></trkpt><trkpt lat="43.56738334561743" lon="11.862479873117339"><ele>264.0</ele><time>2026-04-26T08:07:06Z</time></trkpt><trkpt lat="43.567481044944614" lon="11.862718644267533"><ele>264.0</ele><time>2026-04-26T08:07:07Z</time></trkpt><trkpt lat="43.56757859956664" lon="11.862956919122572"><ele>264.0</ele><time>2026-04-26T08:07:08Z</time></trkpt><trkpt lat="43.56767692607503" lon="11.863188979960539"><ele>264.0</ele><time>2026-04-26T08:07:09Z</time></trkpt><trkpt lat="43.56775923595858" lon="11.863428992775912"><ele>264.0</ele><time>2026-04-26T08:07:10Z</time></trkpt><trkpt lat="43.56785054277904" lon="11.863647212790852"><ele>264.0</ele><time>2026-04-26T08:07:11Z</time></trkpt><trkpt lat="43.56795132525209" lon="11.863845896703122"><ele>263.6666666666667</ele><time>2026-04-26T08:07:12Z</time></trkpt><trkpt lat="43.568040573917145" lon="11.86405812123509"><ele>263.33333333333337</ele><time>2026-04-26T08:07:12.999Z</time></trkpt><trkpt lat="43.56811896752999" lon="11.864292060367656"><ele>263.0</ele><time>2026-04-26T08:07:13.999Z</time></trkpt><trkpt lat="43.568216826571195" lon="11.864527143332444"><ele>263.0</ele><time>2026-04-26T08:07:14.999Z</time></trkpt><trkpt lat="43.5683208068508" lon="11.864776924988579"><ele>263.0</ele><time>2026-04-26T08:07:15.999Z</time></trkpt><trkpt lat="43.56844301529217" lon="11.865032708127945"><ele>263.0</ele><time>2026-04-26T08:07:16.999Z</time></trkpt><trkpt lat="43.568557125262615" lon="11.865308740223453"><ele>263.0</ele><time>2026-04-26T08:07:17.999Z</time></trkpt><trkpt lat="43.568676158155384" lon="11.86559132870294"><ele>263.0</ele><time>2026-04-26T08:07:18.999Z</time></trkpt><trkpt lat="43.56880117792396" lon="11.865873622380708"><ele>262.5</ele><time>2026-04-26T08:07:19.999Z</time></trkpt><trkpt lat="43.568953847273505" lon="11.866124029971196"><ele>262.0</ele><time>2026-04-26T08:07:20.999Z</time></trkpt><trkpt lat="43.56911568896346" lon="11.866370102756711"><ele>262.0</ele><time>2026-04-26T08:07:21.999Z</time></trkpt><trkpt lat="43.56915464097679" lon="11.866735446132653"><ele>262.0</ele><time>2026-04-26T08:07:22.999Z</time></trkpt><trkpt lat="43.569268758886416" lon="11.867017857701596"><ele>262.3333333333333</ele><time>2026-04-26T08:07:23.999Z</time></trkpt><trkpt lat="43.56937689033843" lon="11.867276834354291"><ele>262.6666666666667</ele><time>2026-04-26T08:07:24.999Z</time></trkpt><trkpt lat="43.56948740727441" lon="11.867519233891082"><ele>263.0</ele><time>2026-04-26T08:07:25.999Z</time></trkpt><trkpt lat="43.569588468070535" lon="11.867751942424345"><ele>263.0</ele><time>2026-04-26T08:07:26.999Z</time></trkpt><trkpt lat="43.569678369155554" lon="11.867964328048194"><ele>263.0</ele><time>2026-04-26T08:07:27.999Z</time></trkpt><trkpt lat="43.569758314339516" lon="11.868161604212807"><ele>263.0</ele><time>2026-04-26T08:07:28.999Z</time></trkpt><trkpt lat="43.56983702421086" lon="11.868345645965386"><ele>263.4</ele><time>2026-04-26T08:07:29.999Z</time></trkpt><trkpt lat="43.569901679796274" lon="11.868493575921606"><ele>263.8</ele><time>2026-04-26T08:07:30.999Z</time></trkpt><trkpt lat="43.56994194816941" lon="11.86863338373744"><ele>264.2</ele><time>2026-04-26T08:07:31.999Z</time></trkpt><trkpt lat="43.56994279683152" lon="11.868753520161265"><ele>264.6</ele><time>2026-04-26T08:07:33Z</time></trkpt><trkpt lat="43.56989870191135" lon="11.868863319573801"><ele>265.0</ele><time>2026-04-26T08:07:34Z</time></trkpt><trkpt lat="43.56983868050022" lon="11.868968034313587"><ele>265.0</ele><time>2026-04-26T08:07:35Z</time></trkpt><trkpt lat="43.569828178113866" lon="11.869085943549111"><ele>265.0</ele><time>2026-04-26T08:07:36Z</time></trkpt><trkpt lat="43.56986510509425" lon="11.869181649833981"><ele>265.0</ele><time>2026-04-26T08:07:37Z</time></trkpt><trkpt lat="43.56993465593693" lon="11.869240081738088"><ele>265.0</ele><time>2026-04-26T08:07:38Z</time></trkpt><trkpt lat="43.570030839131235" lon="11.869269189560725"><ele>265.0</ele><time>2026-04-26T08:07:39Z</time></trkpt><trkpt lat="43.57015516409432" lon="11.869265586545898"><ele>265.3333333333333</ele><time>2026-04-26T08:07:40Z</time></trkpt><trkpt lat="43.57029945286125" lon="11.869280376522385"><ele>265.6666666666667</ele><time>2026-04-26T08:07:41Z</time></trkpt><trkpt lat="43.570449224483006" lon="11.869340051520874"><ele>266.0</ele><time>2026-04-26T08:07:42Z</time></trkpt><trkpt lat="43.570598014921686" lon="11.869413925723238"><ele>266.33333333333337</ele><time>2026-04-26T08:07:43Z</time></trkpt><trkpt lat="43.5707595877941" lon="11.869519044567852"><ele>266.6666666666667</ele><time>2026-04-26T08:07:44Z</time></trkpt><trkpt lat="43.57091589388532" lon="11.869651791860662"><ele>267.0</ele><time>2026-04-26T08:07:45Z</time></trkpt><trkpt lat="43.571072441776" lon="11.869789906145062"><ele>266.6666666666667</ele><time>2026-04-26T08:07:46Z</time></trkpt><trkpt lat="43.57122967579648" lon="11.86993628531355"><ele>266.33333333333337</ele><time>2026-04-26T08:07:47Z</time></trkpt><trkpt lat="43.57138243510606" lon="11.870078185327309"><ele>266.0</ele><time>2026-04-26T08:07:48Z</time></trkpt><trkpt lat="43.57153869435373" lon="11.87021309502526"><ele>266.6666666666667</ele><time>2026-04-26T08:07:49Z</time></trkpt><trkpt lat="43.571696530685614" lon="11.870346510247094"><ele>267.3333333333333</ele><time>2026-04-26T08:07:50Z</time></trkpt><trkpt lat="43.571853419699075" lon="11.870485300544566"><ele>268.0</ele><time>2026-04-26T08:07:51Z</time></trkpt><trkpt lat="43.572005413040024" lon="11.870621199299508"><ele>268.3333333333333</ele><time>2026-04-26T08:07:52Z</time></trkpt><trkpt lat="43.57215612881852" lon="11.870753889306418"><ele>268.6666666666667</ele><time>2026-04-26T08:07:53Z</time></trkpt><trkpt lat="43.57230400738285" lon="11.870883597864202"><ele>269.0</ele><time>2026-04-26T08:07:54Z</time></trkpt><trkpt lat="43.57244846438384" lon="11.871011584420446"><ele>269.0</ele><time>2026-04-26T08:07:55Z</time></trkpt><trkpt lat="43.57258854179742" lon="11.871138893997673"><ele>269.0</ele><time>2026-04-26T08:07:56Z</time></trkpt><trkpt lat="43.57273103544447" lon="11.871267366259733"><ele>269.0</ele><time>2026-04-26T08:07:57Z</time></trkpt><trkpt lat="43.5728743224372" lon="11.871391492388188"><ele>269.0</ele><time>2026-04-26T08:07:58Z</time></trkpt><trkpt lat="43.573012680603284" lon="11.871515727186852"><ele>269.0</ele><time>2026-04-26T08:07:59Z</time></trkpt><trkpt lat="43.57314510478847" lon="11.871632971018698"><ele>269.0</ele><time>2026-04-26T08:08:00Z</time></trkpt><trkpt lat="43.573268408616194" lon="11.871743982224368"><ele>270.0</ele><time>2026-04-26T08:08:01Z</time></trkpt><trkpt lat="43.57339457473294" lon="11.871844894771158"><ele>271.0</ele><time>2026-04-26T08:08:02Z</time></trkpt><trkpt lat="43.5735325763974" lon="11.871940040303999"><ele>272.0</ele><time>2026-04-26T08:08:03Z</time></trkpt><trkpt lat="43.57369049764491" lon="11.872044548205423"><ele>272.0</ele><time>2026-04-26T08:08:04Z</time></trkpt><trkpt lat="43.57385603750719" lon="11.872155256262067"><ele>272.0</ele><time>2026-04-26T08:08:05Z</time></trkpt><trkpt lat="43.57402939984424" lon="11.872248006167206"><ele>272.0</ele><time>2026-04-26T08:08:06Z</time></trkpt><trkpt lat="43.57421037890104" lon="11.872316008216172"><ele>272.0</ele><time>2026-04-26T08:08:07Z</time></trkpt><trkpt lat="43.57439567692717" lon="11.872373423389602"><ele>272.0</ele><time>2026-04-26T08:08:08Z</time></trkpt><trkpt lat="43.574588571990674" lon="11.872410737971508"><ele>272.0</ele><time>2026-04-26T08:08:09Z</time></trkpt><trkpt lat="43.57478315737872" lon="11.872424358228397"><ele>272.0</ele><time>2026-04-26T08:08:10Z</time></trkpt><trkpt lat="43.57497697887847" lon="11.872414351091576"><ele>272.0</ele><time>2026-04-26T08:08:11Z</time></trkpt><trkpt lat="43.57518291569675" lon="11.872387352450392"><ele>272.0</ele><time>2026-04-26T08:08:12Z</time></trkpt><trkpt lat="43.57539168954081" lon="11.872332551959367"><ele>272.0</ele><time>2026-04-26T08:08:12.999Z</time></trkpt><trkpt lat="43.57556518218411" lon="11.872266447502719"><ele>272.0</ele><time>2026-04-26T08:08:13.999Z</time></trkpt><trkpt lat="43.57576019739647" lon="11.872205464784699"><ele>272.0</ele><time>2026-04-26T08:08:14.999Z</time></trkpt><trkpt lat="43.57596207026175" lon="11.872159579247434"><ele>272.0</ele><time>2026-04-26T08:08:15.999Z</time></trkpt><trkpt lat="43.57616901384004" lon="11.872112811469027"><ele>272.0</ele><time>2026-04-26T08:08:16.999Z</time></trkpt><trkpt lat="43.57638022351781" lon="11.872062540011395"><ele>272.0</ele><time>2026-04-26T08:08:17.999Z</time></trkpt><trkpt lat="43.57659010197446" lon="11.872014194275792"><ele>272.6666666666667</ele><time>2026-04-26T08:08:18.999Z</time></trkpt><trkpt lat="43.57679964463337" lon="11.871961169852431"><ele>273.3333333333333</ele><time>2026-04-26T08:08:19.999Z</time></trkpt><trkpt lat="43.57700747923467" lon="11.871909722610992"><ele>274.0</ele><time>2026-04-26T08:08:20.999Z</time></trkpt><trkpt lat="43.57721596405536" lon="11.871861405624147"><ele>274.0</ele><time>2026-04-26T08:08:21.999Z</time></trkpt><trkpt lat="43.57742641740159" lon="11.871810782104008"><ele>274.0</ele><time>2026-04-26T08:08:22.999Z</time></trkpt><trkpt lat="43.57763152580335" lon="11.871762214501532"><ele>274.0</ele><time>2026-04-26T08:08:23.999Z</time></trkpt><trkpt lat="43.577828721457045" lon="11.871743711518329"><ele>273.3333333333333</ele><time>2026-04-26T08:08:24.999Z</time></trkpt><trkpt lat="43.57801165000442" lon="11.871677924685338"><ele>272.6666666666667</ele><time>2026-04-26T08:08:25.999Z</time></trkpt><trkpt lat="43.578202578518265" lon="11.871657922532442"><ele>272.0</ele><time>2026-04-26T08:08:26.999Z</time></trkpt><trkpt lat="43.578392085026096" lon="11.871604226791597"><ele>272.0</ele><time>2026-04-26T08:08:27.999Z</time></trkpt><trkpt lat="43.57858612956413" lon="11.87158275706305"><ele>272.0</ele><time>2026-04-26T08:08:28.999Z</time></trkpt><trkpt lat="43.57878282844101" lon="11.871602083890053"><ele>272.0</ele><time>2026-04-26T08:08:29.999Z</time></trkpt><trkpt lat="43.578982313540436" lon="11.871598146131616"><ele>271.6666666666667</ele><time>2026-04-26T08:08:30.999Z</time></trkpt><trkpt lat="43.5791822012261" lon="11.871636356661206"><ele>271.3333333333333</ele><time>2026-04-26T08:08:31.999Z</time></trkpt><trkpt lat="43.57936569550236" lon="11.87171682113948"><ele>271.0</ele><time>2026-04-26T08:08:32.999Z</time></trkpt><trkpt lat="43.57954864403687" lon="11.871784042774888"><ele>271.0</ele><time>2026-04-26T08:08:33.999Z</time></trkpt><trkpt lat="43.579737853943" lon="11.871830410640143"><ele>271.0</ele><time>2026-04-26T08:08:34.999Z</time></trkpt><trkpt lat="43.57992351229168" lon="11.87190447923899"><ele>271.0</ele><time>2026-04-26T08:08:35.999Z</time></trkpt><trkpt lat="43.580112495705755" lon="11.871976103080556"><ele>271.0</ele><time>2026-04-26T08:08:36.999Z</time></trkpt><trkpt lat="43.580303193899184" lon="11.87205354975847"><ele>271.0</ele><time>2026-04-26T08:08:37.999Z</time></trkpt><trkpt lat="43.580496698778006" lon="11.872130065889912"><ele>271.0</ele><time>2026-04-26T08:08:38.999Z</time></trkpt><trkpt lat="43.580693608507886" lon="11.872207584267578"><ele>271.3333333333333</ele><time>2026-04-26T08:08:39.999Z</time></trkpt><trkpt lat="43.580891781352385" lon="11.872286915028367"><ele>271.6666666666667</ele><time>2026-04-26T08:08:40.999Z</time></trkpt><trkpt lat="43.58109274996426" lon="11.872363334253789"><ele>272.0</ele><time>2026-04-26T08:08:41.999Z</time></trkpt><trkpt lat="43.58129573939147" lon="11.872438776554462"><ele>272.33333333333337</ele><time>2026-04-26T08:08:42.999Z</time></trkpt><trkpt lat="43.58149871335699" lon="11.872513727863927"><ele>272.6666666666667</ele><time>2026-04-26T08:08:43.999Z</time></trkpt><trkpt lat="43.58170121629013" lon="11.872588093717933"><ele>273.0</ele><time>2026-04-26T08:08:44.999Z</time></trkpt><trkpt lat="43.58190350705259" lon="11.87265936687552"><ele>273.3333333333333</ele><time>2026-04-26T08:08:45.999Z</time></trkpt><trkpt lat="43.58210601945039" lon="11.872731500192808"><ele>273.66666666666663</ele><time>2026-04-26T08:08:46.999Z</time></trkpt><trkpt lat="43.58230247938453" lon="11.872827215296514"><ele>274.0</ele><time>2026-04-26T08:08:47.999Z</time></trkpt><trkpt lat="43.58250761602645" lon="11.872882050840989"><ele>274.0</ele><time>2026-04-26T08:08:48.999Z</time></trkpt><trkpt lat="43.582707686423795" lon="11.872955583856324"><ele>274.0</ele><time>2026-04-26T08:08:49.999Z</time></trkpt><trkpt lat="43.58290220569185" lon="11.873027855316913"><ele>274.0</ele><time>2026-04-26T08:08:50.999Z</time></trkpt><trkpt lat="43.583092880440326" lon="11.873101105019014"><ele>274.0</ele><time>2026-04-26T08:08:51.999Z</time></trkpt><trkpt lat="43.583285213953225" lon="11.873173649931342"><ele>274.0</ele><time>2026-04-26T08:08:52.999Z</time></trkpt><trkpt lat="43.58347979933023" lon="11.873249744870474"><ele>274.0</ele><time>2026-04-26T08:08:53.999Z</time></trkpt><trkpt lat="43.583672570871784" lon="11.87332450376232"><ele>273.3333333333333</ele><time>2026-04-26T08:08:54.999Z</time></trkpt><trkpt lat="43.583865839900966" lon="11.873399332901428"><ele>272.6666666666667</ele><time>2026-04-26T08:08:55.999Z</time></trkpt><trkpt lat="43.58405891181016" lon="11.873475292257588"><ele>272.0</ele><time>2026-04-26T08:08:56.999Z</time></trkpt><trkpt lat="43.584252362191805" lon="11.873551569137977"><ele>272.0</ele><time>2026-04-26T08:08:57.999Z</time></trkpt><trkpt lat="43.584446881329335" lon="11.873624303712113"><ele>272.0</ele><time>2026-04-26T08:08:58.999Z</time></trkpt><trkpt lat="43.58464032843227" lon="11.873698964209892"><ele>272.0</ele><time>2026-04-26T08:08:59.999Z</time></trkpt><trkpt lat="43.58483421253257" lon="11.87378314846457"><ele>272.0</ele><time>2026-04-26T08:09:00.999Z</time></trkpt><trkpt lat="43.58502093077632" lon="11.87389993280281"><ele>272.0</ele><time>2026-04-26T08:09:01.999Z</time></trkpt><trkpt lat="43.58521077409832" lon="11.874007514337782"><ele>272.0</ele><time>2026-04-26T08:09:02.999Z</time></trkpt><trkpt lat="43.58540328537034" lon="11.874117876655546"><ele>272.0</ele><time>2026-04-26T08:09:03.999Z</time></trkpt><trkpt lat="43.58560188000065" lon="11.874210351094316"><ele>272.0</ele><time>2026-04-26T08:09:04.999Z</time></trkpt><trkpt lat="43.5857966376041" lon="11.874327258343513"><ele>272.0</ele><time>2026-04-26T08:09:05.999Z</time></trkpt><trkpt lat="43.58599239766863" lon="11.874444846445583"><ele>272.33333333333337</ele><time>2026-04-26T08:09:06.999Z</time></trkpt><trkpt lat="43.586186739349145" lon="11.874560061800867"><ele>272.6666666666667</ele><time>2026-04-26T08:09:07.999Z</time></trkpt><trkpt lat="43.586378018543336" lon="11.874671851332463"><ele>273.0</ele><time>2026-04-26T08:09:08.999Z</time></trkpt><trkpt lat="43.58656389912549" lon="11.874783110100863"><ele>273.0</ele><time>2026-04-26T08:09:09.999Z</time></trkpt><trkpt lat="43.58675002308941" lon="11.87489167950212"><ele>273.0</ele><time>2026-04-26T08:09:10.999Z</time></trkpt><trkpt lat="43.586928074854974" lon="11.874994237944478"><ele>273.0</ele><time>2026-04-26T08:09:11.999Z</time></trkpt><trkpt lat="43.5870939060652" lon="11.875088831603605"><ele>275.0</ele><time>2026-04-26T08:09:12.999Z</time></trkpt><trkpt lat="43.5872508293295" lon="11.875169794947094"><ele>277.0</ele><time>2026-04-26T08:09:13.999Z</time></trkpt><trkpt lat="43.58740018435445" lon="11.87524868061706"><ele>279.0</ele><time>2026-04-26T08:09:14.999Z</time></trkpt><trkpt lat="43.587547748127015" lon="11.875317520427716"><ele>279.0</ele><time>2026-04-26T08:09:15.999Z</time></trkpt><trkpt lat="43.58769815194925" lon="11.875379675058465"><ele>279.0</ele><time>2026-04-26T08:09:16.999Z</time></trkpt><trkpt lat="43.587844589272784" lon="11.875449708767604"><ele>279.0</ele><time>2026-04-26T08:09:17.999Z</time></trkpt><trkpt lat="43.58798563686797" lon="11.875522544411012"><ele>278.0</ele><time>2026-04-26T08:09:18.999Z</time></trkpt><trkpt lat="43.58812315284389" lon="11.875599957255792"><ele>277.0</ele><time>2026-04-26T08:09:19.999Z</time></trkpt><trkpt lat="43.588264515990396" lon="11.875689068483965"><ele>276.0</ele><time>2026-04-26T08:09:20.999Z</time></trkpt><trkpt lat="43.588403246653904" lon="11.875798156148594"><ele>276.0</ele><time>2026-04-26T08:09:21.999Z</time></trkpt><trkpt lat="43.58854590585086" lon="11.875923738665422"><ele>276.0</ele><time>2026-04-26T08:09:22.999Z</time></trkpt><trkpt lat="43.58869931799571" lon="11.876073301811909"><ele>276.0</ele><time>2026-04-26T08:09:23.999Z</time></trkpt><trkpt lat="43.58885058593813" lon="11.876244009822681"><ele>276.3333333333333</ele><time>2026-04-26T08:09:24.999Z</time></trkpt><trkpt lat="43.58899336042839" lon="11.876403244608985"><ele>276.66666666666663</ele><time>2026-04-26T08:09:25.999Z</time></trkpt><trkpt lat="43.58911786974388" lon="11.87655666441342"><ele>277.0</ele><time>2026-04-26T08:09:26.999Z</time></trkpt><trkpt lat="43.58923155164896" lon="11.876698093704391"><ele>276.0</ele><time>2026-04-26T08:09:27.999Z</time></trkpt><trkpt lat="43.58933782710645" lon="11.876819304976793"><ele>275.0</ele><time>2026-04-26T08:09:28.999Z</time></trkpt><trkpt lat="43.589443298819596" lon="11.876919936740862"><ele>274.0</ele><time>2026-04-26T08:09:29.999Z</time></trkpt><trkpt lat="43.58955522966771" lon="11.877003036726318"><ele>273.0</ele><time>2026-04-26T08:09:30.999Z</time></trkpt><trkpt lat="43.58968194446112" lon="11.877055981838673"><ele>273.0</ele><time>2026-04-26T08:09:31.999Z</time></trkpt><trkpt lat="43.58983072461465" lon="11.877093350602067"><ele>273.0</ele><time>2026-04-26T08:09:32.999Z</time></trkpt><trkpt lat="43.58997575819828" lon="11.87713451463225"><ele>273.0</ele><time>2026-04-26T08:09:33.999Z</time></trkpt><trkpt lat="43.590171978289206" lon="11.877205662585423"><ele>272.0</ele><time>2026-04-26T08:09:34.999Z</time></trkpt><trkpt lat="43.59036929155545" lon="11.877281985493509"><ele>271.0</ele><time>2026-04-26T08:09:35.999Z</time></trkpt><trkpt lat="43.59057035792567" lon="11.877371451852492"><ele>270.0</ele><time>2026-04-26T08:09:36.999Z</time></trkpt><trkpt lat="43.590760555911" lon="11.87747838167556"><ele>270.0</ele><time>2026-04-26T08:09:37.999Z</time></trkpt><trkpt lat="43.59094632094834" lon="11.877587181126634"><ele>270.0</ele><time>2026-04-26T08:09:39Z</time></trkpt><trkpt lat="43.591128713412644" lon="11.877700933752845"><ele>270.0</ele><time>2026-04-26T08:09:40Z</time></trkpt><trkpt lat="43.59130816033029" lon="11.87781898289791"><ele>270.6666666666667</ele><time>2026-04-26T08:09:41Z</time></trkpt><trkpt lat="43.59148913449982" lon="11.877934075984713"><ele>271.33333333333337</ele><time>2026-04-26T08:09:42Z</time></trkpt><trkpt lat="43.591667222577364" lon="11.878043286249952"><ele>272.0</ele><time>2026-04-26T08:09:43Z</time></trkpt><trkpt lat="43.59184207868064" lon="11.878151530665473"><ele>272.0</ele><time>2026-04-26T08:09:44Z</time></trkpt><trkpt lat="43.592014307155495" lon="11.878259270430245"><ele>272.0</ele><time>2026-04-26T08:09:45Z</time></trkpt><trkpt lat="43.59218529030603" lon="11.87836573373872"><ele>272.0</ele><time>2026-04-26T08:09:46Z</time></trkpt><trkpt lat="43.59235930467018" lon="11.878468604573843"><ele>273.6666666666667</ele><time>2026-04-26T08:09:47Z</time></trkpt><trkpt lat="43.59253415950249" lon="11.878554884474124"><ele>275.3333333333333</ele><time>2026-04-26T08:09:48Z</time></trkpt><trkpt lat="43.59271073079108" lon="11.878631484558902"><ele>277.0</ele><time>2026-04-26T08:09:49Z</time></trkpt><trkpt lat="43.592879655770105" lon="11.878705527423"><ele>277.0</ele><time>2026-04-26T08:09:50Z</time></trkpt><trkpt lat="43.59304495945544" lon="11.878782671062927"><ele>277.0</ele><time>2026-04-26T08:09:51Z</time></trkpt><trkpt lat="43.59321028192793" lon="11.878872230969318"><ele>277.0</ele><time>2026-04-26T08:09:52Z</time></trkpt><trkpt lat="43.59336829391893" lon="11.878942709670273"><ele>277.0</ele><time>2026-04-26T08:09:53Z</time></trkpt><trkpt lat="43.59352209058731" lon="11.879013212796178"><ele>277.0</ele><time>2026-04-26T08:09:54Z</time></trkpt><trkpt lat="43.59368174453237" lon="11.879117352322941"><ele>277.0</ele><time>2026-04-26T08:09:55Z</time></trkpt><trkpt lat="43.5938370446432" lon="11.879203092830295"><ele>284.66666666666663</ele><time>2026-04-26T08:09:56Z</time></trkpt><trkpt lat="43.5939944387133" lon="11.879267735770407"><ele>292.3333333333333</ele><time>2026-04-26T08:09:57Z</time></trkpt><trkpt lat="43.594155896229026" lon="11.879285617844845"><ele>300.0</ele><time>2026-04-26T08:09:58Z</time></trkpt><trkpt lat="43.59432983212625" lon="11.87926750575906"><ele>294.3333333333333</ele><time>2026-04-26T08:09:59Z</time></trkpt><trkpt lat="43.59449084590232" lon="11.879216173888922"><ele>288.66666666666663</ele><time>2026-04-26T08:10:00Z</time></trkpt><trkpt lat="43.594636048958456" lon="11.879173371278444"><ele>283.0</ele><time>2026-04-26T08:10:01Z</time></trkpt><trkpt lat="43.5947852389943" lon="11.87914269138366"><ele>283.0</ele><time>2026-04-26T08:10:02Z</time></trkpt><trkpt lat="43.594931419780465" lon="11.879115419366435"><ele>283.0</ele><time>2026-04-26T08:10:03Z</time></trkpt><trkpt lat="43.59507482550329" lon="11.879086788027713"><ele>283.0</ele><time>2026-04-26T08:10:04Z</time></trkpt><trkpt lat="43.59521970435523" lon="11.879056283904097"><ele>283.0</ele><time>2026-04-26T08:10:05Z</time></trkpt><trkpt lat="43.59536824077363" lon="11.879011906630074"><ele>286.0</ele><time>2026-04-26T08:10:06Z</time></trkpt><trkpt lat="43.595524226633394" lon="11.878958203696637"><ele>289.0</ele><time>2026-04-26T08:10:07Z</time></trkpt><trkpt lat="43.59568141286225" lon="11.87890260026728"><ele>292.0</ele><time>2026-04-26T08:10:08Z</time></trkpt><trkpt lat="43.5958398144768" lon="11.878847668328312"><ele>292.0</ele><time>2026-04-26T08:10:09Z</time></trkpt><trkpt lat="43.59599038830461" lon="11.87879399232671"><ele>292.0</ele><time>2026-04-26T08:10:10Z</time></trkpt><trkpt lat="43.59612902971173" lon="11.878732847079442"><ele>292.0</ele><time>2026-04-26T08:10:11Z</time></trkpt><trkpt lat="43.59626397679412" lon="11.878666137768741"><ele>292.0</ele><time>2026-04-26T08:10:12Z</time></trkpt><trkpt lat="43.59639461239205" lon="11.878586775849909"><ele>290.3333333333333</ele><time>2026-04-26T08:10:13Z</time></trkpt><trkpt lat="43.59652600848946" lon="11.878505931729329"><ele>288.6666666666667</ele><time>2026-04-26T08:10:14Z</time></trkpt><trkpt lat="43.59665889891328" lon="11.878407258719173"><ele>287.0</ele><time>2026-04-26T08:10:15Z</time></trkpt><trkpt lat="43.5967934334958" lon="11.878294396960708"><ele>287.0</ele><time>2026-04-26T08:10:16Z</time></trkpt><trkpt lat="43.596925652811485" lon="11.878173600063327"><ele>287.0</ele><time>2026-04-26T08:10:17Z</time></trkpt><trkpt lat="43.597054781883344" lon="11.878057138551533"><ele>287.0</ele><time>2026-04-26T08:10:18Z</time></trkpt><trkpt lat="43.597171433404654" lon="11.87790212804433"><ele>288.33333333333337</ele><time>2026-04-26T08:10:19Z</time></trkpt><trkpt lat="43.59728902240506" lon="11.877720410152277"><ele>289.6666666666667</ele><time>2026-04-26T08:10:20Z</time></trkpt><trkpt lat="43.59740492032815" lon="11.877519398436624"><ele>291.0</ele><time>2026-04-26T08:10:21Z</time></trkpt><trkpt lat="43.597531999924044" lon="11.877291676571918"><ele>291.0</ele><time>2026-04-26T08:10:22Z</time></trkpt><trkpt lat="43.59766124592281" lon="11.877059056518696"><ele>291.0</ele><time>2026-04-26T08:10:23Z</time></trkpt><trkpt lat="43.597795267122905" lon="11.876831093537513"><ele>291.0</ele><time>2026-04-26T08:10:24Z</time></trkpt><trkpt lat="43.597938067786814" lon="11.876625014062377"><ele>295.6666666666667</ele><time>2026-04-26T08:10:25Z</time></trkpt><trkpt lat="43.598086971142315" lon="11.876424847813723"><ele>300.33333333333337</ele><time>2026-04-26T08:10:26Z</time></trkpt><trkpt lat="43.59821522173887" lon="11.876205926567929"><ele>305.0</ele><time>2026-04-26T08:10:27Z</time></trkpt><trkpt lat="43.59833519942174" lon="11.875985196859252"><ele>299.6666666666667</ele><time>2026-04-26T08:10:28Z</time></trkpt><trkpt lat="43.598447815350724" lon="11.87574131340483"><ele>294.3333333333333</ele><time>2026-04-26T08:10:29Z</time></trkpt><trkpt lat="43.59855619179959" lon="11.875492794131533"><ele>289.0</ele><time>2026-04-26T08:10:30Z</time></trkpt><trkpt lat="43.598652948970944" lon="11.87523907553802"><ele>294.66666666666663</ele><time>2026-04-26T08:10:31Z</time></trkpt><trkpt lat="43.598742140025585" lon="11.874977077874515"><ele>300.3333333333333</ele><time>2026-04-26T08:10:32Z</time></trkpt><trkpt lat="43.59882495926721" lon="11.874703940415266"><ele>306.0</ele><time>2026-04-26T08:10:33Z</time></trkpt><trkpt lat="43.59890414343718" lon="11.874423406278977"><ele>302.3333333333333</ele><time>2026-04-26T08:10:34Z</time></trkpt><trkpt lat="43.59898469258414" lon="11.874143476601384"><ele>298.66666666666663</ele><time>2026-04-26T08:10:35Z</time></trkpt><trkpt lat="43.59906236939934" lon="11.873858819595284"><ele>295.0</ele><time>2026-04-26T08:10:36Z</time></trkpt><trkpt lat="43.59913502037839" lon="11.873571820899427"><ele>291.0</ele><time>2026-04-26T08:10:37Z</time></trkpt><trkpt lat="43.5991893499327" lon="11.873280762109605"><ele>287.0</ele><time>2026-04-26T08:10:38Z</time></trkpt><trkpt lat="43.599239761961186" lon="11.872985525306591"><ele>283.0</ele><time>2026-04-26T08:10:39Z</time></trkpt><trkpt lat="43.5993047197299" lon="11.872699676492086"><ele>280.66666666666663</ele><time>2026-04-26T08:10:40Z</time></trkpt><trkpt lat="43.59934817288792" lon="11.87240685296131"><ele>278.3333333333333</ele><time>2026-04-26T08:10:41Z</time></trkpt><trkpt lat="43.599412244048516" lon="11.872115580488494"><ele>276.0</ele><time>2026-04-26T08:10:42Z</time></trkpt><trkpt lat="43.59947484635949" lon="11.871817168704506"><ele>287.5</ele><time>2026-04-26T08:10:43Z</time></trkpt><trkpt lat="43.59952234519387" lon="11.871512309788635"><ele>299.0</ele><time>2026-04-26T08:10:44Z</time></trkpt><trkpt lat="43.599556601733575" lon="11.871201686363223"><ele>296.0</ele><time>2026-04-26T08:10:45Z</time></trkpt><trkpt lat="43.59960304262572" lon="11.870842955889584"><ele>293.0</ele><time>2026-04-26T08:10:46Z</time></trkpt><trkpt lat="43.599635346691585" lon="11.870485573356467"><ele>293.0</ele><time>2026-04-26T08:10:46.999Z</time></trkpt><trkpt lat="43.59964370542293" lon="11.870272077734095"><ele>293.0</ele><time>2026-04-26T08:10:47.999Z</time></trkpt><trkpt lat="43.59966459433125" lon="11.869984730367916"><ele>293.0</ele><time>2026-04-26T08:10:48.999Z</time></trkpt><trkpt lat="43.59967726186704" lon="11.86971387259575"><ele>291.0</ele><time>2026-04-26T08:10:49.999Z</time></trkpt><trkpt lat="43.599710694216824" lon="11.869469011123035"><ele>289.0</ele><time>2026-04-26T08:10:50.999Z</time></trkpt><trkpt lat="43.599726784530155" lon="11.869227810670195"><ele>287.0</ele><time>2026-04-26T08:10:51.999Z</time></trkpt><trkpt lat="43.59974935559997" lon="11.868992358902407"><ele>287.0</ele><time>2026-04-26T08:10:52.999Z</time></trkpt><trkpt lat="43.59978578966719" lon="11.868785979279046"><ele>287.0</ele><time>2026-04-26T08:10:53.999Z</time></trkpt><trkpt lat="43.59984811470355" lon="11.86861536267364"><ele>287.0</ele><time>2026-04-26T08:10:54.999Z</time></trkpt><trkpt lat="43.599937037746635" lon="11.868472813190188"><ele>287.0</ele><time>2026-04-26T08:10:55.999Z</time></trkpt><trkpt lat="43.60004530311096" lon="11.86830736074106"><ele>288.0</ele><time>2026-04-26T08:10:56.999Z</time></trkpt><trkpt lat="43.600159053406806" lon="11.868139722568312"><ele>289.0</ele><time>2026-04-26T08:10:57.999Z</time></trkpt><trkpt lat="43.60027801581996" lon="11.867963540297051"><ele>290.0</ele><time>2026-04-26T08:10:58.999Z</time></trkpt><trkpt lat="43.60039516356683" lon="11.867789129656646"><ele>291.6666666666667</ele><time>2026-04-26T08:10:59.999Z</time></trkpt><trkpt lat="43.600509320452204" lon="11.867622078055497"><ele>293.3333333333333</ele><time>2026-04-26T08:11:00.999Z</time></trkpt><trkpt lat="43.60062966811937" lon="11.86747202302755"><ele>295.0</ele><time>2026-04-26T08:11:01.999Z</time></trkpt><trkpt lat="43.600758593783986" lon="11.867339440042585"><ele>295.0</ele><time>2026-04-26T08:11:02.999Z</time></trkpt><trkpt lat="43.60089829078172" lon="11.867226704105098"><ele>295.0</ele><time>2026-04-26T08:11:03.999Z</time></trkpt><trkpt lat="43.60104180762367" lon="11.86711773341272"><ele>295.0</ele><time>2026-04-26T08:11:04.999Z</time></trkpt><trkpt lat="43.60117346652778" lon="11.867016349782588"><ele>295.0</ele><time>2026-04-26T08:11:05.999Z</time></trkpt><trkpt lat="43.60130176506981" lon="11.866917553791113"><ele>295.0</ele><time>2026-04-26T08:11:06.999Z</time></trkpt><trkpt lat="43.601409448586594" lon="11.866809699988048"><ele>295.0</ele><time>2026-04-26T08:11:07.999Z</time></trkpt><trkpt lat="43.601522187424365" lon="11.866726412330763"><ele>295.0</ele><time>2026-04-26T08:11:08.999Z</time></trkpt><trkpt lat="43.60160121893332" lon="11.866650445531008"><ele>295.0</ele><time>2026-04-26T08:11:09.999Z</time></trkpt><trkpt lat="43.601672272771694" lon="11.866598385037234"><ele>295.0</ele><time>2026-04-26T08:11:10.999Z</time></trkpt><trkpt lat="43.601769222319675" lon="11.866524818229113"><ele>295.0</ele><time>2026-04-26T08:11:12.999Z</time></trkpt><trkpt lat="43.60186425315715" lon="11.86645990557219"><ele>295.0</ele><time>2026-04-26T08:11:14.999Z</time></trkpt><trkpt lat="43.60193606033857" lon="11.866416294368271"><ele>295.0</ele><time>2026-04-26T08:11:16.999Z</time></trkpt><trkpt lat="43.60200138805707" lon="11.866379954145419"><ele>295.0</ele><time>2026-04-26T08:11:19.999Z</time></trkpt><trkpt lat="43.602075757548484" lon="11.866342713268995"><ele>296.25</ele><time>2026-04-26T08:11:22.999Z</time></trkpt><trkpt lat="43.60214459700333" lon="11.866329911085296"><ele>297.5</ele><time>2026-04-26T08:12:10Z</time></trkpt><trkpt lat="43.602294551703395" lon="11.866262694158587"><ele>298.75</ele><time>2026-04-26T08:12:12Z</time></trkpt><trkpt lat="43.60239929989701" lon="11.866264846290061"><ele>300.0</ele><time>2026-04-26T08:12:13Z</time></trkpt><trkpt lat="43.60252342273852" lon="11.866222232346344"><ele>300.0</ele><time>2026-04-26T08:12:14Z</time></trkpt><trkpt lat="43.60266002420711" lon="11.866177290848468"><ele>300.0</ele><time>2026-04-26T08:12:15Z</time></trkpt><trkpt lat="43.60281738772958" lon="11.866127505258317"><ele>300.0</ele><time>2026-04-26T08:12:16Z</time></trkpt><trkpt lat="43.60299002374524" lon="11.866085955748439"><ele>302.3333333333333</ele><time>2026-04-26T08:12:17Z</time></trkpt><trkpt lat="43.60316524590789" lon="11.866052904386112"><ele>304.66666666666663</ele><time>2026-04-26T08:12:18Z</time></trkpt><trkpt lat="43.60336407032097" lon="11.866021175509596"><ele>307.0</ele><time>2026-04-26T08:12:19Z</time></trkpt><trkpt lat="43.60356979138918" lon="11.86598921997588"><ele>304.66666666666663</ele><time>2026-04-26T08:12:20Z</time></trkpt><trkpt lat="43.60378773481107" lon="11.865953411389679"><ele>302.3333333333333</ele><time>2026-04-26T08:12:21Z</time></trkpt><trkpt lat="43.604000356843066" lon="11.8659119670882"><ele>300.0</ele><time>2026-04-26T08:12:22Z</time></trkpt><trkpt lat="43.60421918542199" lon="11.865834363623843"><ele>296.0</ele><time>2026-04-26T08:12:23Z</time></trkpt><trkpt lat="43.604436763880045" lon="11.865730392934285"><ele>292.0</ele><time>2026-04-26T08:12:24Z</time></trkpt><trkpt lat="43.60465815001401" lon="11.865622862920514"><ele>292.0</ele><time>2026-04-26T08:12:25Z</time></trkpt><trkpt lat="43.6048781213621" lon="11.865496307596409"><ele>292.0</ele><time>2026-04-26T08:12:26Z</time></trkpt><trkpt lat="43.60510786223092" lon="11.865403577434606"><ele>298.0</ele><time>2026-04-26T08:12:27Z</time></trkpt><trkpt lat="43.60534405025772" lon="11.865318022830488"><ele>304.0</ele><time>2026-04-26T08:12:28Z</time></trkpt><trkpt lat="43.60558227557245" lon="11.86524450310903"><ele>304.0</ele><time>2026-04-26T08:12:29Z</time></trkpt><trkpt lat="43.60582232041608" lon="11.865173718472542"><ele>304.0</ele><time>2026-04-26T08:12:30Z</time></trkpt><trkpt lat="43.606063531565546" lon="11.865103230986302"><ele>296.0</ele><time>2026-04-26T08:12:31Z</time></trkpt><trkpt lat="43.60630578069716" lon="11.865028194706595"><ele>288.0</ele><time>2026-04-26T08:12:32Z</time></trkpt><trkpt lat="43.60654905800252" lon="11.864953327886164"><ele>288.0</ele><time>2026-04-26T08:12:33Z</time></trkpt><trkpt lat="43.60679406909762" lon="11.86487768430089"><ele>288.0</ele><time>2026-04-26T08:12:34Z</time></trkpt><trkpt lat="43.60703989317431" lon="11.864798814255892"><ele>289.0</ele><time>2026-04-26T08:12:35Z</time></trkpt><trkpt lat="43.60728814210813" lon="11.864725294294395"><ele>290.0</ele><time>2026-04-26T08:12:36Z</time></trkpt><trkpt lat="43.60753754975937" lon="11.864658540887993"><ele>290.0</ele><time>2026-04-26T08:12:37Z</time></trkpt><trkpt lat="43.60779025401616" lon="11.864615894827876"><ele>290.0</ele><time>2026-04-26T08:12:38Z</time></trkpt><trkpt lat="43.60804551523165" lon="11.864598229476876"><ele>291.0</ele><time>2026-04-26T08:12:39Z</time></trkpt><trkpt lat="43.6083031356924" lon="11.864601467232937"><ele>292.0</ele><time>2026-04-26T08:12:40Z</time></trkpt><trkpt lat="43.60856252431851" lon="11.864617568422009"><ele>288.5</ele><time>2026-04-26T08:12:41Z</time></trkpt><trkpt lat="43.60881999082307" lon="11.864651137961332"><ele>285.0</ele><time>2026-04-26T08:12:42Z</time></trkpt><trkpt lat="43.60907519216621" lon="11.86468003257613"><ele>285.0</ele><time>2026-04-26T08:12:43Z</time></trkpt><trkpt lat="43.6093289007526" lon="11.864709640472377"><ele>285.0</ele><time>2026-04-26T08:12:44Z</time></trkpt><trkpt lat="43.60958022307515" lon="11.864735158134586"><ele>284.5</ele><time>2026-04-26T08:12:45Z</time></trkpt><trkpt lat="43.609831013183985" lon="11.864767418597827"><ele>284.0</ele><time>2026-04-26T08:12:46Z</time></trkpt><trkpt lat="43.61008027671203" lon="11.864796310932379"><ele>284.5</ele><time>2026-04-26T08:12:47Z</time></trkpt><trkpt lat="43.61032860469389" lon="11.86482498488096"><ele>285.0</ele><time>2026-04-26T08:12:48Z</time></trkpt><trkpt lat="43.61057652765722" lon="11.86485258513031"><ele>285.0</ele><time>2026-04-26T08:12:49Z</time></trkpt><trkpt lat="43.610824808680164" lon="11.864880011113044"><ele>285.0</ele><time>2026-04-26T08:12:50Z</time></trkpt><trkpt lat="43.6110732602401" lon="11.864906428716683"><ele>285.0</ele><time>2026-04-26T08:12:51Z</time></trkpt><trkpt lat="43.61132232946433" lon="11.864936048437505"><ele>285.0</ele><time>2026-04-26T08:12:52Z</time></trkpt><trkpt lat="43.61157354679707" lon="11.864966851761675"><ele>287.0</ele><time>2026-04-26T08:12:53Z</time></trkpt><trkpt lat="43.611815611336695" lon="11.865132355238496"><ele>289.0</ele><time>2026-04-26T08:12:54Z</time></trkpt><trkpt lat="43.61206299211149" lon="11.865163653349454"><ele>291.5</ele><time>2026-04-26T08:12:55Z</time></trkpt><trkpt lat="43.61230960653352" lon="11.865195663874225"><ele>294.0</ele><time>2026-04-26T08:12:56Z</time></trkpt><trkpt lat="43.61255440720969" lon="11.865227440031624"><ele>294.0</ele><time>2026-04-26T08:12:57Z</time></trkpt><trkpt lat="43.612796302247354" lon="11.865258839024605"><ele>294.0</ele><time>2026-04-26T08:12:58Z</time></trkpt><trkpt lat="43.61303979446716" lon="11.865283065919677"><ele>295.0</ele><time>2026-04-26T08:12:59Z</time></trkpt><trkpt lat="43.6132933805945" lon="11.865169021119817"><ele>296.0</ele><time>2026-04-26T08:13:00Z</time></trkpt><trkpt lat="43.613538413840956" lon="11.865172959660192"><ele>294.5</ele><time>2026-04-26T08:13:01Z</time></trkpt><trkpt lat="43.61378555833909" lon="11.865146958818338"><ele>293.0</ele><time>2026-04-26T08:13:02Z</time></trkpt><trkpt lat="43.61403187224917" lon="11.865095481915098"><ele>291.5</ele><time>2026-04-26T08:13:03Z</time></trkpt><trkpt lat="43.61427743623255" lon="11.865018279677328"><ele>290.0</ele><time>2026-04-26T08:13:04Z</time></trkpt><trkpt lat="43.614518006825506" lon="11.86491355764652"><ele>293.0</ele><time>2026-04-26T08:13:05Z</time></trkpt><trkpt lat="43.61475300827226" lon="11.86478496868857"><ele>296.0</ele><time>2026-04-26T08:13:06Z</time></trkpt><trkpt lat="43.61497879912145" lon="11.864625240942878"><ele>296.0</ele><time>2026-04-26T08:13:07Z</time></trkpt><trkpt lat="43.61519421900364" lon="11.864441553312352"><ele>296.0</ele><time>2026-04-26T08:13:08Z</time></trkpt><trkpt lat="43.61539902859797" lon="11.864240299257611"><ele>300.5</ele><time>2026-04-26T08:13:09Z</time></trkpt><trkpt lat="43.615588819383696" lon="11.864013834085409"><ele>305.0</ele><time>2026-04-26T08:13:10Z</time></trkpt><trkpt lat="43.615763252205845" lon="11.863771006495872"><ele>305.0</ele><time>2026-04-26T08:13:11Z</time></trkpt><trkpt lat="43.61592679747128" lon="11.86351094205801"><ele>305.0</ele><time>2026-04-26T08:13:12Z</time></trkpt><trkpt lat="43.616072760427926" lon="11.863226920748708"><ele>306.0</ele><time>2026-04-26T08:13:13Z</time></trkpt><trkpt lat="43.616206213651644" lon="11.8629356646304"><ele>307.0</ele><time>2026-04-26T08:13:14Z</time></trkpt><trkpt lat="43.61633034000018" lon="11.862636377278337"><ele>301.5</ele><time>2026-04-26T08:13:15Z</time></trkpt><trkpt lat="43.61645486703347" lon="11.862333229567149"><ele>296.0</ele><time>2026-04-26T08:13:16Z</time></trkpt><trkpt lat="43.616583094765154" lon="11.862033946505559"><ele>292.0</ele><time>2026-04-26T08:13:17Z</time></trkpt><trkpt lat="43.61671275820103" lon="11.861732453668187"><ele>288.0</ele><time>2026-04-26T08:13:18Z</time></trkpt><trkpt lat="43.61684152551985" lon="11.861426379673366"><ele>288.0</ele><time>2026-04-26T08:13:19Z</time></trkpt><trkpt lat="43.6169755647359" lon="11.861123467341987"><ele>288.0</ele><time>2026-04-26T08:13:20Z</time></trkpt><trkpt lat="43.617113488008336" lon="11.860823923586214"><ele>291.5</ele><time>2026-04-26T08:13:21Z</time></trkpt><trkpt lat="43.61724957226072" lon="11.860522961759441"><ele>295.0</ele><time>2026-04-26T08:13:21.999Z</time></trkpt><trkpt lat="43.61738980642247" lon="11.86022487952853"><ele>291.5</ele><time>2026-04-26T08:13:22.999Z</time></trkpt><trkpt lat="43.617529356610994" lon="11.859927239864643"><ele>288.0</ele><time>2026-04-26T08:13:23.999Z</time></trkpt><trkpt lat="43.617672112719504" lon="11.85963041665914"><ele>288.0</ele><time>2026-04-26T08:13:24.999Z</time></trkpt><trkpt lat="43.61781614240976" lon="11.85933534737905"><ele>288.0</ele><time>2026-04-26T08:13:25.999Z</time></trkpt><trkpt lat="43.617960173989644" lon="11.859043292255114"><ele>291.0</ele><time>2026-04-26T08:13:26.999Z</time></trkpt><trkpt lat="43.61810927605477" lon="11.858753909473393"><ele>294.0</ele><time>2026-04-26T08:13:27.999Z</time></trkpt><trkpt lat="43.61825472881709" lon="11.85846476256918"><ele>290.0</ele><time>2026-04-26T08:13:28.999Z</time></trkpt><trkpt lat="43.61840074034115" lon="11.85817496745202"><ele>286.0</ele><time>2026-04-26T08:13:29.999Z</time></trkpt><trkpt lat="43.618544328776174" lon="11.857885721981397"><ele>288.0</ele><time>2026-04-26T08:13:30.999Z</time></trkpt><trkpt lat="43.61869051960904" lon="11.85759708101024"><ele>290.0</ele><time>2026-04-26T08:13:31.999Z</time></trkpt><trkpt lat="43.61883212711215" lon="11.857311558171734"><ele>290.0</ele><time>2026-04-26T08:13:32.999Z</time></trkpt><trkpt lat="43.61897676157459" lon="11.85702275800985"><ele>290.0</ele><time>2026-04-26T08:13:33.999Z</time></trkpt><trkpt lat="43.619120065704394" lon="11.856737401183347"><ele>288.5</ele><time>2026-04-26T08:13:34.999Z</time></trkpt><trkpt lat="43.619264660009634" lon="11.85645339051572"><ele>287.0</ele><time>2026-04-26T08:13:35.999Z</time></trkpt><trkpt lat="43.61940616349629" lon="11.856169234044792"><ele>289.5</ele><time>2026-04-26T08:13:36.999Z</time></trkpt><trkpt lat="43.619547273910094" lon="11.855886397663912"><ele>292.0</ele><time>2026-04-26T08:13:37.999Z</time></trkpt><trkpt lat="43.61968938078053" lon="11.855602642020845"><ele>292.0</ele><time>2026-04-26T08:13:38.999Z</time></trkpt><trkpt lat="43.61983105552036" lon="11.855319844122196"><ele>292.0</ele><time>2026-04-26T08:13:39.999Z</time></trkpt><trkpt lat="43.61997330122049" lon="11.855036721426572"><ele>289.5</ele><time>2026-04-26T08:13:40.999Z</time></trkpt><trkpt lat="43.62011528228633" lon="11.854752445723015"><ele>287.0</ele><time>2026-04-26T08:13:41.999Z</time></trkpt><trkpt lat="43.62025862287374" lon="11.85447026448053"><ele>288.0</ele><time>2026-04-26T08:13:42.999Z</time></trkpt><trkpt lat="43.620400219672995" lon="11.854188548972106"><ele>289.0</ele><time>2026-04-26T08:13:43.999Z</time></trkpt><trkpt lat="43.620541693582865" lon="11.853905053263604"><ele>289.0</ele><time>2026-04-26T08:13:44.999Z</time></trkpt><trkpt lat="43.62068253669273" lon="11.85362379265449"><ele>289.0</ele><time>2026-04-26T08:13:45.999Z</time></trkpt><trkpt lat="43.62082844720913" lon="11.85335170404135"><ele>288.0</ele><time>2026-04-26T08:13:46.999Z</time></trkpt><trkpt lat="43.62098316095626" lon="11.853087138763359"><ele>287.0</ele><time>2026-04-26T08:13:47.999Z</time></trkpt><trkpt lat="43.62114884059198" lon="11.852842084400677"><ele>288.5</ele><time>2026-04-26T08:13:48.999Z</time></trkpt><trkpt lat="43.621324901338895" lon="11.85260760127797"><ele>290.0</ele><time>2026-04-26T08:13:49.999Z</time></trkpt><trkpt lat="43.621509012745875" lon="11.85238252775176"><ele>290.0</ele><time>2026-04-26T08:13:51Z</time></trkpt><trkpt lat="43.621704298462305" lon="11.852182597272721"><ele>290.0</ele><time>2026-04-26T08:13:52Z</time></trkpt><trkpt lat="43.621909913707384" lon="11.852005692903061"><ele>291.5</ele><time>2026-04-26T08:13:53Z</time></trkpt><trkpt lat="43.622125954951976" lon="11.85184768586213"><ele>293.0</ele><time>2026-04-26T08:13:54Z</time></trkpt><trkpt lat="43.622348795235105" lon="11.851713199086792"><ele>293.0</ele><time>2026-04-26T08:13:55Z</time></trkpt><trkpt lat="43.62257939442948" lon="11.851598383741479"><ele>293.0</ele><time>2026-04-26T08:13:56Z</time></trkpt><trkpt lat="43.622813276934345" lon="11.851503196937763"><ele>295.0</ele><time>2026-04-26T08:13:57Z</time></trkpt><trkpt lat="43.623051108280684" lon="11.851425961543265"><ele>297.0</ele><time>2026-04-26T08:13:58Z</time></trkpt><trkpt lat="43.62329190482345" lon="11.851372946809796"><ele>297.0</ele><time>2026-04-26T08:13:58.999Z</time></trkpt><trkpt lat="43.6235351220621" lon="11.8513436460153"><ele>297.0</ele><time>2026-04-26T08:13:59.999Z</time></trkpt><trkpt lat="43.62378056027475" lon="11.851341814571649"><ele>298.5</ele><time>2026-04-26T08:14:01Z</time></trkpt><trkpt lat="43.62402502096643" lon="11.851358526469973"><ele>300.0</ele><time>2026-04-26T08:14:02Z</time></trkpt><trkpt lat="43.62426960207349" lon="11.851399669400255"><ele>298.5</ele><time>2026-04-26T08:14:03Z</time></trkpt><trkpt lat="43.62451209355038" lon="11.851465038353641"><ele>297.0</ele><time>2026-04-26T08:14:04Z</time></trkpt><trkpt lat="43.6247506165136" lon="11.85154547540905"><ele>297.0</ele><time>2026-04-26T08:14:05Z</time></trkpt><trkpt lat="43.624985618853835" lon="11.851646006176617"><ele>297.0</ele><time>2026-04-26T08:14:06Z</time></trkpt><trkpt lat="43.62522187019542" lon="11.851752075566441"><ele>304.5</ele><time>2026-04-26T08:14:06.999Z</time></trkpt><trkpt lat="43.62545933875263" lon="11.85185486505426"><ele>312.0</ele><time>2026-04-26T08:14:07.999Z</time></trkpt><trkpt lat="43.625696745065945" lon="11.851961746252988"><ele>312.0</ele><time>2026-04-26T08:14:08.999Z</time></trkpt><trkpt lat="43.62592903513258" lon="11.85206971781911"><ele>312.0</ele><time>2026-04-26T08:14:09.999Z</time></trkpt><trkpt lat="43.62616007931691" lon="11.8521777970226"><ele>305.5</ele><time>2026-04-26T08:14:10.999Z</time></trkpt><trkpt lat="43.62638595238896" lon="11.852294190679423"><ele>299.0</ele><time>2026-04-26T08:14:11.999Z</time></trkpt><trkpt lat="43.626601317460604" lon="11.85242775878406"><ele>299.0</ele><time>2026-04-26T08:14:12.999Z</time></trkpt><trkpt lat="43.62680816649151" lon="11.852585625117843"><ele>299.0</ele><time>2026-04-26T08:14:13.999Z</time></trkpt><trkpt lat="43.627005333861455" lon="11.852766732793663"><ele>298.0</ele><time>2026-04-26T08:14:14.999Z</time></trkpt><trkpt lat="43.62719260245899" lon="11.852969517943333"><ele>297.0</ele><time>2026-04-26T08:14:15.999Z</time></trkpt><trkpt lat="43.62737051021015" lon="11.853188554120353"><ele>297.0</ele><time>2026-04-26T08:14:16.999Z</time></trkpt><trkpt lat="43.627545416598146" lon="11.85341897048491"><ele>297.0</ele><time>2026-04-26T08:14:17.999Z</time></trkpt><trkpt lat="43.62771587203026" lon="11.853655588122589"><ele>296.0</ele><time>2026-04-26T08:14:18.999Z</time></trkpt><trkpt lat="43.62787838559925" lon="11.85390115022972"><ele>295.0</ele><time>2026-04-26T08:14:19.999Z</time></trkpt><trkpt lat="43.62804294168316" lon="11.854138033350395"><ele>299.0</ele><time>2026-04-26T08:14:20.999Z</time></trkpt><trkpt lat="43.628203480436525" lon="11.854373575326578"><ele>303.0</ele><time>2026-04-26T08:14:21.999Z</time></trkpt><trkpt lat="43.628356682977966" lon="11.854588592693023"><ele>303.0</ele><time>2026-04-26T08:14:22.999Z</time></trkpt><trkpt lat="43.62850328824859" lon="11.854787563648703"><ele>303.0</ele><time>2026-04-26T08:14:23.999Z</time></trkpt><trkpt lat="43.628659291085015" lon="11.854947530214798"><ele>303.0</ele><time>2026-04-26T08:14:24.999Z</time></trkpt><trkpt lat="43.62883552571366" lon="11.855068679294117"><ele>308.0</ele><time>2026-04-26T08:14:25.999Z</time></trkpt><trkpt lat="43.62902648848167" lon="11.855153214203545"><ele>313.0</ele><time>2026-04-26T08:14:26.999Z</time></trkpt><trkpt lat="43.6292251691966" lon="11.855217740000986"><ele>318.0</ele><time>2026-04-26T08:14:27.999Z</time></trkpt><trkpt lat="43.62942825417091" lon="11.855280599468243"><ele>313.6666666666667</ele><time>2026-04-26T08:14:28.999Z</time></trkpt><trkpt lat="43.6296350566984" lon="11.85534510050545"><ele>309.33333333333337</ele><time>2026-04-26T08:14:29.999Z</time></trkpt><trkpt lat="43.62984411792596" lon="11.855403143239172"><ele>305.0</ele><time>2026-04-26T08:14:30.999Z</time></trkpt><trkpt lat="43.63006209998994" lon="11.855417652948717"><ele>305.0</ele><time>2026-04-26T08:14:31.999Z</time></trkpt><trkpt lat="43.630277405285675" lon="11.855401640658837"><ele>305.0</ele><time>2026-04-26T08:14:32.999Z</time></trkpt><trkpt lat="43.630495812905245" lon="11.855360852988703"><ele>305.0</ele><time>2026-04-26T08:14:33.999Z</time></trkpt><trkpt lat="43.63071082629369" lon="11.85530304977175"><ele>302.6666666666667</ele><time>2026-04-26T08:14:34.999Z</time></trkpt><trkpt lat="43.630930405804015" lon="11.855239858763861"><ele>300.3333333333333</ele><time>2026-04-26T08:14:35.999Z</time></trkpt><trkpt lat="43.63114903853423" lon="11.855177456105357"><ele>298.0</ele><time>2026-04-26T08:14:36.999Z</time></trkpt><trkpt lat="43.63136941632274" lon="11.85511129712639"><ele>298.0</ele><time>2026-04-26T08:14:37.999Z</time></trkpt><trkpt lat="43.631585170913766" lon="11.855030601660138"><ele>298.0</ele><time>2026-04-26T08:14:38.999Z</time></trkpt><trkpt lat="43.631792863983584" lon="11.854929714083179"><ele>298.0</ele><time>2026-04-26T08:14:39.999Z</time></trkpt><trkpt lat="43.63199622080892" lon="11.854807048786302"><ele>300.66666666666663</ele><time>2026-04-26T08:14:40.999Z</time></trkpt><trkpt lat="43.6321929516195" lon="11.854661712762683"><ele>303.3333333333333</ele><time>2026-04-26T08:14:41.999Z</time></trkpt><trkpt lat="43.632392021427385" lon="11.854519676416468"><ele>306.0</ele><time>2026-04-26T08:14:42.999Z</time></trkpt><trkpt lat="43.63256732083048" lon="11.854315995482512"><ele>303.5</ele><time>2026-04-26T08:14:43.999Z</time></trkpt><trkpt lat="43.6327460865977" lon="11.854112427950783"><ele>301.0</ele><time>2026-04-26T08:14:44.999Z</time></trkpt><trkpt lat="43.63291671062703" lon="11.85388738764715"><ele>302.5</ele><time>2026-04-26T08:14:45.999Z</time></trkpt><trkpt lat="43.6330714880666" lon="11.853638059448306"><ele>304.0</ele><time>2026-04-26T08:14:46.999Z</time></trkpt><trkpt lat="43.63321549282293" lon="11.853388661377732"><ele>304.0</ele><time>2026-04-26T08:14:47.999Z</time></trkpt><trkpt lat="43.633354827907176" lon="11.853149784712567"><ele>304.0</ele><time>2026-04-26T08:14:48.999Z</time></trkpt><trkpt lat="43.63345226226439" lon="11.852837410395042"><ele>301.5</ele><time>2026-04-26T08:14:49.999Z</time></trkpt><trkpt lat="43.63355878966634" lon="11.852536882178265"><ele>299.0</ele><time>2026-04-26T08:14:50.999Z</time></trkpt><trkpt lat="43.6336230182642" lon="11.852254153742761"><ele>305.0</ele><time>2026-04-26T08:14:51.999Z</time></trkpt><trkpt lat="43.63368246464536" lon="11.851950885278118"><ele>311.0</ele><time>2026-04-26T08:14:52.999Z</time></trkpt><trkpt lat="43.63372455208555" lon="11.851642983553496"><ele>311.0</ele><time>2026-04-26T08:14:53.999Z</time></trkpt><trkpt lat="43.63375147327406" lon="11.85132768244005"><ele>311.0</ele><time>2026-04-26T08:14:54.999Z</time></trkpt><trkpt lat="43.63375982444035" lon="11.851003515247225"><ele>311.0</ele><time>2026-04-26T08:14:55.999Z</time></trkpt><trkpt lat="43.63375426764501" lon="11.850683012684867"><ele>311.0</ele><time>2026-04-26T08:14:56.999Z</time></trkpt><trkpt lat="43.63373043756203" lon="11.85034967290086"><ele>311.5</ele><time>2026-04-26T08:14:57.999Z</time></trkpt><trkpt lat="43.63368941337619" lon="11.850025614233411"><ele>312.0</ele><time>2026-04-26T08:14:58.999Z</time></trkpt><trkpt lat="43.63364269301288" lon="11.84970558267771"><ele>304.0</ele><time>2026-04-26T08:14:59.999Z</time></trkpt><trkpt lat="43.633599724586986" lon="11.849374296644115"><ele>296.0</ele><time>2026-04-26T08:15:00.999Z</time></trkpt><trkpt lat="43.6335494156523" lon="11.8490801503458"><ele>296.0</ele><time>2026-04-26T08:15:01.999Z</time></trkpt><trkpt lat="43.63349569188785" lon="11.848760685099904"><ele>296.0</ele><time>2026-04-26T08:15:02.999Z</time></trkpt><trkpt lat="43.63344240085161" lon="11.848438983307414"><ele>297.5</ele><time>2026-04-26T08:15:03.999Z</time></trkpt><trkpt lat="43.63339013659207" lon="11.848114054180671"><ele>299.0</ele><time>2026-04-26T08:15:04.999Z</time></trkpt><trkpt lat="43.6333398489432" lon="11.847777486222798"><ele>300.0</ele><time>2026-04-26T08:15:05.999Z</time></trkpt><trkpt lat="43.63329098262349" lon="11.847458027690221"><ele>301.0</ele><time>2026-04-26T08:15:06.999Z</time></trkpt><trkpt lat="43.6332398392901" lon="11.847133355181551"><ele>301.0</ele><time>2026-04-26T08:15:07.999Z</time></trkpt><trkpt lat="43.63318336905933" lon="11.846883109360483"><ele>301.0</ele><time>2026-04-26T08:15:08.999Z</time></trkpt><trkpt lat="43.63315779604725" lon="11.846545717341684"><ele>301.0</ele><time>2026-04-26T08:15:09.999Z</time></trkpt><trkpt lat="43.633106322342655" lon="11.846232436101086"><ele>302.0</ele><time>2026-04-26T08:15:10.999Z</time></trkpt><trkpt lat="43.633057313299595" lon="11.84591500424434"><ele>303.0</ele><time>2026-04-26T08:15:11.999Z</time></trkpt><trkpt lat="43.63300533275076" lon="11.845607497362105"><ele>303.0</ele><time>2026-04-26T08:15:12.999Z</time></trkpt><trkpt lat="43.63296864440122" lon="11.845292108193698"><ele>303.0</ele><time>2026-04-26T08:15:13.999Z</time></trkpt><trkpt lat="43.632951060718256" lon="11.844979551122742"><ele>302.5</ele><time>2026-04-26T08:15:14.999Z</time></trkpt><trkpt lat="43.63295722097553" lon="11.844669713509843"><ele>302.0</ele><time>2026-04-26T08:15:15.999Z</time></trkpt><trkpt lat="43.63300011582659" lon="11.844361769254522"><ele>300.6666666666667</ele><time>2026-04-26T08:15:16.999Z</time></trkpt><trkpt lat="43.63307944627618" lon="11.84407341444758"><ele>299.3333333333333</ele><time>2026-04-26T08:15:17.999Z</time></trkpt><trkpt lat="43.633190399509616" lon="11.843801775155491"><ele>298.0</ele><time>2026-04-26T08:15:18.999Z</time></trkpt><trkpt lat="43.633303946472736" lon="11.843525931367067"><ele>298.0</ele><time>2026-04-26T08:15:19.999Z</time></trkpt><trkpt lat="43.6334112214412" lon="11.84325222496168"><ele>298.0</ele><time>2026-04-26T08:15:20.999Z</time></trkpt><trkpt lat="43.63351358891388" lon="11.842974295920197"><ele>298.0</ele><time>2026-04-26T08:15:21.999Z</time></trkpt><trkpt lat="43.63361575171728" lon="11.84269863549729"><ele>298.0</ele><time>2026-04-26T08:15:22.999Z</time></trkpt><trkpt lat="43.63371995589125" lon="11.842421922214278"><ele>308.0</ele><time>2026-04-26T08:15:23.999Z</time></trkpt><trkpt lat="43.63381903791876" lon="11.842140700240588"><ele>318.0</ele><time>2026-04-26T08:15:24.999Z</time></trkpt><trkpt lat="43.633918302544565" lon="11.841858611603008"><ele>313.0</ele><time>2026-04-26T08:15:25.999Z</time></trkpt><trkpt lat="43.63402813212566" lon="11.841584932474552"><ele>308.0</ele><time>2026-04-26T08:15:26.999Z</time></trkpt><trkpt lat="43.634162389160466" lon="11.841330982846284"><ele>308.0</ele><time>2026-04-26T08:15:27.999Z</time></trkpt><trkpt lat="43.634320410876875" lon="11.841105335695037"><ele>308.0</ele><time>2026-04-26T08:15:28.999Z</time></trkpt><trkpt lat="43.63448890949041" lon="11.840888930657526"><ele>311.0</ele><time>2026-04-26T08:15:29.999Z</time></trkpt><trkpt lat="43.63465247839228" lon="11.840666318353474"><ele>314.0</ele><time>2026-04-26T08:15:30.999Z</time></trkpt><trkpt lat="43.6348147334306" lon="11.840438972480495"><ele>314.0</ele><time>2026-04-26T08:15:31.999Z</time></trkpt><trkpt lat="43.634982522365625" lon="11.84022015076763"><ele>314.0</ele><time>2026-04-26T08:15:32.999Z</time></trkpt><trkpt lat="43.63516256459837" lon="11.84001687195668"><ele>314.0</ele><time>2026-04-26T08:15:33.999Z</time></trkpt><trkpt lat="43.635351610352664" lon="11.839837160336591"><ele>314.0</ele><time>2026-04-26T08:15:34.999Z</time></trkpt><trkpt lat="43.63554786195195" lon="11.839680643192072"><ele>314.0</ele><time>2026-04-26T08:15:35.999Z</time></trkpt><trkpt lat="43.63575151287345" lon="11.839544391303601"><ele>314.0</ele><time>2026-04-26T08:15:36.999Z</time></trkpt><trkpt lat="43.635958964994096" lon="11.839432277042192"><ele>314.0</ele><time>2026-04-26T08:15:37.999Z</time></trkpt><trkpt lat="43.6361735345233" lon="11.839342570630645"><ele>310.33333333333337</ele><time>2026-04-26T08:15:38.999Z</time></trkpt><trkpt lat="43.636390816226" lon="11.839269895038763"><ele>306.6666666666667</ele><time>2026-04-26T08:15:39.999Z</time></trkpt><trkpt lat="43.636600641349794" lon="11.839212625984672"><ele>303.0</ele><time>2026-04-26T08:15:40.999Z</time></trkpt><trkpt lat="43.636794837471406" lon="11.839156357236684"><ele>304.0</ele><time>2026-04-26T08:15:41.999Z</time></trkpt><trkpt lat="43.636978073198414" lon="11.839088497884962"><ele>305.0</ele><time>2026-04-26T08:15:42.999Z</time></trkpt><trkpt lat="43.637156530534995" lon="11.83900396239413"><ele>306.0</ele><time>2026-04-26T08:15:43.999Z</time></trkpt><trkpt lat="43.63733049459024" lon="11.838902890345517"><ele>306.0</ele><time>2026-04-26T08:15:44.999Z</time></trkpt><trkpt lat="43.637505413221376" lon="11.838798904557112"><ele>306.0</ele><time>2026-04-26T08:15:45.999Z</time></trkpt><trkpt lat="43.6376815247229" lon="11.8387038411196"><ele>306.0</ele><time>2026-04-26T08:15:46.999Z</time></trkpt><trkpt lat="43.63785884449856" lon="11.838618130139071"><ele>306.3333333333333</ele><time>2026-04-26T08:15:47.999Z</time></trkpt><trkpt lat="43.63803461770192" lon="11.838534104133897"><ele>306.66666666666663</ele><time>2026-04-26T08:15:48.999Z</time></trkpt><trkpt lat="43.63820910084286" lon="11.838455519570694"><ele>307.0</ele><time>2026-04-26T08:15:49.999Z</time></trkpt><trkpt lat="43.6383850297041" lon="11.838371548594836"><ele>304.66666666666663</ele><time>2026-04-26T08:15:50.999Z</time></trkpt><trkpt lat="43.638559557694606" lon="11.838291875346899"><ele>302.3333333333333</ele><time>2026-04-26T08:15:51.999Z</time></trkpt><trkpt lat="43.63873101816524" lon="11.838215839074731"><ele>300.0</ele><time>2026-04-26T08:15:52.999Z</time></trkpt><trkpt lat="43.638899797815924" lon="11.838137150742499"><ele>300.0</ele><time>2026-04-26T08:15:53.999Z</time></trkpt><trkpt lat="43.63906533987788" lon="11.838062592563753"><ele>300.0</ele><time>2026-04-26T08:15:54.999Z</time></trkpt><trkpt lat="43.639227549842595" lon="11.837988036699782"><ele>300.0</ele><time>2026-04-26T08:15:55.998Z</time></trkpt><trkpt lat="43.63938858387391" lon="11.837913023837888"><ele>300.6666666666667</ele><time>2026-04-26T08:15:57Z</time></trkpt><trkpt lat="43.639547273708295" lon="11.83784276016307"><ele>301.33333333333337</ele><time>2026-04-26T08:15:58Z</time></trkpt><trkpt lat="43.63970657685581" lon="11.837774299890363"><ele>302.0</ele><time>2026-04-26T08:15:59Z</time></trkpt><trkpt lat="43.63986515873425" lon="11.83770436794508"><ele>302.0</ele><time>2026-04-26T08:16:00Z</time></trkpt><trkpt lat="43.640021756116475" lon="11.837632321921284"><ele>302.0</ele><time>2026-04-26T08:16:01Z</time></trkpt><trkpt lat="43.640176992150735" lon="11.837562265256361"><ele>302.0</ele><time>2026-04-26T08:16:02Z</time></trkpt><trkpt lat="43.64033276946654" lon="11.837493747335271"><ele>302.0</ele><time>2026-04-26T08:16:03Z</time></trkpt><trkpt lat="43.64048422381651" lon="11.837421578190993"><ele>302.0</ele><time>2026-04-26T08:16:04Z</time></trkpt><trkpt lat="43.640636794924255" lon="11.837347768428014"><ele>302.0</ele><time>2026-04-26T08:16:05Z</time></trkpt><trkpt lat="43.640779053172494" lon="11.837278975812422"><ele>302.0</ele><time>2026-04-26T08:16:06Z</time></trkpt><trkpt lat="43.640918186380375" lon="11.837217777496187"><ele>302.0</ele><time>2026-04-26T08:16:07Z</time></trkpt><trkpt lat="43.641054249184165" lon="11.837152457933346"><ele>302.0</ele><time>2026-04-26T08:16:08Z</time></trkpt><trkpt lat="43.641183625367226" lon="11.837073205571993"><ele>302.0</ele><time>2026-04-26T08:16:09Z</time></trkpt><trkpt lat="43.641309563196785" lon="11.836986162996267"><ele>302.0</ele><time>2026-04-26T08:16:10Z</time></trkpt><trkpt lat="43.64144522153108" lon="11.836924302764192"><ele>302.0</ele><time>2026-04-26T08:16:11Z</time></trkpt><trkpt lat="43.641571917293795" lon="11.836833075096548"><ele>302.0</ele><time>2026-04-26T08:16:12Z</time></trkpt><trkpt lat="43.641697326975645" lon="11.836741234975545"><ele>302.0</ele><time>2026-04-26T08:16:13Z</time></trkpt><trkpt lat="43.64182425178306" lon="11.836648148714449"><ele>302.0</ele><time>2026-04-26T08:16:14Z</time></trkpt><trkpt lat="43.64195056916941" lon="11.836556383599259"><ele>302.0</ele><time>2026-04-26T08:16:15Z</time></trkpt><trkpt lat="43.64207752856913" lon="11.83646415209937"><ele>302.0</ele><time>2026-04-26T08:16:16Z</time></trkpt><trkpt lat="43.64220477987238" lon="11.836370857570481"><ele>302.0</ele><time>2026-04-26T08:16:17Z</time></trkpt><trkpt lat="43.642330019782" lon="11.836278127633015"><ele>302.5</ele><time>2026-04-26T08:16:18Z</time></trkpt><trkpt lat="43.642455332845365" lon="11.836185869845174"><ele>303.0</ele><time>2026-04-26T08:16:19Z</time></trkpt><trkpt lat="43.64258026730901" lon="11.83609385802836"><ele>303.5</ele><time>2026-04-26T08:16:20Z</time></trkpt><trkpt lat="43.64270528568384" lon="11.836009391652167"><ele>304.0</ele><time>2026-04-26T08:16:21Z</time></trkpt><trkpt lat="43.64283102772042" lon="11.83592937103476"><ele>304.0</ele><time>2026-04-26T08:16:22Z</time></trkpt><trkpt lat="43.64295996038129" lon="11.83585364932113"><ele>304.0</ele><time>2026-04-26T08:16:23Z</time></trkpt><trkpt lat="43.643088446374875" lon="11.8357806108027"><ele>304.0</ele><time>2026-04-26T08:16:24Z</time></trkpt><trkpt lat="43.64321777634897" lon="11.835707383148833"><ele>304.0</ele><time>2026-04-26T08:16:25Z</time></trkpt><trkpt lat="43.64334694637001" lon="11.835633616849064"><ele>304.0</ele><time>2026-04-26T08:16:26Z</time></trkpt><trkpt lat="43.64347631107773" lon="11.835557869895428"><ele>304.0</ele><time>2026-04-26T08:16:27Z</time></trkpt><trkpt lat="43.643604364926006" lon="11.835483749628837"><ele>304.0</ele><time>2026-04-26T08:16:28Z</time></trkpt><trkpt lat="43.643735453401064" lon="11.835413588232594"><ele>304.0</ele><time>2026-04-26T08:16:29Z</time></trkpt><trkpt lat="43.64386687451906" lon="11.835343714463232"><ele>305.0</ele><time>2026-04-26T08:16:30Z</time></trkpt><trkpt lat="43.643996570189834" lon="11.83526585928539"><ele>306.0</ele><time>2026-04-26T08:16:31Z</time></trkpt><trkpt lat="43.64413655606768" lon="11.835227900715488"><ele>307.0</ele><time>2026-04-26T08:16:32Z</time></trkpt><trkpt lat="43.64427948557156" lon="11.835196619616337"><ele>308.0</ele><time>2026-04-26T08:16:33Z</time></trkpt><trkpt lat="43.64442292381653" lon="11.835175924105172"><ele>308.25</ele><time>2026-04-26T08:16:34Z</time></trkpt><trkpt lat="43.644568930582125" lon="11.835181119945076"><ele>308.5</ele><time>2026-04-26T08:16:35Z</time></trkpt><trkpt lat="43.64471578777989" lon="11.835167407494382"><ele>308.75</ele><time>2026-04-26T08:16:36Z</time></trkpt><trkpt lat="43.64486067554879" lon="11.835153878933124"><ele>309.0</ele><time>2026-04-26T08:16:37Z</time></trkpt><trkpt lat="43.64501256705451" lon="11.835141046442285"><ele>307.3333333333333</ele><time>2026-04-26T08:16:38Z</time></trkpt><trkpt lat="43.64516444874163" lon="11.835127716001347"><ele>305.66666666666663</ele><time>2026-04-26T08:16:39Z</time></trkpt><trkpt lat="43.64531688972957" lon="11.835089153334932"><ele>304.0</ele><time>2026-04-26T08:16:40Z</time></trkpt><trkpt lat="43.645472442349366" lon="11.835076999710607"><ele>304.0</ele><time>2026-04-26T08:16:41Z</time></trkpt><trkpt lat="43.64563303167006" lon="11.83506310077025"><ele>304.0</ele><time>2026-04-26T08:16:42Z</time></trkpt><trkpt lat="43.645788832314494" lon="11.835051699095974"><ele>304.0</ele><time>2026-04-26T08:16:43Z</time></trkpt><trkpt lat="43.64594867822701" lon="11.835039024216037"><ele>304.0</ele><time>2026-04-26T08:16:44Z</time></trkpt><trkpt lat="43.64610861100544" lon="11.835047052756643"><ele>304.0</ele><time>2026-04-26T08:16:45Z</time></trkpt><trkpt lat="43.64626828637761" lon="11.83503291640582"><ele>304.0</ele><time>2026-04-26T08:16:46Z</time></trkpt><trkpt lat="43.64642550725087" lon="11.834999107103034"><ele>302.66666666666663</ele><time>2026-04-26T08:16:47Z</time></trkpt><trkpt lat="43.64658270392703" lon="11.834986999888207"><ele>301.3333333333333</ele><time>2026-04-26T08:16:48Z</time></trkpt><trkpt lat="43.64673997194068" lon="11.834969170198411"><ele>300.0</ele><time>2026-04-26T08:16:49Z</time></trkpt><trkpt lat="43.646897951135536" lon="11.834955452209048"><ele>300.6666666666667</ele><time>2026-04-26T08:16:49.999Z</time></trkpt><trkpt lat="43.647053770841204" lon="11.834939567415416"><ele>301.33333333333337</ele><time>2026-04-26T08:16:50.999Z</time></trkpt><trkpt lat="43.64721001353803" lon="11.834924253927326"><ele>302.0</ele><time>2026-04-26T08:16:51.999Z</time></trkpt><trkpt lat="43.64736628539882" lon="11.834910970533262"><ele>302.0</ele><time>2026-04-26T08:16:52.999Z</time></trkpt><trkpt lat="43.64752447450534" lon="11.83489828909545"><ele>302.0</ele><time>2026-04-26T08:16:53.999Z</time></trkpt><trkpt lat="43.64768193923607" lon="11.834885026448783"><ele>302.0</ele><time>2026-04-26T08:16:54.999Z</time></trkpt><trkpt lat="43.64784176098161" lon="11.834867619878768"><ele>302.6666666666667</ele><time>2026-04-26T08:16:55.999Z</time></trkpt><trkpt lat="43.647999119213225" lon="11.834849214571694"><ele>303.3333333333333</ele><time>2026-04-26T08:16:56.999Z</time></trkpt><trkpt lat="43.64815703882027" lon="11.834833729672718"><ele>304.0</ele><time>2026-04-26T08:16:57.999Z</time></trkpt><trkpt lat="43.648317138544336" lon="11.83482051442301"><ele>304.0</ele><time>2026-04-26T08:16:58.999Z</time></trkpt><trkpt lat="43.64847747453137" lon="11.834802966621586"><ele>304.0</ele><time>2026-04-26T08:16:59.999Z</time></trkpt><trkpt lat="43.64863421896053" lon="11.83477969035351"><ele>304.0</ele><time>2026-04-26T08:17:00.999Z</time></trkpt><trkpt lat="43.64879060256517" lon="11.834758169608188"><ele>304.0</ele><time>2026-04-26T08:17:01.999Z</time></trkpt><trkpt lat="43.64894592728918" lon="11.834737550647846"><ele>304.0</ele><time>2026-04-26T08:17:02.999Z</time></trkpt><trkpt lat="43.64909509173787" lon="11.834721619787244"><ele>304.0</ele><time>2026-04-26T08:17:03.999Z</time></trkpt><trkpt lat="43.64924101258553" lon="11.83470754621485"><ele>304.0</ele><time>2026-04-26T08:17:04.999Z</time></trkpt><trkpt lat="43.64938763471672" lon="11.834695324775828"><ele>304.0</ele><time>2026-04-26T08:17:05.999Z</time></trkpt><trkpt lat="43.649533773026846" lon="11.834686027613834"><ele>304.0</ele><time>2026-04-26T08:17:06.999Z</time></trkpt><trkpt lat="43.649680248572004" lon="11.834678129074533"><ele>304.0</ele><time>2026-04-26T08:17:07.999Z</time></trkpt><trkpt lat="43.64982622060308" lon="11.834678649463324"><ele>304.0</ele><time>2026-04-26T08:17:08.999Z</time></trkpt><trkpt lat="43.649971486111106" lon="11.834692596976046"><ele>304.0</ele><time>2026-04-26T08:17:09.999Z</time></trkpt><trkpt lat="43.65011497435178" lon="11.834723304661491"><ele>304.0</ele><time>2026-04-26T08:17:10.999Z</time></trkpt><trkpt lat="43.650249083786875" lon="11.834767055213913"><ele>304.0</ele><time>2026-04-26T08:17:11.999Z</time></trkpt><trkpt lat="43.65037575692861" lon="11.834820821362309"><ele>303.75</ele><time>2026-04-26T08:17:12.999Z</time></trkpt><trkpt lat="43.650499267135736" lon="11.834876759447127"><ele>303.5</ele><time>2026-04-26T08:17:13.999Z</time></trkpt><trkpt lat="43.65062088035973" lon="11.83493453400227"><ele>303.25</ele><time>2026-04-26T08:17:14.999Z</time></trkpt><trkpt lat="43.650743039527214" lon="11.834992697353657"><ele>303.0</ele><time>2026-04-26T08:17:15.999Z</time></trkpt><trkpt lat="43.65086606046369" lon="11.835045986537043"><ele>303.0</ele><time>2026-04-26T08:17:16.999Z</time></trkpt><trkpt lat="43.6509841219636" lon="11.835100501575461"><ele>303.0</ele><time>2026-04-26T08:17:17.999Z</time></trkpt><trkpt lat="43.651100016381314" lon="11.835152825338408"><ele>303.0</ele><time>2026-04-26T08:17:18.999Z</time></trkpt><trkpt lat="43.65121015754894" lon="11.835207374608661"><ele>303.0</ele><time>2026-04-26T08:17:19.999Z</time></trkpt><trkpt lat="43.65131522518264" lon="11.835255681899708"><ele>303.6</ele><time>2026-04-26T08:17:20.999Z</time></trkpt><trkpt lat="43.65141143246205" lon="11.835299594508895"><ele>304.20000000000005</ele><time>2026-04-26T08:17:21.999Z</time></trkpt><trkpt lat="43.65150236249491" lon="11.835342770648394"><ele>304.8</ele><time>2026-04-26T08:17:22.999Z</time></trkpt><trkpt lat="43.65158987524558" lon="11.835382056897386"><ele>305.40000000000003</ele><time>2026-04-26T08:17:23.999Z</time></trkpt><trkpt lat="43.6516675197176" lon="11.835423757144442"><ele>306.0</ele><time>2026-04-26T08:17:24.999Z</time></trkpt><trkpt lat="43.65174286569238" lon="11.835470105361773"><ele>306.0</ele><time>2026-04-26T08:17:25.999Z</time></trkpt><trkpt lat="43.65181978356018" lon="11.835512709210278"><ele>306.0</ele><time>2026-04-26T08:17:26.999Z</time></trkpt><trkpt lat="43.65190927583808" lon="11.83554545879013"><ele>306.0</ele><time>2026-04-26T08:17:27.999Z</time></trkpt><trkpt lat="43.65200598729497" lon="11.835572509759457"><ele>306.0</ele><time>2026-04-26T08:17:28.999Z</time></trkpt><trkpt lat="43.65210633353954" lon="11.835610879863415"><ele>306.0</ele><time>2026-04-26T08:17:29.999Z</time></trkpt><trkpt lat="43.65220312781546" lon="11.835685645386244"><ele>306.5</ele><time>2026-04-26T08:17:30.999Z</time></trkpt><trkpt lat="43.65231357394423" lon="11.835742656569296"><ele>307.0</ele><time>2026-04-26T08:17:31.999Z</time></trkpt><trkpt lat="43.6524360051975" lon="11.835811226806388"><ele>307.5</ele><time>2026-04-26T08:17:32.999Z</time></trkpt><trkpt lat="43.65256045091952" lon="11.835890928977028"><ele>308.0</ele><time>2026-04-26T08:17:33.999Z</time></trkpt><trkpt lat="43.652681015874435" lon="11.835984102216914"><ele>307.25</ele><time>2026-04-26T08:17:34.999Z</time></trkpt><trkpt lat="43.65279687327748" lon="11.836083530298069"><ele>306.5</ele><time>2026-04-26T08:17:35.999Z</time></trkpt><trkpt lat="43.65291098341273" lon="11.836189349370315"><ele>305.75</ele><time>2026-04-26T08:17:36.999Z</time></trkpt><trkpt lat="43.65302725299319" lon="11.836300607578742"><ele>305.0</ele><time>2026-04-26T08:17:37.999Z</time></trkpt><trkpt lat="43.65314332643683" lon="11.83641167809756"><ele>305.0</ele><time>2026-04-26T08:17:38.999Z</time></trkpt><trkpt lat="43.65326196569366" lon="11.836525203853276"><ele>305.0</ele><time>2026-04-26T08:17:39.999Z</time></trkpt><trkpt lat="43.65339076654563" lon="11.836619954082614"><ele>305.0</ele><time>2026-04-26T08:17:40.999Z</time></trkpt><trkpt lat="43.653506030894846" lon="11.836728945191844"><ele>305.0</ele><time>2026-04-26T08:17:41.999Z</time></trkpt><trkpt lat="43.65361530915985" lon="11.836834279776697"><ele>305.0</ele><time>2026-04-26T08:17:42.999Z</time></trkpt><trkpt lat="43.653715187096395" lon="11.836930951056235"><ele>305.0</ele><time>2026-04-26T08:17:43.999Z</time></trkpt><trkpt lat="43.65381100349006" lon="11.837021558038488"><ele>305.0</ele><time>2026-04-26T08:17:44.999Z</time></trkpt><trkpt lat="43.65390067834574" lon="11.837108362083194"><ele>305.0</ele><time>2026-04-26T08:17:45.999Z</time></trkpt><trkpt lat="43.653987120543924" lon="11.837217929459667"><ele>305.0</ele><time>2026-04-26T08:17:46.999Z</time></trkpt><trkpt lat="43.654098720802224" lon="11.837322969117508"><ele>305.0</ele><time>2026-04-26T08:17:47.999Z</time></trkpt><trkpt lat="43.65422489506316" lon="11.83744309555376"><ele>305.0</ele><time>2026-04-26T08:17:48.999Z</time></trkpt><trkpt lat="43.65436282079641" lon="11.837575416302546"><ele>305.0</ele><time>2026-04-26T08:17:49.999Z</time></trkpt><trkpt lat="43.654496565615474" lon="11.837705535124625"><ele>305.0</ele><time>2026-04-26T08:17:50.999Z</time></trkpt><trkpt lat="43.6546295717966" lon="11.837826562513817"><ele>305.0</ele><time>2026-04-26T08:17:51.999Z</time></trkpt><trkpt lat="43.65477081387134" lon="11.837936556470297"><ele>305.0</ele><time>2026-04-26T08:17:52.999Z</time></trkpt><trkpt lat="43.654927529405114" lon="11.83804768707707"><ele>305.0</ele><time>2026-04-26T08:17:53.999Z</time></trkpt><trkpt lat="43.65509368080789" lon="11.838162477774318"><ele>305.0</ele><time>2026-04-26T08:17:54.999Z</time></trkpt><trkpt lat="43.655268547823205" lon="11.8382810330637"><ele>304.6666666666667</ele><time>2026-04-26T08:17:55.999Z</time></trkpt><trkpt lat="43.6554454487349" lon="11.838399135068542"><ele>304.3333333333333</ele><time>2026-04-26T08:17:56.999Z</time></trkpt><trkpt lat="43.65561977631938" lon="11.838515519076577"><ele>304.0</ele><time>2026-04-26T08:17:57.999Z</time></trkpt><trkpt lat="43.65578110968868" lon="11.838622922155961"><ele>306.0</ele><time>2026-04-26T08:17:58.999Z</time></trkpt><trkpt lat="43.65593354473485" lon="11.838723153984095"><ele>308.0</ele><time>2026-04-26T08:17:59.999Z</time></trkpt><trkpt lat="43.65608161966288" lon="11.838820518710829"><ele>310.0</ele><time>2026-04-26T08:18:00.999Z</time></trkpt><trkpt lat="43.6562284771372" lon="11.838894239715891"><ele>310.0</ele><time>2026-04-26T08:18:01.999Z</time></trkpt><trkpt lat="43.65636671935082" lon="11.838981490775769"><ele>310.0</ele><time>2026-04-26T08:18:03Z</time></trkpt><trkpt lat="43.656512078356585" lon="11.839058756660226"><ele>310.0</ele><time>2026-04-26T08:18:04Z</time></trkpt><trkpt lat="43.65666503210204" lon="11.839116281324237"><ele>310.0</ele><time>2026-04-26T08:18:05Z</time></trkpt><trkpt lat="43.65682363318368" lon="11.839156626971187"><ele>310.0</ele><time>2026-04-26T08:18:06Z</time></trkpt><trkpt lat="43.6569793241461" lon="11.83918308239591"><ele>310.0</ele><time>2026-04-26T08:18:07Z</time></trkpt><trkpt lat="43.65712730614157" lon="11.839211286435955"><ele>309.25</ele><time>2026-04-26T08:18:08Z</time></trkpt><trkpt lat="43.65726586879762" lon="11.839236049217968"><ele>308.5</ele><time>2026-04-26T08:18:09Z</time></trkpt><trkpt lat="43.65739963604753" lon="11.839288366376335"><ele>307.75</ele><time>2026-04-26T08:18:10Z</time></trkpt><trkpt lat="43.6575289819579" lon="11.839314551601655"><ele>307.0</ele><time>2026-04-26T08:18:11Z</time></trkpt><trkpt lat="43.65766866781958" lon="11.839321232237694"><ele>310.25</ele><time>2026-04-26T08:18:12Z</time></trkpt><trkpt lat="43.65781002167982" lon="11.839371944246825"><ele>313.5</ele><time>2026-04-26T08:18:13Z</time></trkpt><trkpt lat="43.65795577650225" lon="11.839400590464509"><ele>316.75</ele><time>2026-04-26T08:18:14Z</time></trkpt><trkpt lat="43.658106134163354" lon="11.839429289951543"><ele>320.0</ele><time>2026-04-26T08:18:15Z</time></trkpt><trkpt lat="43.65825867889806" lon="11.839447608216103"><ele>320.0</ele><time>2026-04-26T08:18:16Z</time></trkpt><trkpt lat="43.65840713289449" lon="11.83945533229705"><ele>320.0</ele><time>2026-04-26T08:18:17Z</time></trkpt><trkpt lat="43.65856476150446" lon="11.839454158409447"><ele>320.0</ele><time>2026-04-26T08:18:18Z</time></trkpt><trkpt lat="43.65873296060915" lon="11.839436659159226"><ele>320.6666666666667</ele><time>2026-04-26T08:18:19Z</time></trkpt><trkpt lat="43.65890127821341" lon="11.839413045305504"><ele>321.3333333333333</ele><time>2026-04-26T08:18:20Z</time></trkpt><trkpt lat="43.65907955799283" lon="11.839360385516365"><ele>322.0</ele><time>2026-04-26T08:18:21Z</time></trkpt><trkpt lat="43.659248171158325" lon="11.839357496943656"><ele>322.0</ele><time>2026-04-26T08:18:22Z</time></trkpt><trkpt lat="43.65941582550198" lon="11.839337784317449"><ele>322.0</ele><time>2026-04-26T08:18:23Z</time></trkpt><trkpt lat="43.659578666172074" lon="11.839337332275896"><ele>322.0</ele><time>2026-04-26T08:18:24Z</time></trkpt><trkpt lat="43.65974291547226" lon="11.83935466610745"><ele>321.66666666666663</ele><time>2026-04-26T08:18:25Z</time></trkpt><trkpt lat="43.65990849397122" lon="11.839381465279182"><ele>321.3333333333333</ele><time>2026-04-26T08:18:26Z</time></trkpt><trkpt lat="43.6600872444698" lon="11.83942770210382"><ele>321.0</ele><time>2026-04-26T08:18:27Z</time></trkpt><trkpt lat="43.6602725080286" lon="11.839495615893684"><ele>318.3333333333333</ele><time>2026-04-26T08:18:28Z</time></trkpt><trkpt lat="43.6604527667075" lon="11.839579311416127"><ele>315.66666666666663</ele><time>2026-04-26T08:18:29Z</time></trkpt><trkpt lat="43.660620303556605" lon="11.839675537595518"><ele>313.0</ele><time>2026-04-26T08:18:30Z</time></trkpt><trkpt lat="43.66077377424815" lon="11.839782777681789"><ele>313.0</ele><time>2026-04-26T08:18:31Z</time></trkpt><trkpt lat="43.66091900173675" lon="11.83989157583423"><ele>313.0</ele><time>2026-04-26T08:18:32Z</time></trkpt><trkpt lat="43.66106187380281" lon="11.83999924357001"><ele>313.0</ele><time>2026-04-26T08:18:33Z</time></trkpt><trkpt lat="43.66121577126955" lon="11.840111361008162"><ele>319.0</ele><time>2026-04-26T08:18:34Z</time></trkpt><trkpt lat="43.66137859327746" lon="11.840216526088575"><ele>325.0</ele><time>2026-04-26T08:18:35Z</time></trkpt><trkpt lat="43.66155160424133" lon="11.840286869171631"><ele>331.0</ele><time>2026-04-26T08:18:36Z</time></trkpt><trkpt lat="43.66171890636527" lon="11.840371807047045"><ele>331.0</ele><time>2026-04-26T08:18:37Z</time></trkpt><trkpt lat="43.66188561886584" lon="11.840436723385887"><ele>331.0</ele><time>2026-04-26T08:18:38Z</time></trkpt><trkpt lat="43.66206059975094" lon="11.84050501690542"><ele>331.0</ele><time>2026-04-26T08:18:39Z</time></trkpt><trkpt lat="43.66225094498887" lon="11.840543846323442"><ele>331.66666666666663</ele><time>2026-04-26T08:18:40Z</time></trkpt><trkpt lat="43.662449510607054" lon="11.840569677041906"><ele>332.3333333333333</ele><time>2026-04-26T08:18:41Z</time></trkpt><trkpt lat="43.66265304241439" lon="11.840591659523193"><ele>333.0</ele><time>2026-04-26T08:18:42Z</time></trkpt><trkpt lat="43.662869361137574" lon="11.84057499744385"><ele>333.0</ele><time>2026-04-26T08:18:43Z</time></trkpt><trkpt lat="43.66307114643331" lon="11.840598542319746"><ele>333.0</ele><time>2026-04-26T08:18:44Z</time></trkpt><trkpt lat="43.66327175331965" lon="11.840618452920529"><ele>333.0</ele><time>2026-04-26T08:18:45Z</time></trkpt><trkpt lat="43.66347358605722" lon="11.840636269055418"><ele>334.6666666666667</ele><time>2026-04-26T08:18:46Z</time></trkpt><trkpt lat="43.66367512590969" lon="11.840686885865573"><ele>336.33333333333337</ele><time>2026-04-26T08:18:47Z</time></trkpt><trkpt lat="43.66387839121074" lon="11.8407062436732"><ele>338.0</ele><time>2026-04-26T08:18:48Z</time></trkpt><trkpt lat="43.66408188200663" lon="11.840725622955837"><ele>338.0</ele><time>2026-04-26T08:18:49Z</time></trkpt><trkpt lat="43.66428300932181" lon="11.840744777152805"><ele>338.0</ele><time>2026-04-26T08:18:50Z</time></trkpt><trkpt lat="43.66448102430784" lon="11.840763634953879"><ele>338.0</ele><time>2026-04-26T08:18:51Z</time></trkpt><trkpt lat="43.6646760851719" lon="11.840780105940855"><ele>338.33333333333337</ele><time>2026-04-26T08:18:52Z</time></trkpt><trkpt lat="43.66486016164825" lon="11.84077482867979"><ele>338.6666666666667</ele><time>2026-04-26T08:18:53Z</time></trkpt><trkpt lat="43.665026639595226" lon="11.840710626496339"><ele>339.0</ele><time>2026-04-26T08:18:54Z</time></trkpt><trkpt lat="43.66518503210221" lon="11.840625479761114"><ele>342.6666666666667</ele><time>2026-04-26T08:18:55Z</time></trkpt><trkpt lat="43.6653417615475" lon="11.840513786221466"><ele>346.33333333333337</ele><time>2026-04-26T08:18:56Z</time></trkpt><trkpt lat="43.66551839229165" lon="11.840458401514535"><ele>350.0</ele><time>2026-04-26T08:18:57Z</time></trkpt><trkpt lat="43.66569764625266" lon="11.840457781134045"><ele>350.0</ele><time>2026-04-26T08:18:58Z</time></trkpt><trkpt lat="43.66588732224373" lon="11.840467616837952"><ele>350.0</ele><time>2026-04-26T08:18:59Z</time></trkpt><trkpt lat="43.66608346789544" lon="11.840481371358573"><ele>350.0</ele><time>2026-04-26T08:19:00Z</time></trkpt><trkpt lat="43.666283092045475" lon="11.84047585925921"><ele>351.33333333333337</ele><time>2026-04-26T08:19:01Z</time></trkpt><trkpt lat="43.666482933082925" lon="11.840488972384776"><ele>352.6666666666667</ele><time>2026-04-26T08:19:02Z</time></trkpt><trkpt lat="43.666675381091544" lon="11.84052599815886"><ele>354.0</ele><time>2026-04-26T08:19:03Z</time></trkpt><trkpt lat="43.66686356724806" lon="11.840522391980793"><ele>358.0</ele><time>2026-04-26T08:19:04Z</time></trkpt><trkpt lat="43.66704594978757" lon="11.840457652184297"><ele>362.0</ele><time>2026-04-26T08:19:05Z</time></trkpt><trkpt lat="43.66722621231004" lon="11.840379942928543"><ele>366.0</ele><time>2026-04-26T08:19:06Z</time></trkpt><trkpt lat="43.66739909967956" lon="11.840269232350197"><ele>361.3333333333333</ele><time>2026-04-26T08:19:07Z</time></trkpt><trkpt lat="43.66756420214837" lon="11.840122808963729"><ele>356.66666666666663</ele><time>2026-04-26T08:19:08Z</time></trkpt><trkpt lat="43.66773812360391" lon="11.839994068113697"><ele>352.0</ele><time>2026-04-26T08:19:09Z</time></trkpt><trkpt lat="43.66790792119915" lon="11.8398492264717"><ele>352.0</ele><time>2026-04-26T08:19:10Z</time></trkpt><trkpt lat="43.6680803295268" lon="11.839708583110168"><ele>352.0</ele><time>2026-04-26T08:19:11Z</time></trkpt><trkpt lat="43.6682497275191" lon="11.839572711331467"><ele>352.0</ele><time>2026-04-26T08:19:12Z</time></trkpt><trkpt lat="43.66842299650641" lon="11.839450602320671"><ele>352.0</ele><time>2026-04-26T08:19:13Z</time></trkpt><trkpt lat="43.66859675760887" lon="11.839341129467435"><ele>352.0</ele><time>2026-04-26T08:19:14Z</time></trkpt><trkpt lat="43.66876582089773" lon="11.839240276367223"><ele>352.0</ele><time>2026-04-26T08:19:15Z</time></trkpt><trkpt lat="43.668927556067324" lon="11.839146382458848"><ele>346.0</ele><time>2026-04-26T08:19:16Z</time></trkpt><trkpt lat="43.66908648779059" lon="11.839055027947776"><ele>340.0</ele><time>2026-04-26T08:19:17Z</time></trkpt><trkpt lat="43.66924271902402" lon="11.838965207284565"><ele>334.0</ele><time>2026-04-26T08:19:18Z</time></trkpt><trkpt lat="43.669395145790034" lon="11.838876570640704"><ele>338.0</ele><time>2026-04-26T08:19:19Z</time></trkpt><trkpt lat="43.66954557291752" lon="11.83878915859233"><ele>342.0</ele><time>2026-04-26T08:19:20Z</time></trkpt><trkpt lat="43.66969523411692" lon="11.838702193389352"><ele>346.0</ele><time>2026-04-26T08:19:21Z</time></trkpt><trkpt lat="43.66985185777725" lon="11.838611180633103"><ele>346.0</ele><time>2026-04-26T08:19:22Z</time></trkpt><trkpt lat="43.670011631677276" lon="11.838518881667458"><ele>346.0</ele><time>2026-04-26T08:19:23Z</time></trkpt><trkpt lat="43.670172788639846" lon="11.838426156595002"><ele>346.0</ele><time>2026-04-26T08:19:24Z</time></trkpt><trkpt lat="43.67033699155946" lon="11.838331678640506"><ele>343.66666666666663</ele><time>2026-04-26T08:19:25Z</time></trkpt><trkpt lat="43.670500790513756" lon="11.838236590855848"><ele>341.3333333333333</ele><time>2026-04-26T08:19:26Z</time></trkpt><trkpt lat="43.67066508416977" lon="11.83814034840058"><ele>339.0</ele><time>2026-04-26T08:19:26.999Z</time></trkpt><trkpt lat="43.670827640629824" lon="11.838044669564686"><ele>339.0</ele><time>2026-04-26T08:19:27.999Z</time></trkpt><trkpt lat="43.670985174793316" lon="11.837951586858907"><ele>339.0</ele><time>2026-04-26T08:19:28.999Z</time></trkpt><trkpt lat="43.67113236027164" lon="11.837852838119872"><ele>339.0</ele><time>2026-04-26T08:19:29.999Z</time></trkpt><trkpt lat="43.67126620822697" lon="11.83772800161867"><ele>335.6666666666667</ele><time>2026-04-26T08:19:30.999Z</time></trkpt><trkpt lat="43.671373901998734" lon="11.837556857606913"><ele>332.33333333333337</ele><time>2026-04-26T08:19:31.999Z</time></trkpt><trkpt lat="43.67148189049154" lon="11.837368487821221"><ele>329.0</ele><time>2026-04-26T08:19:32.999Z</time></trkpt><trkpt lat="43.671585370522465" lon="11.837164616402244"><ele>329.0</ele><time>2026-04-26T08:19:33.999Z</time></trkpt><trkpt lat="43.67171060095151" lon="11.836963606568226"><ele>329.0</ele><time>2026-04-26T08:19:34.999Z</time></trkpt><trkpt lat="43.67183459487482" lon="11.836729254766196"><ele>329.0</ele><time>2026-04-26T08:19:35.999Z</time></trkpt><trkpt lat="43.671969440874975" lon="11.836474392109027"><ele>330.5</ele><time>2026-04-26T08:19:36.999Z</time></trkpt><trkpt lat="43.67211056638418" lon="11.83620766109992"><ele>332.0</ele><time>2026-04-26T08:19:37.999Z</time></trkpt><trkpt lat="43.672250367572424" lon="11.835941322767374"><ele>328.0</ele><time>2026-04-26T08:19:38.999Z</time></trkpt><trkpt lat="43.67238864796823" lon="11.835685957345442"><ele>324.0</ele><time>2026-04-26T08:19:39.999Z</time></trkpt><trkpt lat="43.67252587834703" lon="11.835439919220299"><ele>324.0</ele><time>2026-04-26T08:19:40.999Z</time></trkpt><trkpt lat="43.672669734345845" lon="11.83521169338068"><ele>324.0</ele><time>2026-04-26T08:19:41.999Z</time></trkpt><trkpt lat="43.67282169374094" lon="11.83499684157616"><ele>324.0</ele><time>2026-04-26T08:19:42.999Z</time></trkpt><trkpt lat="43.67297988995163" lon="11.834798435067835"><ele>323.3333333333333</ele><time>2026-04-26T08:19:43.999Z</time></trkpt><trkpt lat="43.673138072188955" lon="11.83461746399409"><ele>322.66666666666663</ele><time>2026-04-26T08:19:44.999Z</time></trkpt><trkpt lat="43.673305563021664" lon="11.83444794782788"><ele>322.0</ele><time>2026-04-26T08:19:45.999Z</time></trkpt><trkpt lat="43.67347930022648" lon="11.834289995480741"><ele>324.0</ele><time>2026-04-26T08:19:46.999Z</time></trkpt><trkpt lat="43.67365704519007" lon="11.834139159758752"><ele>326.0</ele><time>2026-04-26T08:19:47.999Z</time></trkpt><trkpt lat="43.67383583228767" lon="11.833984570212301"><ele>328.0</ele><time>2026-04-26T08:19:48.999Z</time></trkpt><trkpt lat="43.67401447186778" lon="11.833827872600587"><ele>328.0</ele><time>2026-04-26T08:19:49.999Z</time></trkpt><trkpt lat="43.67419435170055" lon="11.833670104318983"><ele>328.0</ele><time>2026-04-26T08:19:50.999Z</time></trkpt><trkpt lat="43.67437341323227" lon="11.83351101790769"><ele>328.0</ele><time>2026-04-26T08:19:51.999Z</time></trkpt><trkpt lat="43.6745494971573" lon="11.833344147113868"><ele>328.66666666666663</ele><time>2026-04-26T08:19:52.999Z</time></trkpt><trkpt lat="43.67472424172996" lon="11.833178326663958"><ele>329.3333333333333</ele><time>2026-04-26T08:19:53.999Z</time></trkpt><trkpt lat="43.67489923025344" lon="11.833012273096568"><ele>330.0</ele><time>2026-04-26T08:19:54.999Z</time></trkpt><trkpt lat="43.67507244993811" lon="11.83284789810875"><ele>330.0</ele><time>2026-04-26T08:19:55.999Z</time></trkpt><trkpt lat="43.675246121590654" lon="11.832683094180542"><ele>330.0</ele><time>2026-04-26T08:19:56.999Z</time></trkpt><trkpt lat="43.67541720243328" lon="11.832520748804727"><ele>330.0</ele><time>2026-04-26T08:19:57.999Z</time></trkpt><trkpt lat="43.67559003935696" lon="11.83235673698711"><ele>330.3333333333333</ele><time>2026-04-26T08:19:58.999Z</time></trkpt><trkpt lat="43.675758746340286" lon="11.832197023659848"><ele>330.66666666666663</ele><time>2026-04-26T08:19:59.999Z</time></trkpt><trkpt lat="43.675927756186" lon="11.83203721432561"><ele>331.0</ele><time>2026-04-26T08:20:00.999Z</time></trkpt><trkpt lat="43.676095566138244" lon="11.831877297932268"><ele>331.3333333333333</ele><time>2026-04-26T08:20:01.999Z</time></trkpt><trkpt lat="43.67626109145451" lon="11.831720107650106"><ele>331.6666666666667</ele><time>2026-04-26T08:20:02.999Z</time></trkpt><trkpt lat="43.67642769904883" lon="11.831561889494624"><ele>332.0</ele><time>2026-04-26T08:20:03.999Z</time></trkpt><trkpt lat="43.67659200896163" lon="11.8314051396052"><ele>332.0</ele><time>2026-04-26T08:20:04.999Z</time></trkpt><trkpt lat="43.67675433714542" lon="11.831249175696252"><ele>332.0</ele><time>2026-04-26T08:20:05.999Z</time></trkpt><trkpt lat="43.6769152965483" lon="11.831094526854438"><ele>332.0</ele><time>2026-04-26T08:20:06.999Z</time></trkpt><trkpt lat="43.67707644561186" lon="11.830944980680988"><ele>333.6666666666667</ele><time>2026-04-26T08:20:07.999Z</time></trkpt><trkpt lat="43.67722619791296" lon="11.830775693846086"><ele>335.3333333333333</ele><time>2026-04-26T08:20:09Z</time></trkpt><trkpt lat="43.67737622620203" lon="11.830634509585858"><ele>337.0</ele><time>2026-04-26T08:20:10Z</time></trkpt><trkpt lat="43.67752149831414" lon="11.83050565969891"><ele>337.0</ele><time>2026-04-26T08:20:11Z</time></trkpt><trkpt lat="43.67767037752307" lon="11.830410867647787"><ele>337.0</ele><time>2026-04-26T08:20:12Z</time></trkpt><trkpt lat="43.67782965116654" lon="11.830358689424825"><ele>337.0</ele><time>2026-04-26T08:20:13Z</time></trkpt><trkpt lat="43.67799090311153" lon="11.83034341209073"><ele>336.66666666666663</ele><time>2026-04-26T08:20:14Z</time></trkpt><trkpt lat="43.67815153671727" lon="11.830375791030498"><ele>336.3333333333333</ele><time>2026-04-26T08:20:15Z</time></trkpt><trkpt lat="43.67831691956767" lon="11.830446992274185"><ele>336.0</ele><time>2026-04-26T08:20:16Z</time></trkpt><trkpt lat="43.67847784652017" lon="11.830543172846527"><ele>333.0</ele><time>2026-04-26T08:20:17Z</time></trkpt><trkpt lat="43.678635438943516" lon="11.8306405873517"><ele>330.0</ele><time>2026-04-26T08:20:18Z</time></trkpt><trkpt lat="43.67879131784195" lon="11.830732589177446"><ele>327.0</ele><time>2026-04-26T08:20:19Z</time></trkpt><trkpt lat="43.67894368861642" lon="11.830822267387957"><ele>327.0</ele><time>2026-04-26T08:20:20Z</time></trkpt><trkpt lat="43.67909774585507" lon="11.830877724228815"><ele>327.0</ele><time>2026-04-26T08:20:21Z</time></trkpt><trkpt lat="43.67925955140868" lon="11.830902326772161"><ele>327.0</ele><time>2026-04-26T08:20:22Z</time></trkpt><trkpt lat="43.67942049185278" lon="11.830884905514365"><ele>324.6666666666667</ele><time>2026-04-26T08:20:23Z</time></trkpt><trkpt lat="43.679576595962466" lon="11.830825623549806"><ele>322.33333333333337</ele><time>2026-04-26T08:20:24Z</time></trkpt><trkpt lat="43.679728078202075" lon="11.830741693275693"><ele>320.0</ele><time>2026-04-26T08:20:25Z</time></trkpt><trkpt lat="43.679883912317834" lon="11.830642039324202"><ele>320.0</ele><time>2026-04-26T08:20:26Z</time></trkpt><trkpt lat="43.68005057684781" lon="11.83055905597851"><ele>320.0</ele><time>2026-04-26T08:20:27Z</time></trkpt><trkpt lat="43.680209714418964" lon="11.83046491449525"><ele>320.0</ele><time>2026-04-26T08:20:28Z</time></trkpt><trkpt lat="43.68035772742845" lon="11.830376988262783"><ele>320.33333333333337</ele><time>2026-04-26T08:20:29Z</time></trkpt><trkpt lat="43.68050471055342" lon="11.830266680351148"><ele>320.6666666666667</ele><time>2026-04-26T08:20:30Z</time></trkpt><trkpt lat="43.68065601050016" lon="11.83017913073953"><ele>321.0</ele><time>2026-04-26T08:20:31Z</time></trkpt><trkpt lat="43.68080674913785" lon="11.830090309272903"><ele>321.0</ele><time>2026-04-26T08:20:32Z</time></trkpt><trkpt lat="43.680957594676656" lon="11.830004586209196"><ele>321.0</ele><time>2026-04-26T08:20:33Z</time></trkpt><trkpt lat="43.68110690559128" lon="11.829917145389027"><ele>321.0</ele><time>2026-04-26T08:20:34Z</time></trkpt><trkpt lat="43.68125406188928" lon="11.829831603680237"><ele>321.0</ele><time>2026-04-26T08:20:35Z</time></trkpt><trkpt lat="43.681398811802026" lon="11.829742005635913"><ele>321.0</ele><time>2026-04-26T08:20:36Z</time></trkpt><trkpt lat="43.68154559062782" lon="11.82965620338151"><ele>321.0</ele><time>2026-04-26T08:20:37Z</time></trkpt><trkpt lat="43.68168615510802" lon="11.82957773452656"><ele>321.0</ele><time>2026-04-26T08:20:38Z</time></trkpt><trkpt lat="43.68182260918294" lon="11.829497967806908"><ele>321.0</ele><time>2026-04-26T08:20:39Z</time></trkpt><trkpt lat="43.681955674144554" lon="11.829420023969835"><ele>321.0</ele><time>2026-04-26T08:20:40Z</time></trkpt><trkpt lat="43.68208518077895" lon="11.829343197536211"><ele>321.0</ele><time>2026-04-26T08:20:41Z</time></trkpt><trkpt lat="43.682215058283155" lon="11.829284555857395"><ele>322.25</ele><time>2026-04-26T08:20:42Z</time></trkpt><trkpt lat="43.68233707632888" lon="11.829189359193228"><ele>323.5</ele><time>2026-04-26T08:20:43Z</time></trkpt><trkpt lat="43.68242746699674" lon="11.829021818031741"><ele>324.75</ele><time>2026-04-26T08:20:44Z</time></trkpt><trkpt lat="43.68251546440749" lon="11.828867249594277"><ele>326.0</ele><time>2026-04-26T08:20:45Z</time></trkpt><trkpt lat="43.682594357747035" lon="11.828704516313598"><ele>326.0</ele><time>2026-04-26T08:20:46Z</time></trkpt><trkpt lat="43.68268503394061" lon="11.828551397196936"><ele>326.0</ele><time>2026-04-26T08:20:46.999Z</time></trkpt><trkpt lat="43.682770569011026" lon="11.828392530293824"><ele>326.0</ele><time>2026-04-26T08:20:47.999Z</time></trkpt><trkpt lat="43.68286872604188" lon="11.82824244805231"><ele>326.0</ele><time>2026-04-26T08:20:48.999Z</time></trkpt><trkpt lat="43.682970102367065" lon="11.828105740244098"><ele>326.5</ele><time>2026-04-26T08:20:49.999Z</time></trkpt><trkpt lat="43.68307293598926" lon="11.827975991618645"><ele>327.0</ele><time>2026-04-26T08:20:50.999Z</time></trkpt><trkpt lat="43.68316498253217" lon="11.82783472438854"><ele>327.5</ele><time>2026-04-26T08:20:51.999Z</time></trkpt><trkpt lat="43.68327854765376" lon="11.827730620836048"><ele>328.0</ele><time>2026-04-26T08:20:52.999Z</time></trkpt><trkpt lat="43.68338146103709" lon="11.827614224581987"><ele>327.25</ele><time>2026-04-26T08:20:53.999Z</time></trkpt><trkpt lat="43.683474200378335" lon="11.827486314802231"><ele>326.5</ele><time>2026-04-26T08:20:54.999Z</time></trkpt><trkpt lat="43.68357865913944" lon="11.827390155504798"><ele>325.75</ele><time>2026-04-26T08:20:55.999Z</time></trkpt><trkpt lat="43.683686213976806" lon="11.827304174179814"><ele>325.0</ele><time>2026-04-26T08:20:56.999Z</time></trkpt><trkpt lat="43.68379744535477" lon="11.827217208297796"><ele>325.0</ele><time>2026-04-26T08:20:57.999Z</time></trkpt><trkpt lat="43.683920772600864" lon="11.827155267735117"><ele>325.0</ele><time>2026-04-26T08:20:58.999Z</time></trkpt><trkpt lat="43.68404180764593" lon="11.827078366269577"><ele>325.0</ele><time>2026-04-26T08:20:59.999Z</time></trkpt><trkpt lat="43.68417115557455" lon="11.826998120478555"><ele>325.0</ele><time>2026-04-26T08:21:00.999Z</time></trkpt><trkpt lat="43.684311227476314" lon="11.826911561247195"><ele>325.3333333333333</ele><time>2026-04-26T08:21:01.999Z</time></trkpt><trkpt lat="43.68446343539678" lon="11.826817152657734"><ele>325.6666666666667</ele><time>2026-04-26T08:21:02.999Z</time></trkpt><trkpt lat="43.684623150491454" lon="11.826718085764066"><ele>326.0</ele><time>2026-04-26T08:21:03.999Z</time></trkpt><trkpt lat="43.68477019225406" lon="11.826628455460577"><ele>326.0</ele><time>2026-04-26T08:21:04.999Z</time></trkpt><trkpt lat="43.68491097139355" lon="11.826550359434055"><ele>326.0</ele><time>2026-04-26T08:21:05.999Z</time></trkpt><trkpt lat="43.6850467881677" lon="11.826486771554908"><ele>326.0</ele><time>2026-04-26T08:21:06.999Z</time></trkpt><trkpt lat="43.68518639534067" lon="11.82644390483733"><ele>326.0</ele><time>2026-04-26T08:21:07.999Z</time></trkpt><trkpt lat="43.68532089731449" lon="11.826419033527468"><ele>328.25</ele><time>2026-04-26T08:21:08.999Z</time></trkpt><trkpt lat="43.68544998827895" lon="11.826399103356582"><ele>330.5</ele><time>2026-04-26T08:21:09.999Z</time></trkpt><trkpt lat="43.685581044108766" lon="11.826379347604464"><ele>332.75</ele><time>2026-04-26T08:21:10.999Z</time></trkpt><trkpt lat="43.685708849874196" lon="11.826350410130452"><ele>335.0</ele><time>2026-04-26T08:21:11.999Z</time></trkpt><trkpt lat="43.68583294233068" lon="11.82631192762528"><ele>335.0</ele><time>2026-04-26T08:21:12.999Z</time></trkpt><trkpt lat="43.68594870811212" lon="11.826270314701743"><ele>335.0</ele><time>2026-04-26T08:21:13.999Z</time></trkpt><trkpt lat="43.68606446096861" lon="11.826228706527452"><ele>335.0</ele><time>2026-04-26T08:21:14.999Z</time></trkpt><trkpt lat="43.68618403809952" lon="11.826187535575235"><ele>335.0</ele><time>2026-04-26T08:21:15.999Z</time></trkpt><trkpt lat="43.686307060652034" lon="11.826148389649356"><ele>335.0</ele><time>2026-04-26T08:21:16.999Z</time></trkpt><trkpt lat="43.68643647619851" lon="11.826108505009058"><ele>335.0</ele><time>2026-04-26T08:21:17.999Z</time></trkpt><trkpt lat="43.6865665880023" lon="11.826068405855459"><ele>335.0</ele><time>2026-04-26T08:21:18.999Z</time></trkpt><trkpt lat="43.686694441797066" lon="11.826029002807266"><ele>335.0</ele><time>2026-04-26T08:21:19.999Z</time></trkpt><trkpt lat="43.68681803462872" lon="11.825990835583216"><ele>332.0</ele><time>2026-04-26T08:21:20.999Z</time></trkpt><trkpt lat="43.68693702367031" lon="11.825957211875158"><ele>329.0</ele><time>2026-04-26T08:21:21.999Z</time></trkpt><trkpt lat="43.68705069905793" lon="11.825924843997026"><ele>326.0</ele><time>2026-04-26T08:21:22.999Z</time></trkpt><trkpt lat="43.687153744482046" lon="11.825882131034138"><ele>323.0</ele><time>2026-04-26T08:21:23.999Z</time></trkpt><trkpt lat="43.68723813827276" lon="11.825820469538805"><ele>320.0</ele><time>2026-04-26T08:21:24.999Z</time></trkpt><trkpt lat="43.68732283720038" lon="11.825804206754004"><ele>320.0</ele><time>2026-04-26T08:21:25.999Z</time></trkpt><trkpt lat="43.687411433859886" lon="11.825805179141684"><ele>320.0</ele><time>2026-04-26T08:21:26.999Z</time></trkpt><trkpt lat="43.687500985220524" lon="11.82580350568037"><ele>320.0</ele><time>2026-04-26T08:21:27.999Z</time></trkpt><trkpt lat="43.68758042503704" lon="11.82576881518878"><ele>320.0</ele><time>2026-04-26T08:21:28.999Z</time></trkpt><trkpt lat="43.687647147101" lon="11.825718745854253"><ele>320.0</ele><time>2026-04-26T08:21:29.999Z</time></trkpt><trkpt lat="43.6876652264135" lon="11.825589019820944"><ele>320.0</ele><time>2026-04-26T08:21:30.999Z</time></trkpt><trkpt lat="43.687669764938015" lon="11.825463506047965"><ele>320.0</ele><time>2026-04-26T08:21:31.999Z</time></trkpt><trkpt lat="43.68768108767265" lon="11.825323135159904"><ele>320.0</ele><time>2026-04-26T08:21:32.999Z</time></trkpt><trkpt lat="43.68773187135228" lon="11.825184721705352"><ele>320.0</ele><time>2026-04-26T08:21:33.999Z</time></trkpt><trkpt lat="43.68783799424698" lon="11.825090108234843"><ele>320.0</ele><time>2026-04-26T08:21:34.999Z</time></trkpt><trkpt lat="43.687914948432265" lon="11.824969844788928"><ele>321.5</ele><time>2026-04-26T08:21:35.999Z</time></trkpt><trkpt lat="43.68798748570724" lon="11.82485648393978"><ele>323.0</ele><time>2026-04-26T08:21:36.999Z</time></trkpt><trkpt lat="43.68806026164468" lon="11.824742809662919"><ele>324.5</ele><time>2026-04-26T08:21:37.999Z</time></trkpt><trkpt lat="43.68813954625731" lon="11.824619051374007"><ele>326.0</ele><time>2026-04-26T08:21:38.999Z</time></trkpt><trkpt lat="43.68822406404296" lon="11.824473242013344"><ele>326.0</ele><time>2026-04-26T08:21:39.999Z</time></trkpt><trkpt lat="43.68831625000115" lon="11.824319181028672"><ele>326.0</ele><time>2026-04-26T08:21:40.999Z</time></trkpt><trkpt lat="43.688420597193264" lon="11.824149166207736"><ele>326.0</ele><time>2026-04-26T08:21:41.999Z</time></trkpt><trkpt lat="43.68853702539533" lon="11.82395873144337"><ele>328.0</ele><time>2026-04-26T08:21:42.999Z</time></trkpt><trkpt lat="43.68865373751939" lon="11.82376648439716"><ele>330.0</ele><time>2026-04-26T08:21:43.999Z</time></trkpt><trkpt lat="43.68877030769318" lon="11.823574778619388"><ele>332.0</ele><time>2026-04-26T08:21:44.999Z</time></trkpt><trkpt lat="43.68888765846637" lon="11.823387842627323"><ele>332.0</ele><time>2026-04-26T08:21:45.999Z</time></trkpt><trkpt lat="43.68900312435531" lon="11.823204038165235"><ele>332.0</ele><time>2026-04-26T08:21:46.999Z</time></trkpt><trkpt lat="43.689120330071496" lon="11.82301746426887"><ele>332.0</ele><time>2026-04-26T08:21:47.999Z</time></trkpt><trkpt lat="43.689238002751644" lon="11.822830146971912"><ele>328.33333333333337</ele><time>2026-04-26T08:21:48.999Z</time></trkpt><trkpt lat="43.68935648809983" lon="11.822642965766109"><ele>324.6666666666667</ele><time>2026-04-26T08:21:49.999Z</time></trkpt><trkpt lat="43.68947553279373" lon="11.822456463865098"><ele>321.0</ele><time>2026-04-26T08:21:50.999Z</time></trkpt><trkpt lat="43.689594592730145" lon="11.822269983545242"><ele>325.0</ele><time>2026-04-26T08:21:51.999Z</time></trkpt><trkpt lat="43.68971240106553" lon="11.822085463613616"><ele>329.0</ele><time>2026-04-26T08:21:52.999Z</time></trkpt><trkpt lat="43.689829391064954" lon="11.821902225397073"><ele>333.0</ele><time>2026-04-26T08:21:53.999Z</time></trkpt><trkpt lat="43.68994532523062" lon="11.82172130329921"><ele>333.0</ele><time>2026-04-26T08:21:54.999Z</time></trkpt><trkpt lat="43.690059765178944" lon="11.821542806396172"><ele>333.0</ele><time>2026-04-26T08:21:55.999Z</time></trkpt><trkpt lat="43.690174247001615" lon="11.821364244182396"><ele>333.0</ele><time>2026-04-26T08:21:56.999Z</time></trkpt><trkpt lat="43.690287869253666" lon="11.82118806473277"><ele>339.6666666666667</ele><time>2026-04-26T08:21:57.999Z</time></trkpt><trkpt lat="43.69039579636564" lon="11.821019375842459"><ele>346.33333333333337</ele><time>2026-04-26T08:21:58.999Z</time></trkpt><trkpt lat="43.6904931025836" lon="11.820846051033087"><ele>353.0</ele><time>2026-04-26T08:21:59.999Z</time></trkpt><trkpt lat="43.6905516079075" lon="11.820645612814998"><ele>353.0</ele><time>2026-04-26T08:22:00.999Z</time></trkpt><trkpt lat="43.69060109739322" lon="11.820462476882081"><ele>353.0</ele><time>2026-04-26T08:22:01.999Z</time></trkpt><trkpt lat="43.69063634520141" lon="11.820287979923789"><ele>353.0</ele><time>2026-04-26T08:22:02.999Z</time></trkpt><trkpt lat="43.69066967728175" lon="11.820129009479139"><ele>353.0</ele><time>2026-04-26T08:22:03.999Z</time></trkpt><trkpt lat="43.69070531706175" lon="11.819986918421595"><ele>350.5</ele><time>2026-04-26T08:22:04.999Z</time></trkpt><trkpt lat="43.69075235375022" lon="11.81986010568599"><ele>348.0</ele><time>2026-04-26T08:22:05.999Z</time></trkpt><trkpt lat="43.69081112927103" lon="11.819753376456331"><ele>345.5</ele><time>2026-04-26T08:22:06.999Z</time></trkpt><trkpt lat="43.690861970148305" lon="11.8196590732624"><ele>343.0</ele><time>2026-04-26T08:22:07.998Z</time></trkpt><trkpt lat="43.690900644025135" lon="11.819560448600548"><ele>340.5</ele><time>2026-04-26T08:22:08.998Z</time></trkpt><trkpt lat="43.69092174438237" lon="11.81945932630254"><ele>338.0</ele><time>2026-04-26T08:22:09.998Z</time></trkpt><trkpt lat="43.69092744424572" lon="11.819351377896343"><ele>336.1666666666667</ele><time>2026-04-26T08:22:10.998Z</time></trkpt><trkpt lat="43.69094274179652" lon="11.819246970665784"><ele>334.33333333333337</ele><time>2026-04-26T08:22:11.998Z</time></trkpt><trkpt lat="43.69089541886837" lon="11.819144100873526"><ele>332.5</ele><time>2026-04-26T08:22:12.998Z</time></trkpt><trkpt lat="43.69085562231561" lon="11.819049965244073"><ele>330.6666666666667</ele><time>2026-04-26T08:22:13.998Z</time></trkpt><trkpt lat="43.69079358821685" lon="11.818978462168696"><ele>328.8333333333333</ele><time>2026-04-26T08:22:15Z</time></trkpt><trkpt lat="43.69072005433282" lon="11.818949531423986"><ele>327.0</ele><time>2026-04-26T08:22:16Z</time></trkpt><trkpt lat="43.69065011946069" lon="11.818953511630248"><ele>327.0</ele><time>2026-04-26T08:22:17Z</time></trkpt><trkpt lat="43.69058379432495" lon="11.81897631554651"><ele>327.0</ele><time>2026-04-26T08:22:18Z</time></trkpt><trkpt lat="43.69051331666485" lon="11.81901918636709"><ele>327.0</ele><time>2026-04-26T08:22:19Z</time></trkpt><trkpt lat="43.69043350230694" lon="11.819066713262826"><ele>327.0</ele><time>2026-04-26T08:22:20Z</time></trkpt><trkpt lat="43.69034864462346" lon="11.819086395562964"><ele>327.0</ele><time>2026-04-26T08:22:21Z</time></trkpt><trkpt lat="43.69026431210099" lon="11.819068967796978"><ele>327.0</ele><time>2026-04-26T08:22:22Z</time></trkpt><trkpt lat="43.69018136952056" lon="11.819071111778046"><ele>324.3333333333333</ele><time>2026-04-26T08:22:23Z</time></trkpt><trkpt lat="43.690143428473014" lon="11.818849419248833"><ele>321.66666666666663</ele><time>2026-04-26T08:22:24Z</time></trkpt><trkpt lat="43.6900775788488" lon="11.818691987499726"><ele>319.0</ele><time>2026-04-26T08:22:25Z</time></trkpt><trkpt lat="43.690007150036685" lon="11.818497552802002"><ele>319.0</ele><time>2026-04-26T08:22:26Z</time></trkpt><trkpt lat="43.689949955464776" lon="11.818247690785821"><ele>319.0</ele><time>2026-04-26T08:22:27Z</time></trkpt><trkpt lat="43.68989010986742" lon="11.817945093337334"><ele>319.0</ele><time>2026-04-26T08:22:28Z</time></trkpt><trkpt lat="43.68982972222325" lon="11.817637901724998"><ele>319.0</ele><time>2026-04-26T08:22:29Z</time></trkpt><trkpt lat="43.6897557948127" lon="11.817335855138422"><ele>319.0</ele><time>2026-04-26T08:22:30Z</time></trkpt><trkpt lat="43.68969650119424" lon="11.817027100697427"><ele>319.5</ele><time>2026-04-26T08:22:31Z</time></trkpt><trkpt lat="43.68963297643097" lon="11.816714637841727"><ele>320.0</ele><time>2026-04-26T08:22:32Z</time></trkpt><trkpt lat="43.68957115667617" lon="11.816412671524684"><ele>320.0</ele><time>2026-04-26T08:22:33Z</time></trkpt><trkpt lat="43.68951102139487" lon="11.81611238474022"><ele>320.0</ele><time>2026-04-26T08:22:34Z</time></trkpt><trkpt lat="43.68945306617796" lon="11.815807919523975"><ele>320.33333333333337</ele><time>2026-04-26T08:22:35Z</time></trkpt><trkpt lat="43.68939562608731" lon="11.815507785687199"><ele>320.6666666666667</ele><time>2026-04-26T08:22:36Z</time></trkpt><trkpt lat="43.68934581410332" lon="11.815205401495358"><ele>321.0</ele><time>2026-04-26T08:22:37Z</time></trkpt><trkpt lat="43.689311402255186" lon="11.814900271585195"><ele>321.0</ele><time>2026-04-26T08:22:38Z</time></trkpt><trkpt lat="43.68929462843735" lon="11.814590875235536"><ele>321.0</ele><time>2026-04-26T08:22:39Z</time></trkpt><trkpt lat="43.68931249109128" lon="11.814280937606918"><ele>321.0</ele><time>2026-04-26T08:22:40Z</time></trkpt><trkpt lat="43.68932897938062" lon="11.813970542958405"><ele>320.5</ele><time>2026-04-26T08:22:41Z</time></trkpt><trkpt lat="43.68936384685003" lon="11.813658774898101"><ele>320.0</ele><time>2026-04-26T08:22:42Z</time></trkpt><trkpt lat="43.689416943683" lon="11.8133503221944"><ele>319.5</ele><time>2026-04-26T08:22:43Z</time></trkpt><trkpt lat="43.6894911191978" lon="11.81304902494433"><ele>319.0</ele><time>2026-04-26T08:22:44Z</time></trkpt><trkpt lat="43.68958283473198" lon="11.812752684491603"><ele>319.5</ele><time>2026-04-26T08:22:45Z</time></trkpt><trkpt lat="43.689689491438514" lon="11.812466680087217"><ele>320.0</ele><time>2026-04-26T08:22:46Z</time></trkpt><trkpt lat="43.68981101734522" lon="11.812206284338716"><ele>320.0</ele><time>2026-04-26T08:22:47Z</time></trkpt><trkpt lat="43.6899533825369" lon="11.81192882474361"><ele>320.0</ele><time>2026-04-26T08:22:48Z</time></trkpt><trkpt lat="43.69010556797706" lon="11.811675840762666"><ele>319.0</ele><time>2026-04-26T08:22:49Z</time></trkpt><trkpt lat="43.69024757928659" lon="11.811413503698798"><ele>318.0</ele><time>2026-04-26T08:22:50Z</time></trkpt><trkpt lat="43.69040750737328" lon="11.811176128544147"><ele>319.0</ele><time>2026-04-26T08:22:51Z</time></trkpt><trkpt lat="43.69057356665852" lon="11.810971254310843"><ele>320.0</ele><time>2026-04-26T08:22:52Z</time></trkpt><trkpt lat="43.69074553974504" lon="11.810781272106539"><ele>321.0</ele><time>2026-04-26T08:22:53Z</time></trkpt><trkpt lat="43.69083825543367" lon="11.810415832268463"><ele>320.6666666666667</ele><time>2026-04-26T08:22:54Z</time></trkpt><trkpt lat="43.69095658892709" lon="11.810152917859325"><ele>320.33333333333337</ele><time>2026-04-26T08:22:55Z</time></trkpt><trkpt lat="43.6910822792757" lon="11.809896928290806"><ele>320.0</ele><time>2026-04-26T08:22:56Z</time></trkpt><trkpt lat="43.691180703742596" lon="11.809621288239237"><ele>320.6666666666667</ele><time>2026-04-26T08:22:56.999Z</time></trkpt><trkpt lat="43.69125801288734" lon="11.809333050671544"><ele>321.3333333333333</ele><time>2026-04-26T08:22:57.999Z</time></trkpt><trkpt lat="43.69134106145631" lon="11.809045860233828"><ele>322.0</ele><time>2026-04-26T08:22:58.999Z</time></trkpt><trkpt lat="43.69140655164449" lon="11.808741641245087"><ele>322.0</ele><time>2026-04-26T08:22:59.999Z</time></trkpt><trkpt lat="43.69146428632808" lon="11.808437851469105"><ele>322.0</ele><time>2026-04-26T08:23:00.999Z</time></trkpt><trkpt lat="43.69151635101719" lon="11.808128172281577"><ele>322.0</ele><time>2026-04-26T08:23:01.999Z</time></trkpt><trkpt lat="43.69157421844386" lon="11.807819486067386"><ele>322.0</ele><time>2026-04-26T08:23:02.999Z</time></trkpt><trkpt lat="43.69162924477824" lon="11.807508609283309"><ele>321.5</ele><time>2026-04-26T08:23:03.999Z</time></trkpt><trkpt lat="43.69168505437822" lon="11.807196125369268"><ele>321.0</ele><time>2026-04-26T08:23:04.999Z</time></trkpt><trkpt lat="43.691745132902554" lon="11.806884344000709"><ele>321.0</ele><time>2026-04-26T08:23:05.999Z</time></trkpt><trkpt lat="43.69180388025271" lon="11.806572895880524"><ele>321.0</ele><time>2026-04-26T08:23:06.999Z</time></trkpt><trkpt lat="43.69187914058036" lon="11.806268748430536"><ele>322.0</ele><time>2026-04-26T08:23:07.999Z</time></trkpt><trkpt lat="43.691952489178476" lon="11.80595932762729"><ele>323.0</ele><time>2026-04-26T08:23:08.999Z</time></trkpt><trkpt lat="43.69203652628683" lon="11.805656572725367"><ele>323.0</ele><time>2026-04-26T08:23:09.999Z</time></trkpt><trkpt lat="43.692133434461596" lon="11.805363978355121"><ele>323.0</ele><time>2026-04-26T08:23:10.999Z</time></trkpt><trkpt lat="43.69224112551596" lon="11.805083448529079"><ele>323.5</ele><time>2026-04-26T08:23:11.999Z</time></trkpt><trkpt lat="43.69236176197287" lon="11.80480908551695"><ele>324.0</ele><time>2026-04-26T08:23:12.999Z</time></trkpt><trkpt lat="43.69249305156289" lon="11.804543340715666"><ele>324.0</ele><time>2026-04-26T08:23:13.999Z</time></trkpt><trkpt lat="43.69263344228281" lon="11.804286648745805"><ele>324.0</ele><time>2026-04-26T08:23:14.999Z</time></trkpt><trkpt lat="43.692786013126465" lon="11.804042119631575"><ele>324.0</ele><time>2026-04-26T08:23:15.999Z</time></trkpt><trkpt lat="43.69295160030702" lon="11.803812043418418"><ele>324.0</ele><time>2026-04-26T08:23:16.999Z</time></trkpt><trkpt lat="43.69312375752283" lon="11.803596099622686"><ele>323.5</ele><time>2026-04-26T08:23:17.999Z</time></trkpt><trkpt lat="43.693306538496046" lon="11.803389074796348"><ele>323.0</ele><time>2026-04-26T08:23:18.999Z</time></trkpt><trkpt lat="43.693495464274356" lon="11.803204475897525"><ele>323.0</ele><time>2026-04-26T08:23:19.999Z</time></trkpt><trkpt lat="43.69368494083001" lon="11.803020671818892"><ele>323.0</ele><time>2026-04-26T08:23:20.999Z</time></trkpt><trkpt lat="43.69387404813709" lon="11.802837224981362"><ele>323.0</ele><time>2026-04-26T08:23:21.999Z</time></trkpt><trkpt lat="43.69405633153832" lon="11.802637830074913"><ele>323.0</ele><time>2026-04-26T08:23:22.999Z</time></trkpt><trkpt lat="43.6942507431753" lon="11.802456714490091"><ele>323.5</ele><time>2026-04-26T08:23:23.999Z</time></trkpt><trkpt lat="43.694435522440294" lon="11.802276516326065"><ele>324.0</ele><time>2026-04-26T08:23:24.999Z</time></trkpt><trkpt lat="43.694617993951795" lon="11.802090982172757"><ele>324.0</ele><time>2026-04-26T08:23:25.999Z</time></trkpt><trkpt lat="43.69479019095138" lon="11.801892669422083"><ele>324.0</ele><time>2026-04-26T08:23:26.999Z</time></trkpt><trkpt lat="43.69494312757187" lon="11.801690181068155"><ele>324.0</ele><time>2026-04-26T08:23:27.999Z</time></trkpt><trkpt lat="43.695079377036556" lon="11.80149842818488"><ele>324.0</ele><time>2026-04-26T08:23:28.999Z</time></trkpt><trkpt lat="43.69520560325229" lon="11.801314231314567"><ele>324.0</ele><time>2026-04-26T08:23:29.999Z</time></trkpt><trkpt lat="43.69532719650214" lon="11.801135459539639"><ele>324.0</ele><time>2026-04-26T08:23:30.999Z</time></trkpt><trkpt lat="43.69544121275696" lon="11.800971616453054"><ele>324.0</ele><time>2026-04-26T08:23:31.999Z</time></trkpt><trkpt lat="43.695550665818935" lon="11.800819547724045"><ele>324.0</ele><time>2026-04-26T08:23:32.999Z</time></trkpt><trkpt lat="43.69565290649204" lon="11.800680108795465"><ele>324.0</ele><time>2026-04-26T08:23:33.999Z</time></trkpt><trkpt lat="43.695738829369816" lon="11.8005734676005"><ele>324.0</ele><time>2026-04-26T08:23:34.999Z</time></trkpt><trkpt lat="43.69583263247988" lon="11.80047988568363"><ele>324.0</ele><time>2026-04-26T08:23:35.999Z</time></trkpt><trkpt lat="43.695931908011794" lon="11.800405779107047"><ele>324.0</ele><time>2026-04-26T08:23:36.999Z</time></trkpt><trkpt lat="43.696034415468574" lon="11.800383653908982"><ele>324.0</ele><time>2026-04-26T08:23:37.999Z</time></trkpt><trkpt lat="43.69613967928329" lon="11.800411225451654"><ele>324.0</ele><time>2026-04-26T08:23:38.999Z</time></trkpt><trkpt lat="43.69624674885144" lon="11.80044573335183"><ele>324.0</ele><time>2026-04-26T08:23:39.999Z</time></trkpt><trkpt lat="43.696358917206744" lon="11.800448038672029"><ele>324.0</ele><time>2026-04-26T08:23:40.999Z</time></trkpt><trkpt lat="43.69645625891514" lon="11.800414009592984"><ele>324.0</ele><time>2026-04-26T08:23:41.999Z</time></trkpt><trkpt lat="43.696527255236134" lon="11.800337310284112"><ele>324.0</ele><time>2026-04-26T08:23:42.999Z</time></trkpt><trkpt lat="43.69657410852929" lon="11.800226538950305"><ele>324.0</ele><time>2026-04-26T08:23:43.999Z</time></trkpt><trkpt lat="43.69659478509356" lon="11.800085403153801"><ele>324.0</ele><time>2026-04-26T08:23:44.999Z</time></trkpt><trkpt lat="43.696606416817744" lon="11.799923741344745"><ele>323.6666666666667</ele><time>2026-04-26T08:23:45.999Z</time></trkpt><trkpt lat="43.69665448384511" lon="11.799749013797651"><ele>323.33333333333337</ele><time>2026-04-26T08:23:46.999Z</time></trkpt><trkpt lat="43.69675025456655" lon="11.799578594764318"><ele>323.0</ele><time>2026-04-26T08:23:47.999Z</time></trkpt><trkpt lat="43.696874772727554" lon="11.799431691221011"><ele>323.33333333333337</ele><time>2026-04-26T08:23:48.999Z</time></trkpt><trkpt lat="43.697026470661754" lon="11.799301206349533"><ele>323.6666666666667</ele><time>2026-04-26T08:23:49.999Z</time></trkpt><trkpt lat="43.69720814404261" lon="11.799174026072793"><ele>324.0</ele><time>2026-04-26T08:23:50.999Z</time></trkpt><trkpt lat="43.69739650729003" lon="11.799045648112152"><ele>324.0</ele><time>2026-04-26T08:23:51.999Z</time></trkpt><trkpt lat="43.69758061211627" lon="11.798918521747602"><ele>324.0</ele><time>2026-04-26T08:23:52.999Z</time></trkpt><trkpt lat="43.69777057008651" lon="11.79877146288708"><ele>324.0</ele><time>2026-04-26T08:23:53.999Z</time></trkpt><trkpt lat="43.69797222872084" lon="11.798617115599342"><ele>324.0</ele><time>2026-04-26T08:23:54.999Z</time></trkpt><trkpt lat="43.69816976815785" lon="11.79846343255595"><ele>324.0</ele><time>2026-04-26T08:23:55.999Z</time></trkpt><trkpt lat="43.6983708167195" lon="11.798305817001495"><ele>324.0</ele><time>2026-04-26T08:23:56.999Z</time></trkpt><trkpt lat="43.698573206299265" lon="11.798137528232864"><ele>324.0</ele><time>2026-04-26T08:23:57.999Z</time></trkpt><trkpt lat="43.698767673769616" lon="11.797955007693615"><ele>324.5</ele><time>2026-04-26T08:23:58.999Z</time></trkpt><trkpt lat="43.698956226716646" lon="11.797737590396281"><ele>325.0</ele><time>2026-04-26T08:23:59.999Z</time></trkpt><trkpt lat="43.69913405429696" lon="11.79749983256953"><ele>325.0</ele><time>2026-04-26T08:24:00.999Z</time></trkpt><trkpt lat="43.699316431292864" lon="11.797256603500218"><ele>325.0</ele><time>2026-04-26T08:24:01.999Z</time></trkpt><trkpt lat="43.699499368101904" lon="11.79704080287935"><ele>324.0</ele><time>2026-04-26T08:24:02.999Z</time></trkpt><trkpt lat="43.699672649204" lon="11.796788256526959"><ele>323.0</ele><time>2026-04-26T08:24:03.999Z</time></trkpt><trkpt lat="43.699844294940235" lon="11.796531712706807"><ele>323.0</ele><time>2026-04-26T08:24:04.999Z</time></trkpt><trkpt lat="43.70001845651145" lon="11.796274955526075"><ele>323.0</ele><time>2026-04-26T08:24:05.999Z</time></trkpt><trkpt lat="43.700194245022196" lon="11.79601911901825"><ele>324.0</ele><time>2026-04-26T08:24:06.999Z</time></trkpt><trkpt lat="43.70036867003349" lon="11.795759214481631"><ele>325.0</ele><time>2026-04-26T08:24:07.999Z</time></trkpt><trkpt lat="43.7005474649177" lon="11.795501164351275"><ele>325.0</ele><time>2026-04-26T08:24:08.999Z</time></trkpt><trkpt lat="43.70072589111487" lon="11.795238069971745"><ele>325.0</ele><time>2026-04-26T08:24:09.999Z</time></trkpt><trkpt lat="43.7009037744708" lon="11.794978633332732"><ele>324.5</ele><time>2026-04-26T08:24:10.999Z</time></trkpt><trkpt lat="43.70108695561679" lon="11.794725827911684"><ele>324.0</ele><time>2026-04-26T08:24:11.999Z</time></trkpt><trkpt lat="43.70127910365474" lon="11.794485313202683"><ele>324.0</ele><time>2026-04-26T08:24:12.999Z</time></trkpt><trkpt lat="43.7014825876744" lon="11.79426043034304"><ele>324.0</ele><time>2026-04-26T08:24:13.999Z</time></trkpt><trkpt lat="43.70169787359444" lon="11.794054362504257"><ele>325.5</ele><time>2026-04-26T08:24:14.999Z</time></trkpt><trkpt lat="43.701923484130255" lon="11.793869499700103"><ele>327.0</ele><time>2026-04-26T08:24:15.999Z</time></trkpt><trkpt lat="43.70216395580689" lon="11.793707231300125"><ele>327.0</ele><time>2026-04-26T08:24:16.999Z</time></trkpt><trkpt lat="43.70241407463271" lon="11.793568472935913"><ele>327.0</ele><time>2026-04-26T08:24:17.999Z</time></trkpt><trkpt lat="43.70267247700832" lon="11.79345322339731"><ele>326.5</ele><time>2026-04-26T08:24:18.999Z</time></trkpt><trkpt lat="43.702937969857025" lon="11.79335399027546"><ele>326.0</ele><time>2026-04-26T08:24:20Z</time></trkpt><trkpt lat="43.703206877578125" lon="11.793259329417475"><ele>326.0</ele><time>2026-04-26T08:24:21Z</time></trkpt><trkpt lat="43.70347332404836" lon="11.793162956801307"><ele>326.0</ele><time>2026-04-26T08:24:22Z</time></trkpt><trkpt lat="43.70373874364057" lon="11.793062252241658"><ele>328.0</ele><time>2026-04-26T08:24:23Z</time></trkpt><trkpt lat="43.70400258922984" lon="11.792961017675895"><ele>330.0</ele><time>2026-04-26T08:24:24Z</time></trkpt><trkpt lat="43.70426287514733" lon="11.79285547560847"><ele>330.5</ele><time>2026-04-26T08:24:25Z</time></trkpt><trkpt lat="43.70451459678983" lon="11.792734261386139"><ele>331.0</ele><time>2026-04-26T08:24:26Z</time></trkpt><trkpt lat="43.70475314828413" lon="11.792596219764082"><ele>331.0</ele><time>2026-04-26T08:24:27Z</time></trkpt><trkpt lat="43.70498725985999" lon="11.792440155019415"><ele>331.0</ele><time>2026-04-26T08:24:28Z</time></trkpt><trkpt lat="43.705213584629846" lon="11.792265770397496"><ele>333.0</ele><time>2026-04-26T08:24:29Z</time></trkpt><trkpt lat="43.70543409458246" lon="11.792076656923413"><ele>335.0</ele><time>2026-04-26T08:24:30Z</time></trkpt><trkpt lat="43.70565148138746" lon="11.791884065433008"><ele>335.5</ele><time>2026-04-26T08:24:31Z</time></trkpt><trkpt lat="43.70586817440582" lon="11.791688469855108"><ele>336.0</ele><time>2026-04-26T08:24:32Z</time></trkpt><trkpt lat="43.70608525242069" lon="11.791494637913653"><ele>336.0</ele><time>2026-04-26T08:24:33Z</time></trkpt><trkpt lat="43.70630417744678" lon="11.791298008869248"><ele>336.0</ele><time>2026-04-26T08:24:34Z</time></trkpt><trkpt lat="43.70653369919341" lon="11.791130510714458"><ele>335.0</ele><time>2026-04-26T08:24:35Z</time></trkpt><trkpt lat="43.70674299474636" lon="11.7909439585524"><ele>334.0</ele><time>2026-04-26T08:24:36Z</time></trkpt><trkpt lat="43.70694198505262" lon="11.790765030048565"><ele>334.0</ele><time>2026-04-26T08:24:37Z</time></trkpt><trkpt lat="43.70713900940317" lon="11.790587869260326"><ele>334.0</ele><time>2026-04-26T08:24:38Z</time></trkpt><trkpt lat="43.70734089992954" lon="11.790406832898618"><ele>334.0</ele><time>2026-04-26T08:24:39Z</time></trkpt><trkpt lat="43.707554158662276" lon="11.790217684746745"><ele>334.0</ele><time>2026-04-26T08:24:40Z</time></trkpt><trkpt lat="43.70776856606149" lon="11.790030699174398"><ele>334.0</ele><time>2026-04-26T08:24:41Z</time></trkpt><trkpt lat="43.70797950410207" lon="11.789860101000574"><ele>334.0</ele><time>2026-04-26T08:24:42Z</time></trkpt><trkpt lat="43.70818976133404" lon="11.789708242558454"><ele>334.0</ele><time>2026-04-26T08:24:43Z</time></trkpt><trkpt lat="43.70839630673913" lon="11.789554668653544"><ele>334.0</ele><time>2026-04-26T08:24:44Z</time></trkpt><trkpt lat="43.708590903049284" lon="11.789399366636795"><ele>334.3333333333333</ele><time>2026-04-26T08:24:45Z</time></trkpt><trkpt lat="43.70876955167231" lon="11.789238003582918"><ele>334.6666666666667</ele><time>2026-04-26T08:24:46Z</time></trkpt><trkpt lat="43.70893341563988" lon="11.789071432720737"><ele>335.0</ele><time>2026-04-26T08:24:47Z</time></trkpt><trkpt lat="43.70908612169392" lon="11.788900891063511"><ele>335.0</ele><time>2026-04-26T08:24:48Z</time></trkpt><trkpt lat="43.70922014293312" lon="11.788728622412368"><ele>335.0</ele><time>2026-04-26T08:24:49Z</time></trkpt><trkpt lat="43.70932916030862" lon="11.78857292870008"><ele>335.0</ele><time>2026-04-26T08:24:50Z</time></trkpt><trkpt lat="43.709414508696916" lon="11.78842024924414"><ele>335.5</ele><time>2026-04-26T08:24:51Z</time></trkpt><trkpt lat="43.70949535260088" lon="11.788284983170197"><ele>336.0</ele><time>2026-04-26T08:24:52Z</time></trkpt><trkpt lat="43.70958753562342" lon="11.78815854750139"><ele>336.5</ele><time>2026-04-26T08:24:53Z</time></trkpt><trkpt lat="43.709662709031164" lon="11.788025375612206"><ele>337.0</ele><time>2026-04-26T08:24:54Z</time></trkpt><trkpt lat="43.70973516803779" lon="11.78789701231799"><ele>337.0</ele><time>2026-04-26T08:24:55Z</time></trkpt><trkpt lat="43.70980642286311" lon="11.787770101066869"><ele>337.0</ele><time>2026-04-26T08:24:56Z</time></trkpt><trkpt lat="43.70988241636231" lon="11.787631303844547"><ele>337.0</ele><time>2026-04-26T08:24:57Z</time></trkpt><trkpt lat="43.70996884223964" lon="11.78747345256851"><ele>337.0</ele><time>2026-04-26T08:24:58Z</time></trkpt><trkpt lat="43.71006674776478" lon="11.787294634460984"><ele>337.3333333333333</ele><time>2026-04-26T08:24:59Z</time></trkpt><trkpt lat="43.71017462981971" lon="11.787099313109422"><ele>337.6666666666667</ele><time>2026-04-26T08:25:00Z</time></trkpt><trkpt lat="43.71028830891998" lon="11.786894097890322"><ele>338.0</ele><time>2026-04-26T08:25:01Z</time></trkpt><trkpt lat="43.71040072037531" lon="11.786693206632952"><ele>338.0</ele><time>2026-04-26T08:25:02Z</time></trkpt><trkpt lat="43.71051017924629" lon="11.78646871527803"><ele>338.0</ele><time>2026-04-26T08:25:03Z</time></trkpt><trkpt lat="43.71064563056594" lon="11.786273589380885"><ele>338.0</ele><time>2026-04-26T08:25:04Z</time></trkpt><trkpt lat="43.7107735500202" lon="11.786075899692653"><ele>337.6666666666667</ele><time>2026-04-26T08:25:05Z</time></trkpt><trkpt lat="43.710905742167604" lon="11.785874810567424"><ele>337.3333333333333</ele><time>2026-04-26T08:25:06Z</time></trkpt><trkpt lat="43.71106181312548" lon="11.785697571149015"><ele>337.0</ele><time>2026-04-26T08:25:07Z</time></trkpt><trkpt lat="43.71122685567677" lon="11.785530082006707"><ele>337.0</ele><time>2026-04-26T08:25:08Z</time></trkpt><trkpt lat="43.71140084296954" lon="11.78537362703116"><ele>337.0</ele><time>2026-04-26T08:25:09Z</time></trkpt><trkpt lat="43.71158599131886" lon="11.785230921312882"><ele>337.0</ele><time>2026-04-26T08:25:10Z</time></trkpt><trkpt lat="43.71178989029658" lon="11.785124381356963"><ele>336.0</ele><time>2026-04-26T08:25:11Z</time></trkpt><trkpt lat="43.7119906399923" lon="11.784984166733048"><ele>335.0</ele><time>2026-04-26T08:25:12Z</time></trkpt><trkpt lat="43.71220387461456" lon="11.784874728046729"><ele>335.0</ele><time>2026-04-26T08:25:13Z</time></trkpt><trkpt lat="43.71241964967561" lon="11.784761574268922"><ele>335.0</ele><time>2026-04-26T08:25:14Z</time></trkpt><trkpt lat="43.7126365637779" lon="11.784640128871235"><ele>338.0</ele><time>2026-04-26T08:25:15Z</time></trkpt><trkpt lat="43.71285393374177" lon="11.784509804870904"><ele>341.0</ele><time>2026-04-26T08:25:16Z</time></trkpt><trkpt lat="43.713082378468734" lon="11.784390130310344"><ele>336.5</ele><time>2026-04-26T08:25:17Z</time></trkpt><trkpt lat="43.71330563010598" lon="11.784264989262827"><ele>332.0</ele><time>2026-04-26T08:25:18Z</time></trkpt><trkpt lat="43.71351950532798" lon="11.784135627863646"><ele>333.0</ele><time>2026-04-26T08:25:19Z</time></trkpt><trkpt lat="43.71375816290704" lon="11.784054368838802"><ele>334.0</ele><time>2026-04-26T08:25:20Z</time></trkpt><trkpt lat="43.71397262576736" lon="11.783890971735863"><ele>334.0</ele><time>2026-04-26T08:25:21Z</time></trkpt><trkpt lat="43.71419904405418" lon="11.783764811817218"><ele>334.0</ele><time>2026-04-26T08:25:22Z</time></trkpt><trkpt lat="43.71442707544796" lon="11.783637643369293"><ele>333.0</ele><time>2026-04-26T08:25:23Z</time></trkpt><trkpt lat="43.714656044055815" lon="11.783507001395657"><ele>332.0</ele><time>2026-04-26T08:25:24Z</time></trkpt><trkpt lat="43.71488800372169" lon="11.783394385416658"><ele>332.0</ele><time>2026-04-26T08:25:25Z</time></trkpt><trkpt lat="43.715116689284606" lon="11.783258891111016"><ele>332.0</ele><time>2026-04-26T08:25:26Z</time></trkpt><trkpt lat="43.715338610310724" lon="11.783101070665165"><ele>332.5</ele><time>2026-04-26T08:25:27Z</time></trkpt><trkpt lat="43.715564843313715" lon="11.78295817365415"><ele>333.0</ele><time>2026-04-26T08:25:28Z</time></trkpt><trkpt lat="43.71578844148675" lon="11.782804391050838"><ele>332.0</ele><time>2026-04-26T08:25:29Z</time></trkpt><trkpt lat="43.71600672579649" lon="11.782646712143661"><ele>331.0</ele><time>2026-04-26T08:25:30Z</time></trkpt><trkpt lat="43.71622473456077" lon="11.782505751210687"><ele>331.0</ele><time>2026-04-26T08:25:31Z</time></trkpt><trkpt lat="43.71643108397914" lon="11.782349128192784"><ele>331.0</ele><time>2026-04-26T08:25:32Z</time></trkpt><trkpt lat="43.71663090348049" lon="11.782194798598656"><ele>331.0</ele><time>2026-04-26T08:25:33Z</time></trkpt><trkpt lat="43.71682001804569" lon="11.782046003347611"><ele>331.0</ele><time>2026-04-26T08:25:34Z</time></trkpt><trkpt lat="43.71700231854252" lon="11.781901070190612"><ele>331.0</ele><time>2026-04-26T08:25:35Z</time></trkpt><trkpt lat="43.71718311131446" lon="11.78175746704933"><ele>331.3333333333333</ele><time>2026-04-26T08:25:36Z</time></trkpt><trkpt lat="43.71736777254302" lon="11.781610758769625"><ele>331.6666666666667</ele><time>2026-04-26T08:25:36.999Z</time></trkpt><trkpt lat="43.7175505497448" lon="11.781465547299636"><ele>332.0</ele><time>2026-04-26T08:25:37.999Z</time></trkpt><trkpt lat="43.71773323735977" lon="11.78132040700272"><ele>332.0</ele><time>2026-04-26T08:25:38.999Z</time></trkpt><trkpt lat="43.71791122392534" lon="11.781152558880384"><ele>332.0</ele><time>2026-04-26T08:25:39.999Z</time></trkpt><trkpt lat="43.718105692008706" lon="11.781005445948589"><ele>332.0</ele><time>2026-04-26T08:25:40.999Z</time></trkpt><trkpt lat="43.718299739368014" lon="11.780851760759619"><ele>331.5</ele><time>2026-04-26T08:25:41.999Z</time></trkpt><trkpt lat="43.718497758249555" lon="11.780694472670177"><ele>331.0</ele><time>2026-04-26T08:25:42.999Z</time></trkpt><trkpt lat="43.718698781782926" lon="11.780536639053173"><ele>332.0</ele><time>2026-04-26T08:25:43.999Z</time></trkpt><trkpt lat="43.71889986620516" lon="11.78037604632556"><ele>333.0</ele><time>2026-04-26T08:25:44.999Z</time></trkpt><trkpt lat="43.71910355341988" lon="11.780210075637763"><ele>333.0</ele><time>2026-04-26T08:25:45.999Z</time></trkpt><trkpt lat="43.719308250377914" lon="11.780054112721269"><ele>333.0</ele><time>2026-04-26T08:25:46.999Z</time></trkpt><trkpt lat="43.71952580672362" lon="11.779911410350772"><ele>333.5</ele><time>2026-04-26T08:25:47.999Z</time></trkpt><trkpt lat="43.7197216879012" lon="11.77972269846249"><ele>334.0</ele><time>2026-04-26T08:25:48.999Z</time></trkpt><trkpt lat="43.71993115807472" lon="11.779558986559918"><ele>334.0</ele><time>2026-04-26T08:25:49.999Z</time></trkpt><trkpt lat="43.720143402354864" lon="11.779395962909918"><ele>334.0</ele><time>2026-04-26T08:25:50.999Z</time></trkpt><trkpt lat="43.72035477176823" lon="11.779229306371313"><ele>334.0</ele><time>2026-04-26T08:25:51.999Z</time></trkpt><trkpt lat="43.72056683269329" lon="11.77906073820532"><ele>334.0</ele><time>2026-04-26T08:25:52.999Z</time></trkpt><trkpt lat="43.720775660952654" lon="11.77889209077351"><ele>334.0</ele><time>2026-04-26T08:25:53.999Z</time></trkpt><trkpt lat="43.720988487489755" lon="11.778741904177783"><ele>334.0</ele><time>2026-04-26T08:25:54.999Z</time></trkpt><trkpt lat="43.72118839156777" lon="11.778582985834907"><ele>334.0</ele><time>2026-04-26T08:25:55.999Z</time></trkpt><trkpt lat="43.72137613177227" lon="11.778424191791974"><ele>334.0</ele><time>2026-04-26T08:25:56.999Z</time></trkpt><trkpt lat="43.72145865393802" lon="11.778048581092728"><ele>334.0</ele><time>2026-04-26T08:25:57.999Z</time></trkpt><trkpt lat="43.72157706900254" lon="11.777789378874724"><ele>334.0</ele><time>2026-04-26T08:25:58.999Z</time></trkpt><trkpt lat="43.7216785153665" lon="11.777521553073356"><ele>334.0</ele><time>2026-04-26T08:25:59.999Z</time></trkpt><trkpt lat="43.721764397411334" lon="11.77724266022485"><ele>334.0</ele><time>2026-04-26T08:26:00.999Z</time></trkpt><trkpt lat="43.7218493098792" lon="11.776967086624913"><ele>334.0</ele><time>2026-04-26T08:26:01.999Z</time></trkpt><trkpt lat="43.72195593347337" lon="11.776709869062982"><ele>334.0</ele><time>2026-04-26T08:26:02.999Z</time></trkpt><trkpt lat="43.72208375647515" lon="11.776474149393026"><ele>335.0</ele><time>2026-04-26T08:26:03.999Z</time></trkpt><trkpt lat="43.7222302307641" lon="11.776264745727403"><ele>336.0</ele><time>2026-04-26T08:26:04.999Z</time></trkpt><trkpt lat="43.72239073273841" lon="11.776081962203476"><ele>337.0</ele><time>2026-04-26T08:26:05.999Z</time></trkpt><trkpt lat="43.7225616891412" lon="11.775922345631969"><ele>338.0</ele><time>2026-04-26T08:26:06.999Z</time></trkpt><trkpt lat="43.722731606198984" lon="11.775789515857072"><ele>339.0</ele><time>2026-04-26T08:26:07.999Z</time></trkpt><trkpt lat="43.722905693530194" lon="11.775677882956154"><ele>340.0</ele><time>2026-04-26T08:26:08.999Z</time></trkpt><trkpt lat="43.72307543660002" lon="11.77559542714172"><ele>340.0</ele><time>2026-04-26T08:26:09.999Z</time></trkpt><trkpt lat="43.723239737590205" lon="11.775542135145118"><ele>340.0</ele><time>2026-04-26T08:26:10.999Z</time></trkpt><trkpt lat="43.723394188274284" lon="11.77549105875429"><ele>340.0</ele><time>2026-04-26T08:26:11.999Z</time></trkpt><trkpt lat="43.72354235331641" lon="11.77543851823232"><ele>340.5</ele><time>2026-04-26T08:26:12.999Z</time></trkpt><trkpt lat="43.72368537121959" lon="11.775387756931602"><ele>341.0</ele><time>2026-04-26T08:26:13.999Z</time></trkpt><trkpt lat="43.72382365779677" lon="11.775337749863649"><ele>341.5</ele><time>2026-04-26T08:26:14.999Z</time></trkpt><trkpt lat="43.723957328248545" lon="11.775289952507555"><ele>342.0</ele><time>2026-04-26T08:26:15.999Z</time></trkpt><trkpt lat="43.72409559253089" lon="11.775240104277195"><ele>342.0</ele><time>2026-04-26T08:26:16.999Z</time></trkpt><trkpt lat="43.72423855044892" lon="11.775188421942225"><ele>342.0</ele><time>2026-04-26T08:26:17.999Z</time></trkpt><trkpt lat="43.72438122272242" lon="11.775137756442922"><ele>342.0</ele><time>2026-04-26T08:26:18.999Z</time></trkpt><trkpt lat="43.72452448882434" lon="11.77508617079006"><ele>342.0</ele><time>2026-04-26T08:26:19.999Z</time></trkpt><trkpt lat="43.724670064610706" lon="11.775035649038205"><ele>342.0</ele><time>2026-04-26T08:26:20.999Z</time></trkpt><trkpt lat="43.72480819088243" lon="11.774987578910826"><ele>342.0</ele><time>2026-04-26T08:26:21.999Z</time></trkpt><trkpt lat="43.724937235423305" lon="11.774941495312195"><ele>342.0</ele><time>2026-04-26T08:26:22.999Z</time></trkpt><trkpt lat="43.72505588377408" lon="11.774899459176522"><ele>342.0</ele><time>2026-04-26T08:26:23.999Z</time></trkpt><trkpt lat="43.72516905393654" lon="11.774858174499649"><ele>342.0</ele><time>2026-04-26T08:26:24.999Z</time></trkpt><trkpt lat="43.72527777853825" lon="11.774813840304075"><ele>342.0</ele><time>2026-04-26T08:26:26Z</time></trkpt><trkpt lat="43.725382803198954" lon="11.774767893322819"><ele>342.0</ele><time>2026-04-26T08:26:27Z</time></trkpt><trkpt lat="43.72548096155408" lon="11.774720404293722"><ele>342.0</ele><time>2026-04-26T08:26:28Z</time></trkpt><trkpt lat="43.72557498873428" lon="11.77467856355381"><ele>342.0</ele><time>2026-04-26T08:26:29Z</time></trkpt><trkpt lat="43.725667290631655" lon="11.774639833568937"><ele>342.0</ele><time>2026-04-26T08:26:30Z</time></trkpt><trkpt lat="43.725761967305516" lon="11.774593333566445"><ele>342.0</ele><time>2026-04-26T08:26:31Z</time></trkpt><trkpt lat="43.7258501566666" lon="11.774535038296523"><ele>342.0</ele><time>2026-04-26T08:26:32Z</time></trkpt><trkpt lat="43.72593291500227" lon="11.774453752115363"><ele>342.0</ele><time>2026-04-26T08:26:33Z</time></trkpt><trkpt lat="43.726008306384564" lon="11.774377448470158"><ele>342.0</ele><time>2026-04-26T08:26:34Z</time></trkpt><trkpt lat="43.7260726771513" lon="11.774293789227418"><ele>343.40000000000003</ele><time>2026-04-26T08:26:35Z</time></trkpt><trkpt lat="43.7261303881738" lon="11.774198308667971"><ele>344.8</ele><time>2026-04-26T08:26:36Z</time></trkpt><trkpt lat="43.72619226563783" lon="11.774084135806103"><ele>346.2</ele><time>2026-04-26T08:26:37Z</time></trkpt><trkpt lat="43.72625690010486" lon="11.773975265810869"><ele>347.6</ele><time>2026-04-26T08:26:38Z</time></trkpt><trkpt lat="43.72632559147986" lon="11.773862046211805"><ele>349.0</ele><time>2026-04-26T08:26:39Z</time></trkpt><trkpt lat="43.72640059578278" lon="11.77371917555928"><ele>349.0</ele><time>2026-04-26T08:26:40Z</time></trkpt><trkpt lat="43.72648326450931" lon="11.773548653517105"><ele>349.0</ele><time>2026-04-26T08:26:41Z</time></trkpt><trkpt lat="43.726573973265495" lon="11.773370961265032"><ele>349.0</ele><time>2026-04-26T08:26:42Z</time></trkpt><trkpt lat="43.726654165250096" lon="11.773207392527183"><ele>349.0</ele><time>2026-04-26T08:26:43Z</time></trkpt><trkpt lat="43.72670810273529" lon="11.773057365341707"><ele>347.79999999999995</ele><time>2026-04-26T08:26:44Z</time></trkpt><trkpt lat="43.72675016552257" lon="11.772922479381771"><ele>346.59999999999997</ele><time>2026-04-26T08:26:45Z</time></trkpt><trkpt lat="43.726806964381744" lon="11.772813262494285"><ele>345.4</ele><time>2026-04-26T08:26:46Z</time></trkpt><trkpt lat="43.72688648635925" lon="11.77273408628311"><ele>344.2</ele><time>2026-04-26T08:26:47Z</time></trkpt><trkpt lat="43.72696519158508" lon="11.772667502962019"><ele>343.0</ele><time>2026-04-26T08:26:48Z</time></trkpt><trkpt lat="43.727006237550526" lon="11.772580811468492"><ele>343.0</ele><time>2026-04-26T08:26:49Z</time></trkpt><trkpt lat="43.72701330448143" lon="11.772466160346404"><ele>343.0</ele><time>2026-04-26T08:26:50Z</time></trkpt><trkpt lat="43.72699337388938" lon="11.772336695225592"><ele>343.0</ele><time>2026-04-26T08:26:51Z</time></trkpt><trkpt lat="43.72697793093201" lon="11.772201314484048"><ele>343.0</ele><time>2026-04-26T08:26:52Z</time></trkpt><trkpt lat="43.72699116688279" lon="11.772065250800736"><ele>343.0</ele><time>2026-04-26T08:26:53Z</time></trkpt><trkpt lat="43.727019183896886" lon="11.771930138955728"><ele>343.75</ele><time>2026-04-26T08:26:54Z</time></trkpt><trkpt lat="43.72705643167346" lon="11.771780340461873"><ele>344.5</ele><time>2026-04-26T08:26:55Z</time></trkpt><trkpt lat="43.727103444296624" lon="11.771611129583993"><ele>345.25</ele><time>2026-04-26T08:26:56Z</time></trkpt><trkpt lat="43.72715398121656" lon="11.771439456530063"><ele>346.0</ele><time>2026-04-26T08:26:57Z</time></trkpt><trkpt lat="43.7272054625483" lon="11.771284109195417"><ele>346.0</ele><time>2026-04-26T08:26:58Z</time></trkpt><trkpt lat="43.72725012370918" lon="11.77113652033515"><ele>346.0</ele><time>2026-04-26T08:26:59Z</time></trkpt><trkpt lat="43.72729102902627" lon="11.771000202419549"><ele>346.0</ele><time>2026-04-26T08:27:00Z</time></trkpt><trkpt lat="43.72733504019523" lon="11.770866488839676"><ele>346.0</ele><time>2026-04-26T08:27:01Z</time></trkpt><trkpt lat="43.72738353363638" lon="11.770726319396186"><ele>346.0</ele><time>2026-04-26T08:27:02Z</time></trkpt><trkpt lat="43.727466988741874" lon="11.770609303646395"><ele>345.5</ele><time>2026-04-26T08:27:03Z</time></trkpt><trkpt lat="43.72753553896153" lon="11.770480806863173"><ele>345.0</ele><time>2026-04-26T08:27:04Z</time></trkpt><trkpt lat="43.72760762509961" lon="11.770352218602094"><ele>344.5</ele><time>2026-04-26T08:27:05Z</time></trkpt><trkpt lat="43.72767994910417" lon="11.770230327966493"><ele>344.0</ele><time>2026-04-26T08:27:06Z</time></trkpt><trkpt lat="43.7277502648691" lon="11.77011138772171"><ele>346.25</ele><time>2026-04-26T08:27:07Z</time></trkpt><trkpt lat="43.727828297386765" lon="11.769979531480011"><ele>348.5</ele><time>2026-04-26T08:27:08Z</time></trkpt><trkpt lat="43.72791433841412" lon="11.769834142778743"><ele>350.75</ele><time>2026-04-26T08:27:09Z</time></trkpt><trkpt lat="43.72800700256537" lon="11.769677953323512"><ele>353.0</ele><time>2026-04-26T08:27:10Z</time></trkpt><trkpt lat="43.72810064259498" lon="11.76952076003099"><ele>353.0</ele><time>2026-04-26T08:27:11Z</time></trkpt><trkpt lat="43.72819223556268" lon="11.769367003139788"><ele>353.0</ele><time>2026-04-26T08:27:12Z</time></trkpt><trkpt lat="43.72828179305268" lon="11.769219083901831"><ele>353.0</ele><time>2026-04-26T08:27:13Z</time></trkpt><trkpt lat="43.72836799922468" lon="11.769078143646121"><ele>353.0</ele><time>2026-04-26T08:27:14Z</time></trkpt><trkpt lat="43.72845019972243" lon="11.768942760616444"><ele>353.25</ele><time>2026-04-26T08:27:15Z</time></trkpt><trkpt lat="43.728532620164884" lon="11.768830856755578"><ele>353.5</ele><time>2026-04-26T08:27:16Z</time></trkpt><trkpt lat="43.728629864455584" lon="11.76874986756695"><ele>353.75</ele><time>2026-04-26T08:27:17Z</time></trkpt><trkpt lat="43.728742694851725" lon="11.76866663112646"><ele>354.0</ele><time>2026-04-26T08:27:18Z</time></trkpt><trkpt lat="43.72886011199464" lon="11.768581798416758"><ele>351.5</ele><time>2026-04-26T08:27:19Z</time></trkpt><trkpt lat="43.72898136305319" lon="11.768495846764583"><ele>349.0</ele><time>2026-04-26T08:27:20Z</time></trkpt><trkpt lat="43.729104946952575" lon="11.768408515360164"><ele>346.5</ele><time>2026-04-26T08:27:21Z</time></trkpt><trkpt lat="43.72923126172531" lon="11.768319299512275"><ele>344.0</ele><time>2026-04-26T08:27:22Z</time></trkpt><trkpt lat="43.72935001924192" lon="11.76819495829904"><ele>344.33333333333337</ele><time>2026-04-26T08:27:23Z</time></trkpt><trkpt lat="43.72948368582415" lon="11.768099661365028"><ele>344.6666666666667</ele><time>2026-04-26T08:27:24Z</time></trkpt><trkpt lat="43.72962045528743" lon="11.768005779157514"><ele>345.0</ele><time>2026-04-26T08:27:25Z</time></trkpt><trkpt lat="43.72975724047691" lon="11.767910935175856"><ele>345.0</ele><time>2026-04-26T08:27:26Z</time></trkpt><trkpt lat="43.72989574324765" lon="11.767813495576668"><ele>345.0</ele><time>2026-04-26T08:27:27Z</time></trkpt><trkpt lat="43.73003599475153" lon="11.767715941959596"><ele>345.0</ele><time>2026-04-26T08:27:28Z</time></trkpt><trkpt lat="43.73017584134126" lon="11.767618005235985"><ele>345.0</ele><time>2026-04-26T08:27:29Z</time></trkpt><trkpt lat="43.73031797577977" lon="11.767520825009546"><ele>345.0</ele><time>2026-04-26T08:27:30Z</time></trkpt><trkpt lat="43.730458817503894" lon="11.767422257113436"><ele>345.0</ele><time>2026-04-26T08:27:31Z</time></trkpt><trkpt lat="43.730599822875355" lon="11.767319887819564"><ele>345.0</ele><time>2026-04-26T08:27:32Z</time></trkpt><trkpt lat="43.730741702647045" lon="11.767219563961566"><ele>345.0</ele><time>2026-04-26T08:27:33Z</time></trkpt><trkpt lat="43.73088353078662" lon="11.76711797136602"><ele>345.0</ele><time>2026-04-26T08:27:33.999Z</time></trkpt><trkpt lat="43.73103546354076" lon="11.767042798097336"><ele>345.3333333333333</ele><time>2026-04-26T08:27:34.999Z</time></trkpt><trkpt lat="43.731177750835435" lon="11.766943185200882"><ele>345.66666666666663</ele><time>2026-04-26T08:27:35.999Z</time></trkpt><trkpt lat="43.73132029068113" lon="11.766841598432046"><ele>346.0</ele><time>2026-04-26T08:27:36.999Z</time></trkpt><trkpt lat="43.731459727559184" lon="11.766735983495597"><ele>346.0</ele><time>2026-04-26T08:27:37.999Z</time></trkpt><trkpt lat="43.73158684919003" lon="11.766634769126764"><ele>346.0</ele><time>2026-04-26T08:27:38.999Z</time></trkpt><trkpt lat="43.731706454740895" lon="11.766532719766603"><ele>346.0</ele><time>2026-04-26T08:27:39.999Z</time></trkpt><trkpt lat="43.731815780945944" lon="11.76644258833658"><ele>346.0</ele><time>2026-04-26T08:27:40.999Z</time></trkpt><trkpt lat="43.731913436031576" lon="11.766331617358752"><ele>345.75</ele><time>2026-04-26T08:27:41.999Z</time></trkpt><trkpt lat="43.731972868229406" lon="11.76618132024278"><ele>345.5</ele><time>2026-04-26T08:27:42.999Z</time></trkpt><trkpt lat="43.73199781515289" lon="11.766007245740756"><ele>345.25</ele><time>2026-04-26T08:27:43.999Z</time></trkpt><trkpt lat="43.73203206391603" lon="11.765814486850408"><ele>345.0</ele><time>2026-04-26T08:27:44.999Z</time></trkpt><trkpt lat="43.73207565234785" lon="11.765610809984574"><ele>345.0</ele><time>2026-04-26T08:27:45.999Z</time></trkpt><trkpt lat="43.73212681683726" lon="11.765398361145051"><ele>345.0</ele><time>2026-04-26T08:27:46.999Z</time></trkpt><trkpt lat="43.732175704732356" lon="11.765194312753035"><ele>345.0</ele><time>2026-04-26T08:27:47.999Z</time></trkpt><trkpt lat="43.73225525257453" lon="11.765007790096277"><ele>345.0</ele><time>2026-04-26T08:27:48.999Z</time></trkpt><trkpt lat="43.73230625764358" lon="11.764802505209362"><ele>345.0</ele><time>2026-04-26T08:27:49.999Z</time></trkpt><trkpt lat="43.73235790904109" lon="11.764595712526324"><ele>345.0</ele><time>2026-04-26T08:27:50.999Z</time></trkpt><trkpt lat="43.73240944273311" lon="11.764387941765666"><ele>345.0</ele><time>2026-04-26T08:27:51.999Z</time></trkpt><trkpt lat="43.73246138767094" lon="11.764178512945545"><ele>345.0</ele><time>2026-04-26T08:27:52.999Z</time></trkpt><trkpt lat="43.732486537223735" lon="11.763956661605604"><ele>345.0</ele><time>2026-04-26T08:27:53.999Z</time></trkpt><trkpt lat="43.732540462775006" lon="11.763748691320874"><ele>345.0</ele><time>2026-04-26T08:27:54.999Z</time></trkpt><trkpt lat="43.7325941869344" lon="11.763538986455913"><ele>345.0</ele><time>2026-04-26T08:27:55.999Z</time></trkpt><trkpt lat="43.73264880786399" lon="11.763328682300209"><ele>345.0</ele><time>2026-04-26T08:27:56.999Z</time></trkpt><trkpt lat="43.732703810522224" lon="11.763118709222598"><ele>346.3333333333333</ele><time>2026-04-26T08:27:57.999Z</time></trkpt><trkpt lat="43.732781895197895" lon="11.762922762308055"><ele>347.66666666666663</ele><time>2026-04-26T08:27:58.999Z</time></trkpt><trkpt lat="43.73283364185871" lon="11.762722114296833"><ele>349.0</ele><time>2026-04-26T08:27:59.999Z</time></trkpt><trkpt lat="43.732883704690344" lon="11.762527995354843"><ele>349.0</ele><time>2026-04-26T08:28:00.999Z</time></trkpt><trkpt lat="43.73291650185824" lon="11.762342003602434"><ele>349.0</ele><time>2026-04-26T08:28:01.999Z</time></trkpt><trkpt lat="43.73298055854333" lon="11.762152443912354"><ele>349.0</ele><time>2026-04-26T08:28:02.999Z</time></trkpt><trkpt lat="43.73300592270586" lon="11.76196294350533"><ele>349.0</ele><time>2026-04-26T08:28:03.999Z</time></trkpt><trkpt lat="43.733052596942606" lon="11.761789905817542"><ele>348.75</ele><time>2026-04-26T08:28:04.999Z</time></trkpt><trkpt lat="43.73309953329127" lon="11.761621997280326"><ele>348.5</ele><time>2026-04-26T08:28:05.999Z</time></trkpt><trkpt lat="43.73314982796768" lon="11.761463100635302"><ele>348.25</ele><time>2026-04-26T08:28:06.999Z</time></trkpt><trkpt lat="43.73320828664495" lon="11.761311878526481"><ele>348.0</ele><time>2026-04-26T08:28:07.999Z</time></trkpt><trkpt lat="43.73327770992672" lon="11.761149123337681"><ele>347.6666666666667</ele><time>2026-04-26T08:28:08.999Z</time></trkpt><trkpt lat="43.733399020443365" lon="11.76100060286385"><ele>347.33333333333337</ele><time>2026-04-26T08:28:09.999Z</time></trkpt><trkpt lat="43.733512326112155" lon="11.760806262375304"><ele>347.0</ele><time>2026-04-26T08:28:10.999Z</time></trkpt><trkpt lat="43.73363545176447" lon="11.760595962135785"><ele>348.0</ele><time>2026-04-26T08:28:11.999Z</time></trkpt><trkpt lat="43.73374576899731" lon="11.760374314440652"><ele>349.0</ele><time>2026-04-26T08:28:12.999Z</time></trkpt><trkpt lat="43.733864195506264" lon="11.760152751069844"><ele>350.0</ele><time>2026-04-26T08:28:13.999Z</time></trkpt><trkpt lat="43.733961929052796" lon="11.759908422715284"><ele>350.0</ele><time>2026-04-26T08:28:14.999Z</time></trkpt><trkpt lat="43.7340388521905" lon="11.759645665218255"><ele>350.0</ele><time>2026-04-26T08:28:15.999Z</time></trkpt><trkpt lat="43.734127125201255" lon="11.75938304122186"><ele>350.0</ele><time>2026-04-26T08:28:16.999Z</time></trkpt><trkpt lat="43.73420108517902" lon="11.759102490440803"><ele>350.0</ele><time>2026-04-26T08:28:17.998Z</time></trkpt><trkpt lat="43.73428005566835" lon="11.758835155374175"><ele>350.0</ele><time>2026-04-26T08:28:18.998Z</time></trkpt><trkpt lat="43.734366277984165" lon="11.75858120416691"><ele>350.0</ele><time>2026-04-26T08:28:19.998Z</time></trkpt><trkpt lat="43.734459649766734" lon="11.758334009408038"><ele>351.6666666666667</ele><time>2026-04-26T08:28:20.998Z</time></trkpt><trkpt lat="43.73456754627008" lon="11.758105637574294"><ele>353.3333333333333</ele><time>2026-04-26T08:28:21.998Z</time></trkpt><trkpt lat="43.73469100515853" lon="11.75789690948837"><ele>355.0</ele><time>2026-04-26T08:28:22.998Z</time></trkpt><trkpt lat="43.73482902252097" lon="11.7577016397691"><ele>356.0</ele><time>2026-04-26T08:28:23.998Z</time></trkpt><trkpt lat="43.73496499028293" lon="11.757490976596722"><ele>357.0</ele><time>2026-04-26T08:28:24.998Z</time></trkpt><trkpt lat="43.73507195688089" lon="11.757241497790872"><ele>358.0</ele><time>2026-04-26T08:28:25.998Z</time></trkpt><trkpt lat="43.735169014414275" lon="11.75698905180378"><ele>357.66666666666663</ele><time>2026-04-26T08:28:26.998Z</time></trkpt><trkpt lat="43.73527617880194" lon="11.756745508842686"><ele>357.3333333333333</ele><time>2026-04-26T08:28:27.998Z</time></trkpt><trkpt lat="43.73540805425944" lon="11.756523157514726"><ele>357.0</ele><time>2026-04-26T08:28:28.998Z</time></trkpt><trkpt lat="43.735555547453345" lon="11.756311037842588"><ele>357.0</ele><time>2026-04-26T08:28:29.998Z</time></trkpt><trkpt lat="43.735704818961345" lon="11.756100046948045"><ele>357.0</ele><time>2026-04-26T08:28:30.998Z</time></trkpt><trkpt lat="43.73584875224453" lon="11.755874033847427"><ele>357.0</ele><time>2026-04-26T08:28:32Z</time></trkpt><trkpt lat="43.735972567558456" lon="11.755624988141612"><ele>357.0</ele><time>2026-04-26T08:28:33Z</time></trkpt><trkpt lat="43.73608323060944" lon="11.75538260406984"><ele>357.0</ele><time>2026-04-26T08:28:34Z</time></trkpt><trkpt lat="43.73618849365171" lon="11.755158061008446"><ele>357.0</ele><time>2026-04-26T08:28:35Z</time></trkpt><trkpt lat="43.736297491464875" lon="11.754953678714836"><ele>357.0</ele><time>2026-04-26T08:28:36Z</time></trkpt><trkpt lat="43.7364214527148" lon="11.754774768518823"><ele>357.0</ele><time>2026-04-26T08:28:37Z</time></trkpt><trkpt lat="43.736555271127415" lon="11.754608330477671"><ele>357.0</ele><time>2026-04-26T08:28:38Z</time></trkpt><trkpt lat="43.73668081032499" lon="11.75442670469983"><ele>357.6666666666667</ele><time>2026-04-26T08:28:39Z</time></trkpt><trkpt lat="43.73682739039242" lon="11.754280804909653"><ele>358.33333333333337</ele><time>2026-04-26T08:28:40Z</time></trkpt><trkpt lat="43.73695802268812" lon="11.754127271957891"><ele>359.0</ele><time>2026-04-26T08:28:41Z</time></trkpt><trkpt lat="43.73708035642043" lon="11.753976438572755"><ele>359.0</ele><time>2026-04-26T08:28:42Z</time></trkpt><trkpt lat="43.737190371780926" lon="11.753826067872076"><ele>359.0</ele><time>2026-04-26T08:28:43Z</time></trkpt><trkpt lat="43.73728728708899" lon="11.753673048637548"><ele>359.0</ele><time>2026-04-26T08:28:44Z</time></trkpt><trkpt lat="43.73737530355576" lon="11.75353452454223"><ele>359.0</ele><time>2026-04-26T08:28:45Z</time></trkpt><trkpt lat="43.73745271535721" lon="11.753387010310119"><ele>358.79999999999995</ele><time>2026-04-26T08:28:46Z</time></trkpt><trkpt lat="43.73754016600967" lon="11.753270920161663"><ele>358.59999999999997</ele><time>2026-04-26T08:28:47Z</time></trkpt><trkpt lat="43.73763866239886" lon="11.753185146300414"><ele>358.4</ele><time>2026-04-26T08:28:48Z</time></trkpt><trkpt lat="43.73771661389091" lon="11.753100165109457"><ele>358.2</ele><time>2026-04-26T08:28:49Z</time></trkpt><trkpt lat="43.73780955265505" lon="11.753071050290375"><ele>358.0</ele><time>2026-04-26T08:28:50Z</time></trkpt><trkpt lat="43.73790026355163" lon="11.753086428916328"><ele>358.0</ele><time>2026-04-26T08:28:51Z</time></trkpt><trkpt lat="43.73798426236077" lon="11.753098354003457"><ele>358.0</ele><time>2026-04-26T08:28:52Z</time></trkpt><trkpt lat="43.73806153131265" lon="11.753076264112272"><ele>358.0</ele><time>2026-04-26T08:28:53Z</time></trkpt><trkpt lat="43.73812516137559" lon="11.753011682956885"><ele>358.0</ele><time>2026-04-26T08:28:54Z</time></trkpt><trkpt lat="43.73818444009091" lon="11.752939006363096"><ele>358.0</ele><time>2026-04-26T08:28:55Z</time></trkpt><trkpt lat="43.73818822863073" lon="11.752812474644537"><ele>358.0</ele><time>2026-04-26T08:28:56Z</time></trkpt><trkpt lat="43.73818315840439" lon="11.752714732632834"><ele>357.79999999999995</ele><time>2026-04-26T08:28:57Z</time></trkpt><trkpt lat="43.73816031770954" lon="11.752584796271847"><ele>357.6</ele><time>2026-04-26T08:28:59Z</time></trkpt><trkpt lat="43.738226504415096" lon="11.75235588909253"><ele>357.4</ele><time>2026-04-26T08:29:13.999Z</time></trkpt><trkpt lat="43.738257213177725" lon="11.752277594381018"><ele>357.20000000000005</ele><time>2026-04-26T08:29:14.999Z</time></trkpt><trkpt lat="43.738298557918924" lon="11.752188123659765"><ele>357.0</ele><time>2026-04-26T08:29:15.999Z</time></trkpt><trkpt lat="43.738353041294666" lon="11.752101018156354"><ele>357.0</ele><time>2026-04-26T08:29:16.999Z</time></trkpt><trkpt lat="43.73841526790894" lon="11.752000291953859"><ele>357.0</ele><time>2026-04-26T08:29:17.999Z</time></trkpt><trkpt lat="43.7385031272011" lon="11.75190201486664"><ele>357.0</ele><time>2026-04-26T08:29:18.999Z</time></trkpt><trkpt lat="43.738591970273205" lon="11.751784862311291"><ele>357.0</ele><time>2026-04-26T08:29:19.999Z</time></trkpt><trkpt lat="43.73868084837494" lon="11.751662836548373"><ele>357.5</ele><time>2026-04-26T08:29:20.999Z</time></trkpt><trkpt lat="43.73877740599166" lon="11.75151985195775"><ele>358.0</ele><time>2026-04-26T08:29:21.999Z</time></trkpt><trkpt lat="43.73887493047385" lon="11.751361814850473"><ele>358.5</ele><time>2026-04-26T08:29:22.999Z</time></trkpt><trkpt lat="43.73897101337626" lon="11.751203201358003"><ele>359.0</ele><time>2026-04-26T08:29:23.999Z</time></trkpt><trkpt lat="43.73907142488775" lon="11.75103680773057"><ele>359.0</ele><time>2026-04-26T08:29:24.999Z</time></trkpt><trkpt lat="43.7391796135035" lon="11.750857526498791"><ele>359.0</ele><time>2026-04-26T08:29:25.999Z</time></trkpt><trkpt lat="43.73928653437603" lon="11.750680346083081"><ele>359.0</ele><time>2026-04-26T08:29:26.999Z</time></trkpt><trkpt lat="43.73939722788451" lon="11.750498697964233"><ele>359.0</ele><time>2026-04-26T08:29:27.999Z</time></trkpt><trkpt lat="43.73951167357543" lon="11.750310476973892"><ele>359.0</ele><time>2026-04-26T08:29:28.999Z</time></trkpt><trkpt lat="43.73962794463647" lon="11.750117317896516"><ele>359.0</ele><time>2026-04-26T08:29:29.999Z</time></trkpt><trkpt lat="43.739750567732756" lon="11.749928059212749"><ele>359.0</ele><time>2026-04-26T08:29:30.999Z</time></trkpt><trkpt lat="43.73987148977569" lon="11.749742229174897"><ele>359.0</ele><time>2026-04-26T08:29:31.999Z</time></trkpt><trkpt lat="43.74002959001414" lon="11.749599928675572"><ele>359.0</ele><time>2026-04-26T08:29:32.999Z</time></trkpt><trkpt lat="43.740196642095995" lon="11.749468382663101"><ele>360.33333333333337</ele><time>2026-04-26T08:29:33.999Z</time></trkpt><trkpt lat="43.740367172013016" lon="11.749340057849533"><ele>361.6666666666667</ele><time>2026-04-26T08:29:34.999Z</time></trkpt><trkpt lat="43.740547438648825" lon="11.749223233720157"><ele>363.0</ele><time>2026-04-26T08:29:35.999Z</time></trkpt><trkpt lat="43.74067577942023" lon="11.748982749640222"><ele>363.0</ele><time>2026-04-26T08:29:36.999Z</time></trkpt><trkpt lat="43.74085062267369" lon="11.748818448659314"><ele>363.0</ele><time>2026-04-26T08:29:37.999Z</time></trkpt><trkpt lat="43.74102027636882" lon="11.748659024317988"><ele>363.0</ele><time>2026-04-26T08:29:38.999Z</time></trkpt><trkpt lat="43.74118515976403" lon="11.748467985241662"><ele>361.6666666666667</ele><time>2026-04-26T08:29:39.999Z</time></trkpt><trkpt lat="43.74135631273815" lon="11.748295868244572"><ele>360.33333333333337</ele><time>2026-04-26T08:29:40.999Z</time></trkpt><trkpt lat="43.741523965765765" lon="11.74811507641731"><ele>359.0</ele><time>2026-04-26T08:29:41.999Z</time></trkpt><trkpt lat="43.74168756973145" lon="11.747921226941523"><ele>359.0</ele><time>2026-04-26T08:29:42.999Z</time></trkpt><trkpt lat="43.74186343138742" lon="11.747745526322019"><ele>359.0</ele><time>2026-04-26T08:29:43.999Z</time></trkpt><trkpt lat="43.74202152823934" lon="11.747551063874257"><ele>359.0</ele><time>2026-04-26T08:29:44.999Z</time></trkpt><trkpt lat="43.742175587101876" lon="11.747361737999519"><ele>359.6666666666667</ele><time>2026-04-26T08:29:45.999Z</time></trkpt><trkpt lat="43.74232529671321" lon="11.747179101458668"><ele>360.3333333333333</ele><time>2026-04-26T08:29:46.999Z</time></trkpt><trkpt lat="43.74245250024287" lon="11.747004022853684"><ele>361.0</ele><time>2026-04-26T08:29:47.999Z</time></trkpt><trkpt lat="43.742582320813334" lon="11.746858846024177"><ele>361.75</ele><time>2026-04-26T08:29:48.999Z</time></trkpt><trkpt lat="43.74271521620977" lon="11.746746299184586"><ele>362.5</ele><time>2026-04-26T08:29:49.999Z</time></trkpt><trkpt lat="43.74283897193716" lon="11.746650780413345"><ele>363.25</ele><time>2026-04-26T08:29:50.999Z</time></trkpt><trkpt lat="43.74295501239141" lon="11.746563141563508"><ele>364.0</ele><time>2026-04-26T08:29:51.999Z</time></trkpt><trkpt lat="43.743064164407876" lon="11.746483400630416"><ele>364.0</ele><time>2026-04-26T08:29:52.999Z</time></trkpt><trkpt lat="43.74316774215158" lon="11.746407731913948"><ele>364.0</ele><time>2026-04-26T08:29:53.999Z</time></trkpt><trkpt lat="43.74326030607718" lon="11.746321764272015"><ele>364.0</ele><time>2026-04-26T08:29:54.999Z</time></trkpt><trkpt lat="43.74335290353133" lon="11.74625727055618"><ele>364.0</ele><time>2026-04-26T08:29:55.999Z</time></trkpt><trkpt lat="43.7434340965003" lon="11.746199860913851"><ele>364.0</ele><time>2026-04-26T08:29:56.999Z</time></trkpt><trkpt lat="43.74349851643759" lon="11.746156303505172"><ele>364.0</ele><time>2026-04-26T08:29:57.999Z</time></trkpt><trkpt lat="43.743567826468635" lon="11.746118652779444"><ele>364.0</ele><time>2026-04-26T08:29:59.999Z</time></trkpt><trkpt lat="43.74363690462435" lon="11.7460554156902"><ele>364.0</ele><time>2026-04-26T08:30:25.999Z</time></trkpt><trkpt lat="43.743700868392466" lon="11.7460016147676"><ele>364.0</ele><time>2026-04-26T08:30:26.999Z</time></trkpt><trkpt lat="43.74378669447043" lon="11.745966287372756"><ele>364.0</ele><time>2026-04-26T08:30:27.999Z</time></trkpt><trkpt lat="43.74386904543295" lon="11.745908773637659"><ele>364.0</ele><time>2026-04-26T08:30:28.999Z</time></trkpt><trkpt lat="43.74396829104326" lon="11.745839460670842"><ele>364.0</ele><time>2026-04-26T08:30:29.999Z</time></trkpt><trkpt lat="43.74406916045408" lon="11.745769013872277"><ele>364.0</ele><time>2026-04-26T08:30:30.999Z</time></trkpt><trkpt lat="43.744187051397084" lon="11.745688688718424"><ele>364.0</ele><time>2026-04-26T08:30:31.999Z</time></trkpt><trkpt lat="43.74431583538108" lon="11.745601011117127"><ele>364.0</ele><time>2026-04-26T08:30:32.999Z</time></trkpt><trkpt lat="43.744445231195385" lon="11.745517996173762"><ele>364.3333333333333</ele><time>2026-04-26T08:30:33.999Z</time></trkpt><trkpt lat="43.744574175043915" lon="11.745403354288335"><ele>364.6666666666667</ele><time>2026-04-26T08:30:34.999Z</time></trkpt><trkpt lat="43.74472607325814" lon="11.745314501842513"><ele>365.0</ele><time>2026-04-26T08:30:35.999Z</time></trkpt><trkpt lat="43.744879846822485" lon="11.745204460252637"><ele>365.0</ele><time>2026-04-26T08:30:36.999Z</time></trkpt><trkpt lat="43.74503476277499" lon="11.745093754422872"><ele>365.0</ele><time>2026-04-26T08:30:38Z</time></trkpt><trkpt lat="43.74519532179768" lon="11.744977736654352"><ele>365.0</ele><time>2026-04-26T08:30:39Z</time></trkpt><trkpt lat="43.745360340790214" lon="11.744855073191927"><ele>365.6666666666667</ele><time>2026-04-26T08:30:40Z</time></trkpt><trkpt lat="43.74552940758617" lon="11.744726437589433"><ele>366.3333333333333</ele><time>2026-04-26T08:30:41Z</time></trkpt><trkpt lat="43.74569468168494" lon="11.744593103487661"><ele>367.0</ele><time>2026-04-26T08:30:42Z</time></trkpt><trkpt lat="43.745856985858914" lon="11.74445438636094"><ele>366.3333333333333</ele><time>2026-04-26T08:30:43Z</time></trkpt><trkpt lat="43.74601980769602" lon="11.744313259167107"><ele>365.6666666666667</ele><time>2026-04-26T08:30:44Z</time></trkpt><trkpt lat="43.74617517280194" lon="11.74415334265308"><ele>365.0</ele><time>2026-04-26T08:30:45Z</time></trkpt><trkpt lat="43.74634249545085" lon="11.744053096140684"><ele>366.33333333333337</ele><time>2026-04-26T08:30:46Z</time></trkpt><trkpt lat="43.74649357737673" lon="11.743948210365343"><ele>367.6666666666667</ele><time>2026-04-26T08:30:47Z</time></trkpt><trkpt lat="43.746637730577405" lon="11.74385985581728"><ele>369.0</ele><time>2026-04-26T08:30:48Z</time></trkpt><trkpt lat="43.74678366999712" lon="11.743773138069823"><ele>368.6666666666667</ele><time>2026-04-26T08:30:49Z</time></trkpt><trkpt lat="43.746923336224576" lon="11.743681480750144"><ele>368.33333333333337</ele><time>2026-04-26T08:30:50Z</time></trkpt><trkpt lat="43.74706118363203" lon="11.743589243820221"><ele>368.0</ele><time>2026-04-26T08:30:51Z</time></trkpt><trkpt lat="43.74719649311762" lon="11.743503994376866"><ele>367.75</ele><time>2026-04-26T08:30:52Z</time></trkpt><trkpt lat="43.747328795383304" lon="11.743420815883463"><ele>367.5</ele><time>2026-04-26T08:30:53Z</time></trkpt><trkpt lat="43.747459241559795" lon="11.743338898553748"><ele>367.25</ele><time>2026-04-26T08:30:54Z</time></trkpt><trkpt lat="43.74758796821678" lon="11.743257450838417"><ele>367.0</ele><time>2026-04-26T08:30:55Z</time></trkpt><trkpt lat="43.74772212375639" lon="11.743172568190664"><ele>367.0</ele><time>2026-04-26T08:30:56Z</time></trkpt><trkpt lat="43.74786161722839" lon="11.743083743124915"><ele>367.0</ele><time>2026-04-26T08:30:57Z</time></trkpt><trkpt lat="43.748004821832616" lon="11.74299308895499"><ele>367.0</ele><time>2026-04-26T08:30:58Z</time></trkpt><trkpt lat="43.74815037463121" lon="11.742900948304525"><ele>367.0</ele><time>2026-04-26T08:30:59Z</time></trkpt><trkpt lat="43.74829928802714" lon="11.742807289665478"><ele>367.0</ele><time>2026-04-26T08:31:00Z</time></trkpt><trkpt lat="43.748452409210955" lon="11.742711924335948"><ele>367.0</ele><time>2026-04-26T08:31:01Z</time></trkpt><trkpt lat="43.74861275704543" lon="11.74261148778177"><ele>367.3333333333333</ele><time>2026-04-26T08:31:02Z</time></trkpt><trkpt lat="43.748784536158766" lon="11.742504702982648"><ele>367.6666666666667</ele><time>2026-04-26T08:31:03Z</time></trkpt><trkpt lat="43.74896177068573" lon="11.742394526851578"><ele>368.0</ele><time>2026-04-26T08:31:04Z</time></trkpt><trkpt lat="43.749145033932116" lon="11.742278991030243"><ele>368.0</ele><time>2026-04-26T08:31:05Z</time></trkpt><trkpt lat="43.74933379306972" lon="11.742161519184524"><ele>368.0</ele><time>2026-04-26T08:31:06Z</time></trkpt><trkpt lat="43.74952102500668" lon="11.742047776156625"><ele>368.0</ele><time>2026-04-26T08:31:07Z</time></trkpt><trkpt lat="43.749709063016105" lon="11.741946471676998"><ele>368.6666666666667</ele><time>2026-04-26T08:31:08Z</time></trkpt><trkpt lat="43.74990259079746" lon="11.74186188700955"><ele>369.3333333333333</ele><time>2026-04-26T08:31:09Z</time></trkpt><trkpt lat="43.75009900306483" lon="11.741782454586291"><ele>370.0</ele><time>2026-04-26T08:31:10Z</time></trkpt><trkpt lat="43.75029775765763" lon="11.741707696862246"><ele>371.0</ele><time>2026-04-26T08:31:11Z</time></trkpt><trkpt lat="43.750494332835196" lon="11.741628504783455"><ele>372.0</ele><time>2026-04-26T08:31:12Z</time></trkpt><trkpt lat="43.75068298570277" lon="11.741528325687144"><ele>373.0</ele><time>2026-04-26T08:31:13Z</time></trkpt><trkpt lat="43.75086075565309" lon="11.741396045162087"><ele>373.0</ele><time>2026-04-26T08:31:14Z</time></trkpt><trkpt lat="43.75103514499275" lon="11.741238925689851"><ele>373.0</ele><time>2026-04-26T08:31:15Z</time></trkpt><trkpt lat="43.7511978065034" lon="11.741050171719193"><ele>373.0</ele><time>2026-04-26T08:31:16Z</time></trkpt><trkpt lat="43.751375278728084" lon="11.740881375670138"><ele>373.0</ele><time>2026-04-26T08:31:17Z</time></trkpt><trkpt lat="43.751556598075624" lon="11.740715573978301"><ele>373.0</ele><time>2026-04-26T08:31:18Z</time></trkpt><trkpt lat="43.75174185873062" lon="11.740543630245416"><ele>373.0</ele><time>2026-04-26T08:31:19Z</time></trkpt><trkpt lat="43.75194344034449" lon="11.740402313342367"><ele>373.0</ele><time>2026-04-26T08:31:20Z</time></trkpt><trkpt lat="43.75213203369545" lon="11.740229548306107"><ele>373.0</ele><time>2026-04-26T08:31:21Z</time></trkpt><trkpt lat="43.752323630880156" lon="11.740054031790224"><ele>373.0</ele><time>2026-04-26T08:31:22Z</time></trkpt><trkpt lat="43.75251799954461" lon="11.739875095562025"><ele>373.0</ele><time>2026-04-26T08:31:23Z</time></trkpt><trkpt lat="43.75271397717844" lon="11.739694735210303"><ele>373.0</ele><time>2026-04-26T08:31:24Z</time></trkpt><trkpt lat="43.752908314957715" lon="11.739516305266033"><ele>373.0</ele><time>2026-04-26T08:31:25Z</time></trkpt><trkpt lat="43.75312020257708" lon="11.73935666892798"><ele>373.0</ele><time>2026-04-26T08:31:26Z</time></trkpt><trkpt lat="43.75333543910658" lon="11.739218943265106"><ele>373.0</ele><time>2026-04-26T08:31:27Z</time></trkpt><trkpt lat="43.75350749813765" lon="11.738964788683585"><ele>375.0</ele><time>2026-04-26T08:31:28Z</time></trkpt><trkpt lat="43.753709223764" lon="11.73878175044429"><ele>377.0</ele><time>2026-04-26T08:31:29Z</time></trkpt><trkpt lat="43.7539111879943" lon="11.738594445469145"><ele>376.0</ele><time>2026-04-26T08:31:30Z</time></trkpt><trkpt lat="43.754116600127915" lon="11.738406692110148"><ele>375.0</ele><time>2026-04-26T08:31:31Z</time></trkpt><trkpt lat="43.75432015888584" lon="11.738222054337617"><ele>376.5</ele><time>2026-04-26T08:31:32Z</time></trkpt><trkpt lat="43.75452379894038" lon="11.738037076892933"><ele>378.0</ele><time>2026-04-26T08:31:33Z</time></trkpt><trkpt lat="43.75472465304476" lon="11.737850836361611"><ele>377.0</ele><time>2026-04-26T08:31:34Z</time></trkpt><trkpt lat="43.75491707564367" lon="11.737671563952963"><ele>376.0</ele><time>2026-04-26T08:31:35Z</time></trkpt><trkpt lat="43.755094986498946" lon="11.737502172442978"><ele>375.0</ele><time>2026-04-26T08:31:36Z</time></trkpt><trkpt lat="43.755253976858384" lon="11.737333971102407"><ele>375.6666666666667</ele><time>2026-04-26T08:31:37Z</time></trkpt><trkpt lat="43.75538859609068" lon="11.737159250095967"><ele>376.33333333333337</ele><time>2026-04-26T08:31:38Z</time></trkpt><trkpt lat="43.755523487619456" lon="11.737004779985188"><ele>377.0</ele><time>2026-04-26T08:31:39Z</time></trkpt><trkpt lat="43.75565028366772" lon="11.736858252279651"><ele>377.0</ele><time>2026-04-26T08:31:40Z</time></trkpt><trkpt lat="43.75576706633633" lon="11.736730209324918"><ele>377.0</ele><time>2026-04-26T08:31:41Z</time></trkpt><trkpt lat="43.755874642086326" lon="11.736622876350186"><ele>377.0</ele><time>2026-04-26T08:31:42Z</time></trkpt><trkpt lat="43.75598920055912" lon="11.736557621426112"><ele>377.0</ele><time>2026-04-26T08:31:43Z</time></trkpt><trkpt lat="43.75608957691925" lon="11.736470361879762"><ele>377.6</ele><time>2026-04-26T08:31:44Z</time></trkpt><trkpt lat="43.75620205997351" lon="11.73641864913039"><ele>378.20000000000005</ele><time>2026-04-26T08:31:45Z</time></trkpt><trkpt lat="43.7563119110315" lon="11.736390393180944"><ele>378.8</ele><time>2026-04-26T08:31:46Z</time></trkpt><trkpt lat="43.7564103731657" lon="11.736404117148558"><ele>379.4</ele><time>2026-04-26T08:31:47Z</time></trkpt><trkpt lat="43.75651385236368" lon="11.73643100641151"><ele>380.0</ele><time>2026-04-26T08:31:48Z</time></trkpt><trkpt lat="43.756627154377156" lon="11.736454842405111"><ele>380.0</ele><time>2026-04-26T08:31:49Z</time></trkpt><trkpt lat="43.7567558280777" lon="11.736474811633702"><ele>380.0</ele><time>2026-04-26T08:31:50Z</time></trkpt><trkpt lat="43.75689220999748" lon="11.736471064598524"><ele>380.0</ele><time>2026-04-26T08:31:51Z</time></trkpt><trkpt lat="43.75703214521536" lon="11.736435868408405"><ele>380.0</ele><time>2026-04-26T08:31:52Z</time></trkpt><trkpt lat="43.75717991608596" lon="11.736409528531988"><ele>379.6666666666667</ele><time>2026-04-26T08:31:53Z</time></trkpt><trkpt lat="43.75733782928533" lon="11.736372279319728"><ele>379.3333333333333</ele><time>2026-04-26T08:31:53.999Z</time></trkpt><trkpt lat="43.75750814104384" lon="11.736332105584633"><ele>379.0</ele><time>2026-04-26T08:31:54.999Z</time></trkpt><trkpt lat="43.75764273556978" lon="11.73604612619832"><ele>380.0</ele><time>2026-04-26T08:31:55.999Z</time></trkpt><trkpt lat="43.75780964166312" lon="11.735940778143926"><ele>381.0</ele><time>2026-04-26T08:31:56.999Z</time></trkpt><trkpt lat="43.75798024172661" lon="11.735840560920897"><ele>382.0</ele><time>2026-04-26T08:31:57.999Z</time></trkpt><trkpt lat="43.75816253134583" lon="11.735730974442394"><ele>382.0</ele><time>2026-04-26T08:31:58.999Z</time></trkpt><trkpt lat="43.75834356913919" lon="11.735626016791937"><ele>382.0</ele><time>2026-04-26T08:31:59.999Z</time></trkpt><trkpt lat="43.75852044042352" lon="11.735530320139386"><ele>382.0</ele><time>2026-04-26T08:32:00.999Z</time></trkpt><trkpt lat="43.75869656701931" lon="11.735424167990201"><ele>383.3333333333333</ele><time>2026-04-26T08:32:01.999Z</time></trkpt><trkpt lat="43.75887794611625" lon="11.735319240980402"><ele>384.66666666666663</ele><time>2026-04-26T08:32:02.999Z</time></trkpt><trkpt lat="43.75906155027499" lon="11.735214476182504"><ele>386.0</ele><time>2026-04-26T08:32:03.999Z</time></trkpt><trkpt lat="43.75924806189567" lon="11.735107578294473"><ele>387.3333333333333</ele><time>2026-04-26T08:32:04.999Z</time></trkpt><trkpt lat="43.759437169748026" lon="11.734997994093467"><ele>388.66666666666663</ele><time>2026-04-26T08:32:05.999Z</time></trkpt><trkpt lat="43.75962847122921" lon="11.73488582181585"><ele>390.0</ele><time>2026-04-26T08:32:06.999Z</time></trkpt><trkpt lat="43.75981910641265" lon="11.734773325585"><ele>390.0</ele><time>2026-04-26T08:32:07.999Z</time></trkpt><trkpt lat="43.76000581313238" lon="11.734663873404974"><ele>390.0</ele><time>2026-04-26T08:32:08.999Z</time></trkpt><trkpt lat="43.760189008933196" lon="11.734553917766746"><ele>390.0</ele><time>2026-04-26T08:32:09.999Z</time></trkpt><trkpt lat="43.76036510228957" lon="11.734427936782849"><ele>390.66666666666663</ele><time>2026-04-26T08:32:10.999Z</time></trkpt><trkpt lat="43.76052999688341" lon="11.734278921724739"><ele>391.3333333333333</ele><time>2026-04-26T08:32:11.999Z</time></trkpt><trkpt lat="43.760681701428204" lon="11.73410523589384"><ele>392.0</ele><time>2026-04-26T08:32:12.999Z</time></trkpt><trkpt lat="43.76081996422191" lon="11.733917296820756"><ele>392.0</ele><time>2026-04-26T08:32:13.999Z</time></trkpt><trkpt lat="43.76095374108832" lon="11.733738772859288"><ele>392.0</ele><time>2026-04-26T08:32:14.999Z</time></trkpt><trkpt lat="43.76108997711835" lon="11.733581858021108"><ele>392.0</ele><time>2026-04-26T08:32:15.999Z</time></trkpt><trkpt lat="43.76123773739574" lon="11.733440760803063"><ele>392.3333333333333</ele><time>2026-04-26T08:32:16.999Z</time></trkpt><trkpt lat="43.7614052766067" lon="11.733328122654019"><ele>392.66666666666663</ele><time>2026-04-26T08:32:17.999Z</time></trkpt><trkpt lat="43.76158874606332" lon="11.73324380046324"><ele>393.0</ele><time>2026-04-26T08:32:18.999Z</time></trkpt><trkpt lat="43.76178242060126" lon="11.733186381895075"><ele>393.66666666666663</ele><time>2026-04-26T08:32:19.999Z</time></trkpt><trkpt lat="43.76198102483117" lon="11.733127979128886"><ele>394.3333333333333</ele><time>2026-04-26T08:32:20.999Z</time></trkpt><trkpt lat="43.76218295818621" lon="11.73306238486275"><ele>395.0</ele><time>2026-04-26T08:32:21.999Z</time></trkpt><trkpt lat="43.76238864999685" lon="11.732994336086838"><ele>395.0</ele><time>2026-04-26T08:32:22.999Z</time></trkpt><trkpt lat="43.762597591948996" lon="11.732922308429435"><ele>395.0</ele><time>2026-04-26T08:32:23.999Z</time></trkpt><trkpt lat="43.76280937459419" lon="11.732843381321768"><ele>395.0</ele><time>2026-04-26T08:32:24.999Z</time></trkpt><trkpt lat="43.76302201740709" lon="11.732767043785294"><ele>394.3333333333333</ele><time>2026-04-26T08:32:25.999Z</time></trkpt><trkpt lat="43.76323496866813" lon="11.732692616527261"><ele>393.66666666666663</ele><time>2026-04-26T08:32:26.999Z</time></trkpt><trkpt lat="43.76344347783222" lon="11.732620241089176"><ele>393.0</ele><time>2026-04-26T08:32:27.999Z</time></trkpt><trkpt lat="43.763653139530284" lon="11.73254786322576"><ele>394.66666666666663</ele><time>2026-04-26T08:32:28.999Z</time></trkpt><trkpt lat="43.76386153117596" lon="11.732474775147345"><ele>396.3333333333333</ele><time>2026-04-26T08:32:29.999Z</time></trkpt><trkpt lat="43.764069687224314" lon="11.732396301239355"><ele>398.0</ele><time>2026-04-26T08:32:30.999Z</time></trkpt><trkpt lat="43.764276254009445" lon="11.732324136031004"><ele>398.66666666666663</ele><time>2026-04-26T08:32:31.999Z</time></trkpt><trkpt lat="43.76448043178772" lon="11.732257635973378"><ele>399.33333333333337</ele><time>2026-04-26T08:32:32.999Z</time></trkpt><trkpt lat="43.764676143144925" lon="11.73217491740205"><ele>400.0</ele><time>2026-04-26T08:32:33.999Z</time></trkpt><trkpt lat="43.76486481854095" lon="11.732053262343415"><ele>400.0</ele><time>2026-04-26T08:32:34.999Z</time></trkpt><trkpt lat="43.765045992269116" lon="11.731895722720564"><ele>400.0</ele><time>2026-04-26T08:32:35.999Z</time></trkpt><trkpt lat="43.76522363447292" lon="11.731728371667163"><ele>400.0</ele><time>2026-04-26T08:32:36.999Z</time></trkpt><trkpt lat="43.765405858166446" lon="11.731568437469495"><ele>401.0</ele><time>2026-04-26T08:32:37.999Z</time></trkpt><trkpt lat="43.765589902863155" lon="11.731410574380988"><ele>402.0</ele><time>2026-04-26T08:32:38.999Z</time></trkpt><trkpt lat="43.765775993017826" lon="11.731264240508677"><ele>403.0</ele><time>2026-04-26T08:32:39.999Z</time></trkpt><trkpt lat="43.765970988971276" lon="11.731132380483256"><ele>402.33333333333337</ele><time>2026-04-26T08:32:40.999Z</time></trkpt><trkpt lat="43.76617310989353" lon="11.731011306259937"><ele>401.66666666666663</ele><time>2026-04-26T08:32:41.999Z</time></trkpt><trkpt lat="43.766378915857004" lon="11.730900982657"><ele>401.0</ele><time>2026-04-26T08:32:42.999Z</time></trkpt><trkpt lat="43.76658723390637" lon="11.730793458627492"><ele>401.0</ele><time>2026-04-26T08:32:44Z</time></trkpt><trkpt lat="43.766796681557715" lon="11.730689227554173"><ele>401.0</ele><time>2026-04-26T08:32:45Z</time></trkpt><trkpt lat="43.76701025334774" lon="11.730599290567392"><ele>401.0</ele><time>2026-04-26T08:32:46Z</time></trkpt><trkpt lat="43.76722335210763" lon="11.73052784518374"><ele>402.66666666666663</ele><time>2026-04-26T08:32:47Z</time></trkpt><trkpt lat="43.767427186199356" lon="11.730479699467308"><ele>404.33333333333337</ele><time>2026-04-26T08:32:48Z</time></trkpt><trkpt lat="43.76762793831521" lon="11.730450667537543"><ele>406.0</ele><time>2026-04-26T08:32:49Z</time></trkpt><trkpt lat="43.76782423795016" lon="11.73044404139065"><ele>406.33333333333337</ele><time>2026-04-26T08:32:50Z</time></trkpt><trkpt lat="43.768015413642104" lon="11.730448082817952"><ele>406.66666666666663</ele><time>2026-04-26T08:32:51Z</time></trkpt><trkpt lat="43.76820725408672" lon="11.730467077063263"><ele>407.0</ele><time>2026-04-26T08:32:52Z</time></trkpt><trkpt lat="43.76840199897337" lon="11.730452947983316"><ele>406.66666666666663</ele><time>2026-04-26T08:32:53Z</time></trkpt><trkpt lat="43.76859426068615" lon="11.730414004525706"><ele>406.33333333333337</ele><time>2026-04-26T08:32:54Z</time></trkpt><trkpt lat="43.76878730923087" lon="11.730335833521478"><ele>406.0</ele><time>2026-04-26T08:32:55Z</time></trkpt><trkpt lat="43.76898010442766" lon="11.730241832507472"><ele>404.33333333333337</ele><time>2026-04-26T08:32:56Z</time></trkpt><trkpt lat="43.76917426124881" lon="11.73014571211246"><ele>402.66666666666663</ele><time>2026-04-26T08:32:57Z</time></trkpt><trkpt lat="43.769371066971644" lon="11.730048280346995"><ele>401.0</ele><time>2026-04-26T08:32:58Z</time></trkpt><trkpt lat="43.769568479759656" lon="11.729950896397554"><ele>401.0</ele><time>2026-04-26T08:32:59Z</time></trkpt><trkpt lat="43.76976174163313" lon="11.72985686005672"><ele>401.0</ele><time>2026-04-26T08:33:00Z</time></trkpt><trkpt lat="43.76994259181208" lon="11.7297697074166"><ele>401.0</ele><time>2026-04-26T08:33:01Z</time></trkpt><trkpt lat="43.770117127859024" lon="11.729688155095417"><ele>401.66666666666663</ele><time>2026-04-26T08:33:02Z</time></trkpt><trkpt lat="43.77028260297957" lon="11.729615904246476"><ele>402.33333333333337</ele><time>2026-04-26T08:33:03Z</time></trkpt><trkpt lat="43.77044169618068" lon="11.729531678831568"><ele>403.0</ele><time>2026-04-26T08:33:04Z</time></trkpt><trkpt lat="43.77060120812357" lon="11.72947976232457"><ele>403.0</ele><time>2026-04-26T08:33:05Z</time></trkpt><trkpt lat="43.770748311559" lon="11.729432857949961"><ele>403.0</ele><time>2026-04-26T08:33:06Z</time></trkpt><trkpt lat="43.7708815851073" lon="11.729386501847033"><ele>403.0</ele><time>2026-04-26T08:33:07Z</time></trkpt><trkpt lat="43.77099779589238" lon="11.729326182477498"><ele>403.0</ele><time>2026-04-26T08:33:08Z</time></trkpt><trkpt lat="43.771097614300324" lon="11.729250519479807"><ele>403.4</ele><time>2026-04-26T08:33:09Z</time></trkpt><trkpt lat="43.77118014611415" lon="11.729162223741435"><ele>403.79999999999995</ele><time>2026-04-26T08:33:10Z</time></trkpt><trkpt lat="43.771236577975046" lon="11.729065292038383"><ele>404.2</ele><time>2026-04-26T08:33:11Z</time></trkpt><trkpt lat="43.77128428309308" lon="11.728963553140082"><ele>404.6</ele><time>2026-04-26T08:33:12Z</time></trkpt><trkpt lat="43.77134782835136" lon="11.728864910267461"><ele>405.0</ele><time>2026-04-26T08:33:13Z</time></trkpt><trkpt lat="43.771456288990635" lon="11.728788366728756"><ele>405.0</ele><time>2026-04-26T08:33:14Z</time></trkpt><trkpt lat="43.771592223571616" lon="11.728708809400702"><ele>405.0</ele><time>2026-04-26T08:33:15Z</time></trkpt><trkpt lat="43.77174289076406" lon="11.728627571970398"><ele>405.0</ele><time>2026-04-26T08:33:16Z</time></trkpt><trkpt lat="43.771897633382814" lon="11.728544106399"><ele>403.0</ele><time>2026-04-26T08:33:17Z</time></trkpt><trkpt lat="43.77206555978471" lon="11.728455603413757"><ele>401.0</ele><time>2026-04-26T08:33:18Z</time></trkpt><trkpt lat="43.77224865342321" lon="11.728359106754786"><ele>399.0</ele><time>2026-04-26T08:33:19Z</time></trkpt><trkpt lat="43.77242819244356" lon="11.728264485231058"><ele>399.0</ele><time>2026-04-26T08:33:20Z</time></trkpt><trkpt lat="43.7726134539578" lon="11.728167687350647"><ele>399.0</ele><time>2026-04-26T08:33:21Z</time></trkpt><trkpt lat="43.77280639427798" lon="11.728067011041928"><ele>399.0</ele><time>2026-04-26T08:33:22Z</time></trkpt><trkpt lat="43.773000088977874" lon="11.72795134450624"><ele>398.0</ele><time>2026-04-26T08:33:23Z</time></trkpt><trkpt lat="43.77317992820192" lon="11.727813485558352"><ele>397.0</ele><time>2026-04-26T08:33:24Z</time></trkpt><trkpt lat="43.773369680292774" lon="11.727682031135195"><ele>396.0</ele><time>2026-04-26T08:33:25Z</time></trkpt><trkpt lat="43.77356094696232" lon="11.727537962162351"><ele>398.0</ele><time>2026-04-26T08:33:26Z</time></trkpt><trkpt lat="43.77376481723348" lon="11.727415331522932"><ele>400.0</ele><time>2026-04-26T08:33:27Z</time></trkpt><trkpt lat="43.77396291149547" lon="11.727272521515436"><ele>402.0</ele><time>2026-04-26T08:33:28Z</time></trkpt><trkpt lat="43.7741632810454" lon="11.727128071298607"><ele>402.0</ele><time>2026-04-26T08:33:29Z</time></trkpt><trkpt lat="43.7743635434561" lon="11.726983698317905"><ele>402.0</ele><time>2026-04-26T08:33:30Z</time></trkpt><trkpt lat="43.77456425688812" lon="11.726839000193257"><ele>402.0</ele><time>2026-04-26T08:33:31Z</time></trkpt><trkpt lat="43.77476556726811" lon="11.726693871720064"><ele>402.0</ele><time>2026-04-26T08:33:32Z</time></trkpt><trkpt lat="43.77496850629915" lon="11.726547569115619"><ele>402.0</ele><time>2026-04-26T08:33:33Z</time></trkpt><trkpt lat="43.775170740846825" lon="11.726401774395933"><ele>402.0</ele><time>2026-04-26T08:33:34Z</time></trkpt><trkpt lat="43.77537328278037" lon="11.726255758073641"><ele>400.0</ele><time>2026-04-26T08:33:35Z</time></trkpt><trkpt lat="43.775574215403665" lon="11.726110901923692"><ele>398.0</ele><time>2026-04-26T08:33:36Z</time></trkpt><trkpt lat="43.775773995355344" lon="11.72596706143341"><ele>398.0</ele><time>2026-04-26T08:33:37Z</time></trkpt><trkpt lat="43.77597382875293" lon="11.725823242970531"><ele>398.0</ele><time>2026-04-26T08:33:38Z</time></trkpt><trkpt lat="43.77616487521449" lon="11.725685748396119"><ele>398.0</ele><time>2026-04-26T08:33:39Z</time></trkpt><trkpt lat="43.7763455400881" lon="11.725555725386043"><ele>399.0</ele><time>2026-04-26T08:33:40Z</time></trkpt><trkpt lat="43.77652239728719" lon="11.725429627952991"><ele>400.0</ele><time>2026-04-26T08:33:41Z</time></trkpt><trkpt lat="43.77669743505547" lon="11.725311703754558"><ele>401.0</ele><time>2026-04-26T08:33:42Z</time></trkpt><trkpt lat="43.776875411830545" lon="11.725215250969931"><ele>401.0</ele><time>2026-04-26T08:33:43Z</time></trkpt><trkpt lat="43.77705623912458" lon="11.725134078927587"><ele>401.0</ele><time>2026-04-26T08:33:44Z</time></trkpt><trkpt lat="43.77724339172292" lon="11.725070186518037"><ele>401.0</ele><time>2026-04-26T08:33:45Z</time></trkpt><trkpt lat="43.77743150941965" lon="11.725022273129806"><ele>401.0</ele><time>2026-04-26T08:33:46Z</time></trkpt><trkpt lat="43.777618940318725" lon="11.72499112752733"><ele>401.0</ele><time>2026-04-26T08:33:47Z</time></trkpt><trkpt lat="43.777807670902824" lon="11.724972922876233"><ele>401.0</ele><time>2026-04-26T08:33:48Z</time></trkpt><trkpt lat="43.777989751646764" lon="11.724931600045808"><ele>401.66666666666663</ele><time>2026-04-26T08:33:49Z</time></trkpt><trkpt lat="43.77815862558096" lon="11.72492470311661"><ele>402.33333333333337</ele><time>2026-04-26T08:33:50Z</time></trkpt><trkpt lat="43.77831523620022" lon="11.724955258457854"><ele>403.0</ele><time>2026-04-26T08:33:51Z</time></trkpt><trkpt lat="43.778454545265994" lon="11.724970743311212"><ele>403.5</ele><time>2026-04-26T08:33:52Z</time></trkpt><trkpt lat="43.7785835257471" lon="11.724981601527737"><ele>404.0</ele><time>2026-04-26T08:33:53Z</time></trkpt><trkpt lat="43.77870216501046" lon="11.724964272798935"><ele>404.5</ele><time>2026-04-26T08:33:54Z</time></trkpt><trkpt lat="43.77881270202758" lon="11.724989904754613"><ele>405.0</ele><time>2026-04-26T08:33:55Z</time></trkpt><trkpt lat="43.778917852111455" lon="11.725035050551165"><ele>405.0</ele><time>2026-04-26T08:33:56Z</time></trkpt><trkpt lat="43.77903332905055" lon="11.725055647264561"><ele>405.0</ele><time>2026-04-26T08:33:57Z</time></trkpt><trkpt lat="43.77916603922391" lon="11.725034961795632"><ele>405.0</ele><time>2026-04-26T08:33:58Z</time></trkpt><trkpt lat="43.77931455811943" lon="11.725010879234818"><ele>405.0</ele><time>2026-04-26T08:33:59Z</time></trkpt><trkpt lat="43.779467900538165" lon="11.725016129666027"><ele>405.33333333333337</ele><time>2026-04-26T08:34:00Z</time></trkpt><trkpt lat="43.77962381219468" lon="11.725042163891027"><ele>405.6666666666667</ele><time>2026-04-26T08:34:01Z</time></trkpt><trkpt lat="43.77978300759303" lon="11.725023661924956"><ele>406.0</ele><time>2026-04-26T08:34:02Z</time></trkpt><trkpt lat="43.77995308893253" lon="11.724991960447614"><ele>406.0</ele><time>2026-04-26T08:34:03Z</time></trkpt><trkpt lat="43.7801116469603" lon="11.724853762435387"><ele>406.0</ele><time>2026-04-26T08:34:04Z</time></trkpt><trkpt lat="43.78026560525198" lon="11.72473671347958"><ele>406.0</ele><time>2026-04-26T08:34:05Z</time></trkpt><trkpt lat="43.78043026757414" lon="11.72464159786432"><ele>406.33333333333337</ele><time>2026-04-26T08:34:06Z</time></trkpt><trkpt lat="43.78058906164819" lon="11.724527635249048"><ele>406.66666666666663</ele><time>2026-04-26T08:34:07Z</time></trkpt><trkpt lat="43.780746915436794" lon="11.724412860884376"><ele>407.0</ele><time>2026-04-26T08:34:08Z</time></trkpt><trkpt lat="43.78090440293172" lon="11.724297451475708"><ele>407.3333333333333</ele><time>2026-04-26T08:34:09Z</time></trkpt><trkpt lat="43.78106252335602" lon="11.724180065697565"><ele>407.66666666666663</ele><time>2026-04-26T08:34:10Z</time></trkpt><trkpt lat="43.78121871349786" lon="11.724063012004594"><ele>408.0</ele><time>2026-04-26T08:34:11Z</time></trkpt><trkpt lat="43.78137322163055" lon="11.723940170395728"><ele>408.0</ele><time>2026-04-26T08:34:12Z</time></trkpt><trkpt lat="43.78152373856707" lon="11.723810059629999"><ele>408.0</ele><time>2026-04-26T08:34:13Z</time></trkpt><trkpt lat="43.78166971387493" lon="11.723677321590209"><ele>408.0</ele><time>2026-04-26T08:34:14Z</time></trkpt><trkpt lat="43.781812797563425" lon="11.723544294270281"><ele>408.66666666666663</ele><time>2026-04-26T08:34:15Z</time></trkpt><trkpt lat="43.78195045861319" lon="11.72341452864987"><ele>409.3333333333333</ele><time>2026-04-26T08:34:16Z</time></trkpt><trkpt lat="43.782083124314205" lon="11.723289172993582"><ele>410.0</ele><time>2026-04-26T08:34:17Z</time></trkpt><trkpt lat="43.78221236303105" lon="11.723159425406397"><ele>410.0</ele><time>2026-04-26T08:34:18Z</time></trkpt><trkpt lat="43.782339579530586" lon="11.72302941217597"><ele>410.0</ele><time>2026-04-26T08:34:19Z</time></trkpt><trkpt lat="43.7824551306518" lon="11.722917845948274"><ele>410.0</ele><time>2026-04-26T08:34:20Z</time></trkpt><trkpt lat="43.78256773762487" lon="11.722837190403357"><ele>410.0</ele><time>2026-04-26T08:34:20.999Z</time></trkpt><trkpt lat="43.782700183603545" lon="11.722791076337653"><ele>409.75</ele><time>2026-04-26T08:34:21.999Z</time></trkpt><trkpt lat="43.782821399181785" lon="11.722744565822914"><ele>409.5</ele><time>2026-04-26T08:34:22.999Z</time></trkpt><trkpt lat="43.78295264508122" lon="11.722702050100244"><ele>409.25</ele><time>2026-04-26T08:34:23.999Z</time></trkpt><trkpt lat="43.78308890902761" lon="11.722664387092811"><ele>409.0</ele><time>2026-04-26T08:34:24.999Z</time></trkpt><trkpt lat="43.783222986961434" lon="11.72262801803034"><ele>408.75</ele><time>2026-04-26T08:34:25.999Z</time></trkpt><trkpt lat="43.78335721478772" lon="11.722590727188315"><ele>408.5</ele><time>2026-04-26T08:34:26.999Z</time></trkpt><trkpt lat="43.78348855824254" lon="11.722554150956883"><ele>408.25</ele><time>2026-04-26T08:34:27.999Z</time></trkpt><trkpt lat="43.783609785079875" lon="11.722520391932056"><ele>408.0</ele><time>2026-04-26T08:34:28.999Z</time></trkpt><trkpt lat="43.783726009862015" lon="11.722487682154934"><ele>408.59999999999997</ele><time>2026-04-26T08:34:29.998Z</time></trkpt><trkpt lat="43.783833935625154" lon="11.722457125806441"><ele>409.2</ele><time>2026-04-26T08:34:30.998Z</time></trkpt><trkpt lat="43.783934385215694" lon="11.722428633987182"><ele>409.8</ele><time>2026-04-26T08:34:31.998Z</time></trkpt><trkpt lat="43.78403179763954" lon="11.722400830744885"><ele>410.4</ele><time>2026-04-26T08:34:32.998Z</time></trkpt><trkpt lat="43.78412666617286" lon="11.722373697127315"><ele>411.0</ele><time>2026-04-26T08:34:33.998Z</time></trkpt><trkpt lat="43.784217973099395" lon="11.722347386879695"><ele>411.0</ele><time>2026-04-26T08:34:34.998Z</time></trkpt><trkpt lat="43.784299755155864" lon="11.722324378253662"><ele>411.0</ele><time>2026-04-26T08:34:35.998Z</time></trkpt><trkpt lat="43.78438255183444" lon="11.722292144221624"><ele>411.0</ele><time>2026-04-26T08:34:36.998Z</time></trkpt><trkpt lat="43.78446093956616" lon="11.722286105860585"><ele>411.0</ele><time>2026-04-26T08:34:37.998Z</time></trkpt><trkpt lat="43.78453057793467" lon="11.722299989674434"><ele>411.0</ele><time>2026-04-26T08:34:38.998Z</time></trkpt><trkpt lat="43.78459460303766" lon="11.722316472634281"><ele>411.0</ele><time>2026-04-26T08:34:39.998Z</time></trkpt><trkpt lat="43.784716109194676" lon="11.722342667028895"><ele>411.5</ele><time>2026-04-26T08:34:41.998Z</time></trkpt><trkpt lat="43.78478109233434" lon="11.722355388112952"><ele>412.0</ele><time>2026-04-26T08:34:42.998Z</time></trkpt><trkpt lat="43.78485091384725" lon="11.72237105182434"><ele>412.5</ele><time>2026-04-26T08:34:43.998Z</time></trkpt><trkpt lat="43.78491514977608" lon="11.722389454380705"><ele>413.0</ele><time>2026-04-26T08:34:44.998Z</time></trkpt><trkpt lat="43.785006920530705" lon="11.72241780320441"><ele>413.5</ele><time>2026-04-26T08:34:46.998Z</time></trkpt><trkpt lat="43.7850701920232" lon="11.7224399921296"><ele>414.0</ele><time>2026-04-26T08:34:48.998Z</time></trkpt><trkpt lat="43.78517230765224" lon="11.722476291558937"><ele>414.2</ele><time>2026-04-26T08:34:51Z</time></trkpt><trkpt lat="43.78525019135582" lon="11.722493678330105"><ele>414.4</ele><time>2026-04-26T08:34:52Z</time></trkpt><trkpt lat="43.78534699247893" lon="11.722496748352915"><ele>414.6</ele><time>2026-04-26T08:34:53Z</time></trkpt><trkpt lat="43.78545890822676" lon="11.722497284436066"><ele>414.8</ele><time>2026-04-26T08:34:54Z</time></trkpt><trkpt lat="43.78558016482525" lon="11.722493627524571"><ele>415.0</ele><time>2026-04-26T08:34:55Z</time></trkpt><trkpt lat="43.78569982923605" lon="11.722475324573079"><ele>415.0</ele><time>2026-04-26T08:34:56Z</time></trkpt><trkpt lat="43.78583228676819" lon="11.722475704879754"><ele>415.0</ele><time>2026-04-26T08:34:57Z</time></trkpt><trkpt lat="43.78597151270407" lon="11.722422215228443"><ele>415.0</ele><time>2026-04-26T08:34:58Z</time></trkpt><trkpt lat="43.78611246407947" lon="11.722398841742141"><ele>415.0</ele><time>2026-04-26T08:34:59Z</time></trkpt><trkpt lat="43.78625419986304" lon="11.7223728851036"><ele>416.25</ele><time>2026-04-26T08:35:00Z</time></trkpt><trkpt lat="43.786395109934766" lon="11.722344630302734"><ele>417.5</ele><time>2026-04-26T08:35:01Z</time></trkpt><trkpt lat="43.786538545709135" lon="11.72232319740142"><ele>418.75</ele><time>2026-04-26T08:35:02Z</time></trkpt><trkpt lat="43.78667929011324" lon="11.72229493940773"><ele>420.0</ele><time>2026-04-26T08:35:03Z</time></trkpt><trkpt lat="43.786814939112794" lon="11.7222719716638"><ele>420.75</ele><time>2026-04-26T08:35:04Z</time></trkpt><trkpt lat="43.786943619195476" lon="11.722251876724444"><ele>421.5</ele><time>2026-04-26T08:35:05Z</time></trkpt><trkpt lat="43.78706323772502" lon="11.722226648040861"><ele>422.25</ele><time>2026-04-26T08:35:06Z</time></trkpt><trkpt lat="43.78717887397852" lon="11.722234208408786"><ele>423.0</ele><time>2026-04-26T08:35:07Z</time></trkpt><trkpt lat="43.787285653499296" lon="11.722214610739277"><ele>423.0</ele><time>2026-04-26T08:35:08Z</time></trkpt><trkpt lat="43.787386291797304" lon="11.722196140226258"><ele>423.0</ele><time>2026-04-26T08:35:09Z</time></trkpt><trkpt lat="43.78748224111357" lon="11.722178490184055"><ele>423.0</ele><time>2026-04-26T08:35:10Z</time></trkpt><trkpt lat="43.787571036503515" lon="11.722161770520453"><ele>423.0</ele><time>2026-04-26T08:35:11Z</time></trkpt><trkpt lat="43.78765054286666" lon="11.72214679989255"><ele>423.0</ele><time>2026-04-26T08:35:12Z</time></trkpt><trkpt lat="43.78772983370707" lon="11.722111304480006"><ele>423.4</ele><time>2026-04-26T08:35:12.999Z</time></trkpt><trkpt lat="43.78781659727347" lon="11.72211553276299"><ele>423.79999999999995</ele><time>2026-04-26T08:35:13.999Z</time></trkpt><trkpt lat="43.787906017781744" lon="11.722099609550794"><ele>424.2</ele><time>2026-04-26T08:35:14.999Z</time></trkpt><trkpt lat="43.787998885647255" lon="11.722083676084205"><ele>424.6</ele><time>2026-04-26T08:35:15.999Z</time></trkpt><trkpt lat="43.788093091029786" lon="11.72206294380956"><ele>425.0</ele><time>2026-04-26T08:35:16.999Z</time></trkpt><trkpt lat="43.78819433045281" lon="11.722020254055911"><ele>425.0</ele><time>2026-04-26T08:35:17.999Z</time></trkpt><trkpt lat="43.788299507439525" lon="11.721953557246147"><ele>425.0</ele><time>2026-04-26T08:35:18.999Z</time></trkpt><trkpt lat="43.78840882090209" lon="11.721943081048568"><ele>425.0</ele><time>2026-04-26T08:35:19.999Z</time></trkpt><trkpt lat="43.788522089943065" lon="11.721926944068402"><ele>425.0</ele><time>2026-04-26T08:35:20.999Z</time></trkpt><trkpt lat="43.78864811539037" lon="11.721912376580715"><ele>425.75</ele><time>2026-04-26T08:35:21.999Z</time></trkpt><trkpt lat="43.78876815396813" lon="11.721899641500775"><ele>426.5</ele><time>2026-04-26T08:35:22.999Z</time></trkpt><trkpt lat="43.78888676309359" lon="11.721888695371007"><ele>427.25</ele><time>2026-04-26T08:35:23.999Z</time></trkpt><trkpt lat="43.789004188946706" lon="11.721877989786043"><ele>428.0</ele><time>2026-04-26T08:35:24.999Z</time></trkpt><trkpt lat="43.789123090380144" lon="11.72186863595115"><ele>428.0</ele><time>2026-04-26T08:35:25.999Z</time></trkpt><trkpt lat="43.789239495943136" lon="11.721860186772112"><ele>427.99999999999994</ele><time>2026-04-26T08:35:26.999Z</time></trkpt><trkpt lat="43.789347108539054" lon="11.721853005892344"><ele>427.99999999999994</ele><time>2026-04-26T08:35:27.999Z</time></trkpt><trkpt lat="43.7894535036712" lon="11.721845792841956"><ele>428.0</ele><time>2026-04-26T08:35:28.999Z</time></trkpt><trkpt lat="43.78954501208945" lon="11.721838817184675"><ele>428.0</ele><time>2026-04-26T08:35:29.999Z</time></trkpt><trkpt lat="43.7896293568952" lon="11.721831930655036"><ele>428.4</ele><time>2026-04-26T08:35:30.999Z</time></trkpt><trkpt lat="43.789712535578744" lon="11.721823761743437"><ele>428.79999999999995</ele><time>2026-04-26T08:35:31.999Z</time></trkpt><trkpt lat="43.78979471515239" lon="11.72181572351967"><ele>429.2</ele><time>2026-04-26T08:35:32.999Z</time></trkpt><trkpt lat="43.78988547273057" lon="11.721803752871416"><ele>429.6</ele><time>2026-04-26T08:35:33.999Z</time></trkpt><trkpt lat="43.78998479652068" lon="11.721777413253745"><ele>430.0</ele><time>2026-04-26T08:35:34.999Z</time></trkpt><trkpt lat="43.79008878117865" lon="11.721726525393294"><ele>431.75</ele><time>2026-04-26T08:35:35.999Z</time></trkpt><trkpt lat="43.79019952843936" lon="11.721648673283022"><ele>433.5</ele><time>2026-04-26T08:35:36.999Z</time></trkpt><trkpt lat="43.79030399580008" lon="11.721538059289959"><ele>435.25</ele><time>2026-04-26T08:35:37.999Z</time></trkpt><trkpt lat="43.79039588377259" lon="11.721404207421555"><ele>437.0</ele><time>2026-04-26T08:35:38.999Z</time></trkpt><trkpt lat="43.79046668475795" lon="11.721246541232496"><ele>435.0</ele><time>2026-04-26T08:35:39.999Z</time></trkpt><trkpt lat="43.79050721109613" lon="11.721064565569232"><ele>433.0</ele><time>2026-04-26T08:35:40.999Z</time></trkpt><trkpt lat="43.79057003892464" lon="11.720891175441137"><ele>431.0</ele><time>2026-04-26T08:35:41.999Z</time></trkpt><trkpt lat="43.79063056741762" lon="11.720703149877556"><ele>429.0</ele><time>2026-04-26T08:35:42.999Z</time></trkpt><trkpt lat="43.790696656288354" lon="11.720510890933541"><ele>429.0</ele><time>2026-04-26T08:35:43.999Z</time></trkpt><trkpt lat="43.79079412371272" lon="11.720338708344888"><ele>429.0</ele><time>2026-04-26T08:35:44.999Z</time></trkpt><trkpt lat="43.79086603134251" lon="11.720139826656354"><ele>429.0</ele><time>2026-04-26T08:35:45.999Z</time></trkpt><trkpt lat="43.79093882010758" lon="11.719934883019333"><ele>428.33333333333337</ele><time>2026-04-26T08:35:46.999Z</time></trkpt><trkpt lat="43.79100480305146" lon="11.719755270017842"><ele>427.6666666666667</ele><time>2026-04-26T08:35:47.999Z</time></trkpt><trkpt lat="43.79108776062979" lon="11.719554454559587"><ele>427.0</ele><time>2026-04-26T08:35:48.999Z</time></trkpt><trkpt lat="43.79117666194637" lon="11.719369043764436"><ele>427.0</ele><time>2026-04-26T08:35:49.999Z</time></trkpt><trkpt lat="43.791294218172055" lon="11.719215631495484"><ele>427.0</ele><time>2026-04-26T08:35:50.999Z</time></trkpt><trkpt lat="43.791420542313716" lon="11.719078099283442"><ele>427.0</ele><time>2026-04-26T08:35:51.999Z</time></trkpt><trkpt lat="43.79155309903371" lon="11.718936523892678"><ele>427.0</ele><time>2026-04-26T08:35:52.999Z</time></trkpt><trkpt lat="43.79168605777973" lon="11.718792606505213"><ele>427.0</ele><time>2026-04-26T08:35:53.999Z</time></trkpt><trkpt lat="43.7918207095592" lon="11.718646444112204"><ele>427.0</ele><time>2026-04-26T08:35:54.999Z</time></trkpt><trkpt lat="43.79195726823076" lon="11.718492728488432"><ele>427.0</ele><time>2026-04-26T08:35:55.999Z</time></trkpt><trkpt lat="43.792086726045866" lon="11.718317068312754"><ele>427.0</ele><time>2026-04-26T08:35:56.999Z</time></trkpt><trkpt lat="43.79223455498283" lon="11.71817855983416"><ele>427.0</ele><time>2026-04-26T08:35:57.999Z</time></trkpt><trkpt lat="43.792370526726316" lon="11.718023159644593"><ele>427.0</ele><time>2026-04-26T08:35:58.999Z</time></trkpt><trkpt lat="43.792505441549814" lon="11.717868967404788"><ele>427.0</ele><time>2026-04-26T08:35:59.999Z</time></trkpt><trkpt lat="43.792635557169945" lon="11.717720260094723"><ele>427.0</ele><time>2026-04-26T08:36:00.999Z</time></trkpt><trkpt lat="43.79276377072886" lon="11.717572594589921"><ele>429.33333333333337</ele><time>2026-04-26T08:36:01.999Z</time></trkpt><trkpt lat="43.79288898057589" lon="11.717426431715372"><ele>431.66666666666663</ele><time>2026-04-26T08:36:02.999Z</time></trkpt><trkpt lat="43.7930147038056" lon="11.717280815352929"><ele>434.0</ele><time>2026-04-26T08:36:03.999Z</time></trkpt><trkpt lat="43.793139277342924" lon="11.717137285974633"><ele>434.0</ele><time>2026-04-26T08:36:04.999Z</time></trkpt><trkpt lat="43.79325922083282" lon="11.716998188786652"><ele>434.0</ele><time>2026-04-26T08:36:05.999Z</time></trkpt><trkpt lat="43.79337742794404" lon="11.716859857075494"><ele>434.0</ele><time>2026-04-26T08:36:06.999Z</time></trkpt><trkpt lat="43.7934912562949" lon="11.716726649799645"><ele>433.75</ele><time>2026-04-26T08:36:07.999Z</time></trkpt><trkpt lat="43.79360411997281" lon="11.716595038722726"><ele>433.5</ele><time>2026-04-26T08:36:08.999Z</time></trkpt><trkpt lat="43.793710567609466" lon="11.716470784959586"><ele>433.25</ele><time>2026-04-26T08:36:09.999Z</time></trkpt><trkpt lat="43.79382315647037" lon="11.716336731958108"><ele>433.0</ele><time>2026-04-26T08:36:10.999Z</time></trkpt><trkpt lat="43.793915007370224" lon="11.716177610614826"><ele>432.75</ele><time>2026-04-26T08:36:11.999Z</time></trkpt><trkpt lat="43.79401657898843" lon="11.71604160935282"><ele>432.5</ele><time>2026-04-26T08:36:12.999Z</time></trkpt><trkpt lat="43.79411552681444" lon="11.715903100137579"><ele>432.25</ele><time>2026-04-26T08:36:13.999Z</time></trkpt><trkpt lat="43.79420789045811" lon="11.715763116171988"><ele>432.0</ele><time>2026-04-26T08:36:14.999Z</time></trkpt><trkpt lat="43.79431559499074" lon="11.715638728438673"><ele>433.25</ele><time>2026-04-26T08:36:15.999Z</time></trkpt><trkpt lat="43.794395340388796" lon="11.71550426497377"><ele>434.5</ele><time>2026-04-26T08:36:16.999Z</time></trkpt><trkpt lat="43.7944673588445" lon="11.715374940466864"><ele>435.75</ele><time>2026-04-26T08:36:17.999Z</time></trkpt><trkpt lat="43.79453542210136" lon="11.71525088704654"><ele>437.0</ele><time>2026-04-26T08:36:18.999Z</time></trkpt><trkpt lat="43.79459540933406" lon="11.715140891467177"><ele>437.0</ele><time>2026-04-26T08:36:19.999Z</time></trkpt><trkpt lat="43.794656530450375" lon="11.715028816741572"><ele>437.00000000000006</ele><time>2026-04-26T08:36:20.999Z</time></trkpt><trkpt lat="43.79472042340004" lon="11.714911659429603"><ele>437.00000000000006</ele><time>2026-04-26T08:36:21.999Z</time></trkpt><trkpt lat="43.79478052451721" lon="11.714801455419694"><ele>437.0</ele><time>2026-04-26T08:36:22.999Z</time></trkpt><trkpt lat="43.79483023541712" lon="11.714694221211566"><ele>437.0</ele><time>2026-04-26T08:36:23.999Z</time></trkpt><trkpt lat="43.794908923705385" lon="11.714603856354733"><ele>437.0</ele><time>2026-04-26T08:36:24.999Z</time></trkpt><trkpt lat="43.795002384028415" lon="11.714532860655586"><ele>437.00000000000006</ele><time>2026-04-26T08:36:25.999Z</time></trkpt><trkpt lat="43.79505065613947" lon="11.714376266833165"><ele>437.00000000000006</ele><time>2026-04-26T08:36:26.999Z</time></trkpt><trkpt lat="43.79510538476554" lon="11.714231084046776"><ele>437.0</ele><time>2026-04-26T08:36:27.999Z</time></trkpt><trkpt lat="43.795171059635535" lon="11.714136077318335"><ele>437.0</ele><time>2026-04-26T08:36:28.999Z</time></trkpt><trkpt lat="43.795228232782634" lon="11.714044146917471"><ele>437.3333333333333</ele><time>2026-04-26T08:36:29.999Z</time></trkpt><trkpt lat="43.79537857604551" lon="11.713816333857014"><ele>437.66666666666663</ele><time>2026-04-26T08:36:30.999Z</time></trkpt><trkpt lat="43.79547712810097" lon="11.71367010848921"><ele>438.0</ele><time>2026-04-26T08:36:31.999Z</time></trkpt><trkpt lat="43.79557385782844" lon="11.713527984041884"><ele>438.0</ele><time>2026-04-26T08:36:32.999Z</time></trkpt><trkpt lat="43.795665783829456" lon="11.713397758194695"><ele>438.0</ele><time>2026-04-26T08:36:33.999Z</time></trkpt><trkpt lat="43.7957527110052" lon="11.713280759091909"><ele>438.0</ele><time>2026-04-26T08:36:34.999Z</time></trkpt><trkpt lat="43.795835886859955" lon="11.713161042145932"><ele>438.0</ele><time>2026-04-26T08:36:35.999Z</time></trkpt><trkpt lat="43.795919910007356" lon="11.713042478813588"><ele>438.0</ele><time>2026-04-26T08:36:36.999Z</time></trkpt><trkpt lat="43.7959996181743" lon="11.712923678433048"><ele>438.0</ele><time>2026-04-26T08:36:37.999Z</time></trkpt><trkpt lat="43.796078053028516" lon="11.712801600268211"><ele>438.0</ele><time>2026-04-26T08:36:38.999Z</time></trkpt><trkpt lat="43.79615302938829" lon="11.712680621383528"><ele>438.0</ele><time>2026-04-26T08:36:39.999Z</time></trkpt><trkpt lat="43.796227756402054" lon="11.712557840707897"><ele>439.4</ele><time>2026-04-26T08:36:40.999Z</time></trkpt><trkpt lat="43.79629474105663" lon="11.712437320180927"><ele>440.79999999999995</ele><time>2026-04-26T08:36:41.999Z</time></trkpt><trkpt lat="43.79637859521695" lon="11.712337129845027"><ele>442.2</ele><time>2026-04-26T08:36:42.999Z</time></trkpt><trkpt lat="43.79646056531604" lon="11.712220863780683"><ele>443.6</ele><time>2026-04-26T08:36:43.999Z</time></trkpt><trkpt lat="43.79653241177566" lon="11.712120596857288"><ele>445.0</ele><time>2026-04-26T08:36:44.999Z</time></trkpt><trkpt lat="43.796602914802996" lon="11.712021838533364"><ele>445.0</ele><time>2026-04-26T08:36:45.999Z</time></trkpt><trkpt lat="43.79667277935202" lon="11.711923798339672"><ele>445.0</ele><time>2026-04-26T08:36:46.999Z</time></trkpt><trkpt lat="43.796743353348155" lon="11.711824762927245"><ele>445.0</ele><time>2026-04-26T08:36:47.999Z</time></trkpt><trkpt lat="43.79681546031" lon="11.71172324770019"><ele>445.0</ele><time>2026-04-26T08:36:48.999Z</time></trkpt><trkpt lat="43.79688795025651" lon="11.71162158156622"><ele>445.0</ele><time>2026-04-26T08:36:49.999Z</time></trkpt><trkpt lat="43.79696227522985" lon="11.711517341802782"><ele>445.4</ele><time>2026-04-26T08:36:50.999Z</time></trkpt><trkpt lat="43.79703589641302" lon="11.711414089588182"><ele>445.8</ele><time>2026-04-26T08:36:51.999Z</time></trkpt><trkpt lat="43.79711127980038" lon="11.71130578034906"><ele>446.20000000000005</ele><time>2026-04-26T08:36:52.999Z</time></trkpt><trkpt lat="43.79719162159557" lon="11.711193149402561"><ele>446.6</ele><time>2026-04-26T08:36:53.999Z</time></trkpt><trkpt lat="43.79727421028729" lon="11.711076719978948"><ele>447.0</ele><time>2026-04-26T08:36:54.999Z</time></trkpt><trkpt lat="43.79736042570375" lon="11.710955282121262"><ele>447.0</ele><time>2026-04-26T08:36:56Z</time></trkpt><trkpt lat="43.79744918036648" lon="11.710830267620514"><ele>447.0</ele><time>2026-04-26T08:36:57Z</time></trkpt><trkpt lat="43.79753827621977" lon="11.710704602610285"><ele>447.0</ele><time>2026-04-26T08:36:58Z</time></trkpt><trkpt lat="43.797627447819586" lon="11.710578401531135"><ele>447.0</ele><time>2026-04-26T08:36:59Z</time></trkpt><trkpt lat="43.79771625618723" lon="11.7104525501859"><ele>448.0</ele><time>2026-04-26T08:37:00Z</time></trkpt><trkpt lat="43.79780409148452" lon="11.710328113996352"><ele>449.0</ele><time>2026-04-26T08:37:01Z</time></trkpt><trkpt lat="43.79789031432968" lon="11.710205962465402"><ele>450.0</ele><time>2026-04-26T08:37:02Z</time></trkpt><trkpt lat="43.79797671382875" lon="11.71008194430164"><ele>451.0</ele><time>2026-04-26T08:37:03Z</time></trkpt><trkpt lat="43.7980613382756" lon="11.709960888857603"><ele>451.0</ele><time>2026-04-26T08:37:04Z</time></trkpt><trkpt lat="43.79813384024968" lon="11.709826378069726"><ele>451.0</ele><time>2026-04-26T08:37:05Z</time></trkpt><trkpt lat="43.79822512289097" lon="11.709729667136678"><ele>451.0</ele><time>2026-04-26T08:37:06Z</time></trkpt><trkpt lat="43.79829929803864" lon="11.709625410884353"><ele>451.0</ele><time>2026-04-26T08:37:07Z</time></trkpt><trkpt lat="43.79836658867574" lon="11.709530831126294"><ele>451.0</ele><time>2026-04-26T08:37:08Z</time></trkpt><trkpt lat="43.79842605524093" lon="11.709447430834551"><ele>451.00000000000006</ele><time>2026-04-26T08:37:09Z</time></trkpt><trkpt lat="43.79847564820491" lon="11.709375167727618"><ele>451.0</ele><time>2026-04-26T08:37:10Z</time></trkpt><trkpt lat="43.79852163146706" lon="11.709313327242606"><ele>451.0</ele><time>2026-04-26T08:37:11Z</time></trkpt><trkpt lat="43.79865253757738" lon="11.709321508774819"><ele>451.0</ele><time>2026-04-26T08:37:13Z</time></trkpt><trkpt lat="43.79872016826242" lon="11.709376178363783"><ele>451.00000000000006</ele><time>2026-04-26T08:37:14Z</time></trkpt><trkpt lat="43.798804918265866" lon="11.70943813091282"><ele>451.0</ele><time>2026-04-26T08:37:15Z</time></trkpt><trkpt lat="43.79890875120105" lon="11.709487367834598"><ele>451.6</ele><time>2026-04-26T08:37:16Z</time></trkpt><trkpt lat="43.799019260647505" lon="11.709526546943142"><ele>452.20000000000005</ele><time>2026-04-26T08:37:17Z</time></trkpt><trkpt lat="43.79912297514641" lon="11.709558783791632"><ele>452.79999999999995</ele><time>2026-04-26T08:37:18Z</time></trkpt><trkpt lat="43.79922823572929" lon="11.709581561794849"><ele>453.4</ele><time>2026-04-26T08:37:19Z</time></trkpt><trkpt lat="43.799324523421014" lon="11.709596500324295"><ele>454.0</ele><time>2026-04-26T08:37:20Z</time></trkpt><trkpt lat="43.79942477020195" lon="11.709636817920277"><ele>454.6</ele><time>2026-04-26T08:37:21Z</time></trkpt><trkpt lat="43.79952285214682" lon="11.70965487187453"><ele>455.2</ele><time>2026-04-26T08:37:22Z</time></trkpt><trkpt lat="43.7996240172029" lon="11.709673493308529"><ele>455.80000000000007</ele><time>2026-04-26T08:37:23Z</time></trkpt><trkpt lat="43.79973060037004" lon="11.709692813922574"><ele>456.40000000000003</ele><time>2026-04-26T08:37:24Z</time></trkpt><trkpt lat="43.79983947718793" lon="11.70971259533379"><ele>457.0</ele><time>2026-04-26T08:37:25Z</time></trkpt><trkpt lat="43.79995272247779" lon="11.709733170439272"><ele>457.0</ele><time>2026-04-26T08:37:26Z</time></trkpt><trkpt lat="43.80007032557612" lon="11.70975453730247"><ele>457.0</ele><time>2026-04-26T08:37:27Z</time></trkpt><trkpt lat="43.800194510451355" lon="11.709754001862803"><ele>457.0</ele><time>2026-04-26T08:37:28Z</time></trkpt><trkpt lat="43.80032421759979" lon="11.709779035754694"><ele>457.0</ele><time>2026-04-26T08:37:29Z</time></trkpt><trkpt lat="43.80045120788874" lon="11.709810144935991"><ele>458.0</ele><time>2026-04-26T08:37:30Z</time></trkpt><trkpt lat="43.800576059795944" lon="11.709823644677241"><ele>459.0</ele><time>2026-04-26T08:37:31Z</time></trkpt><trkpt lat="43.80069961226032" lon="11.709844178740132"><ele>460.0</ele><time>2026-04-26T08:37:32Z</time></trkpt><trkpt lat="43.80082425039654" lon="11.70988815714759"><ele>461.0</ele><time>2026-04-26T08:37:33Z</time></trkpt><trkpt lat="43.800953603856705" lon="11.709910578534517"><ele>462.75</ele><time>2026-04-26T08:37:34Z</time></trkpt><trkpt lat="43.801088570481596" lon="11.709912735301485"><ele>464.5</ele><time>2026-04-26T08:37:35Z</time></trkpt><trkpt lat="43.80122282705243" lon="11.709941017972225"><ele>466.25</ele><time>2026-04-26T08:37:36Z</time></trkpt><trkpt lat="43.80136299043619" lon="11.709963401356195"><ele>468.0</ele><time>2026-04-26T08:37:37Z</time></trkpt><trkpt lat="43.8015070182674" lon="11.709992469103357"><ele>468.0</ele><time>2026-04-26T08:37:38Z</time></trkpt><trkpt lat="43.80165729233582" lon="11.710023686278172"><ele>468.0</ele><time>2026-04-26T08:37:39Z</time></trkpt><trkpt lat="43.80181595389467" lon="11.710054562057918"><ele>468.0</ele><time>2026-04-26T08:37:40Z</time></trkpt><trkpt lat="43.80197728421392" lon="11.710085869975417"><ele>466.0</ele><time>2026-04-26T08:37:41Z</time></trkpt><trkpt lat="43.80213191802372" lon="11.710108647049331"><ele>464.0</ele><time>2026-04-26T08:37:42Z</time></trkpt><trkpt lat="43.80227579707308" lon="11.710136009220975"><ele>462.0</ele><time>2026-04-26T08:37:43Z</time></trkpt><trkpt lat="43.80240766870702" lon="11.710148452276599"><ele>460.0</ele><time>2026-04-26T08:37:44Z</time></trkpt><trkpt lat="43.80252940523452" lon="11.710144322385823"><ele>460.0</ele><time>2026-04-26T08:37:45Z</time></trkpt><trkpt lat="43.80265014067521" lon="11.71011127611138"><ele>460.0</ele><time>2026-04-26T08:37:46Z</time></trkpt><trkpt lat="43.802770924586746" lon="11.710057637775762"><ele>460.0</ele><time>2026-04-26T08:37:47Z</time></trkpt><trkpt lat="43.80289928190871" lon="11.71001700993872"><ele>460.0</ele><time>2026-04-26T08:37:48Z</time></trkpt><trkpt lat="43.803027278626885" lon="11.70995412750845"><ele>460.5</ele><time>2026-04-26T08:37:49Z</time></trkpt><trkpt lat="43.80315844207055" lon="11.709887953648918"><ele>461.0</ele><time>2026-04-26T08:37:50Z</time></trkpt><trkpt lat="43.80329303223828" lon="11.709819600324893"><ele>461.5</ele><time>2026-04-26T08:37:51Z</time></trkpt><trkpt lat="43.8034256857837" lon="11.709752828555448"><ele>462.0</ele><time>2026-04-26T08:37:52Z</time></trkpt><trkpt lat="43.80355222384117" lon="11.709689386505536"><ele>462.75</ele><time>2026-04-26T08:37:53Z</time></trkpt><trkpt lat="43.80366966248732" lon="11.70960690261185"><ele>463.5</ele><time>2026-04-26T08:37:54Z</time></trkpt><trkpt lat="43.80377930363658" lon="11.709553179547198"><ele>464.25</ele><time>2026-04-26T08:37:55Z</time></trkpt><trkpt lat="43.803876066644484" lon="11.709496755332575"><ele>465.0</ele><time>2026-04-26T08:37:56Z</time></trkpt><trkpt lat="43.803959348975155" lon="11.709426577658892"><ele>463.6666666666667</ele><time>2026-04-26T08:37:57Z</time></trkpt><trkpt lat="43.8040402107988" lon="11.709369232988484"><ele>462.33333333333337</ele><time>2026-04-26T08:37:58Z</time></trkpt><trkpt lat="43.80406994243002" lon="11.709237724288363"><ele>461.0</ele><time>2026-04-26T08:37:59Z</time></trkpt><trkpt lat="43.804088376968764" lon="11.709126027604302"><ele>459.6666666666667</ele><time>2026-04-26T08:38:00Z</time></trkpt><trkpt lat="43.8040947396138" lon="11.70902072683361"><ele>458.33333333333337</ele><time>2026-04-26T08:38:01Z</time></trkpt><trkpt lat="43.804099317290394" lon="11.708923994734555"><ele>457.0</ele><time>2026-04-26T08:38:02Z</time></trkpt><trkpt lat="43.80411619462764" lon="11.708839136789267"><ele>457.00000000000006</ele><time>2026-04-26T08:38:02.999Z</time></trkpt><trkpt lat="43.80419504357085" lon="11.708710499609317"><ele>457.0</ele><time>2026-04-26T08:38:04.999Z</time></trkpt><trkpt lat="43.80426552315794" lon="11.708685235630607"><ele>457.0</ele><time>2026-04-26T08:38:05.999Z</time></trkpt><trkpt lat="43.804332088958624" lon="11.70865438884911"><ele>457.0</ele><time>2026-04-26T08:38:06.999Z</time></trkpt><trkpt lat="43.80440613625728" lon="11.708638990522049"><ele>457.00000000000006</ele><time>2026-04-26T08:38:07.999Z</time></trkpt><trkpt lat="43.804491723900206" lon="11.70865897565839"><ele>457.0</ele><time>2026-04-26T08:38:08.999Z</time></trkpt><trkpt lat="43.80458162577468" lon="11.708645734129373"><ele>458.0</ele><time>2026-04-26T08:38:09.999Z</time></trkpt><trkpt lat="43.80467051463331" lon="11.708602051701737"><ele>459.00000000000006</ele><time>2026-04-26T08:38:10.999Z</time></trkpt><trkpt lat="43.804766828120805" lon="11.708593603481457"><ele>460.00000000000006</ele><time>2026-04-26T08:38:11.999Z</time></trkpt><trkpt lat="43.80486813168103" lon="11.70857547486881"><ele>461.0</ele><time>2026-04-26T08:38:12.999Z</time></trkpt><trkpt lat="43.80497141961604" lon="11.708553014475745"><ele>462.0</ele><time>2026-04-26T08:38:13.999Z</time></trkpt><trkpt lat="43.8050826326497" lon="11.708543319143876"><ele>464.20000000000005</ele><time>2026-04-26T08:38:14.999Z</time></trkpt><trkpt lat="43.80519257514051" lon="11.708535638132215"><ele>466.40000000000003</ele><time>2026-04-26T08:38:15.999Z</time></trkpt><trkpt lat="43.80529601474314" lon="11.70850182881193"><ele>468.59999999999997</ele><time>2026-04-26T08:38:16.999Z</time></trkpt><trkpt lat="43.805383147967426" lon="11.708468966238355"><ele>470.79999999999995</ele><time>2026-04-26T08:38:17.999Z</time></trkpt><trkpt lat="43.80544296096751" lon="11.70842356776677"><ele>473.0</ele><time>2026-04-26T08:38:18.999Z</time></trkpt><trkpt lat="43.805517632981015" lon="11.708418375993048"><ele>473.0</ele><time>2026-04-26T08:38:20.999Z</time></trkpt><trkpt lat="43.8054155496052" lon="11.708454576162705"><ele>473.0</ele><time>2026-04-26T08:38:35.999Z</time></trkpt><trkpt lat="43.80550695170932" lon="11.708805301748695"><ele>473.0</ele><time>2026-04-26T08:38:36.999Z</time></trkpt><trkpt lat="43.805212844271566" lon="11.708685863656394"><ele>470.25</ele><time>2026-04-26T08:38:37.999Z</time></trkpt><trkpt lat="43.805113718871" lon="11.70867586048639"><ele>467.5</ele><time>2026-04-26T08:38:38.999Z</time></trkpt><trkpt lat="43.80500274185026" lon="11.708665682821568"><ele>464.75</ele><time>2026-04-26T08:38:39.999Z</time></trkpt><trkpt lat="43.80488171181924" lon="11.708652784456486"><ele>462.0</ele><time>2026-04-26T08:38:40.999Z</time></trkpt><trkpt lat="43.804757343390726" lon="11.708658350350326"><ele>462.0</ele><time>2026-04-26T08:38:41.999Z</time></trkpt><trkpt lat="43.80464099137213" lon="11.708670020377502"><ele>462.00000000000006</ele><time>2026-04-26T08:38:42.999Z</time></trkpt><trkpt lat="43.80453188709825" lon="11.708680963476143"><ele>462.00000000000006</ele><time>2026-04-26T08:38:43.999Z</time></trkpt><trkpt lat="43.804434223118676" lon="11.708690759097433"><ele>462.0</ele><time>2026-04-26T08:38:44.999Z</time></trkpt><trkpt lat="43.804344255471804" lon="11.708694811667222"><ele>462.0</ele><time>2026-04-26T08:38:45.999Z</time></trkpt><trkpt lat="43.80426363579833" lon="11.708679575704734"><ele>461.0</ele><time>2026-04-26T08:38:46.999Z</time></trkpt><trkpt lat="43.80419653736673" lon="11.708615133315645"><ele>460.00000000000006</ele><time>2026-04-26T08:38:47.999Z</time></trkpt><trkpt lat="43.80412389777472" lon="11.708591392281127"><ele>459.00000000000006</ele><time>2026-04-26T08:38:48.999Z</time></trkpt><trkpt lat="43.804051256905005" lon="11.708553664552339"><ele>458.0</ele><time>2026-04-26T08:38:49.999Z</time></trkpt><trkpt lat="43.80406176349819" lon="11.708305710522547"><ele>457.0</ele><time>2026-04-26T08:38:50.999Z</time></trkpt><trkpt lat="43.80399866771885" lon="11.708157268704968"><ele>456.75</ele><time>2026-04-26T08:38:51.999Z</time></trkpt><trkpt lat="43.80390186332569" lon="11.708035162181723"><ele>456.5</ele><time>2026-04-26T08:38:52.999Z</time></trkpt><trkpt lat="43.8037932042295" lon="11.70792927438153"><ele>456.25</ele><time>2026-04-26T08:38:53.999Z</time></trkpt><trkpt lat="43.80365502365553" lon="11.707866135401579"><ele>456.0</ele><time>2026-04-26T08:38:54.999Z</time></trkpt><trkpt lat="43.80349351675227" lon="11.70784410481079"><ele>456.0</ele><time>2026-04-26T08:38:55.999Z</time></trkpt><trkpt lat="43.80334153770918" lon="11.707836171459197"><ele>456.0</ele><time>2026-04-26T08:38:56.999Z</time></trkpt><trkpt lat="43.803207431137935" lon="11.707798413156032"><ele>456.0</ele><time>2026-04-26T08:38:57.999Z</time></trkpt><trkpt lat="43.80307675412066" lon="11.707777498898103"><ele>456.0</ele><time>2026-04-26T08:38:58.999Z</time></trkpt><trkpt lat="43.80295896814733" lon="11.707748525296973"><ele>457.0</ele><time>2026-04-26T08:38:59.999Z</time></trkpt><trkpt lat="43.80286181151867" lon="11.707697399486435"><ele>458.0</ele><time>2026-04-26T08:39:00.999Z</time></trkpt><trkpt lat="43.80278031687896" lon="11.707601874207626"><ele>459.0</ele><time>2026-04-26T08:39:02Z</time></trkpt><trkpt lat="43.80270719465666" lon="11.707462662513105"><ele>460.0</ele><time>2026-04-26T08:39:03Z</time></trkpt><trkpt lat="43.802635949122" lon="11.707296241904897"><ele>460.0</ele><time>2026-04-26T08:39:04Z</time></trkpt><trkpt lat="43.802562509262565" lon="11.707117497175815"><ele>460.0</ele><time>2026-04-26T08:39:05Z</time></trkpt><trkpt lat="43.80248505050217" lon="11.70693853216732"><ele>460.0</ele><time>2026-04-26T08:39:06Z</time></trkpt><trkpt lat="43.80238746344789" lon="11.706780529063503"><ele>460.0</ele><time>2026-04-26T08:39:07Z</time></trkpt><trkpt lat="43.802288680850644" lon="11.706641393817081"><ele>462.4</ele><time>2026-04-26T08:39:08Z</time></trkpt><trkpt lat="43.802175944852884" lon="11.706534035788506"><ele>464.8</ele><time>2026-04-26T08:39:09Z</time></trkpt><trkpt lat="43.80208720806038" lon="11.706439018302895"><ele>467.20000000000005</ele><time>2026-04-26T08:39:10Z</time></trkpt><trkpt lat="43.802031765786374" lon="11.706331258726454"><ele>469.6</ele><time>2026-04-26T08:39:11Z</time></trkpt><trkpt lat="43.80200907011178" lon="11.706210373714883"><ele>472.0</ele><time>2026-04-26T08:39:12Z</time></trkpt><trkpt lat="43.80203927747859" lon="11.706091195773872"><ele>472.75</ele><time>2026-04-26T08:39:13Z</time></trkpt><trkpt lat="43.80209683403025" lon="11.705977296378503"><ele>473.5</ele><time>2026-04-26T08:39:14Z</time></trkpt><trkpt lat="43.80217660877434" lon="11.705856017642452"><ele>474.25</ele><time>2026-04-26T08:39:15Z</time></trkpt><trkpt lat="43.80226408141266" lon="11.705704738375157"><ele>475.0</ele><time>2026-04-26T08:39:16Z</time></trkpt><trkpt lat="43.802363717441054" lon="11.705566985782411"><ele>475.0</ele><time>2026-04-26T08:39:17Z</time></trkpt><trkpt lat="43.80246743698191" lon="11.705432687886558"><ele>475.0</ele><time>2026-04-26T08:39:18Z</time></trkpt><trkpt lat="43.80257847618758" lon="11.7052980947067"><ele>475.0</ele><time>2026-04-26T08:39:19Z</time></trkpt><trkpt lat="43.802694971613434" lon="11.705165837807074"><ele>475.0</ele><time>2026-04-26T08:39:20Z</time></trkpt><trkpt lat="43.80282560179438" lon="11.70505086333895"><ele>475.6666666666667</ele><time>2026-04-26T08:39:21Z</time></trkpt><trkpt lat="43.80295308789636" lon="11.704919777506982"><ele>476.33333333333337</ele><time>2026-04-26T08:39:22Z</time></trkpt><trkpt lat="43.80308163045368" lon="11.704782998707854"><ele>477.0</ele><time>2026-04-26T08:39:23Z</time></trkpt><trkpt lat="43.80320403956772" lon="11.704648484178072"><ele>477.0</ele><time>2026-04-26T08:39:24Z</time></trkpt><trkpt lat="43.80332641410171" lon="11.704514007902029"><ele>477.0</ele><time>2026-04-26T08:39:25Z</time></trkpt><trkpt lat="43.80344313845496" lon="11.70438154972373"><ele>477.0</ele><time>2026-04-26T08:39:26Z</time></trkpt><trkpt lat="43.803560369385885" lon="11.7042480660135"><ele>479.25</ele><time>2026-04-26T08:39:27Z</time></trkpt><trkpt lat="43.803673863756565" lon="11.704108081970263"><ele>481.5</ele><time>2026-04-26T08:39:28Z</time></trkpt><trkpt lat="43.80376895753456" lon="11.703979119131759"><ele>483.75</ele><time>2026-04-26T08:39:29Z</time></trkpt><trkpt lat="43.803854043818376" lon="11.703849805932645"><ele>486.0</ele><time>2026-04-26T08:39:30Z</time></trkpt><trkpt lat="43.80392970775798" lon="11.70372303336418"><ele>486.0</ele><time>2026-04-26T08:39:31Z</time></trkpt><trkpt lat="43.80399225631043" lon="11.703587385826388"><ele>486.0</ele><time>2026-04-26T08:39:32Z</time></trkpt><trkpt lat="43.8040592799808" lon="11.70345905030214"><ele>486.0</ele><time>2026-04-26T08:39:33Z</time></trkpt><trkpt lat="43.804128193379654" lon="11.703330293683303"><ele>486.0</ele><time>2026-04-26T08:39:34Z</time></trkpt><trkpt lat="43.804209992328765" lon="11.703197187819496"><ele>485.0</ele><time>2026-04-26T08:39:35Z</time></trkpt><trkpt lat="43.80429908993315" lon="11.70306740167625"><ele>484.0</ele><time>2026-04-26T08:39:36Z</time></trkpt><trkpt lat="43.8044017149429" lon="11.702929580841351"><ele>483.0</ele><time>2026-04-26T08:39:37Z</time></trkpt><trkpt lat="43.80451108039153" lon="11.702790060840163"><ele>482.0</ele><time>2026-04-26T08:39:38Z</time></trkpt><trkpt lat="43.80462730173193" lon="11.702643905513959"><ele>482.0</ele><time>2026-04-26T08:39:39Z</time></trkpt><trkpt lat="43.80473750052517" lon="11.702491309209618"><ele>482.0</ele><time>2026-04-26T08:39:40Z</time></trkpt><trkpt lat="43.804840739095916" lon="11.702334700383906"><ele>482.0</ele><time>2026-04-26T08:39:41Z</time></trkpt><trkpt lat="43.80493960981243" lon="11.702168813313044"><ele>482.0</ele><time>2026-04-26T08:39:42Z</time></trkpt><trkpt lat="43.80504422509447" lon="11.702013176821598"><ele>482.0</ele><time>2026-04-26T08:39:43Z</time></trkpt><trkpt lat="43.80516035994931" lon="11.701889490473262"><ele>482.0</ele><time>2026-04-26T08:39:44Z</time></trkpt><trkpt lat="43.80528186923115" lon="11.701775023301085"><ele>482.0</ele><time>2026-04-26T08:39:45Z</time></trkpt><trkpt lat="43.80540544881152" lon="11.701658733145202"><ele>481.5</ele><time>2026-04-26T08:39:46Z</time></trkpt><trkpt lat="43.805517095079864" lon="11.701538119135819"><ele>481.0</ele><time>2026-04-26T08:39:47Z</time></trkpt><trkpt lat="43.805611064531135" lon="11.701381706534765"><ele>480.5</ele><time>2026-04-26T08:39:48Z</time></trkpt><trkpt lat="43.80568029916771" lon="11.70119166383587"><ele>480.0</ele><time>2026-04-26T08:39:49Z</time></trkpt><trkpt lat="43.805759976291164" lon="11.700997074632488"><ele>480.0</ele><time>2026-04-26T08:39:50Z</time></trkpt><trkpt lat="43.805833942357154" lon="11.700797976467301"><ele>480.0</ele><time>2026-04-26T08:39:51Z</time></trkpt><trkpt lat="43.80590462872849" lon="11.700605947395669"><ele>480.0</ele><time>2026-04-26T08:39:52Z</time></trkpt><trkpt lat="43.80597017079929" lon="11.700427269347596"><ele>484.5</ele><time>2026-04-26T08:39:53Z</time></trkpt><trkpt lat="43.806028198541135" lon="11.700254546084844"><ele>489.0</ele><time>2026-04-26T08:39:54Z</time></trkpt><trkpt lat="43.80606593887227" lon="11.700078414923171"><ele>493.5</ele><time>2026-04-26T08:39:55Z</time></trkpt><trkpt lat="43.80610748292654" lon="11.699893518277609"><ele>498.0</ele><time>2026-04-26T08:39:56Z</time></trkpt><trkpt lat="43.80612828948717" lon="11.699685515667392"><ele>498.0</ele><time>2026-04-26T08:39:57Z</time></trkpt><trkpt lat="43.806135612688735" lon="11.699469196513101"><ele>498.0</ele><time>2026-04-26T08:39:58Z</time></trkpt><trkpt lat="43.8061571816827" lon="11.69925173598019"><ele>498.0</ele><time>2026-04-26T08:39:59Z</time></trkpt><trkpt lat="43.80617294741274" lon="11.69902550316619"><ele>498.33333333333337</ele><time>2026-04-26T08:40:00Z</time></trkpt><trkpt lat="43.80618879706107" lon="11.69879904911013"><ele>498.6666666666667</ele><time>2026-04-26T08:40:01Z</time></trkpt><trkpt lat="43.806203090240516" lon="11.698590689516088"><ele>499.0</ele><time>2026-04-26T08:40:02Z</time></trkpt><trkpt lat="43.806213842660696" lon="11.698396643880276"><ele>499.75</ele><time>2026-04-26T08:40:03Z</time></trkpt><trkpt lat="43.80620864777475" lon="11.698214249977982"><ele>500.5</ele><time>2026-04-26T08:40:04Z</time></trkpt><trkpt lat="43.80619684769294" lon="11.698031964875382"><ele>501.25</ele><time>2026-04-26T08:40:05Z</time></trkpt><trkpt lat="43.80614594894401" lon="11.697845945738692"><ele>502.0</ele><time>2026-04-26T08:40:06Z</time></trkpt><trkpt lat="43.80610908325985" lon="11.697645784915935"><ele>502.75</ele><time>2026-04-26T08:40:07Z</time></trkpt><trkpt lat="43.80607159595353" lon="11.697453970975733"><ele>503.5</ele><time>2026-04-26T08:40:08Z</time></trkpt><trkpt lat="43.80605118963839" lon="11.697256003525553"><ele>504.25</ele><time>2026-04-26T08:40:09Z</time></trkpt><trkpt lat="43.806051399662785" lon="11.697056059629732"><ele>505.0</ele><time>2026-04-26T08:40:10Z</time></trkpt><trkpt lat="43.80607740043685" lon="11.69687482186873"><ele>505.0</ele><time>2026-04-26T08:40:11Z</time></trkpt><trkpt lat="43.80612173503484" lon="11.696714893289455"><ele>505.0</ele><time>2026-04-26T08:40:12Z</time></trkpt><trkpt lat="43.8061910333007" lon="11.696567846350064"><ele>505.0</ele><time>2026-04-26T08:40:13Z</time></trkpt><trkpt lat="43.80628327391442" lon="11.69641216401262"><ele>505.0</ele><time>2026-04-26T08:40:14Z</time></trkpt><trkpt lat="43.806382502898835" lon="11.696233836775622"><ele>501.33333333333337</ele><time>2026-04-26T08:40:15Z</time></trkpt><trkpt lat="43.806475908343785" lon="11.696028987173797"><ele>497.66666666666663</ele><time>2026-04-26T08:40:16Z</time></trkpt><trkpt lat="43.806601412974345" lon="11.695841654173652"><ele>494.0</ele><time>2026-04-26T08:40:17Z</time></trkpt><trkpt lat="43.80671574976146" lon="11.695633983370518"><ele>494.0</ele><time>2026-04-26T08:40:18Z</time></trkpt><trkpt lat="43.80682350113604" lon="11.695435575155294"><ele>494.0</ele><time>2026-04-26T08:40:19Z</time></trkpt><trkpt lat="43.80693065485746" lon="11.69523641177241"><ele>494.0</ele><time>2026-04-26T08:40:20Z</time></trkpt><trkpt lat="43.80703767241595" lon="11.69503750186202"><ele>498.0</ele><time>2026-04-26T08:40:21Z</time></trkpt><trkpt lat="43.807143914840246" lon="11.694851083595093"><ele>502.0</ele><time>2026-04-26T08:40:22Z</time></trkpt><trkpt lat="43.80724326804812" lon="11.694678403154397"><ele>506.0</ele><time>2026-04-26T08:40:23Z</time></trkpt><trkpt lat="43.807334374947224" lon="11.694517518287608"><ele>503.75</ele><time>2026-04-26T08:40:24Z</time></trkpt><trkpt lat="43.8074206621889" lon="11.694362028565717"><ele>501.5</ele><time>2026-04-26T08:40:25Z</time></trkpt><trkpt lat="43.807487266902626" lon="11.694206842078524"><ele>499.25</ele><time>2026-04-26T08:40:26Z</time></trkpt><trkpt lat="43.80749083217113" lon="11.694021216205336"><ele>497.0</ele><time>2026-04-26T08:40:27Z</time></trkpt><trkpt lat="43.80747479933315" lon="11.693830084421714"><ele>497.0</ele><time>2026-04-26T08:40:28Z</time></trkpt><trkpt lat="43.8074387497533" lon="11.693630883900259"><ele>497.0</ele><time>2026-04-26T08:40:29Z</time></trkpt><trkpt lat="43.80739513335772" lon="11.693431284407893"><ele>497.0</ele><time>2026-04-26T08:40:30Z</time></trkpt><trkpt lat="43.80737681071561" lon="11.693220651034832"><ele>496.5</ele><time>2026-04-26T08:40:31Z</time></trkpt><trkpt lat="43.80735366226636" lon="11.693020273801592"><ele>496.0</ele><time>2026-04-26T08:40:32Z</time></trkpt><trkpt lat="43.80734591031005" lon="11.692844743065532"><ele>495.5</ele><time>2026-04-26T08:40:33Z</time></trkpt><trkpt lat="43.80734322990862" lon="11.69268066231275"><ele>495.0</ele><time>2026-04-26T08:40:34Z</time></trkpt><trkpt lat="43.80740715009907" lon="11.692542775808493"><ele>493.5</ele><time>2026-04-26T08:40:35Z</time></trkpt><trkpt lat="43.80748056818129" lon="11.692439110308417"><ele>492.0</ele><time>2026-04-26T08:40:36Z</time></trkpt><trkpt lat="43.807563919954056" lon="11.69234438698001"><ele>490.5</ele><time>2026-04-26T08:40:37Z</time></trkpt><trkpt lat="43.807685698774236" lon="11.692318514957451"><ele>489.0</ele><time>2026-04-26T08:40:38Z</time></trkpt><trkpt lat="43.80782009331851" lon="11.692305410513315"><ele>492.25</ele><time>2026-04-26T08:40:39Z</time></trkpt><trkpt lat="43.807962626851825" lon="11.692299355453253"><ele>495.5</ele><time>2026-04-26T08:40:39.999Z</time></trkpt><trkpt lat="43.8081059100262" lon="11.692283035323078"><ele>498.75</ele><time>2026-04-26T08:40:40.999Z</time></trkpt><trkpt lat="43.80825020891125" lon="11.69223076854015"><ele>502.0</ele><time>2026-04-26T08:40:41.999Z</time></trkpt><trkpt lat="43.80838300661526" lon="11.692129439341805"><ele>504.33333333333337</ele><time>2026-04-26T08:40:42.999Z</time></trkpt><trkpt lat="43.80850987082066" lon="11.69198611998615"><ele>506.66666666666663</ele><time>2026-04-26T08:40:43.999Z</time></trkpt><trkpt lat="43.808628597432566" lon="11.691824179322136"><ele>509.0</ele><time>2026-04-26T08:40:44.999Z</time></trkpt><trkpt lat="43.80875847813874" lon="11.691699295533718"><ele>509.0</ele><time>2026-04-26T08:40:45.999Z</time></trkpt><trkpt lat="43.80885455515176" lon="11.691612083925987"><ele>509.0</ele><time>2026-04-26T08:40:46.999Z</time></trkpt><trkpt lat="43.80898241527452" lon="11.691518867857042"><ele>509.0</ele><time>2026-04-26T08:40:47.999Z</time></trkpt><trkpt lat="43.809131120735884" lon="11.691434591709104"><ele>509.0</ele><time>2026-04-26T08:40:48.999Z</time></trkpt><trkpt lat="43.80928360008645" lon="11.69136500644412"><ele>513.3333333333333</ele><time>2026-04-26T08:40:49.999Z</time></trkpt><trkpt lat="43.809441723139265" lon="11.691293758522956"><ele>517.6666666666666</ele><time>2026-04-26T08:40:50.999Z</time></trkpt><trkpt lat="43.80959969209732" lon="11.691216801136623"><ele>522.0</ele><time>2026-04-26T08:40:51.999Z</time></trkpt><trkpt lat="43.80975337686763" lon="11.691135985102903"><ele>521.25</ele><time>2026-04-26T08:40:52.999Z</time></trkpt><trkpt lat="43.809900606627" lon="11.691058008653087"><ele>520.5</ele><time>2026-04-26T08:40:53.999Z</time></trkpt><trkpt lat="43.81003720544664" lon="11.690985662576496"><ele>519.75</ele><time>2026-04-26T08:40:54.999Z</time></trkpt><trkpt lat="43.81016342048469" lon="11.69091598008597"><ele>519.0</ele><time>2026-04-26T08:40:55.999Z</time></trkpt><trkpt lat="43.81027556914818" lon="11.69085213585291"><ele>519.0</ele><time>2026-04-26T08:40:56.999Z</time></trkpt><trkpt lat="43.810372998909656" lon="11.69079374308922"><ele>519.0</ele><time>2026-04-26T08:40:57.999Z</time></trkpt><trkpt lat="43.81045292294019" lon="11.690707653464893"><ele>519.0</ele><time>2026-04-26T08:40:58.999Z</time></trkpt><trkpt lat="43.81047699008259" lon="11.690563821460701"><ele>519.0</ele><time>2026-04-26T08:40:59.999Z</time></trkpt><trkpt lat="43.8104799444836" lon="11.690434027299696"><ele>519.0</ele><time>2026-04-26T08:41:00.999Z</time></trkpt><trkpt lat="43.81047373745524" lon="11.690313549765879"><ele>521.75</ele><time>2026-04-26T08:41:01.999Z</time></trkpt><trkpt lat="43.810394811873266" lon="11.690217835238366"><ele>524.5</ele><time>2026-04-26T08:41:02.999Z</time></trkpt><trkpt lat="43.810267025367516" lon="11.690201645849553"><ele>527.25</ele><time>2026-04-26T08:41:03.999Z</time></trkpt><trkpt lat="43.81014188950382" lon="11.690198791970483"><ele>530.0</ele><time>2026-04-26T08:41:04.999Z</time></trkpt><trkpt lat="43.810008585072865" lon="11.690213584501324"><ele>525.4</ele><time>2026-04-26T08:41:05.999Z</time></trkpt><trkpt lat="43.80990576042042" lon="11.690151091969007"><ele>520.8</ele><time>2026-04-26T08:41:06.999Z</time></trkpt><trkpt lat="43.80981450087368" lon="11.690091912502474"><ele>516.2</ele><time>2026-04-26T08:41:07.999Z</time></trkpt><trkpt lat="43.80977399127938" lon="11.689958711935358"><ele>511.6</ele><time>2026-04-26T08:41:09Z</time></trkpt><trkpt lat="43.80975556230271" lon="11.689826271801373"><ele>507.0</ele><time>2026-04-26T08:41:09.999Z</time></trkpt><trkpt lat="43.80981196191499" lon="11.68968287734273"><ele>507.0</ele><time>2026-04-26T08:41:11Z</time></trkpt><trkpt lat="43.809863147028224" lon="11.689525856638333"><ele>507.0</ele><time>2026-04-26T08:41:12Z</time></trkpt><trkpt lat="43.80992723010485" lon="11.68934574092311"><ele>507.0</ele><time>2026-04-26T08:41:13Z</time></trkpt><trkpt lat="43.809997379674115" lon="11.68918027917925"><ele>507.0</ele><time>2026-04-26T08:41:14Z</time></trkpt><trkpt lat="43.81008522013172" lon="11.68901983444494"><ele>515.6666666666666</ele><time>2026-04-26T08:41:15Z</time></trkpt><trkpt lat="43.81019481342396" lon="11.68887963405504"><ele>524.3333333333333</ele><time>2026-04-26T08:41:16Z</time></trkpt><trkpt lat="43.810318840918676" lon="11.688752638282798"><ele>533.0</ele><time>2026-04-26T08:41:17Z</time></trkpt><trkpt lat="43.810450978009655" lon="11.688622977736783"><ele>528.3333333333333</ele><time>2026-04-26T08:41:18Z</time></trkpt><trkpt lat="43.810555047213704" lon="11.688460255932844"><ele>523.6666666666666</ele><time>2026-04-26T08:41:19Z</time></trkpt><trkpt lat="43.81066533282432" lon="11.688306808191943"><ele>519.0</ele><time>2026-04-26T08:41:20Z</time></trkpt><trkpt lat="43.8107338188159" lon="11.688110809602778"><ele>519.0</ele><time>2026-04-26T08:41:21Z</time></trkpt><trkpt lat="43.81080228482184" lon="11.687921467085555"><ele>519.0</ele><time>2026-04-26T08:41:22Z</time></trkpt><trkpt lat="43.81088418346247" lon="11.687745635074581"><ele>519.0</ele><time>2026-04-26T08:41:23Z</time></trkpt><trkpt lat="43.810939852245035" lon="11.687554717065755"><ele>514.6666666666666</ele><time>2026-04-26T08:41:24Z</time></trkpt><trkpt lat="43.81095611198393" lon="11.687345916525922"><ele>510.3333333333333</ele><time>2026-04-26T08:41:25Z</time></trkpt><trkpt lat="43.810958155991905" lon="11.687126860157226"><ele>506.0</ele><time>2026-04-26T08:41:25.999Z</time></trkpt><trkpt lat="43.81095384937758" lon="11.68689799748746"><ele>505.66666666666663</ele><time>2026-04-26T08:41:26.999Z</time></trkpt><trkpt lat="43.81096027701518" lon="11.686659432124632"><ele>505.33333333333337</ele><time>2026-04-26T08:41:27.999Z</time></trkpt><trkpt lat="43.81095581298419" lon="11.686416142288614"><ele>505.0</ele><time>2026-04-26T08:41:28.999Z</time></trkpt><trkpt lat="43.81095250886532" lon="11.686188036730861"><ele>505.0</ele><time>2026-04-26T08:41:29.999Z</time></trkpt><trkpt lat="43.81095604693414" lon="11.685980130316299"><ele>505.0</ele><time>2026-04-26T08:41:30.999Z</time></trkpt><trkpt lat="43.810986449044755" lon="11.68578119811067"><ele>505.0</ele><time>2026-04-26T08:41:31.999Z</time></trkpt><trkpt lat="43.81104011440304" lon="11.685572334115646"><ele>512.3333333333334</ele><time>2026-04-26T08:41:32.999Z</time></trkpt><trkpt lat="43.811112370011905" lon="11.685350061240992"><ele>519.6666666666666</ele><time>2026-04-26T08:41:33.999Z</time></trkpt><trkpt lat="43.811183177915" lon="11.685135233634789"><ele>527.0</ele><time>2026-04-26T08:41:34.999Z</time></trkpt><trkpt lat="43.81123842119507" lon="11.684939640362051"><ele>527.0</ele><time>2026-04-26T08:41:35.999Z</time></trkpt><trkpt lat="43.8113090608302" lon="11.684778793417271"><ele>527.0</ele><time>2026-04-26T08:41:36.999Z</time></trkpt><trkpt lat="43.8113697275249" lon="11.684629160664592"><ele>527.0</ele><time>2026-04-26T08:41:37.999Z</time></trkpt><trkpt lat="43.81143779606333" lon="11.684503765366545"><ele>527.0</ele><time>2026-04-26T08:41:38.999Z</time></trkpt><trkpt lat="43.81152689594415" lon="11.684421248546697"><ele>527.0</ele><time>2026-04-26T08:41:39.999Z</time></trkpt><trkpt lat="43.81163943486868" lon="11.684392983801112"><ele>527.0</ele><time>2026-04-26T08:41:40.999Z</time></trkpt><trkpt lat="43.811759369467296" lon="11.684434244297268"><ele>527.0</ele><time>2026-04-26T08:41:41.999Z</time></trkpt><trkpt lat="43.81189894655082" lon="11.684481643306137"><ele>527.0</ele><time>2026-04-26T08:41:42.999Z</time></trkpt><trkpt lat="43.812051969492124" lon="11.684538568688579"><ele>528.25</ele><time>2026-04-26T08:41:43.999Z</time></trkpt><trkpt lat="43.812195507333165" lon="11.684593234425014"><ele>529.5</ele><time>2026-04-26T08:41:44.999Z</time></trkpt><trkpt lat="43.81232236248649" lon="11.684639882414134"><ele>530.75</ele><time>2026-04-26T08:41:45.999Z</time></trkpt><trkpt lat="43.81244139475501" lon="11.684656942301944"><ele>532.0</ele><time>2026-04-26T08:41:46.999Z</time></trkpt><trkpt lat="43.812541841745" lon="11.684697084886896"><ele>532.0</ele><time>2026-04-26T08:41:47.999Z</time></trkpt><trkpt lat="43.812638306969056" lon="11.684686813639903"><ele>532.0</ele><time>2026-04-26T08:41:48.999Z</time></trkpt><trkpt lat="43.81271975971389" lon="11.684633489209592"><ele>532.0</ele><time>2026-04-26T08:41:49.999Z</time></trkpt><trkpt lat="43.812775953160205" lon="11.684509149586827"><ele>532.0</ele><time>2026-04-26T08:41:50.999Z</time></trkpt><trkpt lat="43.812761820296764" lon="11.684348409209704"><ele>532.0</ele><time>2026-04-26T08:41:51.999Z</time></trkpt><trkpt lat="43.812722891699764" lon="11.684195369219943"><ele>532.5</ele><time>2026-04-26T08:41:52.999Z</time></trkpt><trkpt lat="43.81267582356329" lon="11.684044898948727"><ele>533.0</ele><time>2026-04-26T08:41:53.999Z</time></trkpt><trkpt lat="43.8126022701417" lon="11.683914425700149"><ele>533.5</ele><time>2026-04-26T08:41:54.999Z</time></trkpt><trkpt lat="43.812506261855475" lon="11.683826058573205"><ele>534.0</ele><time>2026-04-26T08:41:55.999Z</time></trkpt><trkpt lat="43.812376708621585" lon="11.683740546180633"><ele>533.25</ele><time>2026-04-26T08:41:56.999Z</time></trkpt><trkpt lat="43.81226563083702" lon="11.683622671163402"><ele>532.5</ele><time>2026-04-26T08:41:57.999Z</time></trkpt><trkpt lat="43.81218476033872" lon="11.683487223796142"><ele>531.75</ele><time>2026-04-26T08:41:58.999Z</time></trkpt><trkpt lat="43.81214578220667" lon="11.683343049332342"><ele>531.0</ele><time>2026-04-26T08:41:59.999Z</time></trkpt><trkpt lat="43.812151031458534" lon="11.683194782589187"><ele>531.0</ele><time>2026-04-26T08:42:00.999Z</time></trkpt><trkpt lat="43.81217141925871" lon="11.683029356318565"><ele>531.0</ele><time>2026-04-26T08:42:01.999Z</time></trkpt><trkpt lat="43.81219564480252" lon="11.682835910984341"><ele>531.0</ele><time>2026-04-26T08:42:02.999Z</time></trkpt><trkpt lat="43.81223484359482" lon="11.68264269114823"><ele>531.0</ele><time>2026-04-26T08:42:03.999Z</time></trkpt><trkpt lat="43.81228757372772" lon="11.682447453669482"><ele>532.0</ele><time>2026-04-26T08:42:04.999Z</time></trkpt><trkpt lat="43.81238136608415" lon="11.682261457346824"><ele>533.0</ele><time>2026-04-26T08:42:05.999Z</time></trkpt><trkpt lat="43.812487348298006" lon="11.682068733049567"><ele>534.0</ele><time>2026-04-26T08:42:06.999Z</time></trkpt><trkpt lat="43.81256810500651" lon="11.681849762168083"><ele>531.6666666666666</ele><time>2026-04-26T08:42:07.999Z</time></trkpt><trkpt lat="43.81263765987152" lon="11.681616219407577"><ele>529.3333333333333</ele><time>2026-04-26T08:42:08.999Z</time></trkpt><trkpt lat="43.812691366442984" lon="11.681378582321814"><ele>527.0</ele><time>2026-04-26T08:42:09.999Z</time></trkpt><trkpt lat="43.812771385058475" lon="11.681160827569434"><ele>537.3333333333333</ele><time>2026-04-26T08:42:10.999Z</time></trkpt><trkpt lat="43.81283886983911" lon="11.680945711764444"><ele>547.6666666666666</ele><time>2026-04-26T08:42:11.999Z</time></trkpt><trkpt lat="43.81291821472189" lon="11.680744306274686"><ele>558.0</ele><time>2026-04-26T08:42:12.999Z</time></trkpt><trkpt lat="43.81301417875093" lon="11.680552717184492"><ele>558.0</ele><time>2026-04-26T08:42:13.999Z</time></trkpt><trkpt lat="43.813121315371625" lon="11.680365412766717"><ele>558.0</ele><time>2026-04-26T08:42:14.999Z</time></trkpt><trkpt lat="43.81322095783416" lon="11.680159624538284"><ele>558.0</ele><time>2026-04-26T08:42:15.999Z</time></trkpt><trkpt lat="43.81333487195477" lon="11.679964985846603"><ele>557.0</ele><time>2026-04-26T08:42:16.999Z</time></trkpt><trkpt lat="43.81344692655618" lon="11.679766805599158"><ele>556.0</ele><time>2026-04-26T08:42:17.999Z</time></trkpt><trkpt lat="43.813564144568616" lon="11.679574207892744"><ele>555.0</ele><time>2026-04-26T08:42:18.999Z</time></trkpt><trkpt lat="43.813674550512154" lon="11.679380104271132"><ele>555.0</ele><time>2026-04-26T08:42:19.999Z</time></trkpt><trkpt lat="43.813785848122635" lon="11.679187925997855"><ele>555.0</ele><time>2026-04-26T08:42:20.999Z</time></trkpt><trkpt lat="43.813893859217785" lon="11.679000452282523"><ele>555.0</ele><time>2026-04-26T08:42:21.999Z</time></trkpt><trkpt lat="43.81398685775818" lon="11.678815864760221"><ele>555.0</ele><time>2026-04-26T08:42:22.999Z</time></trkpt><trkpt lat="43.81408133778406" lon="11.67865336284615"><ele>555.0</ele><time>2026-04-26T08:42:23.999Z</time></trkpt><trkpt lat="43.81417753842448" lon="11.678513512407605"><ele>555.0</ele><time>2026-04-26T08:42:24.999Z</time></trkpt><trkpt lat="43.81429651312073" lon="11.678413299357292"><ele>555.0</ele><time>2026-04-26T08:42:25.999Z</time></trkpt><trkpt lat="43.814415141648574" lon="11.67832835313168"><ele>559.0</ele><time>2026-04-26T08:42:26.999Z</time></trkpt><trkpt lat="43.814537074259334" lon="11.67826401928871"><ele>563.0</ele><time>2026-04-26T08:42:27.999Z</time></trkpt><trkpt lat="43.81465162033209" lon="11.678206179885638"><ele>567.0</ele><time>2026-04-26T08:42:28.999Z</time></trkpt><trkpt lat="43.814747696645014" lon="11.678147628248169"><ele>571.0</ele><time>2026-04-26T08:42:29.999Z</time></trkpt><trkpt lat="43.814818209047885" lon="11.678062215145465"><ele>571.0</ele><time>2026-04-26T08:42:30.999Z</time></trkpt><trkpt lat="43.814846218362014" lon="11.677922460438507"><ele>571.0</ele><time>2026-04-26T08:42:31.999Z</time></trkpt><trkpt lat="43.814851432474825" lon="11.677773394241674"><ele>571.0</ele><time>2026-04-26T08:42:32.999Z</time></trkpt><trkpt lat="43.81484756894161" lon="11.677614044927052"><ele>571.0</ele><time>2026-04-26T08:42:33.999Z</time></trkpt><trkpt lat="43.81486583649871" lon="11.677448929062841"><ele>571.0</ele><time>2026-04-26T08:42:34.999Z</time></trkpt><trkpt lat="43.81493030169922" lon="11.677287080839712"><ele>568.5</ele><time>2026-04-26T08:42:35.999Z</time></trkpt><trkpt lat="43.81500924386818" lon="11.677123855625625"><ele>566.0</ele><time>2026-04-26T08:42:36.999Z</time></trkpt><trkpt lat="43.815084037782825" lon="11.676964246885898"><ele>563.5</ele><time>2026-04-26T08:42:37.999Z</time></trkpt><trkpt lat="43.81515802078361" lon="11.676820772353421"><ele>561.0</ele><time>2026-04-26T08:42:38.999Z</time></trkpt><trkpt lat="43.81524537789792" lon="11.676690739415164"><ele>566.0</ele><time>2026-04-26T08:42:39.999Z</time></trkpt><trkpt lat="43.815357648146986" lon="11.676634170684737"><ele>571.0</ele><time>2026-04-26T08:42:40.999Z</time></trkpt><trkpt lat="43.815498784694306" lon="11.67660177977149"><ele>576.0</ele><time>2026-04-26T08:42:41.999Z</time></trkpt><trkpt lat="43.81564645840226" lon="11.676531596353431"><ele>581.0</ele><time>2026-04-26T08:42:42.999Z</time></trkpt><trkpt lat="43.815787093871926" lon="11.676403397363687"><ele>581.0</ele><time>2026-04-26T08:42:43.999Z</time></trkpt><trkpt lat="43.81593465729242" lon="11.676281858011082"><ele>581.0</ele><time>2026-04-26T08:42:44.999Z</time></trkpt><trkpt lat="43.81606989903409" lon="11.676165794467098"><ele>581.0</ele><time>2026-04-26T08:42:45.999Z</time></trkpt><trkpt lat="43.81620274328153" lon="11.676050771800124"><ele>582.75</ele><time>2026-04-26T08:42:46.999Z</time></trkpt><trkpt lat="43.816327112983736" lon="11.67594139166014"><ele>584.5</ele><time>2026-04-26T08:42:47.999Z</time></trkpt><trkpt lat="43.816426626396535" lon="11.67580778368702"><ele>586.25</ele><time>2026-04-26T08:42:48.999Z</time></trkpt><trkpt lat="43.816502423664105" lon="11.675640725765886"><ele>588.0</ele><time>2026-04-26T08:42:49.999Z</time></trkpt><trkpt lat="43.816548762391555" lon="11.67544346105413"><ele>585.25</ele><time>2026-04-26T08:42:50.999Z</time></trkpt><trkpt lat="43.816572162790756" lon="11.675246260997826"><ele>582.5</ele><time>2026-04-26T08:42:51.999Z</time></trkpt><trkpt lat="43.81659457557143" lon="11.67506910135588"><ele>579.75</ele><time>2026-04-26T08:42:52.999Z</time></trkpt><trkpt lat="43.81665627083256" lon="11.67491487761571"><ele>577.0</ele><time>2026-04-26T08:42:53.999Z</time></trkpt><trkpt lat="43.816758046322775" lon="11.674786302824367"><ele>582.3333333333334</ele><time>2026-04-26T08:42:54.999Z</time></trkpt><trkpt lat="43.816899394696954" lon="11.674709512624972"><ele>587.6666666666666</ele><time>2026-04-26T08:42:55.999Z</time></trkpt><trkpt lat="43.817026935375615" lon="11.674584732338179"><ele>593.0</ele><time>2026-04-26T08:42:56.999Z</time></trkpt><trkpt lat="43.81713756014644" lon="11.674419742008865"><ele>593.0</ele><time>2026-04-26T08:42:57.999Z</time></trkpt><trkpt lat="43.817200205778875" lon="11.674197365493518"><ele>593.0</ele><time>2026-04-26T08:42:58.999Z</time></trkpt><trkpt lat="43.81728540057298" lon="11.673990687362288"><ele>593.0</ele><time>2026-04-26T08:42:59.999Z</time></trkpt><trkpt lat="43.81736040993652" lon="11.673791998851868"><ele>593.0</ele><time>2026-04-26T08:43:00.999Z</time></trkpt><trkpt lat="43.81742814030295" lon="11.673613978587976"><ele>593.0</ele><time>2026-04-26T08:43:01.999Z</time></trkpt><trkpt lat="43.81748727691111" lon="11.673460735215716"><ele>593.0</ele><time>2026-04-26T08:43:02.999Z</time></trkpt><trkpt lat="43.81752511565278" lon="11.673302142802704"><ele>593.0</ele><time>2026-04-26T08:43:03.999Z</time></trkpt><trkpt lat="43.817503276415415" lon="11.673124648550035"><ele>591.6666666666666</ele><time>2026-04-26T08:43:04.999Z</time></trkpt><trkpt lat="43.817454424668526" lon="11.672935452128122"><ele>590.3333333333334</ele><time>2026-04-26T08:43:05.999Z</time></trkpt><trkpt lat="43.81738009959239" lon="11.67274637252785"><ele>589.0</ele><time>2026-04-26T08:43:06.999Z</time></trkpt><trkpt lat="43.81731171554166" lon="11.672557293708994"><ele>589.0</ele><time>2026-04-26T08:43:07.999Z</time></trkpt><trkpt lat="43.81725670678097" lon="11.672380309584144"><ele>589.0</ele><time>2026-04-26T08:43:08.999Z</time></trkpt><trkpt lat="43.817224122146264" lon="11.672201538620511"><ele>589.0</ele><time>2026-04-26T08:43:09.999Z</time></trkpt><trkpt lat="43.81718531126098" lon="11.672045220098344"><ele>589.0</ele><time>2026-04-26T08:43:10.999Z</time></trkpt><trkpt lat="43.817187687074046" lon="11.671886075465268"><ele>589.25</ele><time>2026-04-26T08:43:11.999Z</time></trkpt><trkpt lat="43.81722925145675" lon="11.671728025470474"><ele>589.5</ele><time>2026-04-26T08:43:12.999Z</time></trkpt><trkpt lat="43.81730290522038" lon="11.671551094460163"><ele>589.75</ele><time>2026-04-26T08:43:14Z</time></trkpt><trkpt lat="43.817385965590404" lon="11.671357528297246"><ele>590.0</ele><time>2026-04-26T08:43:15Z</time></trkpt><trkpt lat="43.81745916060151" lon="11.6711520543343"><ele>586.3333333333333</ele><time>2026-04-26T08:43:16Z</time></trkpt><trkpt lat="43.8174933826915" lon="11.67090994220479"><ele>582.6666666666666</ele><time>2026-04-26T08:43:17Z</time></trkpt><trkpt lat="43.81753947386603" lon="11.670660694542603"><ele>579.0</ele><time>2026-04-26T08:43:18Z</time></trkpt><trkpt lat="43.81757383607286" lon="11.670415945355039"><ele>577.3333333333334</ele><time>2026-04-26T08:43:19Z</time></trkpt><trkpt lat="43.81760942656065" lon="11.670179522654683"><ele>575.6666666666667</ele><time>2026-04-26T08:43:20Z</time></trkpt><trkpt lat="43.81764357854925" lon="11.669943990058464"><ele>574.0</ele><time>2026-04-26T08:43:21Z</time></trkpt><trkpt lat="43.817676377161575" lon="11.669717791103682"><ele>577.5</ele><time>2026-04-26T08:43:22Z</time></trkpt><trkpt lat="43.81770802038411" lon="11.669507059254581"><ele>581.0</ele><time>2026-04-26T08:43:23Z</time></trkpt><trkpt lat="43.81773768981878" lon="11.669316791353262"><ele>584.5</ele><time>2026-04-26T08:43:24Z</time></trkpt><trkpt lat="43.81777486446836" lon="11.66915328393059"><ele>588.0</ele><time>2026-04-26T08:43:25Z</time></trkpt><trkpt lat="43.81783054249504" lon="11.66902477008782"><ele>588.0</ele><time>2026-04-26T08:43:26Z</time></trkpt><trkpt lat="43.817910719734996" lon="11.668913972809774"><ele>588.0</ele><time>2026-04-26T08:43:27Z</time></trkpt><trkpt lat="43.81801316821378" lon="11.668853815675819"><ele>588.0</ele><time>2026-04-26T08:43:28Z</time></trkpt><trkpt lat="43.81813237140077" lon="11.668854529376759"><ele>588.0</ele><time>2026-04-26T08:43:29Z</time></trkpt><trkpt lat="43.818267844343" lon="11.66886608738313"><ele>588.0</ele><time>2026-04-26T08:43:30Z</time></trkpt><trkpt lat="43.81841200923965" lon="11.66887898903794"><ele>588.0</ele><time>2026-04-26T08:43:31Z</time></trkpt><trkpt lat="43.81855994078745" lon="11.668875332213073"><ele>588.0</ele><time>2026-04-26T08:43:32Z</time></trkpt><trkpt lat="43.81869712394981" lon="11.668870225832855"><ele>588.0</ele><time>2026-04-26T08:43:33Z</time></trkpt><trkpt lat="43.81883952599017" lon="11.668852569270536"><ele>585.3333333333334</ele><time>2026-04-26T08:43:34Z</time></trkpt><trkpt lat="43.81897649089285" lon="11.668734841109154"><ele>582.6666666666667</ele><time>2026-04-26T08:43:35Z</time></trkpt><trkpt lat="43.81909812771216" lon="11.6685911339922"><ele>580.0</ele><time>2026-04-26T08:43:36Z</time></trkpt><trkpt lat="43.819216855626365" lon="11.668445007383388"><ele>584.5</ele><time>2026-04-26T08:43:37Z</time></trkpt><trkpt lat="43.81933083642918" lon="11.668293225729508"><ele>589.0</ele><time>2026-04-26T08:43:38Z</time></trkpt><trkpt lat="43.81941282516046" lon="11.668156644325386"><ele>593.5</ele><time>2026-04-26T08:43:39Z</time></trkpt><trkpt lat="43.81946693009516" lon="11.667991654726752"><ele>598.0</ele><time>2026-04-26T08:43:40Z</time></trkpt><trkpt lat="43.819479724632146" lon="11.667793429290688"><ele>600.3333333333334</ele><time>2026-04-26T08:43:41Z</time></trkpt><trkpt lat="43.81946013202856" lon="11.667576192047589"><ele>602.6666666666666</ele><time>2026-04-26T08:43:42Z</time></trkpt><trkpt lat="43.81941911572266" lon="11.667352105538802"><ele>605.0</ele><time>2026-04-26T08:43:43Z</time></trkpt><trkpt lat="43.819383632268895" lon="11.667134079961638"><ele>605.0</ele><time>2026-04-26T08:43:44Z</time></trkpt><trkpt lat="43.819360797485984" lon="11.666920703316919"><ele>605.0</ele><time>2026-04-26T08:43:45Z</time></trkpt><trkpt lat="43.81933639324623" lon="11.666716757909704"><ele>605.0</ele><time>2026-04-26T08:43:46Z</time></trkpt><trkpt lat="43.81931141423428" lon="11.666525961353415"><ele>605.0</ele><time>2026-04-26T08:43:47Z</time></trkpt><trkpt lat="43.819300550260216" lon="11.666339717819577"><ele>605.0</ele><time>2026-04-26T08:43:48Z</time></trkpt><trkpt lat="43.81932489653083" lon="11.666167696851776"><ele>605.0</ele><time>2026-04-26T08:43:49Z</time></trkpt><trkpt lat="43.81938645566478" lon="11.6660063730229"><ele>605.0</ele><time>2026-04-26T08:43:50Z</time></trkpt><trkpt lat="43.81951837260926" lon="11.665895069479118"><ele>605.0</ele><time>2026-04-26T08:43:51Z</time></trkpt><trkpt lat="43.81961918699111" lon="11.665731493567659"><ele>603.0</ele><time>2026-04-26T08:43:52Z</time></trkpt><trkpt lat="43.81972345976479" lon="11.665557917990895"><ele>601.0</ele><time>2026-04-26T08:43:53Z</time></trkpt><trkpt lat="43.81979055665559" lon="11.6653553343664"><ele>599.0</ele><time>2026-04-26T08:43:54Z</time></trkpt><trkpt lat="43.81985284714881" lon="11.66516474212064"><ele>595.5</ele><time>2026-04-26T08:43:55Z</time></trkpt><trkpt lat="43.819922726038264" lon="11.664991656237904"><ele>592.0</ele><time>2026-04-26T08:43:56Z</time></trkpt><trkpt lat="43.81998166366553" lon="11.664829492064747"><ele>588.5</ele><time>2026-04-26T08:43:57Z</time></trkpt><trkpt lat="43.82005637741717" lon="11.664693491985336"><ele>585.0</ele><time>2026-04-26T08:43:58Z</time></trkpt><trkpt lat="43.82014933839511" lon="11.664592969874858"><ele>589.0</ele><time>2026-04-26T08:43:59Z</time></trkpt><trkpt lat="43.820262362593695" lon="11.664536673191176"><ele>593.0</ele><time>2026-04-26T08:44:00Z</time></trkpt><trkpt lat="43.820397797248106" lon="11.664523439883556"><ele>597.0</ele><time>2026-04-26T08:44:01Z</time></trkpt><trkpt lat="43.82050599275398" lon="11.66456742235646"><ele>601.0</ele><time>2026-04-26T08:44:02Z</time></trkpt><trkpt lat="43.82061205511419" lon="11.664648403018779"><ele>601.0</ele><time>2026-04-26T08:44:03Z</time></trkpt><trkpt lat="43.82071341457781" lon="11.664762304418787"><ele>601.0</ele><time>2026-04-26T08:44:04Z</time></trkpt><trkpt lat="43.82083317126785" lon="11.664859461575894"><ele>601.0</ele><time>2026-04-26T08:44:05Z</time></trkpt><trkpt lat="43.8209401580909" lon="11.664952274501264"><ele>601.0</ele><time>2026-04-26T08:44:06Z</time></trkpt><trkpt lat="43.82105574785079" lon="11.664998003233032"><ele>604.0</ele><time>2026-04-26T08:44:07Z</time></trkpt><trkpt lat="43.821168794327356" lon="11.664989765297094"><ele>607.0</ele><time>2026-04-26T08:44:08Z</time></trkpt><trkpt lat="43.82128065147462" lon="11.664931767113584"><ele>610.0</ele><time>2026-04-26T08:44:09Z</time></trkpt><trkpt lat="43.82138078219493" lon="11.664822689332457"><ele>613.0</ele><time>2026-04-26T08:44:10Z</time></trkpt><trkpt lat="43.82146393646413" lon="11.66467738768025"><ele>613.0</ele><time>2026-04-26T08:44:11Z</time></trkpt><trkpt lat="43.821525743562404" lon="11.664502411017047"><ele>613.0</ele><time>2026-04-26T08:44:12Z</time></trkpt><trkpt lat="43.821599249790566" lon="11.664327536467427"><ele>613.0</ele><time>2026-04-26T08:44:13Z</time></trkpt><trkpt lat="43.821665281314395" lon="11.664140933570524"><ele>613.0</ele><time>2026-04-26T08:44:13.999Z</time></trkpt><trkpt lat="43.82173168971051" lon="11.663966053895114"><ele>614.75</ele><time>2026-04-26T08:44:14.999Z</time></trkpt><trkpt lat="43.82181294627206" lon="11.663809831283377"><ele>616.5</ele><time>2026-04-26T08:44:15.999Z</time></trkpt><trkpt lat="43.82192746983108" lon="11.663691414806175"><ele>618.25</ele><time>2026-04-26T08:44:16.999Z</time></trkpt><trkpt lat="43.82206218403275" lon="11.66358234665915"><ele>620.0</ele><time>2026-04-26T08:44:17.999Z</time></trkpt><trkpt lat="43.8221931439512" lon="11.663488994106892"><ele>615.25</ele><time>2026-04-26T08:44:18.999Z</time></trkpt><trkpt lat="43.822324254822185" lon="11.663412224566724"><ele>610.5</ele><time>2026-04-26T08:44:19.999Z</time></trkpt><trkpt lat="43.82245972594008" lon="11.663353255604035"><ele>605.75</ele><time>2026-04-26T08:44:20.999Z</time></trkpt><trkpt lat="43.82261697189546" lon="11.66332150619769"><ele>601.0</ele><time>2026-04-26T08:44:21.999Z</time></trkpt><trkpt lat="43.82279522284235" lon="11.663298180145729"><ele>601.0</ele><time>2026-04-26T08:44:22.999Z</time></trkpt><trkpt lat="43.822983281653954" lon="11.66326910316953"><ele>601.0</ele><time>2026-04-26T08:44:23.999Z</time></trkpt><trkpt lat="43.82318110323033" lon="11.663241643567101"><ele>601.0</ele><time>2026-04-26T08:44:24.999Z</time></trkpt><trkpt lat="43.823377961395586" lon="11.663215903816452"><ele>603.0</ele><time>2026-04-26T08:44:25.999Z</time></trkpt><trkpt lat="43.823564521889004" lon="11.663190749434214"><ele>605.0</ele><time>2026-04-26T08:44:26.999Z</time></trkpt><trkpt lat="43.82373693188465" lon="11.66316727790142"><ele>607.0</ele><time>2026-04-26T08:44:27.999Z</time></trkpt><trkpt lat="43.82389299274858" lon="11.663145926663866"><ele>607.0</ele><time>2026-04-26T08:44:28.999Z</time></trkpt><trkpt lat="43.82402820559177" lon="11.663121125964468"><ele>607.0</ele><time>2026-04-26T08:44:29.999Z</time></trkpt><trkpt lat="43.8241482865679" lon="11.663073405404285"><ele>607.0</ele><time>2026-04-26T08:44:30.999Z</time></trkpt><trkpt lat="43.82425326540576" lon="11.66296646375178"><ele>607.0</ele><time>2026-04-26T08:44:31.999Z</time></trkpt><trkpt lat="43.82432356763057" lon="11.662810693285412"><ele>606.75</ele><time>2026-04-26T08:44:32.999Z</time></trkpt><trkpt lat="43.82438283350773" lon="11.662642170850875"><ele>606.5</ele><time>2026-04-26T08:44:33.999Z</time></trkpt><trkpt lat="43.82441832016008" lon="11.662445945846908"><ele>606.25</ele><time>2026-04-26T08:44:34.999Z</time></trkpt><trkpt lat="43.82446723385522" lon="11.66224240817244"><ele>606.0</ele><time>2026-04-26T08:44:35.999Z</time></trkpt><trkpt lat="43.824513396801954" lon="11.662050485833133"><ele>603.5</ele><time>2026-04-26T08:44:36.999Z</time></trkpt><trkpt lat="43.824570960755125" lon="11.661897577153262"><ele>601.0</ele><time>2026-04-26T08:44:37.999Z</time></trkpt><trkpt lat="43.82466341485544" lon="11.661765325723044"><ele>598.5</ele><time>2026-04-26T08:44:38.999Z</time></trkpt><trkpt lat="43.82479266462314" lon="11.661635133872126"><ele>596.0</ele><time>2026-04-26T08:44:39.999Z</time></trkpt><trkpt lat="43.82494202140452" lon="11.661479557349576"><ele>596.0</ele><time>2026-04-26T08:44:40.999Z</time></trkpt><trkpt lat="43.82508443038537" lon="11.661332113103631"><ele>596.0</ele><time>2026-04-26T08:44:41.999Z</time></trkpt><trkpt lat="43.825227445058026" lon="11.661184655501442"><ele>596.0</ele><time>2026-04-26T08:44:42.999Z</time></trkpt><trkpt lat="43.82536616843253" lon="11.661040420676633"><ele>598.6666666666666</ele><time>2026-04-26T08:44:43.999Z</time></trkpt><trkpt lat="43.82549388552363" lon="11.66090762961284"><ele>601.3333333333334</ele><time>2026-04-26T08:44:44.999Z</time></trkpt><trkpt lat="43.825614794511715" lon="11.66077302335815"><ele>604.0</ele><time>2026-04-26T08:44:45.999Z</time></trkpt><trkpt lat="43.82572697226953" lon="11.660624930316235"><ele>604.0</ele><time>2026-04-26T08:44:46.999Z</time></trkpt><trkpt lat="43.82580650287486" lon="11.660444939727565"><ele>604.0</ele><time>2026-04-26T08:44:47.999Z</time></trkpt><trkpt lat="43.82587341345136" lon="11.660268720593999"><ele>604.0</ele><time>2026-04-26T08:44:48.999Z</time></trkpt><trkpt lat="43.825910659388704" lon="11.660068671293237"><ele>604.0</ele><time>2026-04-26T08:44:49.999Z</time></trkpt><trkpt lat="43.82595834186996" lon="11.659865891715217"><ele>604.6666666666667</ele><time>2026-04-26T08:44:50.999Z</time></trkpt><trkpt lat="43.82599873968638" lon="11.659653183130581"><ele>605.3333333333334</ele><time>2026-04-26T08:44:51.999Z</time></trkpt><trkpt lat="43.826039797725066" lon="11.65944219533674"><ele>606.0</ele><time>2026-04-26T08:44:52.999Z</time></trkpt><trkpt lat="43.826084597193194" lon="11.659247229644983"><ele>606.0</ele><time>2026-04-26T08:44:53.999Z</time></trkpt><trkpt lat="43.826138380873765" lon="11.659073796051693"><ele>606.0</ele><time>2026-04-26T08:44:54.999Z</time></trkpt><trkpt lat="43.826217217404036" lon="11.658934534825969"><ele>606.0</ele><time>2026-04-26T08:44:55.999Z</time></trkpt><trkpt lat="43.826325343742496" lon="11.658822907569535"><ele>606.0</ele><time>2026-04-26T08:44:56.999Z</time></trkpt><trkpt lat="43.82644769049166" lon="11.658729345523826"><ele>606.0</ele><time>2026-04-26T08:44:57.999Z</time></trkpt><trkpt lat="43.826569039290106" lon="11.658686624859643"><ele>606.0</ele><time>2026-04-26T08:44:58.999Z</time></trkpt><trkpt lat="43.82669233682275" lon="11.658677394872166"><ele>606.0</ele><time>2026-04-26T08:44:59.999Z</time></trkpt><trkpt lat="43.82681243105999" lon="11.658751370365502"><ele>606.0</ele><time>2026-04-26T08:45:00.999Z</time></trkpt><trkpt lat="43.82695682631569" lon="11.658826750057495"><ele>605.6666666666666</ele><time>2026-04-26T08:45:01.999Z</time></trkpt><trkpt lat="43.827101803178685" lon="11.658904991540568"><ele>605.3333333333333</ele><time>2026-04-26T08:45:02.999Z</time></trkpt><trkpt lat="43.82725492570288" lon="11.65898296412393"><ele>605.0</ele><time>2026-04-26T08:45:03.999Z</time></trkpt><trkpt lat="43.8274180197088" lon="11.659050590167503"><ele>605.0</ele><time>2026-04-26T08:45:04.999Z</time></trkpt><trkpt lat="43.827595724730344" lon="11.659077280601817"><ele>605.0</ele><time>2026-04-26T08:45:05.999Z</time></trkpt><trkpt lat="43.82778348040417" lon="11.659082837573083"><ele>605.0</ele><time>2026-04-26T08:45:06.999Z</time></trkpt><trkpt lat="43.827983897438436" lon="11.659082996969126"><ele>604.0</ele><time>2026-04-26T08:45:07.999Z</time></trkpt><trkpt lat="43.82818703142903" lon="11.659085367183641"><ele>603.0</ele><time>2026-04-26T08:45:08.999Z</time></trkpt><trkpt lat="43.8283782531826" lon="11.659053310183916"><ele>602.0</ele><time>2026-04-26T08:45:09.999Z</time></trkpt><trkpt lat="43.82854873439189" lon="11.659054321850817"><ele>600.0</ele><time>2026-04-26T08:45:10.999Z</time></trkpt><trkpt lat="43.82869663252559" lon="11.659054897218095"><ele>598.0</ele><time>2026-04-26T08:45:11.999Z</time></trkpt><trkpt lat="43.82882502661771" lon="11.659076739064053"><ele>596.0</ele><time>2026-04-26T08:45:12.999Z</time></trkpt><trkpt lat="43.828929878166534" lon="11.659166848466828"><ele>594.0</ele><time>2026-04-26T08:45:13.999Z</time></trkpt><trkpt lat="43.82903483136354" lon="11.659264076948835"><ele>594.0</ele><time>2026-04-26T08:45:14.999Z</time></trkpt><trkpt lat="43.829132980893796" lon="11.659393139185147"><ele>594.0</ele><time>2026-04-26T08:45:15.999Z</time></trkpt><trkpt lat="43.82924168778054" lon="11.659498060986925"><ele>594.0</ele><time>2026-04-26T08:45:16.999Z</time></trkpt><trkpt lat="43.829355128679886" lon="11.659566967713426"><ele>594.0</ele><time>2026-04-26T08:45:17.999Z</time></trkpt><trkpt lat="43.82949269401119" lon="11.659631887883807"><ele>594.0</ele><time>2026-04-26T08:45:18.999Z</time></trkpt><trkpt lat="43.82960839450669" lon="11.659615076387423"><ele>594.0</ele><time>2026-04-26T08:45:20Z</time></trkpt><trkpt lat="43.82973780025584" lon="11.659540975802184"><ele>594.0</ele><time>2026-04-26T08:45:21Z</time></trkpt><trkpt lat="43.82986258026309" lon="11.659435073087083"><ele>594.0</ele><time>2026-04-26T08:45:22Z</time></trkpt><trkpt lat="43.82998379680004" lon="11.659305382796664"><ele>594.0</ele><time>2026-04-26T08:45:23Z</time></trkpt><trkpt lat="43.830092884292625" lon="11.659188223854818"><ele>594.0</ele><time>2026-04-26T08:45:24Z</time></trkpt><trkpt lat="43.83018095169517" lon="11.65904398272588"><ele>594.0</ele><time>2026-04-26T08:45:25Z</time></trkpt><trkpt lat="43.8302912535925" lon="11.658973584376879"><ele>594.0</ele><time>2026-04-26T08:45:26Z</time></trkpt><trkpt lat="43.83038863619164" lon="11.658959798798039"><ele>597.25</ele><time>2026-04-26T08:45:27Z</time></trkpt><trkpt lat="43.83048586176748" lon="11.658997681278098"><ele>600.5</ele><time>2026-04-26T08:45:28Z</time></trkpt><trkpt lat="43.830579366952364" lon="11.659089828682513"><ele>603.75</ele><time>2026-04-26T08:45:29Z</time></trkpt><trkpt lat="43.830696395023324" lon="11.659121386682925"><ele>607.0</ele><time>2026-04-26T08:45:30Z</time></trkpt><trkpt lat="43.83082561409292" lon="11.659112687774101"><ele>607.0</ele><time>2026-04-26T08:45:31Z</time></trkpt><trkpt lat="43.830953493659635" lon="11.659084354839443"><ele>607.0</ele><time>2026-04-26T08:45:32Z</time></trkpt><trkpt lat="43.83108468654389" lon="11.659060949174988"><ele>607.0</ele><time>2026-04-26T08:45:33Z</time></trkpt><trkpt lat="43.83121095000078" lon="11.659045193664761"><ele>607.0</ele><time>2026-04-26T08:45:34Z</time></trkpt><trkpt lat="43.831330455258346" lon="11.659070001161416"><ele>607.0</ele><time>2026-04-26T08:45:35Z</time></trkpt><trkpt lat="43.83144882647902" lon="11.659142815215898"><ele>607.0</ele><time>2026-04-26T08:45:36Z</time></trkpt><trkpt lat="43.8315708302529" lon="11.659245622538846"><ele>607.0</ele><time>2026-04-26T08:45:37Z</time></trkpt><trkpt lat="43.83168418000753" lon="11.659352134358304"><ele>607.0</ele><time>2026-04-26T08:45:38Z</time></trkpt><trkpt lat="43.831808740767364" lon="11.65947598889169"><ele>607.0</ele><time>2026-04-26T08:45:39Z</time></trkpt><trkpt lat="43.83192575046155" lon="11.659588497136419"><ele>607.0</ele><time>2026-04-26T08:45:40Z</time></trkpt><trkpt lat="43.832048644055654" lon="11.659663122745481"><ele>607.0</ele><time>2026-04-26T08:45:41Z</time></trkpt><trkpt lat="43.832161867824404" lon="11.659730384059005"><ele>607.0</ele><time>2026-04-26T08:45:42Z</time></trkpt><trkpt lat="43.832281683373544" lon="11.659756210010832"><ele>607.0</ele><time>2026-04-26T08:45:43Z</time></trkpt><trkpt lat="43.832393714331694" lon="11.659737937545144"><ele>607.0</ele><time>2026-04-26T08:45:44Z</time></trkpt><trkpt lat="43.83251239138568" lon="11.659716407813107"><ele>607.0</ele><time>2026-04-26T08:45:45Z</time></trkpt><trkpt lat="43.83263851319405" lon="11.659673873993613"><ele>607.0</ele><time>2026-04-26T08:45:46Z</time></trkpt><trkpt lat="43.832771887336875" lon="11.659630225527284"><ele>610.0</ele><time>2026-04-26T08:45:47Z</time></trkpt><trkpt lat="43.832916886338445" lon="11.659583029339947"><ele>613.0</ele><time>2026-04-26T08:45:48Z</time></trkpt><trkpt lat="43.833071419603975" lon="11.65953427075633"><ele>616.0</ele><time>2026-04-26T08:45:49Z</time></trkpt><trkpt lat="43.833231116795304" lon="11.659483987166277"><ele>612.3333333333334</ele><time>2026-04-26T08:45:50Z</time></trkpt><trkpt lat="43.83339932935453" lon="11.659431636796985"><ele>608.6666666666666</ele><time>2026-04-26T08:45:51Z</time></trkpt><trkpt lat="43.833569458926675" lon="11.659378547033795"><ele>605.0</ele><time>2026-04-26T08:45:52Z</time></trkpt><trkpt lat="43.8337382339202" lon="11.659324970961327"><ele>605.0</ele><time>2026-04-26T08:45:53Z</time></trkpt><trkpt lat="43.83390801792435" lon="11.659272592210112"><ele>605.0</ele><time>2026-04-26T08:45:54Z</time></trkpt><trkpt lat="43.83406755020246" lon="11.659225015620319"><ele>605.0</ele><time>2026-04-26T08:45:55Z</time></trkpt><trkpt lat="43.83421365404139" lon="11.659186992114025"><ele>606.75</ele><time>2026-04-26T08:45:56Z</time></trkpt><trkpt lat="43.83435600885367" lon="11.659187902267732"><ele>608.5</ele><time>2026-04-26T08:45:57Z</time></trkpt><trkpt lat="43.834497951498484" lon="11.659221080817131"><ele>610.25</ele><time>2026-04-26T08:45:58Z</time></trkpt><trkpt lat="43.83463917226202" lon="11.659269882174954"><ele>612.0</ele><time>2026-04-26T08:45:59Z</time></trkpt><trkpt lat="43.83479144550387" lon="11.659321411107088"><ele>612.0</ele><time>2026-04-26T08:46:00Z</time></trkpt><trkpt lat="43.834931389203454" lon="11.659368767747674"><ele>612.0</ele><time>2026-04-26T08:46:01Z</time></trkpt><trkpt lat="43.835089816844715" lon="11.659250264891092"><ele>612.0</ele><time>2026-04-26T08:46:02Z</time></trkpt><trkpt lat="43.83521711913925" lon="11.659143899600053"><ele>618.0</ele><time>2026-04-26T08:46:03Z</time></trkpt><trkpt lat="43.83533170957508" lon="11.658980057120072"><ele>624.0</ele><time>2026-04-26T08:46:04Z</time></trkpt><trkpt lat="43.83542959709025" lon="11.65880623095859"><ele>630.0</ele><time>2026-04-26T08:46:05Z</time></trkpt><trkpt lat="43.83552339389701" lon="11.658640250909244"><ele>624.6666666666666</ele><time>2026-04-26T08:46:06Z</time></trkpt><trkpt lat="43.835627889805224" lon="11.658517505449394"><ele>619.3333333333333</ele><time>2026-04-26T08:46:07Z</time></trkpt><trkpt lat="43.83576655248325" lon="11.65842611335992"><ele>614.0</ele><time>2026-04-26T08:46:08Z</time></trkpt><trkpt lat="43.83593266542829" lon="11.658378209629944"><ele>617.0</ele><time>2026-04-26T08:46:09Z</time></trkpt><trkpt lat="43.836107821243026" lon="11.658337249869366"><ele>620.0</ele><time>2026-04-26T08:46:10Z</time></trkpt><trkpt lat="43.836295583778416" lon="11.658292110870665"><ele>623.0</ele><time>2026-04-26T08:46:11Z</time></trkpt><trkpt lat="43.83648078373139" lon="11.65823834633884"><ele>623.0</ele><time>2026-04-26T08:46:12Z</time></trkpt><trkpt lat="43.83665023986832" lon="11.658187576646997"><ele>623.0</ele><time>2026-04-26T08:46:13Z</time></trkpt><trkpt lat="43.83680955091942" lon="11.658135101298397"><ele>623.0</ele><time>2026-04-26T08:46:14Z</time></trkpt><trkpt lat="43.83694280456775" lon="11.658077167843095"><ele>625.0</ele><time>2026-04-26T08:46:15Z</time></trkpt><trkpt lat="43.83705448252276" lon="11.657989040370655"><ele>627.0</ele><time>2026-04-26T08:46:16Z</time></trkpt><trkpt lat="43.83715749654299" lon="11.657855805562088"><ele>629.0</ele><time>2026-04-26T08:46:17Z</time></trkpt><trkpt lat="43.837237689329115" lon="11.657671429666188"><ele>631.0</ele><time>2026-04-26T08:46:18Z</time></trkpt><trkpt lat="43.837308446293" lon="11.657464109331418"><ele>631.0</ele><time>2026-04-26T08:46:19Z</time></trkpt><trkpt lat="43.83739166894092" lon="11.65724893746603"><ele>631.0</ele><time>2026-04-26T08:46:20Z</time></trkpt><trkpt lat="43.83748198954052" lon="11.657026662589038"><ele>631.0</ele><time>2026-04-26T08:46:21Z</time></trkpt><trkpt lat="43.837577798346054" lon="11.656804472874768"><ele>635.6666666666667</ele><time>2026-04-26T08:46:22Z</time></trkpt><trkpt lat="43.83766586235973" lon="11.65659985053489"><ele>640.3333333333334</ele><time>2026-04-26T08:46:23Z</time></trkpt><trkpt lat="43.83774595172397" lon="11.65640485559097"><ele>645.0</ele><time>2026-04-26T08:46:24Z</time></trkpt><trkpt lat="43.83782268935631" lon="11.656224761867408"><ele>640.0</ele><time>2026-04-26T08:46:25Z</time></trkpt><trkpt lat="43.8378967310597" lon="11.656062894238723"><ele>635.0</ele><time>2026-04-26T08:46:26Z</time></trkpt><trkpt lat="43.83798688207093" lon="11.655928710087965"><ele>630.0</ele><time>2026-04-26T08:46:27Z</time></trkpt><trkpt lat="43.838105257669184" lon="11.655840327061867"><ele>625.0</ele><time>2026-04-26T08:46:28Z</time></trkpt><trkpt lat="43.83824658320574" lon="11.655798312580956"><ele>625.0</ele><time>2026-04-26T08:46:29Z</time></trkpt><trkpt lat="43.838401072655884" lon="11.655794940528837"><ele>625.0</ele><time>2026-04-26T08:46:30Z</time></trkpt><trkpt lat="43.838569514504" lon="11.655803951336331"><ele>625.0</ele><time>2026-04-26T08:46:31Z</time></trkpt><trkpt lat="43.83874362941589" lon="11.655797976453357"><ele>629.0</ele><time>2026-04-26T08:46:32Z</time></trkpt><trkpt lat="43.838918165187536" lon="11.655791309648691"><ele>633.0</ele><time>2026-04-26T08:46:33Z</time></trkpt><trkpt lat="43.83909287021467" lon="11.655787178718544"><ele>637.0</ele><time>2026-04-26T08:46:34Z</time></trkpt><trkpt lat="43.839263841114224" lon="11.655784992651146"><ele>640.6666666666667</ele><time>2026-04-26T08:46:35Z</time></trkpt><trkpt lat="43.83943172082931" lon="11.655783259295537"><ele>644.3333333333334</ele><time>2026-04-26T08:46:36Z</time></trkpt><trkpt lat="43.83958646591498" lon="11.655774260756653"><ele>648.0</ele><time>2026-04-26T08:46:37Z</time></trkpt><trkpt lat="43.83973034513011" lon="11.655755406589675"><ele>648.0</ele><time>2026-04-26T08:46:38Z</time></trkpt><trkpt lat="43.839868746271904" lon="11.65570437711225"><ele>648.0</ele><time>2026-04-26T08:46:39Z</time></trkpt><trkpt lat="43.83998972670679" lon="11.655608018442054"><ele>648.0</ele><time>2026-04-26T08:46:40Z</time></trkpt><trkpt lat="43.840093065988746" lon="11.655462290856418"><ele>648.0</ele><time>2026-04-26T08:46:41Z</time></trkpt><trkpt lat="43.840185496059604" lon="11.655291915141229"><ele>653.0</ele><time>2026-04-26T08:46:42Z</time></trkpt><trkpt lat="43.84027328548661" lon="11.655094862674272"><ele>658.0</ele><time>2026-04-26T08:46:43Z</time></trkpt><trkpt lat="43.840371410882106" lon="11.654894877501196"><ele>663.0</ele><time>2026-04-26T08:46:44Z</time></trkpt><trkpt lat="43.84047989064008" lon="11.654690892898552"><ele>663.0</ele><time>2026-04-26T08:46:45Z</time></trkpt><trkpt lat="43.84060602685355" lon="11.654497872162336"><ele>663.0</ele><time>2026-04-26T08:46:46Z</time></trkpt><trkpt lat="43.840742318077474" lon="11.65431553948713"><ele>663.0</ele><time>2026-04-26T08:46:47Z</time></trkpt><trkpt lat="43.8408750827076" lon="11.654140527982486"><ele>663.0</ele><time>2026-04-26T08:46:48Z</time></trkpt><trkpt lat="43.84099893402228" lon="11.653968938543223"><ele>663.0</ele><time>2026-04-26T08:46:49Z</time></trkpt><trkpt lat="43.841108943430044" lon="11.653812056164714"><ele>663.0</ele><time>2026-04-26T08:46:50Z</time></trkpt><trkpt lat="43.8412156748063" lon="11.653677055914406"><ele>659.25</ele><time>2026-04-26T08:46:51Z</time></trkpt><trkpt lat="43.84132769038433" lon="11.65357002273985"><ele>655.5</ele><time>2026-04-26T08:46:52Z</time></trkpt><trkpt lat="43.84145306355028" lon="11.653500962429668"><ele>651.75</ele><time>2026-04-26T08:46:53Z</time></trkpt><trkpt lat="43.84157334858809" lon="11.653476780342565"><ele>648.0</ele><time>2026-04-26T08:46:53.999Z</time></trkpt><trkpt lat="43.8416789946774" lon="11.653448664590679"><ele>648.0</ele><time>2026-04-26T08:46:54.999Z</time></trkpt><trkpt lat="43.841766759226964" lon="11.65338266051426"><ele>648.0</ele><time>2026-04-26T08:46:55.999Z</time></trkpt><trkpt lat="43.84183373243292" lon="11.653261196285975"><ele>648.0</ele><time>2026-04-26T08:46:56.999Z</time></trkpt><trkpt lat="43.84187694156339" lon="11.653118266516058"><ele>648.0</ele><time>2026-04-26T08:46:57.999Z</time></trkpt><trkpt lat="43.84187945706488" lon="11.652970666633486"><ele>648.0</ele><time>2026-04-26T08:46:58.999Z</time></trkpt><trkpt lat="43.841832984094104" lon="11.652818614871585"><ele>649.0</ele><time>2026-04-26T08:46:59.999Z</time></trkpt><trkpt lat="43.8417447272174" lon="11.652669885676644"><ele>650.0</ele><time>2026-04-26T08:47:00.999Z</time></trkpt><trkpt lat="43.84166404907015" lon="11.652512038126705"><ele>651.0</ele><time>2026-04-26T08:47:01.999Z</time></trkpt><trkpt lat="43.841617445639244" lon="11.652324617184627"><ele>652.0</ele><time>2026-04-26T08:47:02.999Z</time></trkpt><trkpt lat="43.841615587272166" lon="11.652102480816714"><ele>655.0</ele><time>2026-04-26T08:47:03.999Z</time></trkpt><trkpt lat="43.84163363304141" lon="11.651858113017385"><ele>658.0</ele><time>2026-04-26T08:47:04.999Z</time></trkpt><trkpt lat="43.841651415093885" lon="11.651591509027284"><ele>661.0</ele><time>2026-04-26T08:47:05.999Z</time></trkpt><trkpt lat="43.841668476273036" lon="11.65130772613167"><ele>662.0</ele><time>2026-04-26T08:47:06.999Z</time></trkpt><trkpt lat="43.8416949350313" lon="11.651020115420472"><ele>663.0</ele><time>2026-04-26T08:47:07.999Z</time></trkpt><trkpt lat="43.84171582103348" lon="11.650740932573637"><ele>664.0</ele><time>2026-04-26T08:47:08.999Z</time></trkpt><trkpt lat="43.84174499638071" lon="11.650453872346334"><ele>663.6666666666667</ele><time>2026-04-26T08:47:09.999Z</time></trkpt><trkpt lat="43.841754622811585" lon="11.650162961028203"><ele>663.3333333333334</ele><time>2026-04-26T08:47:10.999Z</time></trkpt><trkpt lat="43.84179714116996" lon="11.649859778144481"><ele>663.0</ele><time>2026-04-26T08:47:11.999Z</time></trkpt><trkpt lat="43.841825684605894" lon="11.649579725545943"><ele>674.3333333333334</ele><time>2026-04-26T08:47:12.999Z</time></trkpt><trkpt lat="43.84185179368834" lon="11.649320177007668"><ele>685.6666666666667</ele><time>2026-04-26T08:47:13.999Z</time></trkpt><trkpt lat="43.84187107543643" lon="11.649066261956092"><ele>697.0</ele><time>2026-04-26T08:47:14.999Z</time></trkpt><trkpt lat="43.84186241264755" lon="11.648810703801768"><ele>702.6666666666667</ele><time>2026-04-26T08:47:15.999Z</time></trkpt><trkpt lat="43.84182714938072" lon="11.648557774240503"><ele>708.3333333333334</ele><time>2026-04-26T08:47:16.999Z</time></trkpt><trkpt lat="43.841769625455605" lon="11.64831770310857"><ele>714.0</ele><time>2026-04-26T08:47:17.999Z</time></trkpt><trkpt lat="43.84168762784914" lon="11.648082438896934"><ele>706.0</ele><time>2026-04-26T08:47:18.999Z</time></trkpt><trkpt lat="43.84158478042073" lon="11.647856905980538"><ele>698.0</ele><time>2026-04-26T08:47:19.999Z</time></trkpt><trkpt lat="43.84149731421168" lon="11.647644762018848"><ele>690.0</ele><time>2026-04-26T08:47:20.999Z</time></trkpt><trkpt lat="43.84142112431085" lon="11.64743638378606"><ele>690.0</ele><time>2026-04-26T08:47:21.999Z</time></trkpt><trkpt lat="43.8413703016053" lon="11.64720760713217"><ele>690.0</ele><time>2026-04-26T08:47:22.999Z</time></trkpt><trkpt lat="43.84135563508866" lon="11.646960843419544"><ele>690.0</ele><time>2026-04-26T08:47:23.999Z</time></trkpt><trkpt lat="43.84135840808491" lon="11.646723937649142"><ele>692.5</ele><time>2026-04-26T08:47:24.999Z</time></trkpt><trkpt lat="43.84135234820683" lon="11.64652595780734"><ele>695.0</ele><time>2026-04-26T08:47:26.001Z</time></trkpt><trkpt lat="43.84131277466801" lon="11.646344286607391"><ele>697.5</ele><time>2026-04-26T08:47:27.001Z</time></trkpt><trkpt lat="43.84123310738195" lon="11.646178193524955"><ele>700.0</ele><time>2026-04-26T08:47:28.001Z</time></trkpt><trkpt lat="43.84112152189068" lon="11.646027854712068"><ele>702.75</ele><time>2026-04-26T08:47:29.001Z</time></trkpt><trkpt lat="43.84099479990372" lon="11.645892966565452"><ele>705.5</ele><time>2026-04-26T08:47:30.001Z</time></trkpt><trkpt lat="43.84089621844482" lon="11.645753350614935"><ele>708.25</ele><time>2026-04-26T08:47:31.001Z</time></trkpt><trkpt lat="43.840824283345455" lon="11.64558311132391"><ele>711.0</ele><time>2026-04-26T08:47:32.001Z</time></trkpt><trkpt lat="43.84078553769835" lon="11.645367303030943"><ele>705.0</ele><time>2026-04-26T08:47:33.001Z</time></trkpt><trkpt lat="43.84076104541524" lon="11.645125654406554"><ele>699.0</ele><time>2026-04-26T08:47:34.001Z</time></trkpt><trkpt lat="43.84072934182389" lon="11.644871565870279"><ele>693.0</ele><time>2026-04-26T08:47:35.001Z</time></trkpt><trkpt lat="43.84069227808775" lon="11.644608904348289"><ele>695.6666666666666</ele><time>2026-04-26T08:47:36.001Z</time></trkpt><trkpt lat="43.8406537325826" lon="11.644352264137774"><ele>698.3333333333333</ele><time>2026-04-26T08:47:37.001Z</time></trkpt><trkpt lat="43.84061664592488" lon="11.644113375223498"><ele>701.0</ele><time>2026-04-26T08:47:38.001Z</time></trkpt><trkpt lat="43.84058656204643" lon="11.643911696667429"><ele>701.0</ele><time>2026-04-26T08:47:39.001Z</time></trkpt><trkpt lat="43.840578624134494" lon="11.643734444772917"><ele>701.0</ele><time>2026-04-26T08:47:40.001Z</time></trkpt><trkpt lat="43.84059845573891" lon="11.64355517928374"><ele>701.0</ele><time>2026-04-26T08:47:41.001Z</time></trkpt><trkpt lat="43.84065161991421" lon="11.643377216555526"><ele>701.0</ele><time>2026-04-26T08:47:42.001Z</time></trkpt><trkpt lat="43.840738921545565" lon="11.643208697411135"><ele>701.25</ele><time>2026-04-26T08:47:43.001Z</time></trkpt><trkpt lat="43.84083960356016" lon="11.643050959185567"><ele>701.5</ele><time>2026-04-26T08:47:44Z</time></trkpt><trkpt lat="43.84092290635445" lon="11.642910747650781"><ele>701.75</ele><time>2026-04-26T08:47:45Z</time></trkpt><trkpt lat="43.840985567296435" lon="11.642779478439676"><ele>702.0</ele><time>2026-04-26T08:47:46Z</time></trkpt><trkpt lat="43.84104524950228" lon="11.642665343858765"><ele>707.0</ele><time>2026-04-26T08:47:47Z</time></trkpt><trkpt lat="43.84111998828739" lon="11.642568280347374"><ele>712.0</ele><time>2026-04-26T08:47:48Z</time></trkpt><trkpt lat="43.84121418887153" lon="11.642502338730313"><ele>717.0</ele><time>2026-04-26T08:47:49Z</time></trkpt><trkpt lat="43.841315444056924" lon="11.642490367203244"><ele>722.0</ele><time>2026-04-26T08:47:50Z</time></trkpt><trkpt lat="43.841406546226125" lon="11.642534502635238"><ele>727.0</ele><time>2026-04-26T08:47:51Z</time></trkpt><trkpt lat="43.841472006813575" lon="11.642634440509688"><ele>727.0</ele><time>2026-04-26T08:47:52Z</time></trkpt><trkpt lat="43.84150336233356" lon="11.642771091936133"><ele>727.0</ele><time>2026-04-26T08:47:53Z</time></trkpt><trkpt lat="43.84149185535162" lon="11.642928970284412"><ele>727.0</ele><time>2026-04-26T08:47:54Z</time></trkpt><trkpt lat="43.84143289198704" lon="11.643073683249975"><ele>727.0</ele><time>2026-04-26T08:47:54.999Z</time></trkpt><trkpt lat="43.84134127562897" lon="11.643185566682892"><ele>726.25</ele><time>2026-04-26T08:47:55.999Z</time></trkpt><trkpt lat="43.84127368736098" lon="11.643306188258576"><ele>725.5</ele><time>2026-04-26T08:47:56.999Z</time></trkpt><trkpt lat="43.841239198429705" lon="11.643449927828827"><ele>724.75</ele><time>2026-04-26T08:47:57.999Z</time></trkpt><trkpt lat="43.8412410651919" lon="11.64360222155297"><ele>724.0</ele><time>2026-04-26T08:47:58.999Z</time></trkpt><trkpt lat="43.841271653646515" lon="11.643769706040723"><ele>723.3333333333334</ele><time>2026-04-26T08:47:59.999Z</time></trkpt><trkpt lat="43.84133149808944" lon="11.643945078979305"><ele>722.6666666666666</ele><time>2026-04-26T08:48:00.999Z</time></trkpt><trkpt lat="43.84141291965099" lon="11.644127717648788"><ele>722.0</ele><time>2026-04-26T08:48:01.999Z</time></trkpt><trkpt lat="43.84150611842162" lon="11.64432139984827"><ele>721.0</ele><time>2026-04-26T08:48:02.999Z</time></trkpt><trkpt lat="43.841590398977985" lon="11.644526573057732"><ele>720.0</ele><time>2026-04-26T08:48:03.999Z</time></trkpt><trkpt lat="43.84165920290987" lon="11.644715757750124"><ele>719.0</ele><time>2026-04-26T08:48:04.999Z</time></trkpt><trkpt lat="43.84168751360737" lon="11.644935173991769"><ele>719.0</ele><time>2026-04-26T08:48:05.999Z</time></trkpt><trkpt lat="43.841717528498556" lon="11.645106254662958"><ele>719.0</ele><time>2026-04-26T08:48:06.999Z</time></trkpt><trkpt lat="43.84175114681381" lon="11.64525044480077"><ele>719.0</ele><time>2026-04-26T08:48:07.999Z</time></trkpt><trkpt lat="43.841784171965344" lon="11.645380085499548"><ele>719.0</ele><time>2026-04-26T08:48:08.999Z</time></trkpt><trkpt lat="43.8418365001756" lon="11.645483358246297"><ele>719.0</ele><time>2026-04-26T08:48:09.999Z</time></trkpt><trkpt lat="43.84190476395033" lon="11.645552872397023"><ele>724.8000000000001</ele><time>2026-04-26T08:48:10.999Z</time></trkpt><trkpt lat="43.84199644771372" lon="11.645573614054243"><ele>730.6</ele><time>2026-04-26T08:48:11.999Z</time></trkpt><trkpt lat="43.842090321354235" lon="11.645527481332529"><ele>736.4</ele><time>2026-04-26T08:48:12.999Z</time></trkpt><trkpt lat="43.842159775864125" lon="11.645410324870054"><ele>742.2</ele><time>2026-04-26T08:48:13.999Z</time></trkpt><trkpt lat="43.84219108599353" lon="11.645254767713737"><ele>748.0</ele><time>2026-04-26T08:48:14.999Z</time></trkpt><trkpt lat="43.842189092111354" lon="11.64507642051894"><ele>748.0</ele><time>2026-04-26T08:48:15.999Z</time></trkpt><trkpt lat="43.842154462547846" lon="11.644861760603957"><ele>748.0</ele><time>2026-04-26T08:48:16.999Z</time></trkpt><trkpt lat="43.8421128651949" lon="11.644636526631068"><ele>748.0</ele><time>2026-04-26T08:48:17.999Z</time></trkpt><trkpt lat="43.84208463069267" lon="11.644431467265358"><ele>749.0</ele><time>2026-04-26T08:48:18.999Z</time></trkpt><trkpt lat="43.84206120010742" lon="11.644239324955956"><ele>750.0</ele><time>2026-04-26T08:48:19.999Z</time></trkpt><trkpt lat="43.8420654978946" lon="11.644038900601032"><ele>751.0</ele><time>2026-04-26T08:48:20.999Z</time></trkpt><trkpt lat="43.84209986211591" lon="11.643823853637523"><ele>752.0</ele><time>2026-04-26T08:48:21.999Z</time></trkpt><trkpt lat="43.84214528675693" lon="11.643597219898103"><ele>752.6666666666666</ele><time>2026-04-26T08:48:22.999Z</time></trkpt><trkpt lat="43.842180188875" lon="11.64336159576929"><ele>753.3333333333334</ele><time>2026-04-26T08:48:23.999Z</time></trkpt><trkpt lat="43.84221370507194" lon="11.643128250567221"><ele>754.0</ele><time>2026-04-26T08:48:24.999Z</time></trkpt><trkpt lat="43.842246717110626" lon="11.642906672710808"><ele>755.25</ele><time>2026-04-26T08:48:25.999Z</time></trkpt><trkpt lat="43.842273037345265" lon="11.642703405053261"><ele>756.5</ele><time>2026-04-26T08:48:26.999Z</time></trkpt><trkpt lat="43.84227992151241" lon="11.642506451332643"><ele>757.75</ele><time>2026-04-26T08:48:27.999Z</time></trkpt><trkpt lat="43.84225628644432" lon="11.642323532293913"><ele>759.0</ele><time>2026-04-26T08:48:28.999Z</time></trkpt><trkpt lat="43.84221917434631" lon="11.642176183975641"><ele>759.0</ele><time>2026-04-26T08:48:29.999Z</time></trkpt><trkpt lat="43.8421357359211" lon="11.642065625143681"><ele>759.0</ele><time>2026-04-26T08:48:30.999Z</time></trkpt><trkpt lat="43.84202764416261" lon="11.64195916236406"><ele>759.0</ele><time>2026-04-26T08:48:31.999Z</time></trkpt><trkpt lat="43.8419121987226" lon="11.64186496008891"><ele>759.0</ele><time>2026-04-26T08:48:32.999Z</time></trkpt><trkpt lat="43.84179292197199" lon="11.641766817985769"><ele>755.75</ele><time>2026-04-26T08:48:33.999Z</time></trkpt><trkpt lat="43.841678034082314" lon="11.641664549410216"><ele>752.5</ele><time>2026-04-26T08:48:34.999Z</time></trkpt><trkpt lat="43.84157925437635" lon="11.6415662940272"><ele>749.25</ele><time>2026-04-26T08:48:35.999Z</time></trkpt><trkpt lat="43.84149815713481" lon="11.641464973141566"><ele>746.0</ele><time>2026-04-26T08:48:36.999Z</time></trkpt><trkpt lat="43.84145022086295" lon="11.641329845647133"><ele>746.0</ele><time>2026-04-26T08:48:37.999Z</time></trkpt><trkpt lat="43.841428176746945" lon="11.64117693304778"><ele>746.0</ele><time>2026-04-26T08:48:38.999Z</time></trkpt><trkpt lat="43.8414481835501" lon="11.640998680963387"><ele>746.0</ele><time>2026-04-26T08:48:39.999Z</time></trkpt><trkpt lat="43.84149172168383" lon="11.640816801607494"><ele>746.0</ele><time>2026-04-26T08:48:40.999Z</time></trkpt><trkpt lat="43.841534336063994" lon="11.640626511593023"><ele>748.75</ele><time>2026-04-26T08:48:41.999Z</time></trkpt><trkpt lat="43.84157420476056" lon="11.640444945693334"><ele>751.5</ele><time>2026-04-26T08:48:42.999Z</time></trkpt><trkpt lat="43.841632789131125" lon="11.640279289727209"><ele>754.25</ele><time>2026-04-26T08:48:43.999Z</time></trkpt><trkpt lat="43.841734035992246" lon="11.640126834175293"><ele>757.0</ele><time>2026-04-26T08:48:44.999Z</time></trkpt><trkpt lat="43.841852447226906" lon="11.639983424076565"><ele>766.0</ele><time>2026-04-26T08:48:45.999Z</time></trkpt><trkpt lat="43.841982545486786" lon="11.639835541272786"><ele>775.0</ele><time>2026-04-26T08:48:46.999Z</time></trkpt><trkpt lat="43.84211376424598" lon="11.639675987876364"><ele>784.0</ele><time>2026-04-26T08:48:47.999Z</time></trkpt><trkpt lat="43.842240703785045" lon="11.639511914762819"><ele>779.0</ele><time>2026-04-26T08:48:48.999Z</time></trkpt><trkpt lat="43.842362796893575" lon="11.639355625539991"><ele>774.0</ele><time>2026-04-26T08:48:49.999Z</time></trkpt><trkpt lat="43.84248558192924" lon="11.63919624170328"><ele>769.0</ele><time>2026-04-26T08:48:50.999Z</time></trkpt><trkpt lat="43.84262113410472" lon="11.639041035428733"><ele>772.6666666666666</ele><time>2026-04-26T08:48:51.999Z</time></trkpt><trkpt lat="43.842768256626904" lon="11.638891742283576"><ele>776.3333333333333</ele><time>2026-04-26T08:48:52.999Z</time></trkpt><trkpt lat="43.84292042269967" lon="11.638743913592302"><ele>780.0</ele><time>2026-04-26T08:48:53.999Z</time></trkpt><trkpt lat="43.84307467946294" lon="11.638599164023706"><ele>780.0</ele><time>2026-04-26T08:48:54.999Z</time></trkpt><trkpt lat="43.84322337803147" lon="11.638456692561276"><ele>780.0</ele><time>2026-04-26T08:48:55.999Z</time></trkpt><trkpt lat="43.84336504009193" lon="11.638323301254912"><ele>780.0</ele><time>2026-04-26T08:48:56.999Z</time></trkpt><trkpt lat="43.843500319574424" lon="11.638192628439839"><ele>783.0</ele><time>2026-04-26T08:48:57.999Z</time></trkpt><trkpt lat="43.84361580799074" lon="11.638061771039593"><ele>786.0</ele><time>2026-04-26T08:48:58.999Z</time></trkpt><trkpt lat="43.84371073396087" lon="11.637915479038805"><ele>789.0</ele><time>2026-04-26T08:48:59.999Z</time></trkpt><trkpt lat="43.84378315613845" lon="11.63776380181179"><ele>792.0</ele><time>2026-04-26T08:49:00.999Z</time></trkpt><trkpt lat="43.8438383830096" lon="11.637620188391832"><ele>792.0</ele><time>2026-04-26T08:49:01.999Z</time></trkpt><trkpt lat="43.843905112615694" lon="11.63751099225801"><ele>792.0</ele><time>2026-04-26T08:49:02.999Z</time></trkpt><trkpt lat="43.84399353525247" lon="11.637465878514057"><ele>792.0</ele><time>2026-04-26T08:49:03.999Z</time></trkpt><trkpt lat="43.84408567749551" lon="11.63748745991899"><ele>792.0</ele><time>2026-04-26T08:49:04.999Z</time></trkpt><trkpt lat="43.844156164385815" lon="11.637567170827415"><ele>792.0</ele><time>2026-04-26T08:49:05.999Z</time></trkpt><trkpt lat="43.84418651377308" lon="11.637700084634778"><ele>794.75</ele><time>2026-04-26T08:49:06.999Z</time></trkpt><trkpt lat="43.84416438895538" lon="11.637851114795012"><ele>797.5</ele><time>2026-04-26T08:49:07.999Z</time></trkpt><trkpt lat="43.844092823396814" lon="11.637993304244329"><ele>800.25</ele><time>2026-04-26T08:49:08.999Z</time></trkpt><trkpt lat="43.84398747119158" lon="11.638117346931999"><ele>803.0</ele><time>2026-04-26T08:49:09.999Z</time></trkpt><trkpt lat="43.843883270424826" lon="11.638267327726718"><ele>803.0</ele><time>2026-04-26T08:49:10.999Z</time></trkpt><trkpt lat="43.843780993449826" lon="11.638440123975794"><ele>803.0</ele><time>2026-04-26T08:49:11.999Z</time></trkpt><trkpt lat="43.84368211759513" lon="11.63864064766669"><ele>803.0</ele><time>2026-04-26T08:49:12.999Z</time></trkpt><trkpt lat="43.843595097701254" lon="11.638841613421478"><ele>800.0</ele><time>2026-04-26T08:49:13.999Z</time></trkpt><trkpt lat="43.84352687870721" lon="11.639049807513445"><ele>797.0</ele><time>2026-04-26T08:49:14.999Z</time></trkpt><trkpt lat="43.843455673619964" lon="11.639257350775814"><ele>794.0</ele><time>2026-04-26T08:49:15.999Z</time></trkpt><trkpt lat="43.84338595098839" lon="11.639461084744047"><ele>798.6666666666667</ele><time>2026-04-26T08:49:16.999Z</time></trkpt><trkpt lat="43.843316150919726" lon="11.639661404253609"><ele>803.3333333333333</ele><time>2026-04-26T08:49:17.999Z</time></trkpt><trkpt lat="43.84324650149831" lon="11.639860468949946"><ele>808.0</ele><time>2026-04-26T08:49:18.999Z</time></trkpt><trkpt lat="43.84319152104895" lon="11.640067677663506"><ele>808.0</ele><time>2026-04-26T08:49:19.999Z</time></trkpt><trkpt lat="43.84316065695088" lon="11.640288043321428"><ele>808.0</ele><time>2026-04-26T08:49:20.999Z</time></trkpt><trkpt lat="43.84314343920537" lon="11.640506317802089"><ele>808.0</ele><time>2026-04-26T08:49:21.999Z</time></trkpt><trkpt lat="43.84313332474711" lon="11.640719061517757"><ele>809.5</ele><time>2026-04-26T08:49:22.999Z</time></trkpt><trkpt lat="43.84312235378398" lon="11.640907550817795"><ele>811.0</ele><time>2026-04-26T08:49:23.999Z</time></trkpt><trkpt lat="43.843122009420085" lon="11.64107199639751"><ele>812.5</ele><time>2026-04-26T08:49:24.999Z</time></trkpt><trkpt lat="43.843149370873455" lon="11.641236736228883"><ele>814.0</ele><time>2026-04-26T08:49:25.999Z</time></trkpt><trkpt lat="43.84321597552748" lon="11.641404237406238"><ele>814.0</ele><time>2026-04-26T08:49:26.999Z</time></trkpt><trkpt lat="43.8432978997558" lon="11.641569246243748"><ele>814.0</ele><time>2026-04-26T08:49:27.998Z</time></trkpt><trkpt lat="43.84339434246253" lon="11.641730782918739"><ele>814.0</ele><time>2026-04-26T08:49:28.998Z</time></trkpt><trkpt lat="43.843480458453314" lon="11.641898563974149"><ele>814.0</ele><time>2026-04-26T08:49:29.998Z</time></trkpt><trkpt lat="43.84354353416596" lon="11.642078861080433"><ele>827.0</ele><time>2026-04-26T08:49:30.998Z</time></trkpt><trkpt lat="43.843571594472905" lon="11.642285316686424"><ele>840.0</ele><time>2026-04-26T08:49:32Z</time></trkpt><trkpt lat="43.843565435786616" lon="11.642504355192406"><ele>853.0</ele><time>2026-04-26T08:49:33Z</time></trkpt><trkpt lat="43.84354638448317" lon="11.642728961930004"><ele>853.5</ele><time>2026-04-26T08:49:34Z</time></trkpt><trkpt lat="43.843536642414406" lon="11.642945630439812"><ele>854.0</ele><time>2026-04-26T08:49:35Z</time></trkpt><trkpt lat="43.843532073878194" lon="11.64315051060438"><ele>854.5</ele><time>2026-04-26T08:49:36Z</time></trkpt><trkpt lat="43.843539810693656" lon="11.643330296074682"><ele>855.0</ele><time>2026-04-26T08:49:37Z</time></trkpt><trkpt lat="43.84357021271782" lon="11.643495968289796"><ele>849.75</ele><time>2026-04-26T08:49:38Z</time></trkpt><trkpt lat="43.84362770484625" lon="11.643650526037632"><ele>844.5</ele><time>2026-04-26T08:49:39Z</time></trkpt><trkpt lat="43.84371628883316" lon="11.64378133362935"><ele>839.25</ele><time>2026-04-26T08:49:40Z</time></trkpt><trkpt lat="43.843836938091535" lon="11.643866913541656"><ele>834.0</ele><time>2026-04-26T08:49:41Z</time></trkpt><trkpt lat="43.84397184574341" lon="11.643933678937431"><ele>834.0</ele><time>2026-04-26T08:49:42Z</time></trkpt><trkpt lat="43.84410551111387" lon="11.644009220224888"><ele>834.0</ele><time>2026-04-26T08:49:43Z</time></trkpt><trkpt lat="43.84423909526138" lon="11.644084546306678"><ele>834.0</ele><time>2026-04-26T08:49:44Z</time></trkpt><trkpt lat="43.844363537249926" lon="11.644175950032162"><ele>834.0</ele><time>2026-04-26T08:49:45Z</time></trkpt><trkpt lat="43.844462174950195" lon="11.644290220971452"><ele>840.5</ele><time>2026-04-26T08:49:46Z</time></trkpt><trkpt lat="43.84452131477468" lon="11.644426249115211"><ele>847.0</ele><time>2026-04-26T08:49:47Z</time></trkpt><trkpt lat="43.844543809747904" lon="11.644573425165811"><ele>853.5</ele><time>2026-04-26T08:49:48Z</time></trkpt><trkpt lat="43.844523861681544" lon="11.644746061657736"><ele>860.0</ele><time>2026-04-26T08:49:49Z</time></trkpt><trkpt lat="43.84448506886294" lon="11.644921002867742"><ele>860.0</ele><time>2026-04-26T08:49:50Z</time></trkpt><trkpt lat="43.84444547396557" lon="11.645082039708756"><ele>860.0</ele><time>2026-04-26T08:49:51Z</time></trkpt><trkpt lat="43.84441034170913" lon="11.645231038383807"><ele>860.0</ele><time>2026-04-26T08:49:52Z</time></trkpt><trkpt lat="43.844411024543156" lon="11.645370416905966"><ele>860.0</ele><time>2026-04-26T08:49:53Z</time></trkpt><trkpt lat="43.84445107437159" lon="11.645491215381433"><ele>860.0</ele><time>2026-04-26T08:49:54Z</time></trkpt><trkpt lat="43.84452306775545" lon="11.64558419282691"><ele>853.75</ele><time>2026-04-26T08:49:55Z</time></trkpt><trkpt lat="43.844627163789006" lon="11.64563911659716"><ele>847.5</ele><time>2026-04-26T08:49:56Z</time></trkpt><trkpt lat="43.84475153108456" lon="11.645655630954419"><ele>841.25</ele><time>2026-04-26T08:49:57Z</time></trkpt><trkpt lat="43.844893050733496" lon="11.645654003663045"><ele>835.0</ele><time>2026-04-26T08:49:58Z</time></trkpt><trkpt lat="43.845043992684175" lon="11.645647155917462"><ele>839.0</ele><time>2026-04-26T08:49:59Z</time></trkpt><trkpt lat="43.84519847826064" lon="11.645637235226157"><ele>843.0</ele><time>2026-04-26T08:50:00Z</time></trkpt><trkpt lat="43.845343753396286" lon="11.645637616303304"><ele>847.0</ele><time>2026-04-26T08:50:01Z</time></trkpt><trkpt lat="43.84549128197824" lon="11.645640486700366"><ele>851.0</ele><time>2026-04-26T08:50:02Z</time></trkpt><trkpt lat="43.845638615901315" lon="11.645640534455254"><ele>851.0</ele><time>2026-04-26T08:50:03Z</time></trkpt><trkpt lat="43.84578170110446" lon="11.645641872738624"><ele>851.0</ele><time>2026-04-26T08:50:04Z</time></trkpt><trkpt lat="43.84591468399098" lon="11.645675931512175"><ele>851.0</ele><time>2026-04-26T08:50:05Z</time></trkpt><trkpt lat="43.84602863759598" lon="11.645760958448554"><ele>851.0</ele><time>2026-04-26T08:50:06Z</time></trkpt><trkpt lat="43.846127951831114" lon="11.645865324577873"><ele>854.8</ele><time>2026-04-26T08:50:07Z</time></trkpt><trkpt lat="43.84621227884091" lon="11.645955989465401"><ele>858.5999999999999</ele><time>2026-04-26T08:50:08Z</time></trkpt><trkpt lat="43.846291048971146" lon="11.646002350379707"><ele>862.4</ele><time>2026-04-26T08:50:09Z</time></trkpt><trkpt lat="43.84637603390224" lon="11.646010607815734"><ele>866.2</ele><time>2026-04-26T08:50:10Z</time></trkpt><trkpt lat="43.84647006401907" lon="11.645973590692687"><ele>870.0</ele><time>2026-04-26T08:50:11Z</time></trkpt><trkpt lat="43.846559406919596" lon="11.645872116242474"><ele>870.0</ele><time>2026-04-26T08:50:12Z</time></trkpt><trkpt lat="43.84661698426165" lon="11.645736449837376"><ele>870.0</ele><time>2026-04-26T08:50:13Z</time></trkpt><trkpt lat="43.846624609775525" lon="11.645595930501187"><ele>870.0</ele><time>2026-04-26T08:50:14Z</time></trkpt><trkpt lat="43.84658618263923" lon="11.645452392333814"><ele>870.0</ele><time>2026-04-26T08:50:15Z</time></trkpt><trkpt lat="43.846512897014456" lon="11.645334189352734"><ele>870.0</ele><time>2026-04-26T08:50:16Z</time></trkpt><trkpt lat="43.84640968120998" lon="11.645266552455984"><ele>871.5</ele><time>2026-04-26T08:50:17Z</time></trkpt><trkpt lat="43.84628908795585" lon="11.64525259407826"><ele>873.0</ele><time>2026-04-26T08:50:18Z</time></trkpt><trkpt lat="43.846156528395106" lon="11.645249615475876"><ele>874.5</ele><time>2026-04-26T08:50:19Z</time></trkpt><trkpt lat="43.846009043287246" lon="11.645242697548971"><ele>876.0</ele><time>2026-04-26T08:50:20Z</time></trkpt><trkpt lat="43.845845294561926" lon="11.645231031287977"><ele>876.0</ele><time>2026-04-26T08:50:21Z</time></trkpt><trkpt lat="43.84569417992044" lon="11.645215534532573"><ele>876.0</ele><time>2026-04-26T08:50:22Z</time></trkpt><trkpt lat="43.84555020458657" lon="11.645203402038307"><ele>876.0</ele><time>2026-04-26T08:50:23Z</time></trkpt><trkpt lat="43.845408929036914" lon="11.645192464161996"><ele>876.0</ele><time>2026-04-26T08:50:24Z</time></trkpt><trkpt lat="43.84528322252631" lon="11.645176930685315"><ele>876.0</ele><time>2026-04-26T08:50:25Z</time></trkpt><trkpt lat="43.84517581577059" lon="11.645127792857991"><ele>875.9999999999999</ele><time>2026-04-26T08:50:26Z</time></trkpt><trkpt lat="43.84510049799738" lon="11.645040665455795"><ele>875.9999999999999</ele><time>2026-04-26T08:50:27Z</time></trkpt><trkpt lat="43.84506100853042" lon="11.64492114050722"><ele>876.0</ele><time>2026-04-26T08:50:28Z</time></trkpt><trkpt lat="43.84508423060167" lon="11.64477154442588"><ele>876.0</ele><time>2026-04-26T08:50:28.999Z</time></trkpt><trkpt lat="43.845096102699415" lon="11.644614326986371"><ele>875.5</ele><time>2026-04-26T08:50:29.999Z</time></trkpt><trkpt lat="43.8451115214522" lon="11.644421740295357"><ele>875.0</ele><time>2026-04-26T08:50:30.999Z</time></trkpt><trkpt lat="43.845110687116886" lon="11.64421177728412"><ele>874.5</ele><time>2026-04-26T08:50:31.999Z</time></trkpt><trkpt lat="43.84506761850093" lon="11.644031803003601"><ele>874.0</ele><time>2026-04-26T08:50:32.999Z</time></trkpt><trkpt lat="43.845002293919855" lon="11.643856420553805"><ele>874.0</ele><time>2026-04-26T08:50:33.999Z</time></trkpt><trkpt lat="43.84490392258315" lon="11.6436920473853"><ele>874.0</ele><time>2026-04-26T08:50:34.999Z</time></trkpt><trkpt lat="43.844793958024745" lon="11.643536630267384"><ele>874.0</ele><time>2026-04-26T08:50:35.999Z</time></trkpt><trkpt lat="43.844713363846694" lon="11.64337252183338"><ele>877.8000000000001</ele><time>2026-04-26T08:50:36.999Z</time></trkpt><trkpt lat="43.844640189520746" lon="11.6432423568357"><ele>881.6000000000001</ele><time>2026-04-26T08:50:37.999Z</time></trkpt><trkpt lat="43.84458276781865" lon="11.643116435145982"><ele>885.4</ele><time>2026-04-26T08:50:38.999Z</time></trkpt><trkpt lat="43.84455196395884" lon="11.642991035041218"><ele>889.2</ele><time>2026-04-26T08:50:39.999Z</time></trkpt><trkpt lat="43.84462309074283" lon="11.642872914510592"><ele>893.0</ele><time>2026-04-26T08:50:40.999Z</time></trkpt><trkpt lat="43.844702297924826" lon="11.64277965418263"><ele>893.25</ele><time>2026-04-26T08:50:41.999Z</time></trkpt><trkpt lat="43.84480921504786" lon="11.642684354042663"><ele>893.5</ele><time>2026-04-26T08:50:42.999Z</time></trkpt><trkpt lat="43.84490908577439" lon="11.642555393590388"><ele>893.75</ele><time>2026-04-26T08:50:43.999Z</time></trkpt><trkpt lat="43.84499001798435" lon="11.642406250577206"><ele>894.0</ele><time>2026-04-26T08:50:44.999Z</time></trkpt><trkpt lat="43.845020518652895" lon="11.642221112853797"><ele>894.0</ele><time>2026-04-26T08:50:45.999Z</time></trkpt><trkpt lat="43.844997507165814" lon="11.642010366376072"><ele>894.0</ele><time>2026-04-26T08:50:46.999Z</time></trkpt><trkpt lat="43.84494625009536" lon="11.641788858218051"><ele>894.0</ele><time>2026-04-26T08:50:47.999Z</time></trkpt><trkpt lat="43.84490595243952" lon="11.641569467709783"><ele>894.75</ele><time>2026-04-26T08:50:48.999Z</time></trkpt><trkpt lat="43.84487535912199" lon="11.641372047616551"><ele>895.5</ele><time>2026-04-26T08:50:49.999Z</time></trkpt><trkpt lat="43.84485452774616" lon="11.641192364175648"><ele>896.25</ele><time>2026-04-26T08:50:50.999Z</time></trkpt><trkpt lat="43.84486831302519" lon="11.64103238864566"><ele>897.0</ele><time>2026-04-26T08:50:51.999Z</time></trkpt><trkpt lat="43.844927513799014" lon="11.640863599810622"><ele>897.0</ele><time>2026-04-26T08:50:52.999Z</time></trkpt><trkpt lat="43.84500132608931" lon="11.640677532628859"><ele>897.0</ele><time>2026-04-26T08:50:53.999Z</time></trkpt><trkpt lat="43.84507833072391" lon="11.640515085381871"><ele>897.0</ele><time>2026-04-26T08:50:54.999Z</time></trkpt><trkpt lat="43.84515203619693" lon="11.640389702408267"><ele>897.0</ele><time>2026-04-26T08:50:55.999Z</time></trkpt><trkpt lat="43.8452359941338" lon="11.640316808971718"><ele>903.0</ele><time>2026-04-26T08:50:56.999Z</time></trkpt><trkpt lat="43.845346606869754" lon="11.64031414066718"><ele>909.0</ele><time>2026-04-26T08:50:57.999Z</time></trkpt><trkpt lat="43.84547003646393" lon="11.640328902729301"><ele>915.0</ele><time>2026-04-26T08:50:58.999Z</time></trkpt><trkpt lat="43.8456065313766" lon="11.640333731541192"><ele>921.0</ele><time>2026-04-26T08:50:59.999Z</time></trkpt><trkpt lat="43.845744151876396" lon="11.6403458337697"><ele>921.0</ele><time>2026-04-26T08:51:00.999Z</time></trkpt><trkpt lat="43.84587932498153" lon="11.640304678042858"><ele>921.0</ele><time>2026-04-26T08:51:01.999Z</time></trkpt><trkpt lat="43.846017512789686" lon="11.640201385018496"><ele>921.0</ele><time>2026-04-26T08:51:02.999Z</time></trkpt><trkpt lat="43.84615662335761" lon="11.64005205412235"><ele>923.0</ele><time>2026-04-26T08:51:03.999Z</time></trkpt><trkpt lat="43.84631955401582" lon="11.63992396907609"><ele>925.0</ele><time>2026-04-26T08:51:04.999Z</time></trkpt><trkpt lat="43.84648323978786" lon="11.639773636228504"><ele>927.0</ele><time>2026-04-26T08:51:05.999Z</time></trkpt><trkpt lat="43.84665639200389" lon="11.639614734178142"><ele>929.3333333333333</ele><time>2026-04-26T08:51:06.999Z</time></trkpt><trkpt lat="43.846823356504984" lon="11.639461955260964"><ele>931.6666666666666</ele><time>2026-04-26T08:51:07.999Z</time></trkpt><trkpt lat="43.84699397579261" lon="11.639306939367838"><ele>934.0</ele><time>2026-04-26T08:51:08.999Z</time></trkpt><trkpt lat="43.84717099029767" lon="11.63914611311295"><ele>934.0</ele><time>2026-04-26T08:51:09.999Z</time></trkpt><trkpt lat="43.8473376749772" lon="11.6389683418065"><ele>934.0</ele><time>2026-04-26T08:51:10.999Z</time></trkpt><trkpt lat="43.847517638105884" lon="11.63880654481613"><ele>934.0</ele><time>2026-04-26T08:51:11.999Z</time></trkpt><trkpt lat="43.84770356617277" lon="11.63866427390758"><ele>935.0</ele><time>2026-04-26T08:51:12.999Z</time></trkpt><trkpt lat="43.84787400340642" lon="11.638510762794562"><ele>936.0</ele><time>2026-04-26T08:51:13.999Z</time></trkpt><trkpt lat="43.848035208727005" lon="11.638365566752373"><ele>937.0</ele><time>2026-04-26T08:51:14.999Z</time></trkpt><trkpt lat="43.848187268699874" lon="11.638228607863843"><ele>937.0</ele><time>2026-04-26T08:51:15.999Z</time></trkpt><trkpt lat="43.848323159084664" lon="11.638105588656934"><ele>937.0</ele><time>2026-04-26T08:51:16.999Z</time></trkpt><trkpt lat="43.848443483532805" lon="11.637996084988426"><ele>937.0</ele><time>2026-04-26T08:51:17.999Z</time></trkpt><trkpt lat="43.848546786806736" lon="11.637911185042771"><ele>937.0</ele><time>2026-04-26T08:51:18.999Z</time></trkpt><trkpt lat="43.848632765324034" lon="11.637837871104109"><ele>940.5</ele><time>2026-04-26T08:51:19.999Z</time></trkpt><trkpt lat="43.848775552295066" lon="11.637844740088202"><ele>944.0</ele><time>2026-04-26T08:51:20.999Z</time></trkpt><trkpt lat="43.84888429786758" lon="11.637901762884685"><ele>947.5</ele><time>2026-04-26T08:51:21.999Z</time></trkpt><trkpt lat="43.84898264090933" lon="11.637994605430604"><ele>951.0</ele><time>2026-04-26T08:51:22.999Z</time></trkpt><trkpt lat="43.84909222072549" lon="11.638084557723156"><ele>951.0</ele><time>2026-04-26T08:51:23.999Z</time></trkpt><trkpt lat="43.8492087224104" lon="11.638127343570414"><ele>951.0</ele><time>2026-04-26T08:51:24.999Z</time></trkpt><trkpt lat="43.849347270334206" lon="11.638068650014835"><ele>951.0</ele><time>2026-04-26T08:51:25.999Z</time></trkpt><trkpt lat="43.849459559067434" lon="11.637959143214836"><ele>951.0</ele><time>2026-04-26T08:51:26.999Z</time></trkpt><trkpt lat="43.849532079571816" lon="11.637777378759555"><ele>956.0</ele><time>2026-04-26T08:51:27.999Z</time></trkpt><trkpt lat="43.84963252407924" lon="11.637621350154301"><ele>961.0</ele><time>2026-04-26T08:51:28.999Z</time></trkpt><trkpt lat="43.84972785587657" lon="11.637438973733586"><ele>966.0</ele><time>2026-04-26T08:51:29.999Z</time></trkpt><trkpt lat="43.849829325896074" lon="11.63724433114811"><ele>966.0</ele><time>2026-04-26T08:51:30.999Z</time></trkpt><trkpt lat="43.84993295586477" lon="11.63704554651141"><ele>966.0</ele><time>2026-04-26T08:51:31.999Z</time></trkpt><trkpt lat="43.850034786686614" lon="11.63684914703983"><ele>966.0</ele><time>2026-04-26T08:51:32.999Z</time></trkpt><trkpt lat="43.850133304182705" lon="11.636659012264632"><ele>964.75</ele><time>2026-04-26T08:51:33.999Z</time></trkpt><trkpt lat="43.85022620829266" lon="11.636478634025268"><ele>963.5</ele><time>2026-04-26T08:51:34.999Z</time></trkpt><trkpt lat="43.85031091928815" lon="11.63631312390145"><ele>962.25</ele><time>2026-04-26T08:51:35.999Z</time></trkpt><trkpt lat="43.850389772985004" lon="11.636162228485984"><ele>961.0</ele><time>2026-04-26T08:51:36.999Z</time></trkpt><trkpt lat="43.850471260446014" lon="11.636019912091744"><ele>961.0</ele><time>2026-04-26T08:51:38Z</time></trkpt><trkpt lat="43.85055433493941" lon="11.635892757340867"><ele>961.0</ele><time>2026-04-26T08:51:39Z</time></trkpt><trkpt lat="43.850656685191666" lon="11.635790043129925"><ele>961.0</ele><time>2026-04-26T08:51:40Z</time></trkpt><trkpt lat="43.85077617776396" lon="11.635724517648905"><ele>961.0</ele><time>2026-04-26T08:51:41Z</time></trkpt><trkpt lat="43.85090933178239" lon="11.635675413197687"><ele>967.0</ele><time>2026-04-26T08:51:42Z</time></trkpt><trkpt lat="43.851049387934715" lon="11.635657273575877"><ele>973.0</ele><time>2026-04-26T08:51:43Z</time></trkpt><trkpt lat="43.85119984661376" lon="11.63562438029989"><ele>979.0</ele><time>2026-04-26T08:51:44Z</time></trkpt><trkpt lat="43.85134535931713" lon="11.635520988323172"><ele>979.0</ele><time>2026-04-26T08:51:45Z</time></trkpt><trkpt lat="43.85146962412231" lon="11.635361190611516"><ele>979.0</ele><time>2026-04-26T08:51:46Z</time></trkpt><trkpt lat="43.851597835010345" lon="11.635203303657145"><ele>979.0</ele><time>2026-04-26T08:51:47Z</time></trkpt><trkpt lat="43.851734001446424" lon="11.635064974633801"><ele>974.5</ele><time>2026-04-26T08:51:48Z</time></trkpt><trkpt lat="43.85185586473132" lon="11.634922402535604"><ele>970.0</ele><time>2026-04-26T08:51:49Z</time></trkpt><trkpt lat="43.85197990397403" lon="11.634818933582661"><ele>965.5</ele><time>2026-04-26T08:51:50Z</time></trkpt><trkpt lat="43.85210638129489" lon="11.63477928719641"><ele>961.0</ele><time>2026-04-26T08:51:51Z</time></trkpt><trkpt lat="43.8522549093482" lon="11.634757924000285"><ele>961.0</ele><time>2026-04-26T08:51:52Z</time></trkpt><trkpt lat="43.85240636713227" lon="11.634743424034028"><ele>961.0</ele><time>2026-04-26T08:51:53Z</time></trkpt><trkpt lat="43.85255023472527" lon="11.634728237357432"><ele>961.0</ele><time>2026-04-26T08:51:54Z</time></trkpt><trkpt lat="43.85268606301874" lon="11.6347202042708"><ele>961.0</ele><time>2026-04-26T08:51:55Z</time></trkpt><trkpt lat="43.8528138402131" lon="11.634735678128822"><ele>957.25</ele><time>2026-04-26T08:51:56Z</time></trkpt><trkpt lat="43.85292902435959" lon="11.634794494760937"><ele>953.5</ele><time>2026-04-26T08:51:57Z</time></trkpt><trkpt lat="43.85302409331527" lon="11.634880656009003"><ele>949.75</ele><time>2026-04-26T08:51:58Z</time></trkpt><trkpt lat="43.853119180026916" lon="11.63501897809452"><ele>946.0</ele><time>2026-04-26T08:51:59Z</time></trkpt><trkpt lat="43.85319287162668" lon="11.635162418268665"><ele>946.0</ele><time>2026-04-26T08:52:00Z</time></trkpt><trkpt lat="43.85327445908862" lon="11.63528145423191"><ele>946.0</ele><time>2026-04-26T08:52:01Z</time></trkpt><trkpt lat="43.85337222650341" lon="11.635360004618283"><ele>946.0</ele><time>2026-04-26T08:52:02Z</time></trkpt><trkpt lat="43.85348994500326" lon="11.635378083064085"><ele>946.0</ele><time>2026-04-26T08:52:03Z</time></trkpt><trkpt lat="43.85362060953459" lon="11.635365149221087"><ele>948.25</ele><time>2026-04-26T08:52:04Z</time></trkpt><trkpt lat="43.853727407676104" lon="11.635273787085941"><ele>950.5</ele><time>2026-04-26T08:52:05Z</time></trkpt><trkpt lat="43.85382931950985" lon="11.635113638978734"><ele>952.75</ele><time>2026-04-26T08:52:06Z</time></trkpt><trkpt lat="43.85392959741414" lon="11.634951355732268"><ele>955.0</ele><time>2026-04-26T08:52:07Z</time></trkpt><trkpt lat="43.85404221326983" lon="11.634768996780164"><ele>955.0</ele><time>2026-04-26T08:52:08Z</time></trkpt><trkpt lat="43.85416257535416" lon="11.63457359145909"><ele>955.0</ele><time>2026-04-26T08:52:09Z</time></trkpt><trkpt lat="43.85428553827344" lon="11.634373243104324"><ele>955.0</ele><time>2026-04-26T08:52:10Z</time></trkpt><trkpt lat="43.854394418430964" lon="11.63418062252675"><ele>957.3333333333333</ele><time>2026-04-26T08:52:11Z</time></trkpt><trkpt lat="43.854514709859714" lon="11.633978777606952"><ele>959.6666666666667</ele><time>2026-04-26T08:52:12Z</time></trkpt><trkpt lat="43.85463108142952" lon="11.63378622484776"><ele>962.0</ele><time>2026-04-26T08:52:13Z</time></trkpt><trkpt lat="43.85475234755795" lon="11.633606620261274"><ele>951.6666666666667</ele><time>2026-04-26T08:52:14Z</time></trkpt><trkpt lat="43.85485961476186" lon="11.633425571434897"><ele>941.3333333333333</ele><time>2026-04-26T08:52:15Z</time></trkpt><trkpt lat="43.85496083588039" lon="11.633256906746427"><ele>931.0</ele><time>2026-04-26T08:52:16Z</time></trkpt><trkpt lat="43.85505093328184" lon="11.633109281315411"><ele>934.0</ele><time>2026-04-26T08:52:17Z</time></trkpt><trkpt lat="43.85514084433366" lon="11.632970036707855"><ele>937.0</ele><time>2026-04-26T08:52:18Z</time></trkpt><trkpt lat="43.85525048249399" lon="11.632873202371838"><ele>940.0</ele><time>2026-04-26T08:52:19Z</time></trkpt><trkpt lat="43.855367967607485" lon="11.632814194309937"><ele>943.0</ele><time>2026-04-26T08:52:20Z</time></trkpt><trkpt lat="43.855488320138974" lon="11.632817733689194"><ele>943.0</ele><time>2026-04-26T08:52:21Z</time></trkpt><trkpt lat="43.85562094321584" lon="11.632845125220927"><ele>943.0</ele><time>2026-04-26T08:52:22Z</time></trkpt><trkpt lat="43.855770824718256" lon="11.632875242090046"><ele>943.0</ele><time>2026-04-26T08:52:23Z</time></trkpt><trkpt lat="43.85591952996838" lon="11.632902067630036"><ele>943.0</ele><time>2026-04-26T08:52:24Z</time></trkpt><trkpt lat="43.85605883005919" lon="11.632900651183933"><ele>944.75</ele><time>2026-04-26T08:52:25Z</time></trkpt><trkpt lat="43.85617725868664" lon="11.632854254288926"><ele>946.5</ele><time>2026-04-26T08:52:26Z</time></trkpt><trkpt lat="43.856284848840154" lon="11.632771922875518"><ele>948.25</ele><time>2026-04-26T08:52:27Z</time></trkpt><trkpt lat="43.856370287199695" lon="11.63263963051772"><ele>950.0</ele><time>2026-04-26T08:52:28Z</time></trkpt><trkpt lat="43.85644677440063" lon="11.63246915414881"><ele>943.0</ele><time>2026-04-26T08:52:29Z</time></trkpt><trkpt lat="43.856516193878875" lon="11.632261250859388"><ele>936.0</ele><time>2026-04-26T08:52:30Z</time></trkpt><trkpt lat="43.856599563380584" lon="11.632039747893037"><ele>929.0</ele><time>2026-04-26T08:52:31Z</time></trkpt><trkpt lat="43.85668436026124" lon="11.631819940839216"><ele>928.3333333333334</ele><time>2026-04-26T08:52:32Z</time></trkpt><trkpt lat="43.85677384652669" lon="11.631584483674867"><ele>927.6666666666667</ele><time>2026-04-26T08:52:33Z</time></trkpt><trkpt lat="43.85685233809844" lon="11.631328709278534"><ele>927.0</ele><time>2026-04-26T08:52:34Z</time></trkpt><trkpt lat="43.85692674256415" lon="11.6310817515527"><ele>927.0</ele><time>2026-04-26T08:52:35Z</time></trkpt><trkpt lat="43.856997223672074" lon="11.630862166067805"><ele>927.0</ele><time>2026-04-26T08:52:36Z</time></trkpt><trkpt lat="43.85705867436165" lon="11.630662475686423"><ele>927.0</ele><time>2026-04-26T08:52:37Z</time></trkpt><trkpt lat="43.857096379335" lon="11.630462351190964"><ele>924.3333333333333</ele><time>2026-04-26T08:52:38Z</time></trkpt><trkpt lat="43.857116281799506" lon="11.630257387620643"><ele>921.6666666666666</ele><time>2026-04-26T08:52:39Z</time></trkpt><trkpt lat="43.857115277770184" lon="11.630037588773096"><ele>919.0</ele><time>2026-04-26T08:52:40Z</time></trkpt><trkpt lat="43.85710699308318" lon="11.629804731041725"><ele>919.0</ele><time>2026-04-26T08:52:41Z</time></trkpt><trkpt lat="43.857098332400795" lon="11.629581841398101"><ele>919.0</ele><time>2026-04-26T08:52:42Z</time></trkpt><trkpt lat="43.85709156926491" lon="11.62938379230975"><ele>919.0</ele><time>2026-04-26T08:52:43Z</time></trkpt><trkpt lat="43.857073561026255" lon="11.62920563286063"><ele>919.0</ele><time>2026-04-26T08:52:44Z</time></trkpt><trkpt lat="43.85702835586161" lon="11.629027958204402"><ele>919.5</ele><time>2026-04-26T08:52:45Z</time></trkpt><trkpt lat="43.8569452489208" lon="11.628876069232104"><ele>920.0</ele><time>2026-04-26T08:52:46Z</time></trkpt><trkpt lat="43.8568390163165" lon="11.628749610713669"><ele>920.5</ele><time>2026-04-26T08:52:47Z</time></trkpt><trkpt lat="43.85675182580633" lon="11.628619456315139"><ele>921.0</ele><time>2026-04-26T08:52:48Z</time></trkpt><trkpt lat="43.85672395756614" lon="11.628458398635665"><ele>912.75</ele><time>2026-04-26T08:52:49Z</time></trkpt><trkpt lat="43.856692336902924" lon="11.628289812508035"><ele>904.5</ele><time>2026-04-26T08:52:50Z</time></trkpt><trkpt lat="43.8567150505088" lon="11.628085173818125"><ele>896.25</ele><time>2026-04-26T08:52:51Z</time></trkpt><trkpt lat="43.856751589462746" lon="11.627855238963766"><ele>888.0</ele><time>2026-04-26T08:52:52Z</time></trkpt><trkpt lat="43.85678233136769" lon="11.627606203248703"><ele>893.0</ele><time>2026-04-26T08:52:53Z</time></trkpt><trkpt lat="43.85683843976227" lon="11.627344386275182"><ele>898.0</ele><time>2026-04-26T08:52:54Z</time></trkpt><trkpt lat="43.85687362783056" lon="11.627079868977022"><ele>903.0</ele><time>2026-04-26T08:52:55Z</time></trkpt><trkpt lat="43.85693371416895" lon="11.626804551546105"><ele>903.0</ele><time>2026-04-26T08:52:56Z</time></trkpt><trkpt lat="43.85701956594975" lon="11.626527720334881"><ele>903.0</ele><time>2026-04-26T08:52:57Z</time></trkpt><trkpt lat="43.85710811486153" lon="11.62625161758292"><ele>903.0</ele><time>2026-04-26T08:52:58Z</time></trkpt><trkpt lat="43.85719127361725" lon="11.625987880338494"><ele>897.6666666666667</ele><time>2026-04-26T08:52:59Z</time></trkpt><trkpt lat="43.85725599919307" lon="11.625729627028239"><ele>892.3333333333334</ele><time>2026-04-26T08:53:00Z</time></trkpt><trkpt lat="43.85733181971915" lon="11.625498684021537"><ele>887.0</ele><time>2026-04-26T08:53:01Z</time></trkpt><trkpt lat="43.85741225786327" lon="11.625294124186878"><ele>882.6666666666667</ele><time>2026-04-26T08:53:02Z</time></trkpt><trkpt lat="43.85746266287338" lon="11.625083451445088"><ele>878.3333333333333</ele><time>2026-04-26T08:53:03Z</time></trkpt><trkpt lat="43.857480649962795" lon="11.624852029472253"><ele>874.0</ele><time>2026-04-26T08:53:03.999Z</time></trkpt><trkpt lat="43.857471214575284" lon="11.624615711979317"><ele>871.5</ele><time>2026-04-26T08:53:04.999Z</time></trkpt><trkpt lat="43.85745439905861" lon="11.624403743298027"><ele>869.0</ele><time>2026-04-26T08:53:05.999Z</time></trkpt><trkpt lat="43.85744393069943" lon="11.624226188201606"><ele>866.5</ele><time>2026-04-26T08:53:06.999Z</time></trkpt><trkpt lat="43.85745309564056" lon="11.624077925398534"><ele>864.0</ele><time>2026-04-26T08:53:07.999Z</time></trkpt><trkpt lat="43.857500738995064" lon="11.623959421396158"><ele>864.0</ele><time>2026-04-26T08:53:08.999Z</time></trkpt><trkpt lat="43.857575697920936" lon="11.62386557842072"><ele>864.0000000000001</ele><time>2026-04-26T08:53:09.999Z</time></trkpt><trkpt lat="43.857678113353714" lon="11.62383256213688"><ele>864.0000000000001</ele><time>2026-04-26T08:53:10.999Z</time></trkpt><trkpt lat="43.85777888841849" lon="11.623856675181424"><ele>864.0</ele><time>2026-04-26T08:53:11.999Z</time></trkpt><trkpt lat="43.85786997673853" lon="11.623944826558688"><ele>864.0</ele><time>2026-04-26T08:53:12.999Z</time></trkpt><trkpt lat="43.857952189445975" lon="11.624071672184234"><ele>864.75</ele><time>2026-04-26T08:53:13.999Z</time></trkpt><trkpt lat="43.85804548618097" lon="11.624163530517524"><ele>865.5</ele><time>2026-04-26T08:53:14.999Z</time></trkpt><trkpt lat="43.8581481916299" lon="11.624213458629761"><ele>866.25</ele><time>2026-04-26T08:53:15.999Z</time></trkpt><trkpt lat="43.85826989926208" lon="11.62419124389295"><ele>867.0</ele><time>2026-04-26T08:53:16.999Z</time></trkpt><trkpt lat="43.85839123154068" lon="11.624106914488495"><ele>866.0</ele><time>2026-04-26T08:53:17.999Z</time></trkpt><trkpt lat="43.85851539187152" lon="11.623987780987157"><ele>865.0</ele><time>2026-04-26T08:53:18.999Z</time></trkpt><trkpt lat="43.858673342723456" lon="11.623895086631045"><ele>864.0</ele><time>2026-04-26T08:53:19.999Z</time></trkpt><trkpt lat="43.858825930350974" lon="11.623808855472099"><ele>864.0</ele><time>2026-04-26T08:53:20.999Z</time></trkpt><trkpt lat="43.858959716037404" lon="11.62373514060209"><ele>864.0</ele><time>2026-04-26T08:53:21.999Z</time></trkpt><trkpt lat="43.859072695150836" lon="11.623683060564277"><ele>864.0</ele><time>2026-04-26T08:53:22.999Z</time></trkpt><trkpt lat="43.85916996032911" lon="11.623671685349063"><ele>864.0</ele><time>2026-04-26T08:53:23.999Z</time></trkpt><trkpt lat="43.85925766054358" lon="11.623727437632589"><ele>859.25</ele><time>2026-04-26T08:53:24.999Z</time></trkpt><trkpt lat="43.85935920429363" lon="11.623835864190498"><ele>854.5</ele><time>2026-04-26T08:53:25.999Z</time></trkpt><trkpt lat="43.85944592568286" lon="11.624013008787358"><ele>849.75</ele><time>2026-04-26T08:53:26.999Z</time></trkpt><trkpt lat="43.85952828414676" lon="11.624202230712232"><ele>845.0</ele><time>2026-04-26T08:53:27.999Z</time></trkpt><trkpt lat="43.859584212246304" lon="11.624359378677145"><ele>849.0</ele><time>2026-04-26T08:53:28.999Z</time></trkpt><trkpt lat="43.85965450687041" lon="11.624486163197387"><ele>853.0</ele><time>2026-04-26T08:53:29.999Z</time></trkpt><trkpt lat="43.859742048475404" lon="11.62459615159235"><ele>857.0</ele><time>2026-04-26T08:53:30.999Z</time></trkpt><trkpt lat="43.85984841158554" lon="11.624672223725929"><ele>861.0</ele><time>2026-04-26T08:53:31.999Z</time></trkpt><trkpt lat="43.85996007811602" lon="11.624722713686138"><ele>861.0</ele><time>2026-04-26T08:53:32.999Z</time></trkpt><trkpt lat="43.86006922616609" lon="11.624723534073276"><ele>861.0</ele><time>2026-04-26T08:53:33.999Z</time></trkpt><trkpt lat="43.86017750070093" lon="11.624664433359937"><ele>861.0</ele><time>2026-04-26T08:53:34.999Z</time></trkpt><trkpt lat="43.86028349563643" lon="11.62455968569495"><ele>861.0</ele><time>2026-04-26T08:53:35.999Z</time></trkpt><trkpt lat="43.86040606566948" lon="11.624481706192812"><ele>854.0</ele><time>2026-04-26T08:53:36.999Z</time></trkpt><trkpt lat="43.86053421384884" lon="11.624433844809161"><ele>847.0</ele><time>2026-04-26T08:53:37.999Z</time></trkpt><trkpt lat="43.860665869343386" lon="11.624405533397304"><ele>840.0</ele><time>2026-04-26T08:53:38.999Z</time></trkpt><trkpt lat="43.86077704674638" lon="11.624395928543121"><ele>833.0</ele><time>2026-04-26T08:53:39.999Z</time></trkpt><trkpt lat="43.86086951660468" lon="11.62441887070205"><ele>827.5</ele><time>2026-04-26T08:53:40.999Z</time></trkpt><trkpt lat="43.86096058312687" lon="11.624480677791222"><ele>822.0</ele><time>2026-04-26T08:53:41.999Z</time></trkpt><trkpt lat="43.861005403316746" lon="11.624649938975006"><ele>816.5</ele><time>2026-04-26T08:53:42.999Z</time></trkpt><trkpt lat="43.861032032930346" lon="11.624835738888518"><ele>811.0</ele><time>2026-04-26T08:53:44Z</time></trkpt><trkpt lat="43.86104880141481" lon="11.625028244423358"><ele>811.0</ele><time>2026-04-26T08:53:45Z</time></trkpt><trkpt lat="43.86108655160373" lon="11.625197943712422"><ele>811.0</ele><time>2026-04-26T08:53:46Z</time></trkpt><trkpt lat="43.861144193455466" lon="11.6253664791626"><ele>811.0</ele><time>2026-04-26T08:53:47Z</time></trkpt><trkpt lat="43.86124376526103" lon="11.625520116643148"><ele>811.0</ele><time>2026-04-26T08:53:48Z</time></trkpt><trkpt lat="43.861376875036754" lon="11.625641211898774"><ele>811.0</ele><time>2026-04-26T08:53:49Z</time></trkpt><trkpt lat="43.861533424663" lon="11.62574571183399"><ele>811.0</ele><time>2026-04-26T08:53:50Z</time></trkpt><trkpt lat="43.861686112621335" lon="11.625867855694038"><ele>811.0</ele><time>2026-04-26T08:53:51Z</time></trkpt><trkpt lat="43.86182920921495" lon="11.625960078514089"><ele>811.0</ele><time>2026-04-26T08:53:52Z</time></trkpt><trkpt lat="43.86195447609871" lon="11.626042739852787"><ele>811.0</ele><time>2026-04-26T08:53:53Z</time></trkpt><trkpt lat="43.86206322978631" lon="11.626134300991552"><ele>811.0</ele><time>2026-04-26T08:53:54Z</time></trkpt><trkpt lat="43.862137897992426" lon="11.626265161987286"><ele>811.0</ele><time>2026-04-26T08:53:55Z</time></trkpt><trkpt lat="43.86218402866609" lon="11.62642865899954"><ele>814.5</ele><time>2026-04-26T08:53:56Z</time></trkpt><trkpt lat="43.86225559623661" lon="11.626560454622442"><ele>818.0</ele><time>2026-04-26T08:53:57Z</time></trkpt><trkpt lat="43.8623455121545" lon="11.626658140900894"><ele>821.5</ele><time>2026-04-26T08:53:58Z</time></trkpt><trkpt lat="43.86245340502624" lon="11.626715954352774"><ele>825.0</ele><time>2026-04-26T08:53:59Z</time></trkpt><trkpt lat="43.862560449660016" lon="11.626728740267833"><ele>829.0</ele><time>2026-04-26T08:54:00Z</time></trkpt><trkpt lat="43.86266010553394" lon="11.626674789493837"><ele>833.0</ele><time>2026-04-26T08:54:01Z</time></trkpt><trkpt lat="43.86274211805062" lon="11.626565476465293"><ele>837.0</ele><time>2026-04-26T08:54:02Z</time></trkpt><trkpt lat="43.86282188449684" lon="11.626407642947092"><ele>841.0</ele><time>2026-04-26T08:54:03Z</time></trkpt><trkpt lat="43.86289594687837" lon="11.626213083286945"><ele>838.6666666666666</ele><time>2026-04-26T08:54:04Z</time></trkpt><trkpt lat="43.86295090096274" lon="11.625975241438752"><ele>836.3333333333333</ele><time>2026-04-26T08:54:05Z</time></trkpt><trkpt lat="43.862989286344295" lon="11.625716276780116"><ele>834.0</ele><time>2026-04-26T08:54:06Z</time></trkpt><trkpt lat="43.86302452268867" lon="11.6254720158306"><ele>829.6666666666667</ele><time>2026-04-26T08:54:07Z</time></trkpt><trkpt lat="43.863081379103" lon="11.625236440824702"><ele>825.3333333333334</ele><time>2026-04-26T08:54:08Z</time></trkpt><trkpt lat="43.86312612200054" lon="11.624998869275421"><ele>821.0</ele><time>2026-04-26T08:54:09Z</time></trkpt><trkpt lat="43.863178775084826" lon="11.62477419806654"><ele>821.0</ele><time>2026-04-26T08:54:10Z</time></trkpt><trkpt lat="43.86327687162599" lon="11.624566329712035"><ele>821.0</ele><time>2026-04-26T08:54:11Z</time></trkpt><trkpt lat="43.863395847275854" lon="11.624335591407261"><ele>821.0</ele><time>2026-04-26T08:54:12Z</time></trkpt><trkpt lat="43.86351506555485" lon="11.62409890524356"><ele>821.3333333333334</ele><time>2026-04-26T08:54:13Z</time></trkpt><trkpt lat="43.8636339240357" lon="11.623862795204605"><ele>821.6666666666667</ele><time>2026-04-26T08:54:14Z</time></trkpt><trkpt lat="43.86374740060164" lon="11.623639554713844"><ele>822.0</ele><time>2026-04-26T08:54:15Z</time></trkpt><trkpt lat="43.86385834243406" lon="11.623421138920843"><ele>815.6666666666667</ele><time>2026-04-26T08:54:16Z</time></trkpt><trkpt lat="43.86396810443617" lon="11.623209562587924"><ele>809.3333333333334</ele><time>2026-04-26T08:54:17Z</time></trkpt><trkpt lat="43.864096420807826" lon="11.623024504507354"><ele>803.0</ele><time>2026-04-26T08:54:18Z</time></trkpt><trkpt lat="43.864247547478215" lon="11.622867637389506"><ele>801.6666666666667</ele><time>2026-04-26T08:54:19Z</time></trkpt><trkpt lat="43.86441046671471" lon="11.622704441960805"><ele>800.3333333333333</ele><time>2026-04-26T08:54:20Z</time></trkpt><trkpt lat="43.86457044718306" lon="11.622524816367157"><ele>799.0</ele><time>2026-04-26T08:54:21Z</time></trkpt><trkpt lat="43.86471661971706" lon="11.622327518079642"><ele>799.0</ele><time>2026-04-26T08:54:22Z</time></trkpt><trkpt lat="43.86485270770753" lon="11.62213088142794"><ele>799.0</ele><time>2026-04-26T08:54:23Z</time></trkpt><trkpt lat="43.86498583434373" lon="11.621941005348182"><ele>799.0</ele><time>2026-04-26T08:54:24Z</time></trkpt><trkpt lat="43.86511485553276" lon="11.621746456449033"><ele>798.6666666666666</ele><time>2026-04-26T08:54:25Z</time></trkpt><trkpt lat="43.86522697523502" lon="11.621539035445041"><ele>798.3333333333333</ele><time>2026-04-26T08:54:26Z</time></trkpt><trkpt lat="43.86531796362992" lon="11.621297637000017"><ele>798.0</ele><time>2026-04-26T08:54:27Z</time></trkpt><trkpt lat="43.865396700746686" lon="11.62103762878071"><ele>794.3333333333333</ele><time>2026-04-26T08:54:28Z</time></trkpt><trkpt lat="43.86549475045839" lon="11.620795781370479"><ele>790.6666666666666</ele><time>2026-04-26T08:54:29Z</time></trkpt><trkpt lat="43.86561209618209" lon="11.62056847483494"><ele>787.0</ele><time>2026-04-26T08:54:30Z</time></trkpt><trkpt lat="43.8657276990017" lon="11.6203555952533"><ele>785.6666666666666</ele><time>2026-04-26T08:54:31Z</time></trkpt><trkpt lat="43.86583844702584" lon="11.620134044427273"><ele>784.3333333333333</ele><time>2026-04-26T08:54:32Z</time></trkpt><trkpt lat="43.86594597682535" lon="11.619900539647553"><ele>783.0</ele><time>2026-04-26T08:54:33Z</time></trkpt><trkpt lat="43.86603882133117" lon="11.619643992384749"><ele>779.3333333333333</ele><time>2026-04-26T08:54:34Z</time></trkpt><trkpt lat="43.86611449567329" lon="11.619388435133258"><ele>775.6666666666666</ele><time>2026-04-26T08:54:35Z</time></trkpt><trkpt lat="43.866183923038115" lon="11.619148979187411"><ele>772.0</ele><time>2026-04-26T08:54:36Z</time></trkpt><trkpt lat="43.866264036617075" lon="11.618935804091278"><ele>772.0</ele><time>2026-04-26T08:54:37Z</time></trkpt><trkpt lat="43.86636382674399" lon="11.618729107172777"><ele>772.0</ele><time>2026-04-26T08:54:38Z</time></trkpt><trkpt lat="43.86648543101924" lon="11.618542501082917"><ele>772.0</ele><time>2026-04-26T08:54:39Z</time></trkpt><trkpt lat="43.86661247618057" lon="11.618365057508628"><ele>769.0</ele><time>2026-04-26T08:54:40Z</time></trkpt><trkpt lat="43.86673311216491" lon="11.618185396551826"><ele>766.0</ele><time>2026-04-26T08:54:41Z</time></trkpt><trkpt lat="43.86684210488435" lon="11.617989180607971"><ele>763.0</ele><time>2026-04-26T08:54:42Z</time></trkpt><trkpt lat="43.866941333880916" lon="11.617786310058262"><ele>759.6666666666667</ele><time>2026-04-26T08:54:42.999Z</time></trkpt><trkpt lat="43.86703780296528" lon="11.61757220352757"><ele>756.3333333333334</ele><time>2026-04-26T08:54:43.999Z</time></trkpt><trkpt lat="43.867123481767685" lon="11.617378434867671"><ele>753.0</ele><time>2026-04-26T08:54:44.999Z</time></trkpt><trkpt lat="43.8672108450275" lon="11.617180856882337"><ele>753.0</ele><time>2026-04-26T08:54:45.999Z</time></trkpt><trkpt lat="43.867293387258684" lon="11.616987362667276"><ele>753.0</ele><time>2026-04-26T08:54:46.999Z</time></trkpt><trkpt lat="43.86736595825425" lon="11.616789581674634"><ele>753.0</ele><time>2026-04-26T08:54:47.999Z</time></trkpt><trkpt lat="43.867405527921555" lon="11.616579681917964"><ele>753.6666666666666</ele><time>2026-04-26T08:54:48.999Z</time></trkpt><trkpt lat="43.8674283860978" lon="11.616360439420054"><ele>754.3333333333333</ele><time>2026-04-26T08:54:49.999Z</time></trkpt><trkpt lat="43.86741317271475" lon="11.616124200848956"><ele>755.0</ele><time>2026-04-26T08:54:50.999Z</time></trkpt><trkpt lat="43.86739086838617" lon="11.61587635568214"><ele>755.0</ele><time>2026-04-26T08:54:51.999Z</time></trkpt><trkpt lat="43.86738846549351" lon="11.615636619286478"><ele>755.0</ele><time>2026-04-26T08:54:52.999Z</time></trkpt><trkpt lat="43.86735565506859" lon="11.615412507929554"><ele>755.0</ele><time>2026-04-26T08:54:53.999Z</time></trkpt><trkpt lat="43.86734102790881" lon="11.615198193779431"><ele>753.6666666666666</ele><time>2026-04-26T08:54:54.999Z</time></trkpt><trkpt lat="43.867309115157234" lon="11.61499502062004"><ele>752.3333333333334</ele><time>2026-04-26T08:54:55.999Z</time></trkpt><trkpt lat="43.86725007086754" lon="11.614787195496364"><ele>751.0</ele><time>2026-04-26T08:54:56.999Z</time></trkpt><trkpt lat="43.86717413639287" lon="11.614582910520424"><ele>749.0</ele><time>2026-04-26T08:54:57.999Z</time></trkpt><trkpt lat="43.86709613602338" lon="11.614384920023383"><ele>747.0</ele><time>2026-04-26T08:54:58.999Z</time></trkpt><trkpt lat="43.86701961756715" lon="11.614215830469888"><ele>745.0</ele><time>2026-04-26T08:54:59.999Z</time></trkpt><trkpt lat="43.86693568472386" lon="11.614072503799916"><ele>743.0</ele><time>2026-04-26T08:55:00.999Z</time></trkpt><trkpt lat="43.86683835674942" lon="11.613952535195267"><ele>744.25</ele><time>2026-04-26T08:55:01.999Z</time></trkpt><trkpt lat="43.86672740184409" lon="11.613862680587665"><ele>745.5</ele><time>2026-04-26T08:55:02.999Z</time></trkpt><trkpt lat="43.866602326386825" lon="11.613802432465707"><ele>746.75</ele><time>2026-04-26T08:55:03.999Z</time></trkpt><trkpt lat="43.86647314105341" lon="11.613780561206136"><ele>748.0</ele><time>2026-04-26T08:55:04.999Z</time></trkpt><trkpt lat="43.86633994754971" lon="11.613802951296364"><ele>748.0</ele><time>2026-04-26T08:55:05.999Z</time></trkpt><trkpt lat="43.86620488911742" lon="11.613869368195944"><ele>748.0</ele><time>2026-04-26T08:55:06.999Z</time></trkpt><trkpt lat="43.86608291159385" lon="11.613977794883695"><ele>748.0</ele><time>2026-04-26T08:55:07.999Z</time></trkpt><trkpt lat="43.86598653946119" lon="11.614125468085277"><ele>748.0</ele><time>2026-04-26T08:55:08.999Z</time></trkpt><trkpt lat="43.86591330465588" lon="11.614309834439979"><ele>745.0</ele><time>2026-04-26T08:55:09.999Z</time></trkpt><trkpt lat="43.86585454834624" lon="11.61451479985098"><ele>742.0</ele><time>2026-04-26T08:55:10.999Z</time></trkpt><trkpt lat="43.86579427707453" lon="11.614725644287969"><ele>739.0</ele><time>2026-04-26T08:55:11.999Z</time></trkpt><trkpt lat="43.86573137914416" lon="11.614918159626846"><ele>739.0</ele><time>2026-04-26T08:55:12.999Z</time></trkpt><trkpt lat="43.86566646599077" lon="11.61509576308114"><ele>739.0</ele><time>2026-04-26T08:55:13.999Z</time></trkpt><trkpt lat="43.86562413243811" lon="11.615283357391027"><ele>739.0</ele><time>2026-04-26T08:55:14.999Z</time></trkpt><trkpt lat="43.86561079009255" lon="11.615481939197085"><ele>739.0</ele><time>2026-04-26T08:55:15.999Z</time></trkpt><trkpt lat="43.86562933161685" lon="11.615693952907327"><ele>739.3333333333334</ele><time>2026-04-26T08:55:16.999Z</time></trkpt><trkpt lat="43.865655590575095" lon="11.61591433904996"><ele>739.6666666666666</ele><time>2026-04-26T08:55:17.999Z</time></trkpt><trkpt lat="43.86568171054774" lon="11.616128476139263"><ele>740.0</ele><time>2026-04-26T08:55:18.999Z</time></trkpt><trkpt lat="43.86568919839885" lon="11.616339227544465"><ele>739.5</ele><time>2026-04-26T08:55:19.999Z</time></trkpt><trkpt lat="43.865670964831914" lon="11.616546672399629"><ele>739.0</ele><time>2026-04-26T08:55:20.999Z</time></trkpt><trkpt lat="43.8656062003572" lon="11.616730977072747"><ele>738.5</ele><time>2026-04-26T08:55:21.999Z</time></trkpt><trkpt lat="43.86559568469728" lon="11.616921163902562"><ele>738.0</ele><time>2026-04-26T08:55:22.999Z</time></trkpt><trkpt lat="43.865562712012945" lon="11.617075840992968"><ele>739.25</ele><time>2026-04-26T08:55:23.999Z</time></trkpt><trkpt lat="43.865522067977544" lon="11.617215149299707"><ele>740.5</ele><time>2026-04-26T08:55:24.999Z</time></trkpt><trkpt lat="43.865456634991176" lon="11.617338299732745"><ele>741.75</ele><time>2026-04-26T08:55:25.999Z</time></trkpt><trkpt lat="43.86535757744957" lon="11.617443271549455"><ele>743.0</ele><time>2026-04-26T08:55:26.999Z</time></trkpt><trkpt lat="43.86521778311876" lon="11.61749803768145"><ele>738.0</ele><time>2026-04-26T08:55:27.999Z</time></trkpt><trkpt lat="43.86508504906286" lon="11.617591711440712"><ele>733.0</ele><time>2026-04-26T08:55:28.999Z</time></trkpt><trkpt lat="43.86495842622113" lon="11.617663284712721"><ele>728.0</ele><time>2026-04-26T08:55:29.999Z</time></trkpt><trkpt lat="43.864847041403486" lon="11.617736999170742"><ele>723.0</ele><time>2026-04-26T08:55:30.999Z</time></trkpt><trkpt lat="43.864740302634615" lon="11.617809812666932"><ele>725.25</ele><time>2026-04-26T08:55:31.999Z</time></trkpt><trkpt lat="43.864649076455116" lon="11.617902029164751"><ele>727.5</ele><time>2026-04-26T08:55:32.999Z</time></trkpt><trkpt lat="43.864586022444406" lon="11.61803270213599"><ele>729.75</ele><time>2026-04-26T08:55:33.999Z</time></trkpt><trkpt lat="43.86456050672109" lon="11.618188622165361"><ele>732.0</ele><time>2026-04-26T08:55:34.999Z</time></trkpt><trkpt lat="43.86457020996093" lon="11.618362510634947"><ele>732.0</ele><time>2026-04-26T08:55:35.999Z</time></trkpt><trkpt lat="43.86460392964873" lon="11.618534320440734"><ele>732.0</ele><time>2026-04-26T08:55:36.999Z</time></trkpt><trkpt lat="43.864631472978076" lon="11.618679682430402"><ele>732.0</ele><time>2026-04-26T08:55:37.999Z</time></trkpt><trkpt lat="43.864628686026485" lon="11.618812636432953"><ele>732.0</ele><time>2026-04-26T08:55:38.998Z</time></trkpt><trkpt lat="43.864559030966745" lon="11.618946069231487"><ele>733.0</ele><time>2026-04-26T08:55:39.998Z</time></trkpt><trkpt lat="43.86446934358496" lon="11.619099532663427"><ele>734.0</ele><time>2026-04-26T08:55:40.998Z</time></trkpt><trkpt lat="43.86437620720759" lon="11.61926454750495"><ele>735.0</ele><time>2026-04-26T08:55:41.998Z</time></trkpt><trkpt lat="43.86426636528303" lon="11.61942207051529"><ele>729.6666666666666</ele><time>2026-04-26T08:55:42.998Z</time></trkpt><trkpt lat="43.86415813662635" lon="11.619595830278138"><ele>724.3333333333333</ele><time>2026-04-26T08:55:43.998Z</time></trkpt><trkpt lat="43.864044133462336" lon="11.619769074165525"><ele>719.0</ele><time>2026-04-26T08:55:44.998Z</time></trkpt><trkpt lat="43.863927236064946" lon="11.619950910200348"><ele>719.0</ele><time>2026-04-26T08:55:45.998Z</time></trkpt><trkpt lat="43.86381196421757" lon="11.620123628989072"><ele>719.0</ele><time>2026-04-26T08:55:46.998Z</time></trkpt><trkpt lat="43.86370359272408" lon="11.620293963569983"><ele>719.0</ele><time>2026-04-26T08:55:47.998Z</time></trkpt><trkpt lat="43.8636025740942" lon="11.620452952249902"><ele>717.5</ele><time>2026-04-26T08:55:48.998Z</time></trkpt><trkpt lat="43.86350618448301" lon="11.620601273838753"><ele>716.0</ele><time>2026-04-26T08:55:50Z</time></trkpt><trkpt lat="43.86340194226627" lon="11.620729516224475"><ele>714.5</ele><time>2026-04-26T08:55:51Z</time></trkpt><trkpt lat="43.86329255916777" lon="11.62081285198365"><ele>713.0</ele><time>2026-04-26T08:55:52Z</time></trkpt><trkpt lat="43.863193008204135" lon="11.620849249558486"><ele>713.0</ele><time>2026-04-26T08:55:53Z</time></trkpt><trkpt lat="43.86310481554523" lon="11.620812082529055"><ele>713.0</ele><time>2026-04-26T08:55:54Z</time></trkpt><trkpt lat="43.86303779813004" lon="11.620725484764643"><ele>713.0</ele><time>2026-04-26T08:55:55Z</time></trkpt><trkpt lat="43.863003763102064" lon="11.620589367818027"><ele>713.0</ele><time>2026-04-26T08:55:56Z</time></trkpt><trkpt lat="43.86302497038332" lon="11.62043999648849"><ele>713.0</ele><time>2026-04-26T08:55:57Z</time></trkpt><trkpt lat="43.863118846445644" lon="11.62032476090259"><ele>714.5</ele><time>2026-04-26T08:55:58Z</time></trkpt><trkpt lat="43.86321206694663" lon="11.620189520929344"><ele>716.0</ele><time>2026-04-26T08:55:59Z</time></trkpt><trkpt lat="43.863315047895014" lon="11.620028845268816"><ele>717.5</ele><time>2026-04-26T08:56:00Z</time></trkpt><trkpt lat="43.86341489041149" lon="11.619873265218342"><ele>719.0</ele><time>2026-04-26T08:56:01Z</time></trkpt><trkpt lat="43.86351341104732" lon="11.619719745080102"><ele>719.0</ele><time>2026-04-26T08:56:02Z</time></trkpt><trkpt lat="43.863600888613206" lon="11.619555609220589"><ele>719.0</ele><time>2026-04-26T08:56:03Z</time></trkpt><trkpt lat="43.863685909597436" lon="11.61937717765202"><ele>719.0</ele><time>2026-04-26T08:56:04Z</time></trkpt><trkpt lat="43.8637423164373" lon="11.619174660246447"><ele>714.3333333333333</ele><time>2026-04-26T08:56:05Z</time></trkpt><trkpt lat="43.86377454878071" lon="11.618948462736059"><ele>709.6666666666666</ele><time>2026-04-26T08:56:06Z</time></trkpt><trkpt lat="43.86379122113196" lon="11.618707526262623"><ele>705.0</ele><time>2026-04-26T08:56:07Z</time></trkpt><trkpt lat="43.86382842965702" lon="11.618480330457515"><ele>704.0</ele><time>2026-04-26T08:56:08Z</time></trkpt><trkpt lat="43.86385273415265" lon="11.61826830307444"><ele>703.0</ele><time>2026-04-26T08:56:09Z</time></trkpt><trkpt lat="43.86387412139458" lon="11.618076344747932"><ele>702.0</ele><time>2026-04-26T08:56:10Z</time></trkpt><trkpt lat="43.8638775352587" lon="11.617905173921898"><ele>701.0</ele><time>2026-04-26T08:56:11Z</time></trkpt><trkpt lat="43.86387667287132" lon="11.617738978464844"><ele>700.25</ele><time>2026-04-26T08:56:12Z</time></trkpt><trkpt lat="43.863835107007496" lon="11.617570730223274"><ele>699.5</ele><time>2026-04-26T08:56:13Z</time></trkpt><trkpt lat="43.86373914720186" lon="11.61741679118814"><ele>698.75</ele><time>2026-04-26T08:56:14Z</time></trkpt><trkpt lat="43.86363277292731" lon="11.617268439431344"><ele>698.0</ele><time>2026-04-26T08:56:15Z</time></trkpt><trkpt lat="43.86355510346638" lon="11.617117207210612"><ele>695.5</ele><time>2026-04-26T08:56:16Z</time></trkpt><trkpt lat="43.86351937759616" lon="11.61696439846223"><ele>693.0</ele><time>2026-04-26T08:56:17Z</time></trkpt><trkpt lat="43.86352504845779" lon="11.61680719767164"><ele>690.5</ele><time>2026-04-26T08:56:18Z</time></trkpt><trkpt lat="43.86359741528168" lon="11.61665503843077"><ele>688.0</ele><time>2026-04-26T08:56:19Z</time></trkpt><trkpt lat="43.86368135378662" lon="11.616461947306735"><ele>688.0</ele><time>2026-04-26T08:56:20Z</time></trkpt><trkpt lat="43.86375368905822" lon="11.616249074747527"><ele>688.0</ele><time>2026-04-26T08:56:21Z</time></trkpt><trkpt lat="43.863825222245055" lon="11.616049172880983"><ele>688.0</ele><time>2026-04-26T08:56:22Z</time></trkpt><trkpt lat="43.863876659014096" lon="11.61584357354636"><ele>686.0</ele><time>2026-04-26T08:56:23Z</time></trkpt><trkpt lat="43.86390828774532" lon="11.61562858202561"><ele>684.0</ele><time>2026-04-26T08:56:24Z</time></trkpt><trkpt lat="43.863919075510196" lon="11.615401578790907"><ele>682.0</ele><time>2026-04-26T08:56:25Z</time></trkpt><trkpt lat="43.86391459044422" lon="11.615164124294727"><ele>682.0</ele><time>2026-04-26T08:56:26Z</time></trkpt><trkpt lat="43.86390195091556" lon="11.614934681884678"><ele>682.0</ele><time>2026-04-26T08:56:27Z</time></trkpt><trkpt lat="43.863898742537295" lon="11.614725867990789"><ele>682.0</ele><time>2026-04-26T08:56:28Z</time></trkpt><trkpt lat="43.863848916654234" lon="11.614546298915618"><ele>682.25</ele><time>2026-04-26T08:56:28.999Z</time></trkpt><trkpt lat="43.86378510317891" lon="11.614370013465082"><ele>682.5</ele><time>2026-04-26T08:56:29.999Z</time></trkpt><trkpt lat="43.86370184993212" lon="11.614195596502315"><ele>682.75</ele><time>2026-04-26T08:56:30.999Z</time></trkpt><trkpt lat="43.863614998200475" lon="11.614024057018318"><ele>683.0</ele><time>2026-04-26T08:56:31.999Z</time></trkpt><trkpt lat="43.86354983969154" lon="11.613841982554487"><ele>683.0</ele><time>2026-04-26T08:56:32.999Z</time></trkpt><trkpt lat="43.86347917986415" lon="11.613667545095838"><ele>683.0</ele><time>2026-04-26T08:56:33.999Z</time></trkpt><trkpt lat="43.86342526907613" lon="11.613481029468698"><ele>683.0</ele><time>2026-04-26T08:56:34.999Z</time></trkpt><trkpt lat="43.86340178201695" lon="11.613281971419793"><ele>683.0</ele><time>2026-04-26T08:56:35.999Z</time></trkpt><trkpt lat="43.86339896383348" lon="11.613064439195762"><ele>673.3333333333333</ele><time>2026-04-26T08:56:36.999Z</time></trkpt><trkpt lat="43.863403890067474" lon="11.612827394315643"><ele>663.6666666666666</ele><time>2026-04-26T08:56:37.999Z</time></trkpt><trkpt lat="43.86341270765224" lon="11.612581220446454"><ele>654.0</ele><time>2026-04-26T08:56:38.999Z</time></trkpt><trkpt lat="43.86341899088076" lon="11.61234350325869"><ele>652.6666666666666</ele><time>2026-04-26T08:56:39.999Z</time></trkpt><trkpt lat="43.863426229680584" lon="11.612118942885655"><ele>651.3333333333333</ele><time>2026-04-26T08:56:40.999Z</time></trkpt><trkpt lat="43.863436731791985" lon="11.61191176307571"><ele>650.0</ele><time>2026-04-26T08:56:41.999Z</time></trkpt><trkpt lat="43.86346440333391" lon="11.611710045339661"><ele>652.3333333333333</ele><time>2026-04-26T08:56:42.999Z</time></trkpt><trkpt lat="43.86351994036261" lon="11.61150800072795"><ele>654.6666666666666</ele><time>2026-04-26T08:56:43.999Z</time></trkpt><trkpt lat="43.86358761832688" lon="11.611289833246879"><ele>657.0</ele><time>2026-04-26T08:56:44.999Z</time></trkpt><trkpt lat="43.863658560788004" lon="11.611053313596832"><ele>657.0</ele><time>2026-04-26T08:56:45.999Z</time></trkpt><trkpt lat="43.863730175428394" lon="11.610815058108273"><ele>657.0</ele><time>2026-04-26T08:56:46.999Z</time></trkpt><trkpt lat="43.86380598157696" lon="11.610568053773171"><ele>657.0</ele><time>2026-04-26T08:56:47.999Z</time></trkpt><trkpt lat="43.86386917815172" lon="11.610304604861957"><ele>653.0</ele><time>2026-04-26T08:56:48.999Z</time></trkpt><trkpt lat="43.86391220835361" lon="11.610028953322692"><ele>649.0</ele><time>2026-04-26T08:56:49.999Z</time></trkpt><trkpt lat="43.86395056697386" lon="11.60976048703391"><ele>645.0</ele><time>2026-04-26T08:56:50.999Z</time></trkpt><trkpt lat="43.86398781897282" lon="11.609501983450114"><ele>641.6666666666666</ele><time>2026-04-26T08:56:51.999Z</time></trkpt><trkpt lat="43.86402472711189" lon="11.609254438744877"><ele>638.3333333333333</ele><time>2026-04-26T08:56:52.999Z</time></trkpt><trkpt lat="43.864073784785624" lon="11.609024599750896"><ele>635.0</ele><time>2026-04-26T08:56:53.999Z</time></trkpt><trkpt lat="43.86415433648992" lon="11.608796755624489"><ele>636.0</ele><time>2026-04-26T08:56:54.999Z</time></trkpt><trkpt lat="43.86425081515173" lon="11.608559946303153"><ele>637.0</ele><time>2026-04-26T08:56:55.999Z</time></trkpt><trkpt lat="43.86435632916957" lon="11.608316469899371"><ele>638.0</ele><time>2026-04-26T08:56:56.999Z</time></trkpt><trkpt lat="43.86446028736177" lon="11.608081106448815"><ele>638.0</ele><time>2026-04-26T08:56:57.999Z</time></trkpt><trkpt lat="43.86456195958517" lon="11.607859228625019"><ele>638.0</ele><time>2026-04-26T08:56:58.999Z</time></trkpt><trkpt lat="43.864657304404666" lon="11.60765492303576"><ele>638.0</ele><time>2026-04-26T08:56:59.999Z</time></trkpt><trkpt lat="43.86474622535783" lon="11.607464382555307"><ele>635.0</ele><time>2026-04-26T08:57:00.999Z</time></trkpt><trkpt lat="43.864827853231475" lon="11.607285873175849"><ele>632.0</ele><time>2026-04-26T08:57:01.999Z</time></trkpt><trkpt lat="43.86490568350691" lon="11.607139291736669"><ele>629.0</ele><time>2026-04-26T08:57:02.999Z</time></trkpt><trkpt lat="43.86499712516172" lon="11.607020675938253"><ele>626.0</ele><time>2026-04-26T08:57:03.999Z</time></trkpt><trkpt lat="43.86512159507168" lon="11.606940672995055"><ele>619.25</ele><time>2026-04-26T08:57:04.999Z</time></trkpt><trkpt lat="43.8652518690063" lon="11.606862097798551"><ele>612.5</ele><time>2026-04-26T08:57:05.999Z</time></trkpt><trkpt lat="43.86536746252227" lon="11.606790140085053"><ele>605.75</ele><time>2026-04-26T08:57:06.999Z</time></trkpt><trkpt lat="43.865460925535686" lon="11.606726651633258"><ele>599.0</ele><time>2026-04-26T08:57:07.999Z</time></trkpt><trkpt lat="43.86553342509768" lon="11.606632702385477"><ele>599.0</ele><time>2026-04-26T08:57:08.999Z</time></trkpt><trkpt lat="43.86557499960407" lon="11.606505451728257"><ele>599.0</ele><time>2026-04-26T08:57:09.999Z</time></trkpt><trkpt lat="43.8655572549278" lon="11.606352286836133"><ele>599.0</ele><time>2026-04-26T08:57:10.999Z</time></trkpt><trkpt lat="43.86551551057245" lon="11.606223851579744"><ele>599.0</ele><time>2026-04-26T08:57:11.999Z</time></trkpt><trkpt lat="43.86543279444519" lon="11.60613895245664"><ele>599.0</ele><time>2026-04-26T08:57:12.999Z</time></trkpt><trkpt lat="43.86533236358477" lon="11.606099778600766"><ele>599.0</ele><time>2026-04-26T08:57:13.999Z</time></trkpt><trkpt lat="43.865228140015255" lon="11.606112094835096"><ele>599.0</ele><time>2026-04-26T08:57:14.999Z</time></trkpt><trkpt lat="43.86512741023879" lon="11.606187822551455"><ele>599.0</ele><time>2026-04-26T08:57:15.999Z</time></trkpt><trkpt lat="43.86503062164514" lon="11.60630147168259"><ele>599.0</ele><time>2026-04-26T08:57:16.999Z</time></trkpt><trkpt lat="43.86492358006237" lon="11.606419484509649"><ele>601.75</ele><time>2026-04-26T08:57:17.999Z</time></trkpt><trkpt lat="43.86480622575409" lon="11.606529891749888"><ele>604.5</ele><time>2026-04-26T08:57:18.999Z</time></trkpt><trkpt lat="43.86469409334577" lon="11.60663279589442"><ele>607.25</ele><time>2026-04-26T08:57:19.999Z</time></trkpt><trkpt lat="43.86461366303711" lon="11.606714102779106"><ele>610.0</ele><time>2026-04-26T08:57:20.999Z</time></trkpt><trkpt lat="43.86455135244264" lon="11.606769645360894"><ele>610.0</ele><time>2026-04-26T08:57:21.999Z</time></trkpt><trkpt lat="43.86448829509765" lon="11.606800715087344"><ele>610.0</ele><time>2026-04-26T08:57:23.999Z</time></trkpt><trkpt lat="43.864487758375155" lon="11.606681686391793"><ele>610.0</ele><time>2026-04-26T08:57:26.999Z</time></trkpt><trkpt lat="43.86455048721413" lon="11.606632842575111"><ele>610.0</ele><time>2026-04-26T08:57:27.999Z</time></trkpt><trkpt lat="43.86459521807514" lon="11.606525209127712"><ele>610.0</ele><time>2026-04-26T08:57:28.999Z</time></trkpt><trkpt lat="43.8646414004586" lon="11.606406265129237"><ele>610.0</ele><time>2026-04-26T08:57:29.999Z</time></trkpt><trkpt lat="43.86469257942383" lon="11.606266815572786"><ele>606.75</ele><time>2026-04-26T08:57:30.999Z</time></trkpt><trkpt lat="43.86474089743771" lon="11.606107537457438"><ele>603.5</ele><time>2026-04-26T08:57:31.999Z</time></trkpt><trkpt lat="43.86477249501124" lon="11.605933714591506"><ele>600.25</ele><time>2026-04-26T08:57:32.999Z</time></trkpt><trkpt lat="43.86483151905181" lon="11.605767675632508"><ele>597.0</ele><time>2026-04-26T08:57:33.999Z</time></trkpt><trkpt lat="43.86486933622974" lon="11.605597936896453"><ele>597.0</ele><time>2026-04-26T08:57:34.999Z</time></trkpt><trkpt lat="43.86490408213867" lon="11.605431178082458"><ele>597.0</ele><time>2026-04-26T08:57:35.999Z</time></trkpt><trkpt lat="43.864937660843644" lon="11.605270021049185"><ele>597.0</ele><time>2026-04-26T08:57:36.999Z</time></trkpt><trkpt lat="43.864970406966385" lon="11.605116143179524"><ele>597.0</ele><time>2026-04-26T08:57:37.999Z</time></trkpt><trkpt lat="43.86500150973574" lon="11.604971819439077"><ele>594.6</ele><time>2026-04-26T08:57:38.999Z</time></trkpt><trkpt lat="43.86503009617841" lon="11.604839171629955"><ele>592.2</ele><time>2026-04-26T08:57:39.999Z</time></trkpt><trkpt lat="43.86505416981967" lon="11.604716290889371"><ele>589.8</ele><time>2026-04-26T08:57:40.999Z</time></trkpt><trkpt lat="43.865066138456285" lon="11.604603508809799"><ele>587.4</ele><time>2026-04-26T08:57:41.999Z</time></trkpt><trkpt lat="43.86506581616252" lon="11.604489961475243"><ele>585.0</ele><time>2026-04-26T08:57:42.999Z</time></trkpt><trkpt lat="43.86503058426324" lon="11.604360936342943"><ele>583.1666666666666</ele><time>2026-04-26T08:57:43.999Z</time></trkpt><trkpt lat="43.86498420005483" lon="11.604265696108225"><ele>581.3333333333334</ele><time>2026-04-26T08:57:44.999Z</time></trkpt><trkpt lat="43.86498974362034" lon="11.604123852703465"><ele>579.5</ele><time>2026-04-26T08:57:46.999Z</time></trkpt><trkpt lat="43.86505510520844" lon="11.604089732220142"><ele>577.6666666666667</ele><time>2026-04-26T08:57:47.999Z</time></trkpt><trkpt lat="43.86513812736195" lon="11.60410192235984"><ele>575.8333333333334</ele><time>2026-04-26T08:57:48.999Z</time></trkpt><trkpt lat="43.86522469239286" lon="11.60417146260634"><ele>574.0</ele><time>2026-04-26T08:57:49.999Z</time></trkpt><trkpt lat="43.86532103816362" lon="11.604251496923379"><ele>574.25</ele><time>2026-04-26T08:57:50.999Z</time></trkpt><trkpt lat="43.86542360460822" lon="11.604340616321952"><ele>574.5</ele><time>2026-04-26T08:57:51.999Z</time></trkpt><trkpt lat="43.865519820499536" lon="11.604434473030231"><ele>574.75</ele><time>2026-04-26T08:57:52.999Z</time></trkpt><trkpt lat="43.865607244873395" lon="11.604542986044807"><ele>575.0</ele><time>2026-04-26T08:57:53.999Z</time></trkpt><trkpt lat="43.86568650378423" lon="11.604663432899617"><ele>575.0</ele><time>2026-04-26T08:57:54.999Z</time></trkpt><trkpt lat="43.86576210601857" lon="11.604786867481655"><ele>575.0</ele><time>2026-04-26T08:57:56Z</time></trkpt><trkpt lat="43.86583439201146" lon="11.604902766629268"><ele>575.0</ele><time>2026-04-26T08:57:57Z</time></trkpt><trkpt lat="43.86588470972765" lon="11.605041764446666"><ele>575.0</ele><time>2026-04-26T08:57:58Z</time></trkpt><trkpt lat="43.86595241471745" lon="11.605167761333188"><ele>568.0</ele><time>2026-04-26T08:57:59Z</time></trkpt><trkpt lat="43.86599869921691" lon="11.605319127769386"><ele>561.0</ele><time>2026-04-26T08:58:00Z</time></trkpt><trkpt lat="43.86601666009153" lon="11.60548118042667"><ele>554.0</ele><time>2026-04-26T08:58:01Z</time></trkpt><trkpt lat="43.866036392503645" lon="11.605647008336305"><ele>547.0</ele><time>2026-04-26T08:58:02Z</time></trkpt><trkpt lat="43.86606880634356" lon="11.605795913763288"><ele>547.0</ele><time>2026-04-26T08:58:03Z</time></trkpt><trkpt lat="43.86609496820765" lon="11.605932764188028"><ele>547.0</ele><time>2026-04-26T08:58:04Z</time></trkpt><trkpt lat="43.86612202781173" lon="11.606033371567394"><ele>547.0</ele><time>2026-04-26T08:58:05Z</time></trkpt><trkpt lat="43.866201458124685" lon="11.606164651366496"><ele>547.0</ele><time>2026-04-26T08:58:07Z</time></trkpt><trkpt lat="43.86627480156663" lon="11.60621142295974"><ele>547.0</ele><time>2026-04-26T08:58:08Z</time></trkpt><trkpt lat="43.86635393590567" lon="11.606229292422329"><ele>549.2</ele><time>2026-04-26T08:58:09Z</time></trkpt><trkpt lat="43.866439266348884" lon="11.606233917942356"><ele>551.4000000000001</ele><time>2026-04-26T08:58:10Z</time></trkpt><trkpt lat="43.86653342410201" lon="11.606233521000556"><ele>553.5999999999999</ele><time>2026-04-26T08:58:11Z</time></trkpt><trkpt lat="43.86663345793406" lon="11.60624589429377"><ele>555.8</ele><time>2026-04-26T08:58:12Z</time></trkpt><trkpt lat="43.86674247086197" lon="11.60627168679061"><ele>558.0</ele><time>2026-04-26T08:58:13Z</time></trkpt><trkpt lat="43.866859985373544" lon="11.606292431066748"><ele>558.0</ele><time>2026-04-26T08:58:14Z</time></trkpt><trkpt lat="43.86698210535864" lon="11.606308329526167"><ele>558.0</ele><time>2026-04-26T08:58:15Z</time></trkpt><trkpt lat="43.867100331768754" lon="11.606332633515978"><ele>558.0</ele><time>2026-04-26T08:58:16Z</time></trkpt><trkpt lat="43.86721178542309" lon="11.606349897969917"><ele>558.0</ele><time>2026-04-26T08:58:17Z</time></trkpt><trkpt lat="43.86732238088845" lon="11.606393520929444"><ele>558.0</ele><time>2026-04-26T08:58:18Z</time></trkpt><trkpt lat="43.86743116919053" lon="11.606417666274355"><ele>558.0</ele><time>2026-04-26T08:58:19Z</time></trkpt><trkpt lat="43.86753933963992" lon="11.606408811469606"><ele>558.0</ele><time>2026-04-26T08:58:20Z</time></trkpt><trkpt lat="43.867654350367694" lon="11.60642598747658"><ele>558.0</ele><time>2026-04-26T08:58:21Z</time></trkpt><trkpt lat="43.867780662326304" lon="11.60642213760042"><ele>556.0</ele><time>2026-04-26T08:58:22Z</time></trkpt><trkpt lat="43.8679035100718" lon="11.606408495340679"><ele>554.0</ele><time>2026-04-26T08:58:23Z</time></trkpt><trkpt lat="43.86803990618421" lon="11.606408562936913"><ele>552.0</ele><time>2026-04-26T08:58:24Z</time></trkpt><trkpt lat="43.86816897300438" lon="11.606437183957073"><ele>550.0</ele><time>2026-04-26T08:58:25Z</time></trkpt><trkpt lat="43.868292467117996" lon="11.606453209166967"><ele>550.0</ele><time>2026-04-26T08:58:26Z</time></trkpt><trkpt lat="43.86840956921722" lon="11.606463112367093"><ele>550.0</ele><time>2026-04-26T08:58:27Z</time></trkpt><trkpt lat="43.868519604886515" lon="11.606482095508865"><ele>550.0</ele><time>2026-04-26T08:58:28Z</time></trkpt><trkpt lat="43.86861370678215" lon="11.60648334714046"><ele>550.0</ele><time>2026-04-26T08:58:29Z</time></trkpt><trkpt lat="43.86869292220317" lon="11.606470076193476"><ele>550.0</ele><time>2026-04-26T08:58:30Z</time></trkpt><trkpt lat="43.8687688465389" lon="11.606449474398241"><ele>548.8</ele><time>2026-04-26T08:58:31Z</time></trkpt><trkpt lat="43.86885354574082" lon="11.606427864665173"><ele>547.6</ele><time>2026-04-26T08:58:32Z</time></trkpt><trkpt lat="43.868945735626895" lon="11.606400606778902"><ele>546.4</ele><time>2026-04-26T08:58:33Z</time></trkpt><trkpt lat="43.86905150534354" lon="11.606416464764719"><ele>545.2</ele><time>2026-04-26T08:58:34Z</time></trkpt><trkpt lat="43.869167024204366" lon="11.606404970319486"><ele>544.0</ele><time>2026-04-26T08:58:35Z</time></trkpt><trkpt lat="43.86928633679389" lon="11.606426762063625"><ele>542.4</ele><time>2026-04-26T08:58:36Z</time></trkpt><trkpt lat="43.86939734061021" lon="11.606432163765591"><ele>540.8</ele><time>2026-04-26T08:58:37Z</time></trkpt><trkpt lat="43.86950255585326" lon="11.606440652149667"><ele>539.2</ele><time>2026-04-26T08:58:38Z</time></trkpt><trkpt lat="43.86961094948078" lon="11.606449353164228"><ele>537.6</ele><time>2026-04-26T08:58:39Z</time></trkpt><trkpt lat="43.86972093394505" lon="11.60645416071456"><ele>536.0</ele><time>2026-04-26T08:58:40Z</time></trkpt><trkpt lat="43.86982746522199" lon="11.606461201134248"><ele>536.0</ele><time>2026-04-26T08:58:41Z</time></trkpt><trkpt lat="43.86993271619352" lon="11.606467623801954"><ele>536.0</ele><time>2026-04-26T08:58:42Z</time></trkpt><trkpt lat="43.87003135620572" lon="11.606502831065303"><ele>536.0</ele><time>2026-04-26T08:58:43Z</time></trkpt><trkpt lat="43.870127562164875" lon="11.60656742855309"><ele>536.0</ele><time>2026-04-26T08:58:44Z</time></trkpt><trkpt lat="43.870224465643645" lon="11.606658320664158"><ele>536.0</ele><time>2026-04-26T08:58:45Z</time></trkpt><trkpt lat="43.87030692176833" lon="11.606758702603393"><ele>532.3333333333333</ele><time>2026-04-26T08:58:46Z</time></trkpt><trkpt lat="43.87036690694492" lon="11.606840025245264"><ele>528.6666666666666</ele><time>2026-04-26T08:58:47Z</time></trkpt><trkpt lat="43.87042785613083" lon="11.60690022973881"><ele>525.0</ele><time>2026-04-26T08:58:48Z</time></trkpt><trkpt lat="43.870523762405334" lon="11.606925113204705"><ele>521.3333333333334</ele><time>2026-04-26T08:58:50Z</time></trkpt><trkpt lat="43.87057209998928" lon="11.60685945137415"><ele>517.6666666666667</ele><time>2026-04-26T08:58:51Z</time></trkpt><trkpt lat="43.870579293027426" lon="11.606740892067101"><ele>514.0</ele><time>2026-04-26T08:58:52Z</time></trkpt><trkpt lat="43.87051097137882" lon="11.606600189953998"><ele>514.0</ele><time>2026-04-26T08:58:53Z</time></trkpt><trkpt lat="43.87043784278988" lon="11.60649170372856"><ele>514.0</ele><time>2026-04-26T08:58:54Z</time></trkpt><trkpt lat="43.87036241638077" lon="11.606362211259178"><ele>514.0</ele><time>2026-04-26T08:58:55Z</time></trkpt><trkpt lat="43.870291610444106" lon="11.606231902121431"><ele>514.0</ele><time>2026-04-26T08:58:56Z</time></trkpt><trkpt lat="43.870219278964264" lon="11.606096522686096"><ele>515.5</ele><time>2026-04-26T08:58:57Z</time></trkpt><trkpt lat="43.870146537178016" lon="11.60595935103856"><ele>517.0</ele><time>2026-04-26T08:58:58Z</time></trkpt><trkpt lat="43.870072211003574" lon="11.605816543612278"><ele>518.5</ele><time>2026-04-26T08:58:59Z</time></trkpt><trkpt lat="43.870000300129156" lon="11.605668004118098"><ele>520.0</ele><time>2026-04-26T08:59:00Z</time></trkpt><trkpt lat="43.869934579562205" lon="11.60551251109962"><ele>520.0</ele><time>2026-04-26T08:59:01Z</time></trkpt><trkpt lat="43.86987564012277" lon="11.6053488173107"><ele>520.0</ele><time>2026-04-26T08:59:02Z</time></trkpt><trkpt lat="43.86982532082503" lon="11.60517974877065"><ele>520.0</ele><time>2026-04-26T08:59:03Z</time></trkpt><trkpt lat="43.86977981459572" lon="11.605017348062123"><ele>520.0</ele><time>2026-04-26T08:59:04Z</time></trkpt><trkpt lat="43.86974357860385" lon="11.604870025667955"><ele>518.1666666666667</ele><time>2026-04-26T08:59:05Z</time></trkpt><trkpt lat="43.86970967856804" lon="11.604738701725573"><ele>516.3333333333334</ele><time>2026-04-26T08:59:06Z</time></trkpt><trkpt lat="43.86967763958043" lon="11.604638085359637"><ele>514.5</ele><time>2026-04-26T08:59:07Z</time></trkpt><trkpt lat="43.869639124634354" lon="11.604562956112288"><ele>512.6666666666666</ele><time>2026-04-26T08:59:08Z</time></trkpt><trkpt lat="43.869569374282996" lon="11.604511195918864"><ele>510.8333333333333</ele><time>2026-04-26T08:59:09Z</time></trkpt><trkpt lat="43.869486431859315" lon="11.604480600626928"><ele>509.0</ele><time>2026-04-26T08:59:10Z</time></trkpt><trkpt lat="43.869398052799156" lon="11.604441114553575"><ele>506.5</ele><time>2026-04-26T08:59:11Z</time></trkpt><trkpt lat="43.869291049376706" lon="11.604390273517678"><ele>504.0</ele><time>2026-04-26T08:59:11.999Z</time></trkpt><trkpt lat="43.86918464265101" lon="11.604332244243404"><ele>501.5</ele><time>2026-04-26T08:59:12.999Z</time></trkpt><trkpt lat="43.86907858261028" lon="11.604260849289716"><ele>499.0</ele><time>2026-04-26T08:59:13.999Z</time></trkpt><trkpt lat="43.86897582220701" lon="11.604190350037218"><ele>499.00000000000006</ele><time>2026-04-26T08:59:14.999Z</time></trkpt><trkpt lat="43.868888226726725" lon="11.604132421792862"><ele>499.0</ele><time>2026-04-26T08:59:15.999Z</time></trkpt><trkpt lat="43.86880684615645" lon="11.604086615286054"><ele>499.0</ele><time>2026-04-26T08:59:16.999Z</time></trkpt><trkpt lat="43.8687417751668" lon="11.604075493503622"><ele>499.0</ele><time>2026-04-26T08:59:17.999Z</time></trkpt><trkpt lat="43.86867079342412" lon="11.60405750611236"><ele>499.00000000000006</ele><time>2026-04-26T08:59:18.999Z</time></trkpt><trkpt lat="43.86858766070834" lon="11.60407806439569"><ele>499.0</ele><time>2026-04-26T08:59:19.999Z</time></trkpt><trkpt lat="43.86849934357829" lon="11.604121081757592"><ele>497.50000000000006</ele><time>2026-04-26T08:59:20.999Z</time></trkpt><trkpt lat="43.86840679196339" lon="11.604140479880051"><ele>496.0</ele><time>2026-04-26T08:59:21.999Z</time></trkpt><trkpt lat="43.86831471646507" lon="11.604176660270717"><ele>494.5</ele><time>2026-04-26T08:59:22.999Z</time></trkpt><trkpt lat="43.86823149861322" lon="11.604218597615658"><ele>493.0</ele><time>2026-04-26T08:59:23.999Z</time></trkpt><trkpt lat="43.8681598144714" lon="11.60427596972962"><ele>491.50000000000006</ele><time>2026-04-26T08:59:24.999Z</time></trkpt><trkpt lat="43.868090536984155" lon="11.604310389530697"><ele>490.0</ele><time>2026-04-26T08:59:25.999Z</time></trkpt><trkpt lat="43.868014759899204" lon="11.604302307195516"><ele>490.00000000000006</ele><time>2026-04-26T08:59:26.999Z</time></trkpt><trkpt lat="43.86794794069297" lon="11.604306386298378"><ele>490.0</ele><time>2026-04-26T08:59:27.999Z</time></trkpt><trkpt lat="43.867906748337866" lon="11.604203220165553"><ele>490.0</ele><time>2026-04-26T08:59:28.999Z</time></trkpt><trkpt lat="43.86783063136734" lon="11.604128261639639"><ele>490.0</ele><time>2026-04-26T08:59:29.999Z</time></trkpt><trkpt lat="43.86775585845053" lon="11.604059057755137"><ele>490.00000000000006</ele><time>2026-04-26T08:59:30.999Z</time></trkpt><trkpt lat="43.8676910067054" lon="11.603997647275648"><ele>490.0</ele><time>2026-04-26T08:59:31.999Z</time></trkpt><trkpt lat="43.86760275782382" lon="11.60390046224651"><ele>490.00000000000006</ele><time>2026-04-26T08:59:33.999Z</time></trkpt><trkpt lat="43.86761755634315" lon="11.60376439279768"><ele>490.0</ele><time>2026-04-26T08:59:35.999Z</time></trkpt><trkpt lat="43.86767345207821" lon="11.603719878232628"><ele>490.0</ele><time>2026-04-26T08:59:36.999Z</time></trkpt><trkpt lat="43.86774146350012" lon="11.603727413129704"><ele>490.0</ele><time>2026-04-26T08:59:37.999Z</time></trkpt><trkpt lat="43.86781937606563" lon="11.603769397350709"><ele>490.00000000000006</ele><time>2026-04-26T08:59:38.999Z</time></trkpt><trkpt lat="43.86791311044489" lon="11.603810343521276"><ele>490.0</ele><time>2026-04-26T08:59:39.999Z</time></trkpt><trkpt lat="43.86801401389759" lon="11.60384230335602"><ele>490.0</ele><time>2026-04-26T08:59:40.999Z</time></trkpt><trkpt lat="43.868102511581604" lon="11.603855196518403"><ele>490.0</ele><time>2026-04-26T08:59:41.999Z</time></trkpt><trkpt lat="43.868177829924804" lon="11.603856703869955"><ele>490.0</ele><time>2026-04-26T08:59:42.999Z</time></trkpt><trkpt lat="43.86825589348672" lon="11.603754165108755"><ele>490.0</ele><time>2026-04-26T08:59:43.999Z</time></trkpt><trkpt lat="43.86830854636389" lon="11.60364731852296"><ele>490.0</ele><time>2026-04-26T08:59:44.999Z</time></trkpt><trkpt lat="43.86838039710748" lon="11.60352577813492"><ele>487.25</ele><time>2026-04-26T08:59:45.999Z</time></trkpt><trkpt lat="43.86845973961834" lon="11.603413550503612"><ele>484.5</ele><time>2026-04-26T08:59:46.999Z</time></trkpt><trkpt lat="43.86855491455221" lon="11.603308456953295"><ele>481.75</ele><time>2026-04-26T08:59:47.999Z</time></trkpt><trkpt lat="43.8686632720118" lon="11.603207620645515"><ele>479.0</ele><time>2026-04-26T08:59:48.999Z</time></trkpt><trkpt lat="43.86876318546276" lon="11.60310410449914"><ele>479.0</ele><time>2026-04-26T08:59:49.999Z</time></trkpt><trkpt lat="43.868855734331156" lon="11.602989257436423"><ele>479.0</ele><time>2026-04-26T08:59:50.999Z</time></trkpt><trkpt lat="43.86892528476708" lon="11.602844782029269"><ele>479.0</ele><time>2026-04-26T08:59:51.999Z</time></trkpt><trkpt lat="43.86900428161403" lon="11.602707673331615"><ele>479.0</ele><time>2026-04-26T08:59:52.999Z</time></trkpt><trkpt lat="43.8690873327882" lon="11.602569672536623"><ele>475.4</ele><time>2026-04-26T08:59:53.999Z</time></trkpt><trkpt lat="43.8691631141077" lon="11.602445789215798"><ele>471.79999999999995</ele><time>2026-04-26T08:59:54.999Z</time></trkpt><trkpt lat="43.869225344237115" lon="11.602336626472455"><ele>468.20000000000005</ele><time>2026-04-26T08:59:55.999Z</time></trkpt><trkpt lat="43.869291837605616" lon="11.602249804871219"><ele>464.6</ele><time>2026-04-26T08:59:56.999Z</time></trkpt><trkpt lat="43.869354099117444" lon="11.60216460030925"><ele>461.0</ele><time>2026-04-26T08:59:57.999Z</time></trkpt><trkpt lat="43.86941784441084" lon="11.602122392031882"><ele>460.8</ele><time>2026-04-26T08:59:58.999Z</time></trkpt><trkpt lat="43.86948852394677" lon="11.60211633262104"><ele>460.6</ele><time>2026-04-26T08:59:59.999Z</time></trkpt><trkpt lat="43.86956947764633" lon="11.60215477297414"><ele>460.4</ele><time>2026-04-26T09:00:00.999Z</time></trkpt><trkpt lat="43.86967614114486" lon="11.602207609555645"><ele>460.2</ele><time>2026-04-26T09:00:02Z</time></trkpt><trkpt lat="43.86978891958587" lon="11.602262138094373"><ele>460.0</ele><time>2026-04-26T09:00:03Z</time></trkpt><trkpt lat="43.86988463389917" lon="11.60228500376012"><ele>460.0</ele><time>2026-04-26T09:00:04Z</time></trkpt><trkpt lat="43.86995125077063" lon="11.602309892038864"><ele>460.0</ele><time>2026-04-26T09:00:05Z</time></trkpt><trkpt lat="43.87004684502084" lon="11.602282371571105"><ele>460.0</ele><time>2026-04-26T09:00:07Z</time></trkpt><trkpt lat="43.86998683386909" lon="11.602113920077777"><ele>460.0</ele><time>2026-04-26T09:00:09Z</time></trkpt><trkpt lat="43.86991570163418" lon="11.602066471150073"><ele>460.0</ele><time>2026-04-26T09:00:10Z</time></trkpt><trkpt lat="43.86983956001044" lon="11.602032094431861"><ele>456.0</ele><time>2026-04-26T09:00:11Z</time></trkpt><trkpt lat="43.869749224230254" lon="11.60199526726646"><ele>452.0</ele><time>2026-04-26T09:00:12Z</time></trkpt><trkpt lat="43.869679390203245" lon="11.601905651116645"><ele>448.0</ele><time>2026-04-26T09:00:13Z</time></trkpt><trkpt lat="43.86964086928612" lon="11.601805521733862"><ele>444.0</ele><time>2026-04-26T09:00:14Z</time></trkpt><trkpt lat="43.86960883484553" lon="11.601667673175333"><ele>440.0</ele><time>2026-04-26T09:00:15Z</time></trkpt><trkpt lat="43.869553502811016" lon="11.601498158017858"><ele>440.0</ele><time>2026-04-26T09:00:16Z</time></trkpt><trkpt lat="43.86949818348039" lon="11.601329313029037"><ele>440.0</ele><time>2026-04-26T09:00:17Z</time></trkpt><trkpt lat="43.869442735296175" lon="11.601171074191125"><ele>440.0</ele><time>2026-04-26T09:00:18Z</time></trkpt><trkpt lat="43.86938981125089" lon="11.601021962446833"><ele>440.0</ele><time>2026-04-26T09:00:19Z</time></trkpt><trkpt lat="43.869343339575146" lon="11.600887014262762"><ele>439.0</ele><time>2026-04-26T09:00:20Z</time></trkpt><trkpt lat="43.86930691057603" lon="11.600778803804603"><ele>438.0</ele><time>2026-04-26T09:00:21Z</time></trkpt><trkpt lat="43.86928405373995" lon="11.600691468895421"><ele>437.0</ele><time>2026-04-26T09:00:22Z</time></trkpt><trkpt lat="43.86928899124999" lon="11.600595521348616"><ele>436.0</ele><time>2026-04-26T09:00:24Z</time></trkpt><trkpt lat="43.869426272540565" lon="11.600692645022033"><ele>435.0</ele><time>2026-04-26T09:00:27Z</time></trkpt><trkpt lat="43.86945455046668" lon="11.600801315510013"><ele>435.0</ele><time>2026-04-26T09:00:28Z</time></trkpt><trkpt lat="43.86949864664497" lon="11.600926464743404"><ele>435.0</ele><time>2026-04-26T09:00:29Z</time></trkpt><trkpt lat="43.8695507311216" lon="11.6010486956328"><ele>435.0</ele><time>2026-04-26T09:00:30Z</time></trkpt><trkpt lat="43.86961974298373" lon="11.60116759701935"><ele>435.0</ele><time>2026-04-26T09:00:31Z</time></trkpt><trkpt lat="43.869683589917884" lon="11.601263630476522"><ele>435.0</ele><time>2026-04-26T09:00:32Z</time></trkpt><trkpt lat="43.86972862669114" lon="11.601331282010769"><ele>435.0</ele><time>2026-04-26T09:00:33Z</time></trkpt><trkpt lat="43.8697998512129" lon="11.601385513562057"><ele>435.0</ele><time>2026-04-26T09:00:35Z</time></trkpt><trkpt lat="43.869835065601976" lon="11.60119869264046"><ele>435.0</ele><time>2026-04-26T09:00:37Z</time></trkpt><trkpt lat="43.8697807692892" lon="11.601102703078844"><ele>435.0</ele><time>2026-04-26T09:00:38Z</time></trkpt><trkpt lat="43.8697110099578" lon="11.60100250182019"><ele>435.0</ele><time>2026-04-26T09:00:39Z</time></trkpt><trkpt lat="43.86964654999482" lon="11.600880346033929"><ele>435.0</ele><time>2026-04-26T09:00:40Z</time></trkpt><trkpt lat="43.869609917798314" lon="11.600748678919517"><ele>435.0</ele><time>2026-04-26T09:00:41Z</time></trkpt><trkpt lat="43.86959733357955" lon="11.600609886500171"><ele>435.0</ele><time>2026-04-26T09:00:42Z</time></trkpt><trkpt lat="43.869593986724716" lon="11.600450837932256"><ele>435.0</ele><time>2026-04-26T09:00:43Z</time></trkpt><trkpt lat="43.869586557628544" lon="11.6002898776413"><ele>435.0</ele><time>2026-04-26T09:00:44Z</time></trkpt><trkpt lat="43.86956792714363" lon="11.600142610529808"><ele>436.3333333333333</ele><time>2026-04-26T09:00:45Z</time></trkpt><trkpt lat="43.86954338514057" lon="11.600036322568059"><ele>437.66666666666663</ele><time>2026-04-26T09:00:46Z</time></trkpt><trkpt lat="43.86950421388253" lon="11.599947343761254"><ele>439.0</ele><time>2026-04-26T09:00:47Z</time></trkpt><trkpt lat="43.86943457550655" lon="11.59990173357093"><ele>440.3333333333333</ele><time>2026-04-26T09:00:48Z</time></trkpt><trkpt lat="43.869353711968934" lon="11.599917527024521"><ele>441.66666666666663</ele><time>2026-04-26T09:00:49Z</time></trkpt><trkpt lat="43.869272305691" lon="11.599960274806778"><ele>443.0</ele><time>2026-04-26T09:00:50Z</time></trkpt><trkpt lat="43.86919878274028" lon="11.600059475265361"><ele>440.4</ele><time>2026-04-26T09:00:51Z</time></trkpt><trkpt lat="43.86913291176347" lon="11.60018311365166"><ele>437.79999999999995</ele><time>2026-04-26T09:00:52Z</time></trkpt><trkpt lat="43.869081033330666" lon="11.600323603985963"><ele>435.2</ele><time>2026-04-26T09:00:53Z</time></trkpt><trkpt lat="43.86901935357892" lon="11.60044881927154"><ele>432.6</ele><time>2026-04-26T09:00:54Z</time></trkpt><trkpt lat="43.86895842618425" lon="11.600527507363612"><ele>430.0</ele><time>2026-04-26T09:00:55Z</time></trkpt><trkpt lat="43.86888800054426" lon="11.600573634384263"><ele>430.00000000000006</ele><time>2026-04-26T09:00:56Z</time></trkpt><trkpt lat="43.868813470865526" lon="11.60053298874284"><ele>430.0</ele><time>2026-04-26T09:00:57Z</time></trkpt><trkpt lat="43.86875106635191" lon="11.600496647386304"><ele>430.0</ele><time>2026-04-26T09:00:58Z</time></trkpt><trkpt lat="43.86867864556725" lon="11.600435468397926"><ele>430.0</ele><time>2026-04-26T09:00:59Z</time></trkpt><trkpt lat="43.868585005983704" lon="11.600378703793488"><ele>430.00000000000006</ele><time>2026-04-26T09:01:00Z</time></trkpt><trkpt lat="43.86848385848963" lon="11.60032459338426"><ele>430.0</ele><time>2026-04-26T09:01:01Z</time></trkpt><trkpt lat="43.86839050340575" lon="11.600261009621038"><ele>428.2</ele><time>2026-04-26T09:01:02Z</time></trkpt><trkpt lat="43.868331674968736" lon="11.600185142244758"><ele>426.4</ele><time>2026-04-26T09:01:03Z</time></trkpt><trkpt lat="43.86829002150441" lon="11.60007473013407"><ele>424.6</ele><time>2026-04-26T09:01:04Z</time></trkpt><trkpt lat="43.868231195317264" lon="11.59996202803243"><ele>422.8</ele><time>2026-04-26T09:01:05Z</time></trkpt><trkpt lat="43.86819072113999" lon="11.59984604827658"><ele>421.0</ele><time>2026-04-26T09:01:06Z</time></trkpt><trkpt lat="43.868082384875144" lon="11.599799670539838"><ele>421.0</ele><time>2026-04-26T09:01:07Z</time></trkpt><trkpt lat="43.86797259963076" lon="11.599784519041615"><ele>421.0</ele><time>2026-04-26T09:01:08Z</time></trkpt><trkpt lat="43.86787988826871" lon="11.599735577382555"><ele>421.0</ele><time>2026-04-26T09:01:09Z</time></trkpt><trkpt lat="43.86780783673723" lon="11.599655102255904"><ele>421.0</ele><time>2026-04-26T09:01:10Z</time></trkpt><trkpt lat="43.8677340554155" lon="11.599551440545524"><ele>421.0</ele><time>2026-04-26T09:01:11Z</time></trkpt><trkpt lat="43.86765466412749" lon="11.599423341274498"><ele>422.75</ele><time>2026-04-26T09:01:12Z</time></trkpt><trkpt lat="43.86757484141746" lon="11.599282915893628"><ele>424.5</ele><time>2026-04-26T09:01:13Z</time></trkpt><trkpt lat="43.86750505086483" lon="11.599159383798703"><ele>426.25</ele><time>2026-04-26T09:01:14Z</time></trkpt><trkpt lat="43.86742821341507" lon="11.599050300991621"><ele>428.0</ele><time>2026-04-26T09:01:15Z</time></trkpt><trkpt lat="43.867346474435514" lon="11.598966803748983"><ele>428.0</ele><time>2026-04-26T09:01:16Z</time></trkpt><trkpt lat="43.86725015576858" lon="11.598903932510035"><ele>428.0</ele><time>2026-04-26T09:01:17Z</time></trkpt><trkpt lat="43.86712101237478" lon="11.598916484707745"><ele>428.0</ele><time>2026-04-26T09:01:18Z</time></trkpt><trkpt lat="43.86701408044338" lon="11.59886255234033"><ele>428.0</ele><time>2026-04-26T09:01:19Z</time></trkpt><trkpt lat="43.86691243003765" lon="11.598792083856795"><ele>428.0</ele><time>2026-04-26T09:01:20Z</time></trkpt><trkpt lat="43.86680577235062" lon="11.598693870289008"><ele>428.0</ele><time>2026-04-26T09:01:21Z</time></trkpt><trkpt lat="43.866688406007526" lon="11.598601649886833"><ele>428.0</ele><time>2026-04-26T09:01:22Z</time></trkpt><trkpt lat="43.86658527893715" lon="11.598523334329672"><ele>428.0</ele><time>2026-04-26T09:01:23Z</time></trkpt><trkpt lat="43.866479826606906" lon="11.598467424583173"><ele>430.2</ele><time>2026-04-26T09:01:24Z</time></trkpt><trkpt lat="43.86639143422121" lon="11.598390464521854"><ele>432.4</ele><time>2026-04-26T09:01:25Z</time></trkpt><trkpt lat="43.866283897296796" lon="11.598357911380704"><ele>434.59999999999997</ele><time>2026-04-26T09:01:26Z</time></trkpt><trkpt lat="43.866174064874" lon="11.598316635967938"><ele>436.79999999999995</ele><time>2026-04-26T09:01:27Z</time></trkpt><trkpt lat="43.866091217762246" lon="11.598258277279811"><ele>439.0</ele><time>2026-04-26T09:01:28Z</time></trkpt><trkpt lat="43.865993106861154" lon="11.598199906657074"><ele>434.2</ele><time>2026-04-26T09:01:29Z</time></trkpt><trkpt lat="43.865888940946384" lon="11.598164679976065"><ele>429.4</ele><time>2026-04-26T09:01:30Z</time></trkpt><trkpt lat="43.8657888329046" lon="11.59812702442407"><ele>424.6</ele><time>2026-04-26T09:01:31Z</time></trkpt><trkpt lat="43.86569196208263" lon="11.598117402011551"><ele>419.8</ele><time>2026-04-26T09:01:31.999Z</time></trkpt><trkpt lat="43.86559166271075" lon="11.5981134548767"><ele>415.0</ele><time>2026-04-26T09:01:32.999Z</time></trkpt><trkpt lat="43.86549242698262" lon="11.598147370555496"><ele>415.0</ele><time>2026-04-26T09:01:33.999Z</time></trkpt><trkpt lat="43.8653796804547" lon="11.598209825768988"><ele>415.0</ele><time>2026-04-26T09:01:34.999Z</time></trkpt><trkpt lat="43.86525229378955" lon="11.598283424385054"><ele>415.0</ele><time>2026-04-26T09:01:35.999Z</time></trkpt><trkpt lat="43.865125807892156" lon="11.598368205816527"><ele>415.0</ele><time>2026-04-26T09:01:36.999Z</time></trkpt><trkpt lat="43.864992222428064" lon="11.598436369753454"><ele>414.2</ele><time>2026-04-26T09:01:37.999Z</time></trkpt><trkpt lat="43.86487877989846" lon="11.598489620667046"><ele>413.4</ele><time>2026-04-26T09:01:38.999Z</time></trkpt><trkpt lat="43.8647889791351" lon="11.598552014592492"><ele>412.6</ele><time>2026-04-26T09:01:39.999Z</time></trkpt><trkpt lat="43.864719664920436" lon="11.59860322411213"><ele>411.8</ele><time>2026-04-26T09:01:40.999Z</time></trkpt><trkpt lat="43.86461259671894" lon="11.598575222498287"><ele>411.0</ele><time>2026-04-26T09:01:42.999Z</time></trkpt><trkpt lat="43.86458292910393" lon="11.598480858583864"><ele>411.0</ele><time>2026-04-26T09:01:43.999Z</time></trkpt><trkpt lat="43.864593093346485" lon="11.598370421229893"><ele>411.0</ele><time>2026-04-26T09:01:44.998Z</time></trkpt><trkpt lat="43.864684633785664" lon="11.598295313882288"><ele>411.0</ele><time>2026-04-26T09:01:45.998Z</time></trkpt><trkpt lat="43.86476194231943" lon="11.598183635124832"><ele>411.0</ele><time>2026-04-26T09:01:46.998Z</time></trkpt><trkpt lat="43.86484629151161" lon="11.59804228501753"><ele>411.0</ele><time>2026-04-26T09:01:47.998Z</time></trkpt><trkpt lat="43.86491192180364" lon="11.597881769604243"><ele>409.75</ele><time>2026-04-26T09:01:48.998Z</time></trkpt><trkpt lat="43.86496087138252" lon="11.597718796249241"><ele>408.5</ele><time>2026-04-26T09:01:49.998Z</time></trkpt><trkpt lat="43.864997816279896" lon="11.597564756207053"><ele>407.25</ele><time>2026-04-26T09:01:50.998Z</time></trkpt><trkpt lat="43.86503237582589" lon="11.597400239417224"><ele>406.0</ele><time>2026-04-26T09:01:51.998Z</time></trkpt><trkpt lat="43.86505770940424" lon="11.597210973917603"><ele>406.0</ele><time>2026-04-26T09:01:52.998Z</time></trkpt><trkpt lat="43.86508262103168" lon="11.597026227305413"><ele>406.0</ele><time>2026-04-26T09:01:53.998Z</time></trkpt><trkpt lat="43.86513117806921" lon="11.596863941354345"><ele>406.0</ele><time>2026-04-26T09:01:54.998Z</time></trkpt><trkpt lat="43.86518847204984" lon="11.596692046962042"><ele>406.0</ele><time>2026-04-26T09:01:55.998Z</time></trkpt><trkpt lat="43.86524238162488" lon="11.596519261954603"><ele>408.8</ele><time>2026-04-26T09:01:56.998Z</time></trkpt><trkpt lat="43.86529207330279" lon="11.59634852913515"><ele>411.6</ele><time>2026-04-26T09:01:57.998Z</time></trkpt><trkpt lat="43.86532541273531" lon="11.59618257498661"><ele>414.4</ele><time>2026-04-26T09:01:58.998Z</time></trkpt><trkpt lat="43.86534393664196" lon="11.596044871899247"><ele>417.2</ele><time>2026-04-26T09:01:59.998Z</time></trkpt><trkpt lat="43.86537458592092" lon="11.59593434254057"><ele>420.0</ele><time>2026-04-26T09:02:00.998Z</time></trkpt><trkpt lat="43.86542043027549" lon="11.595835978901652"><ele>420.0</ele><time>2026-04-26T09:02:01.998Z</time></trkpt><trkpt lat="43.86548298537479" lon="11.595745142838433"><ele>420.0</ele><time>2026-04-26T09:02:02.998Z</time></trkpt><trkpt lat="43.865570130767914" lon="11.595674245656976"><ele>420.0</ele><time>2026-04-26T09:02:03.998Z</time></trkpt><trkpt lat="43.865643447014925" lon="11.595562631426224"><ele>420.0</ele><time>2026-04-26T09:02:04.998Z</time></trkpt><trkpt lat="43.86569190667039" lon="11.595428129685914"><ele>420.0</ele><time>2026-04-26T09:02:05.998Z</time></trkpt><trkpt lat="43.86571835721512" lon="11.595274101981005"><ele>417.0</ele><time>2026-04-26T09:02:06.998Z</time></trkpt><trkpt lat="43.86571604587463" lon="11.595128108517232"><ele>414.0</ele><time>2026-04-26T09:02:08Z</time></trkpt><trkpt lat="43.865727030817574" lon="11.595033018855911"><ele>411.0</ele><time>2026-04-26T09:02:09Z</time></trkpt><trkpt lat="43.86573956887753" lon="11.594945645461355"><ele>408.0</ele><time>2026-04-26T09:02:11Z</time></trkpt><trkpt lat="43.8657518859356" lon="11.594859263643457"><ele>405.0</ele><time>2026-04-26T09:08:10.999Z</time></trkpt><trkpt lat="43.86572658911746" lon="11.594757330268635"><ele>402.0</ele><time>2026-04-26T09:08:12.999Z</time></trkpt><trkpt lat="43.86577666384711" lon="11.594616544052478"><ele>402.0</ele><time>2026-04-26T09:08:14.999Z</time></trkpt><trkpt lat="43.86578953879606" lon="11.594527478802096"><ele>402.0</ele><time>2026-04-26T09:08:15.999Z</time></trkpt><trkpt lat="43.865791319094576" lon="11.594414552857994"><ele>402.0</ele><time>2026-04-26T09:08:16.999Z</time></trkpt><trkpt lat="43.86583032194187" lon="11.594290094903146"><ele>402.0</ele><time>2026-04-26T09:08:17.999Z</time></trkpt><trkpt lat="43.865836389770884" lon="11.594153417821834"><ele>402.0</ele><time>2026-04-26T09:08:18.999Z</time></trkpt><trkpt lat="43.865840210031116" lon="11.59401733768212"><ele>402.0</ele><time>2026-04-26T09:08:19.999Z</time></trkpt><trkpt lat="43.86584401483407" lon="11.593879775907977"><ele>400.6</ele><time>2026-04-26T09:08:20.998Z</time></trkpt><trkpt lat="43.865846334566704" lon="11.593732273036398"><ele>399.20000000000005</ele><time>2026-04-26T09:08:21.998Z</time></trkpt><trkpt lat="43.86584865666408" lon="11.59358461976812"><ele>397.8</ele><time>2026-04-26T09:08:22.998Z</time></trkpt><trkpt lat="43.865852829468224" lon="11.593431412143634"><ele>396.4</ele><time>2026-04-26T09:08:23.998Z</time></trkpt><trkpt lat="43.8658604848281" lon="11.593279463867312"><ele>395.0</ele><time>2026-04-26T09:08:24.998Z</time></trkpt><trkpt lat="43.86587256463474" lon="11.593123837155526"><ele>393.6</ele><time>2026-04-26T09:08:25.999Z</time></trkpt><trkpt lat="43.86586937481222" lon="11.59298046647701"><ele>392.2</ele><time>2026-04-26T09:08:26.999Z</time></trkpt><trkpt lat="43.865894516366424" lon="11.592843653154647"><ele>390.79999999999995</ele><time>2026-04-26T09:08:27.999Z</time></trkpt><trkpt lat="43.865890077413226" lon="11.592710645866847"><ele>389.4</ele><time>2026-04-26T09:08:28.999Z</time></trkpt><trkpt lat="43.86584946300092" lon="11.592557503015897"><ele>388.0</ele><time>2026-04-26T09:08:29.999Z</time></trkpt><trkpt lat="43.86577076558413" lon="11.592441800258676"><ele>387.83333333333337</ele><time>2026-04-26T09:08:30.999Z</time></trkpt><trkpt lat="43.86572202981065" lon="11.592337274315536"><ele>387.6666666666667</ele><time>2026-04-26T09:08:31.999Z</time></trkpt><trkpt lat="43.865682671449015" lon="11.592219149392557"><ele>387.5</ele><time>2026-04-26T09:08:33Z</time></trkpt><trkpt lat="43.865676251131305" lon="11.59210923762749"><ele>387.33333333333337</ele><time>2026-04-26T09:08:34Z</time></trkpt><trkpt lat="43.865706283519295" lon="11.592006202624326"><ele>387.1666666666667</ele><time>2026-04-26T09:08:35Z</time></trkpt><trkpt lat="43.865733130651925" lon="11.59188885583641"><ele>387.0</ele><time>2026-04-26T09:08:36Z</time></trkpt><trkpt lat="43.865739549223406" lon="11.591772029147892"><ele>387.0</ele><time>2026-04-26T09:08:36.999Z</time></trkpt><trkpt lat="43.865715449751725" lon="11.591669066513319"><ele>387.0</ele><time>2026-04-26T09:08:37.999Z</time></trkpt><trkpt lat="43.865625496748535" lon="11.59161090900648"><ele>387.0</ele><time>2026-04-26T09:08:38.999Z</time></trkpt><trkpt lat="43.8655316528722" lon="11.591649180505861"><ele>387.0</ele><time>2026-04-26T09:08:39.999Z</time></trkpt><trkpt lat="43.86544188803751" lon="11.59167565226974"><ele>387.0</ele><time>2026-04-26T09:08:40.999Z</time></trkpt><trkpt lat="43.86535825521373" lon="11.591665329682147"><ele>387.0</ele><time>2026-04-26T09:08:41.999Z</time></trkpt><trkpt lat="43.86528838195663" lon="11.591662757848562"><ele>387.0</ele><time>2026-04-26T09:08:42.999Z</time></trkpt><trkpt lat="43.86518889393806" lon="11.591595446744327"><ele>387.0</ele><time>2026-04-26T09:08:44.999Z</time></trkpt><trkpt lat="43.86517574924721" lon="11.5914128188312"><ele>387.0</ele><time>2026-04-26T09:08:46.999Z</time></trkpt><trkpt lat="43.86518666426164" lon="11.591274629141031"><ele>387.0</ele><time>2026-04-26T09:08:47.999Z</time></trkpt><trkpt lat="43.86521168293984" lon="11.591123863710449"><ele>386.40000000000003</ele><time>2026-04-26T09:08:48.999Z</time></trkpt><trkpt lat="43.865235949642525" lon="11.590982766200066"><ele>385.8</ele><time>2026-04-26T09:08:49.999Z</time></trkpt><trkpt lat="43.865255433830626" lon="11.590869476247471"><ele>385.2</ele><time>2026-04-26T09:08:50.999Z</time></trkpt><trkpt lat="43.865285090822894" lon="11.590761917391857"><ele>384.6</ele><time>2026-04-26T09:08:51.999Z</time></trkpt><trkpt lat="43.865199183546814" lon="11.590646577664605"><ele>384.0</ele><time>2026-04-26T09:08:52.999Z</time></trkpt><trkpt lat="43.865159113228174" lon="11.59053732516157"><ele>378.0</ele><time>2026-04-26T09:08:54.999Z</time></trkpt><trkpt lat="43.865069437195764" lon="11.590636278114703"><ele>372.0</ele><time>2026-04-26T09:08:56.999Z</time></trkpt><trkpt lat="43.86506666656613" lon="11.590729230173567"><ele>366.0</ele><time>2026-04-26T09:08:57.999Z</time></trkpt><trkpt lat="43.865053005948106" lon="11.59083220259206"><ele>360.0</ele><time>2026-04-26T09:08:58.999Z</time></trkpt><trkpt lat="43.86502598601431" lon="11.590965334102357"><ele>354.0</ele><time>2026-04-26T09:09:00.999Z</time></trkpt><trkpt lat="43.864960968903446" lon="11.590869955596629"><ele>354.0</ele><time>2026-04-26T09:09:02.999Z</time></trkpt><trkpt lat="43.86498616463199" lon="11.590691918579834"><ele>354.0</ele><time>2026-04-26T09:09:04.999Z</time></trkpt><trkpt lat="43.86501213716478" lon="11.59054771252795"><ele>354.0</ele><time>2026-04-26T09:09:05.999Z</time></trkpt><trkpt lat="43.865022611524125" lon="11.590398390740024"><ele>354.0</ele><time>2026-04-26T09:09:06.999Z</time></trkpt><trkpt lat="43.86504307276557" lon="11.590253091834997"><ele>351.5</ele><time>2026-04-26T09:09:07.999Z</time></trkpt><trkpt lat="43.86507892124948" lon="11.590096257792396"><ele>349.0</ele><time>2026-04-26T09:09:08.999Z</time></trkpt><trkpt lat="43.865122872237656" lon="11.58993376003453"><ele>346.5</ele><time>2026-04-26T09:09:09.999Z</time></trkpt><trkpt lat="43.865166180686344" lon="11.589774415408394"><ele>344.0</ele><time>2026-04-26T09:09:10.999Z</time></trkpt><trkpt lat="43.86518903274433" lon="11.589625855218928"><ele>345.79999999999995</ele><time>2026-04-26T09:09:11.999Z</time></trkpt><trkpt lat="43.865226728619035" lon="11.589489318994447"><ele>347.59999999999997</ele><time>2026-04-26T09:09:12.999Z</time></trkpt><trkpt lat="43.86529705405006" lon="11.589386770886192"><ele>349.4</ele><time>2026-04-26T09:09:13.999Z</time></trkpt><trkpt lat="43.86536477433389" lon="11.589280190957176"><ele>351.2</ele><time>2026-04-26T09:09:14.999Z</time></trkpt><trkpt lat="43.86543635014737" lon="11.589196068579852"><ele>353.0</ele><time>2026-04-26T09:09:15.999Z</time></trkpt><trkpt lat="43.865497744318546" lon="11.58909927462514"><ele>353.0</ele><time>2026-04-26T09:09:16.999Z</time></trkpt><trkpt lat="43.86553127854714" lon="11.588984773217076"><ele>353.0</ele><time>2026-04-26T09:09:17.999Z</time></trkpt><trkpt lat="43.86553755687003" lon="11.588858632489949"><ele>353.0</ele><time>2026-04-26T09:09:18.999Z</time></trkpt><trkpt lat="43.86552615702371" lon="11.588711465810594"><ele>353.0</ele><time>2026-04-26T09:09:19.999Z</time></trkpt><trkpt lat="43.865474584342735" lon="11.588571001193722"><ele>353.0</ele><time>2026-04-26T09:09:20.999Z</time></trkpt><trkpt lat="43.86544362524676" lon="11.588454483849347"><ele>353.5</ele><time>2026-04-26T09:09:21.999Z</time></trkpt><trkpt lat="43.86542605184516" lon="11.58832655017954"><ele>354.0</ele><time>2026-04-26T09:09:22.999Z</time></trkpt><trkpt lat="43.86542811158077" lon="11.588164859913704"><ele>354.5</ele><time>2026-04-26T09:09:23.999Z</time></trkpt><trkpt lat="43.86543542423857" lon="11.587985791025666"><ele>355.0</ele><time>2026-04-26T09:09:24.999Z</time></trkpt><trkpt lat="43.865442126714264" lon="11.587821663850923"><ele>355.25</ele><time>2026-04-26T09:09:25.999Z</time></trkpt><trkpt lat="43.86544952599671" lon="11.587640473613043"><ele>355.5</ele><time>2026-04-26T09:09:26.999Z</time></trkpt><trkpt lat="43.86545569147135" lon="11.587471992977"><ele>355.75</ele><time>2026-04-26T09:09:27.999Z</time></trkpt><trkpt lat="43.865440626382075" lon="11.58730842163056"><ele>356.0</ele><time>2026-04-26T09:09:28.999Z</time></trkpt><trkpt lat="43.865434863978585" lon="11.587166205227295"><ele>356.0</ele><time>2026-04-26T09:09:29.999Z</time></trkpt><trkpt lat="43.86540999706631" lon="11.587031288171678"><ele>356.0</ele><time>2026-04-26T09:09:30.999Z</time></trkpt><trkpt lat="43.86536452127298" lon="11.586896350260117"><ele>356.0</ele><time>2026-04-26T09:09:31.999Z</time></trkpt><trkpt lat="43.86529570396454" lon="11.5867590258157"><ele>356.0</ele><time>2026-04-26T09:09:32.999Z</time></trkpt><trkpt lat="43.86525757313881" lon="11.586613029172405"><ele>356.0</ele><time>2026-04-26T09:09:33.999Z</time></trkpt><trkpt lat="43.865220389181964" lon="11.586457367694457"><ele>357.6</ele><time>2026-04-26T09:09:34.999Z</time></trkpt><trkpt lat="43.86519896608789" lon="11.586315912982077"><ele>359.20000000000005</ele><time>2026-04-26T09:09:35.999Z</time></trkpt><trkpt lat="43.865188111175186" lon="11.586173678109574"><ele>360.79999999999995</ele><time>2026-04-26T09:09:36.999Z</time></trkpt><trkpt lat="43.86517100822268" lon="11.586027502991834"><ele>362.4</ele><time>2026-04-26T09:09:37.999Z</time></trkpt><trkpt lat="43.86517022073127" lon="11.585869638876067"><ele>364.0</ele><time>2026-04-26T09:09:38.999Z</time></trkpt><trkpt lat="43.86515992668199" lon="11.585721862070137"><ele>364.0</ele><time>2026-04-26T09:09:39.999Z</time></trkpt><trkpt lat="43.865159467927185" lon="11.585583600545194"><ele>364.0</ele><time>2026-04-26T09:09:40.999Z</time></trkpt><trkpt lat="43.865198920721824" lon="11.585456452084038"><ele>364.0</ele><time>2026-04-26T09:09:41.999Z</time></trkpt><trkpt lat="43.865219646172925" lon="11.58531408601627"><ele>364.0</ele><time>2026-04-26T09:09:42.999Z</time></trkpt><trkpt lat="43.86525202535232" lon="11.585175411241126"><ele>364.0</ele><time>2026-04-26T09:09:43.999Z</time></trkpt><trkpt lat="43.86528038682872" lon="11.585039187632605"><ele>362.0</ele><time>2026-04-26T09:09:44.999Z</time></trkpt><trkpt lat="43.86531604529059" lon="11.584912815167288"><ele>360.0</ele><time>2026-04-26T09:09:45.999Z</time></trkpt><trkpt lat="43.865328327541874" lon="11.584782686606419"><ele>358.0</ele><time>2026-04-26T09:09:46.999Z</time></trkpt><trkpt lat="43.86532280768193" lon="11.584640835237012"><ele>356.0</ele><time>2026-04-26T09:09:47.999Z</time></trkpt><trkpt lat="43.865303297743694" lon="11.584501599173711"><ele>354.0</ele><time>2026-04-26T09:09:48.999Z</time></trkpt><trkpt lat="43.86528022564543" lon="11.584370130057502"><ele>351.6</ele><time>2026-04-26T09:09:49.999Z</time></trkpt><trkpt lat="43.86525161851119" lon="11.584246135344001"><ele>349.2</ele><time>2026-04-26T09:09:50.999Z</time></trkpt><trkpt lat="43.86521895885363" lon="11.58413492706344"><ele>346.8</ele><time>2026-04-26T09:09:51.999Z</time></trkpt><trkpt lat="43.86518006010603" lon="11.584013139883524"><ele>344.40000000000003</ele><time>2026-04-26T09:09:52.999Z</time></trkpt><trkpt lat="43.86515969419062" lon="11.583875733165133"><ele>342.0</ele><time>2026-04-26T09:09:53.999Z</time></trkpt><trkpt lat="43.86513467719611" lon="11.583735514006655"><ele>339.20000000000005</ele><time>2026-04-26T09:09:54.999Z</time></trkpt><trkpt lat="43.86511597761269" lon="11.583581499612166"><ele>336.4</ele><time>2026-04-26T09:09:55.999Z</time></trkpt><trkpt lat="43.865100723022245" lon="11.583430703742467"><ele>333.6</ele><time>2026-04-26T09:09:56.999Z</time></trkpt><trkpt lat="43.86508703697052" lon="11.583284146297613"><ele>330.79999999999995</ele><time>2026-04-26T09:09:57.999Z</time></trkpt><trkpt lat="43.865059395249304" lon="11.583159217093707"><ele>328.0</ele><time>2026-04-26T09:09:58.999Z</time></trkpt><trkpt lat="43.86506073057498" lon="11.583036382133573"><ele>328.0</ele><time>2026-04-26T09:09:59.999Z</time></trkpt><trkpt lat="43.865098556953114" lon="11.582937435271527"><ele>328.0</ele><time>2026-04-26T09:10:00.999Z</time></trkpt><trkpt lat="43.86514788272297" lon="11.582857106057505"><ele>328.0</ele><time>2026-04-26T09:10:01.999Z</time></trkpt><trkpt lat="43.86522007781439" lon="11.582788802981417"><ele>328.0</ele><time>2026-04-26T09:10:02.999Z</time></trkpt><trkpt lat="43.86528811451252" lon="11.582688405595237"><ele>328.0</ele><time>2026-04-26T09:10:03.999Z</time></trkpt><trkpt lat="43.86536664845054" lon="11.582604100153308"><ele>328.0</ele><time>2026-04-26T09:10:04.999Z</time></trkpt><trkpt lat="43.865443975395486" lon="11.582520661471609"><ele>324.2</ele><time>2026-04-26T09:10:05.999Z</time></trkpt><trkpt lat="43.86548543794356" lon="11.582382780813314"><ele>320.4</ele><time>2026-04-26T09:10:06.999Z</time></trkpt><trkpt lat="43.865529807294415" lon="11.582252163197616"><ele>316.59999999999997</ele><time>2026-04-26T09:10:07.999Z</time></trkpt><trkpt lat="43.86557119735546" lon="11.582110070354762"><ele>312.79999999999995</ele><time>2026-04-26T09:10:08.999Z</time></trkpt><trkpt lat="43.8656152063082" lon="11.581960266894464"><ele>309.0</ele><time>2026-04-26T09:10:09.999Z</time></trkpt><trkpt lat="43.86566449574464" lon="11.581808694296766"><ele>305.75</ele><time>2026-04-26T09:10:10.999Z</time></trkpt><trkpt lat="43.86571080591048" lon="11.581652526456013"><ele>302.5</ele><time>2026-04-26T09:10:11.999Z</time></trkpt><trkpt lat="43.8657701861475" lon="11.581506030249237"><ele>299.25</ele><time>2026-04-26T09:10:12.999Z</time></trkpt><trkpt lat="43.8658125285317" lon="11.581362782030238"><ele>296.0</ele><time>2026-04-26T09:10:13.999Z</time></trkpt><trkpt lat="43.86585060592066" lon="11.581233960193765"><ele>294.8</ele><time>2026-04-26T09:10:14.999Z</time></trkpt><trkpt lat="43.865887588472525" lon="11.581108842367142"><ele>293.6</ele><time>2026-04-26T09:10:15.999Z</time></trkpt><trkpt lat="43.86592677196373" lon="11.58097717115086"><ele>292.4</ele><time>2026-04-26T09:10:16.999Z</time></trkpt><trkpt lat="43.865995563169804" lon="11.580862819766459"><ele>291.2</ele><time>2026-04-26T09:10:17.999Z</time></trkpt><trkpt lat="43.866081273867046" lon="11.580777964935516"><ele>290.0</ele><time>2026-04-26T09:10:18.999Z</time></trkpt><trkpt lat="43.866180791284215" lon="11.580718723965855"><ele>290.0</ele><time>2026-04-26T09:10:19.999Z</time></trkpt><trkpt lat="43.86627652033389" lon="11.58069591854438"><ele>290.0</ele><time>2026-04-26T09:10:20.999Z</time></trkpt><trkpt lat="43.86635452048477" lon="11.580695916362414"><ele>290.0</ele><time>2026-04-26T09:10:21.999Z</time></trkpt><trkpt lat="43.86645163795352" lon="11.580662654843758"><ele>290.0</ele><time>2026-04-26T09:10:23.999Z</time></trkpt><trkpt lat="43.86647407777673" lon="11.580553871883339"><ele>290.0</ele><time>2026-04-26T09:10:25.999Z</time></trkpt><trkpt lat="43.86638808676561" lon="11.580450115958895"><ele>290.0</ele><time>2026-04-26T09:10:27.999Z</time></trkpt><trkpt lat="43.866309645575" lon="11.580443547616412"><ele>290.0</ele><time>2026-04-26T09:10:28.999Z</time></trkpt><trkpt lat="43.866221576626124" lon="11.580438023781584"><ele>290.0</ele><time>2026-04-26T09:10:29.999Z</time></trkpt><trkpt lat="43.86613661294486" lon="11.580400183899412"><ele>290.0</ele><time>2026-04-26T09:10:30.999Z</time></trkpt><trkpt lat="43.866057764421484" lon="11.580324268101618"><ele>290.0</ele><time>2026-04-26T09:10:32Z</time></trkpt><trkpt lat="43.865981230744005" lon="11.580263592092262"><ele>290.0</ele><time>2026-04-26T09:10:33Z</time></trkpt><trkpt lat="43.865907100052226" lon="11.580227551800027"><ele>289.0</ele><time>2026-04-26T09:10:34Z</time></trkpt><trkpt lat="43.86582804358723" lon="11.580209755524407"><ele>288.0</ele><time>2026-04-26T09:10:35Z</time></trkpt><trkpt lat="43.86574328740169" lon="11.580219960999335"><ele>287.0</ele><time>2026-04-26T09:10:36Z</time></trkpt><trkpt lat="43.865665430779146" lon="11.580258578181612"><ele>286.0</ele><time>2026-04-26T09:10:37Z</time></trkpt><trkpt lat="43.86558841111616" lon="11.580335499846878"><ele>285.0</ele><time>2026-04-26T09:10:38Z</time></trkpt><trkpt lat="43.865515305084664" lon="11.580391909866663"><ele>284.0</ele><time>2026-04-26T09:10:39Z</time></trkpt><trkpt lat="43.865428938743676" lon="11.580412597561807"><ele>284.0</ele><time>2026-04-26T09:10:40Z</time></trkpt><trkpt lat="43.86533696012877" lon="11.580399622560273"><ele>284.0</ele><time>2026-04-26T09:10:41Z</time></trkpt><trkpt lat="43.86524723802487" lon="11.580368887500429"><ele>284.0</ele><time>2026-04-26T09:10:42Z</time></trkpt><trkpt lat="43.86516034120725" lon="11.580345083012807"><ele>284.0</ele><time>2026-04-26T09:10:43Z</time></trkpt><trkpt lat="43.86507018297408" lon="11.580323945807763"><ele>284.0</ele><time>2026-04-26T09:10:44Z</time></trkpt><trkpt lat="43.8649791573059" lon="11.58029643149534"><ele>281.83333333333337</ele><time>2026-04-26T09:10:45Z</time></trkpt><trkpt lat="43.86489097932" lon="11.58025240474052"><ele>279.6666666666667</ele><time>2026-04-26T09:10:46Z</time></trkpt><trkpt lat="43.86482064929094" lon="11.580182970291721"><ele>277.5</ele><time>2026-04-26T09:10:47Z</time></trkpt><trkpt lat="43.864772324517034" lon="11.580090782182436"><ele>275.3333333333333</ele><time>2026-04-26T09:10:48Z</time></trkpt><trkpt lat="43.864741537606136" lon="11.579991573491471"><ele>273.16666666666663</ele><time>2026-04-26T09:10:49Z</time></trkpt><trkpt lat="43.86471736231429" lon="11.579888100706155"><ele>271.0</ele><time>2026-04-26T09:10:50Z</time></trkpt><trkpt lat="43.86469882246123" lon="11.579803956841554"><ele>271.0</ele><time>2026-04-26T09:10:51Z</time></trkpt><trkpt lat="43.86467418845745" lon="11.579721961937201"><ele>271.0</ele><time>2026-04-26T09:10:52Z</time></trkpt><trkpt lat="43.86464408535707" lon="11.579625573150325"><ele>271.0</ele><time>2026-04-26T09:10:53Z</time></trkpt><trkpt lat="43.864611250118315" lon="11.579490967384267"><ele>271.0</ele><time>2026-04-26T09:10:54Z</time></trkpt><trkpt lat="43.86458125956274" lon="11.57933250818767"><ele>271.0</ele><time>2026-04-26T09:10:55Z</time></trkpt><trkpt lat="43.86454577233581" lon="11.579171991848908"><ele>271.25</ele><time>2026-04-26T09:10:56Z</time></trkpt><trkpt lat="43.86450574343999" lon="11.579014301433583"><ele>271.5</ele><time>2026-04-26T09:10:57Z</time></trkpt><trkpt lat="43.86444925405416" lon="11.57885977607222"><ele>271.75</ele><time>2026-04-26T09:10:58Z</time></trkpt><trkpt lat="43.86436231548772" lon="11.578712518953093"><ele>272.0</ele><time>2026-04-26T09:10:59Z</time></trkpt><trkpt lat="43.864248443717294" lon="11.578575848286416"><ele>272.0</ele><time>2026-04-26T09:11:00Z</time></trkpt><trkpt lat="43.86412245873363" lon="11.578459576792314"><ele>272.0</ele><time>2026-04-26T09:11:01Z</time></trkpt><trkpt lat="43.864007218811544" lon="11.578356765002333"><ele>272.0</ele><time>2026-04-26T09:11:02Z</time></trkpt><trkpt lat="43.86390687097076" lon="11.578250225937479"><ele>272.0</ele><time>2026-04-26T09:11:03Z</time></trkpt><trkpt lat="43.8638244348241" lon="11.578119409788261"><ele>272.0</ele><time>2026-04-26T09:11:04Z</time></trkpt><trkpt lat="43.86376106045266" lon="11.577955322378461"><ele>272.0</ele><time>2026-04-26T09:11:05Z</time></trkpt><trkpt lat="43.86373125824942" lon="11.57776153439197"><ele>272.0</ele><time>2026-04-26T09:11:06Z</time></trkpt><trkpt lat="43.86370957988257" lon="11.577563852870508"><ele>272.0</ele><time>2026-04-26T09:11:07Z</time></trkpt><trkpt lat="43.863655696594115" lon="11.57737952249405"><ele>269.75</ele><time>2026-04-26T09:11:08Z</time></trkpt><trkpt lat="43.86358381612611" lon="11.577201988526218"><ele>267.5</ele><time>2026-04-26T09:11:09Z</time></trkpt><trkpt lat="43.863505860675595" lon="11.577040007219098"><ele>265.25</ele><time>2026-04-26T09:11:10Z</time></trkpt><trkpt lat="43.86341689201386" lon="11.576901137325493"><ele>263.0</ele><time>2026-04-26T09:11:11Z</time></trkpt><trkpt lat="43.863309211008534" lon="11.57677809388094"><ele>263.0</ele><time>2026-04-26T09:11:12Z</time></trkpt><trkpt lat="43.863180889004" lon="11.576667983994302"><ele>263.0</ele><time>2026-04-26T09:11:13Z</time></trkpt><trkpt lat="43.86305690020234" lon="11.576551098923789"><ele>263.0</ele><time>2026-04-26T09:11:14Z</time></trkpt><trkpt lat="43.86294780847428" lon="11.576418698101175"><ele>263.0</ele><time>2026-04-26T09:11:15Z</time></trkpt><trkpt lat="43.862860230465564" lon="11.576268290334788"><ele>267.33333333333337</ele><time>2026-04-26T09:11:16Z</time></trkpt><trkpt lat="43.86278918643323" lon="11.576093998960234"><ele>271.6666666666667</ele><time>2026-04-26T09:11:17Z</time></trkpt><trkpt lat="43.862737132838376" lon="11.57589452531148"><ele>276.0</ele><time>2026-04-26T09:11:18Z</time></trkpt><trkpt lat="43.86269835576118" lon="11.575690353772842"><ele>276.0</ele><time>2026-04-26T09:11:19Z</time></trkpt><trkpt lat="43.86267689518711" lon="11.575478329179731"><ele>276.0</ele><time>2026-04-26T09:11:20Z</time></trkpt><trkpt lat="43.8626717404007" lon="11.575251523579546"><ele>276.0</ele><time>2026-04-26T09:11:21Z</time></trkpt><trkpt lat="43.862636413677514" lon="11.575023684441483"><ele>280.6666666666667</ele><time>2026-04-26T09:11:22Z</time></trkpt><trkpt lat="43.862618928712806" lon="11.574788529753592"><ele>285.33333333333337</ele><time>2026-04-26T09:11:23Z</time></trkpt><trkpt lat="43.8626008890566" lon="11.574564491325477"><ele>290.0</ele><time>2026-04-26T09:11:24Z</time></trkpt><trkpt lat="43.86257704860275" lon="11.574353915016498"><ele>281.5</ele><time>2026-04-26T09:11:25Z</time></trkpt><trkpt lat="43.86253784661544" lon="11.574165412159209"><ele>273.0</ele><time>2026-04-26T09:11:25.999Z</time></trkpt><trkpt lat="43.862480269945195" lon="11.573993364340376"><ele>264.5</ele><time>2026-04-26T09:11:26.999Z</time></trkpt><trkpt lat="43.862434279284855" lon="11.57381477868051"><ele>256.0</ele><time>2026-04-26T09:11:27.999Z</time></trkpt><trkpt lat="43.86233791492124" lon="11.573682344826748"><ele>256.0</ele><time>2026-04-26T09:11:28.999Z</time></trkpt><trkpt lat="43.86225172392894" lon="11.573521359094364"><ele>256.0</ele><time>2026-04-26T09:11:29.999Z</time></trkpt><trkpt lat="43.86219222616842" lon="11.573332386299654"><ele>256.0</ele><time>2026-04-26T09:11:30.999Z</time></trkpt><trkpt lat="43.86216385807632" lon="11.573134089873806"><ele>256.0</ele><time>2026-04-26T09:11:31.999Z</time></trkpt><trkpt lat="43.862156603301656" lon="11.572925028375922"><ele>255.75</ele><time>2026-04-26T09:11:32.999Z</time></trkpt><trkpt lat="43.862154097840104" lon="11.572706309960045"><ele>255.5</ele><time>2026-04-26T09:11:33.999Z</time></trkpt><trkpt lat="43.86214614153802" lon="11.572503829841894"><ele>255.25</ele><time>2026-04-26T09:11:34.999Z</time></trkpt><trkpt lat="43.8621417852735" lon="11.572302947065946"><ele>255.0</ele><time>2026-04-26T09:11:35.999Z</time></trkpt><trkpt lat="43.862156698642615" lon="11.572112169237489"><ele>255.0</ele><time>2026-04-26T09:11:36.999Z</time></trkpt><trkpt lat="43.86218937897279" lon="11.571915572416806"><ele>255.0</ele><time>2026-04-26T09:11:37.999Z</time></trkpt><trkpt lat="43.86223559437076" lon="11.571719822977773"><ele>255.0</ele><time>2026-04-26T09:11:38.999Z</time></trkpt><trkpt lat="43.862272853209575" lon="11.571529835421318"><ele>255.0</ele><time>2026-04-26T09:11:39.999Z</time></trkpt><trkpt lat="43.862291147179064" lon="11.571350820579758"><ele>256.0</ele><time>2026-04-26T09:11:40.999Z</time></trkpt><trkpt lat="43.86227770743339" lon="11.571174824667084"><ele>257.0</ele><time>2026-04-26T09:11:41.999Z</time></trkpt><trkpt lat="43.862238301588114" lon="11.571002013881891"><ele>258.0</ele><time>2026-04-26T09:11:42.999Z</time></trkpt><trkpt lat="43.86217025269064" lon="11.570842287763112"><ele>259.0</ele><time>2026-04-26T09:11:43.999Z</time></trkpt><trkpt lat="43.86209240814726" lon="11.57069564750265"><ele>259.0</ele><time>2026-04-26T09:11:44.999Z</time></trkpt><trkpt lat="43.86201722145934" lon="11.570554078506504"><ele>259.0</ele><time>2026-04-26T09:11:45.999Z</time></trkpt><trkpt lat="43.86195370095189" lon="11.57040211648563"><ele>259.0</ele><time>2026-04-26T09:11:46.999Z</time></trkpt><trkpt lat="43.86190163936887" lon="11.570236007587917"><ele>259.0</ele><time>2026-04-26T09:11:47.999Z</time></trkpt><trkpt lat="43.86185815008284" lon="11.57006789600407"><ele>260.5</ele><time>2026-04-26T09:11:48.999Z</time></trkpt><trkpt lat="43.86181623782849" lon="11.56989523146963"><ele>262.0</ele><time>2026-04-26T09:11:49.999Z</time></trkpt><trkpt lat="43.861762620079375" lon="11.569735427060634"><ele>263.5</ele><time>2026-04-26T09:11:50.999Z</time></trkpt><trkpt lat="43.86171169684196" lon="11.569564410824233"><ele>265.0</ele><time>2026-04-26T09:11:51.999Z</time></trkpt><trkpt lat="43.86164804454069" lon="11.569404570402897"><ele>258.0</ele><time>2026-04-26T09:11:52.999Z</time></trkpt><trkpt lat="43.86158680235449" lon="11.56924667380511"><ele>251.0</ele><time>2026-04-26T09:11:53.999Z</time></trkpt><trkpt lat="43.861525049383566" lon="11.569089051955595"><ele>244.0</ele><time>2026-04-26T09:11:54.999Z</time></trkpt><trkpt lat="43.861467613671124" lon="11.568944979628784"><ele>237.0</ele><time>2026-04-26T09:11:55.999Z</time></trkpt><trkpt lat="43.86144533696957" lon="11.568784589249224"><ele>238.75</ele><time>2026-04-26T09:11:56.999Z</time></trkpt><trkpt lat="43.861432274483434" lon="11.568621007849087"><ele>240.5</ele><time>2026-04-26T09:11:57.999Z</time></trkpt><trkpt lat="43.861439174836136" lon="11.5684447338314"><ele>242.25</ele><time>2026-04-26T09:11:58.999Z</time></trkpt><trkpt lat="43.861438361515425" lon="11.568274026514239"><ele>244.0</ele><time>2026-04-26T09:11:59.999Z</time></trkpt><trkpt lat="43.86141764103581" lon="11.568113253355635"><ele>244.0</ele><time>2026-04-26T09:12:00.999Z</time></trkpt><trkpt lat="43.86138928592584" lon="11.567957463935038"><ele>244.0</ele><time>2026-04-26T09:12:01.999Z</time></trkpt><trkpt lat="43.86134302407072" lon="11.567809514812982"><ele>244.0</ele><time>2026-04-26T09:12:02.999Z</time></trkpt><trkpt lat="43.86127930637437" lon="11.5676693635529"><ele>244.0</ele><time>2026-04-26T09:12:03.999Z</time></trkpt><trkpt lat="43.86120389528775" lon="11.56753868325845"><ele>244.39999999999998</ele><time>2026-04-26T09:12:04.999Z</time></trkpt><trkpt lat="43.861132393140366" lon="11.567414625918303"><ele>244.79999999999998</ele><time>2026-04-26T09:12:05.999Z</time></trkpt><trkpt lat="43.86106608674907" lon="11.567297552454976"><ele>245.20000000000002</ele><time>2026-04-26T09:12:06.999Z</time></trkpt><trkpt lat="43.86100641909622" lon="11.56718844336379"><ele>245.60000000000002</ele><time>2026-04-26T09:12:07.999Z</time></trkpt><trkpt lat="43.860979394836804" lon="11.567077377062423"><ele>246.0</ele><time>2026-04-26T09:12:08.999Z</time></trkpt><trkpt lat="43.86095390333658" lon="11.566980326757562"><ele>244.20000000000002</ele><time>2026-04-26T09:12:09.999Z</time></trkpt><trkpt lat="43.86094676028272" lon="11.566875760079775"><ele>242.40000000000003</ele><time>2026-04-26T09:12:10.999Z</time></trkpt><trkpt lat="43.86096686755171" lon="11.56677893545868"><ele>240.6</ele><time>2026-04-26T09:12:11.999Z</time></trkpt><trkpt lat="43.86102350214169" lon="11.566692503487273"><ele>238.8</ele><time>2026-04-26T09:12:12.999Z</time></trkpt><trkpt lat="43.86107320772111" lon="11.56656310735862"><ele>237.0</ele><time>2026-04-26T09:12:13.999Z</time></trkpt><trkpt lat="43.86112125590708" lon="11.566411900028212"><ele>237.0</ele><time>2026-04-26T09:12:14.999Z</time></trkpt><trkpt lat="43.86117678042021" lon="11.566257939531155"><ele>237.0</ele><time>2026-04-26T09:12:15.999Z</time></trkpt><trkpt lat="43.86124597223886" lon="11.56610548301668"><ele>237.0</ele><time>2026-04-26T09:12:16.999Z</time></trkpt><trkpt lat="43.86132703034603" lon="11.565949682529435"><ele>237.0</ele><time>2026-04-26T09:12:17.999Z</time></trkpt><trkpt lat="43.8614247924769" lon="11.565816375157295"><ele>236.25</ele><time>2026-04-26T09:12:18.999Z</time></trkpt><trkpt lat="43.8615282681822" lon="11.565707981671924"><ele>235.5</ele><time>2026-04-26T09:12:19.999Z</time></trkpt><trkpt lat="43.86163381231104" lon="11.565613346837509"><ele>234.75</ele><time>2026-04-26T09:12:20.999Z</time></trkpt><trkpt lat="43.86173688873432" lon="11.565521450253147"><ele>234.0</ele><time>2026-04-26T09:12:21.999Z</time></trkpt><trkpt lat="43.86183843607868" lon="11.565430916968069"><ele>228.75</ele><time>2026-04-26T09:12:22.999Z</time></trkpt><trkpt lat="43.86194439860044" lon="11.565335387991949"><ele>223.5</ele><time>2026-04-26T09:12:23.999Z</time></trkpt><trkpt lat="43.862059548711386" lon="11.565230933921425"><ele>218.25</ele><time>2026-04-26T09:12:24.999Z</time></trkpt><trkpt lat="43.86217394039927" lon="11.565127167359343"><ele>213.0</ele><time>2026-04-26T09:12:25.999Z</time></trkpt><trkpt lat="43.86229038142455" lon="11.565020898976996"><ele>213.0</ele><time>2026-04-26T09:12:26.999Z</time></trkpt><trkpt lat="43.862409676125" lon="11.5649121949555"><ele>213.0</ele><time>2026-04-26T09:12:27.999Z</time></trkpt><trkpt lat="43.862532268644166" lon="11.564800485887918"><ele>213.0</ele><time>2026-04-26T09:12:28.999Z</time></trkpt><trkpt lat="43.8626580739142" lon="11.564683860126177"><ele>213.0</ele><time>2026-04-26T09:12:29.999Z</time></trkpt><trkpt lat="43.86277885660033" lon="11.56456420427548"><ele>212.5</ele><time>2026-04-26T09:12:30.999Z</time></trkpt><trkpt lat="43.862894554328236" lon="11.564444115885175"><ele>212.0</ele><time>2026-04-26T09:12:31.999Z</time></trkpt><trkpt lat="43.86299132645899" lon="11.56429237025379"><ele>211.5</ele><time>2026-04-26T09:12:32.999Z</time></trkpt><trkpt lat="43.86310217869582" lon="11.564170611315253"><ele>211.0</ele><time>2026-04-26T09:12:33.999Z</time></trkpt><trkpt lat="43.863209081193055" lon="11.564043229700504"><ele>211.0</ele><time>2026-04-26T09:12:34.999Z</time></trkpt><trkpt lat="43.863312313286634" lon="11.563910125860469"><ele>211.0</ele><time>2026-04-26T09:12:35.999Z</time></trkpt><trkpt lat="43.86343485933094" lon="11.563800877740956"><ele>211.0</ele><time>2026-04-26T09:12:37Z</time></trkpt><trkpt lat="43.863538162209615" lon="11.563659930431209"><ele>211.0</ele><time>2026-04-26T09:12:38Z</time></trkpt><trkpt lat="43.86363783590939" lon="11.563517890574099"><ele>211.5</ele><time>2026-04-26T09:12:39Z</time></trkpt><trkpt lat="43.86373664428885" lon="11.563372232428096"><ele>212.0</ele><time>2026-04-26T09:12:40Z</time></trkpt><trkpt lat="43.863834670465494" lon="11.563223642557304"><ele>212.5</ele><time>2026-04-26T09:12:41Z</time></trkpt><trkpt lat="43.86393202732127" lon="11.563070686790827"><ele>213.0</ele><time>2026-04-26T09:12:42Z</time></trkpt><trkpt lat="43.86402654044598" lon="11.562916491994976"><ele>214.0</ele><time>2026-04-26T09:12:43Z</time></trkpt><trkpt lat="43.86411826368617" lon="11.562757494037202"><ele>215.0</ele><time>2026-04-26T09:12:44Z</time></trkpt><trkpt lat="43.86420495489257" lon="11.562592014550964"><ele>216.0</ele><time>2026-04-26T09:12:45Z</time></trkpt><trkpt lat="43.8642897567507" lon="11.562423499539657"><ele>217.0</ele><time>2026-04-26T09:12:46Z</time></trkpt><trkpt lat="43.864371859399625" lon="11.562256154312"><ele>217.0</ele><time>2026-04-26T09:12:47Z</time></trkpt><trkpt lat="43.86445503093439" lon="11.56208663040867"><ele>217.0</ele><time>2026-04-26T09:12:48Z</time></trkpt><trkpt lat="43.86453776042379" lon="11.56191800752492"><ele>217.0</ele><time>2026-04-26T09:12:49Z</time></trkpt><trkpt lat="43.86462056463503" lon="11.56174831828748"><ele>217.0</ele><time>2026-04-26T09:12:50Z</time></trkpt><trkpt lat="43.864703502850595" lon="11.561577959930228"><ele>214.5</ele><time>2026-04-26T09:12:51Z</time></trkpt><trkpt lat="43.86478491666124" lon="11.561410732736448"><ele>212.0</ele><time>2026-04-26T09:12:52Z</time></trkpt><trkpt lat="43.864867298179895" lon="11.561241517848716"><ele>209.5</ele><time>2026-04-26T09:12:53Z</time></trkpt><trkpt lat="43.86494981946048" lon="11.561072015884347"><ele>207.0</ele><time>2026-04-26T09:12:54Z</time></trkpt><trkpt lat="43.86503387136518" lon="11.560899369947165"><ele>213.0</ele><time>2026-04-26T09:12:55Z</time></trkpt><trkpt lat="43.86511805239526" lon="11.560726458791907"><ele>219.0</ele><time>2026-04-26T09:12:56Z</time></trkpt><trkpt lat="43.86520462639367" lon="11.56055324821485"><ele>225.0</ele><time>2026-04-26T09:12:57Z</time></trkpt><trkpt lat="43.865293544648736" lon="11.560374584882544"><ele>221.25</ele><time>2026-04-26T09:12:58Z</time></trkpt><trkpt lat="43.86537366073094" lon="11.56019709649766"><ele>217.5</ele><time>2026-04-26T09:12:59Z</time></trkpt><trkpt lat="43.86544588378964" lon="11.560022118206641"><ele>213.75</ele><time>2026-04-26T09:13:00Z</time></trkpt><trkpt lat="43.86550700860921" lon="11.559853224283886"><ele>210.0</ele><time>2026-04-26T09:13:01Z</time></trkpt><trkpt lat="43.865558634615155" lon="11.559675087910973"><ele>209.0</ele><time>2026-04-26T09:13:02Z</time></trkpt><trkpt lat="43.86558108936635" lon="11.55948766454996"><ele>208.0</ele><time>2026-04-26T09:13:03Z</time></trkpt><trkpt lat="43.865628609418955" lon="11.559302434250629"><ele>207.0</ele><time>2026-04-26T09:13:04Z</time></trkpt><trkpt lat="43.865658583839725" lon="11.559105618423327"><ele>206.0</ele><time>2026-04-26T09:13:05Z</time></trkpt><trkpt lat="43.86568853885296" lon="11.558904018549935"><ele>206.33333333333334</ele><time>2026-04-26T09:13:06Z</time></trkpt><trkpt lat="43.8657182361008" lon="11.558696760748024"><ele>206.66666666666669</ele><time>2026-04-26T09:13:07Z</time></trkpt><trkpt lat="43.86574772254657" lon="11.558490974250343"><ele>207.0</ele><time>2026-04-26T09:13:08Z</time></trkpt><trkpt lat="43.865774476845544" lon="11.55828205108797"><ele>207.0</ele><time>2026-04-26T09:13:09Z</time></trkpt><trkpt lat="43.86578123034784" lon="11.558073275320421"><ele>207.0</ele><time>2026-04-26T09:13:10Z</time></trkpt><trkpt lat="43.86581483941902" lon="11.557873667403582"><ele>207.0</ele><time>2026-04-26T09:13:11Z</time></trkpt><trkpt lat="43.86582914124178" lon="11.557679332683295"><ele>207.0</ele><time>2026-04-26T09:13:12Z</time></trkpt><trkpt lat="43.8658399770221" lon="11.557494781808453"><ele>205.75</ele><time>2026-04-26T09:13:13Z</time></trkpt><trkpt lat="43.8658341117786" lon="11.557313738713525"><ele>204.5</ele><time>2026-04-26T09:13:14Z</time></trkpt><trkpt lat="43.86584644829545" lon="11.557133942638005"><ele>203.25</ele><time>2026-04-26T09:13:15Z</time></trkpt><trkpt lat="43.86586023431365" lon="11.556952405132963"><ele>202.0</ele><time>2026-04-26T09:13:16Z</time></trkpt><trkpt lat="43.86587453509665" lon="11.556755818372128"><ele>199.0</ele><time>2026-04-26T09:13:17Z</time></trkpt><trkpt lat="43.86588872279069" lon="11.556545355094302"><ele>196.0</ele><time>2026-04-26T09:13:18Z</time></trkpt><trkpt lat="43.86590102598295" lon="11.556320910682727"><ele>193.0</ele><time>2026-04-26T09:13:19Z</time></trkpt><trkpt lat="43.86591834391851" lon="11.556087713700483"><ele>192.33333333333331</ele><time>2026-04-26T09:13:20Z</time></trkpt><trkpt lat="43.86593733562642" lon="11.555867005354312"><ele>191.66666666666666</ele><time>2026-04-26T09:13:21Z</time></trkpt><trkpt lat="43.865948819314085" lon="11.555656700013346"><ele>191.0</ele><time>2026-04-26T09:13:22Z</time></trkpt><trkpt lat="43.86592806890861" lon="11.55545233854947"><ele>192.33333333333331</ele><time>2026-04-26T09:13:23Z</time></trkpt><trkpt lat="43.86588100543507" lon="11.55526642761075"><ele>193.66666666666666</ele><time>2026-04-26T09:13:24Z</time></trkpt><trkpt lat="43.86580796552039" lon="11.555084613152468"><ele>195.0</ele><time>2026-04-26T09:13:25Z</time></trkpt><trkpt lat="43.86574008429557" lon="11.554873753276"><ele>195.0</ele><time>2026-04-26T09:13:26Z</time></trkpt><trkpt lat="43.865635061767804" lon="11.554708718632458"><ele>195.0</ele><time>2026-04-26T09:13:27Z</time></trkpt><trkpt lat="43.865550859465635" lon="11.554561142583413"><ele>195.0</ele><time>2026-04-26T09:13:28Z</time></trkpt><trkpt lat="43.865438659267035" lon="11.554453971809643"><ele>195.0</ele><time>2026-04-26T09:13:29Z</time></trkpt><trkpt lat="43.86540964339548" lon="11.554282569587011"><ele>193.75</ele><time>2026-04-26T09:13:30Z</time></trkpt><trkpt lat="43.86541152161917" lon="11.55413057686917"><ele>192.5</ele><time>2026-04-26T09:13:31Z</time></trkpt><trkpt lat="43.86546280095597" lon="11.554002277256451"><ele>191.25</ele><time>2026-04-26T09:13:32Z</time></trkpt><trkpt lat="43.865510501984915" lon="11.553851555966263"><ele>190.0</ele><time>2026-04-26T09:13:33Z</time></trkpt><trkpt lat="43.86556713059514" lon="11.553679303748423"><ele>188.33333333333334</ele><time>2026-04-26T09:13:34Z</time></trkpt><trkpt lat="43.865634251247364" lon="11.553475415910711"><ele>186.66666666666666</ele><time>2026-04-26T09:13:35Z</time></trkpt><trkpt lat="43.86568871857691" lon="11.553253316337745"><ele>185.0</ele><time>2026-04-26T09:13:36Z</time></trkpt><trkpt lat="43.86577072691069" lon="11.553030738967065"><ele>184.66666666666666</ele><time>2026-04-26T09:13:37Z</time></trkpt><trkpt lat="43.86581833109838" lon="11.552790517636577"><ele>184.33333333333334</ele><time>2026-04-26T09:13:38Z</time></trkpt><trkpt lat="43.86587136135388" lon="11.552552552149978"><ele>184.0</ele><time>2026-04-26T09:13:39Z</time></trkpt><trkpt lat="43.86592964116224" lon="11.552307205318954"><ele>195.66666666666669</ele><time>2026-04-26T09:13:40Z</time></trkpt><trkpt lat="43.8659576552673" lon="11.552033178934195"><ele>207.33333333333334</ele><time>2026-04-26T09:13:41Z</time></trkpt><trkpt lat="43.86598123190171" lon="11.551756713381941"><ele>219.0</ele><time>2026-04-26T09:13:42Z</time></trkpt><trkpt lat="43.86600323678263" lon="11.55149867855034"><ele>219.0</ele><time>2026-04-26T09:13:43Z</time></trkpt><trkpt lat="43.866008159533855" lon="11.551249115011496"><ele>219.0</ele><time>2026-04-26T09:13:44Z</time></trkpt><trkpt lat="43.86602790259653" lon="11.551015221274172"><ele>219.0</ele><time>2026-04-26T09:13:45Z</time></trkpt><trkpt lat="43.86602914081026" lon="11.550798864001228"><ele>217.66666666666669</ele><time>2026-04-26T09:13:46Z</time></trkpt><trkpt lat="43.86600508081203" lon="11.550583199053813"><ele>216.33333333333334</ele><time>2026-04-26T09:13:47Z</time></trkpt><trkpt lat="43.86594732296712" lon="11.550364477904472"><ele>215.0</ele><time>2026-04-26T09:13:48Z</time></trkpt><trkpt lat="43.8658604786869" lon="11.550146230406334"><ele>208.66666666666669</ele><time>2026-04-26T09:13:49Z</time></trkpt><trkpt lat="43.86574551841261" lon="11.549935414278433"><ele>202.33333333333331</ele><time>2026-04-26T09:13:50Z</time></trkpt><trkpt lat="43.86563841373687" lon="11.549717271831604"><ele>196.0</ele><time>2026-04-26T09:13:51Z</time></trkpt><trkpt lat="43.865528924685066" lon="11.549531066053827"><ele>196.0</ele><time>2026-04-26T09:13:52Z</time></trkpt><trkpt lat="43.86542585079009" lon="11.549341260711246"><ele>196.0</ele><time>2026-04-26T09:13:53Z</time></trkpt><trkpt lat="43.86534138369493" lon="11.54914497989351"><ele>196.0</ele><time>2026-04-26T09:13:54Z</time></trkpt><trkpt lat="43.86525046644472" lon="11.548946793569199"><ele>196.0</ele><time>2026-04-26T09:13:55Z</time></trkpt><trkpt lat="43.86517014648444" lon="11.54872510978824"><ele>196.0</ele><time>2026-04-26T09:13:56Z</time></trkpt><trkpt lat="43.865092013872015" lon="11.548486889153995"><ele>196.0</ele><time>2026-04-26T09:13:57Z</time></trkpt><trkpt lat="43.865048224104804" lon="11.548230258925265"><ele>189.33333333333331</ele><time>2026-04-26T09:13:58Z</time></trkpt><trkpt lat="43.86501005839896" lon="11.54794496898138"><ele>182.66666666666666</ele><time>2026-04-26T09:13:59Z</time></trkpt><trkpt lat="43.86497912243274" lon="11.547656933429028"><ele>176.0</ele><time>2026-04-26T09:13:59.999Z</time></trkpt><trkpt lat="43.86494882317272" lon="11.547364919662346"><ele>176.0</ele><time>2026-04-26T09:14:00.999Z</time></trkpt><trkpt lat="43.86492066158691" lon="11.54707254696157"><ele>176.0</ele><time>2026-04-26T09:14:01.999Z</time></trkpt><trkpt lat="43.86489335055083" lon="11.546777405185773"><ele>176.0</ele><time>2026-04-26T09:14:02.999Z</time></trkpt><trkpt lat="43.86486721795733" lon="11.546480664813636"><ele>176.33333333333331</ele><time>2026-04-26T09:14:03.999Z</time></trkpt><trkpt lat="43.86484225738388" lon="11.546181247261094"><ele>176.66666666666666</ele><time>2026-04-26T09:14:04.999Z</time></trkpt><trkpt lat="43.8648205311296" lon="11.545894506839904"><ele>177.0</ele><time>2026-04-26T09:14:05.999Z</time></trkpt><trkpt lat="43.86480036531366" lon="11.545628360851527"><ele>177.66666666666666</ele><time>2026-04-26T09:14:06.999Z</time></trkpt><trkpt lat="43.86478099770629" lon="11.545375757943393"><ele>178.33333333333331</ele><time>2026-04-26T09:14:07.999Z</time></trkpt><trkpt lat="43.86474699612462" lon="11.545110815435015"><ele>179.0</ele><time>2026-04-26T09:14:08.999Z</time></trkpt><trkpt lat="43.86472367465754" lon="11.54484445619404"><ele>179.0</ele><time>2026-04-26T09:14:09.999Z</time></trkpt><trkpt lat="43.864675849597454" lon="11.544575394154105"><ele>179.0</ele><time>2026-04-26T09:14:10.999Z</time></trkpt><trkpt lat="43.864621147730205" lon="11.544302868241406"><ele>179.0</ele><time>2026-04-26T09:14:11.999Z</time></trkpt><trkpt lat="43.86458639233133" lon="11.544034785641164"><ele>180.0</ele><time>2026-04-26T09:14:12.999Z</time></trkpt><trkpt lat="43.864548002439314" lon="11.543769880013294"><ele>181.0</ele><time>2026-04-26T09:14:13.999Z</time></trkpt><trkpt lat="43.864509000502224" lon="11.543518595184075"><ele>182.0</ele><time>2026-04-26T09:14:14.999Z</time></trkpt><trkpt lat="43.864472873653455" lon="11.543276032161087"><ele>183.66666666666666</ele><time>2026-04-26T09:14:15.999Z</time></trkpt><trkpt lat="43.86443229981707" lon="11.543053432653613"><ele>185.33333333333334</ele><time>2026-04-26T09:14:16.999Z</time></trkpt><trkpt lat="43.86437501978957" lon="11.542858687646246"><ele>187.0</ele><time>2026-04-26T09:14:17.999Z</time></trkpt><trkpt lat="43.86428600341913" lon="11.542687197230299"><ele>180.33333333333334</ele><time>2026-04-26T09:14:18.999Z</time></trkpt><trkpt lat="43.8641640411847" lon="11.542561625441536"><ele>173.66666666666666</ele><time>2026-04-26T09:14:19.999Z</time></trkpt><trkpt lat="43.86402789497736" lon="11.542455903245472"><ele>167.0</ele><time>2026-04-26T09:14:20.999Z</time></trkpt><trkpt lat="43.863930009833574" lon="11.542309395218867"><ele>167.0</ele><time>2026-04-26T09:14:21.999Z</time></trkpt><trkpt lat="43.86386992031833" lon="11.542151053393594"><ele>167.0</ele><time>2026-04-26T09:14:22.999Z</time></trkpt><trkpt lat="43.86381062683203" lon="11.541982630613457"><ele>167.0</ele><time>2026-04-26T09:14:23.999Z</time></trkpt><trkpt lat="43.86383307852863" lon="11.541780857477981"><ele>167.0</ele><time>2026-04-26T09:14:24.999Z</time></trkpt><trkpt lat="43.863834869521405" lon="11.541557898629188"><ele>168.33333333333331</ele><time>2026-04-26T09:14:25.999Z</time></trkpt><trkpt lat="43.863837002050836" lon="11.541323194779915"><ele>169.66666666666666</ele><time>2026-04-26T09:14:26.999Z</time></trkpt><trkpt lat="43.86383900148654" lon="11.541103139541073"><ele>171.0</ele><time>2026-04-26T09:14:27.999Z</time></trkpt><trkpt lat="43.86384068234126" lon="11.540888701861721"><ele>171.0</ele><time>2026-04-26T09:14:28.999Z</time></trkpt><trkpt lat="43.863841732228785" lon="11.54068038983931"><ele>171.0</ele><time>2026-04-26T09:14:29.999Z</time></trkpt><trkpt lat="43.86382736496266" lon="11.540480390754805"><ele>171.0</ele><time>2026-04-26T09:14:30.999Z</time></trkpt><trkpt lat="43.863825730167335" lon="11.54027929516001"><ele>171.0</ele><time>2026-04-26T09:14:31.999Z</time></trkpt><trkpt lat="43.86380666772643" lon="11.540080225411943"><ele>170.75</ele><time>2026-04-26T09:14:32.999Z</time></trkpt><trkpt lat="43.863761858336396" lon="11.539884026134642"><ele>170.5</ele><time>2026-04-26T09:14:33.999Z</time></trkpt><trkpt lat="43.86370456745206" lon="11.539694329839582"><ele>170.25</ele><time>2026-04-26T09:14:34.999Z</time></trkpt><trkpt lat="43.86364500058069" lon="11.539502418443742"><ele>170.0</ele><time>2026-04-26T09:14:35.999Z</time></trkpt><trkpt lat="43.863576939453296" lon="11.539320028582368"><ele>170.0</ele><time>2026-04-26T09:14:36.999Z</time></trkpt><trkpt lat="43.86352256252034" lon="11.539139137260003"><ele>170.0</ele><time>2026-04-26T09:14:37.999Z</time></trkpt><trkpt lat="43.86347509747416" lon="11.538963829180357"><ele>170.0</ele><time>2026-04-26T09:14:38.999Z</time></trkpt><trkpt lat="43.863451064681584" lon="11.538784109858934"><ele>170.0</ele><time>2026-04-26T09:14:39.999Z</time></trkpt><trkpt lat="43.863458457088655" lon="11.53859422992233"><ele>169.33333333333331</ele><time>2026-04-26T09:14:40.999Z</time></trkpt><trkpt lat="43.863514257759356" lon="11.538400545793035"><ele>168.66666666666666</ele><time>2026-04-26T09:14:41.999Z</time></trkpt><trkpt lat="43.863545417009256" lon="11.538192722720373"><ele>168.0</ele><time>2026-04-26T09:14:43Z</time></trkpt><trkpt lat="43.86357475676967" lon="11.537987088809851"><ele>167.5</ele><time>2026-04-26T09:14:44Z</time></trkpt><trkpt lat="43.86360296247534" lon="11.537791514090236"><ele>167.0</ele><time>2026-04-26T09:14:45Z</time></trkpt><trkpt lat="43.86362681554515" lon="11.537607761139189"><ele>166.5</ele><time>2026-04-26T09:14:46Z</time></trkpt><trkpt lat="43.86362453233648" lon="11.537418698036767"><ele>166.0</ele><time>2026-04-26T09:14:47Z</time></trkpt><trkpt lat="43.863608265428574" lon="11.537232495394406"><ele>166.0</ele><time>2026-04-26T09:14:48Z</time></trkpt><trkpt lat="43.8635892586428" lon="11.537017238589435"><ele>166.0</ele><time>2026-04-26T09:14:49Z</time></trkpt><trkpt lat="43.863543187919674" lon="11.536769700905602"><ele>166.0</ele><time>2026-04-26T09:14:50Z</time></trkpt><trkpt lat="43.86349137248505" lon="11.536486350772348"><ele>165.33333333333334</ele><time>2026-04-26T09:14:51Z</time></trkpt><trkpt lat="43.863449125352766" lon="11.536216511545161"><ele>164.66666666666666</ele><time>2026-04-26T09:14:52Z</time></trkpt><trkpt lat="43.86340354421344" lon="11.535967918435894"><ele>164.0</ele><time>2026-04-26T09:14:53Z</time></trkpt><trkpt lat="43.86341194984489" lon="11.53572698887028"><ele>163.66666666666666</ele><time>2026-04-26T09:14:54Z</time></trkpt><trkpt lat="43.86342414284104" lon="11.535493687955455"><ele>163.33333333333334</ele><time>2026-04-26T09:14:55Z</time></trkpt><trkpt lat="43.86344447159301" lon="11.53525595515924"><ele>163.0</ele><time>2026-04-26T09:14:56Z</time></trkpt><trkpt lat="43.86345457292205" lon="11.535016783260751"><ele>163.0</ele><time>2026-04-26T09:14:57Z</time></trkpt><trkpt lat="43.86347564084146" lon="11.534786584498475"><ele>163.0</ele><time>2026-04-26T09:14:58Z</time></trkpt><trkpt lat="43.863491412243356" lon="11.534557542731214"><ele>163.0</ele><time>2026-04-26T09:14:59Z</time></trkpt><trkpt lat="43.86348808490804" lon="11.534328767819753"><ele>163.0</ele><time>2026-04-26T09:15:00Z</time></trkpt><trkpt lat="43.86346202807325" lon="11.534100584060187"><ele>163.0</ele><time>2026-04-26T09:15:01Z</time></trkpt><trkpt lat="43.86342715093163" lon="11.533876182237975"><ele>163.0</ele><time>2026-04-26T09:15:02Z</time></trkpt><trkpt lat="43.86339618302598" lon="11.533660906154388"><ele>158.25</ele><time>2026-04-26T09:15:03Z</time></trkpt><trkpt lat="43.86336572597849" lon="11.53345105642185"><ele>153.5</ele><time>2026-04-26T09:15:04Z</time></trkpt><trkpt lat="43.8633360796944" lon="11.533251106079838"><ele>148.75</ele><time>2026-04-26T09:15:05Z</time></trkpt><trkpt lat="43.86331353239443" lon="11.533059646567072"><ele>144.0</ele><time>2026-04-26T09:15:06Z</time></trkpt><trkpt lat="43.863289566228644" lon="11.532874641490048"><ele>144.0</ele><time>2026-04-26T09:15:06.999Z</time></trkpt><trkpt lat="43.86326666335866" lon="11.53269658229285"><ele>144.0</ele><time>2026-04-26T09:15:07.999Z</time></trkpt><trkpt lat="43.86324881046964" lon="11.532527746376058"><ele>144.0</ele><time>2026-04-26T09:15:08.999Z</time></trkpt><trkpt lat="43.863223262382334" lon="11.53236775953545"><ele>144.0</ele><time>2026-04-26T09:15:09.999Z</time></trkpt><trkpt lat="43.863204924569686" lon="11.532215271928097"><ele>144.0</ele><time>2026-04-26T09:15:10.999Z</time></trkpt><trkpt lat="43.86318815659561" lon="11.532080102873616"><ele>144.0</ele><time>2026-04-26T09:15:11.999Z</time></trkpt><trkpt lat="43.86317258542603" lon="11.531965858225258"><ele>144.0</ele><time>2026-04-26T09:15:12.999Z</time></trkpt><trkpt lat="43.8631487803956" lon="11.531809616022498"><ele>144.0</ele><time>2026-04-26T09:15:14.999Z</time></trkpt><trkpt lat="43.86313065328903" lon="11.531698236432586"><ele>144.0</ele><time>2026-04-26T09:15:16.999Z</time></trkpt><trkpt lat="43.86311264348656" lon="11.53153747914499"><ele>143.8</ele><time>2026-04-26T09:15:18.999Z</time></trkpt><trkpt lat="43.86309187280285" lon="11.531378851578111"><ele>143.60000000000002</ele><time>2026-04-26T09:15:20.999Z</time></trkpt><trkpt lat="43.86307396997845" lon="11.53126964803267"><ele>143.4</ele><time>2026-04-26T09:15:22.999Z</time></trkpt><trkpt lat="43.863091047187396" lon="11.531183351606709"><ele>143.20000000000002</ele><time>2026-04-26T09:15:24.999Z</time></trkpt><trkpt lat="43.86322762560687" lon="11.531129137194315"><ele>143.0</ele><time>2026-04-26T09:15:27.999Z</time></trkpt><trkpt lat="43.86332462402392" lon="11.531112606521186"><ele>142.25</ele><time>2026-04-26T09:15:28.999Z</time></trkpt><trkpt lat="43.86343483474628" lon="11.531088817024822"><ele>141.5</ele><time>2026-04-26T09:15:29.999Z</time></trkpt><trkpt lat="43.863543012799276" lon="11.531028940143981"><ele>140.75</ele><time>2026-04-26T09:15:30.999Z</time></trkpt><trkpt lat="43.86366713849835" lon="11.530999861403805"><ele>140.0</ele><time>2026-04-26T09:15:31.999Z</time></trkpt><trkpt lat="43.86378515876778" lon="11.53094814727427"><ele>140.0</ele><time>2026-04-26T09:15:32.999Z</time></trkpt><trkpt lat="43.863896949132986" lon="11.530879317313104"><ele>140.0</ele><time>2026-04-26T09:15:33.999Z</time></trkpt><trkpt lat="43.86401461579544" lon="11.530840681687321"><ele>140.0</ele><time>2026-04-26T09:15:34.999Z</time></trkpt><trkpt lat="43.86413592172329" lon="11.530827079678689"><ele>140.0</ele><time>2026-04-26T09:15:35.999Z</time></trkpt><trkpt lat="43.86426148136554" lon="11.530825570910434"><ele>140.25</ele><time>2026-04-26T09:15:36.999Z</time></trkpt><trkpt lat="43.864387276637196" lon="11.530819554113682"><ele>140.5</ele><time>2026-04-26T09:15:37.999Z</time></trkpt><trkpt lat="43.86451098481137" lon="11.53081689088325"><ele>140.75</ele><time>2026-04-26T09:15:38.999Z</time></trkpt><trkpt lat="43.86463705025314" lon="11.53081636119482"><ele>141.0</ele><time>2026-04-26T09:15:39.999Z</time></trkpt><trkpt lat="43.864757452535464" lon="11.530816314100619"><ele>141.0</ele><time>2026-04-26T09:15:40.999Z</time></trkpt><trkpt lat="43.86487051248695" lon="11.530798831325907"><ele>141.0</ele><time>2026-04-26T09:15:41.999Z</time></trkpt><trkpt lat="43.86497907001218" lon="11.530768315850764"><ele>141.0</ele><time>2026-04-26T09:15:42.999Z</time></trkpt><trkpt lat="43.86508265481624" lon="11.530718437034626"><ele>141.0</ele><time>2026-04-26T09:15:43.999Z</time></trkpt><trkpt lat="43.86519649348961" lon="11.53067636836958"><ele>141.0</ele><time>2026-04-26T09:15:44.999Z</time></trkpt><trkpt lat="43.865302789852805" lon="11.530598442436046"><ele>141.0</ele><time>2026-04-26T09:15:45.999Z</time></trkpt><trkpt lat="43.86541385989494" lon="11.530518974054965"><ele>141.0</ele><time>2026-04-26T09:15:46.999Z</time></trkpt><trkpt lat="43.86554081346479" lon="11.530445795278519"><ele>141.0</ele><time>2026-04-26T09:15:47.999Z</time></trkpt><trkpt lat="43.86568241645229" lon="11.530381235043578"><ele>140.66666666666666</ele><time>2026-04-26T09:15:48.999Z</time></trkpt><trkpt lat="43.86582721626665" lon="11.530316984683582"><ele>140.33333333333331</ele><time>2026-04-26T09:15:49.999Z</time></trkpt><trkpt lat="43.86597196849911" lon="11.530254381160775"><ele>140.0</ele><time>2026-04-26T09:15:50.999Z</time></trkpt><trkpt lat="43.86611896966621" lon="11.530191587790886"><ele>140.66666666666666</ele><time>2026-04-26T09:15:51.999Z</time></trkpt><trkpt lat="43.86626893387666" lon="11.530126735017427"><ele>141.33333333333334</ele><time>2026-04-26T09:15:52.999Z</time></trkpt><trkpt lat="43.86641926529808" lon="11.530070550316612"><ele>142.0</ele><time>2026-04-26T09:15:53.999Z</time></trkpt><trkpt lat="43.86656931589357" lon="11.530026083028694"><ele>142.0</ele><time>2026-04-26T09:15:54.999Z</time></trkpt><trkpt lat="43.866721527859916" lon="11.52999466353032"><ele>142.0</ele><time>2026-04-26T09:15:55.999Z</time></trkpt><trkpt lat="43.86687720645054" lon="11.529979495460294"><ele>142.0</ele><time>2026-04-26T09:15:56.999Z</time></trkpt><trkpt lat="43.86703116323732" lon="11.529979497305307"><ele>142.0</ele><time>2026-04-26T09:15:57.999Z</time></trkpt><trkpt lat="43.86718656041564" lon="11.529988054019208"><ele>142.0</ele><time>2026-04-26T09:15:58.999Z</time></trkpt><trkpt lat="43.86734062476184" lon="11.529999042871893"><ele>142.0</ele><time>2026-04-26T09:15:59.999Z</time></trkpt><trkpt lat="43.8674930460969" lon="11.530009914533766"><ele>143.0</ele><time>2026-04-26T09:16:00.999Z</time></trkpt><trkpt lat="43.86763981016683" lon="11.530020469639652"><ele>144.0</ele><time>2026-04-26T09:16:01.999Z</time></trkpt><trkpt lat="43.86777727120848" lon="11.530030511029375"><ele>145.0</ele><time>2026-04-26T09:16:02.999Z</time></trkpt><trkpt lat="43.867907716583325" lon="11.530042132751786"><ele>146.0</ele><time>2026-04-26T09:16:03.999Z</time></trkpt><trkpt lat="43.86802833719214" lon="11.530053385024777"><ele>146.0</ele><time>2026-04-26T09:16:04.999Z</time></trkpt><trkpt lat="43.86814713075441" lon="11.530061999083715"><ele>146.0</ele><time>2026-04-26T09:16:05.999Z</time></trkpt><trkpt lat="43.868271674505266" lon="11.53005586369633"><ele>146.0</ele><time>2026-04-26T09:16:06.999Z</time></trkpt><trkpt lat="43.86840349786622" lon="11.530031049767612"><ele>146.0</ele><time>2026-04-26T09:16:07.999Z</time></trkpt><trkpt lat="43.86854503746268" lon="11.529984850930264"><ele>148.0</ele><time>2026-04-26T09:16:08.999Z</time></trkpt><trkpt lat="43.868689085142954" lon="11.529911906776503"><ele>150.0</ele><time>2026-04-26T09:16:09.999Z</time></trkpt><trkpt lat="43.86884384094067" lon="11.52987263446712"><ele>152.0</ele><time>2026-04-26T09:16:10.999Z</time></trkpt><trkpt lat="43.86900050258373" lon="11.529815845472267"><ele>152.0</ele><time>2026-04-26T09:16:11.999Z</time></trkpt><trkpt lat="43.869153549323414" lon="11.529760646576982"><ele>152.0</ele><time>2026-04-26T09:16:12.999Z</time></trkpt><trkpt lat="43.86927763887679" lon="11.52972186163151"><ele>152.0</ele><time>2026-04-26T09:16:13.999Z</time></trkpt><trkpt lat="43.86939284283174" lon="11.529715297491993"><ele>152.0</ele><time>2026-04-26T09:16:14.999Z</time></trkpt><trkpt lat="43.86949342763645" lon="11.529774785541578"><ele>151.0</ele><time>2026-04-26T09:16:15.999Z</time></trkpt><trkpt lat="43.8695968993933" lon="11.529863002855475"><ele>150.0</ele><time>2026-04-26T09:16:16.999Z</time></trkpt><trkpt lat="43.86971339853356" lon="11.529958115105618"><ele>149.0</ele><time>2026-04-26T09:16:17.999Z</time></trkpt><trkpt lat="43.86983664304917" lon="11.530039022262319"><ele>148.0</ele><time>2026-04-26T09:16:18.999Z</time></trkpt><trkpt lat="43.86996091411456" lon="11.530134456470341"><ele>148.0</ele><time>2026-04-26T09:16:19.999Z</time></trkpt><trkpt lat="43.87010448490199" lon="11.530201424479548"><ele>148.0</ele><time>2026-04-26T09:16:20.999Z</time></trkpt><trkpt lat="43.8702572670263" lon="11.530239058636438"><ele>148.0</ele><time>2026-04-26T09:16:21.999Z</time></trkpt><trkpt lat="43.87042022760599" lon="11.530239077160147"><ele>147.33333333333334</ele><time>2026-04-26T09:16:22.999Z</time></trkpt><trkpt lat="43.87058326625339" lon="11.530197224042317"><ele>146.66666666666666</ele><time>2026-04-26T09:16:23.999Z</time></trkpt><trkpt lat="43.87075886661749" lon="11.530112327058008"><ele>146.0</ele><time>2026-04-26T09:16:24.999Z</time></trkpt><trkpt lat="43.87093560834642" lon="11.530027850097309"><ele>147.33333333333331</ele><time>2026-04-26T09:16:25.999Z</time></trkpt><trkpt lat="43.87112338501174" lon="11.529972930407586"><ele>148.66666666666666</ele><time>2026-04-26T09:16:26.999Z</time></trkpt><trkpt lat="43.871309812529844" lon="11.529901131523484"><ele>150.0</ele><time>2026-04-26T09:16:27.999Z</time></trkpt><trkpt lat="43.87148221733601" lon="11.529811020562244"><ele>150.0</ele><time>2026-04-26T09:16:28.999Z</time></trkpt><trkpt lat="43.871664709409686" lon="11.52974534004834"><ele>150.0</ele><time>2026-04-26T09:16:29.999Z</time></trkpt><trkpt lat="43.871856729265" lon="11.529692058536325"><ele>150.0</ele><time>2026-04-26T09:16:30.999Z</time></trkpt><trkpt lat="43.87204764308089" lon="11.529620257182131"><ele>149.0</ele><time>2026-04-26T09:16:31.999Z</time></trkpt><trkpt lat="43.87224375144077" lon="11.52954741123165"><ele>148.0</ele><time>2026-04-26T09:16:32.999Z</time></trkpt><trkpt lat="43.8724380999259" lon="11.529473966165725"><ele>147.0</ele><time>2026-04-26T09:16:33.999Z</time></trkpt><trkpt lat="43.872632127372285" lon="11.529403553533259"><ele>147.0</ele><time>2026-04-26T09:16:34.999Z</time></trkpt><trkpt lat="43.87282478835039" lon="11.529331939580963"><ele>147.0</ele><time>2026-04-26T09:16:35.999Z</time></trkpt><trkpt lat="43.87300845128967" lon="11.529265382062146"><ele>147.0</ele><time>2026-04-26T09:16:36.999Z</time></trkpt><trkpt lat="43.87317793145195" lon="11.529203964440633"><ele>147.0</ele><time>2026-04-26T09:16:37.999Z</time></trkpt><trkpt lat="43.87333168122788" lon="11.529160450161175"><ele>147.0</ele><time>2026-04-26T09:16:38.999Z</time></trkpt><trkpt lat="43.87347824126773" lon="11.529138791743978"><ele>147.0</ele><time>2026-04-26T09:16:39.999Z</time></trkpt><trkpt lat="43.87361960894976" lon="11.52918944891921"><ele>146.0</ele><time>2026-04-26T09:16:40.999Z</time></trkpt><trkpt lat="43.87375687520741" lon="11.529274786837696"><ele>145.0</ele><time>2026-04-26T09:16:41.999Z</time></trkpt><trkpt lat="43.873898919977584" lon="11.529381207037558"><ele>144.0</ele><time>2026-04-26T09:16:42.999Z</time></trkpt><trkpt lat="43.87404866588667" lon="11.529488542511332"><ele>146.66666666666666</ele><time>2026-04-26T09:16:43.999Z</time></trkpt><trkpt lat="43.87420162231736" lon="11.529586248327378"><ele>149.33333333333331</ele><time>2026-04-26T09:16:44.999Z</time></trkpt><trkpt lat="43.87434706776675" lon="11.529701326813182"><ele>152.0</ele><time>2026-04-26T09:16:45.999Z</time></trkpt><trkpt lat="43.87449834012943" lon="11.529793904250106"><ele>152.0</ele><time>2026-04-26T09:16:46.998Z</time></trkpt><trkpt lat="43.874662494359725" lon="11.52985405081464"><ele>152.0</ele><time>2026-04-26T09:16:47.998Z</time></trkpt><trkpt lat="43.87482798993002" lon="11.529913821321845"><ele>152.0</ele><time>2026-04-26T09:16:48.999Z</time></trkpt><trkpt lat="43.874997936227004" lon="11.529958527779723"><ele>152.0</ele><time>2026-04-26T09:16:49.999Z</time></trkpt><trkpt lat="43.87517196147387" lon="11.529984581365655"><ele>152.0</ele><time>2026-04-26T09:16:50.999Z</time></trkpt><trkpt lat="43.87534714778811" lon="11.529981258277749"><ele>152.0</ele><time>2026-04-26T09:16:51.999Z</time></trkpt><trkpt lat="43.875529462508474" lon="11.529941899327994"><ele>152.0</ele><time>2026-04-26T09:16:52.999Z</time></trkpt><trkpt lat="43.87572849323778" lon="11.529906906974102"><ele>152.0</ele><time>2026-04-26T09:16:53.999Z</time></trkpt><trkpt lat="43.8759289593326" lon="11.529840356293588"><ele>152.0</ele><time>2026-04-26T09:16:54.999Z</time></trkpt><trkpt lat="43.876133551250625" lon="11.529773193723193"><ele>154.0</ele><time>2026-04-26T09:16:56Z</time></trkpt><trkpt lat="43.87632904748895" lon="11.529708717456632"><ele>156.0</ele><time>2026-04-26T09:16:57Z</time></trkpt><trkpt lat="43.876525355160844" lon="11.529646167177145"><ele>158.0</ele><time>2026-04-26T09:16:58Z</time></trkpt><trkpt lat="43.876721328005104" lon="11.529583392980726"><ele>155.33333333333331</ele><time>2026-04-26T09:16:59Z</time></trkpt><trkpt lat="43.87692287998129" lon="11.529549205810568"><ele>152.66666666666666</ele><time>2026-04-26T09:17:00Z</time></trkpt><trkpt lat="43.87712570027318" lon="11.529519630389478"><ele>150.0</ele><time>2026-04-26T09:17:01Z</time></trkpt><trkpt lat="43.877322845260466" lon="11.529490882527098"><ele>150.0</ele><time>2026-04-26T09:17:02Z</time></trkpt><trkpt lat="43.8775205906386" lon="11.529462047126987"><ele>150.0</ele><time>2026-04-26T09:17:03Z</time></trkpt><trkpt lat="43.87771102798363" lon="11.529434277379208"><ele>150.0</ele><time>2026-04-26T09:17:04Z</time></trkpt><trkpt lat="43.877888746478106" lon="11.52940824420152"><ele>150.75</ele><time>2026-04-26T09:17:05Z</time></trkpt><trkpt lat="43.878039558410954" lon="11.529388075544748"><ele>151.5</ele><time>2026-04-26T09:17:06Z</time></trkpt><trkpt lat="43.878185124922005" lon="11.529366300360925"><ele>152.25</ele><time>2026-04-26T09:17:07Z</time></trkpt><trkpt lat="43.87833050521655" lon="11.529409608637046"><ele>153.0</ele><time>2026-04-26T09:17:08Z</time></trkpt><trkpt lat="43.87847674176847" lon="11.52947862009729"><ele>153.25</ele><time>2026-04-26T09:17:09Z</time></trkpt><trkpt lat="43.878615641686" lon="11.529535165986307"><ele>153.5</ele><time>2026-04-26T09:17:10Z</time></trkpt><trkpt lat="43.87875499671115" lon="11.529542213465877"><ele>153.75</ele><time>2026-04-26T09:17:11Z</time></trkpt><trkpt lat="43.87890073409667" lon="11.529494899320758"><ele>154.0</ele><time>2026-04-26T09:17:12Z</time></trkpt><trkpt lat="43.87904931541031" lon="11.529407511002843"><ele>154.0</ele><time>2026-04-26T09:17:13Z</time></trkpt><trkpt lat="43.8791997222893" lon="11.529346477881159"><ele>154.0</ele><time>2026-04-26T09:17:14Z</time></trkpt><trkpt lat="43.87933503336522" lon="11.529271971477977"><ele>154.0</ele><time>2026-04-26T09:17:15Z</time></trkpt><trkpt lat="43.879458111217566" lon="11.529228370154547"><ele>154.0</ele><time>2026-04-26T09:17:16Z</time></trkpt><trkpt lat="43.87958411504878" lon="11.52922906040773"><ele>154.33333333333334</ele><time>2026-04-26T09:17:17Z</time></trkpt><trkpt lat="43.87971821463525" lon="11.529281157575067"><ele>154.66666666666666</ele><time>2026-04-26T09:17:17.999Z</time></trkpt><trkpt lat="43.879858580915766" lon="11.529362811796997"><ele>155.0</ele><time>2026-04-26T09:17:18.999Z</time></trkpt><trkpt lat="43.88000672371244" lon="11.5294427339904"><ele>155.33333333333331</ele><time>2026-04-26T09:17:19.999Z</time></trkpt><trkpt lat="43.88015289158279" lon="11.529528858687486"><ele>155.66666666666666</ele><time>2026-04-26T09:17:20.999Z</time></trkpt><trkpt lat="43.880305667955184" lon="11.529588307971698"><ele>156.0</ele><time>2026-04-26T09:17:21.999Z</time></trkpt><trkpt lat="43.88045901749679" lon="11.529619466556403"><ele>161.33333333333334</ele><time>2026-04-26T09:17:22.999Z</time></trkpt><trkpt lat="43.880618711763155" lon="11.529617492477028"><ele>166.66666666666669</ele><time>2026-04-26T09:17:23.999Z</time></trkpt><trkpt lat="43.88077973931214" lon="11.529599257097843"><ele>172.0</ele><time>2026-04-26T09:17:24.999Z</time></trkpt><trkpt lat="43.88094901825304" lon="11.529603509430437"><ele>167.66666666666669</ele><time>2026-04-26T09:17:25.999Z</time></trkpt><trkpt lat="43.88111345052952" lon="11.5295381857421"><ele>163.33333333333334</ele><time>2026-04-26T09:17:26.999Z</time></trkpt><trkpt lat="43.88127942490505" lon="11.529465225187202"><ele>159.0</ele><time>2026-04-26T09:17:27.999Z</time></trkpt><trkpt lat="43.88144885880735" lon="11.52940507304856"><ele>159.0</ele><time>2026-04-26T09:17:28.999Z</time></trkpt><trkpt lat="43.88161298017155" lon="11.529328680903955"><ele>159.0</ele><time>2026-04-26T09:17:29.999Z</time></trkpt><trkpt lat="43.88177349721746" lon="11.529247619278424"><ele>159.0</ele><time>2026-04-26T09:17:30.999Z</time></trkpt><trkpt lat="43.881926051766484" lon="11.52916868153791"><ele>160.66666666666666</ele><time>2026-04-26T09:17:31.999Z</time></trkpt><trkpt lat="43.882071718935755" lon="11.529093094110491"><ele>162.33333333333331</ele><time>2026-04-26T09:17:32.999Z</time></trkpt><trkpt lat="43.882213129807774" lon="11.529016979793058"><ele>164.0</ele><time>2026-04-26T09:17:33.999Z</time></trkpt><trkpt lat="43.882351104480406" lon="11.528943777525022"><ele>164.0</ele><time>2026-04-26T09:17:34.999Z</time></trkpt><trkpt lat="43.8824863855014" lon="11.528872004416378"><ele>164.0</ele><time>2026-04-26T09:17:35.999Z</time></trkpt><trkpt lat="43.88261672681788" lon="11.52880194138187"><ele>164.0</ele><time>2026-04-26T09:17:36.999Z</time></trkpt><trkpt lat="43.882738009266184" lon="11.52870560101177"><ele>164.0</ele><time>2026-04-26T09:17:37.999Z</time></trkpt><trkpt lat="43.8828571821074" lon="11.528621908133982"><ele>162.75</ele><time>2026-04-26T09:17:38.999Z</time></trkpt><trkpt lat="43.88297843497505" lon="11.528558742405094"><ele>161.5</ele><time>2026-04-26T09:17:39.999Z</time></trkpt><trkpt lat="43.88308311745476" lon="11.528469855770448"><ele>160.25</ele><time>2026-04-26T09:17:40.999Z</time></trkpt><trkpt lat="43.88318174701033" lon="11.528370318045784"><ele>159.0</ele><time>2026-04-26T09:17:41.999Z</time></trkpt><trkpt lat="43.88326906050067" lon="11.528254495161653"><ele>159.0</ele><time>2026-04-26T09:17:42.999Z</time></trkpt><trkpt lat="43.883336152308374" lon="11.528116740253417"><ele>159.0</ele><time>2026-04-26T09:17:43.999Z</time></trkpt><trkpt lat="43.88341753937756" lon="11.527989452162828"><ele>159.0</ele><time>2026-04-26T09:17:44.999Z</time></trkpt><trkpt lat="43.88350096027505" lon="11.527849676176986"><ele>159.0</ele><time>2026-04-26T09:17:45.999Z</time></trkpt><trkpt lat="43.883590167069244" lon="11.527704883340267"><ele>159.75</ele><time>2026-04-26T09:17:46.999Z</time></trkpt><trkpt lat="43.883684047106286" lon="11.527552536541283"><ele>160.5</ele><time>2026-04-26T09:17:47.999Z</time></trkpt><trkpt lat="43.88378168019433" lon="11.527400266330057"><ele>161.25</ele><time>2026-04-26T09:17:48.999Z</time></trkpt><trkpt lat="43.8838815560885" lon="11.527253052528158"><ele>162.0</ele><time>2026-04-26T09:17:49.999Z</time></trkpt><trkpt lat="43.884000649963305" lon="11.52712015173096"><ele>161.66666666666666</ele><time>2026-04-26T09:17:50.999Z</time></trkpt><trkpt lat="43.88411147036061" lon="11.526966419714423"><ele>161.33333333333331</ele><time>2026-04-26T09:17:51.999Z</time></trkpt><trkpt lat="43.88424518693035" lon="11.526850137210952"><ele>161.0</ele><time>2026-04-26T09:17:52.999Z</time></trkpt><trkpt lat="43.88437777890953" lon="11.526731812666435"><ele>161.0</ele><time>2026-04-26T09:17:53.999Z</time></trkpt><trkpt lat="43.88452736744968" lon="11.526627729908864"><ele>161.0</ele><time>2026-04-26T09:17:54.999Z</time></trkpt><trkpt lat="43.88469700898766" lon="11.526528076973259"><ele>161.0</ele><time>2026-04-26T09:17:55.999Z</time></trkpt><trkpt lat="43.88490369111429" lon="11.526425837179774"><ele>165.0</ele><time>2026-04-26T09:17:56.999Z</time></trkpt><trkpt lat="43.88512385821037" lon="11.526331696008336"><ele>169.0</ele><time>2026-04-26T09:17:57.999Z</time></trkpt><trkpt lat="43.88534127922544" lon="11.526245804893849"><ele>163.0</ele><time>2026-04-26T09:17:58.999Z</time></trkpt><trkpt lat="43.8855544142135" lon="11.526161624990136"><ele>157.0</ele><time>2026-04-26T09:18:00.999Z</time></trkpt><trkpt lat="43.88572247571922" lon="11.526095247327682"><ele>151.0</ele><time>2026-04-26T09:18:01.999Z</time></trkpt><trkpt lat="43.88588972054109" lon="11.526029193237227"><ele>153.66666666666669</ele><time>2026-04-26T09:18:02.999Z</time></trkpt><trkpt lat="43.8860531963205" lon="11.525964640201236"><ele>156.33333333333334</ele><time>2026-04-26T09:18:03.999Z</time></trkpt><trkpt lat="43.886209609749905" lon="11.525902875921535"><ele>159.0</ele><time>2026-04-26T09:18:04.999Z</time></trkpt><trkpt lat="43.886371610271574" lon="11.525841490979177"><ele>159.0</ele><time>2026-04-26T09:18:05.999Z</time></trkpt><trkpt lat="43.88653334169317" lon="11.525781695462898"><ele>159.0</ele><time>2026-04-26T09:18:06.999Z</time></trkpt><trkpt lat="43.886673424160115" lon="11.525736796253726"><ele>159.0</ele><time>2026-04-26T09:18:07.999Z</time></trkpt><trkpt lat="43.886800101658665" lon="11.525695959646892"><ele>159.0</ele><time>2026-04-26T09:18:08.999Z</time></trkpt><trkpt lat="43.886928953994804" lon="11.525655636913557"><ele>158.75</ele><time>2026-04-26T09:18:09.999Z</time></trkpt><trkpt lat="43.887051568746145" lon="11.525628978474453"><ele>158.5</ele><time>2026-04-26T09:18:10.999Z</time></trkpt><trkpt lat="43.88717783803983" lon="11.52560636249055"><ele>158.25</ele><time>2026-04-26T09:18:11.999Z</time></trkpt><trkpt lat="43.88730150392615" lon="11.525560545299049"><ele>158.0</ele><time>2026-04-26T09:18:12.999Z</time></trkpt><trkpt lat="43.887422630866475" lon="11.52555096775482"><ele>158.0</ele><time>2026-04-26T09:18:13.999Z</time></trkpt><trkpt lat="43.88753855101869" lon="11.525521145173615"><ele>158.0</ele><time>2026-04-26T09:18:14.999Z</time></trkpt><trkpt lat="43.88765466961714" lon="11.525494414775922"><ele>158.0</ele><time>2026-04-26T09:18:15.999Z</time></trkpt><trkpt lat="43.887772197274" lon="11.525468459480312"><ele>158.0</ele><time>2026-04-26T09:18:16.999Z</time></trkpt><trkpt lat="43.887892681111566" lon="11.525452889042349"><ele>157.75</ele><time>2026-04-26T09:18:17.999Z</time></trkpt><trkpt lat="43.888004047978946" lon="11.525421266362057"><ele>157.5</ele><time>2026-04-26T09:18:18.999Z</time></trkpt><trkpt lat="43.88811102977638" lon="11.525387666628507"><ele>157.25</ele><time>2026-04-26T09:18:19.999Z</time></trkpt><trkpt lat="43.888223267214784" lon="11.525344659057996"><ele>157.0</ele><time>2026-04-26T09:18:20.999Z</time></trkpt><trkpt lat="43.88832506964779" lon="11.525272535315136"><ele>155.75</ele><time>2026-04-26T09:18:21.999Z</time></trkpt><trkpt lat="43.888437770266826" lon="11.525206038668088"><ele>154.5</ele><time>2026-04-26T09:18:22.999Z</time></trkpt><trkpt lat="43.88855469117843" lon="11.525145042924072"><ele>153.25</ele><time>2026-04-26T09:18:23.999Z</time></trkpt><trkpt lat="43.88867755037919" lon="11.525074833022074"><ele>152.0</ele><time>2026-04-26T09:18:24.999Z</time></trkpt><trkpt lat="43.88880598634896" lon="11.525009782150436"><ele>152.0</ele><time>2026-04-26T09:18:25.999Z</time></trkpt><trkpt lat="43.88893822519165" lon="11.524973438832982"><ele>152.0</ele><time>2026-04-26T09:18:26.999Z</time></trkpt><trkpt lat="43.88905992360725" lon="11.524889494015165"><ele>152.0</ele><time>2026-04-26T09:18:27.999Z</time></trkpt><trkpt lat="43.88916489923314" lon="11.524782210047565"><ele>152.0</ele><time>2026-04-26T09:18:28.999Z</time></trkpt><trkpt lat="43.88927035732036" lon="11.52468513534205"><ele>152.5</ele><time>2026-04-26T09:18:29.999Z</time></trkpt><trkpt lat="43.8893802855922" lon="11.52461094862175"><ele>153.0</ele><time>2026-04-26T09:18:30.999Z</time></trkpt><trkpt lat="43.88947796274664" lon="11.52452279532156"><ele>153.5</ele><time>2026-04-26T09:18:31.999Z</time></trkpt><trkpt lat="43.88957465063934" lon="11.52443555229991"><ele>154.0</ele><time>2026-04-26T09:18:32.999Z</time></trkpt><trkpt lat="43.889658783487356" lon="11.52433880090907"><ele>154.0</ele><time>2026-04-26T09:18:33.999Z</time></trkpt><trkpt lat="43.889773115170534" lon="11.524311947587305"><ele>154.0</ele><time>2026-04-26T09:18:34.999Z</time></trkpt><trkpt lat="43.889901159613316" lon="11.524332447644971"><ele>154.0</ele><time>2026-04-26T09:18:35.999Z</time></trkpt><trkpt lat="43.89006401824166" lon="11.524402486158992"><ele>154.0</ele><time>2026-04-26T09:18:36.999Z</time></trkpt><trkpt lat="43.89022159470687" lon="11.524453784369959"><ele>155.0</ele><time>2026-04-26T09:18:37.999Z</time></trkpt><trkpt lat="43.890360273299734" lon="11.524492603189772"><ele>156.0</ele><time>2026-04-26T09:18:39.999Z</time></trkpt><trkpt lat="43.89047027409272" lon="11.524532892743862"><ele>157.0</ele><time>2026-04-26T09:18:40.999Z</time></trkpt><trkpt lat="43.89057552863223" lon="11.524570747326159"><ele>158.0</ele><time>2026-04-26T09:18:41.999Z</time></trkpt><trkpt lat="43.89067205598245" lon="11.524613430357343"><ele>158.0</ele><time>2026-04-26T09:18:42.999Z</time></trkpt><trkpt lat="43.890757900493476" lon="11.524647262285486"><ele>158.0</ele><time>2026-04-26T09:18:43.999Z</time></trkpt><trkpt lat="43.890834923092676" lon="11.524671669883668"><ele>158.0</ele><time>2026-04-26T09:18:44.999Z</time></trkpt><trkpt lat="43.890902503114035" lon="11.524696722660185"><ele>158.0</ele><time>2026-04-26T09:18:45.999Z</time></trkpt><trkpt lat="43.890968858044985" lon="11.524709285245708"><ele>158.0</ele><time>2026-04-26T09:18:46.999Z</time></trkpt><trkpt lat="43.89107763075976" lon="11.524673484831741"><ele>158.0</ele><time>2026-04-26T09:18:48.999Z</time></trkpt><trkpt lat="43.89112002273248" lon="11.524527830409175"><ele>159.0</ele><time>2026-04-26T09:18:50.999Z</time></trkpt><trkpt lat="43.89110611825267" lon="11.52443925099019"><ele>160.0</ele><time>2026-04-26T09:18:51.999Z</time></trkpt><trkpt lat="43.89109384136454" lon="11.524335807078058"><ele>161.0</ele><time>2026-04-26T09:18:52.999Z</time></trkpt><trkpt lat="43.8910710180117" lon="11.524228931719607"><ele>162.0</ele><time>2026-04-26T09:18:53.999Z</time></trkpt><trkpt lat="43.8910534282853" lon="11.524109278450085"><ele>163.0</ele><time>2026-04-26T09:18:55Z</time></trkpt><trkpt lat="43.891043055752604" lon="11.524002932669148"><ele>164.0</ele><time>2026-04-26T09:18:56Z</time></trkpt><trkpt lat="43.89102718624626" lon="11.523899870751375"><ele>164.0</ele><time>2026-04-26T09:18:57Z</time></trkpt><trkpt lat="43.891014799355474" lon="11.52380905636621"><ele>164.0</ele><time>2026-04-26T09:18:58Z</time></trkpt><trkpt lat="43.89099970860527" lon="11.523657695622708"><ele>164.0</ele><time>2026-04-26T09:19:00Z</time></trkpt><trkpt lat="43.890980292719455" lon="11.523515420921937"><ele>164.0</ele><time>2026-04-26T09:19:02Z</time></trkpt><trkpt lat="43.89097140560642" lon="11.523401289629192"><ele>164.0</ele><time>2026-04-26T09:19:04Z</time></trkpt><trkpt lat="43.890980300776945" lon="11.523307560707304"><ele>164.0</ele><time>2026-04-26T09:19:06Z</time></trkpt><trkpt lat="43.89097757032807" lon="11.523217090111885"><ele>163.85714285714283</ele><time>2026-04-26T09:19:11Z</time></trkpt><trkpt lat="43.89097281166739" lon="11.523078230297589"><ele>163.71428571428572</ele><time>2026-04-26T09:19:13Z</time></trkpt><trkpt lat="43.89096613185155" lon="11.522986226685813"><ele>163.57142857142856</ele><time>2026-04-26T09:19:14Z</time></trkpt><trkpt lat="43.8909762342061" lon="11.522889881440994"><ele>163.42857142857142</ele><time>2026-04-26T09:19:15Z</time></trkpt><trkpt lat="43.89097781549993" lon="11.522789335120018"><ele>163.28571428571428</ele><time>2026-04-26T09:19:16Z</time></trkpt><trkpt lat="43.890987900307394" lon="11.522698134752263"><ele>163.14285714285714</ele><time>2026-04-26T09:19:17Z</time></trkpt><trkpt lat="43.89099934986194" lon="11.522611243233351"><ele>163.0</ele><time>2026-04-26T09:19:18Z</time></trkpt><trkpt lat="43.8910458893838" lon="11.522535810269467"><ele>162.83333333333334</ele><time>2026-04-26T09:19:19Z</time></trkpt><trkpt lat="43.89107363226352" lon="11.522440114325644"><ele>162.66666666666669</ele><time>2026-04-26T09:19:20Z</time></trkpt><trkpt lat="43.89110681931249" lon="11.522341213204301"><ele>162.5</ele><time>2026-04-26T09:19:21Z</time></trkpt><trkpt lat="43.891143982518024" lon="11.522237361524589"><ele>162.33333333333334</ele><time>2026-04-26T09:19:22Z</time></trkpt><trkpt lat="43.89117715162559" lon="11.522113650925293"><ele>162.16666666666666</ele><time>2026-04-26T09:19:23Z</time></trkpt><trkpt lat="43.8912465230985" lon="11.521997741390752"><ele>162.0</ele><time>2026-04-26T09:19:24Z</time></trkpt><trkpt lat="43.89133125107437" lon="11.521880441966658"><ele>161.75</ele><time>2026-04-26T09:19:25Z</time></trkpt><trkpt lat="43.89141981968097" lon="11.521770740297478"><ele>161.5</ele><time>2026-04-26T09:19:26Z</time></trkpt><trkpt lat="43.89152757389208" lon="11.521661069734357"><ele>161.25</ele><time>2026-04-26T09:19:27Z</time></trkpt><trkpt lat="43.89164535542255" lon="11.521548698274211"><ele>161.0</ele><time>2026-04-26T09:19:28Z</time></trkpt><trkpt lat="43.891755319892724" lon="11.521449476677443"><ele>161.0</ele><time>2026-04-26T09:19:29Z</time></trkpt><trkpt lat="43.89187356407516" lon="11.5213427841891"><ele>161.0</ele><time>2026-04-26T09:19:30Z</time></trkpt><trkpt lat="43.89200224225583" lon="11.521227202554845"><ele>161.0</ele><time>2026-04-26T09:19:31Z</time></trkpt><trkpt lat="43.89212916393643" lon="11.52111125004799"><ele>161.0</ele><time>2026-04-26T09:19:32Z</time></trkpt><trkpt lat="43.8922584203006" lon="11.520996796628443"><ele>161.0</ele><time>2026-04-26T09:19:33Z</time></trkpt><trkpt lat="43.892392991791716" lon="11.520882941295628"><ele>161.0</ele><time>2026-04-26T09:19:34Z</time></trkpt><trkpt lat="43.892524859190466" lon="11.520773144664252"><ele>161.0</ele><time>2026-04-26T09:19:35Z</time></trkpt><trkpt lat="43.8926581452572" lon="11.520669490917369"><ele>161.33333333333331</ele><time>2026-04-26T09:19:36Z</time></trkpt><trkpt lat="43.892796647490066" lon="11.520568152970947"><ele>161.66666666666666</ele><time>2026-04-26T09:19:37Z</time></trkpt><trkpt lat="43.8929343086841" lon="11.520471243235823"><ele>162.0</ele><time>2026-04-26T09:19:38Z</time></trkpt><trkpt lat="43.89306823941148" lon="11.520383235050991"><ele>161.5</ele><time>2026-04-26T09:19:39Z</time></trkpt><trkpt lat="43.893200330590524" lon="11.520308559756174"><ele>161.0</ele><time>2026-04-26T09:19:40Z</time></trkpt><trkpt lat="43.89332874658211" lon="11.520233896482589"><ele>160.5</ele><time>2026-04-26T09:19:41Z</time></trkpt><trkpt lat="43.893446781285476" lon="11.520165269068473"><ele>160.0</ele><time>2026-04-26T09:19:42Z</time></trkpt><trkpt lat="43.89355354878646" lon="11.520103192600224"><ele>160.0</ele><time>2026-04-26T09:19:43Z</time></trkpt><trkpt lat="43.89364659796018" lon="11.520017162604582"><ele>160.0</ele><time>2026-04-26T09:19:44Z</time></trkpt><trkpt lat="43.89374877600365" lon="11.519955184139144"><ele>160.0</ele><time>2026-04-26T09:19:45Z</time></trkpt><trkpt lat="43.89385729803145" lon="11.519892620169514"><ele>160.0</ele><time>2026-04-26T09:19:46Z</time></trkpt><trkpt lat="43.89396877804956" lon="11.519823712984302"><ele>160.0</ele><time>2026-04-26T09:19:47Z</time></trkpt><trkpt lat="43.89409224718434" lon="11.519783973464367"><ele>160.0</ele><time>2026-04-26T09:19:48Z</time></trkpt><trkpt lat="43.89420860029936" lon="11.51971306660809"><ele>160.0</ele><time>2026-04-26T09:19:49Z</time></trkpt><trkpt lat="43.894326528070536" lon="11.519640428776219"><ele>160.0</ele><time>2026-04-26T09:19:50Z</time></trkpt><trkpt lat="43.89444622310979" lon="11.519565066938304"><ele>159.5</ele><time>2026-04-26T09:19:51Z</time></trkpt><trkpt lat="43.89457032683213" lon="11.519486281545808"><ele>159.0</ele><time>2026-04-26T09:19:52Z</time></trkpt><trkpt lat="43.894695525939696" lon="11.519402023240156"><ele>158.5</ele><time>2026-04-26T09:19:53Z</time></trkpt><trkpt lat="43.89482345836189" lon="11.519313300247573"><ele>158.0</ele><time>2026-04-26T09:19:54Z</time></trkpt><trkpt lat="43.89495176506576" lon="11.51922225987749"><ele>158.0</ele><time>2026-04-26T09:19:55Z</time></trkpt><trkpt lat="43.895079636070854" lon="11.51913005890504"><ele>158.0</ele><time>2026-04-26T09:19:56Z</time></trkpt><trkpt lat="43.895208348114" lon="11.519036938390864"><ele>158.0</ele><time>2026-04-26T09:19:57Z</time></trkpt><trkpt lat="43.8953358897659" lon="11.518938642044011"><ele>158.0</ele><time>2026-04-26T09:19:58Z</time></trkpt><trkpt lat="43.895464165557314" lon="11.518834881183002"><ele>157.66666666666666</ele><time>2026-04-26T09:19:59Z</time></trkpt><trkpt lat="43.8955794454125" lon="11.518689945402365"><ele>157.33333333333334</ele><time>2026-04-26T09:20:00Z</time></trkpt><trkpt lat="43.89571079242175" lon="11.518583407777038"><ele>157.0</ele><time>2026-04-26T09:20:01Z</time></trkpt><trkpt lat="43.89584823872035" lon="11.518476814067126"><ele>158.0</ele><time>2026-04-26T09:20:02Z</time></trkpt><trkpt lat="43.895975971983795" lon="11.518363000483227"><ele>159.0</ele><time>2026-04-26T09:20:03Z</time></trkpt><trkpt lat="43.89611443734687" lon="11.51828359393272"><ele>160.0</ele><time>2026-04-26T09:20:04Z</time></trkpt><trkpt lat="43.89623769188841" lon="11.518178091636068"><ele>161.0</ele><time>2026-04-26T09:20:05Z</time></trkpt><trkpt lat="43.89635448851553" lon="11.518078117130658"><ele>161.0</ele><time>2026-04-26T09:20:06Z</time></trkpt><trkpt lat="43.89646370742091" lon="11.517985068032841"><ele>161.0</ele><time>2026-04-26T09:20:07Z</time></trkpt><trkpt lat="43.89657289336275" lon="11.517892230133967"><ele>161.0</ele><time>2026-04-26T09:20:08Z</time></trkpt><trkpt lat="43.896681221788164" lon="11.517799845250643"><ele>161.0</ele><time>2026-04-26T09:20:09Z</time></trkpt><trkpt lat="43.896794785902706" lon="11.517701720733504"><ele>161.0</ele><time>2026-04-26T09:20:10Z</time></trkpt><trkpt lat="43.89690893736149" lon="11.517603088726844"><ele>161.0</ele><time>2026-04-26T09:20:11Z</time></trkpt><trkpt lat="43.89702452494741" lon="11.517503215840037"><ele>161.0</ele><time>2026-04-26T09:20:12Z</time></trkpt><trkpt lat="43.89714108308206" lon="11.517402504354848"><ele>161.0</ele><time>2026-04-26T09:20:13Z</time></trkpt><trkpt lat="43.89725902310047" lon="11.517300598885065"><ele>161.0</ele><time>2026-04-26T09:20:14Z</time></trkpt><trkpt lat="43.89737996402186" lon="11.517196102048619"><ele>161.0</ele><time>2026-04-26T09:20:15Z</time></trkpt><trkpt lat="43.89749651117484" lon="11.517073188739209"><ele>161.0</ele><time>2026-04-26T09:20:16Z</time></trkpt><trkpt lat="43.89762831487708" lon="11.516973205264792"><ele>161.0</ele><time>2026-04-26T09:20:17Z</time></trkpt><trkpt lat="43.89776382784191" lon="11.516877455992233"><ele>160.66666666666666</ele><time>2026-04-26T09:20:18Z</time></trkpt><trkpt lat="43.89791086091381" lon="11.516794230782791"><ele>160.33333333333334</ele><time>2026-04-26T09:20:19Z</time></trkpt><trkpt lat="43.89806336500878" lon="11.516724408302196"><ele>160.0</ele><time>2026-04-26T09:20:19.999Z</time></trkpt><trkpt lat="43.89821039680533" lon="11.516621156456058"><ele>160.0</ele><time>2026-04-26T09:20:20.999Z</time></trkpt><trkpt lat="43.898366521424926" lon="11.516540232789806"><ele>160.0</ele><time>2026-04-26T09:20:21.999Z</time></trkpt><trkpt lat="43.89852781241082" lon="11.516445323059147"><ele>160.0</ele><time>2026-04-26T09:20:22.999Z</time></trkpt><trkpt lat="43.89868379268226" lon="11.516341528926326"><ele>159.66666666666669</ele><time>2026-04-26T09:20:23.999Z</time></trkpt><trkpt lat="43.89883643056786" lon="11.51622066484394"><ele>159.33333333333334</ele><time>2026-04-26T09:20:24.999Z</time></trkpt><trkpt lat="43.89898271968325" lon="11.516085976790047"><ele>159.0</ele><time>2026-04-26T09:20:25.999Z</time></trkpt><trkpt lat="43.89912830097578" lon="11.515947631931102"><ele>159.0</ele><time>2026-04-26T09:20:26.999Z</time></trkpt><trkpt lat="43.899247184426194" lon="11.51577800271732"><ele>159.0</ele><time>2026-04-26T09:20:27.999Z</time></trkpt><trkpt lat="43.899348294926895" lon="11.515532410492732"><ele>159.0</ele><time>2026-04-26T09:20:28.999Z</time></trkpt><trkpt lat="43.89944485438968" lon="11.51529442371451"><ele>160.0</ele><time>2026-04-26T09:20:29.999Z</time></trkpt><trkpt lat="43.89954886533544" lon="11.515051957640285"><ele>161.0</ele><time>2026-04-26T09:20:30.999Z</time></trkpt><trkpt lat="43.89965485996324" lon="11.51480677258094"><ele>162.0</ele><time>2026-04-26T09:20:31.999Z</time></trkpt><trkpt lat="43.89976106508919" lon="11.514561438017209"><ele>162.0</ele><time>2026-04-26T09:20:32.999Z</time></trkpt><trkpt lat="43.89986412982396" lon="11.51430791486701"><ele>162.0</ele><time>2026-04-26T09:20:33.999Z</time></trkpt><trkpt lat="43.89996469035878" lon="11.51405567423948"><ele>162.0</ele><time>2026-04-26T09:20:34.999Z</time></trkpt><trkpt lat="43.90005404057926" lon="11.513799107037437"><ele>163.0</ele><time>2026-04-26T09:20:35.999Z</time></trkpt><trkpt lat="43.900132559105934" lon="11.513539053647689"><ele>164.0</ele><time>2026-04-26T09:20:36.999Z</time></trkpt><trkpt lat="43.90020666677978" lon="11.513274983474913"><ele>165.0</ele><time>2026-04-26T09:20:37.999Z</time></trkpt><trkpt lat="43.90027476983807" lon="11.51300881184718"><ele>165.0</ele><time>2026-04-26T09:20:38.999Z</time></trkpt><trkpt lat="43.90035807460246" lon="11.51274814217021"><ele>165.0</ele><time>2026-04-26T09:20:39.999Z</time></trkpt><trkpt lat="43.90043487220437" lon="11.51248379892813"><ele>165.0</ele><time>2026-04-26T09:20:40.999Z</time></trkpt><trkpt lat="43.90051764541029" lon="11.512221037348233"><ele>165.66666666666666</ele><time>2026-04-26T09:20:41.999Z</time></trkpt><trkpt lat="43.9006079857459" lon="11.511966416365999"><ele>166.33333333333331</ele><time>2026-04-26T09:20:42.999Z</time></trkpt><trkpt lat="43.90070554903206" lon="11.511712273284381"><ele>167.0</ele><time>2026-04-26T09:20:43.999Z</time></trkpt><trkpt lat="43.90079885138812" lon="11.511470765525484"><ele>164.66666666666666</ele><time>2026-04-26T09:20:44.999Z</time></trkpt><trkpt lat="43.900896708835404" lon="11.51122820690003"><ele>162.33333333333334</ele><time>2026-04-26T09:20:45.999Z</time></trkpt><trkpt lat="43.90099600486829" lon="11.510995019755995"><ele>160.0</ele><time>2026-04-26T09:20:46.999Z</time></trkpt><trkpt lat="43.9011050598632" lon="11.510764254974049"><ele>164.0</ele><time>2026-04-26T09:20:47.999Z</time></trkpt><trkpt lat="43.901227582916775" lon="11.510532306224276"><ele>168.0</ele><time>2026-04-26T09:20:48.999Z</time></trkpt><trkpt lat="43.90135414426094" lon="11.510298702022876"><ele>172.0</ele><time>2026-04-26T09:20:49.999Z</time></trkpt><trkpt lat="43.901487616473574" lon="11.51005511056277"><ele>172.0</ele><time>2026-04-26T09:20:50.999Z</time></trkpt><trkpt lat="43.901619190305894" lon="11.509813678230095"><ele>172.0</ele><time>2026-04-26T09:20:51.999Z</time></trkpt><trkpt lat="43.901750587821766" lon="11.509572151406761"><ele>172.0</ele><time>2026-04-26T09:20:52.999Z</time></trkpt><trkpt lat="43.901882330024" lon="11.50932999100855"><ele>172.0</ele><time>2026-04-26T09:20:53.999Z</time></trkpt><trkpt lat="43.902012460875895" lon="11.509090792492184"><ele>172.0</ele><time>2026-04-26T09:20:54.999Z</time></trkpt><trkpt lat="43.90214441757352" lon="11.508848237821752"><ele>172.0</ele><time>2026-04-26T09:20:55.999Z</time></trkpt><trkpt lat="43.90227257621648" lon="11.508612664499"><ele>172.0</ele><time>2026-04-26T09:20:56.999Z</time></trkpt><trkpt lat="43.90239751308857" lon="11.508383013236706"><ele>172.0</ele><time>2026-04-26T09:20:57.999Z</time></trkpt><trkpt lat="43.90252242399895" lon="11.5081534049695"><ele>172.0</ele><time>2026-04-26T09:20:58.999Z</time></trkpt><trkpt lat="43.902642434321194" lon="11.507928351839213"><ele>173.66666666666669</ele><time>2026-04-26T09:20:59.999Z</time></trkpt><trkpt lat="43.902745290079096" lon="11.50768506672081"><ele>175.33333333333334</ele><time>2026-04-26T09:21:01Z</time></trkpt><trkpt lat="43.90285956590703" lon="11.507472987465517"><ele>177.0</ele><time>2026-04-26T09:21:02Z</time></trkpt><trkpt lat="43.90296531573101" lon="11.507275204511858"><ele>177.0</ele><time>2026-04-26T09:21:03Z</time></trkpt><trkpt lat="43.90306300349307" lon="11.507083997572744"><ele>177.0</ele><time>2026-04-26T09:21:04Z</time></trkpt><trkpt lat="43.90318481397138" lon="11.506936290630914"><ele>177.0</ele><time>2026-04-26T09:21:05Z</time></trkpt><trkpt lat="43.90328716741287" lon="11.506779352661725"><ele>174.33333333333334</ele><time>2026-04-26T09:21:06Z</time></trkpt><trkpt lat="43.90340254659259" lon="11.506643063385777"><ele>171.66666666666669</ele><time>2026-04-26T09:21:07Z</time></trkpt><trkpt lat="43.90353467916177" lon="11.506552077061595"><ele>169.0</ele><time>2026-04-26T09:21:08Z</time></trkpt><trkpt lat="43.90367750340513" lon="11.506478481066965"><ele>169.0</ele><time>2026-04-26T09:21:09Z</time></trkpt><trkpt lat="43.90383216681864" lon="11.506473110085018"><ele>169.0</ele><time>2026-04-26T09:21:10Z</time></trkpt><trkpt lat="43.90400275198116" lon="11.506487505875025"><ele>169.0</ele><time>2026-04-26T09:21:11Z</time></trkpt><trkpt lat="43.904205252525834" lon="11.506405930975141"><ele>171.33333333333334</ele><time>2026-04-26T09:21:12Z</time></trkpt><trkpt lat="43.904408366915284" lon="11.50637249047354"><ele>173.66666666666666</ele><time>2026-04-26T09:21:13Z</time></trkpt><trkpt lat="43.90461541365783" lon="11.506338402558793"><ele>176.0</ele><time>2026-04-26T09:21:14Z</time></trkpt><trkpt lat="43.90482880868475" lon="11.506301789266452"><ele>176.0</ele><time>2026-04-26T09:21:15Z</time></trkpt><trkpt lat="43.90504577120773" lon="11.506263969594084"><ele>176.0</ele><time>2026-04-26T09:21:16Z</time></trkpt><trkpt lat="43.905262776528566" lon="11.506226142462848"><ele>176.0</ele><time>2026-04-26T09:21:17Z</time></trkpt><trkpt lat="43.90548395761712" lon="11.506187587453267"><ele>172.33333333333331</ele><time>2026-04-26T09:21:18Z</time></trkpt><trkpt lat="43.9057040764558" lon="11.506149217725"><ele>168.66666666666666</ele><time>2026-04-26T09:21:19Z</time></trkpt><trkpt lat="43.905913163833006" lon="11.506112770931736"><ele>165.0</ele><time>2026-04-26T09:21:20Z</time></trkpt><trkpt lat="43.906104420134774" lon="11.50604781308678"><ele>164.66666666666666</ele><time>2026-04-26T09:21:21Z</time></trkpt><trkpt lat="43.90628397484567" lon="11.506016838516615"><ele>164.33333333333331</ele><time>2026-04-26T09:21:22Z</time></trkpt><trkpt lat="43.90645040425883" lon="11.505990856070369"><ele>164.0</ele><time>2026-04-26T09:21:23Z</time></trkpt><trkpt lat="43.90661431428191" lon="11.505988745358396"><ele>163.66666666666666</ele><time>2026-04-26T09:21:24Z</time></trkpt><trkpt lat="43.906780609008756" lon="11.506018217724671"><ele>163.33333333333334</ele><time>2026-04-26T09:21:25Z</time></trkpt><trkpt lat="43.906952453390204" lon="11.506066987147534"><ele>163.0</ele><time>2026-04-26T09:21:26Z</time></trkpt><trkpt lat="43.90713073575544" lon="11.506138019896644"><ele>163.0</ele><time>2026-04-26T09:21:27Z</time></trkpt><trkpt lat="43.90730872885145" lon="11.506229260976637"><ele>163.0</ele><time>2026-04-26T09:21:28Z</time></trkpt><trkpt lat="43.90748465976467" lon="11.506317995294674"><ele>163.0</ele><time>2026-04-26T09:21:29Z</time></trkpt><trkpt lat="43.90765508247346" lon="11.506398520444659"><ele>167.66666666666669</ele><time>2026-04-26T09:21:30Z</time></trkpt><trkpt lat="43.90782809172056" lon="11.506459298971892"><ele>172.33333333333334</ele><time>2026-04-26T09:21:31Z</time></trkpt><trkpt lat="43.90800537706353" lon="11.506486981454005"><ele>177.0</ele><time>2026-04-26T09:21:32Z</time></trkpt><trkpt lat="43.90818470909653" lon="11.506464257241579"><ele>177.0</ele><time>2026-04-26T09:21:33Z</time></trkpt><trkpt lat="43.90836354783085" lon="11.506392795823317"><ele>177.0</ele><time>2026-04-26T09:21:34Z</time></trkpt><trkpt lat="43.90850667103253" lon="11.50623098298332"><ele>177.0</ele><time>2026-04-26T09:21:35Z</time></trkpt><trkpt lat="43.90863038132759" lon="11.506149132564271"><ele>177.0</ele><time>2026-04-26T09:21:36Z</time></trkpt><trkpt lat="43.908725752607424" lon="11.506051592399254"><ele>177.0</ele><time>2026-04-26T09:21:37Z</time></trkpt><trkpt lat="43.90896638524466" lon="11.50619467781725"><ele>177.0</ele><time>2026-04-26T09:21:38Z</time></trkpt><trkpt lat="43.90911062699282" lon="11.50628110234347"><ele>173.0</ele><time>2026-04-26T09:21:39Z</time></trkpt><trkpt lat="43.90925009043843" lon="11.506415789824384"><ele>169.0</ele><time>2026-04-26T09:21:40Z</time></trkpt><trkpt lat="43.9093834228669" lon="11.506577730261718"><ele>165.0</ele><time>2026-04-26T09:21:41Z</time></trkpt><trkpt lat="43.90953090785567" lon="11.506732151757404"><ele>165.0</ele><time>2026-04-26T09:21:42Z</time></trkpt><trkpt lat="43.909701341827926" lon="11.506863249438096"><ele>165.0</ele><time>2026-04-26T09:21:43Z</time></trkpt><trkpt lat="43.90988119976866" lon="11.506978329687092"><ele>165.0</ele><time>2026-04-26T09:21:44Z</time></trkpt><trkpt lat="43.910075461540266" lon="11.50707585503823"><ele>169.66666666666666</ele><time>2026-04-26T09:21:45Z</time></trkpt><trkpt lat="43.91026636393224" lon="11.507155018238175"><ele>174.33333333333331</ele><time>2026-04-26T09:21:46Z</time></trkpt><trkpt lat="43.91045086698385" lon="11.507229002058583"><ele>179.0</ele><time>2026-04-26T09:21:47Z</time></trkpt><trkpt lat="43.91062924291812" lon="11.507285861456962"><ele>179.0</ele><time>2026-04-26T09:21:48Z</time></trkpt><trkpt lat="43.91077974272989" lon="11.50732668405773"><ele>179.0</ele><time>2026-04-26T09:21:49Z</time></trkpt><trkpt lat="43.910890560470456" lon="11.507329739987153"><ele>179.0</ele><time>2026-04-26T09:21:50Z</time></trkpt><trkpt lat="43.911065119787516" lon="11.507266671648637"><ele>179.0</ele><time>2026-04-26T09:21:51Z</time></trkpt><trkpt lat="43.911199696690524" lon="11.507149409737917"><ele>172.33333333333331</ele><time>2026-04-26T09:21:52Z</time></trkpt><trkpt lat="43.9113508693755" lon="11.50701006275817"><ele>165.66666666666666</ele><time>2026-04-26T09:21:52.999Z</time></trkpt><trkpt lat="43.911501257418706" lon="11.506852504382346"><ele>159.0</ele><time>2026-04-26T09:21:53.999Z</time></trkpt><trkpt lat="43.91166608105518" lon="11.506680508110119"><ele>159.0</ele><time>2026-04-26T09:21:54.999Z</time></trkpt><trkpt lat="43.91184210361961" lon="11.506509055486902"><ele>159.0</ele><time>2026-04-26T09:21:55.999Z</time></trkpt><trkpt lat="43.91203404973231" lon="11.506345266578025"><ele>159.0</ele><time>2026-04-26T09:21:56.999Z</time></trkpt><trkpt lat="43.91223409760943" lon="11.506187928199386"><ele>159.0</ele><time>2026-04-26T09:21:57.999Z</time></trkpt><trkpt lat="43.91243578451938" lon="11.50603414357085"><ele>159.0</ele><time>2026-04-26T09:21:58.999Z</time></trkpt><trkpt lat="43.91263185672483" lon="11.505888992243177"><ele>161.33333333333334</ele><time>2026-04-26T09:21:59.999Z</time></trkpt><trkpt lat="43.91282847538957" lon="11.505748110158843"><ele>163.66666666666669</ele><time>2026-04-26T09:22:00.999Z</time></trkpt><trkpt lat="43.91302467636098" lon="11.50562987906827"><ele>166.0</ele><time>2026-04-26T09:22:01.999Z</time></trkpt><trkpt lat="43.91323249426734" lon="11.505537284148234"><ele>165.33333333333334</ele><time>2026-04-26T09:22:02.999Z</time></trkpt><trkpt lat="43.913448825161055" lon="11.505468954425604"><ele>164.66666666666666</ele><time>2026-04-26T09:22:03.999Z</time></trkpt><trkpt lat="43.913669021823104" lon="11.505420840480749"><ele>164.0</ele><time>2026-04-26T09:22:04.999Z</time></trkpt><trkpt lat="43.91388873450998" lon="11.505382744273652"><ele>164.0</ele><time>2026-04-26T09:22:05.999Z</time></trkpt><trkpt lat="43.91410474338713" lon="11.505338007344603"><ele>164.0</ele><time>2026-04-26T09:22:06.999Z</time></trkpt><trkpt lat="43.914324486752314" lon="11.505288552666434"><ele>164.0</ele><time>2026-04-26T09:22:07.999Z</time></trkpt><trkpt lat="43.914544821291116" lon="11.50522201229956"><ele>165.0</ele><time>2026-04-26T09:22:08.999Z</time></trkpt><trkpt lat="43.91476258099337" lon="11.505145024609327"><ele>166.0</ele><time>2026-04-26T09:22:09.999Z</time></trkpt><trkpt lat="43.91498105389739" lon="11.505063054205982"><ele>171.5</ele><time>2026-04-26T09:22:10.999Z</time></trkpt><trkpt lat="43.915202913370855" lon="11.50500801195743"><ele>177.0</ele><time>2026-04-26T09:22:11.999Z</time></trkpt><trkpt lat="43.91542079923812" lon="11.504930330907584"><ele>177.0</ele><time>2026-04-26T09:22:12.999Z</time></trkpt><trkpt lat="43.91563860692165" lon="11.504851673133578"><ele>177.0</ele><time>2026-04-26T09:22:13.999Z</time></trkpt><trkpt lat="43.91584969211519" lon="11.504754259267095"><ele>177.0</ele><time>2026-04-26T09:22:14.999Z</time></trkpt><trkpt lat="43.91606357977244" lon="11.504677366540783"><ele>178.33333333333334</ele><time>2026-04-26T09:22:15.999Z</time></trkpt><trkpt lat="43.91627686654267" lon="11.50459786317442"><ele>179.66666666666669</ele><time>2026-04-26T09:22:16.999Z</time></trkpt><trkpt lat="43.916491990097256" lon="11.504541497416344"><ele>181.0</ele><time>2026-04-26T09:22:17.999Z</time></trkpt><trkpt lat="43.916703124463865" lon="11.504467603871168"><ele>175.66666666666669</ele><time>2026-04-26T09:22:18.999Z</time></trkpt><trkpt lat="43.91691658842888" lon="11.50440567904975"><ele>170.33333333333334</ele><time>2026-04-26T09:22:19.999Z</time></trkpt><trkpt lat="43.917134088617196" lon="11.504361572423441"><ele>165.0</ele><time>2026-04-26T09:22:20.999Z</time></trkpt><trkpt lat="43.91735463979254" lon="11.504326924239075"><ele>166.0</ele><time>2026-04-26T09:22:21.999Z</time></trkpt><trkpt lat="43.917573819687895" lon="11.504267857228898"><ele>167.0</ele><time>2026-04-26T09:22:22.999Z</time></trkpt><trkpt lat="43.917794406020384" lon="11.504233969831716"><ele>168.0</ele><time>2026-04-26T09:22:23.999Z</time></trkpt><trkpt lat="43.91801458062746" lon="11.504201988218266"><ele>168.0</ele><time>2026-04-26T09:22:24.999Z</time></trkpt><trkpt lat="43.918234492950866" lon="11.50416634658363"><ele>168.0</ele><time>2026-04-26T09:22:25.999Z</time></trkpt><trkpt lat="43.91845379987023" lon="11.504141628870507"><ele>168.0</ele><time>2026-04-26T09:22:26.999Z</time></trkpt><trkpt lat="43.918672434711794" lon="11.504072216234917"><ele>176.0</ele><time>2026-04-26T09:22:27.999Z</time></trkpt><trkpt lat="43.91888559272287" lon="11.503964538769015"><ele>184.0</ele><time>2026-04-26T09:22:28.999Z</time></trkpt><trkpt lat="43.919082153452266" lon="11.503799675737321"><ele>181.66666666666669</ele><time>2026-04-26T09:22:29.999Z</time></trkpt><trkpt lat="43.919287642284" lon="11.503673327104691"><ele>179.33333333333334</ele><time>2026-04-26T09:22:30.999Z</time></trkpt><trkpt lat="43.91948542324235" lon="11.503534751184105"><ele>177.0</ele><time>2026-04-26T09:22:31.999Z</time></trkpt><trkpt lat="43.919691609107275" lon="11.50342271507079"><ele>177.0</ele><time>2026-04-26T09:22:32.999Z</time></trkpt><trkpt lat="43.91989932279374" lon="11.503297269328264"><ele>177.0</ele><time>2026-04-26T09:22:33.999Z</time></trkpt><trkpt lat="43.920104320041894" lon="11.503153134924002"><ele>180.0</ele><time>2026-04-26T09:22:34.999Z</time></trkpt><trkpt lat="43.92030928186035" lon="11.503006161046926"><ele>183.0</ele><time>2026-04-26T09:22:35.999Z</time></trkpt><trkpt lat="43.920513171728665" lon="11.502859963489358"><ele>178.5</ele><time>2026-04-26T09:22:36.999Z</time></trkpt><trkpt lat="43.9207173430446" lon="11.5027135641156"><ele>174.0</ele><time>2026-04-26T09:22:37.999Z</time></trkpt><trkpt lat="43.920920653103906" lon="11.50256803497563"><ele>174.0</ele><time>2026-04-26T09:22:38.999Z</time></trkpt><trkpt lat="43.92112628703775" lon="11.502420856476423"><ele>174.0</ele><time>2026-04-26T09:22:39.999Z</time></trkpt><trkpt lat="43.92133041224557" lon="11.502274447579781"><ele>174.0</ele><time>2026-04-26T09:22:40.999Z</time></trkpt><trkpt lat="43.92153416263827" lon="11.502128158313727"><ele>174.0</ele><time>2026-04-26T09:22:41.999Z</time></trkpt><trkpt lat="43.921738490482106" lon="11.501981782075642"><ele>174.0</ele><time>2026-04-26T09:22:42.999Z</time></trkpt><trkpt lat="43.92194142055637" lon="11.501836791075874"><ele>174.0</ele><time>2026-04-26T09:22:43.999Z</time></trkpt><trkpt lat="43.92214372030577" lon="11.501692296232973"><ele>174.0</ele><time>2026-04-26T09:22:44.999Z</time></trkpt><trkpt lat="43.922343727321895" lon="11.501552748607125"><ele>174.0</ele><time>2026-04-26T09:22:45.999Z</time></trkpt><trkpt lat="43.92254416660683" lon="11.501434466766776"><ele>174.0</ele><time>2026-04-26T09:22:46.999Z</time></trkpt><trkpt lat="43.92274833669358" lon="11.501347100328948"><ele>174.0</ele><time>2026-04-26T09:22:47.999Z</time></trkpt><trkpt lat="43.92296183967809" lon="11.501291435376254"><ele>174.0</ele><time>2026-04-26T09:22:48.999Z</time></trkpt><trkpt lat="43.92318019800384" lon="11.501254740962224"><ele>174.0</ele><time>2026-04-26T09:22:49.999Z</time></trkpt><trkpt lat="43.92339547594889" lon="11.501205023454457"><ele>174.66666666666666</ele><time>2026-04-26T09:22:50.999Z</time></trkpt><trkpt lat="43.92361095268284" lon="11.501159492852924"><ele>175.33333333333331</ele><time>2026-04-26T09:22:51.999Z</time></trkpt><trkpt lat="43.923821205428965" lon="11.50108198239082"><ele>176.0</ele><time>2026-04-26T09:22:52.999Z</time></trkpt><trkpt lat="43.9240183718016" lon="11.500977130141392"><ele>176.0</ele><time>2026-04-26T09:22:53.999Z</time></trkpt><trkpt lat="43.92420664418508" lon="11.500846754262342"><ele>176.0</ele><time>2026-04-26T09:22:54.999Z</time></trkpt><trkpt lat="43.92440705487635" lon="11.500778791386587"><ele>176.0</ele><time>2026-04-26T09:22:55.999Z</time></trkpt><trkpt lat="43.92461504596143" lon="11.500723651694333"><ele>177.66666666666666</ele><time>2026-04-26T09:22:56.999Z</time></trkpt><trkpt lat="43.92482866798892" lon="11.500685502705869"><ele>179.33333333333334</ele><time>2026-04-26T09:22:57.999Z</time></trkpt><trkpt lat="43.9250462810819" lon="11.500707128634216"><ele>181.0</ele><time>2026-04-26T09:22:58.999Z</time></trkpt><trkpt lat="43.92525824984483" lon="11.50072437112528"><ele>182.66666666666669</ele><time>2026-04-26T09:22:59.999Z</time></trkpt><trkpt lat="43.92546784817473" lon="11.500737717460883"><ele>184.33333333333334</ele><time>2026-04-26T09:23:00.999Z</time></trkpt><trkpt lat="43.92566562350349" lon="11.500774320590283"><ele>186.0</ele><time>2026-04-26T09:23:01.999Z</time></trkpt><trkpt lat="43.92584642738223" lon="11.500797287447211"><ele>187.33333333333334</ele><time>2026-04-26T09:23:02.999Z</time></trkpt><trkpt lat="43.9260198582995" lon="11.50080028240148"><ele>188.66666666666669</ele><time>2026-04-26T09:23:03.999Z</time></trkpt><trkpt lat="43.9261913540668" lon="11.50077316415263"><ele>190.0</ele><time>2026-04-26T09:23:04.999Z</time></trkpt><trkpt lat="43.92635730010942" lon="11.50071399015664"><ele>190.0</ele><time>2026-04-26T09:23:05.999Z</time></trkpt><trkpt lat="43.92652723666302" lon="11.500668356127028"><ele>190.0</ele><time>2026-04-26T09:23:07Z</time></trkpt><trkpt lat="43.92666667361349" lon="11.500480453806448"><ele>190.0</ele><time>2026-04-26T09:23:08Z</time></trkpt><trkpt lat="43.92680515008059" lon="11.500299605964825"><ele>193.66666666666669</ele><time>2026-04-26T09:23:09Z</time></trkpt><trkpt lat="43.92693241985412" lon="11.500095511607816"><ele>197.33333333333334</ele><time>2026-04-26T09:23:10Z</time></trkpt><trkpt lat="43.92703542484913" lon="11.499890460714694"><ele>201.0</ele><time>2026-04-26T09:23:11Z</time></trkpt><trkpt lat="43.92712337570083" lon="11.499698247320646"><ele>196.0</ele><time>2026-04-26T09:23:12Z</time></trkpt><trkpt lat="43.927247529135364" lon="11.499581916040382"><ele>191.0</ele><time>2026-04-26T09:23:13Z</time></trkpt><trkpt lat="43.92737681614351" lon="11.499496026334146"><ele>186.0</ele><time>2026-04-26T09:23:14Z</time></trkpt><trkpt lat="43.92753311006178" lon="11.499408876841857"><ele>189.66666666666669</ele><time>2026-04-26T09:23:15Z</time></trkpt><trkpt lat="43.92769507449292" lon="11.499321530660714"><ele>193.33333333333334</ele><time>2026-04-26T09:23:16Z</time></trkpt><trkpt lat="43.92785355447165" lon="11.499238248752029"><ele>197.0</ele><time>2026-04-26T09:23:17Z</time></trkpt><trkpt lat="43.92799448897652" lon="11.499166458554422"><ele>197.0</ele><time>2026-04-26T09:23:18Z</time></trkpt><trkpt lat="43.92812157374151" lon="11.499111363861937"><ele>197.0</ele><time>2026-04-26T09:23:19Z</time></trkpt><trkpt lat="43.92823474015834" lon="11.499084259000922"><ele>197.0</ele><time>2026-04-26T09:23:20Z</time></trkpt><trkpt lat="43.92833427048594" lon="11.499103374140235"><ele>197.0</ele><time>2026-04-26T09:23:21Z</time></trkpt><trkpt lat="43.928418376959236" lon="11.499225138487526"><ele>199.75</ele><time>2026-04-26T09:23:22Z</time></trkpt><trkpt lat="43.9285020739278" lon="11.499359423817486"><ele>202.5</ele><time>2026-04-26T09:23:23Z</time></trkpt><trkpt lat="43.9285962297991" lon="11.499449431789095"><ele>205.25</ele><time>2026-04-26T09:23:24Z</time></trkpt><trkpt lat="43.928699397560564" lon="11.499481879525703"><ele>208.0</ele><time>2026-04-26T09:23:25Z</time></trkpt><trkpt lat="43.92881035501857" lon="11.49942772656607"><ele>208.0</ele><time>2026-04-26T09:23:26Z</time></trkpt><trkpt lat="43.9289084813387" lon="11.49929587448339"><ele>208.0</ele><time>2026-04-26T09:23:27Z</time></trkpt><trkpt lat="43.92898800939122" lon="11.499112403222572"><ele>208.0</ele><time>2026-04-26T09:23:28Z</time></trkpt><trkpt lat="43.92907417625384" lon="11.498907879854006"><ele>209.33333333333331</ele><time>2026-04-26T09:23:29Z</time></trkpt><trkpt lat="43.92916833929194" lon="11.498691332212035"><ele>210.66666666666669</ele><time>2026-04-26T09:23:30Z</time></trkpt><trkpt lat="43.9292884614332" lon="11.498517221643164"><ele>212.0</ele><time>2026-04-26T09:23:31Z</time></trkpt><trkpt lat="43.92940274846344" lon="11.498320816655205"><ele>212.0</ele><time>2026-04-26T09:23:32Z</time></trkpt><trkpt lat="43.92951693040247" lon="11.49812400486423"><ele>212.0</ele><time>2026-04-26T09:23:33Z</time></trkpt><trkpt lat="43.92964555796391" lon="11.497930214520201"><ele>212.0</ele><time>2026-04-26T09:23:34Z</time></trkpt><trkpt lat="43.92978597102231" lon="11.497742832333428"><ele>211.33333333333334</ele><time>2026-04-26T09:23:35Z</time></trkpt><trkpt lat="43.92993053303917" lon="11.497576280737446"><ele>210.66666666666669</ele><time>2026-04-26T09:23:36Z</time></trkpt><trkpt lat="43.930077965700455" lon="11.497430758336165"><ele>210.0</ele><time>2026-04-26T09:23:37Z</time></trkpt><trkpt lat="43.93023298117824" lon="11.497319796933562"><ele>210.0</ele><time>2026-04-26T09:23:38Z</time></trkpt><trkpt lat="43.930385845112426" lon="11.497228635420184"><ele>210.0</ele><time>2026-04-26T09:23:39Z</time></trkpt><trkpt lat="43.93052164320772" lon="11.497157205769165"><ele>210.0</ele><time>2026-04-26T09:23:40Z</time></trkpt><trkpt lat="43.93063141493903" lon="11.49708796077435"><ele>210.0</ele><time>2026-04-26T09:23:41Z</time></trkpt><trkpt lat="43.93071313803925" lon="11.496994544071022"><ele>206.75</ele><time>2026-04-26T09:23:42Z</time></trkpt><trkpt lat="43.93076370309589" lon="11.496864038576186"><ele>203.5</ele><time>2026-04-26T09:23:43Z</time></trkpt><trkpt lat="43.93077313173033" lon="11.496694958160402"><ele>200.25</ele><time>2026-04-26T09:23:44Z</time></trkpt><trkpt lat="43.93074349069744" lon="11.496496584602323"><ele>197.0</ele><time>2026-04-26T09:23:45Z</time></trkpt><trkpt lat="43.93071376316291" lon="11.496276642353733"><ele>195.66666666666669</ele><time>2026-04-26T09:23:46Z</time></trkpt><trkpt lat="43.93070317638112" lon="11.496041736011811"><ele>194.33333333333331</ele><time>2026-04-26T09:23:46.999Z</time></trkpt><trkpt lat="43.93071346204851" lon="11.495803633481817"><ele>193.0</ele><time>2026-04-26T09:23:47.999Z</time></trkpt><trkpt lat="43.93073109248297" lon="11.495563778857447"><ele>190.0</ele><time>2026-04-26T09:23:48.999Z</time></trkpt><trkpt lat="43.93076634575662" lon="11.495329143342243"><ele>187.0</ele><time>2026-04-26T09:23:49.999Z</time></trkpt><trkpt lat="43.930828686011665" lon="11.495114235554738"><ele>184.0</ele><time>2026-04-26T09:23:50.999Z</time></trkpt><trkpt lat="43.93091489871007" lon="11.494955200011008"><ele>190.25</ele><time>2026-04-26T09:23:51.999Z</time></trkpt><trkpt lat="43.93098115634049" lon="11.494805424125873"><ele>196.5</ele><time>2026-04-26T09:23:52.999Z</time></trkpt><trkpt lat="43.93100407972584" lon="11.494635587429444"><ele>202.75</ele><time>2026-04-26T09:23:53.999Z</time></trkpt><trkpt lat="43.93098029478716" lon="11.494445845723885"><ele>209.0</ele><time>2026-04-26T09:23:54.999Z</time></trkpt><trkpt lat="43.930912261588155" lon="11.49425912264344"><ele>198.66666666666669</ele><time>2026-04-26T09:23:55.999Z</time></trkpt><trkpt lat="43.930816573600524" lon="11.49409191377647"><ele>188.33333333333334</ele><time>2026-04-26T09:23:56.999Z</time></trkpt><trkpt lat="43.93076335395312" lon="11.493906209450705"><ele>178.0</ele><time>2026-04-26T09:23:57.999Z</time></trkpt><trkpt lat="43.93074786700501" lon="11.493675596719573"><ele>178.0</ele><time>2026-04-26T09:23:58.999Z</time></trkpt><trkpt lat="43.93076172406278" lon="11.493404857801224"><ele>178.0</ele><time>2026-04-26T09:23:59.999Z</time></trkpt><trkpt lat="43.93077137952545" lon="11.493112007558686"><ele>178.0</ele><time>2026-04-26T09:24:00.999Z</time></trkpt><trkpt lat="43.93076951778337" lon="11.492802388766115"><ele>179.5</ele><time>2026-04-26T09:24:01.999Z</time></trkpt><trkpt lat="43.93075554635179" lon="11.49248046983605"><ele>181.0</ele><time>2026-04-26T09:24:02.999Z</time></trkpt><trkpt lat="43.93073346182882" lon="11.492158544730758"><ele>183.5</ele><time>2026-04-26T09:24:03.999Z</time></trkpt><trkpt lat="43.93069916681479" lon="11.49183422836167"><ele>186.0</ele><time>2026-04-26T09:24:04.999Z</time></trkpt><trkpt lat="43.930639991565556" lon="11.491514416929947"><ele>187.5</ele><time>2026-04-26T09:24:05.999Z</time></trkpt><trkpt lat="43.93057319959463" lon="11.491205802076008"><ele>189.0</ele><time>2026-04-26T09:24:06.999Z</time></trkpt><trkpt lat="43.93051265919069" lon="11.490891291701951"><ele>189.0</ele><time>2026-04-26T09:24:07.999Z</time></trkpt><trkpt lat="43.9304571753779" lon="11.490580118820807"><ele>189.0</ele><time>2026-04-26T09:24:08.999Z</time></trkpt><trkpt lat="43.93039754116859" lon="11.49026953454426"><ele>193.0</ele><time>2026-04-26T09:24:09.999Z</time></trkpt><trkpt lat="43.93033616407806" lon="11.489963767107778"><ele>197.0</ele><time>2026-04-26T09:24:10.999Z</time></trkpt><trkpt lat="43.930268370796234" lon="11.489658025607019"><ele>201.66666666666669</ele><time>2026-04-26T09:24:11.999Z</time></trkpt><trkpt lat="43.93020307696172" lon="11.489356141394518"><ele>206.33333333333331</ele><time>2026-04-26T09:24:12.999Z</time></trkpt><trkpt lat="43.930147567180796" lon="11.489064416164426"><ele>211.0</ele><time>2026-04-26T09:24:13.999Z</time></trkpt><trkpt lat="43.93009104679589" lon="11.488780019771438"><ele>202.33333333333331</ele><time>2026-04-26T09:24:14.999Z</time></trkpt><trkpt lat="43.9300432560046" lon="11.488501650919519"><ele>193.66666666666666</ele><time>2026-04-26T09:24:15.999Z</time></trkpt><trkpt lat="43.93003548989553" lon="11.488228744430454"><ele>185.0</ele><time>2026-04-26T09:24:16.999Z</time></trkpt><trkpt lat="43.93002790223048" lon="11.487956422845617"><ele>184.0</ele><time>2026-04-26T09:24:17.999Z</time></trkpt><trkpt lat="43.930034624107165" lon="11.487682337160727"><ele>183.0</ele><time>2026-04-26T09:24:18.999Z</time></trkpt><trkpt lat="43.93004241660058" lon="11.487423489111096"><ele>182.0</ele><time>2026-04-26T09:24:19.999Z</time></trkpt><trkpt lat="43.9300529344248" lon="11.487178716718226"><ele>183.0</ele><time>2026-04-26T09:24:20.999Z</time></trkpt><trkpt lat="43.93006776764497" lon="11.486951442372908"><ele>184.0</ele><time>2026-04-26T09:24:21.999Z</time></trkpt><trkpt lat="43.930089031578696" lon="11.486753739751684"><ele>185.0</ele><time>2026-04-26T09:24:22.999Z</time></trkpt><trkpt lat="43.93012027268813" lon="11.48657668722011"><ele>186.0</ele><time>2026-04-26T09:24:23.999Z</time></trkpt><trkpt lat="43.930212939191094" lon="11.486438595942003"><ele>186.0</ele><time>2026-04-26T09:24:24.999Z</time></trkpt><trkpt lat="43.93031278307386" lon="11.486322894335357"><ele>186.0</ele><time>2026-04-26T09:24:25.999Z</time></trkpt><trkpt lat="43.930438814343724" lon="11.48625838692322"><ele>186.0</ele><time>2026-04-26T09:24:26.999Z</time></trkpt><trkpt lat="43.93057745400821" lon="11.486210209243808"><ele>186.0</ele><time>2026-04-26T09:24:27.999Z</time></trkpt><trkpt lat="43.93069736747942" lon="11.486140398441526"><ele>183.0</ele><time>2026-04-26T09:24:28.999Z</time></trkpt><trkpt lat="43.930794415205575" lon="11.486047419158714"><ele>180.0</ele><time>2026-04-26T09:24:29.999Z</time></trkpt><trkpt lat="43.93085388325779" lon="11.485899363265919"><ele>177.0</ele><time>2026-04-26T09:24:30.999Z</time></trkpt><trkpt lat="43.93088394919646" lon="11.485712843953534"><ele>174.0</ele><time>2026-04-26T09:24:31.999Z</time></trkpt><trkpt lat="43.93094109087359" lon="11.485512517497902"><ele>175.0</ele><time>2026-04-26T09:24:32.999Z</time></trkpt><trkpt lat="43.93099443654732" lon="11.485289452790138"><ele>176.0</ele><time>2026-04-26T09:24:33.999Z</time></trkpt><trkpt lat="43.93105420379215" lon="11.48504368861577"><ele>177.0</ele><time>2026-04-26T09:24:34.999Z</time></trkpt><trkpt lat="43.93111069405237" lon="11.484790163873708"><ele>177.33333333333334</ele><time>2026-04-26T09:24:35.999Z</time></trkpt><trkpt lat="43.93116464561399" lon="11.484549838593836"><ele>177.66666666666669</ele><time>2026-04-26T09:24:36.999Z</time></trkpt><trkpt lat="43.93121681721138" lon="11.484329843838927"><ele>178.0</ele><time>2026-04-26T09:24:37.999Z</time></trkpt><trkpt lat="43.93128965189422" lon="11.484096667988823"><ele>178.0</ele><time>2026-04-26T09:24:38.999Z</time></trkpt><trkpt lat="43.93139796538421" lon="11.483874214696774"><ele>178.0</ele><time>2026-04-26T09:24:39.999Z</time></trkpt><trkpt lat="43.93153562133278" lon="11.483643512404885"><ele>178.0</ele><time>2026-04-26T09:24:40.999Z</time></trkpt><trkpt lat="43.93168579295284" lon="11.483399006458727"><ele>176.0</ele><time>2026-04-26T09:24:41.999Z</time></trkpt><trkpt lat="43.931840424852616" lon="11.483142206043578"><ele>174.0</ele><time>2026-04-26T09:24:42.999Z</time></trkpt><trkpt lat="43.93199074375996" lon="11.48289008855178"><ele>173.5</ele><time>2026-04-26T09:24:43.999Z</time></trkpt><trkpt lat="43.9321387295256" lon="11.482640033807842"><ele>173.0</ele><time>2026-04-26T09:24:44.999Z</time></trkpt><trkpt lat="43.93227939123736" lon="11.482399586224268"><ele>173.0</ele><time>2026-04-26T09:24:45.999Z</time></trkpt><trkpt lat="43.93241356601979" lon="11.48217326697846"><ele>173.0</ele><time>2026-04-26T09:24:46.999Z</time></trkpt><trkpt lat="43.932549063563904" lon="11.48194871058952"><ele>173.0</ele><time>2026-04-26T09:24:47.999Z</time></trkpt><trkpt lat="43.932698946544406" lon="11.481734534641111"><ele>173.66666666666666</ele><time>2026-04-26T09:24:48.999Z</time></trkpt><trkpt lat="43.932870300089476" lon="11.481543406799405"><ele>174.33333333333334</ele><time>2026-04-26T09:24:49.999Z</time></trkpt><trkpt lat="43.93304454274456" lon="11.481360242455828"><ele>175.0</ele><time>2026-04-26T09:24:50.999Z</time></trkpt><trkpt lat="43.93320848110763" lon="11.481168521483726"><ele>175.33333333333334</ele><time>2026-04-26T09:24:51.999Z</time></trkpt><trkpt lat="43.933373662473564" lon="11.480998068624102"><ele>175.66666666666666</ele><time>2026-04-26T09:24:52.999Z</time></trkpt><trkpt lat="43.93353041100994" lon="11.48082657315084"><ele>176.0</ele><time>2026-04-26T09:24:53.999Z</time></trkpt><trkpt lat="43.933681455126475" lon="11.480662939417517"><ele>176.0</ele><time>2026-04-26T09:24:54.999Z</time></trkpt><trkpt lat="43.93379353476631" lon="11.480455233417924"><ele>176.0</ele><time>2026-04-26T09:24:55.999Z</time></trkpt><trkpt lat="43.93387087422269" lon="11.480205871398118"><ele>176.0</ele><time>2026-04-26T09:24:56.999Z</time></trkpt><trkpt lat="43.93397629135744" lon="11.479970486026412"><ele>175.33333333333331</ele><time>2026-04-26T09:24:57.999Z</time></trkpt><trkpt lat="43.93407165531375" lon="11.479721548173591"><ele>174.66666666666666</ele><time>2026-04-26T09:24:58.999Z</time></trkpt><trkpt lat="43.93416657366417" lon="11.479473068528819"><ele>174.0</ele><time>2026-04-26T09:24:59.999Z</time></trkpt><trkpt lat="43.93425571030715" lon="11.479224095804343"><ele>175.66666666666666</ele><time>2026-04-26T09:25:00.999Z</time></trkpt><trkpt lat="43.93433247720837" lon="11.478967624194532"><ele>177.33333333333331</ele><time>2026-04-26T09:25:01.999Z</time></trkpt><trkpt lat="43.93439301339487" lon="11.478712121222685"><ele>179.0</ele><time>2026-04-26T09:25:02.999Z</time></trkpt><trkpt lat="43.934445708847555" lon="11.478470556922131"><ele>179.0</ele><time>2026-04-26T09:25:03.999Z</time></trkpt><trkpt lat="43.93449511635782" lon="11.478242410750473"><ele>179.0</ele><time>2026-04-26T09:25:04.999Z</time></trkpt><trkpt lat="43.934542823937605" lon="11.47802319735277"><ele>179.0</ele><time>2026-04-26T09:25:05.999Z</time></trkpt><trkpt lat="43.934588624516444" lon="11.477805764399548"><ele>178.33333333333331</ele><time>2026-04-26T09:25:06.999Z</time></trkpt><trkpt lat="43.93462562485583" lon="11.477572533740094"><ele>177.66666666666666</ele><time>2026-04-26T09:25:07.999Z</time></trkpt><trkpt lat="43.9346184465581" lon="11.47732585436362"><ele>177.0</ele><time>2026-04-26T09:25:08.999Z</time></trkpt><trkpt lat="43.934578062993786" lon="11.477092878280397"><ele>177.0</ele><time>2026-04-26T09:25:09.999Z</time></trkpt><trkpt lat="43.9345455919546" lon="11.476846377217718"><ele>177.0</ele><time>2026-04-26T09:25:10.999Z</time></trkpt><trkpt lat="43.93454728785886" lon="11.476553848296508"><ele>177.0</ele><time>2026-04-26T09:25:11.999Z</time></trkpt><trkpt lat="43.93454804174126" lon="11.476253684079051"><ele>177.0</ele><time>2026-04-26T09:25:13Z</time></trkpt><trkpt lat="43.93447510629108" lon="11.476142088952374"><ele>177.0</ele><time>2026-04-26T09:25:14Z</time></trkpt><trkpt lat="43.934447165026654" lon="11.47591635632422"><ele>177.0</ele><time>2026-04-26T09:25:15Z</time></trkpt><trkpt lat="43.934419822283374" lon="11.475695459177016"><ele>177.0</ele><time>2026-04-26T09:25:16Z</time></trkpt><trkpt lat="43.9343937591959" lon="11.475484865889076"><ele>175.75</ele><time>2026-04-26T09:25:17Z</time></trkpt><trkpt lat="43.93436901126539" lon="11.475284884215911"><ele>174.5</ele><time>2026-04-26T09:25:18Z</time></trkpt><trkpt lat="43.93434244333771" lon="11.475082829248606"><ele>173.25</ele><time>2026-04-26T09:25:19Z</time></trkpt><trkpt lat="43.934315670517485" lon="11.474882786964956"><ele>172.0</ele><time>2026-04-26T09:25:20Z</time></trkpt><trkpt lat="43.934288077533" lon="11.474680365786593"><ele>172.0</ele><time>2026-04-26T09:25:21Z</time></trkpt><trkpt lat="43.93423787503692" lon="11.474473487885643"><ele>172.0</ele><time>2026-04-26T09:25:22Z</time></trkpt><trkpt lat="43.93420362569603" lon="11.474266726608148"><ele>172.0</ele><time>2026-04-26T09:25:23Z</time></trkpt><trkpt lat="43.934153115665715" lon="11.474063058155988"><ele>172.0</ele><time>2026-04-26T09:25:24Z</time></trkpt><trkpt lat="43.934098222181454" lon="11.473869217286625"><ele>172.0</ele><time>2026-04-26T09:25:25Z</time></trkpt><trkpt lat="43.93404740549522" lon="11.47367111179204"><ele>172.0</ele><time>2026-04-26T09:25:26Z</time></trkpt><trkpt lat="43.93399273447088" lon="11.473465431828059"><ele>172.66666666666669</ele><time>2026-04-26T09:25:27Z</time></trkpt><trkpt lat="43.93393763761599" lon="11.473270402555906"><ele>173.33333333333334</ele><time>2026-04-26T09:25:28Z</time></trkpt><trkpt lat="43.93388474722899" lon="11.473077225755308"><ele>174.0</ele><time>2026-04-26T09:25:29Z</time></trkpt><trkpt lat="43.933836833286776" lon="11.472879699308201"><ele>174.75</ele><time>2026-04-26T09:25:30Z</time></trkpt><trkpt lat="43.93378946519146" lon="11.472699156805826"><ele>175.5</ele><time>2026-04-26T09:25:31Z</time></trkpt><trkpt lat="43.933767602864805" lon="11.472510258529491"><ele>176.25</ele><time>2026-04-26T09:25:32Z</time></trkpt><trkpt lat="43.93372388626912" lon="11.472334813398586"><ele>177.0</ele><time>2026-04-26T09:25:33Z</time></trkpt><trkpt lat="43.93368214307197" lon="11.472168027428085"><ele>177.2</ele><time>2026-04-26T09:25:34Z</time></trkpt><trkpt lat="43.93364366643922" lon="11.472028236889853"><ele>177.39999999999998</ele><time>2026-04-26T09:25:35Z</time></trkpt><trkpt lat="43.933601182859064" lon="11.471912325891022"><ele>177.60000000000002</ele><time>2026-04-26T09:25:36Z</time></trkpt><trkpt lat="43.93351425621276" lon="11.471830091087602"><ele>177.8</ele><time>2026-04-26T09:25:37Z</time></trkpt><trkpt lat="43.93341938811655" lon="11.471764747431706"><ele>178.0</ele><time>2026-04-26T09:25:38Z</time></trkpt><trkpt lat="43.933307142437464" lon="11.47171036762033"><ele>176.75</ele><time>2026-04-26T09:25:39Z</time></trkpt><trkpt lat="43.93318739437622" lon="11.471655058287803"><ele>175.5</ele><time>2026-04-26T09:25:40Z</time></trkpt><trkpt lat="43.93306706853954" lon="11.471590107659408"><ele>174.25</ele><time>2026-04-26T09:25:41Z</time></trkpt><trkpt lat="43.93294185300532" lon="11.47152821871082"><ele>173.0</ele><time>2026-04-26T09:25:42Z</time></trkpt><trkpt lat="43.93281526895196" lon="11.471462997430768"><ele>173.0</ele><time>2026-04-26T09:25:43Z</time></trkpt><trkpt lat="43.93269431071754" lon="11.471407298577555"><ele>173.0</ele><time>2026-04-26T09:25:44Z</time></trkpt><trkpt lat="43.93257658483894" lon="11.471356542461656"><ele>173.0</ele><time>2026-04-26T09:25:45Z</time></trkpt><trkpt lat="43.93246724684333" lon="11.471300675882931"><ele>173.0</ele><time>2026-04-26T09:25:46Z</time></trkpt><trkpt lat="43.93235738619911" lon="11.471241222569526"><ele>173.25</ele><time>2026-04-26T09:25:47Z</time></trkpt><trkpt lat="43.93224941697261" lon="11.471174873642314"><ele>173.5</ele><time>2026-04-26T09:25:48Z</time></trkpt><trkpt lat="43.93214183581966" lon="11.471102115622958"><ele>173.75</ele><time>2026-04-26T09:25:49Z</time></trkpt><trkpt lat="43.93202812151038" lon="11.471023505199382"><ele>174.0</ele><time>2026-04-26T09:25:50Z</time></trkpt><trkpt lat="43.93190582808386" lon="11.47094198480457"><ele>174.0</ele><time>2026-04-26T09:25:51Z</time></trkpt><trkpt lat="43.931788889810655" lon="11.47084828289273"><ele>174.0</ele><time>2026-04-26T09:25:52Z</time></trkpt><trkpt lat="43.93167077696099" lon="11.4707301800415"><ele>174.0</ele><time>2026-04-26T09:25:53Z</time></trkpt><trkpt lat="43.93154295344315" lon="11.47062546861922"><ele>174.0</ele><time>2026-04-26T09:25:54Z</time></trkpt><trkpt lat="43.931407602662645" lon="11.470538944655297"><ele>175.0</ele><time>2026-04-26T09:25:55Z</time></trkpt><trkpt lat="43.93128296170441" lon="11.470420692092617"><ele>176.0</ele><time>2026-04-26T09:25:56Z</time></trkpt><trkpt lat="43.93115453988845" lon="11.47030128324423"><ele>177.0</ele><time>2026-04-26T09:25:57Z</time></trkpt><trkpt lat="43.93102778779077" lon="11.47017241629155"><ele>177.0</ele><time>2026-04-26T09:25:58Z</time></trkpt><trkpt lat="43.93091528322364" lon="11.47001862987639"><ele>177.0</ele><time>2026-04-26T09:25:59Z</time></trkpt><trkpt lat="43.93080861581378" lon="11.469856884956704"><ele>177.0</ele><time>2026-04-26T09:26:00Z</time></trkpt><trkpt lat="43.930712546311256" lon="11.469695680740992"><ele>177.25</ele><time>2026-04-26T09:26:01Z</time></trkpt><trkpt lat="43.93063704469891" lon="11.469533376271658"><ele>177.5</ele><time>2026-04-26T09:26:02Z</time></trkpt><trkpt lat="43.93058995445113" lon="11.469354567219678"><ele>177.75</ele><time>2026-04-26T09:26:03Z</time></trkpt><trkpt lat="43.930527899356164" lon="11.469190557564765"><ele>178.0</ele><time>2026-04-26T09:26:04Z</time></trkpt><trkpt lat="43.93047424585368" lon="11.469028621977222"><ele>178.0</ele><time>2026-04-26T09:26:05Z</time></trkpt><trkpt lat="43.93043083626424" lon="11.468859401385012"><ele>178.0</ele><time>2026-04-26T09:26:06Z</time></trkpt><trkpt lat="43.93038963061402" lon="11.468685068167833"><ele>178.0</ele><time>2026-04-26T09:26:07Z</time></trkpt><trkpt lat="43.93034960979278" lon="11.468508475518306"><ele>178.0</ele><time>2026-04-26T09:26:08Z</time></trkpt><trkpt lat="43.930315742933736" lon="11.468330279862997"><ele>180.25</ele><time>2026-04-26T09:26:09Z</time></trkpt><trkpt lat="43.930288947596594" lon="11.468155114533296"><ele>182.5</ele><time>2026-04-26T09:26:10Z</time></trkpt><trkpt lat="43.930273935812195" lon="11.467987190226852"><ele>184.75</ele><time>2026-04-26T09:26:11Z</time></trkpt><trkpt lat="43.930272168056575" lon="11.467819541531856"><ele>187.0</ele><time>2026-04-26T09:26:12Z</time></trkpt><trkpt lat="43.93027645914878" lon="11.467645269427196"><ele>187.5</ele><time>2026-04-26T09:26:13Z</time></trkpt><trkpt lat="43.930287887004276" lon="11.467473274710361"><ele>188.0</ele><time>2026-04-26T09:26:14Z</time></trkpt><trkpt lat="43.93030475723136" lon="11.467302641637941"><ele>188.5</ele><time>2026-04-26T09:26:15Z</time></trkpt><trkpt lat="43.93033286821608" lon="11.467130027130995"><ele>189.0</ele><time>2026-04-26T09:26:16Z</time></trkpt><trkpt lat="43.93036828340704" lon="11.46695411023158"><ele>189.0</ele><time>2026-04-26T09:26:17Z</time></trkpt><trkpt lat="43.93040410065685" lon="11.466791115504758"><ele>189.0</ele><time>2026-04-26T09:26:18Z</time></trkpt><trkpt lat="43.930441844549264" lon="11.466637239836576"><ele>189.0</ele><time>2026-04-26T09:26:19Z</time></trkpt><trkpt lat="43.93048067734408" lon="11.466494757271015"><ele>189.0</ele><time>2026-04-26T09:26:20Z</time></trkpt><trkpt lat="43.93051889176617" lon="11.466361555330073"><ele>187.79999999999998</ele><time>2026-04-26T09:26:21Z</time></trkpt><trkpt lat="43.93056052396697" lon="11.466229314671535"><ele>186.6</ele><time>2026-04-26T09:26:22Z</time></trkpt><trkpt lat="43.93060741038067" lon="11.466101628024393"><ele>185.4</ele><time>2026-04-26T09:26:23Z</time></trkpt><trkpt lat="43.93066015729179" lon="11.465973945891784"><ele>184.2</ele><time>2026-04-26T09:26:24Z</time></trkpt><trkpt lat="43.93072201146031" lon="11.465852379209624"><ele>183.0</ele><time>2026-04-26T09:26:25Z</time></trkpt><trkpt lat="43.93078817101534" lon="11.465734508997583"><ele>183.0</ele><time>2026-04-26T09:26:26Z</time></trkpt><trkpt lat="43.93086123950102" lon="11.465619407688848"><ele>183.0</ele><time>2026-04-26T09:26:27Z</time></trkpt><trkpt lat="43.93093794254681" lon="11.465504233553746"><ele>183.0</ele><time>2026-04-26T09:26:28Z</time></trkpt><trkpt lat="43.931016791273464" lon="11.465388405860864"><ele>183.0</ele><time>2026-04-26T09:26:29Z</time></trkpt><trkpt lat="43.93109630252712" lon="11.465271604669056"><ele>183.5</ele><time>2026-04-26T09:26:30Z</time></trkpt><trkpt lat="43.93117621159513" lon="11.465154219385672"><ele>184.0</ele><time>2026-04-26T09:26:31Z</time></trkpt><trkpt lat="43.93125676160666" lon="11.465035892237427"><ele>184.5</ele><time>2026-04-26T09:26:32Z</time></trkpt><trkpt lat="43.93133699945238" lon="11.46491802383433"><ele>185.0</ele><time>2026-04-26T09:26:33Z</time></trkpt><trkpt lat="43.93141269756645" lon="11.46480445829792"><ele>185.0</ele><time>2026-04-26T09:26:34Z</time></trkpt><trkpt lat="43.93148111178927" lon="11.464700592837286"><ele>185.0</ele><time>2026-04-26T09:26:35Z</time></trkpt><trkpt lat="43.93154075457224" lon="11.46460509133964"><ele>185.0</ele><time>2026-04-26T09:26:36Z</time></trkpt><trkpt lat="43.93159542717732" lon="11.464516896824863"><ele>185.0</ele><time>2026-04-26T09:26:37Z</time></trkpt><trkpt lat="43.93163885470906" lon="11.464428231925984"><ele>185.0</ele><time>2026-04-26T09:26:38Z</time></trkpt><trkpt lat="43.93165972310148" lon="11.464327219096552"><ele>185.0</ele><time>2026-04-26T09:26:39Z</time></trkpt><trkpt lat="43.93169978893129" lon="11.464235502458466"><ele>185.2</ele><time>2026-04-26T09:26:40Z</time></trkpt><trkpt lat="43.93174226602676" lon="11.464131368405061"><ele>185.4</ele><time>2026-04-26T09:26:41Z</time></trkpt><trkpt lat="43.93177939019396" lon="11.464002822345153"><ele>185.60000000000002</ele><time>2026-04-26T09:26:42Z</time></trkpt><trkpt lat="43.93181892581624" lon="11.463850269814412"><ele>185.8</ele><time>2026-04-26T09:26:43Z</time></trkpt><trkpt lat="43.93186509541123" lon="11.463691553889042"><ele>186.0</ele><time>2026-04-26T09:26:44Z</time></trkpt><trkpt lat="43.931914791638064" lon="11.463492206385473"><ele>186.0</ele><time>2026-04-26T09:26:45Z</time></trkpt><trkpt lat="43.931964025035114" lon="11.463294498227288"><ele>186.0</ele><time>2026-04-26T09:26:46Z</time></trkpt><trkpt lat="43.93202066039533" lon="11.463084152249944"><ele>186.0</ele><time>2026-04-26T09:26:47Z</time></trkpt><trkpt lat="43.932095099247164" lon="11.462871100188558"><ele>185.0</ele><time>2026-04-26T09:26:48Z</time></trkpt><trkpt lat="43.93215298953077" lon="11.462655679584666"><ele>184.0</ele><time>2026-04-26T09:26:49Z</time></trkpt><trkpt lat="43.93221254648214" lon="11.462434056743957"><ele>183.0</ele><time>2026-04-26T09:26:50Z</time></trkpt><trkpt lat="43.932271341319684" lon="11.462210888267544"><ele>182.66666666666666</ele><time>2026-04-26T09:26:51Z</time></trkpt><trkpt lat="43.93233130052847" lon="11.461994799457417"><ele>182.33333333333331</ele><time>2026-04-26T09:26:52Z</time></trkpt><trkpt lat="43.93239722870862" lon="11.461782847996142"><ele>182.0</ele><time>2026-04-26T09:26:53Z</time></trkpt><trkpt lat="43.93246714621794" lon="11.461572858877487"><ele>182.0</ele><time>2026-04-26T09:26:54Z</time></trkpt><trkpt lat="43.932540227716146" lon="11.461358261869572"><ele>182.0</ele><time>2026-04-26T09:26:55Z</time></trkpt><trkpt lat="43.932611434611836" lon="11.461141900611436"><ele>182.0</ele><time>2026-04-26T09:26:56Z</time></trkpt><trkpt lat="43.93272477629356" lon="11.460965489312533"><ele>182.5</ele><time>2026-04-26T09:26:57Z</time></trkpt><trkpt lat="43.93282652871956" lon="11.460794398712327"><ele>183.0</ele><time>2026-04-26T09:26:57.999Z</time></trkpt><trkpt lat="43.93292287111404" lon="11.46063711979858"><ele>183.5</ele><time>2026-04-26T09:26:58.999Z</time></trkpt><trkpt lat="43.93301255884833" lon="11.460491778588"><ele>184.0</ele><time>2026-04-26T09:26:59.999Z</time></trkpt><trkpt lat="43.933099501635844" lon="11.460350884734066"><ele>184.0</ele><time>2026-04-26T09:27:00.999Z</time></trkpt><trkpt lat="43.933178646914826" lon="11.460222627398979"><ele>184.0</ele><time>2026-04-26T09:27:01.999Z</time></trkpt><trkpt lat="43.9332323665237" lon="11.460101373642832"><ele>184.0</ele><time>2026-04-26T09:27:02.999Z</time></trkpt><trkpt lat="43.93328645973874" lon="11.460014796199248"><ele>184.0</ele><time>2026-04-26T09:27:03.999Z</time></trkpt><trkpt lat="43.93332925137673" lon="11.459947253200294"><ele>184.0</ele><time>2026-04-26T09:27:04.999Z</time></trkpt><trkpt lat="43.933387520917755" lon="11.459874756539888"><ele>184.0</ele><time>2026-04-26T09:27:06.999Z</time></trkpt><trkpt lat="43.93346537224577" lon="11.459749752185795"><ele>184.0</ele><time>2026-04-26T09:28:12Z</time></trkpt><trkpt lat="43.933511194226234" lon="11.459671984186729"><ele>184.0</ele><time>2026-04-26T09:28:13Z</time></trkpt><trkpt lat="43.93355498301816" lon="11.459592207745525"><ele>184.0</ele><time>2026-04-26T09:28:14Z</time></trkpt><trkpt lat="43.93359920035383" lon="11.459506850949037"><ele>184.0</ele><time>2026-04-26T09:28:15Z</time></trkpt><trkpt lat="43.933634658496075" lon="11.459432446081587"><ele>184.0</ele><time>2026-04-26T09:28:16Z</time></trkpt><trkpt lat="43.93367419704749" lon="11.459345200100978"><ele>184.0</ele><time>2026-04-26T09:28:19Z</time></trkpt><trkpt lat="43.93374044990368" lon="11.45929416103576"><ele>184.0</ele><time>2026-04-26T09:28:25Z</time></trkpt><trkpt lat="43.93378929984392" lon="11.459130589444955"><ele>184.0</ele><time>2026-04-26T09:28:27Z</time></trkpt><trkpt lat="43.93378456424729" lon="11.459024125736416"><ele>184.0</ele><time>2026-04-26T09:28:28Z</time></trkpt><trkpt lat="43.93378759997853" lon="11.458884557943616"><ele>184.0</ele><time>2026-04-26T09:28:29Z</time></trkpt><trkpt lat="43.93382001534361" lon="11.458754106679764"><ele>183.6</ele><time>2026-04-26T09:28:30Z</time></trkpt><trkpt lat="43.93382793883453" lon="11.458615201837555"><ele>183.2</ele><time>2026-04-26T09:28:31Z</time></trkpt><trkpt lat="43.93385687481257" lon="11.458487676375109"><ele>182.79999999999998</ele><time>2026-04-26T09:28:32Z</time></trkpt><trkpt lat="43.93384548656144" lon="11.45835114972169"><ele>182.39999999999998</ele><time>2026-04-26T09:28:33Z</time></trkpt><trkpt lat="43.93385951672913" lon="11.458227934666532"><ele>182.0</ele><time>2026-04-26T09:28:34Z</time></trkpt><trkpt lat="43.93387209514039" lon="11.458116826569858"><ele>182.0</ele><time>2026-04-26T09:28:35Z</time></trkpt><trkpt lat="43.93388500997352" lon="11.458029997909573"><ele>182.0</ele><time>2026-04-26T09:28:36Z</time></trkpt><trkpt lat="43.93389998925502" lon="11.457919671863566"><ele>182.0</ele><time>2026-04-26T09:28:38Z</time></trkpt><trkpt lat="43.93393792441884" lon="11.45784849404596"><ele>182.0</ele><time>2026-04-26T09:28:39.999Z</time></trkpt><trkpt lat="43.93395742569296" lon="11.457699132239487"><ele>182.0</ele><time>2026-04-26T09:28:41.999Z</time></trkpt><trkpt lat="43.933970329761976" lon="11.457603967743244"><ele>182.0</ele><time>2026-04-26T09:28:42.999Z</time></trkpt><trkpt lat="43.933989026306506" lon="11.457465116134852"><ele>181.75</ele><time>2026-04-26T09:28:43.999Z</time></trkpt><trkpt lat="43.9340117999646" lon="11.457304560135709"><ele>181.5</ele><time>2026-04-26T09:28:44.999Z</time></trkpt><trkpt lat="43.934034081516245" lon="11.457147844932477"><ele>181.25</ele><time>2026-04-26T09:28:45.999Z</time></trkpt><trkpt lat="43.93405464670018" lon="11.457005538633195"><ele>181.0</ele><time>2026-04-26T09:28:46.999Z</time></trkpt><trkpt lat="43.93407702851576" lon="11.456849056836235"><ele>180.66666666666669</ele><time>2026-04-26T09:28:47.999Z</time></trkpt><trkpt lat="43.93410510660662" lon="11.456652749304032"><ele>180.33333333333334</ele><time>2026-04-26T09:28:48.999Z</time></trkpt><trkpt lat="43.9341347521561" lon="11.45644548027623"><ele>180.0</ele><time>2026-04-26T09:28:49.999Z</time></trkpt><trkpt lat="43.934131681606075" lon="11.456229798113577"><ele>179.66666666666666</ele><time>2026-04-26T09:28:50.999Z</time></trkpt><trkpt lat="43.9341733825187" lon="11.456011448885612"><ele>179.33333333333331</ele><time>2026-04-26T09:28:51.999Z</time></trkpt><trkpt lat="43.934218100992894" lon="11.455799617948655"><ele>179.0</ele><time>2026-04-26T09:28:52.999Z</time></trkpt><trkpt lat="43.93426340103275" lon="11.455577286843974"><ele>179.0</ele><time>2026-04-26T09:28:53.999Z</time></trkpt><trkpt lat="43.93434172788194" lon="11.455385640967831"><ele>179.0</ele><time>2026-04-26T09:28:54.999Z</time></trkpt><trkpt lat="43.93438395372411" lon="11.455188752065533"><ele>179.0</ele><time>2026-04-26T09:28:55.999Z</time></trkpt><trkpt lat="43.93442664147965" lon="11.454989703924637"><ele>179.0</ele><time>2026-04-26T09:28:56.999Z</time></trkpt><trkpt lat="43.93446862618739" lon="11.454785972985723"><ele>179.0</ele><time>2026-04-26T09:28:57.999Z</time></trkpt><trkpt lat="43.9345109643441" lon="11.454583092880927"><ele>179.0</ele><time>2026-04-26T09:28:58.999Z</time></trkpt><trkpt lat="43.93455401740643" lon="11.45437992816965"><ele>179.25</ele><time>2026-04-26T09:28:59.999Z</time></trkpt><trkpt lat="43.934594398027905" lon="11.454181010949563"><ele>179.5</ele><time>2026-04-26T09:29:00.999Z</time></trkpt><trkpt lat="43.93462418686588" lon="11.45398223460134"><ele>179.75</ele><time>2026-04-26T09:29:01.999Z</time></trkpt><trkpt lat="43.934630687146736" lon="11.453790381767826"><ele>180.0</ele><time>2026-04-26T09:29:02.999Z</time></trkpt><trkpt lat="43.9346174807997" lon="11.453600854033109"><ele>181.0</ele><time>2026-04-26T09:29:03.999Z</time></trkpt><trkpt lat="43.93459169101679" lon="11.453417977442655"><ele>182.0</ele><time>2026-04-26T09:29:04.999Z</time></trkpt><trkpt lat="43.934550348530685" lon="11.453233050815635"><ele>183.0</ele><time>2026-04-26T09:29:05.999Z</time></trkpt><trkpt lat="43.9344692491537" lon="11.453063640183544"><ele>184.0</ele><time>2026-04-26T09:29:06.999Z</time></trkpt><trkpt lat="43.9344053889559" lon="11.452895712152094"><ele>183.5</ele><time>2026-04-26T09:29:07.999Z</time></trkpt><trkpt lat="43.934355539150005" lon="11.452726513832378"><ele>183.0</ele><time>2026-04-26T09:29:08.999Z</time></trkpt><trkpt lat="43.934291623526406" lon="11.45256407722754"><ele>182.5</ele><time>2026-04-26T09:29:09.999Z</time></trkpt><trkpt lat="43.93423443591642" lon="11.452398721795214"><ele>182.0</ele><time>2026-04-26T09:29:10.999Z</time></trkpt><trkpt lat="43.934180976831335" lon="11.452223087752344"><ele>182.0</ele><time>2026-04-26T09:29:11.999Z</time></trkpt><trkpt lat="43.93414065639854" lon="11.45203966215357"><ele>182.0</ele><time>2026-04-26T09:29:12.999Z</time></trkpt><trkpt lat="43.93411603512892" lon="11.45185012750953"><ele>182.0</ele><time>2026-04-26T09:29:13.999Z</time></trkpt><trkpt lat="43.93410081032757" lon="11.45164898483988"><ele>182.0</ele><time>2026-04-26T09:29:14.999Z</time></trkpt><trkpt lat="43.93410815721754" lon="11.451456368467879"><ele>181.25</ele><time>2026-04-26T09:29:15.999Z</time></trkpt><trkpt lat="43.93412809710118" lon="11.45125166090749"><ele>180.5</ele><time>2026-04-26T09:29:16.999Z</time></trkpt><trkpt lat="43.93416468146131" lon="11.45105189427247"><ele>179.75</ele><time>2026-04-26T09:29:17.999Z</time></trkpt><trkpt lat="43.93421610940107" lon="11.450859816330686"><ele>179.0</ele><time>2026-04-26T09:29:18.999Z</time></trkpt><trkpt lat="43.934273044726154" lon="11.450662111333044"><ele>179.66666666666666</ele><time>2026-04-26T09:29:19.999Z</time></trkpt><trkpt lat="43.934345168459075" lon="11.450480583064133"><ele>180.33333333333334</ele><time>2026-04-26T09:29:20.999Z</time></trkpt><trkpt lat="43.9344169562028" lon="11.450295271614893"><ele>181.0</ele><time>2026-04-26T09:29:21.999Z</time></trkpt><trkpt lat="43.934498617003484" lon="11.450110816828095"><ele>181.0</ele><time>2026-04-26T09:29:22.999Z</time></trkpt><trkpt lat="43.934590408696536" lon="11.449930148020131"><ele>181.0</ele><time>2026-04-26T09:29:24Z</time></trkpt><trkpt lat="43.93468888188219" lon="11.449751959541286"><ele>181.0</ele><time>2026-04-26T09:29:25Z</time></trkpt><trkpt lat="43.934794775856595" lon="11.449571484219277"><ele>180.66666666666669</ele><time>2026-04-26T09:29:26Z</time></trkpt><trkpt lat="43.934900590692955" lon="11.449386683487363"><ele>180.33333333333334</ele><time>2026-04-26T09:29:27Z</time></trkpt><trkpt lat="43.935008580225976" lon="11.449198284815"><ele>180.0</ele><time>2026-04-26T09:29:28Z</time></trkpt><trkpt lat="43.93511989134843" lon="11.449006516961562"><ele>180.0</ele><time>2026-04-26T09:29:29Z</time></trkpt><trkpt lat="43.9352314981577" lon="11.448812015800517"><ele>180.0</ele><time>2026-04-26T09:29:30Z</time></trkpt><trkpt lat="43.93534387933998" lon="11.448612384709362"><ele>180.0</ele><time>2026-04-26T09:29:31Z</time></trkpt><trkpt lat="43.93543662734081" lon="11.448394734379425"><ele>180.0</ele><time>2026-04-26T09:29:32Z</time></trkpt><trkpt lat="43.93553824405919" lon="11.448193325606537"><ele>180.0</ele><time>2026-04-26T09:29:33Z</time></trkpt><trkpt lat="43.93563195753168" lon="11.4480026558209"><ele>180.0</ele><time>2026-04-26T09:29:34Z</time></trkpt><trkpt lat="43.93571916299132" lon="11.447814854571037"><ele>179.75</ele><time>2026-04-26T09:29:35Z</time></trkpt><trkpt lat="43.93579906825683" lon="11.44763294274666"><ele>179.5</ele><time>2026-04-26T09:29:36Z</time></trkpt><trkpt lat="43.935890848374626" lon="11.447481367473017"><ele>179.25</ele><time>2026-04-26T09:29:37Z</time></trkpt><trkpt lat="43.93595885295275" lon="11.447311189670408"><ele>179.0</ele><time>2026-04-26T09:29:38Z</time></trkpt><trkpt lat="43.93602172452752" lon="11.447145949702843"><ele>179.25</ele><time>2026-04-26T09:29:39Z</time></trkpt><trkpt lat="43.93608345721859" lon="11.446983702895576"><ele>179.5</ele><time>2026-04-26T09:29:40Z</time></trkpt><trkpt lat="43.93614445648259" lon="11.446821634179498"><ele>179.75</ele><time>2026-04-26T09:29:41Z</time></trkpt><trkpt lat="43.93620788478569" lon="11.44665283194559"><ele>180.0</ele><time>2026-04-26T09:29:42Z</time></trkpt><trkpt lat="43.93627147847472" lon="11.446481504505368"><ele>180.0</ele><time>2026-04-26T09:29:43Z</time></trkpt><trkpt lat="43.936337980054496" lon="11.446303231341199"><ele>180.0</ele><time>2026-04-26T09:29:44Z</time></trkpt><trkpt lat="43.93640574440658" lon="11.44612157302677"><ele>180.0</ele><time>2026-04-26T09:29:45Z</time></trkpt><trkpt lat="43.936476215525126" lon="11.445932658501128"><ele>180.0</ele><time>2026-04-26T09:29:46Z</time></trkpt><trkpt lat="43.93654790076194" lon="11.445742019878972"><ele>179.66666666666666</ele><time>2026-04-26T09:29:47Z</time></trkpt><trkpt lat="43.93662184581242" lon="11.445547498993777"><ele>179.33333333333331</ele><time>2026-04-26T09:29:48Z</time></trkpt><trkpt lat="43.93669431776088" lon="11.445354287638853"><ele>179.0</ele><time>2026-04-26T09:29:49Z</time></trkpt><trkpt lat="43.936766732828936" lon="11.445161053731994"><ele>179.0</ele><time>2026-04-26T09:29:50Z</time></trkpt><trkpt lat="43.9368388787375" lon="11.44496853807507"><ele>179.0</ele><time>2026-04-26T09:29:51Z</time></trkpt><trkpt lat="43.936911710919645" lon="11.444774193170481"><ele>179.0</ele><time>2026-04-26T09:29:52Z</time></trkpt><trkpt lat="43.93698410714052" lon="11.444581626555042"><ele>179.33333333333331</ele><time>2026-04-26T09:29:53Z</time></trkpt><trkpt lat="43.93705682885475" lon="11.444388194184414"><ele>179.66666666666666</ele><time>2026-04-26T09:29:53.999Z</time></trkpt><trkpt lat="43.93712965298908" lon="11.44419448937931"><ele>180.0</ele><time>2026-04-26T09:29:54.999Z</time></trkpt><trkpt lat="43.937204594385186" lon="11.443995152912496"><ele>180.0</ele><time>2026-04-26T09:29:55.999Z</time></trkpt><trkpt lat="43.937277503809916" lon="11.443797942275811"><ele>180.0</ele><time>2026-04-26T09:29:56.999Z</time></trkpt><trkpt lat="43.93735177917612" lon="11.443599856818162"><ele>180.0</ele><time>2026-04-26T09:29:57.999Z</time></trkpt><trkpt lat="43.937428612317326" lon="11.443398880795115"><ele>180.0</ele><time>2026-04-26T09:29:58.999Z</time></trkpt><trkpt lat="43.93750462117314" lon="11.443197550902191"><ele>180.0</ele><time>2026-04-26T09:29:59.999Z</time></trkpt><trkpt lat="43.93758074269084" lon="11.442995525620008"><ele>180.0</ele><time>2026-04-26T09:30:00.999Z</time></trkpt><trkpt lat="43.93765624309928" lon="11.442793131147123"><ele>182.0</ele><time>2026-04-26T09:30:01.999Z</time></trkpt><trkpt lat="43.93773321250061" lon="11.442589165696047"><ele>184.0</ele><time>2026-04-26T09:30:02.999Z</time></trkpt><trkpt lat="43.937810140720366" lon="11.442385309328081"><ele>186.0</ele><time>2026-04-26T09:30:03.999Z</time></trkpt><trkpt lat="43.9378864544201" lon="11.442183081402463"><ele>186.0</ele><time>2026-04-26T09:30:04.999Z</time></trkpt><trkpt lat="43.93794403847533" lon="11.441967032558635"><ele>186.0</ele><time>2026-04-26T09:30:05.999Z</time></trkpt><trkpt lat="43.93801984331891" lon="11.44176397248091"><ele>186.0</ele><time>2026-04-26T09:30:06.999Z</time></trkpt><trkpt lat="43.93809551048316" lon="11.441562556523989"><ele>186.0</ele><time>2026-04-26T09:30:07.999Z</time></trkpt><trkpt lat="43.93817316454758" lon="11.441356379441006"><ele>186.0</ele><time>2026-04-26T09:30:08.999Z</time></trkpt><trkpt lat="43.93826814871376" lon="11.44116431346969"><ele>186.0</ele><time>2026-04-26T09:30:09.999Z</time></trkpt><trkpt lat="43.93834478135542" lon="11.440959294256155"><ele>185.66666666666666</ele><time>2026-04-26T09:30:10.999Z</time></trkpt><trkpt lat="43.93842159620231" lon="11.440753787559593"><ele>185.33333333333331</ele><time>2026-04-26T09:30:11.999Z</time></trkpt><trkpt lat="43.938498796085035" lon="11.440547250778893"><ele>185.0</ele><time>2026-04-26T09:30:12.999Z</time></trkpt><trkpt lat="43.9385761121448" lon="11.440340403177075"><ele>184.33333333333331</ele><time>2026-04-26T09:30:13.999Z</time></trkpt><trkpt lat="43.938653659293635" lon="11.440132937332653"><ele>183.66666666666666</ele><time>2026-04-26T09:30:14.999Z</time></trkpt><trkpt lat="43.938731004638754" lon="11.43992601135611"><ele>183.0</ele><time>2026-04-26T09:30:15.999Z</time></trkpt><trkpt lat="43.93880972688618" lon="11.439715396375602"><ele>182.33333333333334</ele><time>2026-04-26T09:30:16.999Z</time></trkpt><trkpt lat="43.93888850803727" lon="11.439503081130635"><ele>181.66666666666669</ele><time>2026-04-26T09:30:17.999Z</time></trkpt><trkpt lat="43.93896815546931" lon="11.439290439427891"><ele>181.0</ele><time>2026-04-26T09:30:18.999Z</time></trkpt><trkpt lat="43.93905206154736" lon="11.439069640432132"><ele>181.0</ele><time>2026-04-26T09:30:19.999Z</time></trkpt><trkpt lat="43.93914287822185" lon="11.43883275391842"><ele>181.0</ele><time>2026-04-26T09:30:20.999Z</time></trkpt><trkpt lat="43.93923757930192" lon="11.438587303836485"><ele>181.0</ele><time>2026-04-26T09:30:21.999Z</time></trkpt><trkpt lat="43.939342599537895" lon="11.438334961069"><ele>181.66666666666669</ele><time>2026-04-26T09:30:22.999Z</time></trkpt><trkpt lat="43.93946257604747" lon="11.43808721891512"><ele>182.33333333333334</ele><time>2026-04-26T09:30:23.999Z</time></trkpt><trkpt lat="43.93960397651343" lon="11.437845581048542"><ele>183.0</ele><time>2026-04-26T09:30:24.999Z</time></trkpt><trkpt lat="43.93975747748054" lon="11.43761297334683"><ele>184.0</ele><time>2026-04-26T09:30:25.999Z</time></trkpt><trkpt lat="43.93991692690526" lon="11.43738498846417"><ele>185.0</ele><time>2026-04-26T09:30:26.999Z</time></trkpt><trkpt lat="43.940078828466554" lon="11.437162759185808"><ele>185.66666666666666</ele><time>2026-04-26T09:30:27.999Z</time></trkpt><trkpt lat="43.94024459686495" lon="11.436960497710402"><ele>186.33333333333334</ele><time>2026-04-26T09:30:28.999Z</time></trkpt><trkpt lat="43.940412576306315" lon="11.436790693223424"><ele>187.0</ele><time>2026-04-26T09:30:29.999Z</time></trkpt><trkpt lat="43.94057647423057" lon="11.436645229924949"><ele>187.0</ele><time>2026-04-26T09:30:30.999Z</time></trkpt><trkpt lat="43.940734599841676" lon="11.436510184736715"><ele>187.0</ele><time>2026-04-26T09:30:31.999Z</time></trkpt><trkpt lat="43.940875504880566" lon="11.436374270290615"><ele>187.0</ele><time>2026-04-26T09:30:32.999Z</time></trkpt><trkpt lat="43.94100986793699" lon="11.436237852212653"><ele>188.33333333333334</ele><time>2026-04-26T09:30:33.999Z</time></trkpt><trkpt lat="43.9411326016839" lon="11.436090552880694"><ele>189.66666666666666</ele><time>2026-04-26T09:30:34.999Z</time></trkpt><trkpt lat="43.94123675340006" lon="11.43593805825989"><ele>191.0</ele><time>2026-04-26T09:30:35.999Z</time></trkpt><trkpt lat="43.94132736483479" lon="11.435793455375439"><ele>191.0</ele><time>2026-04-26T09:30:36.999Z</time></trkpt><trkpt lat="43.94140611941239" lon="11.435646046433401"><ele>191.0</ele><time>2026-04-26T09:30:37.999Z</time></trkpt><trkpt lat="43.941469136958425" lon="11.435501112874391"><ele>191.0</ele><time>2026-04-26T09:30:38.999Z</time></trkpt><trkpt lat="43.94152203765605" lon="11.435360122471906"><ele>191.0</ele><time>2026-04-26T09:30:39.999Z</time></trkpt><trkpt lat="43.9415812110012" lon="11.435222231061385"><ele>190.75</ele><time>2026-04-26T09:30:40.999Z</time></trkpt><trkpt lat="43.941621098164894" lon="11.435063458244557"><ele>190.5</ele><time>2026-04-26T09:30:41.999Z</time></trkpt><trkpt lat="43.94163271639723" lon="11.434883441053666"><ele>190.25</ele><time>2026-04-26T09:30:42.999Z</time></trkpt><trkpt lat="43.94166273237213" lon="11.434701388810689"><ele>190.0</ele><time>2026-04-26T09:30:43.999Z</time></trkpt><trkpt lat="43.94168574996366" lon="11.434512382825044"><ele>190.25</ele><time>2026-04-26T09:30:44.999Z</time></trkpt><trkpt lat="43.9417089463406" lon="11.434317130863842"><ele>190.5</ele><time>2026-04-26T09:30:45.999Z</time></trkpt><trkpt lat="43.94173824122951" lon="11.434116236897564"><ele>190.75</ele><time>2026-04-26T09:30:46.999Z</time></trkpt><trkpt lat="43.94179159735093" lon="11.433916469111276"><ele>191.0</ele><time>2026-04-26T09:30:47.999Z</time></trkpt><trkpt lat="43.9418251443219" lon="11.433704133430819"><ele>191.0</ele><time>2026-04-26T09:30:48.999Z</time></trkpt><trkpt lat="43.94186587410978" lon="11.433491967384297"><ele>191.0</ele><time>2026-04-26T09:30:49.999Z</time></trkpt><trkpt lat="43.94191344829461" lon="11.433283109585101"><ele>191.0</ele><time>2026-04-26T09:30:50.999Z</time></trkpt><trkpt lat="43.94196850600817" lon="11.433072140482219"><ele>191.33333333333331</ele><time>2026-04-26T09:30:51.999Z</time></trkpt><trkpt lat="43.94202540845997" lon="11.432856281287915"><ele>191.66666666666666</ele><time>2026-04-26T09:30:52.999Z</time></trkpt><trkpt lat="43.94208226563432" lon="11.432638146451314"><ele>192.0</ele><time>2026-04-26T09:30:53.999Z</time></trkpt><trkpt lat="43.94213177197535" lon="11.432415202311251"><ele>192.0</ele><time>2026-04-26T09:30:54.999Z</time></trkpt><trkpt lat="43.94216186497354" lon="11.432184812678566"><ele>192.0</ele><time>2026-04-26T09:30:55.999Z</time></trkpt><trkpt lat="43.94217594526255" lon="11.431953718873084"><ele>192.0</ele><time>2026-04-26T09:30:56.999Z</time></trkpt><trkpt lat="43.94218520979323" lon="11.431731048583224"><ele>192.0</ele><time>2026-04-26T09:30:57.999Z</time></trkpt><trkpt lat="43.942177114666386" lon="11.43150944750844"><ele>192.0</ele><time>2026-04-26T09:30:58.999Z</time></trkpt><trkpt lat="43.942168075452514" lon="11.431305288808614"><ele>192.0</ele><time>2026-04-26T09:30:59.999Z</time></trkpt><trkpt lat="43.94218273908443" lon="11.431117703182334"><ele>192.0</ele><time>2026-04-26T09:31:00.999Z</time></trkpt><trkpt lat="43.94221232706864" lon="11.430936313213849"><ele>191.5</ele><time>2026-04-26T09:31:01.999Z</time></trkpt><trkpt lat="43.94225003327835" lon="11.43076003525196"><ele>191.0</ele><time>2026-04-26T09:31:02.999Z</time></trkpt><trkpt lat="43.942296246016355" lon="11.430594702995794"><ele>190.5</ele><time>2026-04-26T09:31:03.999Z</time></trkpt><trkpt lat="43.94236193231292" lon="11.430458882560357"><ele>190.0</ele><time>2026-04-26T09:31:04.999Z</time></trkpt><trkpt lat="43.94242522620911" lon="11.430317252754127"><ele>190.25</ele><time>2026-04-26T09:31:05.999Z</time></trkpt><trkpt lat="43.942555000860025" lon="11.430259459182368"><ele>190.5</ele><time>2026-04-26T09:31:06.999Z</time></trkpt><trkpt lat="43.94268167777055" lon="11.430165597872962"><ele>190.75</ele><time>2026-04-26T09:31:07.999Z</time></trkpt><trkpt lat="43.94281260637821" lon="11.430069703803959"><ele>191.0</ele><time>2026-04-26T09:31:08.999Z</time></trkpt><trkpt lat="43.94293225883424" lon="11.429943089502538"><ele>191.0</ele><time>2026-04-26T09:31:09.999Z</time></trkpt><trkpt lat="43.94303692826939" lon="11.429817533393694"><ele>191.0</ele><time>2026-04-26T09:31:10.999Z</time></trkpt><trkpt lat="43.94311165247535" lon="11.429665323157003"><ele>191.0</ele><time>2026-04-26T09:31:11.999Z</time></trkpt><trkpt lat="43.94314983363573" lon="11.42948496710288"><ele>191.0</ele><time>2026-04-26T09:31:12.999Z</time></trkpt><trkpt lat="43.94314465893529" lon="11.429270606572517"><ele>189.33333333333331</ele><time>2026-04-26T09:31:13.999Z</time></trkpt><trkpt lat="43.94316192171162" lon="11.42904756660039"><ele>187.66666666666666</ele><time>2026-04-26T09:31:14.999Z</time></trkpt><trkpt lat="43.94316932083601" lon="11.428823667625919"><ele>186.0</ele><time>2026-04-26T09:31:15.999Z</time></trkpt><trkpt lat="43.94317645558147" lon="11.428614778063835"><ele>186.0</ele><time>2026-04-26T09:31:16.999Z</time></trkpt><trkpt lat="43.94318380591049" lon="11.428405868056537"><ele>186.0</ele><time>2026-04-26T09:31:17.999Z</time></trkpt><trkpt lat="43.94319149950202" lon="11.428194953079554"><ele>186.0</ele><time>2026-04-26T09:31:18.999Z</time></trkpt><trkpt lat="43.943198966766424" lon="11.427990242972294"><ele>185.75</ele><time>2026-04-26T09:31:19.999Z</time></trkpt><trkpt lat="43.943206077906055" lon="11.427795450762032"><ele>185.5</ele><time>2026-04-26T09:31:20.999Z</time></trkpt><trkpt lat="43.94321334058222" lon="11.427598398623415"><ele>185.25</ele><time>2026-04-26T09:31:21.999Z</time></trkpt><trkpt lat="43.943220168266066" lon="11.427413148181433"><ele>185.0</ele><time>2026-04-26T09:31:22.999Z</time></trkpt><trkpt lat="43.943227171215774" lon="11.427232271065362"><ele>185.5</ele><time>2026-04-26T09:31:23.999Z</time></trkpt><trkpt lat="43.94323314171037" lon="11.427057727115784"><ele>186.0</ele><time>2026-04-26T09:31:24.999Z</time></trkpt><trkpt lat="43.943238937199716" lon="11.426888298660307"><ele>186.5</ele><time>2026-04-26T09:31:25.999Z</time></trkpt><trkpt lat="43.94324431026049" lon="11.426722085243782"><ele>187.0</ele><time>2026-04-26T09:31:26.999Z</time></trkpt><trkpt lat="43.94324955989023" lon="11.426562635283497"><ele>187.0</ele><time>2026-04-26T09:31:27.999Z</time></trkpt><trkpt lat="43.94325474121899" lon="11.426405259653645"><ele>187.0</ele><time>2026-04-26T09:31:28.999Z</time></trkpt><trkpt lat="43.94325994908396" lon="11.426246186244924"><ele>187.0</ele><time>2026-04-26T09:31:30Z</time></trkpt><trkpt lat="43.94326489189897" lon="11.426094152210034"><ele>187.0</ele><time>2026-04-26T09:31:31Z</time></trkpt><trkpt lat="43.94326979119482" lon="11.425943456672604"><ele>187.0</ele><time>2026-04-26T09:31:32Z</time></trkpt><trkpt lat="43.94327459967845" lon="11.425795554163395"><ele>187.0</ele><time>2026-04-26T09:31:33Z</time></trkpt><trkpt lat="43.943279403844365" lon="11.425653140013345"><ele>187.0</ele><time>2026-04-26T09:31:34Z</time></trkpt><trkpt lat="43.94328436815748" lon="11.425506525563753"><ele>187.0</ele><time>2026-04-26T09:31:35Z</time></trkpt><trkpt lat="43.943289367158435" lon="11.425358886661188"><ele>187.0</ele><time>2026-04-26T09:31:36Z</time></trkpt><trkpt lat="43.943294506471695" lon="11.425207103973081"><ele>187.0</ele><time>2026-04-26T09:31:37Z</time></trkpt><trkpt lat="43.94329965880348" lon="11.425054543535369"><ele>187.6</ele><time>2026-04-26T09:31:38Z</time></trkpt><trkpt lat="43.943304775986675" lon="11.42490303695379"><ele>188.2</ele><time>2026-04-26T09:31:39Z</time></trkpt><trkpt lat="43.943309997701725" lon="11.424750279423906"><ele>188.8</ele><time>2026-04-26T09:31:40Z</time></trkpt><trkpt lat="43.94331542068382" lon="11.42459433366641"><ele>189.4</ele><time>2026-04-26T09:31:41Z</time></trkpt><trkpt lat="43.943320988602686" lon="11.42443422001063"><ele>190.0</ele><time>2026-04-26T09:31:42Z</time></trkpt><trkpt lat="43.94332661559936" lon="11.424272407477769"><ele>190.75</ele><time>2026-04-26T09:31:43Z</time></trkpt><trkpt lat="43.94333235876784" lon="11.424107254275565"><ele>191.5</ele><time>2026-04-26T09:31:44Z</time></trkpt><trkpt lat="43.94333807765057" lon="11.423940045555236"><ele>192.25</ele><time>2026-04-26T09:31:45Z</time></trkpt><trkpt lat="43.943344150386565" lon="11.423768346189695"><ele>193.0</ele><time>2026-04-26T09:31:46Z</time></trkpt><trkpt lat="43.943350345278766" lon="11.423594205865928"><ele>193.5</ele><time>2026-04-26T09:31:47Z</time></trkpt><trkpt lat="43.94335672678334" lon="11.423413670207427"><ele>194.0</ele><time>2026-04-26T09:31:48Z</time></trkpt><trkpt lat="43.943363088057644" lon="11.423233189585616"><ele>194.5</ele><time>2026-04-26T09:31:49Z</time></trkpt><trkpt lat="43.94336961415053" lon="11.423048032819338"><ele>195.0</ele><time>2026-04-26T09:31:50Z</time></trkpt><trkpt lat="43.943376234093485" lon="11.422860213353431"><ele>195.0</ele><time>2026-04-26T09:31:51Z</time></trkpt><trkpt lat="43.94338290647005" lon="11.422670906287895"><ele>195.0</ele><time>2026-04-26T09:31:52Z</time></trkpt><trkpt lat="43.94339013013458" lon="11.422476248814432"><ele>195.0</ele><time>2026-04-26T09:31:53Z</time></trkpt><trkpt lat="43.943398108951754" lon="11.42227633575161"><ele>195.0</ele><time>2026-04-26T09:31:54Z</time></trkpt><trkpt lat="43.943406165328746" lon="11.422074479362186"><ele>195.5</ele><time>2026-04-26T09:31:55Z</time></trkpt><trkpt lat="43.943414152118784" lon="11.421874366572789"><ele>196.0</ele><time>2026-04-26T09:31:56Z</time></trkpt><trkpt lat="43.94342198408833" lon="11.421678132794263"><ele>196.5</ele><time>2026-04-26T09:31:57Z</time></trkpt><trkpt lat="43.9434295281301" lon="11.42148911327321"><ele>197.0</ele><time>2026-04-26T09:31:58Z</time></trkpt><trkpt lat="43.94343707194215" lon="11.421300099516792"><ele>197.25</ele><time>2026-04-26T09:31:59Z</time></trkpt><trkpt lat="43.94344474804947" lon="11.421107771019349"><ele>197.5</ele><time>2026-04-26T09:32:00Z</time></trkpt><trkpt lat="43.94345260846132" lon="11.420910824702153"><ele>197.75</ele><time>2026-04-26T09:32:01Z</time></trkpt><trkpt lat="43.943462279171555" lon="11.420707518245516"><ele>198.0</ele><time>2026-04-26T09:32:02Z</time></trkpt><trkpt lat="43.94347707646795" lon="11.420497154882545"><ele>197.33333333333331</ele><time>2026-04-26T09:32:03Z</time></trkpt><trkpt lat="43.94349790124253" lon="11.42028527280884"><ele>196.66666666666666</ele><time>2026-04-26T09:32:04Z</time></trkpt><trkpt lat="43.943524490580835" lon="11.420076103917218"><ele>196.0</ele><time>2026-04-26T09:32:05Z</time></trkpt><trkpt lat="43.94355758707176" lon="11.419870868319913"><ele>196.0</ele><time>2026-04-26T09:32:06Z</time></trkpt><trkpt lat="43.943591380185225" lon="11.41967174470899"><ele>196.0</ele><time>2026-04-26T09:32:07Z</time></trkpt><trkpt lat="43.943625194965676" lon="11.419470057442558"><ele>196.0</ele><time>2026-04-26T09:32:08Z</time></trkpt><trkpt lat="43.94366042483732" lon="11.419267165745115"><ele>196.0</ele><time>2026-04-26T09:32:09Z</time></trkpt><trkpt lat="43.94370177194385" lon="11.419062898872962"><ele>196.0</ele><time>2026-04-26T09:32:10Z</time></trkpt><trkpt lat="43.943756374493404" lon="11.418858740584385"><ele>196.0</ele><time>2026-04-26T09:32:11Z</time></trkpt><trkpt lat="43.94382655877424" lon="11.418666931179656"><ele>196.0</ele><time>2026-04-26T09:32:12Z</time></trkpt><trkpt lat="43.94389517598832" lon="11.418485637783984"><ele>196.0</ele><time>2026-04-26T09:32:13Z</time></trkpt><trkpt lat="43.94396424292475" lon="11.418311339357846"><ele>196.0</ele><time>2026-04-26T09:32:14Z</time></trkpt><trkpt lat="43.94403384671735" lon="11.418136010134694"><ele>196.0</ele><time>2026-04-26T09:32:15Z</time></trkpt><trkpt lat="43.94410309096073" lon="11.417959383145895"><ele>196.0</ele><time>2026-04-26T09:32:16Z</time></trkpt><trkpt lat="43.94417370527207" lon="11.417778023445816"><ele>196.33333333333331</ele><time>2026-04-26T09:32:17Z</time></trkpt><trkpt lat="43.94424676726693" lon="11.417590377344213"><ele>196.66666666666669</ele><time>2026-04-26T09:32:18Z</time></trkpt><trkpt lat="43.944320371312415" lon="11.41740133907472"><ele>197.0</ele><time>2026-04-26T09:32:19Z</time></trkpt><trkpt lat="43.944395526082076" lon="11.417203768452879"><ele>196.66666666666669</ele><time>2026-04-26T09:32:20Z</time></trkpt><trkpt lat="43.94446330359044" lon="11.416997195356302"><ele>196.33333333333331</ele><time>2026-04-26T09:32:21Z</time></trkpt><trkpt lat="43.94451892923378" lon="11.416778176150965"><ele>196.0</ele><time>2026-04-26T09:32:22Z</time></trkpt><trkpt lat="43.944544541395686" lon="11.416545909574184"><ele>196.66666666666666</ele><time>2026-04-26T09:32:23Z</time></trkpt><trkpt lat="43.944570743389384" lon="11.41631377669465"><ele>197.33333333333331</ele><time>2026-04-26T09:32:24Z</time></trkpt><trkpt lat="43.944578649045496" lon="11.416063273228565"><ele>198.0</ele><time>2026-04-26T09:32:25Z</time></trkpt><trkpt lat="43.94457443988577" lon="11.4158046067665"><ele>198.0</ele><time>2026-04-26T09:32:26Z</time></trkpt><trkpt lat="43.94457700566984" lon="11.415531920063616"><ele>198.0</ele><time>2026-04-26T09:32:27Z</time></trkpt><trkpt lat="43.944572229666136" lon="11.415245887080047"><ele>198.0</ele><time>2026-04-26T09:32:28Z</time></trkpt><trkpt lat="43.94456739595674" lon="11.414954549581855"><ele>198.0</ele><time>2026-04-26T09:32:29Z</time></trkpt><trkpt lat="43.94456524729022" lon="11.414693573917647"><ele>198.0</ele><time>2026-04-26T09:32:30Z</time></trkpt><trkpt lat="43.94456250270558" lon="11.414448353714507"><ele>198.0</ele><time>2026-04-26T09:32:31Z</time></trkpt><trkpt lat="43.94455902005536" lon="11.41421555037063"><ele>198.0</ele><time>2026-04-26T09:32:32Z</time></trkpt><trkpt lat="43.944559491287485" lon="11.413998273908849"><ele>198.0</ele><time>2026-04-26T09:32:33Z</time></trkpt><trkpt lat="43.94457845617633" lon="11.41378839314428"><ele>198.0</ele><time>2026-04-26T09:32:34Z</time></trkpt><trkpt lat="43.94461871079924" lon="11.413583447541"><ele>198.66666666666669</ele><time>2026-04-26T09:32:35Z</time></trkpt><trkpt lat="43.94467695868968" lon="11.413388029533328"><ele>199.33333333333334</ele><time>2026-04-26T09:32:36Z</time></trkpt><trkpt lat="43.94474735454742" lon="11.413192851659108"><ele>200.0</ele><time>2026-04-26T09:32:37Z</time></trkpt><trkpt lat="43.94482317327091" lon="11.41299595581049"><ele>199.5</ele><time>2026-04-26T09:32:38Z</time></trkpt><trkpt lat="43.94489736517466" lon="11.412810319033543"><ele>199.0</ele><time>2026-04-26T09:32:39Z</time></trkpt><trkpt lat="43.94496965711542" lon="11.412632857208981"><ele>198.5</ele><time>2026-04-26T09:32:40Z</time></trkpt><trkpt lat="43.94503894197259" lon="11.412462776956392"><ele>198.0</ele><time>2026-04-26T09:32:41Z</time></trkpt><trkpt lat="43.94511044096059" lon="11.412288115800074"><ele>196.75</ele><time>2026-04-26T09:32:42Z</time></trkpt><trkpt lat="43.9451800723932" lon="11.412118054978666"><ele>195.5</ele><time>2026-04-26T09:32:43Z</time></trkpt><trkpt lat="43.945249301185356" lon="11.411948977541309"><ele>194.25</ele><time>2026-04-26T09:32:44Z</time></trkpt><trkpt lat="43.94531803805075" lon="11.411778269881376"><ele>193.0</ele><time>2026-04-26T09:32:45Z</time></trkpt><trkpt lat="43.94538410299726" lon="11.411613022536018"><ele>193.0</ele><time>2026-04-26T09:32:46Z</time></trkpt><trkpt lat="43.945450870403306" lon="11.411447575431408"><ele>193.0</ele><time>2026-04-26T09:32:47Z</time></trkpt><trkpt lat="43.94552177950551" lon="11.411274703605486"><ele>193.0</ele><time>2026-04-26T09:32:48Z</time></trkpt><trkpt lat="43.9455927642236" lon="11.411099213594714"><ele>193.0</ele><time>2026-04-26T09:32:49Z</time></trkpt><trkpt lat="43.94566520229783" lon="11.410920063745191"><ele>192.66666666666666</ele><time>2026-04-26T09:32:50Z</time></trkpt><trkpt lat="43.9457378434833" lon="11.410739811296054"><ele>192.33333333333331</ele><time>2026-04-26T09:32:51Z</time></trkpt><trkpt lat="43.9458113252194" lon="11.410558806276587"><ele>192.0</ele><time>2026-04-26T09:32:52Z</time></trkpt><trkpt lat="43.94588609020916" lon="11.410374640253172"><ele>192.66666666666669</ele><time>2026-04-26T09:32:52.999Z</time></trkpt><trkpt lat="43.94596108499366" lon="11.410190517226074"><ele>193.33333333333334</ele><time>2026-04-26T09:32:53.999Z</time></trkpt><trkpt lat="43.946037277335506" lon="11.410003784598965"><ele>194.0</ele><time>2026-04-26T09:32:54.999Z</time></trkpt><trkpt lat="43.9461128322044" lon="11.409818614287248"><ele>194.66666666666669</ele><time>2026-04-26T09:32:55.999Z</time></trkpt><trkpt lat="43.94618785754796" lon="11.409634741765712"><ele>195.33333333333331</ele><time>2026-04-26T09:32:56.999Z</time></trkpt><trkpt lat="43.946262831824995" lon="11.409454836277671"><ele>196.0</ele><time>2026-04-26T09:32:57.999Z</time></trkpt><trkpt lat="43.94633724002335" lon="11.40927732304789"><ele>196.0</ele><time>2026-04-26T09:32:58.999Z</time></trkpt><trkpt lat="43.946412051855326" lon="11.409104063147506"><ele>196.0</ele><time>2026-04-26T09:32:59.999Z</time></trkpt><trkpt lat="43.94649185751254" lon="11.40892975739651"><ele>196.0</ele><time>2026-04-26T09:33:00.999Z</time></trkpt><trkpt lat="43.94657727508302" lon="11.408754919985036"><ele>196.0</ele><time>2026-04-26T09:33:01.999Z</time></trkpt><trkpt lat="43.94666676158402" lon="11.408581872613995"><ele>196.33333333333331</ele><time>2026-04-26T09:33:02.999Z</time></trkpt><trkpt lat="43.94675940224236" lon="11.40840736967359"><ele>196.66666666666669</ele><time>2026-04-26T09:33:03.999Z</time></trkpt><trkpt lat="43.94685726922825" lon="11.408235915010634"><ele>197.0</ele><time>2026-04-26T09:33:04.999Z</time></trkpt><trkpt lat="43.94695754902065" lon="11.408066713141048"><ele>196.5</ele><time>2026-04-26T09:33:05.999Z</time></trkpt><trkpt lat="43.947058837159226" lon="11.407910543270384"><ele>196.0</ele><time>2026-04-26T09:33:06.999Z</time></trkpt><trkpt lat="43.947156524336684" lon="11.407776386240954"><ele>195.5</ele><time>2026-04-26T09:33:07.999Z</time></trkpt><trkpt lat="43.9472420229639" lon="11.407671333794587"><ele>195.0</ele><time>2026-04-26T09:33:08.999Z</time></trkpt><trkpt lat="43.947312551454665" lon="11.40759417755825"><ele>195.0</ele><time>2026-04-26T09:33:09.999Z</time></trkpt><trkpt lat="43.94737585271866" lon="11.407525901665874"><ele>195.0</ele><time>2026-04-26T09:33:10.999Z</time></trkpt><trkpt lat="43.94744191122607" lon="11.40745586753311"><ele>195.0</ele><time>2026-04-26T09:33:11.999Z</time></trkpt><trkpt lat="43.94750346479051" lon="11.407393090153953"><ele>195.0</ele><time>2026-04-26T09:33:12.999Z</time></trkpt><trkpt lat="43.94755699387847" lon="11.407339997897365"><ele>195.0</ele><time>2026-04-26T09:33:13.999Z</time></trkpt><trkpt lat="43.9476582289199" lon="11.407239588759788"><ele>195.0</ele><time>2026-04-26T09:33:15.999Z</time></trkpt><trkpt lat="43.94771825950009" lon="11.407180049424703"><ele>194.85714285714286</ele><time>2026-04-26T09:33:16.999Z</time></trkpt><trkpt lat="43.947777989938544" lon="11.407120010593342"><ele>194.71428571428572</ele><time>2026-04-26T09:33:17.999Z</time></trkpt><trkpt lat="43.94783849237658" lon="11.407059553811813"><ele>194.57142857142856</ele><time>2026-04-26T09:33:18.999Z</time></trkpt><trkpt lat="43.947899113088425" lon="11.406998989304672"><ele>194.42857142857144</ele><time>2026-04-26T09:33:19.999Z</time></trkpt><trkpt lat="43.947961241373854" lon="11.406936920112631"><ele>194.2857142857143</ele><time>2026-04-26T09:33:20.999Z</time></trkpt><trkpt lat="43.94801916920244" lon="11.406879045991403"><ele>194.14285714285714</ele><time>2026-04-26T09:33:21.999Z</time></trkpt><trkpt lat="43.94807429656264" lon="11.406823969840996"><ele>194.0</ele><time>2026-04-26T09:33:22.999Z</time></trkpt><trkpt lat="43.94812739485867" lon="11.406770920746334"><ele>194.00000000000003</ele><time>2026-04-26T09:33:23.999Z</time></trkpt><trkpt lat="43.94818244398709" lon="11.406715920682316"><ele>194.0</ele><time>2026-04-26T09:33:24.999Z</time></trkpt><trkpt lat="43.94823759947985" lon="11.406659899853697"><ele>194.0</ele><time>2026-04-26T09:33:25.999Z</time></trkpt><trkpt lat="43.94829740408013" lon="11.406601301124352"><ele>194.0</ele><time>2026-04-26T09:33:26.999Z</time></trkpt><trkpt lat="43.94836537906739" lon="11.406534991926417"><ele>194.00000000000003</ele><time>2026-04-26T09:33:27.999Z</time></trkpt><trkpt lat="43.94843805429967" lon="11.406464483084559"><ele>194.0</ele><time>2026-04-26T09:33:28.999Z</time></trkpt><trkpt lat="43.948513580203" lon="11.406391246035286"><ele>193.2</ele><time>2026-04-26T09:33:29.999Z</time></trkpt><trkpt lat="43.9485943469815" lon="11.406312927540869"><ele>192.39999999999998</ele><time>2026-04-26T09:33:30.999Z</time></trkpt><trkpt lat="43.94867459580877" lon="11.40623511123509"><ele>191.6</ele><time>2026-04-26T09:33:31.999Z</time></trkpt><trkpt lat="43.94876216910132" lon="11.406145849052301"><ele>190.8</ele><time>2026-04-26T09:33:32.999Z</time></trkpt><trkpt lat="43.948848379300706" lon="11.406051768136162"><ele>190.0</ele><time>2026-04-26T09:33:33.999Z</time></trkpt><trkpt lat="43.94893419944966" lon="11.405954046876575"><ele>190.0</ele><time>2026-04-26T09:33:34.999Z</time></trkpt><trkpt lat="43.94901321299169" lon="11.405851043286834"><ele>190.0</ele><time>2026-04-26T09:33:36Z</time></trkpt><trkpt lat="43.949074962813675" lon="11.405751832236872"><ele>190.0</ele><time>2026-04-26T09:33:37Z</time></trkpt><trkpt lat="43.94915184055985" lon="11.40567661699031"><ele>190.0</ele><time>2026-04-26T09:33:38Z</time></trkpt><trkpt lat="43.949232217275764" lon="11.40561017176386"><ele>190.0</ele><time>2026-04-26T09:33:39Z</time></trkpt><trkpt lat="43.94931471861743" lon="11.405535738285497"><ele>190.75</ele><time>2026-04-26T09:33:40Z</time></trkpt><trkpt lat="43.949398977795525" lon="11.405455792655738"><ele>191.5</ele><time>2026-04-26T09:33:41Z</time></trkpt><trkpt lat="43.94949519534448" lon="11.405370731381458"><ele>192.25</ele><time>2026-04-26T09:33:42Z</time></trkpt><trkpt lat="43.94961340826937" lon="11.405300189199542"><ele>193.0</ele><time>2026-04-26T09:33:43Z</time></trkpt><trkpt lat="43.94973347364973" lon="11.405190131635429"><ele>193.0</ele><time>2026-04-26T09:33:44Z</time></trkpt><trkpt lat="43.94985069794435" lon="11.40505828496126"><ele>193.0</ele><time>2026-04-26T09:33:45Z</time></trkpt><trkpt lat="43.94997335093628" lon="11.40493669092526"><ele>193.0</ele><time>2026-04-26T09:33:46Z</time></trkpt><trkpt lat="43.95010036788113" lon="11.404801143399364"><ele>194.0</ele><time>2026-04-26T09:33:47Z</time></trkpt><trkpt lat="43.9502251634239" lon="11.40467147255202"><ele>195.0</ele><time>2026-04-26T09:33:48Z</time></trkpt><trkpt lat="43.95034336227415" lon="11.404528681753195"><ele>196.0</ele><time>2026-04-26T09:33:49Z</time></trkpt><trkpt lat="43.95045454063223" lon="11.404392606034545"><ele>196.0</ele><time>2026-04-26T09:33:50Z</time></trkpt><trkpt lat="43.95053687246303" lon="11.404225732037352"><ele>196.0</ele><time>2026-04-26T09:33:51Z</time></trkpt><trkpt lat="43.950618328862326" lon="11.404067148329142"><ele>196.0</ele><time>2026-04-26T09:33:52Z</time></trkpt><trkpt lat="43.950691780343774" lon="11.403907828883215"><ele>196.0</ele><time>2026-04-26T09:33:53Z</time></trkpt><trkpt lat="43.95077534043791" lon="11.403750172950458"><ele>195.5</ele><time>2026-04-26T09:33:54Z</time></trkpt><trkpt lat="43.950847540894756" lon="11.403581939339393"><ele>195.0</ele><time>2026-04-26T09:33:55Z</time></trkpt><trkpt lat="43.95090510862872" lon="11.403405408946405"><ele>194.5</ele><time>2026-04-26T09:33:56Z</time></trkpt><trkpt lat="43.950975628628534" lon="11.403246931301256"><ele>194.0</ele><time>2026-04-26T09:33:57Z</time></trkpt><trkpt lat="43.951043211831596" lon="11.403086440970299"><ele>194.0</ele><time>2026-04-26T09:33:58Z</time></trkpt><trkpt lat="43.95111392678928" lon="11.402917035965702"><ele>194.0</ele><time>2026-04-26T09:33:59Z</time></trkpt><trkpt lat="43.95120238124077" lon="11.402753053646425"><ele>194.0</ele><time>2026-04-26T09:34:00Z</time></trkpt><trkpt lat="43.9512760779726" lon="11.402581946563275"><ele>194.0</ele><time>2026-04-26T09:34:01Z</time></trkpt><trkpt lat="43.951350186689474" lon="11.402412872468012"><ele>194.0</ele><time>2026-04-26T09:34:02Z</time></trkpt><trkpt lat="43.95142319852474" lon="11.40224630070476"><ele>194.0</ele><time>2026-04-26T09:34:03Z</time></trkpt><trkpt lat="43.95149324792039" lon="11.402086487505999"><ele>194.0</ele><time>2026-04-26T09:34:04Z</time></trkpt><trkpt lat="43.9515614753028" lon="11.401930626949976"><ele>194.0</ele><time>2026-04-26T09:34:05Z</time></trkpt><trkpt lat="43.95162728780525" lon="11.401780143406173"><ele>194.25</ele><time>2026-04-26T09:34:06Z</time></trkpt><trkpt lat="43.95169020716697" lon="11.401635648359568"><ele>194.5</ele><time>2026-04-26T09:34:07Z</time></trkpt><trkpt lat="43.95175098827338" lon="11.40149579349081"><ele>194.75</ele><time>2026-04-26T09:34:08Z</time></trkpt><trkpt lat="43.951809628144645" lon="11.401360840171904"><ele>195.0</ele><time>2026-04-26T09:34:09Z</time></trkpt><trkpt lat="43.95186913126334" lon="11.401224382792469"><ele>195.0</ele><time>2026-04-26T09:34:10Z</time></trkpt><trkpt lat="43.951929599424105" lon="11.40108541292094"><ele>195.0</ele><time>2026-04-26T09:34:11Z</time></trkpt><trkpt lat="43.95199004247318" lon="11.400944088667183"><ele>195.0</ele><time>2026-04-26T09:34:12Z</time></trkpt><trkpt lat="43.952051215946824" lon="11.400800650024937"><ele>195.0</ele><time>2026-04-26T09:34:13Z</time></trkpt><trkpt lat="43.95211259280849" lon="11.400657276769351"><ele>195.0</ele><time>2026-04-26T09:34:14Z</time></trkpt><trkpt lat="43.95217328550407" lon="11.400516022991615"><ele>195.0</ele><time>2026-04-26T09:34:15Z</time></trkpt><trkpt lat="43.95223391825349" lon="11.400374908804835"><ele>195.0</ele><time>2026-04-26T09:34:16Z</time></trkpt><trkpt lat="43.95229503272945" lon="11.40023267339457"><ele>195.0</ele><time>2026-04-26T09:34:17Z</time></trkpt><trkpt lat="43.95235579868883" lon="11.400091813579575"><ele>195.25</ele><time>2026-04-26T09:34:18Z</time></trkpt><trkpt lat="43.952417221856905" lon="11.399949608645105"><ele>195.5</ele><time>2026-04-26T09:34:19Z</time></trkpt><trkpt lat="43.952483090665055" lon="11.399797240895692"><ele>195.75</ele><time>2026-04-26T09:34:20Z</time></trkpt><trkpt lat="43.952548538458096" lon="11.399645852068621"><ele>196.0</ele><time>2026-04-26T09:34:21Z</time></trkpt><trkpt lat="43.952613583521654" lon="11.399495396992416"><ele>195.75</ele><time>2026-04-26T09:34:22Z</time></trkpt><trkpt lat="43.95268199171462" lon="11.399337103386628"><ele>195.5</ele><time>2026-04-26T09:34:23Z</time></trkpt><trkpt lat="43.95275462070626" lon="11.39916906058892"><ele>195.25</ele><time>2026-04-26T09:34:24Z</time></trkpt><trkpt lat="43.95282780450593" lon="11.398999734018288"><ele>195.0</ele><time>2026-04-26T09:34:25Z</time></trkpt><trkpt lat="43.95290167120681" lon="11.398828827484015"><ele>195.0</ele><time>2026-04-26T09:34:26Z</time></trkpt><trkpt lat="43.9529760339621" lon="11.39865677321371"><ele>195.0</ele><time>2026-04-26T09:34:27Z</time></trkpt><trkpt lat="43.953050236249105" lon="11.398487049204418"><ele>195.0</ele><time>2026-04-26T09:34:28Z</time></trkpt><trkpt lat="43.95312336757786" lon="11.3983174657749"><ele>195.0</ele><time>2026-04-26T09:34:29Z</time></trkpt><trkpt lat="43.953195076444544" lon="11.39815063114852"><ele>194.75</ele><time>2026-04-26T09:34:30Z</time></trkpt><trkpt lat="43.9532668844545" lon="11.397984083284712"><ele>194.5</ele><time>2026-04-26T09:34:31Z</time></trkpt><trkpt lat="43.9533385131781" lon="11.397817385015424"><ele>194.25</ele><time>2026-04-26T09:34:32Z</time></trkpt><trkpt lat="43.95340818016238" lon="11.397654460262023"><ele>194.0</ele><time>2026-04-26T09:34:33Z</time></trkpt><trkpt lat="43.95347742071354" lon="11.39749512373997"><ele>194.25</ele><time>2026-04-26T09:34:34Z</time></trkpt><trkpt lat="43.9535449492235" lon="11.397336051021744"><ele>194.5</ele><time>2026-04-26T09:34:35Z</time></trkpt><trkpt lat="43.953612775997755" lon="11.397175915564436"><ele>194.75</ele><time>2026-04-26T09:34:36Z</time></trkpt><trkpt lat="43.95367876948289" lon="11.397014186164789"><ele>195.0</ele><time>2026-04-26T09:34:37Z</time></trkpt><trkpt lat="43.95374263614018" lon="11.39685023478127"><ele>195.0</ele><time>2026-04-26T09:34:38Z</time></trkpt><trkpt lat="43.95380710675275" lon="11.396685183533227"><ele>195.0</ele><time>2026-04-26T09:34:39Z</time></trkpt><trkpt lat="43.95387180492301" lon="11.396519982926925"><ele>195.0</ele><time>2026-04-26T09:34:40Z</time></trkpt><trkpt lat="43.9539365783452" lon="11.396349616531161"><ele>195.0</ele><time>2026-04-26T09:34:41Z</time></trkpt><trkpt lat="43.9539997278714" lon="11.396180697175529"><ele>195.0</ele><time>2026-04-26T09:34:42Z</time></trkpt><trkpt lat="43.954059968107295" lon="11.396017253426535"><ele>195.0</ele><time>2026-04-26T09:34:43Z</time></trkpt><trkpt lat="43.95411889119363" lon="11.395857983401777"><ele>195.0</ele><time>2026-04-26T09:34:44Z</time></trkpt><trkpt lat="43.954178973430636" lon="11.395699184340646"><ele>195.0</ele><time>2026-04-26T09:34:45Z</time></trkpt><trkpt lat="43.954239458087876" lon="11.395540520146303"><ele>196.5</ele><time>2026-04-26T09:34:46Z</time></trkpt><trkpt lat="43.95429815634279" lon="11.395384531006615"><ele>198.0</ele><time>2026-04-26T09:34:47Z</time></trkpt><trkpt lat="43.95435761647277" lon="11.395226263905696"><ele>199.5</ele><time>2026-04-26T09:34:48Z</time></trkpt><trkpt lat="43.95441753178723" lon="11.395066785197399"><ele>201.0</ele><time>2026-04-26T09:34:49Z</time></trkpt><trkpt lat="43.95447875479781" lon="11.394904339739053"><ele>201.0</ele><time>2026-04-26T09:34:50Z</time></trkpt><trkpt lat="43.954539939657764" lon="11.39474262053106"><ele>201.0</ele><time>2026-04-26T09:34:51Z</time></trkpt><trkpt lat="43.954602142504925" lon="11.39458071829152"><ele>201.0</ele><time>2026-04-26T09:34:52Z</time></trkpt><trkpt lat="43.954665563701" lon="11.394420251301218"><ele>201.0</ele><time>2026-04-26T09:34:53Z</time></trkpt><trkpt lat="43.95472733084139" lon="11.39426808055856"><ele>200.75</ele><time>2026-04-26T09:34:54Z</time></trkpt><trkpt lat="43.954786909203385" lon="11.394120695492722"><ele>200.5</ele><time>2026-04-26T09:34:55Z</time></trkpt><trkpt lat="43.954845785827914" lon="11.393978106109135"><ele>200.25</ele><time>2026-04-26T09:34:56Z</time></trkpt><trkpt lat="43.95490562053172" lon="11.39383633709443"><ele>200.0</ele><time>2026-04-26T09:34:57Z</time></trkpt><trkpt lat="43.95497055207943" lon="11.393695923774018"><ele>199.75</ele><time>2026-04-26T09:34:58Z</time></trkpt><trkpt lat="43.95502084716087" lon="11.3935322955381"><ele>199.5</ele><time>2026-04-26T09:34:59Z</time></trkpt><trkpt lat="43.95509151422712" lon="11.393384561658554"><ele>199.25</ele><time>2026-04-26T09:35:00Z</time></trkpt><trkpt lat="43.9551633234169" lon="11.39323576204334"><ele>199.0</ele><time>2026-04-26T09:35:01Z</time></trkpt><trkpt lat="43.95523444151052" lon="11.393083595186082"><ele>198.0</ele><time>2026-04-26T09:35:02Z</time></trkpt><trkpt lat="43.95530406500949" lon="11.392932922788553"><ele>197.0</ele><time>2026-04-26T09:35:03Z</time></trkpt><trkpt lat="43.955389478774826" lon="11.392801027381337"><ele>196.0</ele><time>2026-04-26T09:35:04Z</time></trkpt><trkpt lat="43.95544169143406" lon="11.392647397656404"><ele>195.0</ele><time>2026-04-26T09:35:05Z</time></trkpt><trkpt lat="43.95550668624416" lon="11.392513823326661"><ele>195.0</ele><time>2026-04-26T09:35:06Z</time></trkpt><trkpt lat="43.955570997285655" lon="11.392381419741179"><ele>195.0</ele><time>2026-04-26T09:35:07Z</time></trkpt><trkpt lat="43.95563084087392" lon="11.392250710414233"><ele>195.0</ele><time>2026-04-26T09:35:08Z</time></trkpt><trkpt lat="43.95568848709386" lon="11.392121599093608"><ele>195.0</ele><time>2026-04-26T09:35:09Z</time></trkpt><trkpt lat="43.95575807163408" lon="11.392005238595255"><ele>195.0</ele><time>2026-04-26T09:35:10Z</time></trkpt><trkpt lat="43.95581534987176" lon="11.391882043996377"><ele>195.0</ele><time>2026-04-26T09:35:11Z</time></trkpt><trkpt lat="43.95586985926894" lon="11.391764244455741"><ele>195.0</ele><time>2026-04-26T09:35:12Z</time></trkpt><trkpt lat="43.955920837054556" lon="11.391653642779422"><ele>195.0</ele><time>2026-04-26T09:35:13Z</time></trkpt><trkpt lat="43.955968908896956" lon="11.391549289220231"><ele>195.0</ele><time>2026-04-26T09:35:14Z</time></trkpt><trkpt lat="43.95601030529443" lon="11.391459426729801"><ele>195.0</ele><time>2026-04-26T09:35:15Z</time></trkpt><trkpt lat="43.95607139439731" lon="11.391326865224098"><ele>195.0</ele><time>2026-04-26T09:35:17Z</time></trkpt><trkpt lat="43.95611384434276" lon="11.391234758118113"><ele>195.0</ele><time>2026-04-26T09:35:19Z</time></trkpt><trkpt lat="43.956151798879844" lon="11.391152405035601"><ele>195.0</ele><time>2026-04-26T09:35:57.999Z</time></trkpt><trkpt lat="43.956205574067795" lon="11.391010417321507"><ele>195.0</ele><time>2026-04-26T09:36:00.999Z</time></trkpt><trkpt lat="43.956281593912536" lon="11.390867905356105"><ele>195.0</ele><time>2026-04-26T09:36:02.999Z</time></trkpt><trkpt lat="43.956320414444825" lon="11.39077759943214"><ele>195.0</ele><time>2026-04-26T09:36:03.999Z</time></trkpt><trkpt lat="43.95636648382562" lon="11.390662504759339"><ele>195.0</ele><time>2026-04-26T09:36:04.999Z</time></trkpt><trkpt lat="43.95640893363817" lon="11.390553723716517"><ele>195.0</ele><time>2026-04-26T09:36:05.999Z</time></trkpt><trkpt lat="43.956450837653435" lon="11.390443344322101"><ele>195.0</ele><time>2026-04-26T09:36:06.999Z</time></trkpt><trkpt lat="43.95649514844782" lon="11.390327202483826"><ele>195.0</ele><time>2026-04-26T09:36:07.999Z</time></trkpt><trkpt lat="43.95654523935494" lon="11.39019656758628"><ele>195.0</ele><time>2026-04-26T09:36:08.999Z</time></trkpt><trkpt lat="43.956597004364234" lon="11.390061566976396"><ele>195.0</ele><time>2026-04-26T09:36:09.999Z</time></trkpt><trkpt lat="43.95665050931916" lon="11.38991881674262"><ele>195.0</ele><time>2026-04-26T09:36:10.999Z</time></trkpt><trkpt lat="43.95669868995841" lon="11.38978484453657"><ele>195.0</ele><time>2026-04-26T09:36:11.999Z</time></trkpt><trkpt lat="43.95674399510786" lon="11.38965801723095"><ele>195.0</ele><time>2026-04-26T09:36:12.999Z</time></trkpt><trkpt lat="43.95677258637077" lon="11.389529090920371"><ele>195.8</ele><time>2026-04-26T09:36:13.999Z</time></trkpt><trkpt lat="43.95681813810507" lon="11.38940378485327"><ele>196.6</ele><time>2026-04-26T09:36:14.999Z</time></trkpt><trkpt lat="43.95686782121102" lon="11.38926770016676"><ele>197.39999999999998</ele><time>2026-04-26T09:36:15.999Z</time></trkpt><trkpt lat="43.956922537531284" lon="11.389140026445869"><ele>198.2</ele><time>2026-04-26T09:36:16.999Z</time></trkpt><trkpt lat="43.9569693259637" lon="11.389002753465276"><ele>199.0</ele><time>2026-04-26T09:36:17.999Z</time></trkpt><trkpt lat="43.95701868236496" lon="11.388876449951601"><ele>198.79999999999998</ele><time>2026-04-26T09:36:18.999Z</time></trkpt><trkpt lat="43.95706447529849" lon="11.388752745568512"><ele>198.6</ele><time>2026-04-26T09:36:19.999Z</time></trkpt><trkpt lat="43.957111099607395" lon="11.388621106522118"><ele>198.4</ele><time>2026-04-26T09:36:20.999Z</time></trkpt><trkpt lat="43.9571540857308" lon="11.388500357808429"><ele>198.2</ele><time>2026-04-26T09:36:21.999Z</time></trkpt><trkpt lat="43.95719558269436" lon="11.388388547346281"><ele>198.0</ele><time>2026-04-26T09:36:22.999Z</time></trkpt><trkpt lat="43.957244901275125" lon="11.388285936683381"><ele>198.0</ele><time>2026-04-26T09:36:23.999Z</time></trkpt><trkpt lat="43.957286163844294" lon="11.388175710715112"><ele>198.0</ele><time>2026-04-26T09:36:24.999Z</time></trkpt><trkpt lat="43.95732994583321" lon="11.388058192854704"><ele>198.0</ele><time>2026-04-26T09:36:25.999Z</time></trkpt><trkpt lat="43.95737781908149" lon="11.38792937709926"><ele>198.0</ele><time>2026-04-26T09:36:26.999Z</time></trkpt><trkpt lat="43.957426323938584" lon="11.387798863188356"><ele>198.0</ele><time>2026-04-26T09:36:27.999Z</time></trkpt><trkpt lat="43.95747284172006" lon="11.387673695256911"><ele>197.8</ele><time>2026-04-26T09:36:28.999Z</time></trkpt><trkpt lat="43.957518980990166" lon="11.387549299159705"><ele>197.60000000000002</ele><time>2026-04-26T09:36:29.999Z</time></trkpt><trkpt lat="43.957564350409186" lon="11.387426037895612"><ele>197.39999999999998</ele><time>2026-04-26T09:36:30.999Z</time></trkpt><trkpt lat="43.95760713613138" lon="11.387309796122947"><ele>197.2</ele><time>2026-04-26T09:36:31.999Z</time></trkpt><trkpt lat="43.95765059345484" lon="11.387191729614548"><ele>197.0</ele><time>2026-04-26T09:36:32.999Z</time></trkpt><trkpt lat="43.95768598962086" lon="11.387095564026485"><ele>197.50000000000003</ele><time>2026-04-26T09:36:33.999Z</time></trkpt><trkpt lat="43.957721069856476" lon="11.386999321249663"><ele>198.0</ele><time>2026-04-26T09:36:34.999Z</time></trkpt><trkpt lat="43.957754765353016" lon="11.386905742121453"><ele>198.5</ele><time>2026-04-26T09:36:35.999Z</time></trkpt><trkpt lat="43.95778544507002" lon="11.386820541176938"><ele>199.0</ele><time>2026-04-26T09:36:36.999Z</time></trkpt><trkpt lat="43.95783734433157" lon="11.386677686887328"><ele>199.50000000000003</ele><time>2026-04-26T09:36:38.999Z</time></trkpt><trkpt lat="43.9578803390852" lon="11.386547970094833"><ele>200.0</ele><time>2026-04-26T09:36:40.999Z</time></trkpt><trkpt lat="43.95791524663177" lon="11.386430663663957"><ele>199.66666666666669</ele><time>2026-04-26T09:36:42.999Z</time></trkpt><trkpt lat="43.95793602237063" lon="11.386330566303442"><ele>199.33333333333334</ele><time>2026-04-26T09:36:44.999Z</time></trkpt><trkpt lat="43.957947742867674" lon="11.386237199858458"><ele>199.0</ele><time>2026-04-26T09:36:46.999Z</time></trkpt><trkpt lat="43.9579329400083" lon="11.386132312612236"><ele>198.66666666666669</ele><time>2026-04-26T09:36:49.999Z</time></trkpt><trkpt lat="43.9579618505636" lon="11.385996821309886"><ele>198.33333333333334</ele><time>2026-04-26T09:36:51.999Z</time></trkpt><trkpt lat="43.95793627618812" lon="11.38590382237542"><ele>198.0</ele><time>2026-04-26T09:36:52.999Z</time></trkpt><trkpt lat="43.95794784772505" lon="11.385815991459117"><ele>198.0</ele><time>2026-04-26T09:36:53.999Z</time></trkpt><trkpt lat="43.95795973109169" lon="11.38572567129896"><ele>198.0</ele><time>2026-04-26T09:36:54.999Z</time></trkpt><trkpt lat="43.95798698078724" lon="11.385623828320444"><ele>198.0</ele><time>2026-04-26T09:36:55.999Z</time></trkpt><trkpt lat="43.95800630547372" lon="11.385521298908623"><ele>198.0</ele><time>2026-04-26T09:36:56.999Z</time></trkpt><trkpt lat="43.95802292923603" lon="11.38541288182294"><ele>198.0</ele><time>2026-04-26T09:36:57.999Z</time></trkpt><trkpt lat="43.958033521134176" lon="11.385306374668971"><ele>198.0</ele><time>2026-04-26T09:36:58.999Z</time></trkpt><trkpt lat="43.958037943559916" lon="11.385188673978275"><ele>198.0</ele><time>2026-04-26T09:36:59.999Z</time></trkpt><trkpt lat="43.95802463929445" lon="11.38506683995067"><ele>198.0</ele><time>2026-04-26T09:37:00.999Z</time></trkpt><trkpt lat="43.95800165995783" lon="11.384940287953645"><ele>198.0</ele><time>2026-04-26T09:37:01.999Z</time></trkpt><trkpt lat="43.9579716923755" lon="11.38480136699717"><ele>198.0</ele><time>2026-04-26T09:37:02.999Z</time></trkpt><trkpt lat="43.95799274747239" lon="11.38464109317903"><ele>198.0</ele><time>2026-04-26T09:37:03.999Z</time></trkpt><trkpt lat="43.95797844327756" lon="11.384471121509659"><ele>198.2</ele><time>2026-04-26T09:37:04.999Z</time></trkpt><trkpt lat="43.9579635106546" lon="11.384319964179882"><ele>198.4</ele><time>2026-04-26T09:37:05.999Z</time></trkpt><trkpt lat="43.95793346259759" lon="11.384181275111892"><ele>198.6</ele><time>2026-04-26T09:37:06.999Z</time></trkpt><trkpt lat="43.95791995934832" lon="11.384049781272884"><ele>198.79999999999998</ele><time>2026-04-26T09:37:07.999Z</time></trkpt><trkpt lat="43.95791046344955" lon="11.383930611177282"><ele>199.0</ele><time>2026-04-26T09:37:08.999Z</time></trkpt><trkpt lat="43.95789128447373" lon="11.38382102482507"><ele>198.99999999999997</ele><time>2026-04-26T09:37:09.999Z</time></trkpt><trkpt lat="43.957880180180055" lon="11.383721688874106"><ele>199.0</ele><time>2026-04-26T09:37:10.999Z</time></trkpt><trkpt lat="43.95786858897897" lon="11.38362494542068"><ele>199.0</ele><time>2026-04-26T09:37:11.999Z</time></trkpt><trkpt lat="43.95785552487889" lon="11.383518209218417"><ele>199.0</ele><time>2026-04-26T09:37:12.999Z</time></trkpt><trkpt lat="43.957839268970496" lon="11.383400870336663"><ele>198.99999999999997</ele><time>2026-04-26T09:37:13.999Z</time></trkpt><trkpt lat="43.95782593709071" lon="11.383290321082324"><ele>199.0</ele><time>2026-04-26T09:37:14.999Z</time></trkpt><trkpt lat="43.95781334632932" lon="11.383180118040027"><ele>198.99999999999997</ele><time>2026-04-26T09:37:15.999Z</time></trkpt><trkpt lat="43.95780017968984" lon="11.383067928466602"><ele>199.0</ele><time>2026-04-26T09:37:16.999Z</time></trkpt><trkpt lat="43.95778696320756" lon="11.382956337728446"><ele>199.0</ele><time>2026-04-26T09:37:17.999Z</time></trkpt><trkpt lat="43.95777439981364" lon="11.382844885320514"><ele>199.0</ele><time>2026-04-26T09:37:18.999Z</time></trkpt><trkpt lat="43.9577609295739" lon="11.382730372333748"><ele>198.99999999999997</ele><time>2026-04-26T09:37:19.999Z</time></trkpt><trkpt lat="43.95774397040331" lon="11.382616155791291"><ele>199.0</ele><time>2026-04-26T09:37:20.999Z</time></trkpt><trkpt lat="43.95772872041716" lon="11.382496412800982"><ele>199.0</ele><time>2026-04-26T09:37:21.999Z</time></trkpt><trkpt lat="43.957713224848774" lon="11.382375017520278"><ele>199.0</ele><time>2026-04-26T09:37:22.999Z</time></trkpt><trkpt lat="43.95769802786484" lon="11.382253483936216"><ele>199.0</ele><time>2026-04-26T09:37:23.999Z</time></trkpt><trkpt lat="43.957683589876716" lon="11.382126670074964"><ele>199.0</ele><time>2026-04-26T09:37:24.999Z</time></trkpt><trkpt lat="43.95766877355696" lon="11.381997068211845"><ele>199.0</ele><time>2026-04-26T09:37:25.999Z</time></trkpt><trkpt lat="43.95765240485297" lon="11.381867183046026"><ele>198.79999999999998</ele><time>2026-04-26T09:37:26.999Z</time></trkpt><trkpt lat="43.957636826941695" lon="11.38173600388092"><ele>198.6</ele><time>2026-04-26T09:37:27.999Z</time></trkpt><trkpt lat="43.95761979800599" lon="11.381611650210314"><ele>198.4</ele><time>2026-04-26T09:37:28.999Z</time></trkpt><trkpt lat="43.95760374819298" lon="11.381487054717658"><ele>198.2</ele><time>2026-04-26T09:37:29.999Z</time></trkpt><trkpt lat="43.957586883732624" lon="11.381363560191229"><ele>198.0</ele><time>2026-04-26T09:37:30.999Z</time></trkpt><trkpt lat="43.9575705274793" lon="11.381236101788652"><ele>198.0</ele><time>2026-04-26T09:37:31.999Z</time></trkpt><trkpt lat="43.95755466815202" lon="11.381102627914748"><ele>198.0</ele><time>2026-04-26T09:37:32.999Z</time></trkpt><trkpt lat="43.957538132525535" lon="11.380965787986288"><ele>198.0</ele><time>2026-04-26T09:37:33.999Z</time></trkpt><trkpt lat="43.957521592301" lon="11.380823867799903"><ele>198.0</ele><time>2026-04-26T09:37:34.999Z</time></trkpt><trkpt lat="43.95750204909711" lon="11.380680518141679"><ele>198.0</ele><time>2026-04-26T09:37:35.999Z</time></trkpt><trkpt lat="43.95748337873767" lon="11.380533219024775"><ele>197.8</ele><time>2026-04-26T09:37:36.999Z</time></trkpt><trkpt lat="43.95746473985303" lon="11.380391575219063"><ele>197.60000000000002</ele><time>2026-04-26T09:37:37.999Z</time></trkpt><trkpt lat="43.957449667519725" lon="11.380257268063817"><ele>197.39999999999998</ele><time>2026-04-26T09:37:38.999Z</time></trkpt><trkpt lat="43.957439242124615" lon="11.380119034607134"><ele>197.2</ele><time>2026-04-26T09:37:39.999Z</time></trkpt><trkpt lat="43.95743118681004" lon="11.379975259839403"><ele>197.0</ele><time>2026-04-26T09:37:40.999Z</time></trkpt><trkpt lat="43.95742342763575" lon="11.379829899333558"><ele>196.8</ele><time>2026-04-26T09:37:41.999Z</time></trkpt><trkpt lat="43.95742683969996" lon="11.37967759586661"><ele>196.6</ele><time>2026-04-26T09:37:42.999Z</time></trkpt><trkpt lat="43.95741892212418" lon="11.37952238925553"><ele>196.4</ele><time>2026-04-26T09:37:43.999Z</time></trkpt><trkpt lat="43.95742005582782" lon="11.379371235514427"><ele>196.20000000000002</ele><time>2026-04-26T09:37:44.999Z</time></trkpt><trkpt lat="43.95741825734657" lon="11.379219690465913"><ele>196.0</ele><time>2026-04-26T09:37:45.999Z</time></trkpt><trkpt lat="43.95741763477233" lon="11.37906875936412"><ele>196.0</ele><time>2026-04-26T09:37:47Z</time></trkpt><trkpt lat="43.95741401970601" lon="11.378915347687496"><ele>196.0</ele><time>2026-04-26T09:37:48Z</time></trkpt><trkpt lat="43.95741086743668" lon="11.378762939790432"><ele>196.0</ele><time>2026-04-26T09:37:49Z</time></trkpt><trkpt lat="43.957409171662334" lon="11.37861000349644"><ele>196.0</ele><time>2026-04-26T09:37:50Z</time></trkpt><trkpt lat="43.95740962573128" lon="11.378459942483358"><ele>196.0</ele><time>2026-04-26T09:37:51Z</time></trkpt><trkpt lat="43.957409670838786" lon="11.378311111144093"><ele>196.0</ele><time>2026-04-26T09:37:52Z</time></trkpt><trkpt lat="43.95740888503387" lon="11.378166578780405"><ele>196.0</ele><time>2026-04-26T09:37:53Z</time></trkpt><trkpt lat="43.957409255444546" lon="11.378022559699618"><ele>196.0</ele><time>2026-04-26T09:37:54Z</time></trkpt><trkpt lat="43.95740799883861" lon="11.377880444761027"><ele>196.0</ele><time>2026-04-26T09:37:55Z</time></trkpt><trkpt lat="43.95740698797748" lon="11.377738118652568"><ele>196.0</ele><time>2026-04-26T09:37:56Z</time></trkpt><trkpt lat="43.95740628266001" lon="11.37760194174837"><ele>195.99999999999997</ele><time>2026-04-26T09:37:57Z</time></trkpt><trkpt lat="43.95740243627896" lon="11.377477351664457"><ele>196.0</ele><time>2026-04-26T09:37:58Z</time></trkpt><trkpt lat="43.957400317701214" lon="11.377358109360596"><ele>196.0</ele><time>2026-04-26T09:37:59Z</time></trkpt><trkpt lat="43.957400120945934" lon="11.377241316854303"><ele>196.0</ele><time>2026-04-26T09:38:00Z</time></trkpt><trkpt lat="43.95740074453219" lon="11.377122905650436"><ele>195.99999999999997</ele><time>2026-04-26T09:38:01Z</time></trkpt><trkpt lat="43.957400363292486" lon="11.377009257445483"><ele>196.0</ele><time>2026-04-26T09:38:02Z</time></trkpt><trkpt lat="43.95740242883204" lon="11.376896775265488"><ele>196.0</ele><time>2026-04-26T09:38:03Z</time></trkpt><trkpt lat="43.957403218905824" lon="11.376781506049557"><ele>196.0</ele><time>2026-04-26T09:38:04Z</time></trkpt><trkpt lat="43.95740225359967" lon="11.376659122767517"><ele>196.0</ele><time>2026-04-26T09:38:05Z</time></trkpt><trkpt lat="43.95739930278137" lon="11.376533365514593"><ele>196.0</ele><time>2026-04-26T09:38:06Z</time></trkpt><trkpt lat="43.95739825762829" lon="11.376399806102727"><ele>196.0</ele><time>2026-04-26T09:38:07Z</time></trkpt><trkpt lat="43.95739813839994" lon="11.376260408223231"><ele>196.0</ele><time>2026-04-26T09:38:08Z</time></trkpt><trkpt lat="43.957398547902585" lon="11.376111659958827"><ele>196.0</ele><time>2026-04-26T09:38:09Z</time></trkpt><trkpt lat="43.95739562108146" lon="11.375960496242605"><ele>196.0</ele><time>2026-04-26T09:38:10Z</time></trkpt><trkpt lat="43.957394499062" lon="11.375810000646208"><ele>196.0</ele><time>2026-04-26T09:38:11Z</time></trkpt><trkpt lat="43.95739501830358" lon="11.375664148308092"><ele>196.0</ele><time>2026-04-26T09:38:12Z</time></trkpt><trkpt lat="43.95739446735374" lon="11.375521478015473"><ele>196.0</ele><time>2026-04-26T09:38:13Z</time></trkpt><trkpt lat="43.95739176356734" lon="11.37538341251295"><ele>196.0</ele><time>2026-04-26T09:38:14Z</time></trkpt><trkpt lat="43.957392375129196" lon="11.37524457764762"><ele>196.0</ele><time>2026-04-26T09:38:15Z</time></trkpt><trkpt lat="43.95739213844339" lon="11.375108597450517"><ele>196.0</ele><time>2026-04-26T09:38:16Z</time></trkpt><trkpt lat="43.95738958880727" lon="11.374973778600953"><ele>196.0</ele><time>2026-04-26T09:38:17Z</time></trkpt><trkpt lat="43.95738705562118" lon="11.374839066319096"><ele>196.0</ele><time>2026-04-26T09:38:18Z</time></trkpt><trkpt lat="43.957387175050904" lon="11.374708040239508"><ele>196.0</ele><time>2026-04-26T09:38:19Z</time></trkpt><trkpt lat="43.95738782137352" lon="11.374574490618265"><ele>196.0</ele><time>2026-04-26T09:38:20Z</time></trkpt><trkpt lat="43.95738659970609" lon="11.374440019381344"><ele>196.0</ele><time>2026-04-26T09:38:21Z</time></trkpt><trkpt lat="43.9573862069128" lon="11.37429889461562"><ele>196.0</ele><time>2026-04-26T09:38:22Z</time></trkpt><trkpt lat="43.95738726222339" lon="11.374156007918886"><ele>196.0</ele><time>2026-04-26T09:38:23Z</time></trkpt><trkpt lat="43.957386904701416" lon="11.374012463943215"><ele>196.0</ele><time>2026-04-26T09:38:24Z</time></trkpt><trkpt lat="43.95738594007248" lon="11.373872099132976"><ele>196.0</ele><time>2026-04-26T09:38:25Z</time></trkpt><trkpt lat="43.95738475713107" lon="11.373738511034277"><ele>196.0</ele><time>2026-04-26T09:38:26Z</time></trkpt><trkpt lat="43.957382684709685" lon="11.373612426362222"><ele>196.0</ele><time>2026-04-26T09:38:27Z</time></trkpt><trkpt lat="43.95738046659842" lon="11.373481492388875"><ele>196.0</ele><time>2026-04-26T09:38:28Z</time></trkpt><trkpt lat="43.957373982813415" lon="11.373350757404134"><ele>196.0</ele><time>2026-04-26T09:38:29Z</time></trkpt><trkpt lat="43.957352887005854" lon="11.373226102245852"><ele>196.0</ele><time>2026-04-26T09:38:30Z</time></trkpt><trkpt lat="43.95730999419313" lon="11.373105788938776"><ele>196.0</ele><time>2026-04-26T09:38:31Z</time></trkpt><trkpt lat="43.95724840923408" lon="11.373001372948371"><ele>196.0</ele><time>2026-04-26T09:38:32Z</time></trkpt><trkpt lat="43.95716986830341" lon="11.372916948077208"><ele>196.20000000000002</ele><time>2026-04-26T09:38:33Z</time></trkpt><trkpt lat="43.95707935958303" lon="11.372848866129527"><ele>196.4</ele><time>2026-04-26T09:38:34Z</time></trkpt><trkpt lat="43.956985417587354" lon="11.37278710991396"><ele>196.6</ele><time>2026-04-26T09:38:35Z</time></trkpt><trkpt lat="43.956894967446466" lon="11.372726802484827"><ele>196.8</ele><time>2026-04-26T09:38:36Z</time></trkpt><trkpt lat="43.95681781432118" lon="11.372652546368771"><ele>197.0</ele><time>2026-04-26T09:38:37Z</time></trkpt><trkpt lat="43.956752616519" lon="11.372566580540827"><ele>196.8</ele><time>2026-04-26T09:38:38Z</time></trkpt><trkpt lat="43.956702221718274" lon="11.372465875234429"><ele>196.6</ele><time>2026-04-26T09:38:39Z</time></trkpt><trkpt lat="43.9566705762586" lon="11.372343343789058"><ele>196.4</ele><time>2026-04-26T09:38:40Z</time></trkpt><trkpt lat="43.95666318060602" lon="11.372208374837529"><ele>196.20000000000002</ele><time>2026-04-26T09:38:41Z</time></trkpt><trkpt lat="43.95668137156054" lon="11.372063962180306"><ele>196.0</ele><time>2026-04-26T09:38:42Z</time></trkpt><trkpt lat="43.956727873828214" lon="11.371937399944082"><ele>196.0</ele><time>2026-04-26T09:38:43Z</time></trkpt><trkpt lat="43.9567597200221" lon="11.371793264459416"><ele>196.0</ele><time>2026-04-26T09:38:44Z</time></trkpt><trkpt lat="43.95682697683767" lon="11.371665347948497"><ele>196.0</ele><time>2026-04-26T09:38:45Z</time></trkpt><trkpt lat="43.956875106880105" lon="11.371538262675118"><ele>196.0</ele><time>2026-04-26T09:38:46Z</time></trkpt><trkpt lat="43.95691872692976" lon="11.371423086025057"><ele>196.0</ele><time>2026-04-26T09:38:47Z</time></trkpt><trkpt lat="43.95695752083105" lon="11.37132065213203"><ele>196.16666666666666</ele><time>2026-04-26T09:38:48Z</time></trkpt><trkpt lat="43.95698920602117" lon="11.371238070113277"><ele>196.33333333333331</ele><time>2026-04-26T09:38:49Z</time></trkpt><trkpt lat="43.95699957599615" lon="11.371131783363783"><ele>196.5</ele><time>2026-04-26T09:38:50Z</time></trkpt><trkpt lat="43.95703737263248" lon="11.37102964390767"><ele>196.66666666666669</ele><time>2026-04-26T09:38:51Z</time></trkpt><trkpt lat="43.95707282771337" lon="11.3709158282968"><ele>196.83333333333334</ele><time>2026-04-26T09:38:52Z</time></trkpt><trkpt lat="43.95711919197177" lon="11.370777876310619"><ele>197.0</ele><time>2026-04-26T09:38:53Z</time></trkpt><trkpt lat="43.95717505252201" lon="11.370632380452966"><ele>196.75</ele><time>2026-04-26T09:38:54Z</time></trkpt><trkpt lat="43.9572304685079" lon="11.370499279207683"><ele>196.5</ele><time>2026-04-26T09:38:55Z</time></trkpt><trkpt lat="43.957307323378906" lon="11.370390189084105"><ele>196.25</ele><time>2026-04-26T09:38:56Z</time></trkpt><trkpt lat="43.95736022569314" lon="11.370246881295678"><ele>196.0</ele><time>2026-04-26T09:38:57Z</time></trkpt><trkpt lat="43.95742359828293" lon="11.370084399924915"><ele>196.0</ele><time>2026-04-26T09:38:58Z</time></trkpt><trkpt lat="43.95748484879514" lon="11.369925445641714"><ele>196.0</ele><time>2026-04-26T09:38:59Z</time></trkpt><trkpt lat="43.9575395283646" lon="11.36978345385892"><ele>196.0</ele><time>2026-04-26T09:39:00Z</time></trkpt><trkpt lat="43.95759804500575" lon="11.369631497968815"><ele>196.0</ele><time>2026-04-26T09:39:00.999Z</time></trkpt><trkpt lat="43.95766198214374" lon="11.369465879095229"><ele>196.25</ele><time>2026-04-26T09:39:01.999Z</time></trkpt><trkpt lat="43.95772672458292" lon="11.369295260290365"><ele>196.5</ele><time>2026-04-26T09:39:02.999Z</time></trkpt><trkpt lat="43.957792170457545" lon="11.369123692828566"><ele>196.75</ele><time>2026-04-26T09:39:03.999Z</time></trkpt><trkpt lat="43.95783189975901" lon="11.36893266996615"><ele>197.0</ele><time>2026-04-26T09:39:04.999Z</time></trkpt><trkpt lat="43.95789380847372" lon="11.368753565437787"><ele>197.0</ele><time>2026-04-26T09:39:05.999Z</time></trkpt><trkpt lat="43.95795972688861" lon="11.368570540266777"><ele>197.0</ele><time>2026-04-26T09:39:06.999Z</time></trkpt><trkpt lat="43.95802764380363" lon="11.368388288864887"><ele>197.0</ele><time>2026-04-26T09:39:07.999Z</time></trkpt><trkpt lat="43.95812587614939" lon="11.368235908839091"><ele>197.0</ele><time>2026-04-26T09:39:08.999Z</time></trkpt><trkpt lat="43.95819521058203" lon="11.368050389202704"><ele>197.25</ele><time>2026-04-26T09:39:09.999Z</time></trkpt><trkpt lat="43.9582643061986" lon="11.367865508576797"><ele>197.5</ele><time>2026-04-26T09:39:10.999Z</time></trkpt><trkpt lat="43.95832928017652" lon="11.36769164292109"><ele>197.75</ele><time>2026-04-26T09:39:11.999Z</time></trkpt><trkpt lat="43.95839103869211" lon="11.367526308445573"><ele>198.0</ele><time>2026-04-26T09:39:12.999Z</time></trkpt><trkpt lat="43.95844732475659" lon="11.367375624656205"><ele>198.0</ele><time>2026-04-26T09:39:13.999Z</time></trkpt><trkpt lat="43.958503161781664" lon="11.36722630233801"><ele>198.0</ele><time>2026-04-26T09:39:14.999Z</time></trkpt><trkpt lat="43.958552448939365" lon="11.367094569674396"><ele>198.0</ele><time>2026-04-26T09:39:15.999Z</time></trkpt><trkpt lat="43.958597960421635" lon="11.366972928383909"><ele>198.0</ele><time>2026-04-26T09:39:16.999Z</time></trkpt><trkpt lat="43.95864060680755" lon="11.366858943628642"><ele>198.0</ele><time>2026-04-26T09:39:17.999Z</time></trkpt><trkpt lat="43.9586791933565" lon="11.366755414943219"><ele>198.0</ele><time>2026-04-26T09:39:18.999Z</time></trkpt><trkpt lat="43.958716703850044" lon="11.36665485242936"><ele>198.0</ele><time>2026-04-26T09:39:19.999Z</time></trkpt><trkpt lat="43.95875530566001" lon="11.366551364483648"><ele>198.0</ele><time>2026-04-26T09:39:20.999Z</time></trkpt><trkpt lat="43.958799073256564" lon="11.366434026572488"><ele>198.0</ele><time>2026-04-26T09:39:21.999Z</time></trkpt><trkpt lat="43.95885409370799" lon="11.36629178638021"><ele>198.0</ele><time>2026-04-26T09:39:22.999Z</time></trkpt><trkpt lat="43.958923943035366" lon="11.366126416703363"><ele>197.66666666666669</ele><time>2026-04-26T09:39:23.999Z</time></trkpt><trkpt lat="43.95900870412737" lon="11.36594187908239"><ele>197.33333333333334</ele><time>2026-04-26T09:39:24.999Z</time></trkpt><trkpt lat="43.959100457609516" lon="11.36574707011594"><ele>197.0</ele><time>2026-04-26T09:39:25.999Z</time></trkpt><trkpt lat="43.959200094002775" lon="11.36554142983343"><ele>198.66666666666669</ele><time>2026-04-26T09:39:26.999Z</time></trkpt><trkpt lat="43.95929830107704" lon="11.365339298745967"><ele>200.33333333333331</ele><time>2026-04-26T09:39:27.999Z</time></trkpt><trkpt lat="43.95939758987767" lon="11.365139582450343"><ele>202.0</ele><time>2026-04-26T09:39:28.999Z</time></trkpt><trkpt lat="43.95947442897912" lon="11.364913154531195"><ele>202.0</ele><time>2026-04-26T09:39:29.999Z</time></trkpt><trkpt lat="43.959575685114004" lon="11.364705990489579"><ele>202.0</ele><time>2026-04-26T09:39:30.999Z</time></trkpt><trkpt lat="43.959678886296615" lon="11.364494088419647"><ele>202.0</ele><time>2026-04-26T09:39:31.999Z</time></trkpt><trkpt lat="43.95978267036275" lon="11.364279306746388"><ele>201.33333333333331</ele><time>2026-04-26T09:39:32.999Z</time></trkpt><trkpt lat="43.95991254800321" lon="11.364085451305298"><ele>200.66666666666669</ele><time>2026-04-26T09:39:33.999Z</time></trkpt><trkpt lat="43.960018362632525" lon="11.363867642467882"><ele>200.0</ele><time>2026-04-26T09:39:34.999Z</time></trkpt><trkpt lat="43.960122820371154" lon="11.363651928974075"><ele>200.0</ele><time>2026-04-26T09:39:35.999Z</time></trkpt><trkpt lat="43.960228445985756" lon="11.363432933673494"><ele>200.0</ele><time>2026-04-26T09:39:36.999Z</time></trkpt><trkpt lat="43.9603295142163" lon="11.363206165850434"><ele>200.0</ele><time>2026-04-26T09:39:37.999Z</time></trkpt><trkpt lat="43.96042573160684" lon="11.362972684517233"><ele>199.33333333333334</ele><time>2026-04-26T09:39:38.999Z</time></trkpt><trkpt lat="43.960518053197326" lon="11.362731068731351"><ele>198.66666666666669</ele><time>2026-04-26T09:39:39.999Z</time></trkpt><trkpt lat="43.960606202257644" lon="11.362486657784583"><ele>198.0</ele><time>2026-04-26T09:39:40.999Z</time></trkpt><trkpt lat="43.960689144845816" lon="11.362239647474267"><ele>198.0</ele><time>2026-04-26T09:39:41.999Z</time></trkpt><trkpt lat="43.960762671067755" lon="11.361986027048435"><ele>198.0</ele><time>2026-04-26T09:39:42.999Z</time></trkpt><trkpt lat="43.960825207042085" lon="11.361722837007086"><ele>198.0</ele><time>2026-04-26T09:39:43.999Z</time></trkpt><trkpt lat="43.96087397264268" lon="11.361458301475936"><ele>199.0</ele><time>2026-04-26T09:39:44.999Z</time></trkpt><trkpt lat="43.960915025772245" lon="11.361183837005186"><ele>200.0</ele><time>2026-04-26T09:39:45.999Z</time></trkpt><trkpt lat="43.960948767093114" lon="11.360901642914174"><ele>201.0</ele><time>2026-04-26T09:39:46.999Z</time></trkpt><trkpt lat="43.96097845730208" lon="11.360614969460931"><ele>200.66666666666669</ele><time>2026-04-26T09:39:47.999Z</time></trkpt><trkpt lat="43.96100186658755" lon="11.360325343658788"><ele>200.33333333333334</ele><time>2026-04-26T09:39:48.999Z</time></trkpt><trkpt lat="43.96101603842042" lon="11.360031925573828"><ele>200.0</ele><time>2026-04-26T09:39:49.999Z</time></trkpt><trkpt lat="43.96102127373138" lon="11.359748932123924"><ele>200.33333333333334</ele><time>2026-04-26T09:39:50.999Z</time></trkpt><trkpt lat="43.96102435498738" lon="11.35948240377962"><ele>200.66666666666669</ele><time>2026-04-26T09:39:51.999Z</time></trkpt><trkpt lat="43.96102726960912" lon="11.359230288863962"><ele>201.0</ele><time>2026-04-26T09:39:53Z</time></trkpt><trkpt lat="43.96102796919698" lon="11.358989860532597"><ele>200.66666666666669</ele><time>2026-04-26T09:39:54Z</time></trkpt><trkpt lat="43.961030948333985" lon="11.358764402749365"><ele>200.33333333333334</ele><time>2026-04-26T09:39:55Z</time></trkpt><trkpt lat="43.96103589602997" lon="11.358544251291423"><ele>200.0</ele><time>2026-04-26T09:39:56Z</time></trkpt><trkpt lat="43.961040206246174" lon="11.358306363544434"><ele>200.0</ele><time>2026-04-26T09:39:57Z</time></trkpt><trkpt lat="43.96104441932164" lon="11.358042005155678"><ele>200.0</ele><time>2026-04-26T09:39:58Z</time></trkpt><trkpt lat="43.961048758878334" lon="11.357769710382899"><ele>200.0</ele><time>2026-04-26T09:39:59Z</time></trkpt><trkpt lat="43.961052320387694" lon="11.357507139570547"><ele>200.66666666666669</ele><time>2026-04-26T09:40:00Z</time></trkpt><trkpt lat="43.96105658902085" lon="11.357250966654014"><ele>201.33333333333331</ele><time>2026-04-26T09:40:01Z</time></trkpt><trkpt lat="43.96106337411084" lon="11.357002360575349"><ele>202.0</ele><time>2026-04-26T09:40:02Z</time></trkpt><trkpt lat="43.961075052934696" lon="11.356751405232767"><ele>202.33333333333331</ele><time>2026-04-26T09:40:03Z</time></trkpt><trkpt lat="43.961092680573095" lon="11.356503447053207"><ele>202.66666666666669</ele><time>2026-04-26T09:40:04Z</time></trkpt><trkpt lat="43.9611126845347" lon="11.356256689348754"><ele>203.0</ele><time>2026-04-26T09:40:05Z</time></trkpt><trkpt lat="43.961133915185584" lon="11.356009085638119"><ele>203.0</ele><time>2026-04-26T09:40:06Z</time></trkpt><trkpt lat="43.96115552081767" lon="11.355757733365017"><ele>203.0</ele><time>2026-04-26T09:40:07Z</time></trkpt><trkpt lat="43.96117824268542" lon="11.355507093808207"><ele>203.0</ele><time>2026-04-26T09:40:08Z</time></trkpt><trkpt lat="43.9612017361812" lon="11.355255579701714"><ele>202.66666666666669</ele><time>2026-04-26T09:40:09Z</time></trkpt><trkpt lat="43.96122474635922" lon="11.355003913609613"><ele>202.33333333333331</ele><time>2026-04-26T09:40:10Z</time></trkpt><trkpt lat="43.9612484470294" lon="11.354749218812286"><ele>202.0</ele><time>2026-04-26T09:40:11Z</time></trkpt><trkpt lat="43.961271860060464" lon="11.354493222734819"><ele>202.0</ele><time>2026-04-26T09:40:12Z</time></trkpt><trkpt lat="43.9612955130969" lon="11.354238368030629"><ele>202.0</ele><time>2026-04-26T09:40:13Z</time></trkpt><trkpt lat="43.96131915170485" lon="11.353981143043649"><ele>202.0</ele><time>2026-04-26T09:40:14Z</time></trkpt><trkpt lat="43.96134283944985" lon="11.353724390858938"><ele>202.0</ele><time>2026-04-26T09:40:15Z</time></trkpt><trkpt lat="43.96136624882865" lon="11.353470655778287"><ele>202.0</ele><time>2026-04-26T09:40:16Z</time></trkpt><trkpt lat="43.961389830844425" lon="11.353215049728028"><ele>202.0</ele><time>2026-04-26T09:40:17Z</time></trkpt><trkpt lat="43.96141294321785" lon="11.352961196197938"><ele>202.0</ele><time>2026-04-26T09:40:18Z</time></trkpt><trkpt lat="43.961435808658656" lon="11.3527051319538"><ele>202.0</ele><time>2026-04-26T09:40:19Z</time></trkpt><trkpt lat="43.96145857960247" lon="11.352450704180779"><ele>202.0</ele><time>2026-04-26T09:40:20Z</time></trkpt><trkpt lat="43.96148144257567" lon="11.35219524799152"><ele>201.66666666666666</ele><time>2026-04-26T09:40:21Z</time></trkpt><trkpt lat="43.96150441793731" lon="11.351938536151588"><ele>201.33333333333331</ele><time>2026-04-26T09:40:22Z</time></trkpt><trkpt lat="43.9615274330502" lon="11.351681380130115"><ele>201.0</ele><time>2026-04-26T09:40:23Z</time></trkpt><trkpt lat="43.961551695306326" lon="11.351423398431693"><ele>201.0</ele><time>2026-04-26T09:40:24Z</time></trkpt><trkpt lat="43.96157640830203" lon="11.351161879017294"><ele>201.0</ele><time>2026-04-26T09:40:25Z</time></trkpt><trkpt lat="43.96158540484485" lon="11.350896775463944"><ele>201.0</ele><time>2026-04-26T09:40:26Z</time></trkpt><trkpt lat="43.96160933233362" lon="11.350631155936256"><ele>201.0</ele><time>2026-04-26T09:40:27Z</time></trkpt><trkpt lat="43.96164801261839" lon="11.35037482500517"><ele>201.0</ele><time>2026-04-26T09:40:28Z</time></trkpt><trkpt lat="43.96167122346292" lon="11.350114695516234"><ele>201.0</ele><time>2026-04-26T09:40:29Z</time></trkpt><trkpt lat="43.961694203697064" lon="11.349857150591166"><ele>201.0</ele><time>2026-04-26T09:40:30Z</time></trkpt><trkpt lat="43.961701900607316" lon="11.349596728662927"><ele>201.0</ele><time>2026-04-26T09:40:31Z</time></trkpt><trkpt lat="43.96172630824234" lon="11.349337891122053"><ele>201.0</ele><time>2026-04-26T09:40:32Z</time></trkpt><trkpt lat="43.96175129458564" lon="11.349084654075332"><ele>201.33333333333331</ele><time>2026-04-26T09:40:33Z</time></trkpt><trkpt lat="43.961773645543985" lon="11.348831312674612"><ele>201.66666666666666</ele><time>2026-04-26T09:40:34Z</time></trkpt><trkpt lat="43.96179574940296" lon="11.348574507715236"><ele>202.0</ele><time>2026-04-26T09:40:35Z</time></trkpt><trkpt lat="43.96181701745342" lon="11.348320414412926"><ele>202.0</ele><time>2026-04-26T09:40:36Z</time></trkpt><trkpt lat="43.961838020609534" lon="11.348063059341499"><ele>202.0</ele><time>2026-04-26T09:40:37Z</time></trkpt><trkpt lat="43.961861481627295" lon="11.347806980482153"><ele>202.0</ele><time>2026-04-26T09:40:38Z</time></trkpt><trkpt lat="43.961885060941576" lon="11.347549873554595"><ele>202.33333333333331</ele><time>2026-04-26T09:40:39Z</time></trkpt><trkpt lat="43.96190835707469" lon="11.347299372233184"><ele>202.66666666666669</ele><time>2026-04-26T09:40:40Z</time></trkpt><trkpt lat="43.96193391132631" lon="11.3470654745767"><ele>203.0</ele><time>2026-04-26T09:40:41Z</time></trkpt><trkpt lat="43.96195019803974" lon="11.34684215930988"><ele>203.25</ele><time>2026-04-26T09:40:42Z</time></trkpt><trkpt lat="43.961970075906194" lon="11.346629087314737"><ele>203.5</ele><time>2026-04-26T09:40:43Z</time></trkpt><trkpt lat="43.961987938523365" lon="11.346445453555043"><ele>203.75</ele><time>2026-04-26T09:40:44Z</time></trkpt><trkpt lat="43.96200237911366" lon="11.346283259875998"><ele>204.0</ele><time>2026-04-26T09:40:45Z</time></trkpt><trkpt lat="43.96201743382515" lon="11.346122234303879"><ele>204.0</ele><time>2026-04-26T09:40:46Z</time></trkpt><trkpt lat="43.96203163660987" lon="11.345960939994042"><ele>204.0</ele><time>2026-04-26T09:40:47Z</time></trkpt><trkpt lat="43.962046563461726" lon="11.345796784717672"><ele>204.0</ele><time>2026-04-26T09:40:48Z</time></trkpt><trkpt lat="43.96206194656128" lon="11.345610826215692"><ele>204.0</ele><time>2026-04-26T09:40:49Z</time></trkpt><trkpt lat="43.96208116152841" lon="11.3454061021908"><ele>204.0</ele><time>2026-04-26T09:40:50Z</time></trkpt><trkpt lat="43.96209995697337" lon="11.345187128434562"><ele>204.0</ele><time>2026-04-26T09:40:51Z</time></trkpt><trkpt lat="43.96211809021125" lon="11.344952436450903"><ele>204.0</ele><time>2026-04-26T09:40:52Z</time></trkpt><trkpt lat="43.96213005645992" lon="11.344700016271286"><ele>204.0</ele><time>2026-04-26T09:40:53Z</time></trkpt><trkpt lat="43.96213776796873" lon="11.344421495866703"><ele>204.0</ele><time>2026-04-26T09:40:54Z</time></trkpt><trkpt lat="43.962139225011676" lon="11.34412254455922"><ele>204.0</ele><time>2026-04-26T09:40:55Z</time></trkpt><trkpt lat="43.96213679922408" lon="11.343825824260122"><ele>204.0</ele><time>2026-04-26T09:40:56Z</time></trkpt><trkpt lat="43.9621345904822" lon="11.343528972989366"><ele>204.0</ele><time>2026-04-26T09:40:57Z</time></trkpt><trkpt lat="43.96213964042588" lon="11.343240229944124"><ele>204.0</ele><time>2026-04-26T09:40:58Z</time></trkpt><trkpt lat="43.96217010804185" lon="11.342962076405717"><ele>203.66666666666669</ele><time>2026-04-26T09:40:59Z</time></trkpt><trkpt lat="43.96220233297491" lon="11.342689179168834"><ele>203.33333333333334</ele><time>2026-04-26T09:41:00Z</time></trkpt><trkpt lat="43.962256197590825" lon="11.342420787376481"><ele>203.0</ele><time>2026-04-26T09:41:01Z</time></trkpt><trkpt lat="43.96232079873561" lon="11.342141999665031"><ele>202.66666666666669</ele><time>2026-04-26T09:41:02Z</time></trkpt><trkpt lat="43.96241686786991" lon="11.341876285036214"><ele>202.33333333333331</ele><time>2026-04-26T09:41:03Z</time></trkpt><trkpt lat="43.96252280848063" lon="11.341613325238717"><ele>202.0</ele><time>2026-04-26T09:41:04Z</time></trkpt><trkpt lat="43.962631300278915" lon="11.341357615847327"><ele>202.0</ele><time>2026-04-26T09:41:05Z</time></trkpt><trkpt lat="43.96274606101422" lon="11.34108023937595"><ele>202.0</ele><time>2026-04-26T09:41:06Z</time></trkpt><trkpt lat="43.96285772552233" lon="11.340832915179782"><ele>202.0</ele><time>2026-04-26T09:41:07Z</time></trkpt><trkpt lat="43.96297421984998" lon="11.340575804396073"><ele>202.33333333333331</ele><time>2026-04-26T09:41:08Z</time></trkpt><trkpt lat="43.963086222532404" lon="11.340326496705455"><ele>202.66666666666669</ele><time>2026-04-26T09:41:09Z</time></trkpt><trkpt lat="43.96319182027412" lon="11.34008835325939"><ele>203.0</ele><time>2026-04-26T09:41:10Z</time></trkpt><trkpt lat="43.963289476459536" lon="11.33985564226981"><ele>204.33333333333334</ele><time>2026-04-26T09:41:11Z</time></trkpt><trkpt lat="43.963377652435625" lon="11.339617004007028"><ele>205.66666666666669</ele><time>2026-04-26T09:41:12Z</time></trkpt><trkpt lat="43.96346145372801" lon="11.339372748701196"><ele>207.0</ele><time>2026-04-26T09:41:13Z</time></trkpt><trkpt lat="43.96354354458304" lon="11.339121448890728"><ele>207.0</ele><time>2026-04-26T09:41:14Z</time></trkpt><trkpt lat="43.96362759900789" lon="11.338859047569656"><ele>207.0</ele><time>2026-04-26T09:41:15Z</time></trkpt><trkpt lat="43.96371262826438" lon="11.338587352997815"><ele>207.0</ele><time>2026-04-26T09:41:16Z</time></trkpt><trkpt lat="43.963800409817885" lon="11.338311598378699"><ele>207.0</ele><time>2026-04-26T09:41:17Z</time></trkpt><trkpt lat="43.96389254885561" lon="11.338032323638458"><ele>207.0</ele><time>2026-04-26T09:41:18Z</time></trkpt><trkpt lat="43.96398322920443" lon="11.337750899603721"><ele>207.0</ele><time>2026-04-26T09:41:19Z</time></trkpt><trkpt lat="43.964072165101285" lon="11.337469337790438"><ele>206.33333333333331</ele><time>2026-04-26T09:41:20Z</time></trkpt><trkpt lat="43.96416188985427" lon="11.33718589874503"><ele>205.66666666666666</ele><time>2026-04-26T09:41:21Z</time></trkpt><trkpt lat="43.964251748639384" lon="11.336903692704022"><ele>205.0</ele><time>2026-04-26T09:41:22Z</time></trkpt><trkpt lat="43.9643398331825" lon="11.336618702222378"><ele>204.5</ele><time>2026-04-26T09:41:23Z</time></trkpt><trkpt lat="43.96443111845109" lon="11.336331480522562"><ele>204.0</ele><time>2026-04-26T09:41:24Z</time></trkpt><trkpt lat="43.96452210365258" lon="11.336046354525282"><ele>204.0</ele><time>2026-04-26T09:41:25Z</time></trkpt><trkpt lat="43.9646126556109" lon="11.335760614915017"><ele>204.0</ele><time>2026-04-26T09:41:26Z</time></trkpt><trkpt lat="43.96470171901437" lon="11.335478120523813"><ele>204.0</ele><time>2026-04-26T09:41:27Z</time></trkpt><trkpt lat="43.96479188508463" lon="11.335195585417184"><ele>204.0</ele><time>2026-04-26T09:41:27.999Z</time></trkpt><trkpt lat="43.96488397192032" lon="11.334914621676393"><ele>204.0</ele><time>2026-04-26T09:41:28.999Z</time></trkpt><trkpt lat="43.96497332290969" lon="11.334637512495732"><ele>204.0</ele><time>2026-04-26T09:41:29.999Z</time></trkpt><trkpt lat="43.965061258739574" lon="11.33436043610046"><ele>204.0</ele><time>2026-04-26T09:41:30.999Z</time></trkpt><trkpt lat="43.965149587795494" lon="11.334084244413072"><ele>204.0</ele><time>2026-04-26T09:41:31.999Z</time></trkpt><trkpt lat="43.965235651611415" lon="11.33380758934657"><ele>204.0</ele><time>2026-04-26T09:41:32.999Z</time></trkpt><trkpt lat="43.96532289409916" lon="11.33353473291291"><ele>206.0</ele><time>2026-04-26T09:41:33.999Z</time></trkpt><trkpt lat="43.96540763790049" lon="11.33327529712729"><ele>208.0</ele><time>2026-04-26T09:41:34.999Z</time></trkpt><trkpt lat="43.965491547100335" lon="11.33302447366887"><ele>210.0</ele><time>2026-04-26T09:41:35.999Z</time></trkpt><trkpt lat="43.965571640626585" lon="11.33277707227238"><ele>209.33333333333331</ele><time>2026-04-26T09:41:36.999Z</time></trkpt><trkpt lat="43.965647506650924" lon="11.332541235436631"><ele>208.66666666666666</ele><time>2026-04-26T09:41:37.999Z</time></trkpt><trkpt lat="43.9657165648912" lon="11.332306166716885"><ele>208.0</ele><time>2026-04-26T09:41:38.999Z</time></trkpt><trkpt lat="43.965774062706785" lon="11.332059824331981"><ele>208.0</ele><time>2026-04-26T09:41:39.999Z</time></trkpt><trkpt lat="43.9658220646876" lon="11.331801847594605"><ele>208.0</ele><time>2026-04-26T09:41:40.999Z</time></trkpt><trkpt lat="43.96584000318674" lon="11.331532077813318"><ele>208.0</ele><time>2026-04-26T09:41:41.999Z</time></trkpt><trkpt lat="43.96584294942508" lon="11.331267083616"><ele>209.0</ele><time>2026-04-26T09:41:42.999Z</time></trkpt><trkpt lat="43.965829995680316" lon="11.331015023636438"><ele>210.0</ele><time>2026-04-26T09:41:43.999Z</time></trkpt><trkpt lat="43.96580091383639" lon="11.330786368310056"><ele>211.0</ele><time>2026-04-26T09:41:44.999Z</time></trkpt><trkpt lat="43.965795698452666" lon="11.330565601326423"><ele>210.5</ele><time>2026-04-26T09:41:45.999Z</time></trkpt><trkpt lat="43.965783906672605" lon="11.330373701816187"><ele>210.0</ele><time>2026-04-26T09:41:46.999Z</time></trkpt><trkpt lat="43.96577583778483" lon="11.330194419121753"><ele>209.5</ele><time>2026-04-26T09:41:47.999Z</time></trkpt><trkpt lat="43.965770210460754" lon="11.330039669031557"><ele>209.0</ele><time>2026-04-26T09:41:48.999Z</time></trkpt><trkpt lat="43.96577114820028" lon="11.329897778782062"><ele>209.0</ele><time>2026-04-26T09:41:49.999Z</time></trkpt><trkpt lat="43.965787374221996" lon="11.329772496226562"><ele>209.0</ele><time>2026-04-26T09:41:50.999Z</time></trkpt><trkpt lat="43.965816820395524" lon="11.329661412709694"><ele>209.0</ele><time>2026-04-26T09:41:51.999Z</time></trkpt><trkpt lat="43.96587236975929" lon="11.329569722130866"><ele>209.0</ele><time>2026-04-26T09:41:52.999Z</time></trkpt><trkpt lat="43.96595831823271" lon="11.329499886512506"><ele>209.0</ele><time>2026-04-26T09:41:53.999Z</time></trkpt><trkpt lat="43.96606487472484" lon="11.329466282031285"><ele>209.5</ele><time>2026-04-26T09:41:54.999Z</time></trkpt><trkpt lat="43.96618995923073" lon="11.329479024362689"><ele>210.0</ele><time>2026-04-26T09:41:55.999Z</time></trkpt><trkpt lat="43.96631072963583" lon="11.32954572632252"><ele>210.5</ele><time>2026-04-26T09:41:56.999Z</time></trkpt><trkpt lat="43.96642167971109" lon="11.329660263257491"><ele>211.0</ele><time>2026-04-26T09:41:57.999Z</time></trkpt><trkpt lat="43.96651228135356" lon="11.329793175826454"><ele>211.0</ele><time>2026-04-26T09:41:59Z</time></trkpt><trkpt lat="43.96659639184322" lon="11.329912646253087"><ele>211.0</ele><time>2026-04-26T09:42:00Z</time></trkpt><trkpt lat="43.96668639091106" lon="11.330031515491429"><ele>211.0</ele><time>2026-04-26T09:42:01Z</time></trkpt><trkpt lat="43.966782157503225" lon="11.330152163849096"><ele>211.0</ele><time>2026-04-26T09:42:02Z</time></trkpt><trkpt lat="43.96688189872297" lon="11.3302713472128"><ele>211.25</ele><time>2026-04-26T09:42:03Z</time></trkpt><trkpt lat="43.966995162234994" lon="11.330403376325567"><ele>211.5</ele><time>2026-04-26T09:42:04Z</time></trkpt><trkpt lat="43.96710360283497" lon="11.330535638448868"><ele>211.75</ele><time>2026-04-26T09:42:05Z</time></trkpt><trkpt lat="43.967203007478496" lon="11.330676496973506"><ele>212.0</ele><time>2026-04-26T09:42:06Z</time></trkpt><trkpt lat="43.9673272684722" lon="11.330817290491193"><ele>213.66666666666669</ele><time>2026-04-26T09:42:07Z</time></trkpt><trkpt lat="43.96745876103735" lon="11.330953425229474"><ele>215.33333333333331</ele><time>2026-04-26T09:42:08Z</time></trkpt><trkpt lat="43.96758710858523" lon="11.331084551130141"><ele>217.0</ele><time>2026-04-26T09:42:08.999Z</time></trkpt><trkpt lat="43.96771813913422" lon="11.331214880508037"><ele>217.0</ele><time>2026-04-26T09:42:09.999Z</time></trkpt><trkpt lat="43.96786845483053" lon="11.331314265320186"><ele>217.0</ele><time>2026-04-26T09:42:10.999Z</time></trkpt><trkpt lat="43.96801489085567" lon="11.331411404040391"><ele>217.0</ele><time>2026-04-26T09:42:11.999Z</time></trkpt><trkpt lat="43.96816607095788" lon="11.331494201972625"><ele>217.0</ele><time>2026-04-26T09:42:12.999Z</time></trkpt><trkpt lat="43.96831763378185" lon="11.331572941261507"><ele>217.0</ele><time>2026-04-26T09:42:13.999Z</time></trkpt><trkpt lat="43.968467085981565" lon="11.331648430138708"><ele>217.0</ele><time>2026-04-26T09:42:14.999Z</time></trkpt><trkpt lat="43.96861191477127" lon="11.331709260417158"><ele>216.75</ele><time>2026-04-26T09:42:15.999Z</time></trkpt><trkpt lat="43.968760178975344" lon="11.331773696316349"><ele>216.5</ele><time>2026-04-26T09:42:16.999Z</time></trkpt><trkpt lat="43.96889922262509" lon="11.331835125446787"><ele>216.25</ele><time>2026-04-26T09:42:17.999Z</time></trkpt><trkpt lat="43.96903006727034" lon="11.331892965205492"><ele>216.0</ele><time>2026-04-26T09:42:18.999Z</time></trkpt><trkpt lat="43.96915461464828" lon="11.331941295874909"><ele>216.20000000000002</ele><time>2026-04-26T09:42:19.999Z</time></trkpt><trkpt lat="43.96927090516733" lon="11.331975114969884"><ele>216.40000000000003</ele><time>2026-04-26T09:42:20.999Z</time></trkpt><trkpt lat="43.969383710479825" lon="11.33199611401567"><ele>216.6</ele><time>2026-04-26T09:42:21.999Z</time></trkpt><trkpt lat="43.96948339133926" lon="11.332001815160607"><ele>216.8</ele><time>2026-04-26T09:42:22.999Z</time></trkpt><trkpt lat="43.9695648854986" lon="11.332010792300364"><ele>217.0</ele><time>2026-04-26T09:42:23.999Z</time></trkpt><trkpt lat="43.969632875432595" lon="11.332047082371245"><ele>217.0</ele><time>2026-04-26T09:42:24.999Z</time></trkpt><trkpt lat="43.96969993332875" lon="11.332108308978539"><ele>217.0</ele><time>2026-04-26T09:42:25.999Z</time></trkpt><trkpt lat="43.96975245651981" lon="11.332184310140788"><ele>217.0</ele><time>2026-04-26T09:42:26.999Z</time></trkpt><trkpt lat="43.969818062542" lon="11.332216072027787"><ele>217.0</ele><time>2026-04-26T09:42:27.999Z</time></trkpt><trkpt lat="43.96988566047953" lon="11.332202336456586"><ele>217.0</ele><time>2026-04-26T09:42:28.999Z</time></trkpt><trkpt lat="43.96993934265865" lon="11.33213741928766"><ele>217.0</ele><time>2026-04-26T09:42:29.999Z</time></trkpt><trkpt lat="43.969962732532345" lon="11.332037407554328"><ele>217.0</ele><time>2026-04-26T09:42:30.999Z</time></trkpt><trkpt lat="43.969957847047105" lon="11.331915746329054"><ele>217.0</ele><time>2026-04-26T09:42:31.999Z</time></trkpt><trkpt lat="43.96993287061587" lon="11.331772942769136"><ele>217.0</ele><time>2026-04-26T09:42:32.999Z</time></trkpt><trkpt lat="43.96993765364741" lon="11.331612542586312"><ele>217.0</ele><time>2026-04-26T09:42:33.999Z</time></trkpt><trkpt lat="43.96997983239501" lon="11.331420754170654"><ele>217.0</ele><time>2026-04-26T09:42:34.999Z</time></trkpt><trkpt lat="43.97003782071177" lon="11.331213511909231"><ele>217.33333333333331</ele><time>2026-04-26T09:42:35.999Z</time></trkpt><trkpt lat="43.970093898789784" lon="11.331011189759598"><ele>217.66666666666669</ele><time>2026-04-26T09:42:36.999Z</time></trkpt><trkpt lat="43.97015341711833" lon="11.330792480987013"><ele>218.0</ele><time>2026-04-26T09:42:37.999Z</time></trkpt><trkpt lat="43.97021654662201" lon="11.33055709313427"><ele>217.0</ele><time>2026-04-26T09:42:38.999Z</time></trkpt><trkpt lat="43.97027603394103" lon="11.330322352595543"><ele>216.0</ele><time>2026-04-26T09:42:39.999Z</time></trkpt><trkpt lat="43.9703327504302" lon="11.330073753403603"><ele>215.0</ele><time>2026-04-26T09:42:40.999Z</time></trkpt><trkpt lat="43.970377063898574" lon="11.329809570829374"><ele>213.66666666666669</ele><time>2026-04-26T09:42:41.999Z</time></trkpt><trkpt lat="43.97041007053685" lon="11.329543024808611"><ele>212.33333333333331</ele><time>2026-04-26T09:42:42.999Z</time></trkpt><trkpt lat="43.970428595639845" lon="11.3292642421336"><ele>211.0</ele><time>2026-04-26T09:42:43.999Z</time></trkpt><trkpt lat="43.9704338283679" lon="11.328981152657748"><ele>209.66666666666666</ele><time>2026-04-26T09:42:44.999Z</time></trkpt><trkpt lat="43.97043210701536" lon="11.328692208396465"><ele>208.33333333333331</ele><time>2026-04-26T09:42:45.999Z</time></trkpt><trkpt lat="43.97043138691547" lon="11.328399084408394"><ele>207.0</ele><time>2026-04-26T09:42:46.999Z</time></trkpt><trkpt lat="43.97043536058495" lon="11.32810294807397"><ele>207.0</ele><time>2026-04-26T09:42:47.999Z</time></trkpt><trkpt lat="43.97043849457948" lon="11.327800785740978"><ele>207.0</ele><time>2026-04-26T09:42:48.999Z</time></trkpt><trkpt lat="43.970445503862166" lon="11.327499890710822"><ele>207.0</ele><time>2026-04-26T09:42:49.999Z</time></trkpt><trkpt lat="43.970450874600814" lon="11.327193216679243"><ele>207.0</ele><time>2026-04-26T09:42:50.999Z</time></trkpt><trkpt lat="43.970453391119996" lon="11.326885606205485"><ele>207.0</ele><time>2026-04-26T09:42:51.999Z</time></trkpt><trkpt lat="43.970452862931026" lon="11.326573080233201"><ele>207.0</ele><time>2026-04-26T09:42:52.999Z</time></trkpt><trkpt lat="43.970453871553694" lon="11.326262488406524"><ele>205.66666666666669</ele><time>2026-04-26T09:42:53.999Z</time></trkpt><trkpt lat="43.97045820351225" lon="11.325959059642097"><ele>204.33333333333334</ele><time>2026-04-26T09:42:54.999Z</time></trkpt><trkpt lat="43.97046009767987" lon="11.325657152442352"><ele>203.0</ele><time>2026-04-26T09:42:55.999Z</time></trkpt><trkpt lat="43.97046283729115" lon="11.325353210514507"><ele>203.0</ele><time>2026-04-26T09:42:56.999Z</time></trkpt><trkpt lat="43.970465740018895" lon="11.325048996322689"><ele>203.0</ele><time>2026-04-26T09:42:57.999Z</time></trkpt><trkpt lat="43.97046707188858" lon="11.324746485987065"><ele>203.0</ele><time>2026-04-26T09:42:58.999Z</time></trkpt><trkpt lat="43.97047204851121" lon="11.324443018115222"><ele>203.0</ele><time>2026-04-26T09:42:59.999Z</time></trkpt><trkpt lat="43.97047870869825" lon="11.324142097040758"><ele>203.0</ele><time>2026-04-26T09:43:00.999Z</time></trkpt><trkpt lat="43.97048381825699" lon="11.323840774068051"><ele>203.0</ele><time>2026-04-26T09:43:01.999Z</time></trkpt><trkpt lat="43.97048885723646" lon="11.323543231016833"><ele>203.33333333333334</ele><time>2026-04-26T09:43:02.999Z</time></trkpt><trkpt lat="43.97048437825172" lon="11.32324875573785"><ele>203.66666666666669</ele><time>2026-04-26T09:43:03.999Z</time></trkpt><trkpt lat="43.97046084201158" lon="11.32296094106742"><ele>204.0</ele><time>2026-04-26T09:43:04.999Z</time></trkpt><trkpt lat="43.97042644952337" lon="11.322676222742347"><ele>204.0</ele><time>2026-04-26T09:43:05.999Z</time></trkpt><trkpt lat="43.97038177209275" lon="11.322392921238007"><ele>204.0</ele><time>2026-04-26T09:43:06.999Z</time></trkpt><trkpt lat="43.97032626549546" lon="11.322111867519643"><ele>204.0</ele><time>2026-04-26T09:43:07.999Z</time></trkpt><trkpt lat="43.97025931865056" lon="11.32183371965815"><ele>204.0</ele><time>2026-04-26T09:43:08.999Z</time></trkpt><trkpt lat="43.970179134336746" lon="11.321563377465461"><ele>204.0</ele><time>2026-04-26T09:43:09.999Z</time></trkpt><trkpt lat="43.97008888643752" lon="11.321300959026594"><ele>204.0</ele><time>2026-04-26T09:43:10.999Z</time></trkpt><trkpt lat="43.969997023853686" lon="11.321057382096905"><ele>203.66666666666669</ele><time>2026-04-26T09:43:11.999Z</time></trkpt><trkpt lat="43.96990572094065" lon="11.320830449390236"><ele>203.33333333333334</ele><time>2026-04-26T09:43:12.999Z</time></trkpt><trkpt lat="43.96982545890292" lon="11.320612385974833"><ele>203.0</ele><time>2026-04-26T09:43:13.999Z</time></trkpt><trkpt lat="43.96975756299964" lon="11.320413187903982"><ele>203.75</ele><time>2026-04-26T09:43:14.999Z</time></trkpt><trkpt lat="43.969682332838026" lon="11.3202264431129"><ele>204.5</ele><time>2026-04-26T09:43:15.999Z</time></trkpt><trkpt lat="43.96961806495021" lon="11.320048035600312"><ele>205.25</ele><time>2026-04-26T09:43:16.999Z</time></trkpt><trkpt lat="43.96955171839336" lon="11.319874057348873"><ele>206.0</ele><time>2026-04-26T09:43:17.999Z</time></trkpt><trkpt lat="43.96950080576059" lon="11.319715642218783"><ele>206.0</ele><time>2026-04-26T09:43:18.999Z</time></trkpt><trkpt lat="43.96944861976004" lon="11.319560986569314"><ele>206.0</ele><time>2026-04-26T09:43:19.999Z</time></trkpt><trkpt lat="43.969392649993615" lon="11.319411749873"><ele>206.0</ele><time>2026-04-26T09:43:20.999Z</time></trkpt><trkpt lat="43.96933961060255" lon="11.319267814370237"><ele>206.0</ele><time>2026-04-26T09:43:21.999Z</time></trkpt><trkpt lat="43.96928563047987" lon="11.319123204186328"><ele>206.0</ele><time>2026-04-26T09:43:22.999Z</time></trkpt><trkpt lat="43.969229502281465" lon="11.31897715189613"><ele>206.0</ele><time>2026-04-26T09:43:23.999Z</time></trkpt><trkpt lat="43.969169187640254" lon="11.318815396396404"><ele>206.0</ele><time>2026-04-26T09:43:24.999Z</time></trkpt><trkpt lat="43.96910867049651" lon="11.318644921671659"><ele>206.0</ele><time>2026-04-26T09:43:25.999Z</time></trkpt><trkpt lat="43.969033410805835" lon="11.318462850003362"><ele>206.33333333333334</ele><time>2026-04-26T09:43:26.999Z</time></trkpt><trkpt lat="43.96895043899284" lon="11.31826497629822"><ele>206.66666666666669</ele><time>2026-04-26T09:43:27.999Z</time></trkpt><trkpt lat="43.96886967210385" lon="11.318044388430778"><ele>207.0</ele><time>2026-04-26T09:43:28.999Z</time></trkpt><trkpt lat="43.968790738485694" lon="11.31782209999547"><ele>207.0</ele><time>2026-04-26T09:43:29.999Z</time></trkpt><trkpt lat="43.96871287700395" lon="11.317594542764965"><ele>207.0</ele><time>2026-04-26T09:43:30.999Z</time></trkpt><trkpt lat="43.96862518541954" lon="11.317354085295044"><ele>207.0</ele><time>2026-04-26T09:43:31.999Z</time></trkpt><trkpt lat="43.96853762847591" lon="11.317113281497702"><ele>207.0</ele><time>2026-04-26T09:43:32.999Z</time></trkpt><trkpt lat="43.96844680406458" lon="11.31687556183195"><ele>207.0</ele><time>2026-04-26T09:43:33.999Z</time></trkpt><trkpt lat="43.96835403355759" lon="11.316633647354731"><ele>207.0</ele><time>2026-04-26T09:43:34.999Z</time></trkpt><trkpt lat="43.968265818662225" lon="11.31638568072393"><ele>208.0</ele><time>2026-04-26T09:43:35.999Z</time></trkpt><trkpt lat="43.968171464919855" lon="11.316142674654786"><ele>209.0</ele><time>2026-04-26T09:43:36.999Z</time></trkpt><trkpt lat="43.9680812148978" lon="11.315893662394277"><ele>210.0</ele><time>2026-04-26T09:43:37.999Z</time></trkpt><trkpt lat="43.967989995157104" lon="11.315643303834088"><ele>210.66666666666669</ele><time>2026-04-26T09:43:38.999Z</time></trkpt><trkpt lat="43.96789823407228" lon="11.315391560940958"><ele>211.33333333333334</ele><time>2026-04-26T09:43:39.999Z</time></trkpt><trkpt lat="43.9678048996593" lon="11.315135813307243"><ele>212.0</ele><time>2026-04-26T09:43:40.999Z</time></trkpt><trkpt lat="43.96771123684554" lon="11.314876700642095"><ele>212.0</ele><time>2026-04-26T09:43:41.999Z</time></trkpt><trkpt lat="43.96761313652891" lon="11.314617233113907"><ele>212.0</ele><time>2026-04-26T09:43:42.999Z</time></trkpt><trkpt lat="43.96751391824343" lon="11.314356365602077"><ele>212.0</ele><time>2026-04-26T09:43:43.999Z</time></trkpt><trkpt lat="43.967415284048215" lon="11.314094351703675"><ele>212.66666666666669</ele><time>2026-04-26T09:43:44.999Z</time></trkpt><trkpt lat="43.9673317910601" lon="11.31381787730975"><ele>213.33333333333331</ele><time>2026-04-26T09:43:45.999Z</time></trkpt><trkpt lat="43.96721873601987" lon="11.313561348509454"><ele>214.0</ele><time>2026-04-26T09:43:46.999Z</time></trkpt><trkpt lat="43.96712162362069" lon="11.313294748760073"><ele>213.33333333333331</ele><time>2026-04-26T09:43:47.999Z</time></trkpt><trkpt lat="43.96704042699155" lon="11.313019391671489"><ele>212.66666666666669</ele><time>2026-04-26T09:43:48.999Z</time></trkpt><trkpt lat="43.966948036975694" lon="11.3127592429389"><ele>212.0</ele><time>2026-04-26T09:43:49.999Z</time></trkpt><trkpt lat="43.96685149040927" lon="11.312509244742282"><ele>212.0</ele><time>2026-04-26T09:43:50.999Z</time></trkpt><trkpt lat="43.966746926827106" lon="11.312269739414688"><ele>212.0</ele><time>2026-04-26T09:43:51.999Z</time></trkpt><trkpt lat="43.96661751068868" lon="11.31205083430147"><ele>212.0</ele><time>2026-04-26T09:43:52.999Z</time></trkpt><trkpt lat="43.966485949287595" lon="11.311823642836368"><ele>212.0</ele><time>2026-04-26T09:43:53.999Z</time></trkpt><trkpt lat="43.96633629204313" lon="11.311614277974991"><ele>212.0</ele><time>2026-04-26T09:43:54.999Z</time></trkpt><trkpt lat="43.96616165636704" lon="11.311428753696948"><ele>212.0</ele><time>2026-04-26T09:43:55.999Z</time></trkpt><trkpt lat="43.965974391668986" lon="11.311264213193436"><ele>212.0</ele><time>2026-04-26T09:43:56.999Z</time></trkpt><trkpt lat="43.96577022056657" lon="11.311127890988876"><ele>212.0</ele><time>2026-04-26T09:43:57.999Z</time></trkpt><trkpt lat="43.96555227728772" lon="11.311015776989585"><ele>212.0</ele><time>2026-04-26T09:43:58.999Z</time></trkpt><trkpt lat="43.96532849369265" lon="11.310924620374623"><ele>212.0</ele><time>2026-04-26T09:43:59.999Z</time></trkpt><trkpt lat="43.965096723064654" lon="11.310849573799473"><ele>211.0</ele><time>2026-04-26T09:44:00.999Z</time></trkpt><trkpt lat="43.9648688043915" lon="11.310778674867759"><ele>210.0</ele><time>2026-04-26T09:44:01.999Z</time></trkpt><trkpt lat="43.96464552053702" lon="11.310703536557165"><ele>210.0</ele><time>2026-04-26T09:44:02.999Z</time></trkpt><trkpt lat="43.96442326133251" lon="11.310623929670395"><ele>210.0</ele><time>2026-04-26T09:44:03.999Z</time></trkpt><trkpt lat="43.96420790611742" lon="11.310508905795368"><ele>211.0</ele><time>2026-04-26T09:44:05Z</time></trkpt><trkpt lat="43.963990628233454" lon="11.310406522249695"><ele>212.0</ele><time>2026-04-26T09:44:06Z</time></trkpt><trkpt lat="43.96379072854717" lon="11.310253032168756"><ele>212.0</ele><time>2026-04-26T09:44:07Z</time></trkpt><trkpt lat="43.963601960611115" lon="11.310078505349113"><ele>212.0</ele><time>2026-04-26T09:44:08Z</time></trkpt><trkpt lat="43.96344530182728" lon="11.309856200622201"><ele>213.66666666666669</ele><time>2026-04-26T09:44:09Z</time></trkpt><trkpt lat="43.9632936298921" lon="11.309629496256301"><ele>215.33333333333331</ele><time>2026-04-26T09:44:10Z</time></trkpt><trkpt lat="43.96315832666254" lon="11.309382305245501"><ele>217.0</ele><time>2026-04-26T09:44:11Z</time></trkpt><trkpt lat="43.96304141964681" lon="11.30911780971826"><ele>214.0</ele><time>2026-04-26T09:44:12Z</time></trkpt><trkpt lat="43.96294817355242" lon="11.308834031240023"><ele>211.0</ele><time>2026-04-26T09:44:13Z</time></trkpt><trkpt lat="43.96285469450813" lon="11.308545456284321"><ele>211.0</ele><time>2026-04-26T09:44:14Z</time></trkpt><trkpt lat="43.96274785079784" lon="11.30826966896615"><ele>211.0</ele><time>2026-04-26T09:44:15Z</time></trkpt><trkpt lat="43.96265670686282" lon="11.307982322901742"><ele>210.0</ele><time>2026-04-26T09:44:16Z</time></trkpt><trkpt lat="43.96257874319585" lon="11.307687162900724"><ele>209.0</ele><time>2026-04-26T09:44:17Z</time></trkpt><trkpt lat="43.96248697480307" lon="11.307399464836148"><ele>209.66666666666669</ele><time>2026-04-26T09:44:18Z</time></trkpt><trkpt lat="43.962395660933744" lon="11.307113191702607"><ele>210.33333333333331</ele><time>2026-04-26T09:44:19Z</time></trkpt><trkpt lat="43.96231105154575" lon="11.306850957983347"><ele>211.0</ele><time>2026-04-26T09:44:20Z</time></trkpt><trkpt lat="43.9622142886397" lon="11.306605242253582"><ele>210.33333333333331</ele><time>2026-04-26T09:44:21Z</time></trkpt><trkpt lat="43.96213640460946" lon="11.30636485960753"><ele>209.66666666666669</ele><time>2026-04-26T09:44:22Z</time></trkpt><trkpt lat="43.96206400777128" lon="11.306132177744328"><ele>209.0</ele><time>2026-04-26T09:44:23Z</time></trkpt><trkpt lat="43.96199684760028" lon="11.30590933980136"><ele>209.0</ele><time>2026-04-26T09:44:24Z</time></trkpt><trkpt lat="43.961929821481384" lon="11.305697209612386"><ele>209.0</ele><time>2026-04-26T09:44:25Z</time></trkpt><trkpt lat="43.96186084609504" lon="11.305490179758294"><ele>209.0</ele><time>2026-04-26T09:44:26Z</time></trkpt><trkpt lat="43.96179545798829" lon="11.305288761531775"><ele>209.66666666666669</ele><time>2026-04-26T09:44:27Z</time></trkpt><trkpt lat="43.96173177267962" lon="11.305083217439078"><ele>210.33333333333331</ele><time>2026-04-26T09:44:28Z</time></trkpt><trkpt lat="43.96166376855933" lon="11.304884319120427"><ele>211.0</ele><time>2026-04-26T09:44:29Z</time></trkpt><trkpt lat="43.9616000946158" lon="11.3046869918359"><ele>211.25</ele><time>2026-04-26T09:44:30Z</time></trkpt><trkpt lat="43.96154022782223" lon="11.304499740741367"><ele>211.5</ele><time>2026-04-26T09:44:31Z</time></trkpt><trkpt lat="43.96149163574451" lon="11.304322551740032"><ele>211.75</ele><time>2026-04-26T09:44:32Z</time></trkpt><trkpt lat="43.961453174042305" lon="11.304156330837118"><ele>212.0</ele><time>2026-04-26T09:44:33Z</time></trkpt><trkpt lat="43.961426301766345" lon="11.303989190216765"><ele>212.25</ele><time>2026-04-26T09:44:34Z</time></trkpt><trkpt lat="43.96141842686798" lon="11.303821430007561"><ele>212.5</ele><time>2026-04-26T09:44:35Z</time></trkpt><trkpt lat="43.96143132853259" lon="11.30365924035794"><ele>212.75</ele><time>2026-04-26T09:44:36Z</time></trkpt><trkpt lat="43.96147536012377" lon="11.303493592362235"><ele>213.0</ele><time>2026-04-26T09:44:37Z</time></trkpt><trkpt lat="43.96153257949683" lon="11.303322477282794"><ele>213.0</ele><time>2026-04-26T09:44:38Z</time></trkpt><trkpt lat="43.96160398684238" lon="11.303149680831694"><ele>213.0</ele><time>2026-04-26T09:44:39Z</time></trkpt><trkpt lat="43.96168413765823" lon="11.302975507668663"><ele>213.0</ele><time>2026-04-26T09:44:40Z</time></trkpt><trkpt lat="43.96176774320157" lon="11.302800793054702"><ele>213.0</ele><time>2026-04-26T09:44:41Z</time></trkpt><trkpt lat="43.9618545216514" lon="11.302617768905105"><ele>212.5</ele><time>2026-04-26T09:44:42Z</time></trkpt><trkpt lat="43.961931349313915" lon="11.302430933033435"><ele>212.0</ele><time>2026-04-26T09:44:43Z</time></trkpt><trkpt lat="43.9620029251381" lon="11.302251778821915"><ele>211.5</ele><time>2026-04-26T09:44:44Z</time></trkpt><trkpt lat="43.962103744390014" lon="11.302122126443107"><ele>211.0</ele><time>2026-04-26T09:44:45Z</time></trkpt><trkpt lat="43.96221980540373" lon="11.302004868654306"><ele>212.33333333333331</ele><time>2026-04-26T09:44:46Z</time></trkpt><trkpt lat="43.9623569597536" lon="11.30191987367985"><ele>213.66666666666669</ele><time>2026-04-26T09:44:47Z</time></trkpt><trkpt lat="43.96250767400047" lon="11.301867206481495"><ele>215.0</ele><time>2026-04-26T09:44:48Z</time></trkpt><trkpt lat="43.96266762064722" lon="11.301857721966318"><ele>215.0</ele><time>2026-04-26T09:44:49Z</time></trkpt><trkpt lat="43.96280114707022" lon="11.301884932235208"><ele>215.0</ele><time>2026-04-26T09:44:50Z</time></trkpt><trkpt lat="43.96294766757826" lon="11.301837371772644"><ele>215.0</ele><time>2026-04-26T09:44:51Z</time></trkpt><trkpt lat="43.96307983972129" lon="11.30175016535082"><ele>215.0</ele><time>2026-04-26T09:44:52Z</time></trkpt><trkpt lat="43.96318270136585" lon="11.301710146426613"><ele>215.0</ele><time>2026-04-26T09:44:53Z</time></trkpt><trkpt lat="43.9632952922122" lon="11.301595740427063"><ele>215.0</ele><time>2026-04-26T09:44:54Z</time></trkpt><trkpt lat="43.963402800779996" lon="11.301446880101334"><ele>215.0</ele><time>2026-04-26T09:44:55Z</time></trkpt><trkpt lat="43.96351664216175" lon="11.301284106856954"><ele>215.0</ele><time>2026-04-26T09:44:56Z</time></trkpt><trkpt lat="43.963644610209855" lon="11.30110197987398"><ele>215.0</ele><time>2026-04-26T09:44:57Z</time></trkpt><trkpt lat="43.96380033967157" lon="11.300918483355204"><ele>215.0</ele><time>2026-04-26T09:44:58Z</time></trkpt><trkpt lat="43.96396125131618" lon="11.300718056686186"><ele>215.0</ele><time>2026-04-26T09:44:59Z</time></trkpt><trkpt lat="43.96412787212364" lon="11.300518834694527"><ele>215.0</ele><time>2026-04-26T09:45:00Z</time></trkpt><trkpt lat="43.96428727274896" lon="11.300349017020414"><ele>215.0</ele><time>2026-04-26T09:45:01Z</time></trkpt><trkpt lat="43.964426617353205" lon="11.300177075278635"><ele>215.0</ele><time>2026-04-26T09:45:02Z</time></trkpt><trkpt lat="43.96455578475682" lon="11.300005550008349"><ele>215.0</ele><time>2026-04-26T09:45:03Z</time></trkpt><trkpt lat="43.96467496505998" lon="11.299846322519258"><ele>215.0</ele><time>2026-04-26T09:45:04Z</time></trkpt><trkpt lat="43.96478547696823" lon="11.299693977477773"><ele>215.5</ele><time>2026-04-26T09:45:05Z</time></trkpt><trkpt lat="43.9648797823413" lon="11.299541407951232"><ele>216.0</ele><time>2026-04-26T09:45:06Z</time></trkpt><trkpt lat="43.9649460027371" lon="11.299382984462266"><ele>216.5</ele><time>2026-04-26T09:45:07Z</time></trkpt><trkpt lat="43.96497581522247" lon="11.2992019158744"><ele>217.0</ele><time>2026-04-26T09:45:08Z</time></trkpt><trkpt lat="43.964960735154996" lon="11.29900216148891"><ele>217.66666666666666</ele><time>2026-04-26T09:45:09Z</time></trkpt><trkpt lat="43.9649582205921" lon="11.298765092444288"><ele>218.33333333333331</ele><time>2026-04-26T09:45:10Z</time></trkpt><trkpt lat="43.96494003224359" lon="11.298527146915584"><ele>219.0</ele><time>2026-04-26T09:45:11Z</time></trkpt><trkpt lat="43.964924883071355" lon="11.29828198611106"><ele>220.0</ele><time>2026-04-26T09:45:12Z</time></trkpt><trkpt lat="43.96491256193734" lon="11.298030536343818"><ele>221.0</ele><time>2026-04-26T09:45:13Z</time></trkpt><trkpt lat="43.96489794088612" lon="11.297771404476675"><ele>222.0</ele><time>2026-04-26T09:45:14Z</time></trkpt><trkpt lat="43.96488272024676" lon="11.297506553027139"><ele>223.0</ele><time>2026-04-26T09:45:15Z</time></trkpt><trkpt lat="43.96486997735072" lon="11.29723545548895"><ele>224.0</ele><time>2026-04-26T09:45:16Z</time></trkpt><trkpt lat="43.96485608732131" lon="11.296967616292898"><ele>225.0</ele><time>2026-04-26T09:45:17Z</time></trkpt><trkpt lat="43.964839204700205" lon="11.296726038802044"><ele>225.0</ele><time>2026-04-26T09:45:18Z</time></trkpt><trkpt lat="43.9648238564972" lon="11.296522634223193"><ele>225.0</ele><time>2026-04-26T09:45:19Z</time></trkpt><trkpt lat="43.964830479202554" lon="11.296346955274277"><ele>225.0</ele><time>2026-04-26T09:45:20Z</time></trkpt><trkpt lat="43.96487314215547" lon="11.296197486389104"><ele>225.0</ele><time>2026-04-26T09:45:21Z</time></trkpt><trkpt lat="43.964951277984476" lon="11.296071179492262"><ele>225.33333333333331</ele><time>2026-04-26T09:45:22Z</time></trkpt><trkpt lat="43.96506421960527" lon="11.295958266106854"><ele>225.66666666666666</ele><time>2026-04-26T09:45:23Z</time></trkpt><trkpt lat="43.96519249665956" lon="11.295837683310255"><ele>226.0</ele><time>2026-04-26T09:45:24Z</time></trkpt><trkpt lat="43.96532410178747" lon="11.295699850335733"><ele>226.66666666666666</ele><time>2026-04-26T09:45:25Z</time></trkpt><trkpt lat="43.965463099229254" lon="11.295551548981868"><ele>227.33333333333331</ele><time>2026-04-26T09:45:26Z</time></trkpt><trkpt lat="43.96561094591106" lon="11.295401879657854"><ele>228.0</ele><time>2026-04-26T09:45:27Z</time></trkpt><trkpt lat="43.96576299297978" lon="11.295260302529014"><ele>227.66666666666669</ele><time>2026-04-26T09:45:28Z</time></trkpt><trkpt lat="43.965915605842426" lon="11.295127418735273"><ele>227.33333333333334</ele><time>2026-04-26T09:45:29Z</time></trkpt><trkpt lat="43.96607226949522" lon="11.29499711253852"><ele>227.0</ele><time>2026-04-26T09:45:30Z</time></trkpt><trkpt lat="43.96622410032769" lon="11.294856758426807"><ele>227.0</ele><time>2026-04-26T09:45:31Z</time></trkpt><trkpt lat="43.96638008244252" lon="11.294718485073037"><ele>227.0</ele><time>2026-04-26T09:45:32Z</time></trkpt><trkpt lat="43.96653581458559" lon="11.294578879635992"><ele>227.0</ele><time>2026-04-26T09:45:33Z</time></trkpt><trkpt lat="43.966689704573135" lon="11.294441753526767"><ele>226.0</ele><time>2026-04-26T09:45:34Z</time></trkpt><trkpt lat="43.966848717622774" lon="11.294299886165888"><ele>225.0</ele><time>2026-04-26T09:45:35Z</time></trkpt><trkpt lat="43.96700390478045" lon="11.294160451792155"><ele>224.0</ele><time>2026-04-26T09:45:36Z</time></trkpt><trkpt lat="43.96716019370949" lon="11.294017336455978"><ele>224.33333333333334</ele><time>2026-04-26T09:45:36.999Z</time></trkpt><trkpt lat="43.96731563243577" lon="11.293877060264967"><ele>224.66666666666669</ele><time>2026-04-26T09:45:37.999Z</time></trkpt><trkpt lat="43.96747693279746" lon="11.2937422190346"><ele>225.0</ele><time>2026-04-26T09:45:38.999Z</time></trkpt><trkpt lat="43.9676372438397" lon="11.293599316673562"><ele>225.0</ele><time>2026-04-26T09:45:39.999Z</time></trkpt><trkpt lat="43.96779915359083" lon="11.293456945109899"><ele>225.0</ele><time>2026-04-26T09:45:40.999Z</time></trkpt><trkpt lat="43.967963240030734" lon="11.293310599163028"><ele>225.0</ele><time>2026-04-26T09:45:41.999Z</time></trkpt><trkpt lat="43.96813071382258" lon="11.293164910534564"><ele>224.66666666666669</ele><time>2026-04-26T09:45:42.999Z</time></trkpt><trkpt lat="43.96829761627592" lon="11.2930192759003"><ele>224.33333333333334</ele><time>2026-04-26T09:45:43.999Z</time></trkpt><trkpt lat="43.96846453740115" lon="11.2928712179669"><ele>224.0</ele><time>2026-04-26T09:45:44.999Z</time></trkpt><trkpt lat="43.9686329071661" lon="11.292722844345024"><ele>224.0</ele><time>2026-04-26T09:45:45.999Z</time></trkpt><trkpt lat="43.968800791138" lon="11.292574499629803"><ele>224.0</ele><time>2026-04-26T09:45:46.999Z</time></trkpt><trkpt lat="43.96896848847707" lon="11.292421937233001"><ele>224.0</ele><time>2026-04-26T09:45:47.999Z</time></trkpt><trkpt lat="43.969135890814634" lon="11.292270603247319"><ele>224.0</ele><time>2026-04-26T09:45:48.999Z</time></trkpt><trkpt lat="43.96930419358633" lon="11.292117068355362"><ele>224.0</ele><time>2026-04-26T09:45:49.999Z</time></trkpt><trkpt lat="43.96947275810165" lon="11.291966354929574"><ele>224.0</ele><time>2026-04-26T09:45:50.999Z</time></trkpt><trkpt lat="43.96964272964816" lon="11.291815340801582"><ele>224.0</ele><time>2026-04-26T09:45:51.999Z</time></trkpt><trkpt lat="43.96981486367301" lon="11.291666322169426"><ele>224.0</ele><time>2026-04-26T09:45:52.999Z</time></trkpt><trkpt lat="43.96998541492811" lon="11.291516690098657"><ele>224.0</ele><time>2026-04-26T09:45:53.999Z</time></trkpt><trkpt lat="43.97015484632131" lon="11.291366214109997"><ele>223.66666666666669</ele><time>2026-04-26T09:45:54.999Z</time></trkpt><trkpt lat="43.970327795876955" lon="11.29121613346574"><ele>223.33333333333331</ele><time>2026-04-26T09:45:55.999Z</time></trkpt><trkpt lat="43.97049945354203" lon="11.291064809936103"><ele>223.0</ele><time>2026-04-26T09:45:56.999Z</time></trkpt><trkpt lat="43.97066767271858" lon="11.290914021147541"><ele>223.0</ele><time>2026-04-26T09:45:57.999Z</time></trkpt><trkpt lat="43.97083537087865" lon="11.29076229154579"><ele>223.0</ele><time>2026-04-26T09:45:58.999Z</time></trkpt><trkpt lat="43.97100462199162" lon="11.290610769554853"><ele>223.0</ele><time>2026-04-26T09:45:59.999Z</time></trkpt><trkpt lat="43.97117479648269" lon="11.29046285017977"><ele>222.66666666666666</ele><time>2026-04-26T09:46:00.999Z</time></trkpt><trkpt lat="43.971341666561294" lon="11.290319890655132"><ele>222.33333333333331</ele><time>2026-04-26T09:46:01.999Z</time></trkpt><trkpt lat="43.97150658994291" lon="11.290173312280844"><ele>222.0</ele><time>2026-04-26T09:46:02.999Z</time></trkpt><trkpt lat="43.97166640571393" lon="11.290028232670037"><ele>222.0</ele><time>2026-04-26T09:46:03.999Z</time></trkpt><trkpt lat="43.97182268001869" lon="11.289895587408633"><ele>222.0</ele><time>2026-04-26T09:46:04.999Z</time></trkpt><trkpt lat="43.97197734441948" lon="11.289753129418164"><ele>222.0</ele><time>2026-04-26T09:46:05.999Z</time></trkpt><trkpt lat="43.97211601859293" lon="11.289630914334014"><ele>222.0</ele><time>2026-04-26T09:46:06.999Z</time></trkpt><trkpt lat="43.97224742663706" lon="11.289518003918312"><ele>222.0</ele><time>2026-04-26T09:46:07.999Z</time></trkpt><trkpt lat="43.972371528689195" lon="11.28940613485391"><ele>222.0</ele><time>2026-04-26T09:46:08.999Z</time></trkpt><trkpt lat="43.97248884608951" lon="11.28930157144758"><ele>222.0</ele><time>2026-04-26T09:46:09.999Z</time></trkpt><trkpt lat="43.972593345354696" lon="11.289209089331154"><ele>222.0</ele><time>2026-04-26T09:46:11Z</time></trkpt><trkpt lat="43.972689635705024" lon="11.289123662596625"><ele>222.0</ele><time>2026-04-26T09:46:12Z</time></trkpt><trkpt lat="43.97278051769121" lon="11.289068524689897"><ele>222.0</ele><time>2026-04-26T09:46:13Z</time></trkpt><trkpt lat="43.972870517280654" lon="11.289057098847298"><ele>222.0</ele><time>2026-04-26T09:46:14Z</time></trkpt><trkpt lat="43.972956350654336" lon="11.289110834266983"><ele>222.0</ele><time>2026-04-26T09:46:15Z</time></trkpt><trkpt lat="43.97305925178885" lon="11.289152145223955"><ele>222.0</ele><time>2026-04-26T09:46:16Z</time></trkpt><trkpt lat="43.97315395582089" lon="11.289175797958272"><ele>222.0</ele><time>2026-04-26T09:46:17Z</time></trkpt><trkpt lat="43.97326257315857" lon="11.289150333632254"><ele>222.0</ele><time>2026-04-26T09:46:18Z</time></trkpt><trkpt lat="43.97334997044248" lon="11.2890589547776"><ele>222.0</ele><time>2026-04-26T09:46:19Z</time></trkpt><trkpt lat="43.97341453578977" lon="11.288924175880219"><ele>222.0</ele><time>2026-04-26T09:46:20Z</time></trkpt><trkpt lat="43.973460484512884" lon="11.28876242741864"><ele>222.0</ele><time>2026-04-26T09:46:21Z</time></trkpt><trkpt lat="43.973531503749356" lon="11.28860817035088"><ele>222.0</ele><time>2026-04-26T09:46:22Z</time></trkpt><trkpt lat="43.97364492878857" lon="11.288484736133254"><ele>222.0</ele><time>2026-04-26T09:46:23Z</time></trkpt><trkpt lat="43.973809330854756" lon="11.288435375191414"><ele>222.0</ele><time>2026-04-26T09:46:24Z</time></trkpt><trkpt lat="43.97399106274883" lon="11.28836818212229"><ele>222.0</ele><time>2026-04-26T09:46:25Z</time></trkpt><trkpt lat="43.974165238440854" lon="11.28830578222547"><ele>222.0</ele><time>2026-04-26T09:46:26Z</time></trkpt><trkpt lat="43.97435476800127" lon="11.288242574940629"><ele>222.0</ele><time>2026-04-26T09:46:27Z</time></trkpt><trkpt lat="43.97456444430837" lon="11.288169870723584"><ele>222.66666666666669</ele><time>2026-04-26T09:46:28Z</time></trkpt><trkpt lat="43.974764492948395" lon="11.288130160979856"><ele>223.33333333333334</ele><time>2026-04-26T09:46:29Z</time></trkpt><trkpt lat="43.97496757167132" lon="11.288105273467142"><ele>224.0</ele><time>2026-04-26T09:46:30Z</time></trkpt><trkpt lat="43.97518097657004" lon="11.288092042564221"><ele>224.33333333333334</ele><time>2026-04-26T09:46:31Z</time></trkpt><trkpt lat="43.975394781511106" lon="11.288081644551465"><ele>224.66666666666669</ele><time>2026-04-26T09:46:32Z</time></trkpt><trkpt lat="43.975609849123785" lon="11.288088074235969"><ele>225.0</ele><time>2026-04-26T09:46:33Z</time></trkpt><trkpt lat="43.97582433800107" lon="11.28810266197342"><ele>224.0</ele><time>2026-04-26T09:46:34Z</time></trkpt><trkpt lat="43.976039571559646" lon="11.288131408532363"><ele>223.0</ele><time>2026-04-26T09:46:35Z</time></trkpt><trkpt lat="43.97625336820553" lon="11.288167737678474"><ele>222.0</ele><time>2026-04-26T09:46:36Z</time></trkpt><trkpt lat="43.97646871998418" lon="11.288210553280356"><ele>224.0</ele><time>2026-04-26T09:46:37Z</time></trkpt><trkpt lat="43.976689300424816" lon="11.288252143603591"><ele>226.0</ele><time>2026-04-26T09:46:38Z</time></trkpt><trkpt lat="43.97690917542003" lon="11.288290809843346"><ele>228.0</ele><time>2026-04-26T09:46:39Z</time></trkpt><trkpt lat="43.977130595392225" lon="11.288330242135526"><ele>228.0</ele><time>2026-04-26T09:46:40Z</time></trkpt><trkpt lat="43.97735101675191" lon="11.288368716218626"><ele>228.0</ele><time>2026-04-26T09:46:41Z</time></trkpt><trkpt lat="43.977566480516614" lon="11.28840435977376"><ele>228.0</ele><time>2026-04-26T09:46:42Z</time></trkpt><trkpt lat="43.97777635203532" lon="11.28843523124862"><ele>229.33333333333331</ele><time>2026-04-26T09:46:43Z</time></trkpt><trkpt lat="43.97798052176864" lon="11.288460292574163"><ele>230.66666666666666</ele><time>2026-04-26T09:46:44Z</time></trkpt><trkpt lat="43.978180097800085" lon="11.288480887947932"><ele>232.0</ele><time>2026-04-26T09:46:45Z</time></trkpt><trkpt lat="43.978374999312045" lon="11.288493405221335"><ele>233.66666666666666</ele><time>2026-04-26T09:46:46Z</time></trkpt><trkpt lat="43.97856952313102" lon="11.288498228608267"><ele>235.33333333333331</ele><time>2026-04-26T09:46:47Z</time></trkpt><trkpt lat="43.97876289967361" lon="11.288494914301731"><ele>237.0</ele><time>2026-04-26T09:46:48Z</time></trkpt><trkpt lat="43.97894875588303" lon="11.288487692182331"><ele>237.0</ele><time>2026-04-26T09:46:49Z</time></trkpt><trkpt lat="43.97912414029708" lon="11.288476913862954"><ele>237.0</ele><time>2026-04-26T09:46:50Z</time></trkpt><trkpt lat="43.97929972888807" lon="11.288459842618654"><ele>237.0</ele><time>2026-04-26T09:46:51Z</time></trkpt><trkpt lat="43.97947465132102" lon="11.288436432025604"><ele>237.66666666666669</ele><time>2026-04-26T09:46:52Z</time></trkpt><trkpt lat="43.97964858333938" lon="11.288393420127655"><ele>238.33333333333334</ele><time>2026-04-26T09:46:53Z</time></trkpt><trkpt lat="43.979839783649126" lon="11.288330182916686"><ele>239.0</ele><time>2026-04-26T09:46:54Z</time></trkpt><trkpt lat="43.97999411616594" lon="11.288323842171373"><ele>240.66666666666669</ele><time>2026-04-26T09:46:55Z</time></trkpt><trkpt lat="43.98015681340287" lon="11.288260024607359"><ele>242.33333333333331</ele><time>2026-04-26T09:46:56Z</time></trkpt><trkpt lat="43.98031825227121" lon="11.288172061421434"><ele>244.0</ele><time>2026-04-26T09:46:57Z</time></trkpt><trkpt lat="43.98047972688348" lon="11.288069387924143"><ele>244.0</ele><time>2026-04-26T09:46:58Z</time></trkpt><trkpt lat="43.98063908848836" lon="11.287960457879414"><ele>244.0</ele><time>2026-04-26T09:46:59Z</time></trkpt><trkpt lat="43.98079106356031" lon="11.287843184170612"><ele>244.0</ele><time>2026-04-26T09:47:00Z</time></trkpt><trkpt lat="43.98093914563404" lon="11.287707412324902"><ele>243.66666666666666</ele><time>2026-04-26T09:47:01Z</time></trkpt><trkpt lat="43.98108030122658" lon="11.287561079937605"><ele>243.33333333333331</ele><time>2026-04-26T09:47:02Z</time></trkpt><trkpt lat="43.981217151735954" lon="11.287405175869813"><ele>243.0</ele><time>2026-04-26T09:47:03Z</time></trkpt><trkpt lat="43.98135243629681" lon="11.287236656109267"><ele>243.0</ele><time>2026-04-26T09:47:04Z</time></trkpt><trkpt lat="43.98148694975203" lon="11.287061047552216"><ele>243.0</ele><time>2026-04-26T09:47:05Z</time></trkpt><trkpt lat="43.981626526653926" lon="11.286868329116352"><ele>243.0</ele><time>2026-04-26T09:47:06Z</time></trkpt><trkpt lat="43.981761439616534" lon="11.286663989176803"><ele>244.66666666666669</ele><time>2026-04-26T09:47:07Z</time></trkpt><trkpt lat="43.981884450789124" lon="11.286458290687383"><ele>246.33333333333334</ele><time>2026-04-26T09:47:08Z</time></trkpt><trkpt lat="43.981992835368054" lon="11.286253319230186"><ele>248.0</ele><time>2026-04-26T09:47:09Z</time></trkpt><trkpt lat="43.98208570922712" lon="11.286060219336417"><ele>249.0</ele><time>2026-04-26T09:47:10Z</time></trkpt><trkpt lat="43.98216433453722" lon="11.285863424538457"><ele>250.0</ele><time>2026-04-26T09:47:11Z</time></trkpt><trkpt lat="43.98223685864019" lon="11.285651728072681"><ele>251.0</ele><time>2026-04-26T09:47:12Z</time></trkpt><trkpt lat="43.98231640057215" lon="11.285417791916998"><ele>252.33333333333334</ele><time>2026-04-26T09:47:13Z</time></trkpt><trkpt lat="43.98238392610334" lon="11.285162610594893"><ele>253.66666666666669</ele><time>2026-04-26T09:47:14Z</time></trkpt><trkpt lat="43.98244528863825" lon="11.284909816952936"><ele>255.0</ele><time>2026-04-26T09:47:15Z</time></trkpt><trkpt lat="43.9824989719748" lon="11.284645379222782"><ele>260.0</ele><time>2026-04-26T09:47:16Z</time></trkpt><trkpt lat="43.98256574967564" lon="11.284366080391525"><ele>265.0</ele><time>2026-04-26T09:47:17Z</time></trkpt><trkpt lat="43.982608401987825" lon="11.284068050229646"><ele>270.0</ele><time>2026-04-26T09:47:18Z</time></trkpt><trkpt lat="43.982631496258385" lon="11.283756600813303"><ele>270.6666666666667</ele><time>2026-04-26T09:47:19Z</time></trkpt><trkpt lat="43.98266982770167" lon="11.283452420794637"><ele>271.33333333333337</ele><time>2026-04-26T09:47:20Z</time></trkpt><trkpt lat="43.98269474399219" lon="11.283149288438608"><ele>272.0</ele><time>2026-04-26T09:47:21Z</time></trkpt><trkpt lat="43.98270851910917" lon="11.282854410508667"><ele>272.33333333333337</ele><time>2026-04-26T09:47:22Z</time></trkpt><trkpt lat="43.98270974679749" lon="11.282558399848968"><ele>272.6666666666667</ele><time>2026-04-26T09:47:23Z</time></trkpt><trkpt lat="43.982716985611155" lon="11.282263417964627"><ele>273.0</ele><time>2026-04-26T09:47:24Z</time></trkpt><trkpt lat="43.98271584798214" lon="11.281978533521547"><ele>274.0</ele><time>2026-04-26T09:47:25Z</time></trkpt><trkpt lat="43.982716308088335" lon="11.281700550739357"><ele>275.0</ele><time>2026-04-26T09:47:26Z</time></trkpt><trkpt lat="43.98271481977731" lon="11.281419138745054"><ele>276.0</ele><time>2026-04-26T09:47:27Z</time></trkpt><trkpt lat="43.982715839687074" lon="11.281134195551163"><ele>276.0</ele><time>2026-04-26T09:47:28Z</time></trkpt><trkpt lat="43.982723408089086" lon="11.280848845203295"><ele>276.0</ele><time>2026-04-26T09:47:29Z</time></trkpt><trkpt lat="43.98274372029533" lon="11.280565134506539"><ele>276.0</ele><time>2026-04-26T09:47:30Z</time></trkpt><trkpt lat="43.982776029942826" lon="11.280279970645065"><ele>268.3333333333333</ele><time>2026-04-26T09:47:31Z</time></trkpt><trkpt lat="43.98284376785215" lon="11.280002120197164"><ele>260.66666666666663</ele><time>2026-04-26T09:47:32Z</time></trkpt><trkpt lat="43.98289191704652" lon="11.27970912675714"><ele>253.0</ele><time>2026-04-26T09:47:33Z</time></trkpt><trkpt lat="43.98295476847222" lon="11.279421269794604"><ele>250.0</ele><time>2026-04-26T09:47:34Z</time></trkpt><trkpt lat="43.98301851864842" lon="11.279133955761164"><ele>247.0</ele><time>2026-04-26T09:47:35Z</time></trkpt><trkpt lat="43.98307736549744" lon="11.278853060239179"><ele>244.0</ele><time>2026-04-26T09:47:36Z</time></trkpt><trkpt lat="43.98313727200166" lon="11.278583378757878"><ele>243.0</ele><time>2026-04-26T09:47:37Z</time></trkpt><trkpt lat="43.98319518399584" lon="11.278317696822194"><ele>242.0</ele><time>2026-04-26T09:47:38Z</time></trkpt><trkpt lat="43.983250096460374" lon="11.278055475572506"><ele>241.0</ele><time>2026-04-26T09:47:39Z</time></trkpt><trkpt lat="43.983304135199376" lon="11.27779561769176"><ele>241.0</ele><time>2026-04-26T09:47:40Z</time></trkpt><trkpt lat="43.98335731191519" lon="11.277532830667095"><ele>241.0</ele><time>2026-04-26T09:47:41Z</time></trkpt><trkpt lat="43.983408512455085" lon="11.277276430873423"><ele>241.0</ele><time>2026-04-26T09:47:42Z</time></trkpt><trkpt lat="43.983462279046606" lon="11.277023211988329"><ele>244.0</ele><time>2026-04-26T09:47:43Z</time></trkpt><trkpt lat="43.9835170239312" lon="11.276772768049078"><ele>247.0</ele><time>2026-04-26T09:47:44Z</time></trkpt><trkpt lat="43.9835700110354" lon="11.276530212104781"><ele>250.0</ele><time>2026-04-26T09:47:45Z</time></trkpt><trkpt lat="43.983619058916894" lon="11.276299899470311"><ele>257.3333333333333</ele><time>2026-04-26T09:47:46Z</time></trkpt><trkpt lat="43.983663098869194" lon="11.276078584865967"><ele>264.6666666666667</ele><time>2026-04-26T09:47:47Z</time></trkpt><trkpt lat="43.983726049083586" lon="11.275869283571291"><ele>272.0</ele><time>2026-04-26T09:47:48Z</time></trkpt><trkpt lat="43.98377440371066" lon="11.275655529148013"><ele>272.6666666666667</ele><time>2026-04-26T09:47:49Z</time></trkpt><trkpt lat="43.98381428251781" lon="11.27543692471415"><ele>273.3333333333333</ele><time>2026-04-26T09:47:50Z</time></trkpt><trkpt lat="43.98388423566379" lon="11.275227036388236"><ele>274.0</ele><time>2026-04-26T09:47:51Z</time></trkpt><trkpt lat="43.98396472948712" lon="11.27502245207081"><ele>274.0</ele><time>2026-04-26T09:47:52Z</time></trkpt><trkpt lat="43.98405617277914" lon="11.27482963749387"><ele>274.0</ele><time>2026-04-26T09:47:53Z</time></trkpt><trkpt lat="43.984154050670774" lon="11.274653697850788"><ele>274.0</ele><time>2026-04-26T09:47:54Z</time></trkpt><trkpt lat="43.984257218491955" lon="11.274493278409707"><ele>276.25</ele><time>2026-04-26T09:47:55Z</time></trkpt><trkpt lat="43.984364417410085" lon="11.274351281271521"><ele>278.5</ele><time>2026-04-26T09:47:56Z</time></trkpt><trkpt lat="43.984470969945875" lon="11.274233491222368"><ele>280.75</ele><time>2026-04-26T09:47:57Z</time></trkpt><trkpt lat="43.9845788503602" lon="11.274126950403456"><ele>283.0</ele><time>2026-04-26T09:47:58Z</time></trkpt><trkpt lat="43.984691206084115" lon="11.274027787806093"><ele>283.0</ele><time>2026-04-26T09:47:59Z</time></trkpt><trkpt lat="43.98480918488673" lon="11.27393871684259"><ele>283.0</ele><time>2026-04-26T09:48:00Z</time></trkpt><trkpt lat="43.984932560610446" lon="11.273860886776887"><ele>283.0</ele><time>2026-04-26T09:48:01Z</time></trkpt><trkpt lat="43.98505109347025" lon="11.27380039245072"><ele>283.0</ele><time>2026-04-26T09:48:02Z</time></trkpt><trkpt lat="43.98516137257293" lon="11.273750352858347"><ele>283.0</ele><time>2026-04-26T09:48:03Z</time></trkpt><trkpt lat="43.985272860151156" lon="11.273705258063"><ele>283.0</ele><time>2026-04-26T09:48:04Z</time></trkpt><trkpt lat="43.98538862794301" lon="11.2736666115319"><ele>283.0</ele><time>2026-04-26T09:48:05Z</time></trkpt><trkpt lat="43.985501892374366" lon="11.273627185633945"><ele>283.0</ele><time>2026-04-26T09:48:06Z</time></trkpt><trkpt lat="43.98560681785731" lon="11.273597157954509"><ele>283.0</ele><time>2026-04-26T09:48:07Z</time></trkpt><trkpt lat="43.98570787214441" lon="11.273568908038916"><ele>283.0</ele><time>2026-04-26T09:48:08Z</time></trkpt><trkpt lat="43.98581761155896" lon="11.273542160130251"><ele>283.0</ele><time>2026-04-26T09:48:09Z</time></trkpt><trkpt lat="43.985937926878776" lon="11.27351620800063"><ele>283.0</ele><time>2026-04-26T09:48:10Z</time></trkpt><trkpt lat="43.986074756363415" lon="11.27349478270067"><ele>284.0</ele><time>2026-04-26T09:48:11Z</time></trkpt><trkpt lat="43.98622270815425" lon="11.273475760637217"><ele>285.0</ele><time>2026-04-26T09:48:12Z</time></trkpt><trkpt lat="43.986372614831026" lon="11.273455893241419"><ele>286.0</ele><time>2026-04-26T09:48:13Z</time></trkpt><trkpt lat="43.98654891860953" lon="11.273432117351634"><ele>287.3333333333333</ele><time>2026-04-26T09:48:14Z</time></trkpt><trkpt lat="43.98673268349896" lon="11.27340958157387"><ele>288.6666666666667</ele><time>2026-04-26T09:48:15Z</time></trkpt><trkpt lat="43.986928907177436" lon="11.273386410920537"><ele>290.0</ele><time>2026-04-26T09:48:16Z</time></trkpt><trkpt lat="43.987132896948786" lon="11.27336313492876"><ele>290.0</ele><time>2026-04-26T09:48:17.001Z</time></trkpt><trkpt lat="43.98733114104807" lon="11.273339127261146"><ele>290.0</ele><time>2026-04-26T09:48:18.001Z</time></trkpt><trkpt lat="43.98752347811014" lon="11.273313983358065"><ele>290.0</ele><time>2026-04-26T09:48:19.001Z</time></trkpt><trkpt lat="43.987718099002265" lon="11.27328109749824"><ele>293.33333333333337</ele><time>2026-04-26T09:48:20.001Z</time></trkpt><trkpt lat="43.987913989666865" lon="11.273237518282635"><ele>296.6666666666667</ele><time>2026-04-26T09:48:21.001Z</time></trkpt><trkpt lat="43.98810494898457" lon="11.273184196307497"><ele>300.0</ele><time>2026-04-26T09:48:22.001Z</time></trkpt><trkpt lat="43.98828946738113" lon="11.273116516004396"><ele>298.6666666666667</ele><time>2026-04-26T09:48:23.001Z</time></trkpt><trkpt lat="43.98847015672331" lon="11.273029060935247"><ele>297.33333333333337</ele><time>2026-04-26T09:48:24.001Z</time></trkpt><trkpt lat="43.98865151663711" lon="11.272924008769031"><ele>296.0</ele><time>2026-04-26T09:48:25.001Z</time></trkpt><trkpt lat="43.98882781311473" lon="11.272799629150498"><ele>296.0</ele><time>2026-04-26T09:48:26.001Z</time></trkpt><trkpt lat="43.98900610061461" lon="11.272676583599166"><ele>296.0</ele><time>2026-04-26T09:48:27.001Z</time></trkpt><trkpt lat="43.98918816687029" lon="11.272550984561404"><ele>296.0</ele><time>2026-04-26T09:48:28.001Z</time></trkpt><trkpt lat="43.989371396845904" lon="11.272417242952002"><ele>297.0</ele><time>2026-04-26T09:48:29.001Z</time></trkpt><trkpt lat="43.9895534072928" lon="11.272258597149127"><ele>298.0</ele><time>2026-04-26T09:48:30.001Z</time></trkpt><trkpt lat="43.989733723412705" lon="11.2720947422544"><ele>299.0</ele><time>2026-04-26T09:48:31.001Z</time></trkpt><trkpt lat="43.98991538777092" lon="11.271932819294541"><ele>304.33333333333337</ele><time>2026-04-26T09:48:32.001Z</time></trkpt><trkpt lat="43.99009139643593" lon="11.271772901926692"><ele>309.6666666666667</ele><time>2026-04-26T09:48:33.001Z</time></trkpt><trkpt lat="43.99026223937139" lon="11.271614167650151"><ele>315.0</ele><time>2026-04-26T09:48:34.001Z</time></trkpt><trkpt lat="43.99043142608531" lon="11.271459852173646"><ele>315.6666666666667</ele><time>2026-04-26T09:48:35.001Z</time></trkpt><trkpt lat="43.990597860381314" lon="11.271310873660209"><ele>316.33333333333337</ele><time>2026-04-26T09:48:36.001Z</time></trkpt><trkpt lat="43.99075819458662" lon="11.271168471277155"><ele>317.0</ele><time>2026-04-26T09:48:37.001Z</time></trkpt><trkpt lat="43.99090261681265" lon="11.271035813085346"><ele>317.0</ele><time>2026-04-26T09:48:38.001Z</time></trkpt><trkpt lat="43.99103597052142" lon="11.270916280568985"><ele>317.0</ele><time>2026-04-26T09:48:39.001Z</time></trkpt><trkpt lat="43.99116281740593" lon="11.270806345000661"><ele>317.0</ele><time>2026-04-26T09:48:40.001Z</time></trkpt><trkpt lat="43.99128623908957" lon="11.2706979580156"><ele>317.25</ele><time>2026-04-26T09:48:41.001Z</time></trkpt><trkpt lat="43.99139557680455" lon="11.27056936705017"><ele>317.5</ele><time>2026-04-26T09:48:42.001Z</time></trkpt><trkpt lat="43.99148783263103" lon="11.270407430268897"><ele>317.75</ele><time>2026-04-26T09:48:43.001Z</time></trkpt><trkpt lat="43.99155855357819" lon="11.270213464893374"><ele>318.0</ele><time>2026-04-26T09:48:44.001Z</time></trkpt><trkpt lat="43.991598224266376" lon="11.270006216839029"><ele>318.0</ele><time>2026-04-26T09:48:45.001Z</time></trkpt><trkpt lat="43.991607261521864" lon="11.269797056552166"><ele>318.0</ele><time>2026-04-26T09:48:46.001Z</time></trkpt><trkpt lat="43.99159306078367" lon="11.269602472338509"><ele>318.0</ele><time>2026-04-26T09:48:47.001Z</time></trkpt><trkpt lat="43.99159247782327" lon="11.269428822224638"><ele>318.0</ele><time>2026-04-26T09:48:48.001Z</time></trkpt><trkpt lat="43.99163016242346" lon="11.269277355339696"><ele>319.25</ele><time>2026-04-26T09:48:49.001Z</time></trkpt><trkpt lat="43.991709618548185" lon="11.269162046723398"><ele>320.5</ele><time>2026-04-26T09:48:50Z</time></trkpt><trkpt lat="43.991815189932" lon="11.269087397739971"><ele>321.75</ele><time>2026-04-26T09:48:51Z</time></trkpt><trkpt lat="43.99194099388337" lon="11.269078865704957"><ele>323.0</ele><time>2026-04-26T09:48:52Z</time></trkpt><trkpt lat="43.99205981537512" lon="11.269169180495945"><ele>323.0</ele><time>2026-04-26T09:48:53Z</time></trkpt><trkpt lat="43.99219311530006" lon="11.2692449504608"><ele>323.0</ele><time>2026-04-26T09:48:53.999Z</time></trkpt><trkpt lat="43.99232896826505" lon="11.26930040985552"><ele>323.0</ele><time>2026-04-26T09:48:54.999Z</time></trkpt><trkpt lat="43.99246121608286" lon="11.26933989244204"><ele>323.0</ele><time>2026-04-26T09:48:55.999Z</time></trkpt><trkpt lat="43.99258785921015" lon="11.269327763193973"><ele>324.5</ele><time>2026-04-26T09:48:56.999Z</time></trkpt><trkpt lat="43.99271697598087" lon="11.269269323833514"><ele>326.0</ele><time>2026-04-26T09:48:57.999Z</time></trkpt><trkpt lat="43.99284823306732" lon="11.269177769104045"><ele>327.5</ele><time>2026-04-26T09:48:58.999Z</time></trkpt><trkpt lat="43.99298434786866" lon="11.26908598873863"><ele>329.0</ele><time>2026-04-26T09:48:59.999Z</time></trkpt><trkpt lat="43.993123067411915" lon="11.269018118137629"><ele>329.0</ele><time>2026-04-26T09:49:00.999Z</time></trkpt><trkpt lat="43.99327476969101" lon="11.269001955762436"><ele>329.0</ele><time>2026-04-26T09:49:01.999Z</time></trkpt><trkpt lat="43.99343778775094" lon="11.2689507594011"><ele>329.0</ele><time>2026-04-26T09:49:02.999Z</time></trkpt><trkpt lat="43.993600428785186" lon="11.268920745771092"><ele>328.0</ele><time>2026-04-26T09:49:03.999Z</time></trkpt><trkpt lat="43.993752701200826" lon="11.268889397375156"><ele>327.0</ele><time>2026-04-26T09:49:04.999Z</time></trkpt><trkpt lat="43.993913655465754" lon="11.268878541455615"><ele>326.0</ele><time>2026-04-26T09:49:05.999Z</time></trkpt><trkpt lat="43.99407769350778" lon="11.26893364451033"><ele>329.6666666666667</ele><time>2026-04-26T09:49:06.999Z</time></trkpt><trkpt lat="43.99425293661179" lon="11.26893884365624"><ele>333.3333333333333</ele><time>2026-04-26T09:49:07.999Z</time></trkpt><trkpt lat="43.99441995859803" lon="11.268938711570724"><ele>337.0</ele><time>2026-04-26T09:49:08.999Z</time></trkpt><trkpt lat="43.994579498778684" lon="11.268924072702305"><ele>337.0</ele><time>2026-04-26T09:49:09.999Z</time></trkpt><trkpt lat="43.994732361063676" lon="11.268913844784624"><ele>337.0</ele><time>2026-04-26T09:49:10.999Z</time></trkpt><trkpt lat="43.9948680142168" lon="11.268898276885151"><ele>337.0</ele><time>2026-04-26T09:49:11.999Z</time></trkpt><trkpt lat="43.99499486772429" lon="11.268852555691362"><ele>337.0</ele><time>2026-04-26T09:49:12.999Z</time></trkpt><trkpt lat="43.99511171345857" lon="11.268757612720806"><ele>337.75</ele><time>2026-04-26T09:49:13.999Z</time></trkpt><trkpt lat="43.995209313361194" lon="11.268622630712603"><ele>338.5</ele><time>2026-04-26T09:49:14.999Z</time></trkpt><trkpt lat="43.99529120799437" lon="11.268499461363295"><ele>339.25</ele><time>2026-04-26T09:49:15.999Z</time></trkpt><trkpt lat="43.99537230254766" lon="11.268419392480729"><ele>340.0</ele><time>2026-04-26T09:49:16.999Z</time></trkpt><trkpt lat="43.99551329088206" lon="11.268410132550464"><ele>340.0</ele><time>2026-04-26T09:49:17.999Z</time></trkpt><trkpt lat="43.995659637091514" lon="11.268362446828561"><ele>340.0</ele><time>2026-04-26T09:49:18.999Z</time></trkpt><trkpt lat="43.995812831247115" lon="11.268330960937389"><ele>340.0</ele><time>2026-04-26T09:49:19.999Z</time></trkpt><trkpt lat="43.99595914517731" lon="11.2683102461127"><ele>339.5</ele><time>2026-04-26T09:49:20.999Z</time></trkpt><trkpt lat="43.99609062555368" lon="11.268327685910368"><ele>339.0</ele><time>2026-04-26T09:49:21.999Z</time></trkpt><trkpt lat="43.99618697326485" lon="11.268438406271628"><ele>338.5</ele><time>2026-04-26T09:49:22.999Z</time></trkpt><trkpt lat="43.99629684170234" lon="11.268554383806999"><ele>338.0</ele><time>2026-04-26T09:49:23.999Z</time></trkpt><trkpt lat="43.99640533898911" lon="11.268697124452268"><ele>338.0</ele><time>2026-04-26T09:49:24.999Z</time></trkpt><trkpt lat="43.996534983012346" lon="11.26881763168818"><ele>338.0</ele><time>2026-04-26T09:49:25.999Z</time></trkpt><trkpt lat="43.99667316772766" lon="11.268910840005695"><ele>338.0</ele><time>2026-04-26T09:49:26.999Z</time></trkpt><trkpt lat="43.99681637041484" lon="11.268966603389787"><ele>338.6666666666667</ele><time>2026-04-26T09:49:27.999Z</time></trkpt><trkpt lat="43.996965610029996" lon="11.268989068956786"><ele>339.3333333333333</ele><time>2026-04-26T09:49:28.999Z</time></trkpt><trkpt lat="43.997124307540645" lon="11.268984666940842"><ele>340.0</ele><time>2026-04-26T09:49:29.999Z</time></trkpt><trkpt lat="43.997292662161314" lon="11.268954243155632"><ele>340.66666666666663</ele><time>2026-04-26T09:49:30.999Z</time></trkpt><trkpt lat="43.997466926134585" lon="11.268934757697844"><ele>341.3333333333333</ele><time>2026-04-26T09:49:31.999Z</time></trkpt><trkpt lat="43.99764075049194" lon="11.26892749878402"><ele>342.0</ele><time>2026-04-26T09:49:32.999Z</time></trkpt><trkpt lat="43.99781590232532" lon="11.268914897593016"><ele>342.6666666666667</ele><time>2026-04-26T09:49:33.999Z</time></trkpt><trkpt lat="43.9979966190927" lon="11.268915235796614"><ele>343.33333333333337</ele><time>2026-04-26T09:49:34.999Z</time></trkpt><trkpt lat="43.99817907651509" lon="11.268975945359351"><ele>344.0</ele><time>2026-04-26T09:49:35.999Z</time></trkpt><trkpt lat="43.99837726912196" lon="11.269003067065647"><ele>345.33333333333337</ele><time>2026-04-26T09:49:36.999Z</time></trkpt><trkpt lat="43.998583553174285" lon="11.26905743543502"><ele>346.6666666666667</ele><time>2026-04-26T09:49:37.999Z</time></trkpt><trkpt lat="43.998785931355805" lon="11.269101005528984"><ele>348.0</ele><time>2026-04-26T09:49:38.999Z</time></trkpt><trkpt lat="43.99899340892228" lon="11.269147321842905"><ele>347.0</ele><time>2026-04-26T09:49:39.999Z</time></trkpt><trkpt lat="43.99920739632399" lon="11.269217662180738"><ele>346.0</ele><time>2026-04-26T09:49:40.999Z</time></trkpt><trkpt lat="43.99943006276663" lon="11.269270235856986"><ele>345.0</ele><time>2026-04-26T09:49:41.999Z</time></trkpt><trkpt lat="43.99966014635852" lon="11.269303073500117"><ele>345.0</ele><time>2026-04-26T09:49:42.999Z</time></trkpt><trkpt lat="43.999888863111074" lon="11.269358575589157"><ele>345.0</ele><time>2026-04-26T09:49:43.999Z</time></trkpt><trkpt lat="44.00011557509437" lon="11.269437145158147"><ele>345.0</ele><time>2026-04-26T09:49:44.999Z</time></trkpt><trkpt lat="44.00035167085537" lon="11.269481961739867"><ele>345.0</ele><time>2026-04-26T09:49:45.999Z</time></trkpt><trkpt lat="44.00057490029094" lon="11.269540651123211"><ele>345.0</ele><time>2026-04-26T09:49:46.999Z</time></trkpt><trkpt lat="44.000800531499735" lon="11.269589423378187"><ele>345.0</ele><time>2026-04-26T09:49:47.999Z</time></trkpt><trkpt lat="44.00100779903575" lon="11.269634448526109"><ele>345.0</ele><time>2026-04-26T09:49:48.999Z</time></trkpt><trkpt lat="44.00120413384475" lon="11.269671786661073"><ele>344.0</ele><time>2026-04-26T09:49:49.999Z</time></trkpt><trkpt lat="44.0013838211776" lon="11.26971187987121"><ele>343.0</ele><time>2026-04-26T09:49:50.999Z</time></trkpt><trkpt lat="44.00154631998426" lon="11.269744019930366"><ele>342.0</ele><time>2026-04-26T09:49:51.999Z</time></trkpt><trkpt lat="44.001691005812084" lon="11.269773290707857"><ele>343.5</ele><time>2026-04-26T09:49:52.999Z</time></trkpt><trkpt lat="44.001827492225374" lon="11.269776595571726"><ele>345.0</ele><time>2026-04-26T09:49:53.999Z</time></trkpt><trkpt lat="44.001957978470166" lon="11.269736110592294"><ele>346.5</ele><time>2026-04-26T09:49:54.999Z</time></trkpt><trkpt lat="44.00207845851088" lon="11.269630279878525"><ele>348.0</ele><time>2026-04-26T09:49:55.999Z</time></trkpt><trkpt lat="44.0021835192416" lon="11.269474558365898"><ele>348.0</ele><time>2026-04-26T09:49:56.999Z</time></trkpt><trkpt lat="44.00229919998502" lon="11.26934733303636"><ele>348.0</ele><time>2026-04-26T09:49:57.999Z</time></trkpt><trkpt lat="44.002438885003045" lon="11.26926361961664"><ele>348.0</ele><time>2026-04-26T09:49:58.999Z</time></trkpt><trkpt lat="44.00259519379806" lon="11.269226052089772"><ele>351.0</ele><time>2026-04-26T09:49:59.999Z</time></trkpt><trkpt lat="44.002750562528334" lon="11.269228657022717"><ele>354.0</ele><time>2026-04-26T09:50:00.999Z</time></trkpt><trkpt lat="44.00291547899679" lon="11.269302156546331"><ele>357.0</ele><time>2026-04-26T09:50:01.999Z</time></trkpt><trkpt lat="44.00309656646364" lon="11.269368431236982"><ele>357.0</ele><time>2026-04-26T09:50:02.999Z</time></trkpt><trkpt lat="44.00326616837267" lon="11.269468864620269"><ele>357.0</ele><time>2026-04-26T09:50:03.999Z</time></trkpt><trkpt lat="44.00342946011091" lon="11.269550741196761"><ele>357.0</ele><time>2026-04-26T09:50:04.999Z</time></trkpt><trkpt lat="44.00360008328451" lon="11.26961589289192"><ele>360.0</ele><time>2026-04-26T09:50:05.999Z</time></trkpt><trkpt lat="44.00376670729409" lon="11.269646768316417"><ele>363.0</ele><time>2026-04-26T09:50:06.999Z</time></trkpt><trkpt lat="44.00392293424896" lon="11.269707929315937"><ele>366.0</ele><time>2026-04-26T09:50:07.999Z</time></trkpt><trkpt lat="44.004094964749875" lon="11.26980539991037"><ele>368.0</ele><time>2026-04-26T09:50:08.999Z</time></trkpt><trkpt lat="44.004258672821585" lon="11.269932648123186"><ele>370.0</ele><time>2026-04-26T09:50:09.999Z</time></trkpt><trkpt lat="44.00441634446537" lon="11.270062137624436"><ele>372.0</ele><time>2026-04-26T09:50:10.999Z</time></trkpt><trkpt lat="44.00456827967705" lon="11.27018975051305"><ele>372.0</ele><time>2026-04-26T09:50:11.999Z</time></trkpt><trkpt lat="44.00471930176366" lon="11.270303470265036"><ele>372.0</ele><time>2026-04-26T09:50:12.999Z</time></trkpt><trkpt lat="44.00487374699032" lon="11.270399456170308"><ele>372.0</ele><time>2026-04-26T09:50:13.999Z</time></trkpt><trkpt lat="44.00503676719052" lon="11.270454087538997"><ele>370.6666666666667</ele><time>2026-04-26T09:50:14.999Z</time></trkpt><trkpt lat="44.00520895435572" lon="11.270464245635042"><ele>369.33333333333337</ele><time>2026-04-26T09:50:15.999Z</time></trkpt><trkpt lat="44.00538298481383" lon="11.270432479880185"><ele>368.0</ele><time>2026-04-26T09:50:16.999Z</time></trkpt><trkpt lat="44.00554547473666" lon="11.270385639351954"><ele>368.0</ele><time>2026-04-26T09:50:17.999Z</time></trkpt><trkpt lat="44.00569130825312" lon="11.270371593692436"><ele>368.0</ele><time>2026-04-26T09:50:18.999Z</time></trkpt><trkpt lat="44.00583539149133" lon="11.270424800517391"><ele>368.0</ele><time>2026-04-26T09:50:19.999Z</time></trkpt><trkpt lat="44.005962757485" lon="11.270513578096114"><ele>368.0</ele><time>2026-04-26T09:50:20.999Z</time></trkpt><trkpt lat="44.00611411288528" lon="11.270617280735083"><ele>370.6666666666667</ele><time>2026-04-26T09:50:22Z</time></trkpt><trkpt lat="44.006278159875166" lon="11.270701957686192"><ele>373.3333333333333</ele><time>2026-04-26T09:50:23Z</time></trkpt><trkpt lat="44.00643973692405" lon="11.270815594165791"><ele>376.0</ele><time>2026-04-26T09:50:24Z</time></trkpt><trkpt lat="44.00661055263159" lon="11.270929727338668"><ele>380.3333333333333</ele><time>2026-04-26T09:50:25Z</time></trkpt><trkpt lat="44.006788837453364" lon="11.27104252086592"><ele>384.66666666666663</ele><time>2026-04-26T09:50:26Z</time></trkpt><trkpt lat="44.00697575421162" lon="11.271148231843892"><ele>389.0</ele><time>2026-04-26T09:50:27Z</time></trkpt><trkpt lat="44.007165414524906" lon="11.271249272861144"><ele>389.0</ele><time>2026-04-26T09:50:28Z</time></trkpt><trkpt lat="44.00734907994609" lon="11.271342784314397"><ele>389.0</ele><time>2026-04-26T09:50:29Z</time></trkpt><trkpt lat="44.0075357321988" lon="11.271445536904473"><ele>389.0</ele><time>2026-04-26T09:50:30Z</time></trkpt><trkpt lat="44.007709001678414" lon="11.271549876016985"><ele>390.66666666666663</ele><time>2026-04-26T09:50:31Z</time></trkpt><trkpt lat="44.00788927105414" lon="11.271642379492679"><ele>392.33333333333337</ele><time>2026-04-26T09:50:32Z</time></trkpt><trkpt lat="44.0080750423916" lon="11.27170064532208"><ele>394.0</ele><time>2026-04-26T09:50:33Z</time></trkpt><trkpt lat="44.00825617770639" lon="11.271724356468242"><ele>395.6666666666667</ele><time>2026-04-26T09:50:34Z</time></trkpt><trkpt lat="44.008419607933945" lon="11.271720630980719"><ele>397.33333333333337</ele><time>2026-04-26T09:50:35Z</time></trkpt><trkpt lat="44.00859194708455" lon="11.271672946906802"><ele>399.0</ele><time>2026-04-26T09:50:36Z</time></trkpt><trkpt lat="44.00876860000533" lon="11.271590335564827"><ele>399.0</ele><time>2026-04-26T09:50:37Z</time></trkpt><trkpt lat="44.00894663369706" lon="11.27151436786414"><ele>399.0</ele><time>2026-04-26T09:50:38Z</time></trkpt><trkpt lat="44.009123459535964" lon="11.27143616161179"><ele>399.0</ele><time>2026-04-26T09:50:39Z</time></trkpt><trkpt lat="44.00929305480844" lon="11.271338706511765"><ele>400.0</ele><time>2026-04-26T09:50:40Z</time></trkpt><trkpt lat="44.0094402882692" lon="11.271257819708863"><ele>401.0</ele><time>2026-04-26T09:50:41Z</time></trkpt><trkpt lat="44.009596209888166" lon="11.271218310292966"><ele>402.0</ele><time>2026-04-26T09:50:42Z</time></trkpt><trkpt lat="44.009764342171444" lon="11.27120099815246"><ele>402.0</ele><time>2026-04-26T09:50:43Z</time></trkpt><trkpt lat="44.00993784546606" lon="11.271208583250209"><ele>402.0</ele><time>2026-04-26T09:50:44Z</time></trkpt><trkpt lat="44.01011177343244" lon="11.2712272916608"><ele>402.0</ele><time>2026-04-26T09:50:45Z</time></trkpt><trkpt lat="44.01028581053382" lon="11.271278859206367"><ele>404.33333333333337</ele><time>2026-04-26T09:50:46Z</time></trkpt><trkpt lat="44.01045524346441" lon="11.271351984465879"><ele>406.6666666666667</ele><time>2026-04-26T09:50:47Z</time></trkpt><trkpt lat="44.01061761526487" lon="11.271381576041536"><ele>409.0</ele><time>2026-04-26T09:50:48Z</time></trkpt><trkpt lat="44.010769445169714" lon="11.271399803709222"><ele>411.6666666666667</ele><time>2026-04-26T09:50:49Z</time></trkpt><trkpt lat="44.010909475057524" lon="11.271379342387016"><ele>414.33333333333337</ele><time>2026-04-26T09:50:50Z</time></trkpt><trkpt lat="44.01105610794411" lon="11.271321580751808"><ele>417.0</ele><time>2026-04-26T09:50:51Z</time></trkpt><trkpt lat="44.01119486408125" lon="11.271211779733129"><ele>417.0</ele><time>2026-04-26T09:50:52Z</time></trkpt><trkpt lat="44.01133401530079" lon="11.271065188868459"><ele>417.0</ele><time>2026-04-26T09:50:53Z</time></trkpt><trkpt lat="44.0114597208719" lon="11.270917419875515"><ele>417.0</ele><time>2026-04-26T09:50:54Z</time></trkpt><trkpt lat="44.011619726173905" lon="11.270846014989516"><ele>417.33333333333337</ele><time>2026-04-26T09:50:55Z</time></trkpt><trkpt lat="44.011778077831266" lon="11.270748716207509"><ele>417.6666666666667</ele><time>2026-04-26T09:50:56Z</time></trkpt><trkpt lat="44.01195504087045" lon="11.270683705653854"><ele>418.0</ele><time>2026-04-26T09:50:57Z</time></trkpt><trkpt lat="44.01213410232664" lon="11.270596508233561"><ele>416.6666666666667</ele><time>2026-04-26T09:50:58Z</time></trkpt><trkpt lat="44.012314255851095" lon="11.270512091751582"><ele>415.33333333333337</ele><time>2026-04-26T09:50:59Z</time></trkpt><trkpt lat="44.01249185895954" lon="11.270430859296281"><ele>414.0</ele><time>2026-04-26T09:51:00Z</time></trkpt><trkpt lat="44.012668264189536" lon="11.270352261308185"><ele>418.33333333333337</ele><time>2026-04-26T09:51:01Z</time></trkpt><trkpt lat="44.01284740239015" lon="11.270259179124636"><ele>422.6666666666667</ele><time>2026-04-26T09:51:02Z</time></trkpt><trkpt lat="44.01302830665669" lon="11.270194374525575"><ele>427.0</ele><time>2026-04-26T09:51:03Z</time></trkpt><trkpt lat="44.01321096139708" lon="11.270155684815167"><ele>430.33333333333337</ele><time>2026-04-26T09:51:04Z</time></trkpt><trkpt lat="44.013379509841386" lon="11.270207913050008"><ele>433.66666666666663</ele><time>2026-04-26T09:51:05Z</time></trkpt><trkpt lat="44.013546469113486" lon="11.270279583838668"><ele>437.0</ele><time>2026-04-26T09:51:06Z</time></trkpt><trkpt lat="44.01373174954023" lon="11.270330561756369"><ele>437.0</ele><time>2026-04-26T09:51:07Z</time></trkpt><trkpt lat="44.0139089546413" lon="11.270407922664708"><ele>437.0</ele><time>2026-04-26T09:51:08Z</time></trkpt><trkpt lat="44.01408059666913" lon="11.270477594601843"><ele>437.0</ele><time>2026-04-26T09:51:09Z</time></trkpt><trkpt lat="44.014244884423114" lon="11.270546467899253"><ele>437.0</ele><time>2026-04-26T09:51:10Z</time></trkpt><trkpt lat="44.01438600091695" lon="11.27063096893121"><ele>437.0</ele><time>2026-04-26T09:51:11Z</time></trkpt><trkpt lat="44.01449787421125" lon="11.27070425071828"><ele>437.0</ele><time>2026-04-26T09:51:12Z</time></trkpt><trkpt lat="44.01459064362615" lon="11.27074142460258"><ele>437.0</ele><time>2026-04-26T09:51:13Z</time></trkpt><trkpt lat="44.01467709979091" lon="11.270721196861272"><ele>437.0</ele><time>2026-04-26T09:51:14Z</time></trkpt><trkpt lat="44.01476800253346" lon="11.27066733747488"><ele>437.0</ele><time>2026-04-26T09:51:15Z</time></trkpt><trkpt lat="44.014876444843324" lon="11.270626413677384"><ele>437.0</ele><time>2026-04-26T09:51:16Z</time></trkpt><trkpt lat="44.01499897716434" lon="11.27059294973732"><ele>437.0</ele><time>2026-04-26T09:51:17Z</time></trkpt><trkpt lat="44.01513154655624" lon="11.270532449045389"><ele>440.0</ele><time>2026-04-26T09:51:18Z</time></trkpt><trkpt lat="44.0152652705025" lon="11.270439521705041"><ele>443.0</ele><time>2026-04-26T09:51:19Z</time></trkpt><trkpt lat="44.01539049631498" lon="11.270326422225251"><ele>446.0</ele><time>2026-04-26T09:51:20Z</time></trkpt><trkpt lat="44.015492945705155" lon="11.270193554108909"><ele>449.0</ele><time>2026-04-26T09:51:21Z</time></trkpt><trkpt lat="44.015567861762385" lon="11.270016562208534"><ele>449.0</ele><time>2026-04-26T09:51:22Z</time></trkpt><trkpt lat="44.01562446609398" lon="11.269813672922298"><ele>449.0</ele><time>2026-04-26T09:51:23Z</time></trkpt><trkpt lat="44.015676672034914" lon="11.269607183315935"><ele>449.0</ele><time>2026-04-26T09:51:24Z</time></trkpt><trkpt lat="44.01574985794538" lon="11.269433509383505"><ele>447.0</ele><time>2026-04-26T09:51:25Z</time></trkpt><trkpt lat="44.01578870830926" lon="11.269272733281081"><ele>445.0</ele><time>2026-04-26T09:51:26Z</time></trkpt><trkpt lat="44.01586317178727" lon="11.269149362757704"><ele>443.0</ele><time>2026-04-26T09:51:27Z</time></trkpt><trkpt lat="44.01596464632646" lon="11.269045744196958"><ele>441.0</ele><time>2026-04-26T09:51:28Z</time></trkpt><trkpt lat="44.01610274335574" lon="11.268984413745448"><ele>442.66666666666663</ele><time>2026-04-26T09:51:29Z</time></trkpt><trkpt lat="44.01626439612555" lon="11.268936544961655"><ele>444.3333333333333</ele><time>2026-04-26T09:51:30Z</time></trkpt><trkpt lat="44.016405114532006" lon="11.268902115758577"><ele>446.0</ele><time>2026-04-26T09:51:31Z</time></trkpt><trkpt lat="44.01655092094996" lon="11.26888106275244"><ele>448.0</ele><time>2026-04-26T09:51:32Z</time></trkpt><trkpt lat="44.01670763300742" lon="11.268897577307083"><ele>450.0</ele><time>2026-04-26T09:51:33Z</time></trkpt><trkpt lat="44.01686294108539" lon="11.268958322753553"><ele>452.0</ele><time>2026-04-26T09:51:34Z</time></trkpt><trkpt lat="44.01701222232078" lon="11.269047822216395"><ele>457.66666666666663</ele><time>2026-04-26T09:51:35Z</time></trkpt><trkpt lat="44.01714814754631" lon="11.269163520724511"><ele>463.33333333333337</ele><time>2026-04-26T09:51:36Z</time></trkpt><trkpt lat="44.017280039956354" lon="11.269298728309602"><ele>469.0</ele><time>2026-04-26T09:51:37Z</time></trkpt><trkpt lat="44.01742188039759" lon="11.269413127270647"><ele>467.5</ele><time>2026-04-26T09:51:38Z</time></trkpt><trkpt lat="44.0175499306758" lon="11.269533842691832"><ele>466.0</ele><time>2026-04-26T09:51:39Z</time></trkpt><trkpt lat="44.017670829845024" lon="11.269631317523505"><ele>464.5</ele><time>2026-04-26T09:51:40Z</time></trkpt><trkpt lat="44.01777931415728" lon="11.269723216003463"><ele>463.0</ele><time>2026-04-26T09:51:41Z</time></trkpt><trkpt lat="44.017898040188015" lon="11.269771343429932"><ele>463.0</ele><time>2026-04-26T09:51:42Z</time></trkpt><trkpt lat="44.01803706263453" lon="11.26976622764837"><ele>463.0</ele><time>2026-04-26T09:51:43Z</time></trkpt><trkpt lat="44.018190897175735" lon="11.26970506691851"><ele>463.0</ele><time>2026-04-26T09:51:44Z</time></trkpt><trkpt lat="44.01834538874524" lon="11.269587577338632"><ele>463.6666666666667</ele><time>2026-04-26T09:51:45Z</time></trkpt><trkpt lat="44.018494210317435" lon="11.269450503778396"><ele>464.33333333333337</ele><time>2026-04-26T09:51:46Z</time></trkpt><trkpt lat="44.01865840779733" lon="11.269345382645124"><ele>465.0</ele><time>2026-04-26T09:51:47Z</time></trkpt><trkpt lat="44.01882082082521" lon="11.269231477725809"><ele>465.0</ele><time>2026-04-26T09:51:48Z</time></trkpt><trkpt lat="44.01900339419917" lon="11.269140320584121"><ele>465.0</ele><time>2026-04-26T09:51:49Z</time></trkpt><trkpt lat="44.01919131232324" lon="11.269081130519913"><ele>465.0</ele><time>2026-04-26T09:51:49.999Z</time></trkpt><trkpt lat="44.01937877619679" lon="11.269009646559502"><ele>465.0</ele><time>2026-04-26T09:51:50.999Z</time></trkpt><trkpt lat="44.01956905618094" lon="11.268960467537488"><ele>465.0</ele><time>2026-04-26T09:51:51.999Z</time></trkpt><trkpt lat="44.01975055487162" lon="11.268887451665487"><ele>465.0</ele><time>2026-04-26T09:51:52.999Z</time></trkpt><trkpt lat="44.019919250336095" lon="11.268782074562555"><ele>471.33333333333337</ele><time>2026-04-26T09:51:53.999Z</time></trkpt><trkpt lat="44.020067124787175" lon="11.268644986551443"><ele>477.6666666666667</ele><time>2026-04-26T09:51:54.999Z</time></trkpt><trkpt lat="44.02018933341408" lon="11.268484877227266"><ele>484.0</ele><time>2026-04-26T09:51:55.999Z</time></trkpt><trkpt lat="44.02031647855277" lon="11.26834327954413"><ele>484.0</ele><time>2026-04-26T09:51:56.999Z</time></trkpt><trkpt lat="44.02043346549961" lon="11.268206784682022"><ele>484.0</ele><time>2026-04-26T09:51:57.999Z</time></trkpt><trkpt lat="44.02056009143431" lon="11.268098658356474"><ele>484.0</ele><time>2026-04-26T09:51:58.999Z</time></trkpt><trkpt lat="44.020713768006175" lon="11.268087179469019"><ele>484.0</ele><time>2026-04-26T09:51:59.999Z</time></trkpt><trkpt lat="44.02087953174621" lon="11.268069232381997"><ele>484.0</ele><time>2026-04-26T09:52:00.999Z</time></trkpt><trkpt lat="44.02105537682555" lon="11.268038748038204"><ele>484.0</ele><time>2026-04-26T09:52:01.999Z</time></trkpt><trkpt lat="44.021243243009565" lon="11.26802319883791"><ele>484.0</ele><time>2026-04-26T09:52:02.999Z</time></trkpt><trkpt lat="44.021438859616424" lon="11.267983489604653"><ele>484.0</ele><time>2026-04-26T09:52:03.999Z</time></trkpt><trkpt lat="44.02163842359083" lon="11.267905984258"><ele>484.0</ele><time>2026-04-26T09:52:04.999Z</time></trkpt><trkpt lat="44.021834970827385" lon="11.267788174602396"><ele>485.33333333333337</ele><time>2026-04-26T09:52:05.999Z</time></trkpt><trkpt lat="44.022016312540785" lon="11.267652931848538"><ele>486.66666666666663</ele><time>2026-04-26T09:52:06.999Z</time></trkpt><trkpt lat="44.022195868274146" lon="11.267576022610438"><ele>488.0</ele><time>2026-04-26T09:52:07.999Z</time></trkpt><trkpt lat="44.02237447467708" lon="11.267504717918422"><ele>490.0</ele><time>2026-04-26T09:52:08.999Z</time></trkpt><trkpt lat="44.02256862905932" lon="11.267465518954905"><ele>492.0</ele><time>2026-04-26T09:52:09.999Z</time></trkpt><trkpt lat="44.022772193844936" lon="11.26742407500102"><ele>494.0</ele><time>2026-04-26T09:52:10.999Z</time></trkpt><trkpt lat="44.02297983329862" lon="11.26741324405195"><ele>494.0</ele><time>2026-04-26T09:52:11.999Z</time></trkpt><trkpt lat="44.02317000980772" lon="11.267414458992672"><ele>494.0</ele><time>2026-04-26T09:52:12.999Z</time></trkpt><trkpt lat="44.02334084819269" lon="11.267403328381159"><ele>494.0</ele><time>2026-04-26T09:52:13.999Z</time></trkpt><trkpt lat="44.023495215548884" lon="11.267352617000887"><ele>497.3333333333333</ele><time>2026-04-26T09:52:14.999Z</time></trkpt><trkpt lat="44.02362881268246" lon="11.26724871785006"><ele>500.66666666666663</ele><time>2026-04-26T09:52:15.999Z</time></trkpt><trkpt lat="44.0237475484208" lon="11.267092075803804"><ele>504.0</ele><time>2026-04-26T09:52:16.999Z</time></trkpt><trkpt lat="44.023864293614274" lon="11.266921770164043"><ele>504.0</ele><time>2026-04-26T09:52:17.999Z</time></trkpt><trkpt lat="44.0239795493752" lon="11.266736501384711"><ele>504.0</ele><time>2026-04-26T09:52:18.999Z</time></trkpt><trkpt lat="44.02407810425277" lon="11.266538646614865"><ele>504.0</ele><time>2026-04-26T09:52:19.999Z</time></trkpt><trkpt lat="44.024184245622195" lon="11.266363440568151"><ele>506.0</ele><time>2026-04-26T09:52:20.999Z</time></trkpt><trkpt lat="44.024319458284666" lon="11.266255870888498"><ele>508.0</ele><time>2026-04-26T09:52:21.999Z</time></trkpt><trkpt lat="44.02442603661383" lon="11.266131345005707"><ele>510.0</ele><time>2026-04-26T09:52:22.999Z</time></trkpt><trkpt lat="44.02453132562617" lon="11.266055862402359"><ele>512.0</ele><time>2026-04-26T09:52:23.999Z</time></trkpt><trkpt lat="44.0246402908441" lon="11.266025553114194"><ele>512.0</ele><time>2026-04-26T09:52:24.999Z</time></trkpt><trkpt lat="44.02476060381078" lon="11.26606587620936"><ele>512.0</ele><time>2026-04-26T09:52:25.999Z</time></trkpt><trkpt lat="44.02488299888027" lon="11.266064175767488"><ele>512.0</ele><time>2026-04-26T09:52:27Z</time></trkpt><trkpt lat="44.025009436594765" lon="11.266025702020961"><ele>512.0</ele><time>2026-04-26T09:52:28Z</time></trkpt><trkpt lat="44.02513992843563" lon="11.265912979650052"><ele>511.66666666666663</ele><time>2026-04-26T09:52:29Z</time></trkpt><trkpt lat="44.02527049620837" lon="11.265752317501734"><ele>511.33333333333337</ele><time>2026-04-26T09:52:30Z</time></trkpt><trkpt lat="44.02539755907363" lon="11.26557892786164"><ele>511.0</ele><time>2026-04-26T09:52:31Z</time></trkpt><trkpt lat="44.02552258263079" lon="11.265405050602052"><ele>511.0</ele><time>2026-04-26T09:52:32Z</time></trkpt><trkpt lat="44.02565407091078" lon="11.265259726414211"><ele>511.0</ele><time>2026-04-26T09:52:33Z</time></trkpt><trkpt lat="44.025769919899815" lon="11.265113704209162"><ele>511.0</ele><time>2026-04-26T09:52:34Z</time></trkpt><trkpt lat="44.025899168356894" lon="11.265002357929184"><ele>508.5</ele><time>2026-04-26T09:52:35Z</time></trkpt><trkpt lat="44.02602148241684" lon="11.264894106587217"><ele>506.0</ele><time>2026-04-26T09:52:36Z</time></trkpt><trkpt lat="44.026132349978106" lon="11.264800605843924"><ele>503.5</ele><time>2026-04-26T09:52:37Z</time></trkpt><trkpt lat="44.02621745634286" lon="11.264667269114218"><ele>501.0</ele><time>2026-04-26T09:52:38Z</time></trkpt><trkpt lat="44.02627210668168" lon="11.264490477823914"><ele>501.0</ele><time>2026-04-26T09:52:39Z</time></trkpt><trkpt lat="44.02630394095364" lon="11.264290269267715"><ele>501.0</ele><time>2026-04-26T09:52:40Z</time></trkpt><trkpt lat="44.02635659867095" lon="11.264109040853617"><ele>501.0</ele><time>2026-04-26T09:52:41Z</time></trkpt><trkpt lat="44.02641769608416" lon="11.26395825520214"><ele>501.0</ele><time>2026-04-26T09:52:42Z</time></trkpt><trkpt lat="44.02645754637836" lon="11.263825571538009"><ele>501.0</ele><time>2026-04-26T09:52:43Z</time></trkpt><trkpt lat="44.02652310763466" lon="11.263749123024485"><ele>501.0</ele><time>2026-04-26T09:52:44Z</time></trkpt><trkpt lat="44.02660703653613" lon="11.263728252748225"><ele>501.0</ele><time>2026-04-26T09:52:45Z</time></trkpt><trkpt lat="44.026708198925455" lon="11.263790951234675"><ele>501.0</ele><time>2026-04-26T09:52:46Z</time></trkpt><trkpt lat="44.02683731044945" lon="11.263822411771086"><ele>501.0</ele><time>2026-04-26T09:52:47Z</time></trkpt><trkpt lat="44.02697615967267" lon="11.263886771382268"><ele>493.5</ele><time>2026-04-26T09:52:48Z</time></trkpt><trkpt lat="44.027116855431544" lon="11.263938236165924"><ele>486.0</ele><time>2026-04-26T09:52:49Z</time></trkpt><trkpt lat="44.0272569170719" lon="11.263977462339765"><ele>478.5</ele><time>2026-04-26T09:52:50Z</time></trkpt><trkpt lat="44.027399048970814" lon="11.263989245335155"><ele>471.0</ele><time>2026-04-26T09:52:51Z</time></trkpt><trkpt lat="44.02753308616352" lon="11.263959813761852"><ele>469.75</ele><time>2026-04-26T09:52:52Z</time></trkpt><trkpt lat="44.02765096954413" lon="11.263874887740238"><ele>468.5</ele><time>2026-04-26T09:52:53Z</time></trkpt><trkpt lat="44.02775100350016" lon="11.263740623123658"><ele>467.25</ele><time>2026-04-26T09:52:54Z</time></trkpt><trkpt lat="44.02783352444148" lon="11.263573973650663"><ele>466.0</ele><time>2026-04-26T09:52:55Z</time></trkpt><trkpt lat="44.02789858542089" lon="11.263380824667944"><ele>466.0</ele><time>2026-04-26T09:52:56Z</time></trkpt><trkpt lat="44.027944511209824" lon="11.263184958531792"><ele>466.0</ele><time>2026-04-26T09:52:57Z</time></trkpt><trkpt lat="44.027995771524346" lon="11.263013158361861"><ele>466.0</ele><time>2026-04-26T09:52:58Z</time></trkpt><trkpt lat="44.02804811806988" lon="11.262864140931994"><ele>466.0</ele><time>2026-04-26T09:52:59Z</time></trkpt><trkpt lat="44.02811654199235" lon="11.262739140261436"><ele>466.5</ele><time>2026-04-26T09:53:00Z</time></trkpt><trkpt lat="44.02823724322787" lon="11.262687887876313"><ele>467.0</ele><time>2026-04-26T09:53:01Z</time></trkpt><trkpt lat="44.028368745623176" lon="11.26263652367313"><ele>467.5</ele><time>2026-04-26T09:53:02Z</time></trkpt><trkpt lat="44.02848608778025" lon="11.262547671085189"><ele>468.0</ele><time>2026-04-26T09:53:03Z</time></trkpt><trkpt lat="44.028604528326014" lon="11.262436509109747"><ele>468.0</ele><time>2026-04-26T09:53:04Z</time></trkpt><trkpt lat="44.02870643117132" lon="11.262289862132642"><ele>468.0</ele><time>2026-04-26T09:53:05Z</time></trkpt><trkpt lat="44.02877797792401" lon="11.26209995680456"><ele>468.0</ele><time>2026-04-26T09:53:06Z</time></trkpt><trkpt lat="44.028830679385905" lon="11.261879161020959"><ele>466.0</ele><time>2026-04-26T09:53:07Z</time></trkpt><trkpt lat="44.028886856141156" lon="11.26166214990137"><ele>464.0</ele><time>2026-04-26T09:53:08Z</time></trkpt><trkpt lat="44.02894986701185" lon="11.261452364152888"><ele>462.0</ele><time>2026-04-26T09:53:09Z</time></trkpt><trkpt lat="44.02902345565465" lon="11.261253261196723"><ele>461.25</ele><time>2026-04-26T09:53:10Z</time></trkpt><trkpt lat="44.02911865106065" lon="11.261094394580896"><ele>460.5</ele><time>2026-04-26T09:53:11Z</time></trkpt><trkpt lat="44.0292409155341" lon="11.260996742620755"><ele>459.75</ele><time>2026-04-26T09:53:12Z</time></trkpt><trkpt lat="44.0293788286248" lon="11.260936689673418"><ele>459.0</ele><time>2026-04-26T09:53:13Z</time></trkpt><trkpt lat="44.02952599611062" lon="11.260878663648706"><ele>459.0</ele><time>2026-04-26T09:53:14Z</time></trkpt><trkpt lat="44.02968151948821" lon="11.260821543609168"><ele>459.0</ele><time>2026-04-26T09:53:15Z</time></trkpt><trkpt lat="44.02983746411521" lon="11.260755489069153"><ele>459.0</ele><time>2026-04-26T09:53:16Z</time></trkpt><trkpt lat="44.03002439988174" lon="11.260758573997391"><ele>457.33333333333337</ele><time>2026-04-26T09:53:17Z</time></trkpt><trkpt lat="44.03022546339786" lon="11.260815583095333"><ele>455.6666666666667</ele><time>2026-04-26T09:53:18Z</time></trkpt><trkpt lat="44.03044887953765" lon="11.260864230687416"><ele>454.0</ele><time>2026-04-26T09:53:19Z</time></trkpt><trkpt lat="44.03066341813309" lon="11.26094757610453"><ele>451.5</ele><time>2026-04-26T09:53:20Z</time></trkpt><trkpt lat="44.03088239734472" lon="11.26102084113167"><ele>449.0</ele><time>2026-04-26T09:53:21Z</time></trkpt><trkpt lat="44.031106407910414" lon="11.261090525011817"><ele>449.0</ele><time>2026-04-26T09:53:22Z</time></trkpt><trkpt lat="44.03132969028887" lon="11.261159809162601"><ele>449.0</ele><time>2026-04-26T09:53:23Z</time></trkpt><trkpt lat="44.03155260235708" lon="11.261228347562055"><ele>450.5</ele><time>2026-04-26T09:53:24Z</time></trkpt><trkpt lat="44.031773029147985" lon="11.261298412637053"><ele>452.0</ele><time>2026-04-26T09:53:25Z</time></trkpt><trkpt lat="44.03199264905732" lon="11.261373587059499"><ele>452.0</ele><time>2026-04-26T09:53:26Z</time></trkpt><trkpt lat="44.032211093624994" lon="11.261440327244783"><ele>452.0</ele><time>2026-04-26T09:53:27Z</time></trkpt><trkpt lat="44.03242741363301" lon="11.261509144729741"><ele>452.0</ele><time>2026-04-26T09:53:28Z</time></trkpt><trkpt lat="44.03264054520526" lon="11.261576689157927"><ele>450.66666666666663</ele><time>2026-04-26T09:53:29Z</time></trkpt><trkpt lat="44.03285280080916" lon="11.261645479482246"><ele>449.33333333333337</ele><time>2026-04-26T09:53:30Z</time></trkpt><trkpt lat="44.0330588314189" lon="11.26171158281613"><ele>448.0</ele><time>2026-04-26T09:53:31Z</time></trkpt><trkpt lat="44.0332577631876" lon="11.26177385957133"><ele>451.6666666666667</ele><time>2026-04-26T09:53:32Z</time></trkpt><trkpt lat="44.03345055022509" lon="11.26183463271021"><ele>455.33333333333337</ele><time>2026-04-26T09:53:33Z</time></trkpt><trkpt lat="44.03363895158925" lon="11.261896137887234"><ele>459.0</ele><time>2026-04-26T09:53:34Z</time></trkpt><trkpt lat="44.03382318448053" lon="11.261957039673751"><ele>459.0</ele><time>2026-04-26T09:53:35Z</time></trkpt><trkpt lat="44.03400416208376" lon="11.262019296052532"><ele>459.0</ele><time>2026-04-26T09:53:36Z</time></trkpt><trkpt lat="44.034173606169" lon="11.262073104008042"><ele>459.0</ele><time>2026-04-26T09:53:37Z</time></trkpt><trkpt lat="44.03433526724144" lon="11.262122597193041"><ele>464.0</ele><time>2026-04-26T09:53:38Z</time></trkpt><trkpt lat="44.03450209839957" lon="11.262181971166818"><ele>469.0</ele><time>2026-04-26T09:53:39Z</time></trkpt><trkpt lat="44.03464773332775" lon="11.262223876781553"><ele>474.0</ele><time>2026-04-26T09:53:40Z</time></trkpt><trkpt lat="44.03478895265405" lon="11.26226980108978"><ele>472.33333333333337</ele><time>2026-04-26T09:53:41Z</time></trkpt><trkpt lat="44.03494365941682" lon="11.262316641937655"><ele>470.6666666666667</ele><time>2026-04-26T09:53:42Z</time></trkpt><trkpt lat="44.03510759584653" lon="11.262392703447716"><ele>469.0</ele><time>2026-04-26T09:53:43Z</time></trkpt><trkpt lat="44.03527964798115" lon="11.26246142042422"><ele>469.0</ele><time>2026-04-26T09:53:44Z</time></trkpt><trkpt lat="44.03545495052545" lon="11.262514147333215"><ele>469.0</ele><time>2026-04-26T09:53:45Z</time></trkpt><trkpt lat="44.03562104185819" lon="11.262596947324408"><ele>469.0</ele><time>2026-04-26T09:53:46Z</time></trkpt><trkpt lat="44.03578769088498" lon="11.262677749889384"><ele>468.0</ele><time>2026-04-26T09:53:47Z</time></trkpt><trkpt lat="44.03596066512555" lon="11.262743331346233"><ele>467.0</ele><time>2026-04-26T09:53:48Z</time></trkpt><trkpt lat="44.03613414942681" lon="11.262803804270398"><ele>466.0</ele><time>2026-04-26T09:53:49Z</time></trkpt><trkpt lat="44.036301154159155" lon="11.262836793376588"><ele>466.0</ele><time>2026-04-26T09:53:50Z</time></trkpt><trkpt lat="44.03647215276889" lon="11.262810707986787"><ele>466.0</ele><time>2026-04-26T09:53:51Z</time></trkpt><trkpt lat="44.03665169378689" lon="11.262730886896978"><ele>466.0</ele><time>2026-04-26T09:53:52Z</time></trkpt><trkpt lat="44.03683506145245" lon="11.262618547349213"><ele>465.33333333333337</ele><time>2026-04-26T09:53:53Z</time></trkpt><trkpt lat="44.03702662462587" lon="11.262509451658566"><ele>464.66666666666663</ele><time>2026-04-26T09:53:54Z</time></trkpt><trkpt lat="44.03722485955154" lon="11.262396144921544"><ele>464.0</ele><time>2026-04-26T09:53:55Z</time></trkpt><trkpt lat="44.03743377824963" lon="11.262274435440254"><ele>467.5</ele><time>2026-04-26T09:53:56Z</time></trkpt><trkpt lat="44.03765302786893" lon="11.262174823688293"><ele>471.0</ele><time>2026-04-26T09:53:57Z</time></trkpt><trkpt lat="44.037863525937105" lon="11.262031697784224"><ele>471.0</ele><time>2026-04-26T09:53:58Z</time></trkpt><trkpt lat="44.03808246947455" lon="11.261903146661464"><ele>471.0</ele><time>2026-04-26T09:53:59Z</time></trkpt><trkpt lat="44.038301702688806" lon="11.26177451556003"><ele>468.0</ele><time>2026-04-26T09:54:00Z</time></trkpt><trkpt lat="44.03852711176207" lon="11.261664375891417"><ele>465.0</ele><time>2026-04-26T09:54:01Z</time></trkpt><trkpt lat="44.038744998736995" lon="11.261533451996199"><ele>468.5</ele><time>2026-04-26T09:54:02Z</time></trkpt><trkpt lat="44.038959695074794" lon="11.261404445293334"><ele>472.0</ele><time>2026-04-26T09:54:03Z</time></trkpt><trkpt lat="44.03916636607195" lon="11.26128026093151"><ele>472.0</ele><time>2026-04-26T09:54:04Z</time></trkpt><trkpt lat="44.03936982625561" lon="11.261155743955104"><ele>472.0</ele><time>2026-04-26T09:54:05Z</time></trkpt><trkpt lat="44.039572701791414" lon="11.261030616113668"><ele>472.0</ele><time>2026-04-26T09:54:06Z</time></trkpt><trkpt lat="44.03977231072039" lon="11.260914884695964"><ele>471.33333333333337</ele><time>2026-04-26T09:54:07Z</time></trkpt><trkpt lat="44.03997623764939" lon="11.260817902834535"><ele>470.66666666666663</ele><time>2026-04-26T09:54:08Z</time></trkpt><trkpt lat="44.0401796963593" lon="11.260744881777187"><ele>470.0</ele><time>2026-04-26T09:54:09Z</time></trkpt><trkpt lat="44.040379696035416" lon="11.260675705854716"><ele>472.66666666666663</ele><time>2026-04-26T09:54:10Z</time></trkpt><trkpt lat="44.04057577144431" lon="11.260611449209867"><ele>475.33333333333337</ele><time>2026-04-26T09:54:11Z</time></trkpt><trkpt lat="44.04076615841429" lon="11.260549806694721"><ele>478.0</ele><time>2026-04-26T09:54:12Z</time></trkpt><trkpt lat="44.040946100880895" lon="11.260482044674013"><ele>480.0</ele><time>2026-04-26T09:54:13Z</time></trkpt><trkpt lat="44.04110829604793" lon="11.260432180120361"><ele>482.0</ele><time>2026-04-26T09:54:14Z</time></trkpt><trkpt lat="44.041265216725776" lon="11.260380807790655"><ele>484.0</ele><time>2026-04-26T09:54:15Z</time></trkpt><trkpt lat="44.041415279441516" lon="11.260330631497357"><ele>484.0</ele><time>2026-04-26T09:54:16Z</time></trkpt><trkpt lat="44.041557012561874" lon="11.26027061078434"><ele>484.0</ele><time>2026-04-26T09:54:17Z</time></trkpt><trkpt lat="44.041701917206126" lon="11.260179640080025"><ele>484.0</ele><time>2026-04-26T09:54:18Z</time></trkpt><trkpt lat="44.04184390882873" lon="11.260057201042626"><ele>486.33333333333337</ele><time>2026-04-26T09:54:19Z</time></trkpt><trkpt lat="44.04197603878779" lon="11.259898033261681"><ele>488.66666666666663</ele><time>2026-04-26T09:54:20Z</time></trkpt><trkpt lat="44.042090533088825" lon="11.259718664339522"><ele>491.0</ele><time>2026-04-26T09:54:21Z</time></trkpt><trkpt lat="44.04219724746405" lon="11.25954408790656"><ele>491.5</ele><time>2026-04-26T09:54:22Z</time></trkpt><trkpt lat="44.042290303385165" lon="11.259398270816721"><ele>492.0</ele><time>2026-04-26T09:54:23Z</time></trkpt><trkpt lat="44.0423726452441" lon="11.259270264142472"><ele>492.5</ele><time>2026-04-26T09:54:24Z</time></trkpt><trkpt lat="44.04244367539738" lon="11.259164887841601"><ele>493.0</ele><time>2026-04-26T09:54:25Z</time></trkpt><trkpt lat="44.0425408723852" lon="11.259108991191301"><ele>493.0</ele><time>2026-04-26T09:54:26Z</time></trkpt><trkpt lat="44.0426465363936" lon="11.259049611890402"><ele>493.0</ele><time>2026-04-26T09:54:27Z</time></trkpt><trkpt lat="44.04278391253618" lon="11.259035713306375"><ele>493.0</ele><time>2026-04-26T09:54:28Z</time></trkpt><trkpt lat="44.042951150861334" lon="11.258985272245381"><ele>493.0</ele><time>2026-04-26T09:54:29Z</time></trkpt><trkpt lat="44.04312787239285" lon="11.258968279035937"><ele>492.6666666666667</ele><time>2026-04-26T09:54:30Z</time></trkpt><trkpt lat="44.04331926315471" lon="11.258954774142829"><ele>492.33333333333337</ele><time>2026-04-26T09:54:31Z</time></trkpt><trkpt lat="44.043512932856764" lon="11.258942374448857"><ele>492.0</ele><time>2026-04-26T09:54:32Z</time></trkpt><trkpt lat="44.04370437774356" lon="11.25892472013881"><ele>492.0</ele><time>2026-04-26T09:54:33.001Z</time></trkpt><trkpt lat="44.043897153195985" lon="11.258885948917174"><ele>492.0</ele><time>2026-04-26T09:54:34.001Z</time></trkpt><trkpt lat="44.04408860711977" lon="11.258832235038412"><ele>492.0</ele><time>2026-04-26T09:54:35.001Z</time></trkpt><trkpt lat="44.044280565330745" lon="11.258770264542578"><ele>492.0</ele><time>2026-04-26T09:54:36.001Z</time></trkpt><trkpt lat="44.04447080156806" lon="11.25870968612877"><ele>492.0</ele><time>2026-04-26T09:54:37.001Z</time></trkpt><trkpt lat="44.0446512142026" lon="11.258650735093537"><ele>492.0</ele><time>2026-04-26T09:54:38.001Z</time></trkpt><trkpt lat="44.04482293095354" lon="11.258596917030497"><ele>495.66666666666663</ele><time>2026-04-26T09:54:39.001Z</time></trkpt><trkpt lat="44.04498801295304" lon="11.258544341526108"><ele>499.3333333333333</ele><time>2026-04-26T09:54:40.001Z</time></trkpt><trkpt lat="44.04515405856335" lon="11.258494481512091"><ele>503.0</ele><time>2026-04-26T09:54:41.001Z</time></trkpt><trkpt lat="44.04531987846876" lon="11.258462038158214"><ele>503.0</ele><time>2026-04-26T09:54:42.001Z</time></trkpt><trkpt lat="44.04547935604469" lon="11.258414537250218"><ele>503.0</ele><time>2026-04-26T09:54:43.001Z</time></trkpt><trkpt lat="44.045627882309084" lon="11.25833498723541"><ele>503.0</ele><time>2026-04-26T09:54:44.001Z</time></trkpt><trkpt lat="44.045770616630605" lon="11.258254207501885"><ele>504.75</ele><time>2026-04-26T09:54:45.001Z</time></trkpt><trkpt lat="44.0459000939675" lon="11.258185097726079"><ele>506.5</ele><time>2026-04-26T09:54:46.001Z</time></trkpt><trkpt lat="44.046025702455" lon="11.258136598062546"><ele>508.25</ele><time>2026-04-26T09:54:47.001Z</time></trkpt><trkpt lat="44.046147461505406" lon="11.258135468794912"><ele>510.0</ele><time>2026-04-26T09:54:48.001Z</time></trkpt><trkpt lat="44.04626596102878" lon="11.25818762511462"><ele>510.0</ele><time>2026-04-26T09:54:49.001Z</time></trkpt><trkpt lat="44.04638440462885" lon="11.2582828173842"><ele>510.0</ele><time>2026-04-26T09:54:50.001Z</time></trkpt><trkpt lat="44.04649461805371" lon="11.258419612415226"><ele>510.0</ele><time>2026-04-26T09:54:51.001Z</time></trkpt><trkpt lat="44.04660870884732" lon="11.258586192873674"><ele>508.33333333333337</ele><time>2026-04-26T09:54:52.001Z</time></trkpt><trkpt lat="44.04674441842292" lon="11.258751600042402"><ele>506.6666666666667</ele><time>2026-04-26T09:54:53.001Z</time></trkpt><trkpt lat="44.04689649542099" lon="11.258919665183434"><ele>505.0</ele><time>2026-04-26T09:54:54.001Z</time></trkpt><trkpt lat="44.04705523986409" lon="11.259092368186995"><ele>503.6666666666667</ele><time>2026-04-26T09:54:55.001Z</time></trkpt><trkpt lat="44.04721598185178" lon="11.259252998795173"><ele>502.33333333333337</ele><time>2026-04-26T09:54:56.001Z</time></trkpt><trkpt lat="44.04737503838243" lon="11.259403884856052"><ele>501.0</ele><time>2026-04-26T09:54:57.001Z</time></trkpt><trkpt lat="44.04753078809357" lon="11.25955184552831"><ele>501.0</ele><time>2026-04-26T09:54:58.001Z</time></trkpt><trkpt lat="44.04768987090973" lon="11.259697330512893"><ele>501.0</ele><time>2026-04-26T09:54:59.001Z</time></trkpt><trkpt lat="44.04783880333252" lon="11.259850806096281"><ele>501.0</ele><time>2026-04-26T09:55:00.001Z</time></trkpt><trkpt lat="44.04796887725208" lon="11.260017944947016"><ele>504.0</ele><time>2026-04-26T09:55:01.001Z</time></trkpt><trkpt lat="44.048077425401104" lon="11.26019467443639"><ele>507.0</ele><time>2026-04-26T09:55:02.001Z</time></trkpt><trkpt lat="44.048191449701726" lon="11.260350780584078"><ele>510.0</ele><time>2026-04-26T09:55:03.001Z</time></trkpt><trkpt lat="44.048314813980646" lon="11.260494656171955"><ele>512.6666666666666</ele><time>2026-04-26T09:55:04.001Z</time></trkpt><trkpt lat="44.04843853796675" lon="11.260631956954688"><ele>515.3333333333333</ele><time>2026-04-26T09:55:05.001Z</time></trkpt><trkpt lat="44.04855798038318" lon="11.260768666735457"><ele>518.0</ele><time>2026-04-26T09:55:06Z</time></trkpt><trkpt lat="44.04867622770257" lon="11.260891936946317"><ele>518.0</ele><time>2026-04-26T09:55:07Z</time></trkpt><trkpt lat="44.0488085741181" lon="11.26099968679085"><ele>518.0</ele><time>2026-04-26T09:55:08Z</time></trkpt><trkpt lat="44.048962600830315" lon="11.261086876035437"><ele>518.0</ele><time>2026-04-26T09:55:09Z</time></trkpt><trkpt lat="44.04912949147143" lon="11.261158516178233"><ele>516.6666666666666</ele><time>2026-04-26T09:55:10Z</time></trkpt><trkpt lat="44.04930857974767" lon="11.2612064445436"><ele>515.3333333333334</ele><time>2026-04-26T09:55:11Z</time></trkpt><trkpt lat="44.049486816314754" lon="11.261258041491342"><ele>514.0</ele><time>2026-04-26T09:55:12Z</time></trkpt><trkpt lat="44.049671218474295" lon="11.261300178968213"><ele>514.0</ele><time>2026-04-26T09:55:13Z</time></trkpt><trkpt lat="44.04985697455853" lon="11.261322622194756"><ele>514.0</ele><time>2026-04-26T09:55:14Z</time></trkpt><trkpt lat="44.050041759689385" lon="11.261327502938034"><ele>514.0</ele><time>2026-04-26T09:55:15Z</time></trkpt><trkpt lat="44.05022487314495" lon="11.26131380847405"><ele>514.6666666666667</ele><time>2026-04-26T09:55:16Z</time></trkpt><trkpt lat="44.05040387890099" lon="11.261289371636444"><ele>515.3333333333334</ele><time>2026-04-26T09:55:17Z</time></trkpt><trkpt lat="44.05057890260243" lon="11.26124888948149"><ele>516.0</ele><time>2026-04-26T09:55:18Z</time></trkpt><trkpt lat="44.050748555333456" lon="11.26118441441802"><ele>516.6666666666666</ele><time>2026-04-26T09:55:19Z</time></trkpt><trkpt lat="44.05091200083899" lon="11.261099431060119"><ele>517.3333333333333</ele><time>2026-04-26T09:55:20Z</time></trkpt><trkpt lat="44.051067330501276" lon="11.261064370848752"><ele>518.0</ele><time>2026-04-26T09:55:21Z</time></trkpt><trkpt lat="44.05122027078229" lon="11.261025019761263"><ele>518.0</ele><time>2026-04-26T09:55:22Z</time></trkpt><trkpt lat="44.05138706604844" lon="11.260935338723872"><ele>518.0</ele><time>2026-04-26T09:55:23Z</time></trkpt><trkpt lat="44.05154055539503" lon="11.260888231936063"><ele>518.0</ele><time>2026-04-26T09:55:24Z</time></trkpt><trkpt lat="44.05170013906375" lon="11.260823177256617"><ele>519.0</ele><time>2026-04-26T09:55:25Z</time></trkpt><trkpt lat="44.05185507110498" lon="11.260762866468848"><ele>520.0</ele><time>2026-04-26T09:55:26Z</time></trkpt><trkpt lat="44.05201133036419" lon="11.260707999618724"><ele>521.0</ele><time>2026-04-26T09:55:27Z</time></trkpt><trkpt lat="44.05216521787906" lon="11.260660029131717"><ele>521.0</ele><time>2026-04-26T09:55:28Z</time></trkpt><trkpt lat="44.05232400277048" lon="11.260650542067488"><ele>521.0</ele><time>2026-04-26T09:55:29Z</time></trkpt><trkpt lat="44.052473770704445" lon="11.26063303327119"><ele>521.0</ele><time>2026-04-26T09:55:30Z</time></trkpt><trkpt lat="44.05260926034322" lon="11.260641121760054"><ele>521.0</ele><time>2026-04-26T09:55:31Z</time></trkpt><trkpt lat="44.052728949300075" lon="11.260680249740588"><ele>522.75</ele><time>2026-04-26T09:55:32Z</time></trkpt><trkpt lat="44.05284166599957" lon="11.260745972419235"><ele>524.5</ele><time>2026-04-26T09:55:33Z</time></trkpt><trkpt lat="44.05297118343211" lon="11.260845782128134"><ele>526.25</ele><time>2026-04-26T09:55:34Z</time></trkpt><trkpt lat="44.05310908693242" lon="11.260966992086038"><ele>528.0</ele><time>2026-04-26T09:55:35Z</time></trkpt><trkpt lat="44.05325959451918" lon="11.261102364845959"><ele>527.6666666666666</ele><time>2026-04-26T09:55:36Z</time></trkpt><trkpt lat="44.05340987014668" lon="11.261235271913453"><ele>527.3333333333333</ele><time>2026-04-26T09:55:37Z</time></trkpt><trkpt lat="44.05356655084054" lon="11.26134975409846"><ele>527.0</ele><time>2026-04-26T09:55:38Z</time></trkpt><trkpt lat="44.05372389719054" lon="11.261470267775987"><ele>529.3333333333333</ele><time>2026-04-26T09:55:39Z</time></trkpt><trkpt lat="44.05389009945869" lon="11.261562905470416"><ele>531.6666666666666</ele><time>2026-04-26T09:55:39.999Z</time></trkpt><trkpt lat="44.05405885083385" lon="11.261641295039723"><ele>534.0</ele><time>2026-04-26T09:55:40.999Z</time></trkpt><trkpt lat="44.054235780548005" lon="11.261705407126282"><ele>534.0</ele><time>2026-04-26T09:55:41.999Z</time></trkpt><trkpt lat="44.05441282205101" lon="11.261769188334842"><ele>534.0</ele><time>2026-04-26T09:55:42.999Z</time></trkpt><trkpt lat="44.05459365646421" lon="11.261837617933795"><ele>534.0</ele><time>2026-04-26T09:55:43.999Z</time></trkpt><trkpt lat="44.0547820075506" lon="11.261908688987432"><ele>532.6666666666666</ele><time>2026-04-26T09:55:44.999Z</time></trkpt><trkpt lat="44.0549749965929" lon="11.261982159243416"><ele>531.3333333333333</ele><time>2026-04-26T09:55:45.999Z</time></trkpt><trkpt lat="44.0551656405083" lon="11.262060214506732"><ele>530.0</ele><time>2026-04-26T09:55:46.999Z</time></trkpt><trkpt lat="44.055356511688416" lon="11.262136502080633"><ele>530.0</ele><time>2026-04-26T09:55:47.999Z</time></trkpt><trkpt lat="44.0555473677373" lon="11.262209439086678"><ele>530.0</ele><time>2026-04-26T09:55:48.999Z</time></trkpt><trkpt lat="44.05573489846514" lon="11.262281557285196"><ele>530.0</ele><time>2026-04-26T09:55:49.999Z</time></trkpt><trkpt lat="44.055915422780856" lon="11.262347573116545"><ele>533.0</ele><time>2026-04-26T09:55:50.999Z</time></trkpt><trkpt lat="44.05608292979957" lon="11.2624215727505"><ele>536.0</ele><time>2026-04-26T09:55:51.999Z</time></trkpt><trkpt lat="44.05621990420217" lon="11.26254163413234"><ele>539.0</ele><time>2026-04-26T09:55:52.999Z</time></trkpt><trkpt lat="44.056343362971575" lon="11.262658441143431"><ele>539.0</ele><time>2026-04-26T09:55:53.999Z</time></trkpt><trkpt lat="44.05643506152741" lon="11.26279141743402"><ele>539.0</ele><time>2026-04-26T09:55:54.999Z</time></trkpt><trkpt lat="44.05654013291929" lon="11.262873227732907"><ele>539.0</ele><time>2026-04-26T09:55:55.999Z</time></trkpt><trkpt lat="44.056659014918104" lon="11.262879620181504"><ele>539.0</ele><time>2026-04-26T09:55:56.999Z</time></trkpt><trkpt lat="44.05677888633443" lon="11.262811948836614"><ele>541.25</ele><time>2026-04-26T09:55:57.999Z</time></trkpt><trkpt lat="44.056892808063246" lon="11.262693421395104"><ele>543.5</ele><time>2026-04-26T09:55:58.999Z</time></trkpt><trkpt lat="44.05701164654059" lon="11.262575294072724"><ele>545.75</ele><time>2026-04-26T09:55:59.999Z</time></trkpt><trkpt lat="44.05714160106223" lon="11.2624847623396"><ele>548.0</ele><time>2026-04-26T09:56:00.999Z</time></trkpt><trkpt lat="44.05727432239414" lon="11.262437483428583"><ele>548.0</ele><time>2026-04-26T09:56:01.999Z</time></trkpt><trkpt lat="44.05741904843209" lon="11.262435465424975"><ele>548.0</ele><time>2026-04-26T09:56:02.999Z</time></trkpt><trkpt lat="44.05756429376891" lon="11.262513321843661"><ele>548.0</ele><time>2026-04-26T09:56:03.999Z</time></trkpt><trkpt lat="44.05772414962139" lon="11.262587118566953"><ele>550.3333333333333</ele><time>2026-04-26T09:56:04.999Z</time></trkpt><trkpt lat="44.05787751259118" lon="11.262707051938515"><ele>552.6666666666666</ele><time>2026-04-26T09:56:05.999Z</time></trkpt><trkpt lat="44.05802241004482" lon="11.262838004828275"><ele>555.0</ele><time>2026-04-26T09:56:06.999Z</time></trkpt><trkpt lat="44.05816406711737" lon="11.262954338805152"><ele>556.0</ele><time>2026-04-26T09:56:07.999Z</time></trkpt><trkpt lat="44.05831271636491" lon="11.263039683322948"><ele>557.0</ele><time>2026-04-26T09:56:08.999Z</time></trkpt><trkpt lat="44.05847559494678" lon="11.263080845845254"><ele>558.0</ele><time>2026-04-26T09:56:09.999Z</time></trkpt><trkpt lat="44.05864982097159" lon="11.26307745743925"><ele>558.0</ele><time>2026-04-26T09:56:10.999Z</time></trkpt><trkpt lat="44.058829842042385" lon="11.263054938471276"><ele>558.0</ele><time>2026-04-26T09:56:11.999Z</time></trkpt><trkpt lat="44.05901490643275" lon="11.263037760494914"><ele>558.0</ele><time>2026-04-26T09:56:12.999Z</time></trkpt><trkpt lat="44.05920505348308" lon="11.263032524436422"><ele>560.0</ele><time>2026-04-26T09:56:13.999Z</time></trkpt><trkpt lat="44.05939519188474" lon="11.263036132276811"><ele>562.0</ele><time>2026-04-26T09:56:14.999Z</time></trkpt><trkpt lat="44.059590129950585" lon="11.26303288131307"><ele>564.0</ele><time>2026-04-26T09:56:15.999Z</time></trkpt><trkpt lat="44.05978440782862" lon="11.263034686608306"><ele>567.6666666666666</ele><time>2026-04-26T09:56:16.999Z</time></trkpt><trkpt lat="44.05997670109294" lon="11.263034291966898"><ele>571.3333333333333</ele><time>2026-04-26T09:56:17.999Z</time></trkpt><trkpt lat="44.06016755081127" lon="11.263042142063496"><ele>575.0</ele><time>2026-04-26T09:56:18.999Z</time></trkpt><trkpt lat="44.06035852745855" lon="11.263055667571008"><ele>575.0</ele><time>2026-04-26T09:56:19.999Z</time></trkpt><trkpt lat="44.06054614937034" lon="11.263070274784797"><ele>575.0</ele><time>2026-04-26T09:56:20.999Z</time></trkpt><trkpt lat="44.06073207785627" lon="11.26310254817241"><ele>575.0</ele><time>2026-04-26T09:56:21.999Z</time></trkpt><trkpt lat="44.06091701432446" lon="11.26316361475325"><ele>574.0</ele><time>2026-04-26T09:56:22.999Z</time></trkpt><trkpt lat="44.061098675008935" lon="11.263252370497767"><ele>573.0</ele><time>2026-04-26T09:56:23.999Z</time></trkpt><trkpt lat="44.06127533587358" lon="11.263360885915402"><ele>572.0</ele><time>2026-04-26T09:56:24.999Z</time></trkpt><trkpt lat="44.06144781361192" lon="11.263479148772648"><ele>573.6666666666666</ele><time>2026-04-26T09:56:25.999Z</time></trkpt><trkpt lat="44.06161791959361" lon="11.263589230081463"><ele>575.3333333333334</ele><time>2026-04-26T09:56:26.999Z</time></trkpt><trkpt lat="44.06178173761216" lon="11.263694903186085"><ele>577.0</ele><time>2026-04-26T09:56:27.999Z</time></trkpt><trkpt lat="44.06193872891662" lon="11.263797325340988"><ele>577.0</ele><time>2026-04-26T09:56:28.999Z</time></trkpt><trkpt lat="44.062093460459195" lon="11.263901580036627"><ele>577.0</ele><time>2026-04-26T09:56:29.999Z</time></trkpt><trkpt lat="44.06224131945689" lon="11.263987340128331"><ele>577.0</ele><time>2026-04-26T09:56:30.999Z</time></trkpt><trkpt lat="44.06239178610847" lon="11.264072543177184"><ele>581.0</ele><time>2026-04-26T09:56:31.999Z</time></trkpt><trkpt lat="44.062532215683575" lon="11.264153752843162"><ele>585.0</ele><time>2026-04-26T09:56:32.999Z</time></trkpt><trkpt lat="44.06267394477364" lon="11.264242085908291"><ele>589.0</ele><time>2026-04-26T09:56:33.999Z</time></trkpt><trkpt lat="44.062812896041805" lon="11.264338376421405"><ele>589.0</ele><time>2026-04-26T09:56:34.999Z</time></trkpt><trkpt lat="44.062948979485725" lon="11.264454452488668"><ele>589.0</ele><time>2026-04-26T09:56:35.999Z</time></trkpt><trkpt lat="44.063073942991686" lon="11.264600267036363"><ele>589.0</ele><time>2026-04-26T09:56:36.999Z</time></trkpt><trkpt lat="44.06318677951991" lon="11.264775800634794"><ele>588.0</ele><time>2026-04-26T09:56:37.999Z</time></trkpt><trkpt lat="44.06325702238312" lon="11.264995106346811"><ele>587.0</ele><time>2026-04-26T09:56:39Z</time></trkpt><trkpt lat="44.063338561650056" lon="11.26519872090335"><ele>586.0</ele><time>2026-04-26T09:56:40Z</time></trkpt><trkpt lat="44.063406101524556" lon="11.265403504173257"><ele>591.0</ele><time>2026-04-26T09:56:41Z</time></trkpt><trkpt lat="44.0634942952417" lon="11.265606767939707"><ele>596.0</ele><time>2026-04-26T09:56:42Z</time></trkpt><trkpt lat="44.06360283954863" lon="11.265821313270873"><ele>601.0</ele><time>2026-04-26T09:56:43Z</time></trkpt><trkpt lat="44.063729170784136" lon="11.266037559970677"><ele>601.0</ele><time>2026-04-26T09:56:44Z</time></trkpt><trkpt lat="44.06385913582931" lon="11.266243445060326"><ele>601.0</ele><time>2026-04-26T09:56:45Z</time></trkpt><trkpt lat="44.06397661378477" lon="11.266432688293952"><ele>601.0</ele><time>2026-04-26T09:56:46Z</time></trkpt><trkpt lat="44.06408542254394" lon="11.266601881660295"><ele>604.75</ele><time>2026-04-26T09:56:47Z</time></trkpt><trkpt lat="44.064184376852566" lon="11.266753643326826"><ele>608.5</ele><time>2026-04-26T09:56:48Z</time></trkpt><trkpt lat="44.06428623133579" lon="11.266884216678818"><ele>612.25</ele><time>2026-04-26T09:56:49Z</time></trkpt><trkpt lat="44.064410402141384" lon="11.266962842285288"><ele>616.0</ele><time>2026-04-26T09:56:50Z</time></trkpt><trkpt lat="44.06457172555496" lon="11.266982099877087"><ele>616.0</ele><time>2026-04-26T09:56:51Z</time></trkpt><trkpt lat="44.0647452267161" lon="11.266967423898025"><ele>616.0</ele><time>2026-04-26T09:56:52Z</time></trkpt><trkpt lat="44.06493184660028" lon="11.2669847883551"><ele>616.0</ele><time>2026-04-26T09:56:53Z</time></trkpt><trkpt lat="44.06512895628991" lon="11.267015380248965"><ele>619.3333333333334</ele><time>2026-04-26T09:56:54Z</time></trkpt><trkpt lat="44.06533049612047" lon="11.267101592087684"><ele>622.6666666666666</ele><time>2026-04-26T09:56:55Z</time></trkpt><trkpt lat="44.065521388385214" lon="11.267184995537832"><ele>626.0</ele><time>2026-04-26T09:56:56Z</time></trkpt><trkpt lat="44.06571320234825" lon="11.267276671395258"><ele>625.6666666666666</ele><time>2026-04-26T09:56:57Z</time></trkpt><trkpt lat="44.06590825433471" lon="11.267335416874607"><ele>625.3333333333334</ele><time>2026-04-26T09:56:58Z</time></trkpt><trkpt lat="44.066106036495604" lon="11.267376781291167"><ele>625.0</ele><time>2026-04-26T09:56:59Z</time></trkpt><trkpt lat="44.06629907530258" lon="11.267413426440223"><ele>625.0</ele><time>2026-04-26T09:57:00Z</time></trkpt><trkpt lat="44.066476296198026" lon="11.267489013214986"><ele>625.0</ele><time>2026-04-26T09:57:01Z</time></trkpt><trkpt lat="44.066641507589615" lon="11.267630935977534"><ele>625.0</ele><time>2026-04-26T09:57:02Z</time></trkpt><trkpt lat="44.066784086210944" lon="11.267812554816492"><ele>625.3333333333334</ele><time>2026-04-26T09:57:03Z</time></trkpt><trkpt lat="44.0669192424223" lon="11.267974449668884"><ele>625.6666666666666</ele><time>2026-04-26T09:57:04Z</time></trkpt><trkpt lat="44.06707073270739" lon="11.268090936534296"><ele>626.0</ele><time>2026-04-26T09:57:05Z</time></trkpt><trkpt lat="44.06724271550319" lon="11.26815627118751"><ele>626.0</ele><time>2026-04-26T09:57:06Z</time></trkpt><trkpt lat="44.06740764315492" lon="11.268192386493642"><ele>626.0</ele><time>2026-04-26T09:57:07Z</time></trkpt><trkpt lat="44.067552619292684" lon="11.2682482657592"><ele>626.0</ele><time>2026-04-26T09:57:08Z</time></trkpt><trkpt lat="44.06767186723875" lon="11.268355942692336"><ele>629.0</ele><time>2026-04-26T09:57:09Z</time></trkpt><trkpt lat="44.06776378624235" lon="11.268522179103934"><ele>632.0</ele><time>2026-04-26T09:57:10Z</time></trkpt><trkpt lat="44.06780974911604" lon="11.268740446568758"><ele>635.0</ele><time>2026-04-26T09:57:11Z</time></trkpt><trkpt lat="44.06786035831871" lon="11.268965570660423"><ele>635.0</ele><time>2026-04-26T09:57:12Z</time></trkpt><trkpt lat="44.06790226164777" lon="11.269187250035623"><ele>635.0</ele><time>2026-04-26T09:57:13Z</time></trkpt><trkpt lat="44.06795734114279" lon="11.269384680884395"><ele>635.0</ele><time>2026-04-26T09:57:14Z</time></trkpt><trkpt lat="44.0680192354409" lon="11.269566935529333"><ele>635.0</ele><time>2026-04-26T09:57:15Z</time></trkpt><trkpt lat="44.0680809664208" lon="11.269742708508268"><ele>635.0</ele><time>2026-04-26T09:57:16Z</time></trkpt><trkpt lat="44.06815976305753" lon="11.269873914373099"><ele>635.0</ele><time>2026-04-26T09:57:17Z</time></trkpt><trkpt lat="44.068284928503154" lon="11.269990227978015"><ele>635.0</ele><time>2026-04-26T09:57:18Z</time></trkpt><trkpt lat="44.06846336848106" lon="11.270090043668457"><ele>639.6666666666666</ele><time>2026-04-26T09:57:19Z</time></trkpt><trkpt lat="44.068633854695726" lon="11.270163248739566"><ele>644.3333333333334</ele><time>2026-04-26T09:57:20Z</time></trkpt><trkpt lat="44.06879376638213" lon="11.270210993632547"><ele>649.0</ele><time>2026-04-26T09:57:21Z</time></trkpt><trkpt lat="44.06898435473339" lon="11.27019763539654"><ele>653.3333333333334</ele><time>2026-04-26T09:57:22Z</time></trkpt><trkpt lat="44.069180714571516" lon="11.27016345238041"><ele>657.6666666666666</ele><time>2026-04-26T09:57:23Z</time></trkpt><trkpt lat="44.06937628681912" lon="11.270123716571483"><ele>662.0</ele><time>2026-04-26T09:57:24Z</time></trkpt><trkpt lat="44.069572462916554" lon="11.27010712376478"><ele>662.0</ele><time>2026-04-26T09:57:25Z</time></trkpt><trkpt lat="44.069765087789726" lon="11.270066511388073"><ele>662.0</ele><time>2026-04-26T09:57:26Z</time></trkpt><trkpt lat="44.06994836564069" lon="11.27001707178194"><ele>662.0</ele><time>2026-04-26T09:57:27Z</time></trkpt><trkpt lat="44.070118481795745" lon="11.26995683494198"><ele>663.5</ele><time>2026-04-26T09:57:28Z</time></trkpt><trkpt lat="44.07027039004939" lon="11.269903640163665"><ele>665.0</ele><time>2026-04-26T09:57:29Z</time></trkpt><trkpt lat="44.070405342098276" lon="11.269847739532555"><ele>666.5</ele><time>2026-04-26T09:57:30Z</time></trkpt><trkpt lat="44.0705432365161" lon="11.269856472774839"><ele>668.0</ele><time>2026-04-26T09:57:31Z</time></trkpt><trkpt lat="44.070683071291754" lon="11.269933437492671"><ele>670.0</ele><time>2026-04-26T09:57:32Z</time></trkpt><trkpt lat="44.070818494440786" lon="11.27006005284675"><ele>672.0</ele><time>2026-04-26T09:57:33Z</time></trkpt><trkpt lat="44.07098205150358" lon="11.27014893687777"><ele>674.0</ele><time>2026-04-26T09:57:34Z</time></trkpt><trkpt lat="44.07113035188253" lon="11.270255970055194"><ele>674.0</ele><time>2026-04-26T09:57:35Z</time></trkpt><trkpt lat="44.07127275143875" lon="11.27038071467103"><ele>674.0</ele><time>2026-04-26T09:57:36Z</time></trkpt><trkpt lat="44.071396609960615" lon="11.270541553262783"><ele>674.0</ele><time>2026-04-26T09:57:37Z</time></trkpt><trkpt lat="44.07150448603151" lon="11.27072661175766"><ele>673.0</ele><time>2026-04-26T09:57:38Z</time></trkpt><trkpt lat="44.07160062604687" lon="11.270916559873573"><ele>672.0</ele><time>2026-04-26T09:57:39Z</time></trkpt><trkpt lat="44.0717124730561" lon="11.271092390427487"><ele>671.0</ele><time>2026-04-26T09:57:40Z</time></trkpt><trkpt lat="44.07185172216927" lon="11.271237795707279"><ele>674.0</ele><time>2026-04-26T09:57:41Z</time></trkpt><trkpt lat="44.072001206714056" lon="11.271355307272309"><ele>677.0</ele><time>2026-04-26T09:57:42Z</time></trkpt><trkpt lat="44.07213926508618" lon="11.271464071432254"><ele>680.0</ele><time>2026-04-26T09:57:43Z</time></trkpt><trkpt lat="44.07225727241516" lon="11.271575340943755"><ele>680.0</ele><time>2026-04-26T09:57:44Z</time></trkpt><trkpt lat="44.07236007479542" lon="11.271674621174128"><ele>680.0</ele><time>2026-04-26T09:57:45Z</time></trkpt><trkpt lat="44.07245531004751" lon="11.271740251367028"><ele>680.0</ele><time>2026-04-26T09:57:46Z</time></trkpt><trkpt lat="44.072556923737636" lon="11.271762660147086"><ele>680.0</ele><time>2026-04-26T09:57:46.999Z</time></trkpt><trkpt lat="44.07266271296508" lon="11.271728522892316"><ele>680.0</ele><time>2026-04-26T09:57:47.999Z</time></trkpt><trkpt lat="44.07275904463542" lon="11.271629020811847"><ele>682.75</ele><time>2026-04-26T09:57:48.999Z</time></trkpt><trkpt lat="44.07282139580936" lon="11.27147976375143"><ele>685.5</ele><time>2026-04-26T09:57:49.999Z</time></trkpt><trkpt lat="44.07283654109023" lon="11.271302891523955"><ele>688.25</ele><time>2026-04-26T09:57:50.999Z</time></trkpt><trkpt lat="44.07282216357519" lon="11.271106418800038"><ele>691.0</ele><time>2026-04-26T09:57:51.999Z</time></trkpt><trkpt lat="44.072800835180466" lon="11.27089504974328"><ele>692.0</ele><time>2026-04-26T09:57:52.999Z</time></trkpt><trkpt lat="44.072792195382924" lon="11.270693071682475"><ele>693.0</ele><time>2026-04-26T09:57:53.999Z</time></trkpt><trkpt lat="44.07278692499361" lon="11.270509463859618"><ele>694.0</ele><time>2026-04-26T09:57:54.999Z</time></trkpt><trkpt lat="44.07278251584092" lon="11.270339967229"><ele>695.0</ele><time>2026-04-26T09:57:55.999Z</time></trkpt><trkpt lat="44.072806321635305" lon="11.270194999110574"><ele>695.0</ele><time>2026-04-26T09:57:56.999Z</time></trkpt><trkpt lat="44.07288789936068" lon="11.270106811307226"><ele>695.0</ele><time>2026-04-26T09:57:57.999Z</time></trkpt><trkpt lat="44.0729768685842" lon="11.270062559180943"><ele>695.0</ele><time>2026-04-26T09:57:58.999Z</time></trkpt><trkpt lat="44.07309839631801" lon="11.270072963177693"><ele>695.0</ele><time>2026-04-26T09:57:59.999Z</time></trkpt><trkpt lat="44.07320151213087" lon="11.270081709272036"><ele>695.0</ele><time>2026-04-26T09:58:00.999Z</time></trkpt><trkpt lat="44.07332266229601" lon="11.27012670832593"><ele>697.0</ele><time>2026-04-26T09:58:01.999Z</time></trkpt><trkpt lat="44.0734405898292" lon="11.270220377077177"><ele>699.0</ele><time>2026-04-26T09:58:02.999Z</time></trkpt><trkpt lat="44.07355970332251" lon="11.27034016101312"><ele>701.0</ele><time>2026-04-26T09:58:03.999Z</time></trkpt><trkpt lat="44.073663621091114" lon="11.270496487857878"><ele>703.0</ele><time>2026-04-26T09:58:04.999Z</time></trkpt><trkpt lat="44.07376915231161" lon="11.270655721848705"><ele>703.3333333333334</ele><time>2026-04-26T09:58:05.999Z</time></trkpt><trkpt lat="44.073870115481775" lon="11.270827797221067"><ele>703.6666666666666</ele><time>2026-04-26T09:58:06.999Z</time></trkpt><trkpt lat="44.07393927706439" lon="11.271042964803692"><ele>704.0</ele><time>2026-04-26T09:58:07.999Z</time></trkpt><trkpt lat="44.0739990739596" lon="11.27126826301434"><ele>703.3333333333333</ele><time>2026-04-26T09:58:08.999Z</time></trkpt><trkpt lat="44.07404491623688" lon="11.271491771619548"><ele>702.6666666666666</ele><time>2026-04-26T09:58:09.999Z</time></trkpt><trkpt lat="44.074052460504845" lon="11.271705408055668"><ele>702.0</ele><time>2026-04-26T09:58:10.999Z</time></trkpt><trkpt lat="44.074084357459164" lon="11.271916295564509"><ele>702.0</ele><time>2026-04-26T09:58:11.999Z</time></trkpt><trkpt lat="44.074081108739385" lon="11.27213381408897"><ele>702.0</ele><time>2026-04-26T09:58:12.999Z</time></trkpt><trkpt lat="44.07411092354737" lon="11.272345662363685"><ele>702.0</ele><time>2026-04-26T09:58:13.999Z</time></trkpt><trkpt lat="44.074111005016306" lon="11.272561872326122"><ele>706.3333333333334</ele><time>2026-04-26T09:58:14.999Z</time></trkpt><trkpt lat="44.07412888819941" lon="11.272790984556645"><ele>710.6666666666667</ele><time>2026-04-26T09:58:15.999Z</time></trkpt><trkpt lat="44.07412887031636" lon="11.272993621604234"><ele>715.0</ele><time>2026-04-26T09:58:16.999Z</time></trkpt><trkpt lat="44.074095160142534" lon="11.27318545169057"><ele>715.0</ele><time>2026-04-26T09:58:17.999Z</time></trkpt><trkpt lat="44.07403447607701" lon="11.27336054688677"><ele>715.0</ele><time>2026-04-26T09:58:18.999Z</time></trkpt><trkpt lat="44.07397392221431" lon="11.273526815406578"><ele>715.0</ele><time>2026-04-26T09:58:19.999Z</time></trkpt><trkpt lat="44.07392659347379" lon="11.273678999836608"><ele>715.0</ele><time>2026-04-26T09:58:20.999Z</time></trkpt><trkpt lat="44.073902245484696" lon="11.27383662713703"><ele>716.0</ele><time>2026-04-26T09:58:21.999Z</time></trkpt><trkpt lat="44.07388725484783" lon="11.273999209463204"><ele>717.0</ele><time>2026-04-26T09:58:22.999Z</time></trkpt><trkpt lat="44.073918072436186" lon="11.274170316122856"><ele>718.0</ele><time>2026-04-26T09:58:23.999Z</time></trkpt><trkpt lat="44.07400229128983" lon="11.274331873880262"><ele>719.0</ele><time>2026-04-26T09:58:24.999Z</time></trkpt><trkpt lat="44.07411366770824" lon="11.274484625773434"><ele>723.6666666666666</ele><time>2026-04-26T09:58:25.999Z</time></trkpt><trkpt lat="44.07422898971226" lon="11.274645650499451"><ele>728.3333333333334</ele><time>2026-04-26T09:58:26.999Z</time></trkpt><trkpt lat="44.074337403844865" lon="11.274801832060342"><ele>733.0</ele><time>2026-04-26T09:58:27.999Z</time></trkpt><trkpt lat="44.07444566608146" lon="11.274944597999909"><ele>733.0</ele><time>2026-04-26T09:58:28.999Z</time></trkpt><trkpt lat="44.07457110763396" lon="11.275066831096531"><ele>733.0</ele><time>2026-04-26T09:58:29.999Z</time></trkpt><trkpt lat="44.07471248968796" lon="11.275157612993143"><ele>733.0</ele><time>2026-04-26T09:58:30.999Z</time></trkpt><trkpt lat="44.074852344952895" lon="11.275214377679752"><ele>736.0</ele><time>2026-04-26T09:58:31.999Z</time></trkpt><trkpt lat="44.07498571413933" lon="11.27528344638261"><ele>739.0</ele><time>2026-04-26T09:58:32.999Z</time></trkpt><trkpt lat="44.07508491646034" lon="11.275413919551491"><ele>742.0</ele><time>2026-04-26T09:58:33.999Z</time></trkpt><trkpt lat="44.075157152169666" lon="11.275585365399515"><ele>745.0</ele><time>2026-04-26T09:58:34.999Z</time></trkpt><trkpt lat="44.075209734211" lon="11.275796709461696"><ele>745.0</ele><time>2026-04-26T09:58:35.999Z</time></trkpt><trkpt lat="44.07528586307134" lon="11.27601255373654"><ele>745.0</ele><time>2026-04-26T09:58:36.999Z</time></trkpt><trkpt lat="44.075393240614105" lon="11.276209154971948"><ele>745.0</ele><time>2026-04-26T09:58:37.999Z</time></trkpt><trkpt lat="44.07552617859118" lon="11.276402089339808"><ele>745.0</ele><time>2026-04-26T09:58:38.999Z</time></trkpt><trkpt lat="44.07564526093502" lon="11.276562268634398"><ele>745.0</ele><time>2026-04-26T09:58:39.999Z</time></trkpt><trkpt lat="44.07574538210337" lon="11.276686548618056"><ele>745.0</ele><time>2026-04-26T09:58:40.999Z</time></trkpt><trkpt lat="44.075824399073014" lon="11.276809732106582"><ele>745.0</ele><time>2026-04-26T09:58:41.999Z</time></trkpt><trkpt lat="44.07587381194125" lon="11.276939884576347"><ele>744.6</ele><time>2026-04-26T09:58:42.999Z</time></trkpt><trkpt lat="44.07588045491001" lon="11.2770810359781"><ele>744.2</ele><time>2026-04-26T09:58:44Z</time></trkpt><trkpt lat="44.07585715621843" lon="11.277215959755765"><ele>743.8</ele><time>2026-04-26T09:58:45Z</time></trkpt><trkpt lat="44.07581382773741" lon="11.277340725251381"><ele>743.4</ele><time>2026-04-26T09:58:46Z</time></trkpt><trkpt lat="44.075773499800825" lon="11.277465723291767"><ele>743.0</ele><time>2026-04-26T09:58:47Z</time></trkpt><trkpt lat="44.075760691292075" lon="11.277601241618429"><ele>749.0</ele><time>2026-04-26T09:58:48Z</time></trkpt><trkpt lat="44.07578271178079" lon="11.277743328604156"><ele>755.0</ele><time>2026-04-26T09:58:49Z</time></trkpt><trkpt lat="44.075822706097654" lon="11.27788716288858"><ele>761.0</ele><time>2026-04-26T09:58:50Z</time></trkpt><trkpt lat="44.075862926771656" lon="11.278040424962033"><ele>767.0</ele><time>2026-04-26T09:58:51Z</time></trkpt><trkpt lat="44.075890859345954" lon="11.278210161449108"><ele>767.0</ele><time>2026-04-26T09:58:52Z</time></trkpt><trkpt lat="44.07588246775458" lon="11.2783864182499"><ele>767.0</ele><time>2026-04-26T09:58:53Z</time></trkpt><trkpt lat="44.075874572591474" lon="11.27855077538286"><ele>767.0</ele><time>2026-04-26T09:58:54Z</time></trkpt><trkpt lat="44.07587735259318" lon="11.278711766523688"><ele>767.0</ele><time>2026-04-26T09:58:55Z</time></trkpt><trkpt lat="44.07586594639246" lon="11.27887851589695"><ele>766.75</ele><time>2026-04-26T09:58:56Z</time></trkpt><trkpt lat="44.075853280762004" lon="11.279046071988555"><ele>766.5</ele><time>2026-04-26T09:58:57Z</time></trkpt><trkpt lat="44.07584038728159" lon="11.279208116345252"><ele>766.25</ele><time>2026-04-26T09:58:58Z</time></trkpt><trkpt lat="44.075828450703405" lon="11.279370621483165"><ele>766.0</ele><time>2026-04-26T09:58:59Z</time></trkpt><trkpt lat="44.075818446859536" lon="11.279538568910006"><ele>766.0</ele><time>2026-04-26T09:59:00Z</time></trkpt><trkpt lat="44.075807974890516" lon="11.279706054868088"><ele>766.0</ele><time>2026-04-26T09:59:01Z</time></trkpt><trkpt lat="44.07579797197541" lon="11.279868187362165"><ele>766.0</ele><time>2026-04-26T09:59:02Z</time></trkpt><trkpt lat="44.075788158192644" lon="11.280019444478643"><ele>766.0</ele><time>2026-04-26T09:59:03Z</time></trkpt><trkpt lat="44.07579858201113" lon="11.280161287195154"><ele>766.0</ele><time>2026-04-26T09:59:04Z</time></trkpt><trkpt lat="44.07582101807997" lon="11.280300640044572"><ele>765.75</ele><time>2026-04-26T09:59:05Z</time></trkpt><trkpt lat="44.07587185733037" lon="11.280435015324418"><ele>765.5</ele><time>2026-04-26T09:59:06Z</time></trkpt><trkpt lat="44.07595487779436" lon="11.28054933347767"><ele>765.25</ele><time>2026-04-26T09:59:07Z</time></trkpt><trkpt lat="44.076049967718525" lon="11.280634837603722"><ele>765.0</ele><time>2026-04-26T09:59:08Z</time></trkpt><trkpt lat="44.076154597677814" lon="11.280693478937334"><ele>765.0</ele><time>2026-04-26T09:59:09Z</time></trkpt><trkpt lat="44.07626394766473" lon="11.280728391054243"><ele>765.0</ele><time>2026-04-26T09:59:10Z</time></trkpt><trkpt lat="44.076370635877815" lon="11.280746547573244"><ele>765.0</ele><time>2026-04-26T09:59:11Z</time></trkpt><trkpt lat="44.07647756602157" lon="11.28076475646845"><ele>765.0</ele><time>2026-04-26T09:59:12Z</time></trkpt><trkpt lat="44.0765828762536" lon="11.280795875298589"><ele>765.0</ele><time>2026-04-26T09:59:13Z</time></trkpt><trkpt lat="44.07668193245908" lon="11.280842326427043"><ele>765.0</ele><time>2026-04-26T09:59:14Z</time></trkpt><trkpt lat="44.07676161009715" lon="11.28093325512506"><ele>765.0</ele><time>2026-04-26T09:59:15Z</time></trkpt><trkpt lat="44.07684106372501" lon="11.281023817431608"><ele>765.0</ele><time>2026-04-26T09:59:16Z</time></trkpt><trkpt lat="44.07693097310253" lon="11.281106081816274"><ele>765.0</ele><time>2026-04-26T09:59:17Z</time></trkpt><trkpt lat="44.07700502642356" lon="11.281197633590034"><ele>765.0</ele><time>2026-04-26T09:59:18Z</time></trkpt><trkpt lat="44.077085957316356" lon="11.281264633861793"><ele>765.0</ele><time>2026-04-26T09:59:19Z</time></trkpt><trkpt lat="44.07718520616886" lon="11.28132096962613"><ele>765.0</ele><time>2026-04-26T09:59:20Z</time></trkpt><trkpt lat="44.077297384745705" lon="11.28139635981198"><ele>765.0</ele><time>2026-04-26T09:59:21Z</time></trkpt><trkpt lat="44.077426650562806" lon="11.28145789220279"><ele>765.0</ele><time>2026-04-26T09:59:22Z</time></trkpt><trkpt lat="44.077561707889586" lon="11.28152173653182"><ele>764.6666666666666</ele><time>2026-04-26T09:59:23Z</time></trkpt><trkpt lat="44.07770617828719" lon="11.281590477095634"><ele>764.3333333333333</ele><time>2026-04-26T09:59:24Z</time></trkpt><trkpt lat="44.077872831961265" lon="11.281670314999204"><ele>764.0</ele><time>2026-04-26T09:59:25Z</time></trkpt><trkpt lat="44.078043727435876" lon="11.281752367265883"><ele>764.0</ele><time>2026-04-26T09:59:26Z</time></trkpt><trkpt lat="44.07820683684361" lon="11.281813514914688"><ele>764.0</ele><time>2026-04-26T09:59:27Z</time></trkpt><trkpt lat="44.07835870986545" lon="11.281895129382578"><ele>764.0</ele><time>2026-04-26T09:59:28Z</time></trkpt><trkpt lat="44.07850900230935" lon="11.281969507502996"><ele>767.3333333333333</ele><time>2026-04-26T09:59:29Z</time></trkpt><trkpt lat="44.07866455621214" lon="11.282033841866776"><ele>770.6666666666666</ele><time>2026-04-26T09:59:30Z</time></trkpt><trkpt lat="44.07883672929398" lon="11.282075758781732"><ele>774.0</ele><time>2026-04-26T09:59:31Z</time></trkpt><trkpt lat="44.07902791536049" lon="11.282085210214667"><ele>780.0</ele><time>2026-04-26T09:59:32Z</time></trkpt><trkpt lat="44.079218860767035" lon="11.282072731063174"><ele>786.0</ele><time>2026-04-26T09:59:33Z</time></trkpt><trkpt lat="44.07940327102812" lon="11.282049028732677"><ele>792.0</ele><time>2026-04-26T09:59:34Z</time></trkpt><trkpt lat="44.07959571468949" lon="11.282022933249669"><ele>792.0</ele><time>2026-04-26T09:59:35Z</time></trkpt><trkpt lat="44.07979090278707" lon="11.282003326421329"><ele>792.0</ele><time>2026-04-26T09:59:36Z</time></trkpt><trkpt lat="44.07998888189461" lon="11.281986027555279"><ele>792.0</ele><time>2026-04-26T09:59:37Z</time></trkpt><trkpt lat="44.08018185393098" lon="11.281964950935588"><ele>796.6666666666667</ele><time>2026-04-26T09:59:38Z</time></trkpt><trkpt lat="44.08037048193314" lon="11.281950219327618"><ele>801.3333333333334</ele><time>2026-04-26T09:59:39Z</time></trkpt><trkpt lat="44.08055858351861" lon="11.281929319926125"><ele>806.0</ele><time>2026-04-26T09:59:40Z</time></trkpt><trkpt lat="44.08074121333145" lon="11.281889991035339"><ele>807.0</ele><time>2026-04-26T09:59:41Z</time></trkpt><trkpt lat="44.080909214280965" lon="11.281828822271807"><ele>808.0</ele><time>2026-04-26T09:59:42Z</time></trkpt><trkpt lat="44.08106418937179" lon="11.281764455828238"><ele>809.0</ele><time>2026-04-26T09:59:43Z</time></trkpt><trkpt lat="44.08121346788243" lon="11.281696102244117"><ele>809.0</ele><time>2026-04-26T09:59:44Z</time></trkpt><trkpt lat="44.08135493162901" lon="11.281606279407391"><ele>809.0</ele><time>2026-04-26T09:59:45Z</time></trkpt><trkpt lat="44.081486289332524" lon="11.281467328001654"><ele>809.0</ele><time>2026-04-26T09:59:46Z</time></trkpt><trkpt lat="44.08160009425371" lon="11.281300913736533"><ele>813.0</ele><time>2026-04-26T09:59:47Z</time></trkpt><trkpt lat="44.081704167874605" lon="11.281155388298187"><ele>817.0</ele><time>2026-04-26T09:59:48Z</time></trkpt><trkpt lat="44.08179845290707" lon="11.281032561281048"><ele>821.0</ele><time>2026-04-26T09:59:49Z</time></trkpt><trkpt lat="44.081895556646096" lon="11.280936096742275"><ele>825.0</ele><time>2026-04-26T09:59:50Z</time></trkpt><trkpt lat="44.08199939547306" lon="11.280894563613861"><ele>825.0</ele><time>2026-04-26T09:59:51Z</time></trkpt><trkpt lat="44.08212085994466" lon="11.280915441849837"><ele>825.0</ele><time>2026-04-26T09:59:52Z</time></trkpt><trkpt lat="44.08223483909017" lon="11.280984562893737"><ele>825.0</ele><time>2026-04-26T09:59:53Z</time></trkpt><trkpt lat="44.08233351433424" lon="11.281097405626069"><ele>825.0</ele><time>2026-04-26T09:59:54Z</time></trkpt><trkpt lat="44.08240366666541" lon="11.281252005952842"><ele>817.3333333333333</ele><time>2026-04-26T09:59:55Z</time></trkpt><trkpt lat="44.0824131474831" lon="11.281456012645231"><ele>809.6666666666666</ele><time>2026-04-26T09:59:56Z</time></trkpt><trkpt lat="44.08240770577216" lon="11.281670318612926"><ele>802.0</ele><time>2026-04-26T09:59:57Z</time></trkpt><trkpt lat="44.08240808968403" lon="11.281888282718409"><ele>802.0</ele><time>2026-04-26T09:59:58Z</time></trkpt><trkpt lat="44.0824011299384" lon="11.282100252669196"><ele>802.0</ele><time>2026-04-26T09:59:59Z</time></trkpt><trkpt lat="44.08242028288854" lon="11.282312855508193"><ele>802.0</ele><time>2026-04-26T10:00:00Z</time></trkpt><trkpt lat="44.0824702531977" lon="11.282520994853924"><ele>821.0</ele><time>2026-04-26T10:00:01Z</time></trkpt><trkpt lat="44.08272650785335" lon="11.283088432291349"><ele>821.0</ele><time>2026-04-26T10:00:04Z</time></trkpt><trkpt lat="44.0827919840238" lon="11.283236774892176"><ele>821.0</ele><time>2026-04-26T10:00:05Z</time></trkpt><trkpt lat="44.08284690449214" lon="11.283357666456439"><ele>821.0</ele><time>2026-04-26T10:00:06Z</time></trkpt><trkpt lat="44.082910224231235" lon="11.283450243269524"><ele>821.0</ele><time>2026-04-26T10:00:07Z</time></trkpt><trkpt lat="44.08297855178256" lon="11.283452871469457"><ele>821.0</ele><time>2026-04-26T10:00:08Z</time></trkpt><trkpt lat="44.083030215614315" lon="11.283365109292726"><ele>821.0</ele><time>2026-04-26T10:00:09Z</time></trkpt><trkpt lat="44.08303991325954" lon="11.283242202170184"><ele>821.0</ele><time>2026-04-26T10:00:10Z</time></trkpt><trkpt lat="44.083011055272074" lon="11.283100857455942"><ele>821.0</ele><time>2026-04-26T10:00:11Z</time></trkpt><trkpt lat="44.08295074628592" lon="11.282941313986926"><ele>821.0</ele><time>2026-04-26T10:00:12Z</time></trkpt><trkpt lat="44.082889601584064" lon="11.282769824737569"><ele>821.0</ele><time>2026-04-26T10:00:13Z</time></trkpt><trkpt lat="44.082836977760145" lon="11.2825938446365"><ele>821.0</ele><time>2026-04-26T10:00:14Z</time></trkpt><trkpt lat="44.0828045253619" lon="11.282394077696683"><ele>821.0</ele><time>2026-04-26T10:00:15Z</time></trkpt><trkpt lat="44.082786526673196" lon="11.282186276531863"><ele>821.0</ele><time>2026-04-26T10:00:16Z</time></trkpt><trkpt lat="44.082772727450795" lon="11.281996862901572"><ele>820.8</ele><time>2026-04-26T10:00:17Z</time></trkpt><trkpt lat="44.08275192496402" lon="11.281857259598068"><ele>820.5999999999999</ele><time>2026-04-26T10:00:18Z</time></trkpt><trkpt lat="44.082784405148466" lon="11.281748911770748"><ele>820.4</ele><time>2026-04-26T10:00:19Z</time></trkpt><trkpt lat="44.08285954062216" lon="11.281686217835036"><ele>820.2</ele><time>2026-04-26T10:00:20Z</time></trkpt><trkpt lat="44.08296736959707" lon="11.281658573602732"><ele>820.0</ele><time>2026-04-26T10:00:21Z</time></trkpt><trkpt lat="44.083064835567" lon="11.281603537077496"><ele>820.0</ele><time>2026-04-26T10:00:22Z</time></trkpt><trkpt lat="44.08313028245696" lon="11.281478437898086"><ele>820.0</ele><time>2026-04-26T10:00:23Z</time></trkpt><trkpt lat="44.08315875842318" lon="11.281329195481058"><ele>820.0</ele><time>2026-04-26T10:00:24Z</time></trkpt><trkpt lat="44.08316844575812" lon="11.281192350722122"><ele>820.0</ele><time>2026-04-26T10:00:25Z</time></trkpt><trkpt lat="44.08321270243245" lon="11.28109891630143"><ele>820.0</ele><time>2026-04-26T10:00:26Z</time></trkpt><trkpt lat="44.083302355518576" lon="11.281069884426074"><ele>823.0</ele><time>2026-04-26T10:00:27Z</time></trkpt><trkpt lat="44.08340351755244" lon="11.281113833930975"><ele>826.0</ele><time>2026-04-26T10:00:28Z</time></trkpt><trkpt lat="44.08351035872644" lon="11.281190542504056"><ele>829.0</ele><time>2026-04-26T10:00:29Z</time></trkpt><trkpt lat="44.083630296118265" lon="11.281261496815803"><ele>832.0</ele><time>2026-04-26T10:00:30Z</time></trkpt><trkpt lat="44.0837687928218" lon="11.28131996204746"><ele>832.0</ele><time>2026-04-26T10:00:31Z</time></trkpt><trkpt lat="44.0839087342087" lon="11.28138561587596"><ele>832.0</ele><time>2026-04-26T10:00:32Z</time></trkpt><trkpt lat="44.08403466446472" lon="11.281464594748662"><ele>832.0</ele><time>2026-04-26T10:00:33Z</time></trkpt><trkpt lat="44.08413654886281" lon="11.281585209227426"><ele>832.0</ele><time>2026-04-26T10:00:34Z</time></trkpt><trkpt lat="44.08421085679668" lon="11.281727232395951"><ele>836.6</ele><time>2026-04-26T10:00:35Z</time></trkpt><trkpt lat="44.08429175297737" lon="11.28182318329302"><ele>841.2</ele><time>2026-04-26T10:00:36Z</time></trkpt><trkpt lat="44.084386806971786" lon="11.2818452145254"><ele>845.8</ele><time>2026-04-26T10:00:37Z</time></trkpt><trkpt lat="44.084476273569926" lon="11.281791816327507"><ele>850.4</ele><time>2026-04-26T10:00:38Z</time></trkpt><trkpt lat="44.08452675780067" lon="11.281681915947942"><ele>855.0</ele><time>2026-04-26T10:00:39Z</time></trkpt><trkpt lat="44.08453163974168" lon="11.281538924500657"><ele>851.25</ele><time>2026-04-26T10:00:40Z</time></trkpt><trkpt lat="44.084516594523734" lon="11.28139285776608"><ele>847.5</ele><time>2026-04-26T10:00:41Z</time></trkpt><trkpt lat="44.08455883223179" lon="11.281274515157753"><ele>843.75</ele><time>2026-04-26T10:00:42Z</time></trkpt><trkpt lat="44.08467869823211" lon="11.281228398507032"><ele>840.0</ele><time>2026-04-26T10:00:43Z</time></trkpt><trkpt lat="44.08479114756227" lon="11.281154610671836"><ele>840.0</ele><time>2026-04-26T10:00:44Z</time></trkpt><trkpt lat="44.08489337546106" lon="11.281120186788606"><ele>840.0</ele><time>2026-04-26T10:00:44.999Z</time></trkpt><trkpt lat="44.08497649463709" lon="11.281112691698038"><ele>840.0</ele><time>2026-04-26T10:00:45.999Z</time></trkpt><trkpt lat="44.085050228647866" lon="11.281180564762316"><ele>840.0</ele><time>2026-04-26T10:00:46.999Z</time></trkpt><trkpt lat="44.085071322466796" lon="11.281341218391248"><ele>840.0</ele><time>2026-04-26T10:00:47.999Z</time></trkpt><trkpt lat="44.08514751007623" lon="11.281450378123585"><ele>846.75</ele><time>2026-04-26T10:00:49.001Z</time></trkpt><trkpt lat="44.08526037893526" lon="11.281511262988717"><ele>853.5</ele><time>2026-04-26T10:00:50.001Z</time></trkpt><trkpt lat="44.0853916194127" lon="11.28154471684872"><ele>860.25</ele><time>2026-04-26T10:00:51.001Z</time></trkpt><trkpt lat="44.08552828779812" lon="11.281587801437414"><ele>867.0</ele><time>2026-04-26T10:00:52.001Z</time></trkpt><trkpt lat="44.08566210656808" lon="11.281633058277052"><ele>868.5</ele><time>2026-04-26T10:00:53.001Z</time></trkpt><trkpt lat="44.08578806170161" lon="11.281713837779291"><ele>870.0</ele><time>2026-04-26T10:00:54.001Z</time></trkpt><trkpt lat="44.085889933759866" lon="11.281835011033571"><ele>871.5</ele><time>2026-04-26T10:00:55.001Z</time></trkpt><trkpt lat="44.085965210699484" lon="11.281970012028655"><ele>873.0</ele><time>2026-04-26T10:00:56.001Z</time></trkpt><trkpt lat="44.08603290720295" lon="11.282048851797494"><ele>873.0</ele><time>2026-04-26T10:00:57.001Z</time></trkpt><trkpt lat="44.08611375421954" lon="11.282114370246278"><ele>873.0</ele><time>2026-04-26T10:00:58.001Z</time></trkpt><trkpt lat="44.08619500452847" lon="11.282113648295162"><ele>873.0</ele><time>2026-04-26T10:00:59.001Z</time></trkpt><trkpt lat="44.08625781496081" lon="11.282017833040145"><ele>873.0</ele><time>2026-04-26T10:01:00.001Z</time></trkpt><trkpt lat="44.086286790329204" lon="11.281867210558636"><ele>873.0</ele><time>2026-04-26T10:01:01.001Z</time></trkpt><trkpt lat="44.08628808137152" lon="11.281707436368075"><ele>873.0</ele><time>2026-04-26T10:01:02.001Z</time></trkpt><trkpt lat="44.08632625078796" lon="11.28156360949288"><ele>873.0</ele><time>2026-04-26T10:01:03.001Z</time></trkpt><trkpt lat="44.08641018110854" lon="11.281504174802448"><ele>873.0</ele><time>2026-04-26T10:01:04.001Z</time></trkpt><trkpt lat="44.08649693298332" lon="11.281546350690355"><ele>873.0</ele><time>2026-04-26T10:01:05.001Z</time></trkpt><trkpt lat="44.086538923926966" lon="11.281720337126416"><ele>873.0</ele><time>2026-04-26T10:01:06.001Z</time></trkpt><trkpt lat="44.08662551583578" lon="11.28183060785661"><ele>876.5</ele><time>2026-04-26T10:01:07.001Z</time></trkpt><trkpt lat="44.086729609262726" lon="11.281884619425858"><ele>880.0</ele><time>2026-04-26T10:01:08.001Z</time></trkpt><trkpt lat="44.08684377684977" lon="11.281835989547915"><ele>883.5</ele><time>2026-04-26T10:01:09.001Z</time></trkpt><trkpt lat="44.08692703644386" lon="11.281741053485947"><ele>887.0</ele><time>2026-04-26T10:01:10.001Z</time></trkpt><trkpt lat="44.086974351815094" lon="11.281570859397142"><ele>885.75</ele><time>2026-04-26T10:01:11.001Z</time></trkpt><trkpt lat="44.08696751136503" lon="11.281372311891518"><ele>884.5</ele><time>2026-04-26T10:01:12.001Z</time></trkpt><trkpt lat="44.08692736991691" lon="11.281180842443918"><ele>883.25</ele><time>2026-04-26T10:01:13Z</time></trkpt><trkpt lat="44.0869109996175" lon="11.281000352102652"><ele>882.0</ele><time>2026-04-26T10:01:14Z</time></trkpt><trkpt lat="44.08697655076708" lon="11.280870026418434"><ele>882.0</ele><time>2026-04-26T10:01:15Z</time></trkpt><trkpt lat="44.08706180004843" lon="11.280763447099199"><ele>882.0</ele><time>2026-04-26T10:01:16Z</time></trkpt><trkpt lat="44.08715652956055" lon="11.280644853839837"><ele>882.0</ele><time>2026-04-26T10:01:17Z</time></trkpt><trkpt lat="44.08724174507435" lon="11.280556310151933"><ele>882.0</ele><time>2026-04-26T10:01:18Z</time></trkpt><trkpt lat="44.087330492087936" lon="11.280500319314317"><ele>882.0</ele><time>2026-04-26T10:01:19Z</time></trkpt><trkpt lat="44.08741281441515" lon="11.280511232028438"><ele>879.25</ele><time>2026-04-26T10:01:20Z</time></trkpt><trkpt lat="44.08749122942307" lon="11.280575460517865"><ele>876.5</ele><time>2026-04-26T10:01:21Z</time></trkpt><trkpt lat="44.08758749701618" lon="11.28068561047117"><ele>873.75</ele><time>2026-04-26T10:01:22Z</time></trkpt><trkpt lat="44.08769392743577" lon="11.280807224734156"><ele>871.0</ele><time>2026-04-26T10:01:23Z</time></trkpt><trkpt lat="44.087799117191224" lon="11.280957204321222"><ele>876.75</ele><time>2026-04-26T10:01:24Z</time></trkpt><trkpt lat="44.08788807209374" lon="11.281118330387892"><ele>882.5</ele><time>2026-04-26T10:01:25Z</time></trkpt><trkpt lat="44.08799148857642" lon="11.281251660345404"><ele>888.25</ele><time>2026-04-26T10:01:26Z</time></trkpt><trkpt lat="44.0880932775852" lon="11.281361167961073"><ele>894.0</ele><time>2026-04-26T10:01:27Z</time></trkpt><trkpt lat="44.088218270988264" lon="11.281414016571768"><ele>890.6666666666667</ele><time>2026-04-26T10:01:28Z</time></trkpt><trkpt lat="44.08836491432036" lon="11.281411019556852"><ele>887.3333333333334</ele><time>2026-04-26T10:01:29Z</time></trkpt><trkpt lat="44.08852046694491" lon="11.281381247754714"><ele>884.0</ele><time>2026-04-26T10:01:30Z</time></trkpt><trkpt lat="44.08868480898926" lon="11.281368319877942"><ele>884.0</ele><time>2026-04-26T10:01:31Z</time></trkpt><trkpt lat="44.0888457269759" lon="11.281408269603075"><ele>884.0</ele><time>2026-04-26T10:01:32Z</time></trkpt><trkpt lat="44.08900684886045" lon="11.281455255480122"><ele>884.0</ele><time>2026-04-26T10:01:33Z</time></trkpt><trkpt lat="44.08917706325128" lon="11.281486364924099"><ele>886.3333333333334</ele><time>2026-04-26T10:01:34Z</time></trkpt><trkpt lat="44.08935513814164" lon="11.28147315193814"><ele>888.6666666666667</ele><time>2026-04-26T10:01:35Z</time></trkpt><trkpt lat="44.08952439758209" lon="11.281415494894896"><ele>891.0</ele><time>2026-04-26T10:01:36Z</time></trkpt><trkpt lat="44.089680421363596" lon="11.2813016134165"><ele>891.0</ele><time>2026-04-26T10:01:37Z</time></trkpt><trkpt lat="44.08983330112869" lon="11.281190901469111"><ele>891.0</ele><time>2026-04-26T10:01:38Z</time></trkpt><trkpt lat="44.08999581457316" lon="11.28114854101111"><ele>891.0</ele><time>2026-04-26T10:01:39Z</time></trkpt><trkpt lat="44.090153280842074" lon="11.28112684737372"><ele>891.75</ele><time>2026-04-26T10:01:40Z</time></trkpt><trkpt lat="44.090300069405274" lon="11.281149281670505"><ele>892.5</ele><time>2026-04-26T10:01:41Z</time></trkpt><trkpt lat="44.090448006919644" lon="11.281190399178596"><ele>893.25</ele><time>2026-04-26T10:01:42Z</time></trkpt><trkpt lat="44.090581486799046" lon="11.281188272809686"><ele>894.0</ele><time>2026-04-26T10:01:43Z</time></trkpt><trkpt lat="44.090709495694384" lon="11.28117741956102"><ele>894.5</ele><time>2026-04-26T10:01:44Z</time></trkpt><trkpt lat="44.090823968021645" lon="11.28109056155106"><ele>895.0</ele><time>2026-04-26T10:01:45Z</time></trkpt><trkpt lat="44.090928640791056" lon="11.280959761179574"><ele>895.5</ele><time>2026-04-26T10:01:46Z</time></trkpt><trkpt lat="44.09103347627647" lon="11.280810262570089"><ele>896.0</ele><time>2026-04-26T10:01:47Z</time></trkpt><trkpt lat="44.09115192839809" lon="11.280668935506965"><ele>892.6666666666667</ele><time>2026-04-26T10:01:48Z</time></trkpt><trkpt lat="44.09130119677897" lon="11.280565475352464"><ele>889.3333333333333</ele><time>2026-04-26T10:01:49Z</time></trkpt><trkpt lat="44.09145422356168" lon="11.280478077754463"><ele>886.0</ele><time>2026-04-26T10:01:50Z</time></trkpt><trkpt lat="44.09160419534608" lon="11.280392280106781"><ele>886.0</ele><time>2026-04-26T10:01:51Z</time></trkpt><trkpt lat="44.09174438034529" lon="11.280310424620943"><ele>886.0</ele><time>2026-04-26T10:01:52Z</time></trkpt><trkpt lat="44.09186886987122" lon="11.280214443250886"><ele>886.0</ele><time>2026-04-26T10:01:53Z</time></trkpt><trkpt lat="44.09200021270236" lon="11.280165593207348"><ele>886.0</ele><time>2026-04-26T10:01:54Z</time></trkpt><trkpt lat="44.09212400427684" lon="11.280093473664838"><ele>886.0</ele><time>2026-04-26T10:01:55Z</time></trkpt><trkpt lat="44.09222899762296" lon="11.279995767585465"><ele>886.0</ele><time>2026-04-26T10:01:56Z</time></trkpt><trkpt lat="44.092321523433206" lon="11.279895286860953"><ele>886.0</ele><time>2026-04-26T10:01:57Z</time></trkpt><trkpt lat="44.09239097347233" lon="11.279768878438274"><ele>886.0</ele><time>2026-04-26T10:01:58Z</time></trkpt><trkpt lat="44.09244184538377" lon="11.279619398779994"><ele>887.6666666666666</ele><time>2026-04-26T10:01:59Z</time></trkpt><trkpt lat="44.09248164549756" lon="11.279426974505038"><ele>889.3333333333333</ele><time>2026-04-26T10:02:00Z</time></trkpt><trkpt lat="44.09254399391522" lon="11.27918081711335"><ele>891.0</ele><time>2026-04-26T10:02:01Z</time></trkpt><trkpt lat="44.09257794623914" lon="11.278930980026121"><ele>891.0</ele><time>2026-04-26T10:02:02Z</time></trkpt><trkpt lat="44.09263820873574" lon="11.27872299685415"><ele>891.0</ele><time>2026-04-26T10:02:03Z</time></trkpt><trkpt lat="44.09271905558581" lon="11.27856143114043"><ele>891.0</ele><time>2026-04-26T10:02:04Z</time></trkpt><trkpt lat="44.092822905799444" lon="11.278440154409406"><ele>891.0</ele><time>2026-04-26T10:02:05Z</time></trkpt><trkpt lat="44.092952770008864" lon="11.278421275864105"><ele>891.0</ele><time>2026-04-26T10:02:06Z</time></trkpt><trkpt lat="44.09308513724907" lon="11.278384457820703"><ele>891.0</ele><time>2026-04-26T10:02:07Z</time></trkpt><trkpt lat="44.09322156143958" lon="11.278352536484517"><ele>891.0</ele><time>2026-04-26T10:02:08Z</time></trkpt><trkpt lat="44.093354295937345" lon="11.278306796780514"><ele>891.0</ele><time>2026-04-26T10:02:09Z</time></trkpt><trkpt lat="44.093478209899686" lon="11.278230414732505"><ele>893.0</ele><time>2026-04-26T10:02:10Z</time></trkpt><trkpt lat="44.0935920036812" lon="11.278110576692153"><ele>895.0</ele><time>2026-04-26T10:02:11Z</time></trkpt><trkpt lat="44.09369671806356" lon="11.277954337569028"><ele>897.0</ele><time>2026-04-26T10:02:12Z</time></trkpt><trkpt lat="44.09379098795362" lon="11.27776739070157"><ele>897.0</ele><time>2026-04-26T10:02:13Z</time></trkpt><trkpt lat="44.09387550130016" lon="11.277571235134529"><ele>897.0</ele><time>2026-04-26T10:02:14Z</time></trkpt><trkpt lat="44.09395186336512" lon="11.277378033864807"><ele>897.0</ele><time>2026-04-26T10:02:15Z</time></trkpt><trkpt lat="44.094021822736536" lon="11.277197662697848"><ele>898.75</ele><time>2026-04-26T10:02:16Z</time></trkpt><trkpt lat="44.09409771645273" lon="11.277048610489267"><ele>900.5</ele><time>2026-04-26T10:02:17Z</time></trkpt><trkpt lat="44.094143876936585" lon="11.276890807651057"><ele>902.25</ele><time>2026-04-26T10:02:18Z</time></trkpt><trkpt lat="44.0941660709549" lon="11.276712548262678"><ele>904.0</ele><time>2026-04-26T10:02:19Z</time></trkpt><trkpt lat="44.094239587557716" lon="11.276553217905159"><ele>904.0</ele><time>2026-04-26T10:02:20Z</time></trkpt><trkpt lat="44.09432519187363" lon="11.276400941470895"><ele>904.0</ele><time>2026-04-26T10:02:21Z</time></trkpt><trkpt lat="44.094404891071825" lon="11.276232486856443"><ele>904.0</ele><time>2026-04-26T10:02:22Z</time></trkpt><trkpt lat="44.09449594702475" lon="11.276032001153773"><ele>904.0</ele><time>2026-04-26T10:02:23Z</time></trkpt><trkpt lat="44.09458386245852" lon="11.275845552434388"><ele>904.0</ele><time>2026-04-26T10:02:24Z</time></trkpt><trkpt lat="44.094680557985654" lon="11.275678479144162"><ele>904.0</ele><time>2026-04-26T10:02:25Z</time></trkpt><trkpt lat="44.09479670926191" lon="11.275537564672897"><ele>907.6666666666666</ele><time>2026-04-26T10:02:25.999Z</time></trkpt><trkpt lat="44.09493855013166" lon="11.275459473389185"><ele>911.3333333333333</ele><time>2026-04-26T10:02:26.999Z</time></trkpt><trkpt lat="44.09508709763151" lon="11.275392935172764"><ele>915.0</ele><time>2026-04-26T10:02:27.999Z</time></trkpt><trkpt lat="44.09524082309553" lon="11.275324525901317"><ele>915.0</ele><time>2026-04-26T10:02:28.999Z</time></trkpt><trkpt lat="44.095405368745716" lon="11.275315366267513"><ele>915.0</ele><time>2026-04-26T10:02:29.999Z</time></trkpt><trkpt lat="44.09556902547658" lon="11.275341242142233"><ele>915.0</ele><time>2026-04-26T10:02:30.999Z</time></trkpt><trkpt lat="44.09572788173698" lon="11.275362539441465"><ele>916.3333333333333</ele><time>2026-04-26T10:02:31.999Z</time></trkpt><trkpt lat="44.095887205556934" lon="11.275356984793556"><ele>917.6666666666666</ele><time>2026-04-26T10:02:32.999Z</time></trkpt><trkpt lat="44.0960495745266" lon="11.275330744523972"><ele>919.0</ele><time>2026-04-26T10:02:33.999Z</time></trkpt><trkpt lat="44.09621078600845" lon="11.275291766439913"><ele>919.0</ele><time>2026-04-26T10:02:34.999Z</time></trkpt><trkpt lat="44.09637338411849" lon="11.275248842537852"><ele>919.0</ele><time>2026-04-26T10:02:35.999Z</time></trkpt><trkpt lat="44.09653760809893" lon="11.275202805670272"><ele>919.0</ele><time>2026-04-26T10:02:36.999Z</time></trkpt><trkpt lat="44.09669992150639" lon="11.275146530281273"><ele>919.6666666666666</ele><time>2026-04-26T10:02:37.999Z</time></trkpt><trkpt lat="44.09686262595519" lon="11.275071165269075"><ele>920.3333333333333</ele><time>2026-04-26T10:02:38.999Z</time></trkpt><trkpt lat="44.09702603869545" lon="11.274997650491235"><ele>921.0</ele><time>2026-04-26T10:02:39.999Z</time></trkpt><trkpt lat="44.09719402945426" lon="11.274971869097172"><ele>921.0</ele><time>2026-04-26T10:02:40.999Z</time></trkpt><trkpt lat="44.09736851934468" lon="11.275007687242866"><ele>921.0</ele><time>2026-04-26T10:02:41.999Z</time></trkpt><trkpt lat="44.09755595678108" lon="11.27503007114947"><ele>921.0</ele><time>2026-04-26T10:02:42.999Z</time></trkpt><trkpt lat="44.097746382898706" lon="11.275080553566559"><ele>918.6666666666667</ele><time>2026-04-26T10:02:43.999Z</time></trkpt><trkpt lat="44.09793208169946" lon="11.275149712817246"><ele>916.3333333333334</ele><time>2026-04-26T10:02:44.999Z</time></trkpt><trkpt lat="44.09810545075772" lon="11.275220265956309"><ele>914.0</ele><time>2026-04-26T10:02:45.999Z</time></trkpt><trkpt lat="44.09825872486741" lon="11.275276786168474"><ele>913.5</ele><time>2026-04-26T10:02:46.999Z</time></trkpt><trkpt lat="44.098387618100645" lon="11.275322560394091"><ele>913.0</ele><time>2026-04-26T10:02:47.999Z</time></trkpt><trkpt lat="44.09849629551087" lon="11.27534061856419"><ele>912.5</ele><time>2026-04-26T10:02:48.999Z</time></trkpt><trkpt lat="44.09860538955555" lon="11.275306533538684"><ele>912.0</ele><time>2026-04-26T10:02:49.999Z</time></trkpt><trkpt lat="44.09872116877521" lon="11.275218929307128"><ele>912.0</ele><time>2026-04-26T10:02:50.999Z</time></trkpt><trkpt lat="44.09884501764746" lon="11.275119987481458"><ele>912.0</ele><time>2026-04-26T10:02:51.999Z</time></trkpt><trkpt lat="44.098989796555344" lon="11.275092396242101"><ele>912.0</ele><time>2026-04-26T10:02:52.999Z</time></trkpt><trkpt lat="44.099156735314324" lon="11.275100393334142"><ele>909.3333333333333</ele><time>2026-04-26T10:02:54Z</time></trkpt><trkpt lat="44.09932290533957" lon="11.275106760914658"><ele>906.6666666666666</ele><time>2026-04-26T10:02:55Z</time></trkpt><trkpt lat="44.0994804860513" lon="11.275126387736263"><ele>904.0</ele><time>2026-04-26T10:02:56Z</time></trkpt><trkpt lat="44.09963987582235" lon="11.275112393447586"><ele>904.0</ele><time>2026-04-26T10:02:57Z</time></trkpt><trkpt lat="44.09979161799424" lon="11.27507926089413"><ele>904.0</ele><time>2026-04-26T10:02:58Z</time></trkpt><trkpt lat="44.09994141927003" lon="11.275063199764194"><ele>904.0</ele><time>2026-04-26T10:02:59Z</time></trkpt><trkpt lat="44.10008830325355" lon="11.275124108114493"><ele>902.6666666666666</ele><time>2026-04-26T10:03:00Z</time></trkpt><trkpt lat="44.10022763555541" lon="11.275221318256392"><ele>901.3333333333333</ele><time>2026-04-26T10:03:01Z</time></trkpt><trkpt lat="44.10034178756744" lon="11.2753698708206"><ele>900.0</ele><time>2026-04-26T10:03:02Z</time></trkpt><trkpt lat="44.100456813725245" lon="11.275539381063936"><ele>898.3333333333333</ele><time>2026-04-26T10:03:03Z</time></trkpt><trkpt lat="44.10057344063224" lon="11.275689478903093"><ele>896.6666666666666</ele><time>2026-04-26T10:03:04Z</time></trkpt><trkpt lat="44.10067201887419" lon="11.275851737465699"><ele>895.0</ele><time>2026-04-26T10:03:05Z</time></trkpt><trkpt lat="44.10078146993663" lon="11.275984494564545"><ele>895.0</ele><time>2026-04-26T10:03:06Z</time></trkpt><trkpt lat="44.100905066840824" lon="11.276072447472554"><ele>895.0</ele><time>2026-04-26T10:03:07Z</time></trkpt><trkpt lat="44.101030982924115" lon="11.276123086518645"><ele>895.0</ele><time>2026-04-26T10:03:08Z</time></trkpt><trkpt lat="44.10116118456748" lon="11.27614279688042"><ele>895.0</ele><time>2026-04-26T10:03:09Z</time></trkpt><trkpt lat="44.10130104405795" lon="11.276125351053217"><ele>895.0</ele><time>2026-04-26T10:03:10Z</time></trkpt><trkpt lat="44.101440080521385" lon="11.276058005410935"><ele>895.0</ele><time>2026-04-26T10:03:11Z</time></trkpt><trkpt lat="44.101566176598425" lon="11.275972443320002"><ele>895.0</ele><time>2026-04-26T10:03:12Z</time></trkpt><trkpt lat="44.10169178554391" lon="11.275965550198412"><ele>895.0</ele><time>2026-04-26T10:03:13Z</time></trkpt><trkpt lat="44.10180245474532" lon="11.27608766531973"><ele>895.6666666666666</ele><time>2026-04-26T10:03:14Z</time></trkpt><trkpt lat="44.10191563655513" lon="11.276220869487531"><ele>896.3333333333333</ele><time>2026-04-26T10:03:15Z</time></trkpt><trkpt lat="44.10201172418677" lon="11.276396393875"><ele>897.0</ele><time>2026-04-26T10:03:16Z</time></trkpt><trkpt lat="44.1020830825277" lon="11.276600384120092"><ele>893.6666666666667</ele><time>2026-04-26T10:03:17Z</time></trkpt><trkpt lat="44.102152375336274" lon="11.276817452544341"><ele>890.3333333333334</ele><time>2026-04-26T10:03:18Z</time></trkpt><trkpt lat="44.102204400009455" lon="11.277051729726445"><ele>887.0</ele><time>2026-04-26T10:03:19Z</time></trkpt><trkpt lat="44.10222835140538" lon="11.277295881253675"><ele>884.25</ele><time>2026-04-26T10:03:20Z</time></trkpt><trkpt lat="44.10223363920755" lon="11.277530913063217"><ele>881.5</ele><time>2026-04-26T10:03:21Z</time></trkpt><trkpt lat="44.10225373930359" lon="11.277746523983925"><ele>878.75</ele><time>2026-04-26T10:03:22Z</time></trkpt><trkpt lat="44.10225817299117" lon="11.277916406136315"><ele>876.0</ele><time>2026-04-26T10:03:23Z</time></trkpt><trkpt lat="44.10232115548923" lon="11.278078783888425"><ele>878.3333333333333</ele><time>2026-04-26T10:03:24Z</time></trkpt><trkpt lat="44.10242671411662" lon="11.27822213051336"><ele>880.6666666666666</ele><time>2026-04-26T10:03:25Z</time></trkpt><trkpt lat="44.10257212597877" lon="11.27833932957959"><ele>883.0</ele><time>2026-04-26T10:03:26Z</time></trkpt><trkpt lat="44.10272150113527" lon="11.27846296713499"><ele>883.0</ele><time>2026-04-26T10:03:27Z</time></trkpt><trkpt lat="44.102878782625346" lon="11.278599001397016"><ele>883.0</ele><time>2026-04-26T10:03:28Z</time></trkpt><trkpt lat="44.10303537662225" lon="11.278731987542303"><ele>883.0</ele><time>2026-04-26T10:03:29Z</time></trkpt><trkpt lat="44.10318906772777" lon="11.278880625152278"><ele>882.6666666666666</ele><time>2026-04-26T10:03:30Z</time></trkpt><trkpt lat="44.10332525695445" lon="11.279066475003997"><ele>882.3333333333333</ele><time>2026-04-26T10:03:31Z</time></trkpt><trkpt lat="44.10345008682337" lon="11.279273002785253"><ele>882.0</ele><time>2026-04-26T10:03:32Z</time></trkpt><trkpt lat="44.10356250390496" lon="11.279487127106004"><ele>882.0</ele><time>2026-04-26T10:03:33Z</time></trkpt><trkpt lat="44.10367734610959" lon="11.279683332692134"><ele>882.0</ele><time>2026-04-26T10:03:34Z</time></trkpt><trkpt lat="44.103803098630934" lon="11.27987040005592"><ele>882.0</ele><time>2026-04-26T10:03:35Z</time></trkpt><trkpt lat="44.10394179622862" lon="11.280057319911913"><ele>882.6666666666667</ele><time>2026-04-26T10:03:36Z</time></trkpt><trkpt lat="44.10408708264235" lon="11.280249505879885"><ele>883.3333333333334</ele><time>2026-04-26T10:03:37Z</time></trkpt><trkpt lat="44.10423641287509" lon="11.280436064737827"><ele>884.0</ele><time>2026-04-26T10:03:38Z</time></trkpt><trkpt lat="44.10438744645831" lon="11.280624346843227"><ele>882.0</ele><time>2026-04-26T10:03:39Z</time></trkpt><trkpt lat="44.1045364935435" lon="11.280816617303005"><ele>880.0</ele><time>2026-04-26T10:03:40Z</time></trkpt><trkpt lat="44.10468564489851" lon="11.281010314491812"><ele>878.0</ele><time>2026-04-26T10:03:41Z</time></trkpt><trkpt lat="44.1048363308671" lon="11.281204255748987"><ele>878.6666666666667</ele><time>2026-04-26T10:03:42Z</time></trkpt><trkpt lat="44.104987844218776" lon="11.281399901593947"><ele>879.3333333333333</ele><time>2026-04-26T10:03:43Z</time></trkpt><trkpt lat="44.105141926227446" lon="11.281606403026759"><ele>880.0</ele><time>2026-04-26T10:03:44Z</time></trkpt><trkpt lat="44.10528732847538" lon="11.28180683481875"><ele>880.0</ele><time>2026-04-26T10:03:45Z</time></trkpt><trkpt lat="44.10542957855859" lon="11.28200355224994"><ele>880.0</ele><time>2026-04-26T10:03:46Z</time></trkpt><trkpt lat="44.10556412015202" lon="11.28220083959084"><ele>880.0</ele><time>2026-04-26T10:03:46.999Z</time></trkpt><trkpt lat="44.105692853436" lon="11.28239779085076"><ele>879.6666666666666</ele><time>2026-04-26T10:03:47.999Z</time></trkpt><trkpt lat="44.10581586404731" lon="11.282592413103483"><ele>879.3333333333333</ele><time>2026-04-26T10:03:48.999Z</time></trkpt><trkpt lat="44.10593071566296" lon="11.282784951696515"><ele>879.0</ele><time>2026-04-26T10:03:49.999Z</time></trkpt><trkpt lat="44.10603894618344" lon="11.28297239057866"><ele>875.6666666666667</ele><time>2026-04-26T10:03:50.999Z</time></trkpt><trkpt lat="44.10614058419016" lon="11.283151517394229"><ele>872.3333333333334</ele><time>2026-04-26T10:03:51.999Z</time></trkpt><trkpt lat="44.10624146873212" lon="11.283324243505024"><ele>869.0</ele><time>2026-04-26T10:03:52.999Z</time></trkpt><trkpt lat="44.10635035090642" lon="11.283479072190117"><ele>869.0</ele><time>2026-04-26T10:03:53.999Z</time></trkpt><trkpt lat="44.10647375303249" lon="11.283616903951089"><ele>869.0</ele><time>2026-04-26T10:03:54.999Z</time></trkpt><trkpt lat="44.1066129723966" lon="11.283726031464376"><ele>869.0</ele><time>2026-04-26T10:03:55.999Z</time></trkpt><trkpt lat="44.106762374663745" lon="11.283811424608817"><ele>871.0</ele><time>2026-04-26T10:03:56.999Z</time></trkpt><trkpt lat="44.10692173497425" lon="11.28385204123388"><ele>873.0</ele><time>2026-04-26T10:03:57.999Z</time></trkpt><trkpt lat="44.107094303892964" lon="11.283857763628875"><ele>875.0</ele><time>2026-04-26T10:03:58.999Z</time></trkpt><trkpt lat="44.107279281383754" lon="11.283841899992742"><ele>875.0</ele><time>2026-04-26T10:03:59.999Z</time></trkpt><trkpt lat="44.107463127263934" lon="11.283839449500348"><ele>875.0</ele><time>2026-04-26T10:04:00.999Z</time></trkpt><trkpt lat="44.107643430527666" lon="11.283829245252921"><ele>875.0</ele><time>2026-04-26T10:04:01.999Z</time></trkpt><trkpt lat="44.10780980815618" lon="11.283804247726327"><ele>875.0</ele><time>2026-04-26T10:04:02.999Z</time></trkpt><trkpt lat="44.107965476106955" lon="11.283790292598145"><ele>875.0</ele><time>2026-04-26T10:04:03.999Z</time></trkpt><trkpt lat="44.10812594008726" lon="11.283766537953602"><ele>875.0</ele><time>2026-04-26T10:04:04.999Z</time></trkpt><trkpt lat="44.10827503394069" lon="11.283692614667842"><ele>871.3333333333334</ele><time>2026-04-26T10:04:05.999Z</time></trkpt><trkpt lat="44.108423829537564" lon="11.283606376219053"><ele>867.6666666666667</ele><time>2026-04-26T10:04:06.999Z</time></trkpt><trkpt lat="44.10857302128151" lon="11.283525156515386"><ele>864.0</ele><time>2026-04-26T10:04:07.999Z</time></trkpt><trkpt lat="44.10873276551772" lon="11.283503859229443"><ele>864.0</ele><time>2026-04-26T10:04:08.999Z</time></trkpt><trkpt lat="44.10889612912572" lon="11.283500884873886"><ele>864.0</ele><time>2026-04-26T10:04:09.999Z</time></trkpt><trkpt lat="44.10906040527414" lon="11.283522670751342"><ele>864.0</ele><time>2026-04-26T10:04:10.999Z</time></trkpt><trkpt lat="44.10921974178554" lon="11.283535922222931"><ele>863.0</ele><time>2026-04-26T10:04:11.999Z</time></trkpt><trkpt lat="44.109369198148386" lon="11.283577421840027"><ele>862.0</ele><time>2026-04-26T10:04:12.999Z</time></trkpt><trkpt lat="44.109503546421536" lon="11.283607582806814"><ele>861.0</ele><time>2026-04-26T10:04:13.999Z</time></trkpt><trkpt lat="44.10963591216571" lon="11.283646013999117"><ele>860.0</ele><time>2026-04-26T10:04:14.999Z</time></trkpt><trkpt lat="44.109747267666535" lon="11.283721503087651"><ele>860.0</ele><time>2026-04-26T10:04:15.999Z</time></trkpt><trkpt lat="44.1098337102049" lon="11.28378165683491"><ele>860.0</ele><time>2026-04-26T10:04:16.999Z</time></trkpt><trkpt lat="44.109928988914476" lon="11.283857118832083"><ele>860.0</ele><time>2026-04-26T10:04:17.999Z</time></trkpt><trkpt lat="44.11004126949431" lon="11.283932539677263"><ele>860.0</ele><time>2026-04-26T10:04:18.999Z</time></trkpt><trkpt lat="44.11015777077597" lon="11.284026741306183"><ele>857.0</ele><time>2026-04-26T10:04:19.999Z</time></trkpt><trkpt lat="44.11028281624084" lon="11.284133930271961"><ele>854.0</ele><time>2026-04-26T10:04:20.999Z</time></trkpt><trkpt lat="44.110419817655504" lon="11.284231307857373"><ele>851.0</ele><time>2026-04-26T10:04:21.999Z</time></trkpt><trkpt lat="44.11055635988752" lon="11.284343228640688"><ele>851.0</ele><time>2026-04-26T10:04:22.999Z</time></trkpt><trkpt lat="44.110693560718445" lon="11.284448245403711"><ele>851.0</ele><time>2026-04-26T10:04:23.999Z</time></trkpt><trkpt lat="44.110816654504525" lon="11.284550852962562"><ele>851.0</ele><time>2026-04-26T10:04:24.999Z</time></trkpt><trkpt lat="44.110935403318315" lon="11.284663343920004"><ele>851.0</ele><time>2026-04-26T10:04:25.999Z</time></trkpt><trkpt lat="44.11105885925963" lon="11.284766147727376"><ele>851.25</ele><time>2026-04-26T10:04:26.999Z</time></trkpt><trkpt lat="44.11118222493288" lon="11.284864717400174"><ele>851.5</ele><time>2026-04-26T10:04:27.999Z</time></trkpt><trkpt lat="44.111311452346264" lon="11.284959409003584"><ele>851.75</ele><time>2026-04-26T10:04:28.999Z</time></trkpt><trkpt lat="44.11145336654592" lon="11.285027193677987"><ele>852.0</ele><time>2026-04-26T10:04:29.999Z</time></trkpt><trkpt lat="44.11160952994166" lon="11.285069400536994"><ele>852.0</ele><time>2026-04-26T10:04:30.999Z</time></trkpt><trkpt lat="44.11177641247293" lon="11.285080404069607"><ele>852.0</ele><time>2026-04-26T10:04:31.999Z</time></trkpt><trkpt lat="44.11194892029657" lon="11.28508971125998"><ele>852.0</ele><time>2026-04-26T10:04:32.999Z</time></trkpt><trkpt lat="44.112125520745856" lon="11.285104418181207"><ele>852.0</ele><time>2026-04-26T10:04:33.999Z</time></trkpt><trkpt lat="44.11229884111636" lon="11.285129716915602"><ele>852.0</ele><time>2026-04-26T10:04:34.999Z</time></trkpt><trkpt lat="44.11246712121809" lon="11.2851771704382"><ele>852.0</ele><time>2026-04-26T10:04:35.999Z</time></trkpt><trkpt lat="44.11262529149585" lon="11.285292024900492"><ele>851.3333333333333</ele><time>2026-04-26T10:04:36.999Z</time></trkpt><trkpt lat="44.112797897589274" lon="11.285391689704467"><ele>850.6666666666666</ele><time>2026-04-26T10:04:37.999Z</time></trkpt><trkpt lat="44.11296841345198" lon="11.285516575382774"><ele>850.0</ele><time>2026-04-26T10:04:38.999Z</time></trkpt><trkpt lat="44.113136947069165" lon="11.285640750886305"><ele>850.3333333333333</ele><time>2026-04-26T10:04:39.999Z</time></trkpt><trkpt lat="44.113308589121615" lon="11.285755319061204"><ele>850.6666666666667</ele><time>2026-04-26T10:04:40.999Z</time></trkpt><trkpt lat="44.11348114586834" lon="11.285875460278872"><ele>851.0</ele><time>2026-04-26T10:04:41.999Z</time></trkpt><trkpt lat="44.11365134624176" lon="11.285995991132983"><ele>851.0</ele><time>2026-04-26T10:04:42.999Z</time></trkpt><trkpt lat="44.1138230835799" lon="11.28611499832305"><ele>851.0</ele><time>2026-04-26T10:04:43.999Z</time></trkpt><trkpt lat="44.11399570154827" lon="11.286222479246504"><ele>851.0</ele><time>2026-04-26T10:04:44.999Z</time></trkpt><trkpt lat="44.11416441585508" lon="11.286319821610086"><ele>853.3333333333334</ele><time>2026-04-26T10:04:45.999Z</time></trkpt><trkpt lat="44.11435724513815" lon="11.286354931751164"><ele>855.6666666666667</ele><time>2026-04-26T10:04:46.999Z</time></trkpt><trkpt lat="44.11453169792781" lon="11.286422991274874"><ele>858.0</ele><time>2026-04-26T10:04:47.999Z</time></trkpt><trkpt lat="44.114706509117056" lon="11.28647220648632"><ele>858.0</ele><time>2026-04-26T10:04:48.999Z</time></trkpt><trkpt lat="44.1148691780602" lon="11.28651741813043"><ele>858.0</ele><time>2026-04-26T10:04:49.999Z</time></trkpt><trkpt lat="44.11501300648252" lon="11.286645181433094"><ele>858.0</ele><time>2026-04-26T10:04:50.999Z</time></trkpt><trkpt lat="44.11515942409067" lon="11.286774792268446"><ele>857.0</ele><time>2026-04-26T10:04:51.999Z</time></trkpt><trkpt lat="44.115259086109745" lon="11.286979131614007"><ele>856.0</ele><time>2026-04-26T10:04:52.999Z</time></trkpt><trkpt lat="44.115346508150026" lon="11.287203566517407"><ele>855.0</ele><time>2026-04-26T10:04:53.999Z</time></trkpt><trkpt lat="44.115425224815446" lon="11.287419530644971"><ele>855.0</ele><time>2026-04-26T10:04:54.999Z</time></trkpt><trkpt lat="44.11547169263406" lon="11.287630694146426"><ele>855.0</ele><time>2026-04-26T10:04:55.999Z</time></trkpt><trkpt lat="44.115524279657485" lon="11.28781941404562"><ele>855.0</ele><time>2026-04-26T10:04:56.999Z</time></trkpt><trkpt lat="44.115590172512334" lon="11.288000210738367"><ele>855.0</ele><time>2026-04-26T10:04:57.999Z</time></trkpt><trkpt lat="44.11568503766621" lon="11.288159163405474"><ele>857.3333333333333</ele><time>2026-04-26T10:04:59Z</time></trkpt><trkpt lat="44.11580226103064" lon="11.288288364665236"><ele>859.6666666666666</ele><time>2026-04-26T10:05:00Z</time></trkpt><trkpt lat="44.11593920065728" lon="11.288383987098753"><ele>862.0</ele><time>2026-04-26T10:05:01Z</time></trkpt><trkpt lat="44.11609295833862" lon="11.28841847459713"><ele>862.0</ele><time>2026-04-26T10:05:02Z</time></trkpt><trkpt lat="44.11623117917499" lon="11.288395466274341"><ele>862.0</ele><time>2026-04-26T10:05:03Z</time></trkpt><trkpt lat="44.11635288600349" lon="11.288309898730617"><ele>862.0</ele><time>2026-04-26T10:05:04Z</time></trkpt><trkpt lat="44.11646062493618" lon="11.288166130268433"><ele>862.0</ele><time>2026-04-26T10:05:05Z</time></trkpt><trkpt lat="44.11653987981759" lon="11.287968385914802"><ele>863.0</ele><time>2026-04-26T10:05:06Z</time></trkpt><trkpt lat="44.11659576135976" lon="11.287745238969691"><ele>864.0</ele><time>2026-04-26T10:05:07Z</time></trkpt><trkpt lat="44.116674033086355" lon="11.287534222931562"><ele>865.0</ele><time>2026-04-26T10:05:08Z</time></trkpt><trkpt lat="44.11674613489468" lon="11.287325173779546"><ele>868.25</ele><time>2026-04-26T10:05:09Z</time></trkpt><trkpt lat="44.116810871477185" lon="11.28713263582757"><ele>871.5</ele><time>2026-04-26T10:05:10Z</time></trkpt><trkpt lat="44.11687046236382" lon="11.286966083323792"><ele>874.75</ele><time>2026-04-26T10:05:11Z</time></trkpt><trkpt lat="44.116939954618815" lon="11.286828090768468"><ele>878.0</ele><time>2026-04-26T10:05:12Z</time></trkpt><trkpt lat="44.1170272942931" lon="11.28673035062174"><ele>878.0</ele><time>2026-04-26T10:05:13Z</time></trkpt><trkpt lat="44.11714203523254" lon="11.286692623831193"><ele>878.0</ele><time>2026-04-26T10:05:14Z</time></trkpt><trkpt lat="44.11726047039373" lon="11.286702514961421"><ele>878.0</ele><time>2026-04-26T10:05:15Z</time></trkpt><trkpt lat="44.117376936794784" lon="11.286779386782406"><ele>878.0</ele><time>2026-04-26T10:05:16Z</time></trkpt><trkpt lat="44.117457627231964" lon="11.28694527618859"><ele>873.6666666666667</ele><time>2026-04-26T10:05:17Z</time></trkpt><trkpt lat="44.11752800843719" lon="11.287135529878462"><ele>869.3333333333333</ele><time>2026-04-26T10:05:18Z</time></trkpt><trkpt lat="44.117559005526786" lon="11.287348548418889"><ele>865.0</ele><time>2026-04-26T10:05:19Z</time></trkpt><trkpt lat="44.117578495966804" lon="11.287560523149072"><ele>863.3333333333333</ele><time>2026-04-26T10:05:20Z</time></trkpt><trkpt lat="44.11759895281444" lon="11.287768695960395"><ele>861.6666666666667</ele><time>2026-04-26T10:05:21Z</time></trkpt><trkpt lat="44.11763807469113" lon="11.287974555107427"><ele>860.0</ele><time>2026-04-26T10:05:22Z</time></trkpt><trkpt lat="44.11770861107504" lon="11.288166140265039"><ele>859.6666666666667</ele><time>2026-04-26T10:05:23Z</time></trkpt><trkpt lat="44.11780032849061" lon="11.288330864988906"><ele>859.3333333333333</ele><time>2026-04-26T10:05:24Z</time></trkpt><trkpt lat="44.11791976369671" lon="11.288450952525176"><ele>859.0</ele><time>2026-04-26T10:05:25Z</time></trkpt><trkpt lat="44.11805472936283" lon="11.288563361491029"><ele>859.0</ele><time>2026-04-26T10:05:26Z</time></trkpt><trkpt lat="44.11817896835956" lon="11.28867093331273"><ele>859.0</ele><time>2026-04-26T10:05:27Z</time></trkpt><trkpt lat="44.118299717340314" lon="11.288796004734214"><ele>859.0</ele><time>2026-04-26T10:05:28Z</time></trkpt><trkpt lat="44.11843071850087" lon="11.288883913188009"><ele>859.0</ele><time>2026-04-26T10:05:29Z</time></trkpt><trkpt lat="44.11854865513532" lon="11.288990922339785"><ele>861.5</ele><time>2026-04-26T10:05:30Z</time></trkpt><trkpt lat="44.11866572856491" lon="11.289094312407885"><ele>864.0</ele><time>2026-04-26T10:05:31Z</time></trkpt><trkpt lat="44.118779085539096" lon="11.289194985894573"><ele>866.5</ele><time>2026-04-26T10:05:32Z</time></trkpt><trkpt lat="44.11888414017158" lon="11.289280049882981"><ele>869.0</ele><time>2026-04-26T10:05:33Z</time></trkpt><trkpt lat="44.1189848590817" lon="11.289393582452984"><ele>869.25</ele><time>2026-04-26T10:05:34Z</time></trkpt><trkpt lat="44.119074074251" lon="11.289493555104366"><ele>869.5</ele><time>2026-04-26T10:05:35Z</time></trkpt><trkpt lat="44.11914177431745" lon="11.289626085506244"><ele>869.75</ele><time>2026-04-26T10:05:36Z</time></trkpt><trkpt lat="44.119165068629066" lon="11.28981492502308"><ele>870.0</ele><time>2026-04-26T10:05:37Z</time></trkpt><trkpt lat="44.11920317542666" lon="11.290024406442692"><ele>870.0</ele><time>2026-04-26T10:05:38Z</time></trkpt><trkpt lat="44.11920197158207" lon="11.29025997856552"><ele>870.0</ele><time>2026-04-26T10:05:39Z</time></trkpt><trkpt lat="44.11919555441083" lon="11.290507918769608"><ele>870.0</ele><time>2026-04-26T10:05:40Z</time></trkpt><trkpt lat="44.11919284626328" lon="11.290757020296848"><ele>868.0</ele><time>2026-04-26T10:05:41Z</time></trkpt><trkpt lat="44.11918679046056" lon="11.290999588908008"><ele>866.0</ele><time>2026-04-26T10:05:42Z</time></trkpt><trkpt lat="44.11918306077293" lon="11.291229825557595"><ele>864.0</ele><time>2026-04-26T10:05:43Z</time></trkpt><trkpt lat="44.11917978677619" lon="11.291460080827934"><ele>863.3333333333333</ele><time>2026-04-26T10:05:44Z</time></trkpt><trkpt lat="44.119184745101585" lon="11.291684349064731"><ele>862.6666666666666</ele><time>2026-04-26T10:05:45Z</time></trkpt><trkpt lat="44.119206698944126" lon="11.291893922079934"><ele>862.0</ele><time>2026-04-26T10:05:46Z</time></trkpt><trkpt lat="44.119247416550415" lon="11.292095193099087"><ele>861.5</ele><time>2026-04-26T10:05:47Z</time></trkpt><trkpt lat="44.11930601924733" lon="11.292276991099676"><ele>861.0</ele><time>2026-04-26T10:05:48Z</time></trkpt><trkpt lat="44.11938546048488" lon="11.292440603763099"><ele>860.5</ele><time>2026-04-26T10:05:49Z</time></trkpt><trkpt lat="44.11948198219047" lon="11.292590896111086"><ele>860.0</ele><time>2026-04-26T10:05:50Z</time></trkpt><trkpt lat="44.119608282796435" lon="11.292719759101901"><ele>860.0</ele><time>2026-04-26T10:05:51Z</time></trkpt><trkpt lat="44.119740156402024" lon="11.292853134265275"><ele>860.0</ele><time>2026-04-26T10:05:52Z</time></trkpt><trkpt lat="44.119872504591974" lon="11.293002292525573"><ele>860.0</ele><time>2026-04-26T10:05:53Z</time></trkpt><trkpt lat="44.120010928609275" lon="11.293162190873707"><ele>860.3333333333334</ele><time>2026-04-26T10:05:54Z</time></trkpt><trkpt lat="44.12015100060582" lon="11.29332433526088"><ele>860.6666666666667</ele><time>2026-04-26T10:05:55Z</time></trkpt><trkpt lat="44.12028603271353" lon="11.293495604260478"><ele>861.0</ele><time>2026-04-26T10:05:56Z</time></trkpt><trkpt lat="44.12043333614427" lon="11.293661176561221"><ele>861.0</ele><time>2026-04-26T10:05:57Z</time></trkpt><trkpt lat="44.12056817082531" lon="11.293837115821281"><ele>861.0</ele><time>2026-04-26T10:05:58Z</time></trkpt><trkpt lat="44.12068462700907" lon="11.294032549165333"><ele>861.0</ele><time>2026-04-26T10:05:59Z</time></trkpt><trkpt lat="44.12076462862638" lon="11.29425651392842"><ele>862.6666666666667</ele><time>2026-04-26T10:06:00Z</time></trkpt><trkpt lat="44.12085374946594" lon="11.294465335357119"><ele>864.3333333333334</ele><time>2026-04-26T10:06:01Z</time></trkpt><trkpt lat="44.120925190663435" lon="11.294677115804841"><ele>866.0</ele><time>2026-04-26T10:06:02Z</time></trkpt><trkpt lat="44.121012814181135" lon="11.294866984805616"><ele>866.0</ele><time>2026-04-26T10:06:03Z</time></trkpt><trkpt lat="44.12111368524566" lon="11.295043285678151"><ele>866.0</ele><time>2026-04-26T10:06:04Z</time></trkpt><trkpt lat="44.121213831763555" lon="11.295216077846614"><ele>866.0</ele><time>2026-04-26T10:06:05Z</time></trkpt><trkpt lat="44.12130718817772" lon="11.295390183858595"><ele>866.0</ele><time>2026-04-26T10:06:06Z</time></trkpt><trkpt lat="44.121395083431565" lon="11.29555729729313"><ele>866.0</ele><time>2026-04-26T10:06:07Z</time></trkpt><trkpt lat="44.12149692472908" lon="11.295697505908196"><ele>866.0</ele><time>2026-04-26T10:06:08Z</time></trkpt><trkpt lat="44.12161899259383" lon="11.295796092772157"><ele>866.0</ele><time>2026-04-26T10:06:09Z</time></trkpt><trkpt lat="44.121751120877896" lon="11.295854410909069"><ele>870.25</ele><time>2026-04-26T10:06:10Z</time></trkpt><trkpt lat="44.1218578285975" lon="11.295951518370718"><ele>874.5</ele><time>2026-04-26T10:06:11Z</time></trkpt><trkpt lat="44.121954890751276" lon="11.296062804810273"><ele>878.75</ele><time>2026-04-26T10:06:12Z</time></trkpt><trkpt lat="44.12199998890444" lon="11.296250796033041"><ele>883.0</ele><time>2026-04-26T10:06:13Z</time></trkpt><trkpt lat="44.12201158273478" lon="11.296448264587644"><ele>883.0</ele><time>2026-04-26T10:06:14Z</time></trkpt><trkpt lat="44.12200250459167" lon="11.296667419819327"><ele>883.0</ele><time>2026-04-26T10:06:15Z</time></trkpt><trkpt lat="44.12200661852398" lon="11.29689372717094"><ele>883.0</ele><time>2026-04-26T10:06:16Z</time></trkpt><trkpt lat="44.121989277731146" lon="11.297114368283376"><ele>884.0</ele><time>2026-04-26T10:06:17Z</time></trkpt><trkpt lat="44.121978490890626" lon="11.297345509738108"><ele>885.0</ele><time>2026-04-26T10:06:18Z</time></trkpt><trkpt lat="44.1219675769654" lon="11.29756914462518"><ele>886.0</ele><time>2026-04-26T10:06:19Z</time></trkpt><trkpt lat="44.121957708370644" lon="11.297797945848338"><ele>886.0</ele><time>2026-04-26T10:06:20Z</time></trkpt><trkpt lat="44.121947933548725" lon="11.298026803611807"><ele>886.0</ele><time>2026-04-26T10:06:20.999Z</time></trkpt><trkpt lat="44.12195271010855" lon="11.298258829624817"><ele>886.0</ele><time>2026-04-26T10:06:21.999Z</time></trkpt><trkpt lat="44.12198266553818" lon="11.298488461727613"><ele>885.6666666666666</ele><time>2026-04-26T10:06:22.999Z</time></trkpt><trkpt lat="44.12203726093882" lon="11.298713453558655"><ele>885.3333333333333</ele><time>2026-04-26T10:06:23.999Z</time></trkpt><trkpt lat="44.12211344459185" lon="11.298938385081957"><ele>885.0</ele><time>2026-04-26T10:06:24.999Z</time></trkpt><trkpt lat="44.12220863897417" lon="11.299159800616447"><ele>884.3333333333333</ele><time>2026-04-26T10:06:25.999Z</time></trkpt><trkpt lat="44.12230253278416" lon="11.299376892228327"><ele>883.6666666666666</ele><time>2026-04-26T10:06:26.999Z</time></trkpt><trkpt lat="44.12239368521259" lon="11.299584011618943"><ele>883.0</ele><time>2026-04-26T10:06:27.999Z</time></trkpt><trkpt lat="44.122476934865105" lon="11.29979689501253"><ele>888.3333333333333</ele><time>2026-04-26T10:06:28.999Z</time></trkpt><trkpt lat="44.12255929731238" lon="11.300006358743731"><ele>893.6666666666667</ele><time>2026-04-26T10:06:29.999Z</time></trkpt><trkpt lat="44.12264336912162" lon="11.300206859689569"><ele>899.0</ele><time>2026-04-26T10:06:30.999Z</time></trkpt><trkpt lat="44.12272329555381" lon="11.300388033924946"><ele>899.0</ele><time>2026-04-26T10:06:31.999Z</time></trkpt><trkpt lat="44.12281557413494" lon="11.300559167831588"><ele>899.0</ele><time>2026-04-26T10:06:32.999Z</time></trkpt><trkpt lat="44.12293546941311" lon="11.300687304689493"><ele>899.0</ele><time>2026-04-26T10:06:33.999Z</time></trkpt><trkpt lat="44.12308460536323" lon="11.300763502886321"><ele>904.0</ele><time>2026-04-26T10:06:34.999Z</time></trkpt><trkpt lat="44.12324775385358" lon="11.300803649776743"><ele>909.0</ele><time>2026-04-26T10:06:35.999Z</time></trkpt><trkpt lat="44.12341515438385" lon="11.300813768490523"><ele>914.0</ele><time>2026-04-26T10:06:36.999Z</time></trkpt><trkpt lat="44.12358173775164" lon="11.300821816251446"><ele>914.0</ele><time>2026-04-26T10:06:37.999Z</time></trkpt><trkpt lat="44.12374208231868" lon="11.30085414047918"><ele>914.0</ele><time>2026-04-26T10:06:38.999Z</time></trkpt><trkpt lat="44.12390451413819" lon="11.300869508596959"><ele>914.0</ele><time>2026-04-26T10:06:39.999Z</time></trkpt><trkpt lat="44.1240630033674" lon="11.300848542764912"><ele>913.6666666666667</ele><time>2026-04-26T10:06:40.999Z</time></trkpt><trkpt lat="44.12421835861122" lon="11.3007912233428"><ele>913.3333333333333</ele><time>2026-04-26T10:06:41.999Z</time></trkpt><trkpt lat="44.12437600935805" lon="11.300716878525588"><ele>913.0</ele><time>2026-04-26T10:06:42.999Z</time></trkpt><trkpt lat="44.12453945242867" lon="11.300642553962927"><ele>913.0</ele><time>2026-04-26T10:06:43.999Z</time></trkpt><trkpt lat="44.12471170186294" lon="11.300585755981977"><ele>913.0</ele><time>2026-04-26T10:06:44.999Z</time></trkpt><trkpt lat="44.124887917497446" lon="11.300587977474054"><ele>913.0</ele><time>2026-04-26T10:06:45.999Z</time></trkpt><trkpt lat="44.125070704317594" lon="11.300610263093203"><ele>912.6666666666666</ele><time>2026-04-26T10:06:46.999Z</time></trkpt><trkpt lat="44.125257352100675" lon="11.300631129147686"><ele>912.3333333333333</ele><time>2026-04-26T10:06:47.999Z</time></trkpt><trkpt lat="44.12544555372379" lon="11.300642674165648"><ele>912.0</ele><time>2026-04-26T10:06:48.999Z</time></trkpt><trkpt lat="44.12563560354359" lon="11.30066722374812"><ele>914.6666666666667</ele><time>2026-04-26T10:06:49.999Z</time></trkpt><trkpt lat="44.125828256907" lon="11.300687072922207"><ele>917.3333333333334</ele><time>2026-04-26T10:06:50.999Z</time></trkpt><trkpt lat="44.12601773612814" lon="11.300706493651806"><ele>920.0</ele><time>2026-04-26T10:06:51.999Z</time></trkpt><trkpt lat="44.12619815176005" lon="11.300728676967497"><ele>920.0</ele><time>2026-04-26T10:06:52.999Z</time></trkpt><trkpt lat="44.12637073814139" lon="11.300802231817533"><ele>920.0</ele><time>2026-04-26T10:06:53.999Z</time></trkpt><trkpt lat="44.12653787100909" lon="11.300901229657157"><ele>920.0</ele><time>2026-04-26T10:06:54.999Z</time></trkpt><trkpt lat="44.126697960424124" lon="11.30102248872681"><ele>918.6666666666667</ele><time>2026-04-26T10:06:55.999Z</time></trkpt><trkpt lat="44.1268491738322" lon="11.301165504373552"><ele>917.3333333333333</ele><time>2026-04-26T10:06:56.999Z</time></trkpt><trkpt lat="44.12699743947852" lon="11.301317332062876"><ele>916.0</ele><time>2026-04-26T10:06:57.999Z</time></trkpt><trkpt lat="44.12714051842876" lon="11.301480606885992"><ele>916.0</ele><time>2026-04-26T10:06:58.999Z</time></trkpt><trkpt lat="44.127284416493616" lon="11.301649344912077"><ele>916.0</ele><time>2026-04-26T10:06:59.999Z</time></trkpt><trkpt lat="44.12743222463231" lon="11.301810284613214"><ele>916.0</ele><time>2026-04-26T10:07:00.999Z</time></trkpt><trkpt lat="44.1275784189628" lon="11.301961303762596"><ele>916.3333333333333</ele><time>2026-04-26T10:07:01.999Z</time></trkpt><trkpt lat="44.127728300658106" lon="11.302087967420293"><ele>916.6666666666667</ele><time>2026-04-26T10:07:02.999Z</time></trkpt><trkpt lat="44.12788885396589" lon="11.30219250065217"><ele>917.0</ele><time>2026-04-26T10:07:03.999Z</time></trkpt><trkpt lat="44.12806527632342" lon="11.302280931711733"><ele>919.6666666666667</ele><time>2026-04-26T10:07:05Z</time></trkpt><trkpt lat="44.1282441606915" lon="11.302373660900152"><ele>922.3333333333333</ele><time>2026-04-26T10:07:06Z</time></trkpt><trkpt lat="44.12840715037996" lon="11.302498885489188"><ele>925.0</ele><time>2026-04-26T10:07:07Z</time></trkpt><trkpt lat="44.12857117420627" lon="11.302596806071378"><ele>925.0</ele><time>2026-04-26T10:07:08Z</time></trkpt><trkpt lat="44.12871095917621" lon="11.302743586936419"><ele>925.0</ele><time>2026-04-26T10:07:09Z</time></trkpt><trkpt lat="44.128834703420814" lon="11.302910613341858"><ele>925.0</ele><time>2026-04-26T10:07:10Z</time></trkpt><trkpt lat="44.12890185116025" lon="11.303111201692522"><ele>923.25</ele><time>2026-04-26T10:07:11Z</time></trkpt><trkpt lat="44.1289639335663" lon="11.30328613562588"><ele>921.5</ele><time>2026-04-26T10:07:12Z</time></trkpt><trkpt lat="44.12899323865353" lon="11.303449250313966"><ele>919.75</ele><time>2026-04-26T10:07:13Z</time></trkpt><trkpt lat="44.12904482531157" lon="11.303574327046253"><ele>918.0</ele><time>2026-04-26T10:07:14Z</time></trkpt><trkpt lat="44.12911219701688" lon="11.303658434683243"><ele>918.0</ele><time>2026-04-26T10:07:15Z</time></trkpt><trkpt lat="44.129206162256196" lon="11.303708010091132"><ele>918.0</ele><time>2026-04-26T10:07:16Z</time></trkpt><trkpt lat="44.12932125469197" lon="11.303704634240663"><ele>918.0</ele><time>2026-04-26T10:07:17Z</time></trkpt><trkpt lat="44.129449146546335" lon="11.303682021372794"><ele>918.0</ele><time>2026-04-26T10:07:18Z</time></trkpt><trkpt lat="44.12959385414488" lon="11.303720877152953"><ele>918.0</ele><time>2026-04-26T10:07:19Z</time></trkpt><trkpt lat="44.129745439471236" lon="11.303792796683892"><ele>918.0</ele><time>2026-04-26T10:07:20Z</time></trkpt><trkpt lat="44.12990758651275" lon="11.303865629820518"><ele>918.0</ele><time>2026-04-26T10:07:21Z</time></trkpt><trkpt lat="44.130067244003214" lon="11.30394004687234"><ele>910.6666666666667</ele><time>2026-04-26T10:07:22Z</time></trkpt><trkpt lat="44.13022942330376" lon="11.304008222910637"><ele>903.3333333333334</ele><time>2026-04-26T10:07:23Z</time></trkpt><trkpt lat="44.13038788017273" lon="11.304080596885063"><ele>896.0</ele><time>2026-04-26T10:07:24Z</time></trkpt><trkpt lat="44.130547302099664" lon="11.304131062490754"><ele>896.0</ele><time>2026-04-26T10:07:25Z</time></trkpt><trkpt lat="44.13070613690307" lon="11.3041800160954"><ele>896.0</ele><time>2026-04-26T10:07:26Z</time></trkpt><trkpt lat="44.13086515035076" lon="11.304217430594235"><ele>896.0</ele><time>2026-04-26T10:07:27Z</time></trkpt><trkpt lat="44.13102114313322" lon="11.304284383617698"><ele>898.0</ele><time>2026-04-26T10:07:28Z</time></trkpt><trkpt lat="44.131183370317366" lon="11.304316601269749"><ele>900.0</ele><time>2026-04-26T10:07:29Z</time></trkpt><trkpt lat="44.1313359050356" lon="11.3043766923982"><ele>902.0</ele><time>2026-04-26T10:07:30Z</time></trkpt><trkpt lat="44.13147819902364" lon="11.304446033573223"><ele>904.0</ele><time>2026-04-26T10:07:31Z</time></trkpt><trkpt lat="44.13160708014522" lon="11.304528606946544"><ele>906.0</ele><time>2026-04-26T10:07:32Z</time></trkpt><trkpt lat="44.13172090956909" lon="11.304628737176998"><ele>908.0</ele><time>2026-04-26T10:07:33Z</time></trkpt><trkpt lat="44.13182512895882" lon="11.304733409630984"><ele>910.0</ele><time>2026-04-26T10:07:34Z</time></trkpt><trkpt lat="44.13193401110757" lon="11.304830220685256"><ele>906.25</ele><time>2026-04-26T10:07:35Z</time></trkpt><trkpt lat="44.13204760883401" lon="11.304914447953273"><ele>902.5</ele><time>2026-04-26T10:07:36Z</time></trkpt><trkpt lat="44.13216470462036" lon="11.304992623720434"><ele>898.75</ele><time>2026-04-26T10:07:37Z</time></trkpt><trkpt lat="44.132283613222015" lon="11.305059955977153"><ele>895.0</ele><time>2026-04-26T10:07:38Z</time></trkpt><trkpt lat="44.13240926639105" lon="11.305097549961342"><ele>895.0</ele><time>2026-04-26T10:07:39Z</time></trkpt><trkpt lat="44.13254120333234" lon="11.305098776577944"><ele>895.0</ele><time>2026-04-26T10:07:40Z</time></trkpt><trkpt lat="44.13267020081191" lon="11.305074749506785"><ele>895.0</ele><time>2026-04-26T10:07:41Z</time></trkpt><trkpt lat="44.13279729148031" lon="11.305045174543409"><ele>895.0</ele><time>2026-04-26T10:07:42Z</time></trkpt><trkpt lat="44.13292017231346" lon="11.305023409460402"><ele>895.0</ele><time>2026-04-26T10:07:43Z</time></trkpt><trkpt lat="44.133036844887684" lon="11.304998121536203"><ele>895.0</ele><time>2026-04-26T10:07:44Z</time></trkpt><trkpt lat="44.13314793866728" lon="11.304956487346475"><ele>895.0</ele><time>2026-04-26T10:07:45Z</time></trkpt><trkpt lat="44.13325420070589" lon="11.304898723284413"><ele>895.0</ele><time>2026-04-26T10:07:46Z</time></trkpt><trkpt lat="44.1333487651841" lon="11.304828001188145"><ele>893.8333333333333</ele><time>2026-04-26T10:07:47Z</time></trkpt><trkpt lat="44.13343598654418" lon="11.304755601287615"><ele>892.6666666666666</ele><time>2026-04-26T10:07:48Z</time></trkpt><trkpt lat="44.13352363597289" lon="11.304722811164034"><ele>891.5</ele><time>2026-04-26T10:07:49Z</time></trkpt><trkpt lat="44.1335920659926" lon="11.304691092008728"><ele>890.3333333333333</ele><time>2026-04-26T10:07:50Z</time></trkpt><trkpt lat="44.13366468295042" lon="11.30470697656325"><ele>889.1666666666666</ele><time>2026-04-26T10:07:51Z</time></trkpt><trkpt lat="44.13373906338103" lon="11.304754585835104"><ele>888.0</ele><time>2026-04-26T10:07:52Z</time></trkpt><trkpt lat="44.1337998625003" lon="11.30485762930419"><ele>888.0</ele><time>2026-04-26T10:07:53Z</time></trkpt><trkpt lat="44.133840666215484" lon="11.304990059923481"><ele>888.0</ele><time>2026-04-26T10:07:54Z</time></trkpt><trkpt lat="44.13385149888137" lon="11.305157812793107"><ele>888.0</ele><time>2026-04-26T10:07:55Z</time></trkpt><trkpt lat="44.13385426008554" lon="11.305301960022733"><ele>888.0</ele><time>2026-04-26T10:07:56Z</time></trkpt><trkpt lat="44.13387858551028" lon="11.305434180990757"><ele>888.0</ele><time>2026-04-26T10:07:57Z</time></trkpt><trkpt lat="44.1339388332743" lon="11.305551374714307"><ele>883.75</ele><time>2026-04-26T10:07:58Z</time></trkpt><trkpt lat="44.13402796176411" lon="11.305641163497336"><ele>879.5</ele><time>2026-04-26T10:07:59Z</time></trkpt><trkpt lat="44.13412572740814" lon="11.305724264205477"><ele>875.25</ele><time>2026-04-26T10:08:00Z</time></trkpt><trkpt lat="44.13421833950097" lon="11.305813926359091"><ele>871.0</ele><time>2026-04-26T10:08:01Z</time></trkpt><trkpt lat="44.13431150220228" lon="11.305902432839856"><ele>871.0</ele><time>2026-04-26T10:08:02Z</time></trkpt><trkpt lat="44.13440814880577" lon="11.305971712735733"><ele>871.0</ele><time>2026-04-26T10:08:03Z</time></trkpt><trkpt lat="44.1345118612809" lon="11.306017532860048"><ele>871.0</ele><time>2026-04-26T10:08:04Z</time></trkpt><trkpt lat="44.134625976393664" lon="11.30605722807694"><ele>871.0</ele><time>2026-04-26T10:08:05Z</time></trkpt><trkpt lat="44.134743221480086" lon="11.306076347395267"><ele>871.0</ele><time>2026-04-26T10:08:06Z</time></trkpt><trkpt lat="44.13486237416568" lon="11.30612457049779"><ele>871.0</ele><time>2026-04-26T10:08:07Z</time></trkpt><trkpt lat="44.1349854924871" lon="11.306131828389397"><ele>871.0</ele><time>2026-04-26T10:08:08Z</time></trkpt><trkpt lat="44.135111333214994" lon="11.30616509735277"><ele>871.0</ele><time>2026-04-26T10:08:09Z</time></trkpt><trkpt lat="44.13523953156258" lon="11.306198957054121"><ele>873.25</ele><time>2026-04-26T10:08:10Z</time></trkpt><trkpt lat="44.13536513510534" lon="11.306224110128424"><ele>875.5</ele><time>2026-04-26T10:08:11Z</time></trkpt><trkpt lat="44.13548748272656" lon="11.306260446950969"><ele>877.75</ele><time>2026-04-26T10:08:12Z</time></trkpt><trkpt lat="44.135608668504325" lon="11.306303784222527"><ele>880.0</ele><time>2026-04-26T10:08:13Z</time></trkpt><trkpt lat="44.13572197642335" lon="11.30638177553492"><ele>875.75</ele><time>2026-04-26T10:08:14Z</time></trkpt><trkpt lat="44.13582367786723" lon="11.306483627714137"><ele>871.5</ele><time>2026-04-26T10:08:15Z</time></trkpt><trkpt lat="44.135911914392814" lon="11.306605419481448"><ele>867.25</ele><time>2026-04-26T10:08:16Z</time></trkpt><trkpt lat="44.135991750474034" lon="11.306732778624301"><ele>863.0</ele><time>2026-04-26T10:08:17Z</time></trkpt><trkpt lat="44.13606261326136" lon="11.306853156300564"><ele>863.0</ele><time>2026-04-26T10:08:18Z</time></trkpt><trkpt lat="44.13612404954456" lon="11.306975256500767"><ele>863.0</ele><time>2026-04-26T10:08:19Z</time></trkpt><trkpt lat="44.13616611562367" lon="11.307111102815057"><ele>863.0</ele><time>2026-04-26T10:08:20Z</time></trkpt><trkpt lat="44.13619638797826" lon="11.307257783653293"><ele>863.0</ele><time>2026-04-26T10:08:21Z</time></trkpt><trkpt lat="44.13622840805164" lon="11.307401673995356"><ele>863.0</ele><time>2026-04-26T10:08:22Z</time></trkpt><trkpt lat="44.136268042011935" lon="11.307536891535225"><ele>861.5999999999999</ele><time>2026-04-26T10:08:23Z</time></trkpt><trkpt lat="44.136317979437635" lon="11.307666895013947"><ele>860.1999999999999</ele><time>2026-04-26T10:08:24Z</time></trkpt><trkpt lat="44.13635361334391" lon="11.30780407442259"><ele>858.8</ele><time>2026-04-26T10:08:25Z</time></trkpt><trkpt lat="44.13640710300117" lon="11.30791948751101"><ele>857.4</ele><time>2026-04-26T10:08:26Z</time></trkpt><trkpt lat="44.13645854744107" lon="11.308031412933653"><ele>856.0</ele><time>2026-04-26T10:08:27Z</time></trkpt><trkpt lat="44.1365247470229" lon="11.308131853369483"><ele>856.5999999999999</ele><time>2026-04-26T10:08:28Z</time></trkpt><trkpt lat="44.136583339883884" lon="11.30823749272699"><ele>857.1999999999999</ele><time>2026-04-26T10:08:29Z</time></trkpt><trkpt lat="44.13663692536731" lon="11.30833985404012"><ele>857.8000000000001</ele><time>2026-04-26T10:08:30Z</time></trkpt><trkpt lat="44.136715509163835" lon="11.308417496556954"><ele>858.4000000000001</ele><time>2026-04-26T10:08:31Z</time></trkpt><trkpt lat="44.136820999590086" lon="11.308475888401148"><ele>859.0</ele><time>2026-04-26T10:08:32Z</time></trkpt><trkpt lat="44.13694255337905" lon="11.308569249773633"><ele>859.0</ele><time>2026-04-26T10:08:33Z</time></trkpt><trkpt lat="44.13707344777199" lon="11.308660000356818"><ele>859.0</ele><time>2026-04-26T10:08:34Z</time></trkpt><trkpt lat="44.137212974541235" lon="11.308755339493977"><ele>859.0</ele><time>2026-04-26T10:08:35Z</time></trkpt><trkpt lat="44.13735216808398" lon="11.308856996289736"><ele>858.0</ele><time>2026-04-26T10:08:36Z</time></trkpt><trkpt lat="44.13748248151852" lon="11.308953174306318"><ele>857.0</ele><time>2026-04-26T10:08:37Z</time></trkpt><trkpt lat="44.13760608236893" lon="11.309031608936081"><ele>856.0</ele><time>2026-04-26T10:08:38Z</time></trkpt><trkpt lat="44.13771312587837" lon="11.309110728652778"><ele>855.0</ele><time>2026-04-26T10:08:39Z</time></trkpt><trkpt lat="44.13779724795965" lon="11.309217295893607"><ele>855.0</ele><time>2026-04-26T10:08:40Z</time></trkpt><trkpt lat="44.137853635310876" lon="11.309364228466693"><ele>855.0</ele><time>2026-04-26T10:08:41Z</time></trkpt><trkpt lat="44.13787345767485" lon="11.309549817252226"><ele>855.0</ele><time>2026-04-26T10:08:42Z</time></trkpt><trkpt lat="44.13792784956298" lon="11.309741800950505"><ele>855.0</ele><time>2026-04-26T10:08:43Z</time></trkpt><trkpt lat="44.13796276650935" lon="11.309950964838313"><ele>853.6666666666667</ele><time>2026-04-26T10:08:44Z</time></trkpt><trkpt lat="44.1380073418428" lon="11.310169279085418"><ele>852.3333333333334</ele><time>2026-04-26T10:08:45Z</time></trkpt><trkpt lat="44.13806964506034" lon="11.310389322016594"><ele>851.0</ele><time>2026-04-26T10:08:46Z</time></trkpt><trkpt lat="44.138140489601234" lon="11.310595485219412"><ele>850.75</ele><time>2026-04-26T10:08:47Z</time></trkpt><trkpt lat="44.138190093968674" lon="11.310803278115642"><ele>850.5</ele><time>2026-04-26T10:08:48Z</time></trkpt><trkpt lat="44.138249490035186" lon="11.310985374651128"><ele>850.25</ele><time>2026-04-26T10:08:49Z</time></trkpt><trkpt lat="44.138304949414156" lon="11.311155740571502"><ele>850.0</ele><time>2026-04-26T10:08:50Z</time></trkpt><trkpt lat="44.13832022204559" lon="11.311338817416853"><ele>850.25</ele><time>2026-04-26T10:08:50.999Z</time></trkpt><trkpt lat="44.13825829761311" lon="11.311506273141875"><ele>850.5</ele><time>2026-04-26T10:08:51.999Z</time></trkpt><trkpt lat="44.13822901699648" lon="11.31169101437397"><ele>850.75</ele><time>2026-04-26T10:08:52.999Z</time></trkpt><trkpt lat="44.13817687235665" lon="11.311851099507855"><ele>851.0</ele><time>2026-04-26T10:08:53.999Z</time></trkpt><trkpt lat="44.13814737182189" lon="11.31200939134779"><ele>850.5999999999999</ele><time>2026-04-26T10:08:54.999Z</time></trkpt><trkpt lat="44.13814152885752" lon="11.31215738017883"><ele>850.2</ele><time>2026-04-26T10:08:55.999Z</time></trkpt><trkpt lat="44.138169876441616" lon="11.31229914174915"><ele>849.8</ele><time>2026-04-26T10:08:56.999Z</time></trkpt><trkpt lat="44.13823233808795" lon="11.3124341104142"><ele>849.4000000000001</ele><time>2026-04-26T10:08:57.999Z</time></trkpt><trkpt lat="44.138319828419235" lon="11.31254523672486"><ele>849.0</ele><time>2026-04-26T10:08:58.999Z</time></trkpt><trkpt lat="44.13839751086007" lon="11.312656126036376"><ele>846.75</ele><time>2026-04-26T10:08:59.999Z</time></trkpt><trkpt lat="44.13845828951772" lon="11.312791237571629"><ele>844.5</ele><time>2026-04-26T10:09:00.999Z</time></trkpt><trkpt lat="44.138482637500466" lon="11.312963819397964"><ele>842.25</ele><time>2026-04-26T10:09:01.999Z</time></trkpt><trkpt lat="44.13845944157707" lon="11.31316079029893"><ele>840.0</ele><time>2026-04-26T10:09:02.999Z</time></trkpt><trkpt lat="44.13843120312251" lon="11.31336212757833"><ele>839.0</ele><time>2026-04-26T10:09:03.999Z</time></trkpt><trkpt lat="44.13841985845658" lon="11.313560666005166"><ele>838.0</ele><time>2026-04-26T10:09:04.999Z</time></trkpt><trkpt lat="44.13838646278066" lon="11.313758558495548"><ele>837.0</ele><time>2026-04-26T10:09:05.999Z</time></trkpt><trkpt lat="44.13836227195047" lon="11.313973119894996"><ele>836.0</ele><time>2026-04-26T10:09:06.999Z</time></trkpt><trkpt lat="44.13834718891744" lon="11.314202018291054"><ele>836.0</ele><time>2026-04-26T10:09:07.999Z</time></trkpt><trkpt lat="44.13833829880735" lon="11.314446507205673"><ele>836.0</ele><time>2026-04-26T10:09:08.999Z</time></trkpt><trkpt lat="44.13834581057102" lon="11.314696229198391"><ele>836.0</ele><time>2026-04-26T10:09:09.999Z</time></trkpt><trkpt lat="44.13835575199137" lon="11.31493864712908"><ele>836.3333333333334</ele><time>2026-04-26T10:09:11.001Z</time></trkpt><trkpt lat="44.138365994157375" lon="11.315183199641487"><ele>836.6666666666667</ele><time>2026-04-26T10:09:12.001Z</time></trkpt><trkpt lat="44.138378002563215" lon="11.315420767647115"><ele>837.0</ele><time>2026-04-26T10:09:13Z</time></trkpt><trkpt lat="44.13839302847117" lon="11.31565450993821"><ele>836.0</ele><time>2026-04-26T10:09:14Z</time></trkpt><trkpt lat="44.13841448166061" lon="11.315885459902638"><ele>835.0</ele><time>2026-04-26T10:09:15Z</time></trkpt><trkpt lat="44.138439532659845" lon="11.316114710908497"><ele>834.0</ele><time>2026-04-26T10:09:16Z</time></trkpt><trkpt lat="44.138478209135265" lon="11.316347043383573"><ele>833.3333333333333</ele><time>2026-04-26T10:09:17Z</time></trkpt><trkpt lat="44.138526385919846" lon="11.316577152058246"><ele>832.6666666666666</ele><time>2026-04-26T10:09:18Z</time></trkpt><trkpt lat="44.13859589757246" lon="11.316808559856907"><ele>832.0</ele><time>2026-04-26T10:09:19Z</time></trkpt><trkpt lat="44.138653018440316" lon="11.317046544348226"><ele>828.6666666666666</ele><time>2026-04-26T10:09:20Z</time></trkpt><trkpt lat="44.138726938893775" lon="11.317271568480745"><ele>825.3333333333333</ele><time>2026-04-26T10:09:21Z</time></trkpt><trkpt lat="44.13879095296274" lon="11.317497693127915"><ele>822.0</ele><time>2026-04-26T10:09:22Z</time></trkpt><trkpt lat="44.13883286425156" lon="11.317730133500179"><ele>822.0</ele><time>2026-04-26T10:09:23Z</time></trkpt><trkpt lat="44.138818833485416" lon="11.317956029264634"><ele>822.0</ele><time>2026-04-26T10:09:24Z</time></trkpt><trkpt lat="44.13879795010613" lon="11.318187905811667"><ele>822.0</ele><time>2026-04-26T10:09:25Z</time></trkpt><trkpt lat="44.13878603877983" lon="11.318429190238433"><ele>820.6666666666667</ele><time>2026-04-26T10:09:26Z</time></trkpt><trkpt lat="44.13879167560596" lon="11.318660970901739"><ele>819.3333333333334</ele><time>2026-04-26T10:09:27Z</time></trkpt><trkpt lat="44.13878607876759" lon="11.318897129654735"><ele>818.0</ele><time>2026-04-26T10:09:28Z</time></trkpt><trkpt lat="44.138780966951735" lon="11.319133829495913"><ele>818.0</ele><time>2026-04-26T10:09:29Z</time></trkpt><trkpt lat="44.13876839463707" lon="11.319355484043829"><ele>818.0</ele><time>2026-04-26T10:09:29.999Z</time></trkpt><trkpt lat="44.13874861217821" lon="11.319550527786236"><ele>818.0</ele><time>2026-04-26T10:09:30.999Z</time></trkpt><trkpt lat="44.13873014629011" lon="11.319731523361016"><ele>818.0</ele><time>2026-04-26T10:09:31.999Z</time></trkpt><trkpt lat="44.138708937574975" lon="11.319898020571719"><ele>819.0</ele><time>2026-04-26T10:09:32.999Z</time></trkpt><trkpt lat="44.138693560850015" lon="11.320053756958663"><ele>820.0</ele><time>2026-04-26T10:09:33.999Z</time></trkpt><trkpt lat="44.138680232808525" lon="11.320189026692798"><ele>821.0</ele><time>2026-04-26T10:09:34.999Z</time></trkpt><trkpt lat="44.138687469762544" lon="11.320318990557297"><ele>822.0</ele><time>2026-04-26T10:09:35.999Z</time></trkpt><trkpt lat="44.138737089301266" lon="11.32043106531704"><ele>823.0</ele><time>2026-04-26T10:09:36.999Z</time></trkpt><trkpt lat="44.13882505889847" lon="11.32052693652072"><ele>824.75</ele><time>2026-04-26T10:09:37.999Z</time></trkpt><trkpt lat="44.13894227174945" lon="11.320608801171764"><ele>826.5</ele><time>2026-04-26T10:09:38.999Z</time></trkpt><trkpt lat="44.13906756333443" lon="11.320678180103373"><ele>828.25</ele><time>2026-04-26T10:09:39.999Z</time></trkpt><trkpt lat="44.13919378841964" lon="11.320772274920351"><ele>830.0</ele><time>2026-04-26T10:09:40.999Z</time></trkpt><trkpt lat="44.139316286418726" lon="11.320899655732848"><ele>830.0</ele><time>2026-04-26T10:09:41.999Z</time></trkpt><trkpt lat="44.13942679289851" lon="11.32105518366357"><ele>830.0</ele><time>2026-04-26T10:09:42.999Z</time></trkpt><trkpt lat="44.13953846691268" lon="11.321206892216932"><ele>830.0</ele><time>2026-04-26T10:09:43.999Z</time></trkpt><trkpt lat="44.139644082582706" lon="11.321349207886682"><ele>832.0</ele><time>2026-04-26T10:09:44.999Z</time></trkpt><trkpt lat="44.13974330633076" lon="11.321482004289614"><ele>834.0</ele><time>2026-04-26T10:09:45.999Z</time></trkpt><trkpt lat="44.13983577195979" lon="11.321589209628016"><ele>836.0</ele><time>2026-04-26T10:09:46.999Z</time></trkpt><trkpt lat="44.139934403313156" lon="11.321664263673902"><ele>838.0</ele><time>2026-04-26T10:09:47.999Z</time></trkpt><trkpt lat="44.14004323484122" lon="11.32169960859512"><ele>838.0</ele><time>2026-04-26T10:09:48.999Z</time></trkpt><trkpt lat="44.14016328676718" lon="11.32171332204465"><ele>838.0</ele><time>2026-04-26T10:09:49.999Z</time></trkpt><trkpt lat="44.140290573090844" lon="11.321720082024484"><ele>838.0</ele><time>2026-04-26T10:09:50.999Z</time></trkpt><trkpt lat="44.14042455959125" lon="11.321747906805122"><ele>838.0</ele><time>2026-04-26T10:09:51.999Z</time></trkpt><trkpt lat="44.14054161308861" lon="11.32181116163698"><ele>838.0</ele><time>2026-04-26T10:09:52.999Z</time></trkpt><trkpt lat="44.14061465207321" lon="11.321946650065819"><ele>838.0</ele><time>2026-04-26T10:09:53.999Z</time></trkpt><trkpt lat="44.140658481930565" lon="11.322124191060897"><ele>838.0</ele><time>2026-04-26T10:09:54.999Z</time></trkpt><trkpt lat="44.14074588941255" lon="11.32231178902331"><ele>838.0</ele><time>2026-04-26T10:09:55.999Z</time></trkpt><trkpt lat="44.1408264044328" lon="11.322540478254101"><ele>839.0</ele><time>2026-04-26T10:09:56.999Z</time></trkpt><trkpt lat="44.14089991252291" lon="11.322781853189452"><ele>840.0</ele><time>2026-04-26T10:09:57.999Z</time></trkpt><trkpt lat="44.14098823895112" lon="11.322979978642234"><ele>841.0</ele><time>2026-04-26T10:09:58.999Z</time></trkpt><trkpt lat="44.1410588660748" lon="11.323183442765199"><ele>841.0</ele><time>2026-04-26T10:09:59.999Z</time></trkpt><trkpt lat="44.14113069189074" lon="11.323372949876248"><ele>841.0</ele><time>2026-04-26T10:10:00.999Z</time></trkpt><trkpt lat="44.14119370067644" lon="11.323556963186952"><ele>841.0</ele><time>2026-04-26T10:10:01.999Z</time></trkpt><trkpt lat="44.14123115926205" lon="11.323745592863059"><ele>841.0</ele><time>2026-04-26T10:10:02.999Z</time></trkpt><trkpt lat="44.14124115359193" lon="11.323959822522946"><ele>841.0</ele><time>2026-04-26T10:10:03.999Z</time></trkpt><trkpt lat="44.14122716158394" lon="11.324185104071448"><ele>841.0</ele><time>2026-04-26T10:10:04.999Z</time></trkpt><trkpt lat="44.14120644390859" lon="11.32440976535142"><ele>841.0</ele><time>2026-04-26T10:10:05.999Z</time></trkpt><trkpt lat="44.14117112048426" lon="11.324634059016503"><ele>842.0</ele><time>2026-04-26T10:10:06.999Z</time></trkpt><trkpt lat="44.141126767474944" lon="11.3248537814373"><ele>843.0</ele><time>2026-04-26T10:10:07.999Z</time></trkpt><trkpt lat="44.14107723517816" lon="11.325060197291402"><ele>844.0</ele><time>2026-04-26T10:10:08.999Z</time></trkpt><trkpt lat="44.14103216608569" lon="11.325238505986865"><ele>844.0</ele><time>2026-04-26T10:10:09.999Z</time></trkpt><trkpt lat="44.141002275375925" lon="11.325401221748008"><ele>844.0</ele><time>2026-04-26T10:10:10.999Z</time></trkpt><trkpt lat="44.14101403171781" lon="11.325572850361967"><ele>844.0</ele><time>2026-04-26T10:10:11.999Z</time></trkpt><trkpt lat="44.14106790505761" lon="11.325751108267774"><ele>844.0</ele><time>2026-04-26T10:10:12.999Z</time></trkpt><trkpt lat="44.141141138900075" lon="11.325930731796404"><ele>844.6666666666666</ele><time>2026-04-26T10:10:13.999Z</time></trkpt><trkpt lat="44.14121096906573" lon="11.326120352588818"><ele>845.3333333333333</ele><time>2026-04-26T10:10:14.999Z</time></trkpt><trkpt lat="44.14126585060113" lon="11.326323153612616"><ele>846.0</ele><time>2026-04-26T10:10:15.999Z</time></trkpt><trkpt lat="44.141294597633454" lon="11.326523104903288"><ele>846.0</ele><time>2026-04-26T10:10:16.999Z</time></trkpt><trkpt lat="44.14128714809654" lon="11.326710747087672"><ele>846.0</ele><time>2026-04-26T10:10:17.999Z</time></trkpt><trkpt lat="44.141220202008185" lon="11.326874049600782"><ele>846.0</ele><time>2026-04-26T10:10:18.999Z</time></trkpt><trkpt lat="44.14112374380739" lon="11.32700606756639"><ele>846.0</ele><time>2026-04-26T10:10:19.999Z</time></trkpt><trkpt lat="44.14102948729036" lon="11.327145904133095"><ele>846.0</ele><time>2026-04-26T10:10:20.999Z</time></trkpt><trkpt lat="44.140899089819364" lon="11.327223757266191"><ele>846.0</ele><time>2026-04-26T10:10:21.999Z</time></trkpt><trkpt lat="44.14077723421989" lon="11.327314222881371"><ele>846.0</ele><time>2026-04-26T10:10:22.999Z</time></trkpt><trkpt lat="44.14066191219913" lon="11.32741620738322"><ele>846.0</ele><time>2026-04-26T10:10:23.999Z</time></trkpt><trkpt lat="44.140561799108845" lon="11.327521837908757"><ele>845.5</ele><time>2026-04-26T10:10:24.999Z</time></trkpt><trkpt lat="44.14048476997238" lon="11.327636619880892"><ele>845.0</ele><time>2026-04-26T10:10:25.999Z</time></trkpt><trkpt lat="44.140441912258645" lon="11.32776813778634"><ele>844.5</ele><time>2026-04-26T10:10:26.999Z</time></trkpt><trkpt lat="44.140431713017726" lon="11.327916227621236"><ele>844.0</ele><time>2026-04-26T10:10:27.999Z</time></trkpt><trkpt lat="44.14045057560212" lon="11.328095383738688"><ele>844.0</ele><time>2026-04-26T10:10:28.999Z</time></trkpt><trkpt lat="44.14048117472986" lon="11.328275187794354"><ele>844.0</ele><time>2026-04-26T10:10:29.999Z</time></trkpt><trkpt lat="44.140527774311714" lon="11.328428834777199"><ele>844.0</ele><time>2026-04-26T10:10:30.999Z</time></trkpt><trkpt lat="44.14058539547762" lon="11.328551086568844"><ele>844.0</ele><time>2026-04-26T10:10:31.999Z</time></trkpt><trkpt lat="44.14067674439198" lon="11.328609298067054"><ele>847.75</ele><time>2026-04-26T10:10:32.999Z</time></trkpt><trkpt lat="44.14078595753389" lon="11.328625803301795"><ele>851.5</ele><time>2026-04-26T10:10:33.999Z</time></trkpt><trkpt lat="44.14089845751484" lon="11.32859658387472"><ele>855.25</ele><time>2026-04-26T10:10:34.999Z</time></trkpt><trkpt lat="44.141014186430226" lon="11.328492076386494"><ele>859.0</ele><time>2026-04-26T10:10:35.999Z</time></trkpt><trkpt lat="44.14114443751005" lon="11.32838014954269"><ele>859.0</ele><time>2026-04-26T10:10:36.999Z</time></trkpt><trkpt lat="44.14130394229378" lon="11.328250630985947"><ele>859.0</ele><time>2026-04-26T10:10:37.999Z</time></trkpt><trkpt lat="44.141480917917505" lon="11.32808490931948"><ele>859.0</ele><time>2026-04-26T10:10:38.999Z</time></trkpt><trkpt lat="44.14167136036217" lon="11.327940672130982"><ele>861.0</ele><time>2026-04-26T10:10:39.999Z</time></trkpt><trkpt lat="44.141854650631245" lon="11.32778796184333"><ele>863.0</ele><time>2026-04-26T10:10:40.999Z</time></trkpt><trkpt lat="44.142036134183584" lon="11.327638381410074"><ele>865.0</ele><time>2026-04-26T10:10:41.999Z</time></trkpt><trkpt lat="44.14221834133025" lon="11.327497970171168"><ele>865.0</ele><time>2026-04-26T10:10:42.999Z</time></trkpt><trkpt lat="44.1424018596118" lon="11.327373228851595"><ele>865.0</ele><time>2026-04-26T10:10:43.999Z</time></trkpt><trkpt lat="44.14259566374413" lon="11.327283188997306"><ele>865.0</ele><time>2026-04-26T10:10:44.999Z</time></trkpt><trkpt lat="44.14279515200104" lon="11.32722314385362"><ele>867.3333333333333</ele><time>2026-04-26T10:10:45.999Z</time></trkpt><trkpt lat="44.14300079812862" lon="11.327181714864325"><ele>869.6666666666667</ele><time>2026-04-26T10:10:46.999Z</time></trkpt><trkpt lat="44.143206615877915" lon="11.327160846502352"><ele>872.0</ele><time>2026-04-26T10:10:47.999Z</time></trkpt><trkpt lat="44.14341148038938" lon="11.327164154638712"><ele>870.0</ele><time>2026-04-26T10:10:48.999Z</time></trkpt><trkpt lat="44.14361134602295" lon="11.327196255558002"><ele>868.0</ele><time>2026-04-26T10:10:49.999Z</time></trkpt><trkpt lat="44.14378620949724" lon="11.32729219385316"><ele>866.0</ele><time>2026-04-26T10:10:50.999Z</time></trkpt><trkpt lat="44.143953771901344" lon="11.327370341755858"><ele>867.6666666666667</ele><time>2026-04-26T10:10:51.999Z</time></trkpt><trkpt lat="44.14410617512228" lon="11.327469468852572"><ele>869.3333333333333</ele><time>2026-04-26T10:10:52.999Z</time></trkpt><trkpt lat="44.144254473248935" lon="11.32754220965274"><ele>871.0</ele><time>2026-04-26T10:10:53.999Z</time></trkpt><trkpt lat="44.144389910065605" lon="11.327579328101285"><ele>871.0</ele><time>2026-04-26T10:10:54.999Z</time></trkpt><trkpt lat="44.14451596752143" lon="11.327560945365816"><ele>871.0</ele><time>2026-04-26T10:10:55.999Z</time></trkpt><trkpt lat="44.14463714318658" lon="11.327470367262856"><ele>871.0</ele><time>2026-04-26T10:10:56.999Z</time></trkpt><trkpt lat="44.14474207587056" lon="11.327316381366757"><ele>871.0</ele><time>2026-04-26T10:10:57.999Z</time></trkpt><trkpt lat="44.14482656585318" lon="11.327111537248305"><ele>874.3333333333333</ele><time>2026-04-26T10:10:58.999Z</time></trkpt><trkpt lat="44.1449234046429" lon="11.326905307968012"><ele>877.6666666666667</ele><time>2026-04-26T10:10:59.999Z</time></trkpt><trkpt lat="44.145055256542555" lon="11.32674696693228"><ele>881.0</ele><time>2026-04-26T10:11:00.999Z</time></trkpt><trkpt lat="44.14522485660915" lon="11.326676221802302"><ele>881.0</ele><time>2026-04-26T10:11:01.999Z</time></trkpt><trkpt lat="44.14540223082914" lon="11.326609751008323"><ele>881.0</ele><time>2026-04-26T10:11:02.999Z</time></trkpt><trkpt lat="44.14559266874722" lon="11.326604276917429"><ele>881.0</ele><time>2026-04-26T10:11:03.999Z</time></trkpt><trkpt lat="44.145778714558794" lon="11.326643375906569"><ele>880.3333333333334</ele><time>2026-04-26T10:11:04.999Z</time></trkpt><trkpt lat="44.14595789996899" lon="11.32674876353699"><ele>879.6666666666667</ele><time>2026-04-26T10:11:05.999Z</time></trkpt><trkpt lat="44.1461438938801" lon="11.326844994077863"><ele>879.0</ele><time>2026-04-26T10:11:06.999Z</time></trkpt><trkpt lat="44.14631693828465" lon="11.326976031335274"><ele>879.0</ele><time>2026-04-26T10:11:07.999Z</time></trkpt><trkpt lat="44.14648687529138" lon="11.327097079921122"><ele>879.0</ele><time>2026-04-26T10:11:08.999Z</time></trkpt><trkpt lat="44.146661802132364" lon="11.327192483493524"><ele>879.0</ele><time>2026-04-26T10:11:09.999Z</time></trkpt><trkpt lat="44.14684952113233" lon="11.327238180546322"><ele>878.0</ele><time>2026-04-26T10:11:10.999Z</time></trkpt><trkpt lat="44.147044418493095" lon="11.327231320167595"><ele>877.0</ele><time>2026-04-26T10:11:11.999Z</time></trkpt><trkpt lat="44.14723693693315" lon="11.327188368605905"><ele>876.0</ele><time>2026-04-26T10:11:12.999Z</time></trkpt><trkpt lat="44.14742279558597" lon="11.32718317552987"><ele>879.3333333333333</ele><time>2026-04-26T10:11:13.999Z</time></trkpt><trkpt lat="44.147603418561445" lon="11.327255689886293"><ele>882.6666666666666</ele><time>2026-04-26T10:11:14.999Z</time></trkpt><trkpt lat="44.147757387777034" lon="11.327367801370228"><ele>886.0</ele><time>2026-04-26T10:11:15.999Z</time></trkpt><trkpt lat="44.147879595544794" lon="11.327466775916738"><ele>886.0</ele><time>2026-04-26T10:11:17Z</time></trkpt><trkpt lat="44.14798933930275" lon="11.327529456892545"><ele>886.0</ele><time>2026-04-26T10:11:18Z</time></trkpt><trkpt lat="44.148110086609805" lon="11.327540349997886"><ele>886.0</ele><time>2026-04-26T10:11:19Z</time></trkpt><trkpt lat="44.14823883451834" lon="11.327480976723718"><ele>886.0</ele><time>2026-04-26T10:11:20Z</time></trkpt><trkpt lat="44.148372245461424" lon="11.327366847838507"><ele>892.3333333333333</ele><time>2026-04-26T10:11:21Z</time></trkpt><trkpt lat="44.14850256480901" lon="11.327213324694013"><ele>898.6666666666667</ele><time>2026-04-26T10:11:22Z</time></trkpt><trkpt lat="44.14863134447346" lon="11.327033335766842"><ele>905.0</ele><time>2026-04-26T10:11:23Z</time></trkpt><trkpt lat="44.14875937641333" lon="11.326837741292744"><ele>905.0</ele><time>2026-04-26T10:11:24Z</time></trkpt><trkpt lat="44.14889667372807" lon="11.326661258277563"><ele>905.0</ele><time>2026-04-26T10:11:25Z</time></trkpt><trkpt lat="44.14903248672694" lon="11.326495343209928"><ele>905.0</ele><time>2026-04-26T10:11:26Z</time></trkpt><trkpt lat="44.14916304935182" lon="11.32634779690117"><ele>906.0</ele><time>2026-04-26T10:11:27Z</time></trkpt><trkpt lat="44.1493139818417" lon="11.32618351908396"><ele>907.0</ele><time>2026-04-26T10:11:28Z</time></trkpt><trkpt lat="44.14945065425623" lon="11.326041885782548"><ele>908.0</ele><time>2026-04-26T10:11:29Z</time></trkpt><trkpt lat="44.1495695060921" lon="11.325938677541972"><ele>908.0</ele><time>2026-04-26T10:11:30Z</time></trkpt><trkpt lat="44.1497354967788" lon="11.325950335594964"><ele>908.0</ele><time>2026-04-26T10:11:31Z</time></trkpt><trkpt lat="44.149949146388884" lon="11.325891761729201"><ele>908.0</ele><time>2026-04-26T10:11:32Z</time></trkpt><trkpt lat="44.15014407345645" lon="11.325895645998429"><ele>904.0</ele><time>2026-04-26T10:11:33Z</time></trkpt><trkpt lat="44.1503334427508" lon="11.325900230147653"><ele>900.0</ele><time>2026-04-26T10:11:34Z</time></trkpt><trkpt lat="44.15051626049207" lon="11.32590439881299"><ele>896.0</ele><time>2026-04-26T10:11:35Z</time></trkpt><trkpt lat="44.15069288603465" lon="11.325883345129014"><ele>893.0</ele><time>2026-04-26T10:11:36Z</time></trkpt><trkpt lat="44.15086003396901" lon="11.325898116206575"><ele>890.0</ele><time>2026-04-26T10:11:37Z</time></trkpt><trkpt lat="44.151031354682345" lon="11.325872633326057"><ele>887.0</ele><time>2026-04-26T10:11:38Z</time></trkpt><trkpt lat="44.15121060129857" lon="11.325800338874421"><ele>887.0</ele><time>2026-04-26T10:11:39Z</time></trkpt><trkpt lat="44.15139061310056" lon="11.325680904524408"><ele>887.0</ele><time>2026-04-26T10:11:40Z</time></trkpt><trkpt lat="44.151568934093675" lon="11.32553308201074"><ele>887.0</ele><time>2026-04-26T10:11:41Z</time></trkpt><trkpt lat="44.151750777300826" lon="11.325359746661944"><ele>891.0</ele><time>2026-04-26T10:11:42Z</time></trkpt><trkpt lat="44.15193785941114" lon="11.325199138585745"><ele>895.0</ele><time>2026-04-26T10:11:43Z</time></trkpt><trkpt lat="44.15211476506305" lon="11.325055555314066"><ele>899.0</ele><time>2026-04-26T10:11:44Z</time></trkpt><trkpt lat="44.1522798990792" lon="11.324909599433827"><ele>900.6666666666667</ele><time>2026-04-26T10:11:45Z</time></trkpt><trkpt lat="44.15245225691778" lon="11.32478951167456"><ele>902.3333333333333</ele><time>2026-04-26T10:11:46Z</time></trkpt><trkpt lat="44.15260494339993" lon="11.324663141165878"><ele>904.0</ele><time>2026-04-26T10:11:47Z</time></trkpt><trkpt lat="44.15274445061333" lon="11.324546246694776"><ele>904.0</ele><time>2026-04-26T10:11:48Z</time></trkpt><trkpt lat="44.15287081938233" lon="11.324462983283222"><ele>904.0</ele><time>2026-04-26T10:11:49Z</time></trkpt><trkpt lat="44.15300592300832" lon="11.324437312486863"><ele>904.0</ele><time>2026-04-26T10:11:50Z</time></trkpt><trkpt lat="44.15314554835411" lon="11.324477909026333"><ele>904.0</ele><time>2026-04-26T10:11:51Z</time></trkpt><trkpt lat="44.153292547747625" lon="11.324553575764435"><ele>901.3333333333333</ele><time>2026-04-26T10:11:52Z</time></trkpt><trkpt lat="44.15344347045468" lon="11.32466308850415"><ele>898.6666666666667</ele><time>2026-04-26T10:11:53Z</time></trkpt><trkpt lat="44.15359119438162" lon="11.324790499386602"><ele>896.0</ele><time>2026-04-26T10:11:54Z</time></trkpt><trkpt lat="44.1537406298753" lon="11.324907537846599"><ele>894.3333333333334</ele><time>2026-04-26T10:11:55Z</time></trkpt><trkpt lat="44.15389287925724" lon="11.325043408905971"><ele>892.6666666666667</ele><time>2026-04-26T10:11:56Z</time></trkpt><trkpt lat="44.15406274716179" lon="11.325145717924721"><ele>891.0</ele><time>2026-04-26T10:11:57Z</time></trkpt><trkpt lat="44.15423370313796" lon="11.325207300728234"><ele>891.0</ele><time>2026-04-26T10:11:58Z</time></trkpt><trkpt lat="44.15440011776383" lon="11.325242594372005"><ele>891.0</ele><time>2026-04-26T10:11:59Z</time></trkpt><trkpt lat="44.154535503542206" lon="11.325231236688785"><ele>891.0</ele><time>2026-04-26T10:12:00Z</time></trkpt><trkpt lat="44.154657815892435" lon="11.325160540500969"><ele>891.0</ele><time>2026-04-26T10:12:01Z</time></trkpt><trkpt lat="44.154764511899494" lon="11.32502076142088"><ele>891.0</ele><time>2026-04-26T10:12:02Z</time></trkpt><trkpt lat="44.154841094939044" lon="11.324821495838432"><ele>891.0</ele><time>2026-04-26T10:12:03Z</time></trkpt><trkpt lat="44.15491010479873" lon="11.324607806952933"><ele>891.0</ele><time>2026-04-26T10:12:03.999Z</time></trkpt><trkpt lat="44.15502380982877" lon="11.32444379672317"><ele>892.3333333333333</ele><time>2026-04-26T10:12:04.999Z</time></trkpt><trkpt lat="44.155166261817186" lon="11.324304215234747"><ele>893.6666666666666</ele><time>2026-04-26T10:12:05.999Z</time></trkpt><trkpt lat="44.155302756793965" lon="11.32414543050239"><ele>895.0</ele><time>2026-04-26T10:12:06.999Z</time></trkpt><trkpt lat="44.15544096703249" lon="11.323984431570997"><ele>896.3333333333333</ele><time>2026-04-26T10:12:07.999Z</time></trkpt><trkpt lat="44.155553420277585" lon="11.323782967995474"><ele>897.6666666666667</ele><time>2026-04-26T10:12:08.999Z</time></trkpt><trkpt lat="44.155648278698166" lon="11.323591465696898"><ele>899.0</ele><time>2026-04-26T10:12:09.999Z</time></trkpt><trkpt lat="44.15576536304752" lon="11.323441585054061"><ele>899.0</ele><time>2026-04-26T10:12:10.999Z</time></trkpt><trkpt lat="44.155897437778435" lon="11.323306803240856"><ele>899.0</ele><time>2026-04-26T10:12:11.999Z</time></trkpt><trkpt lat="44.156049841769274" lon="11.323218071666375"><ele>899.0</ele><time>2026-04-26T10:12:12.999Z</time></trkpt><trkpt lat="44.15620881077638" lon="11.323188020578334"><ele>899.0</ele><time>2026-04-26T10:12:13.999Z</time></trkpt><trkpt lat="44.15639425680617" lon="11.323224763622052"><ele>899.0</ele><time>2026-04-26T10:12:14.999Z</time></trkpt><trkpt lat="44.15657187559767" lon="11.32327327302348"><ele>899.0</ele><time>2026-04-26T10:12:15.999Z</time></trkpt><trkpt lat="44.15672295677936" lon="11.323370900288063"><ele>899.6666666666667</ele><time>2026-04-26T10:12:16.999Z</time></trkpt><trkpt lat="44.156869850768985" lon="11.323441047680262"><ele>900.3333333333333</ele><time>2026-04-26T10:12:17.999Z</time></trkpt><trkpt lat="44.1570228187736" lon="11.323455104182173"><ele>901.0</ele><time>2026-04-26T10:12:18.999Z</time></trkpt><trkpt lat="44.15718103856291" lon="11.32341082529845"><ele>901.0</ele><time>2026-04-26T10:12:19.999Z</time></trkpt><trkpt lat="44.157335248527524" lon="11.32332703165565"><ele>901.0</ele><time>2026-04-26T10:12:20.999Z</time></trkpt><trkpt lat="44.15746987388703" lon="11.323212578988844"><ele>901.0</ele><time>2026-04-26T10:12:21.999Z</time></trkpt><trkpt lat="44.15759309057475" lon="11.323080849796948"><ele>902.25</ele><time>2026-04-26T10:12:22.999Z</time></trkpt><trkpt lat="44.157704554343326" lon="11.322932361898912"><ele>903.5</ele><time>2026-04-26T10:12:23.999Z</time></trkpt><trkpt lat="44.157824709238284" lon="11.322826788080226"><ele>904.75</ele><time>2026-04-26T10:12:24.999Z</time></trkpt><trkpt lat="44.15793204401036" lon="11.322740788062777"><ele>906.0</ele><time>2026-04-26T10:12:25.999Z</time></trkpt><trkpt lat="44.15804098750702" lon="11.32269031606407"><ele>906.0</ele><time>2026-04-26T10:12:26.999Z</time></trkpt><trkpt lat="44.158154939335354" lon="11.322650508280983"><ele>906.0</ele><time>2026-04-26T10:12:27.999Z</time></trkpt><trkpt lat="44.15828155110529" lon="11.322670270570592"><ele>906.0</ele><time>2026-04-26T10:12:28.999Z</time></trkpt><trkpt lat="44.15839342205015" lon="11.322745866788207"><ele>906.0</ele><time>2026-04-26T10:12:29.999Z</time></trkpt><trkpt lat="44.15848397495346" lon="11.32280440665837"><ele>905.75</ele><time>2026-04-26T10:12:30.999Z</time></trkpt><trkpt lat="44.15857874415475" lon="11.322848418871034"><ele>905.5</ele><time>2026-04-26T10:12:31.999Z</time></trkpt><trkpt lat="44.1586769953959" lon="11.32292815980129"><ele>905.25</ele><time>2026-04-26T10:12:32.999Z</time></trkpt><trkpt lat="44.15876686171038" lon="11.323051175801108"><ele>905.0</ele><time>2026-04-26T10:12:33.999Z</time></trkpt><trkpt lat="44.158862864778975" lon="11.32316534148962"><ele>903.5</ele><time>2026-04-26T10:12:34.999Z</time></trkpt><trkpt lat="44.15894752738815" lon="11.323288255606805"><ele>902.0</ele><time>2026-04-26T10:12:35.999Z</time></trkpt><trkpt lat="44.15905478015538" lon="11.323393983459288"><ele>900.5</ele><time>2026-04-26T10:12:36.999Z</time></trkpt><trkpt lat="44.15918129512594" lon="11.323469170162191"><ele>899.0</ele><time>2026-04-26T10:12:37.999Z</time></trkpt><trkpt lat="44.159311417600655" lon="11.323536940362516"><ele>899.0</ele><time>2026-04-26T10:12:38.999Z</time></trkpt><trkpt lat="44.15942808829908" lon="11.323627111852472"><ele>899.0</ele><time>2026-04-26T10:12:39.999Z</time></trkpt><trkpt lat="44.1595516329821" lon="11.323721870284132"><ele>899.0</ele><time>2026-04-26T10:12:40.999Z</time></trkpt><trkpt lat="44.15967451800113" lon="11.323824666350053"><ele>899.0</ele><time>2026-04-26T10:12:41.999Z</time></trkpt><trkpt lat="44.15978830344779" lon="11.323950067510221"><ele>899.0</ele><time>2026-04-26T10:12:42.999Z</time></trkpt><trkpt lat="44.15988287568044" lon="11.324114649981906"><ele>899.0</ele><time>2026-04-26T10:12:43.999Z</time></trkpt><trkpt lat="44.15992842202106" lon="11.324315327682857"><ele>899.0</ele><time>2026-04-26T10:12:44.999Z</time></trkpt><trkpt lat="44.15999199358052" lon="11.324510366290772"><ele>899.0</ele><time>2026-04-26T10:12:45.999Z</time></trkpt><trkpt lat="44.16004742665844" lon="11.324722800187942"><ele>899.0</ele><time>2026-04-26T10:12:46.999Z</time></trkpt><trkpt lat="44.16009900499437" lon="11.324959407078707"><ele>899.0</ele><time>2026-04-26T10:12:47.999Z</time></trkpt><trkpt lat="44.160171996246234" lon="11.325213419673787"><ele>896.0</ele><time>2026-04-26T10:12:48.999Z</time></trkpt><trkpt lat="44.16025733345366" lon="11.325473460857802"><ele>893.0</ele><time>2026-04-26T10:12:49.999Z</time></trkpt><trkpt lat="44.160328808676525" lon="11.325734828307517"><ele>890.0</ele><time>2026-04-26T10:12:50.999Z</time></trkpt><trkpt lat="44.1604087739553" lon="11.32598575759221"><ele>887.3333333333334</ele><time>2026-04-26T10:12:51.999Z</time></trkpt><trkpt lat="44.16049840522901" lon="11.326234803141297"><ele>884.6666666666667</ele><time>2026-04-26T10:12:52.999Z</time></trkpt><trkpt lat="44.16058703442408" lon="11.326486744062798"><ele>882.0</ele><time>2026-04-26T10:12:53.999Z</time></trkpt><trkpt lat="44.16068136026499" lon="11.32673860057296"><ele>882.3333333333333</ele><time>2026-04-26T10:12:54.999Z</time></trkpt><trkpt lat="44.160786062614214" lon="11.326981214054074"><ele>882.6666666666666</ele><time>2026-04-26T10:12:55.999Z</time></trkpt><trkpt lat="44.16089700603668" lon="11.327218203568313"><ele>883.0</ele><time>2026-04-26T10:12:56.999Z</time></trkpt><trkpt lat="44.16100141321715" lon="11.327453153308307"><ele>883.0</ele><time>2026-04-26T10:12:57.999Z</time></trkpt><trkpt lat="44.16108334909393" lon="11.327692005098108"><ele>883.0</ele><time>2026-04-26T10:12:58.999Z</time></trkpt><trkpt lat="44.1611412424804" lon="11.327931142326642"><ele>883.0</ele><time>2026-04-26T10:12:59.999Z</time></trkpt><trkpt lat="44.16118735662914" lon="11.328177511130916"><ele>882.6666666666666</ele><time>2026-04-26T10:13:00.999Z</time></trkpt><trkpt lat="44.161226326694916" lon="11.328429188800778"><ele>882.3333333333333</ele><time>2026-04-26T10:13:01.999Z</time></trkpt><trkpt lat="44.16125986991653" lon="11.32867248728951"><ele>882.0</ele><time>2026-04-26T10:13:02.999Z</time></trkpt><trkpt lat="44.16129165280179" lon="11.32890963682516"><ele>881.75</ele><time>2026-04-26T10:13:03.999Z</time></trkpt><trkpt lat="44.16132653578887" lon="11.329113773082344"><ele>881.5</ele><time>2026-04-26T10:13:04.999Z</time></trkpt><trkpt lat="44.161391185499156" lon="11.329278559562376"><ele>881.25</ele><time>2026-04-26T10:13:05.999Z</time></trkpt><trkpt lat="44.161485612440515" lon="11.329417023334301"><ele>881.0</ele><time>2026-04-26T10:13:06.999Z</time></trkpt><trkpt lat="44.16160943236044" lon="11.329529079733"><ele>881.0</ele><time>2026-04-26T10:13:07.999Z</time></trkpt><trkpt lat="44.16176806537753" lon="11.329618121687695"><ele>881.0</ele><time>2026-04-26T10:13:08.999Z</time></trkpt><trkpt lat="44.16193534508846" lon="11.329683644228316"><ele>881.0</ele><time>2026-04-26T10:13:09.999Z</time></trkpt><trkpt lat="44.16210968566504" lon="11.32970300687174"><ele>881.0</ele><time>2026-04-26T10:13:10.999Z</time></trkpt><trkpt lat="44.16227418299435" lon="11.329701609021463"><ele>881.0</ele><time>2026-04-26T10:13:11.999Z</time></trkpt><trkpt lat="44.162419864953144" lon="11.329709169200301"><ele>881.0</ele><time>2026-04-26T10:13:12.999Z</time></trkpt><trkpt lat="44.16255762689256" lon="11.329759138300092"><ele>877.0</ele><time>2026-04-26T10:13:13.999Z</time></trkpt><trkpt lat="44.162678184130925" lon="11.329866537492187"><ele>873.0</ele><time>2026-04-26T10:13:14.999Z</time></trkpt><trkpt lat="44.162774574091515" lon="11.330016594662473"><ele>869.0</ele><time>2026-04-26T10:13:15.999Z</time></trkpt><trkpt lat="44.16284172074787" lon="11.330189854677004"><ele>865.0</ele><time>2026-04-26T10:13:16.999Z</time></trkpt><trkpt lat="44.162872838267035" lon="11.3303817294791"><ele>862.25</ele><time>2026-04-26T10:13:17.999Z</time></trkpt><trkpt lat="44.16284072395736" lon="11.330583465163926"><ele>859.5</ele><time>2026-04-26T10:13:18.999Z</time></trkpt><trkpt lat="44.16282091797967" lon="11.330775353146985"><ele>856.75</ele><time>2026-04-26T10:13:19.999Z</time></trkpt><trkpt lat="44.16279705708879" lon="11.330937552888509"><ele>854.0</ele><time>2026-04-26T10:13:20.999Z</time></trkpt><trkpt lat="44.16279730587898" lon="11.331094475148301"><ele>854.0</ele><time>2026-04-26T10:13:21.999Z</time></trkpt><trkpt lat="44.1628305048441" lon="11.331231856173952"><ele>854.0</ele><time>2026-04-26T10:13:23Z</time></trkpt><trkpt lat="44.16290372398549" lon="11.331337123508119"><ele>854.0</ele><time>2026-04-26T10:13:24Z</time></trkpt><trkpt lat="44.16301797327527" lon="11.331417257239648"><ele>854.0</ele><time>2026-04-26T10:13:25Z</time></trkpt><trkpt lat="44.1631510538976" lon="11.331497146395455"><ele>853.0</ele><time>2026-04-26T10:13:26Z</time></trkpt><trkpt lat="44.16328949032231" lon="11.331593258809699"><ele>852.0</ele><time>2026-04-26T10:13:27Z</time></trkpt><trkpt lat="44.16342058974946" lon="11.331694911307878"><ele>851.0</ele><time>2026-04-26T10:13:28Z</time></trkpt><trkpt lat="44.16355877501315" lon="11.331805596550439"><ele>851.0</ele><time>2026-04-26T10:13:29Z</time></trkpt><trkpt lat="44.1636949811622" lon="11.331928202157748"><ele>851.0</ele><time>2026-04-26T10:13:30Z</time></trkpt><trkpt lat="44.16381600201094" lon="11.332074146700123"><ele>851.0</ele><time>2026-04-26T10:13:31Z</time></trkpt><trkpt lat="44.16391560443402" lon="11.332248858333351"><ele>851.5</ele><time>2026-04-26T10:13:32Z</time></trkpt><trkpt lat="44.16399998878282" lon="11.332425424369822"><ele>852.0</ele><time>2026-04-26T10:13:33Z</time></trkpt><trkpt lat="44.16408337894858" lon="11.332589171959835"><ele>852.5</ele><time>2026-04-26T10:13:34Z</time></trkpt><trkpt lat="44.16417438092748" lon="11.332731317759881"><ele>853.0</ele><time>2026-04-26T10:13:35Z</time></trkpt><trkpt lat="44.16427114223608" lon="11.33285515740147"><ele>853.0</ele><time>2026-04-26T10:13:36Z</time></trkpt><trkpt lat="44.164360789858854" lon="11.332967308853723"><ele>853.0</ele><time>2026-04-26T10:13:37Z</time></trkpt><trkpt lat="44.164435320259216" lon="11.333092327911586"><ele>853.0</ele><time>2026-04-26T10:13:38Z</time></trkpt><trkpt lat="44.16447062971606" lon="11.333253803459483"><ele>853.0</ele><time>2026-04-26T10:13:39Z</time></trkpt><trkpt lat="44.164512603667184" lon="11.333416378869483"><ele>852.0</ele><time>2026-04-26T10:13:40Z</time></trkpt><trkpt lat="44.1645304385078" lon="11.333591470875952"><ele>851.0</ele><time>2026-04-26T10:13:41Z</time></trkpt><trkpt lat="44.16456597054207" lon="11.333760927503254"><ele>850.0</ele><time>2026-04-26T10:13:42Z</time></trkpt><trkpt lat="44.16462821668738" lon="11.333919330381484"><ele>849.0</ele><time>2026-04-26T10:13:43Z</time></trkpt><trkpt lat="44.16470481365805" lon="11.334068954471105"><ele>849.0</ele><time>2026-04-26T10:13:44Z</time></trkpt><trkpt lat="44.16479556973703" lon="11.334213656964765"><ele>849.0</ele><time>2026-04-26T10:13:45Z</time></trkpt><trkpt lat="44.16488813314031" lon="11.334362091729703"><ele>849.0</ele><time>2026-04-26T10:13:46Z</time></trkpt><trkpt lat="44.16498505479227" lon="11.334503069232023"><ele>849.0</ele><time>2026-04-26T10:13:47Z</time></trkpt><trkpt lat="44.165082039512015" lon="11.334637391719145"><ele>849.4000000000001</ele><time>2026-04-26T10:13:48Z</time></trkpt><trkpt lat="44.165170464500996" lon="11.33477052849182"><ele>849.8</ele><time>2026-04-26T10:13:49Z</time></trkpt><trkpt lat="44.16524262643412" lon="11.334883834587355"><ele>850.2</ele><time>2026-04-26T10:13:50Z</time></trkpt><trkpt lat="44.16530413154917" lon="11.33497910332977"><ele>850.5999999999999</ele><time>2026-04-26T10:13:51Z</time></trkpt><trkpt lat="44.165327136426065" lon="11.335083436625647"><ele>851.0</ele><time>2026-04-26T10:13:52Z</time></trkpt><trkpt lat="44.165350518648175" lon="11.335194487416091"><ele>851.0</ele><time>2026-04-26T10:13:53Z</time></trkpt><trkpt lat="44.165368961163075" lon="11.335331226945927"><ele>851.0</ele><time>2026-04-26T10:13:54Z</time></trkpt><trkpt lat="44.16539617301855" lon="11.335496352187858"><ele>851.0</ele><time>2026-04-26T10:13:55Z</time></trkpt><trkpt lat="44.16541056033115" lon="11.335672611046396"><ele>851.0</ele><time>2026-04-26T10:13:56Z</time></trkpt><trkpt lat="44.16542681162503" lon="11.335847209224754"><ele>851.1999999999999</ele><time>2026-04-26T10:13:57Z</time></trkpt><trkpt lat="44.16544738789832" lon="11.336006958045033"><ele>851.4</ele><time>2026-04-26T10:13:58Z</time></trkpt><trkpt lat="44.165473560851254" lon="11.336125341703159"><ele>851.6</ele><time>2026-04-26T10:13:59Z</time></trkpt><trkpt lat="44.1655207040222" lon="11.336204168455522"><ele>851.8</ele><time>2026-04-26T10:14:00Z</time></trkpt><trkpt lat="44.16554389212916" lon="11.33633245856887"><ele>852.0</ele><time>2026-04-26T10:14:01Z</time></trkpt><trkpt lat="44.165700888653255" lon="11.336233536546795"><ele>854.5</ele><time>2026-04-26T10:14:02Z</time></trkpt><trkpt lat="44.16581477692894" lon="11.336197467856135"><ele>857.0</ele><time>2026-04-26T10:14:03Z</time></trkpt><trkpt lat="44.16592716997107" lon="11.33612240530941"><ele>859.5</ele><time>2026-04-26T10:14:04Z</time></trkpt><trkpt lat="44.16603436958525" lon="11.336028227868612"><ele>862.0</ele><time>2026-04-26T10:14:05Z</time></trkpt><trkpt lat="44.16615867755549" lon="11.33594464381349"><ele>862.0</ele><time>2026-04-26T10:14:06Z</time></trkpt><trkpt lat="44.166292647149106" lon="11.33584297753913"><ele>862.0</ele><time>2026-04-26T10:14:07Z</time></trkpt><trkpt lat="44.16641598798262" lon="11.335731363675487"><ele>862.0</ele><time>2026-04-26T10:14:08Z</time></trkpt><trkpt lat="44.166540791110585" lon="11.33561279308792"><ele>864.0</ele><time>2026-04-26T10:14:09Z</time></trkpt><trkpt lat="44.16667247685867" lon="11.335488163162184"><ele>866.0</ele><time>2026-04-26T10:14:10Z</time></trkpt><trkpt lat="44.1668101304637" lon="11.335367010417968"><ele>868.0</ele><time>2026-04-26T10:14:11Z</time></trkpt><trkpt lat="44.166949579609074" lon="11.33524648604448"><ele>868.0</ele><time>2026-04-26T10:14:12Z</time></trkpt><trkpt lat="44.16708730663878" lon="11.335132445052965"><ele>868.0</ele><time>2026-04-26T10:14:13Z</time></trkpt><trkpt lat="44.167219583640886" lon="11.335024046783076"><ele>868.0</ele><time>2026-04-26T10:14:14Z</time></trkpt><trkpt lat="44.16734301500494" lon="11.334920510108464"><ele>869.0</ele><time>2026-04-26T10:14:15Z</time></trkpt><trkpt lat="44.16744253876811" lon="11.334811314532216"><ele>870.0</ele><time>2026-04-26T10:14:16Z</time></trkpt><trkpt lat="44.16751110338845" lon="11.334694460861035"><ele>871.0</ele><time>2026-04-26T10:14:17Z</time></trkpt><trkpt lat="44.167536493922675" lon="11.33456733898466"><ele>872.0</ele><time>2026-04-26T10:14:18Z</time></trkpt><trkpt lat="44.16756693731987" lon="11.334447031620412"><ele>873.0</ele><time>2026-04-26T10:14:19Z</time></trkpt><trkpt lat="44.16746091960735" lon="11.334283729199887"><ele>872.75</ele><time>2026-04-26T10:14:20Z</time></trkpt><trkpt lat="44.16738344053411" lon="11.334127290221723"><ele>872.5</ele><time>2026-04-26T10:14:21Z</time></trkpt><trkpt lat="44.1672937601611" lon="11.33397274996793"><ele>872.25</ele><time>2026-04-26T10:14:22Z</time></trkpt><trkpt lat="44.16723184101484" lon="11.333800173862818"><ele>872.0</ele><time>2026-04-26T10:14:23Z</time></trkpt><trkpt lat="44.16717824122683" lon="11.333653185344819"><ele>874.25</ele><time>2026-04-26T10:14:24Z</time></trkpt><trkpt lat="44.167149847977704" lon="11.333516214062822"><ele>876.5</ele><time>2026-04-26T10:14:25Z</time></trkpt><trkpt lat="44.167183745169595" lon="11.333358316281528"><ele>878.75</ele><time>2026-04-26T10:14:26Z</time></trkpt><trkpt lat="44.16728571056401" lon="11.333239283131809"><ele>881.0</ele><time>2026-04-26T10:14:27Z</time></trkpt><trkpt lat="44.16738533633423" lon="11.333092238128076"><ele>883.5</ele><time>2026-04-26T10:14:28Z</time></trkpt><trkpt lat="44.16748157495113" lon="11.332925406282124"><ele>886.0</ele><time>2026-04-26T10:14:29Z</time></trkpt><trkpt lat="44.16756782508154" lon="11.332779567934363"><ele>888.5</ele><time>2026-04-26T10:14:30Z</time></trkpt><trkpt lat="44.16766089610027" lon="11.332658443725997"><ele>891.0</ele><time>2026-04-26T10:14:31Z</time></trkpt><trkpt lat="44.16773226749675" lon="11.332539631070345"><ele>891.0</ele><time>2026-04-26T10:14:32Z</time></trkpt><trkpt lat="44.167843078658485" lon="11.332480841967433"><ele>891.0</ele><time>2026-04-26T10:14:33Z</time></trkpt><trkpt lat="44.167975528584584" lon="11.332539211818231"><ele>891.0</ele><time>2026-04-26T10:14:34Z</time></trkpt><trkpt lat="44.16812092819789" lon="11.332584276291726"><ele>891.0</ele><time>2026-04-26T10:14:35Z</time></trkpt><trkpt lat="44.16826633031497" lon="11.33264866231745"><ele>896.3333333333333</ele><time>2026-04-26T10:14:36Z</time></trkpt><trkpt lat="44.168426490802666" lon="11.332707372001655"><ele>901.6666666666666</ele><time>2026-04-26T10:14:37Z</time></trkpt><trkpt lat="44.168593371547914" lon="11.33276580693254"><ele>907.0</ele><time>2026-04-26T10:14:38Z</time></trkpt><trkpt lat="44.168767259799004" lon="11.33282482869192"><ele>907.0</ele><time>2026-04-26T10:14:39Z</time></trkpt><trkpt lat="44.1689339189686" lon="11.332874467454998"><ele>907.0</ele><time>2026-04-26T10:14:40Z</time></trkpt><trkpt lat="44.16909543244992" lon="11.332920501763907"><ele>907.0</ele><time>2026-04-26T10:14:41Z</time></trkpt><trkpt lat="44.16925830456678" lon="11.332941714644996"><ele>910.6666666666666</ele><time>2026-04-26T10:14:42Z</time></trkpt><trkpt lat="44.169425377970164" lon="11.332920820257247"><ele>914.3333333333333</ele><time>2026-04-26T10:14:43Z</time></trkpt><trkpt lat="44.169600676701926" lon="11.332837984475717"><ele>918.0</ele><time>2026-04-26T10:14:44Z</time></trkpt><trkpt lat="44.16976980029695" lon="11.332751150661704"><ele>919.75</ele><time>2026-04-26T10:14:45Z</time></trkpt><trkpt lat="44.169923413274134" lon="11.332694106623437"><ele>921.5</ele><time>2026-04-26T10:14:46Z</time></trkpt><trkpt lat="44.17006469196874" lon="11.33263598769671"><ele>923.25</ele><time>2026-04-26T10:14:47Z</time></trkpt><trkpt lat="44.170198497959774" lon="11.332591490101276"><ele>925.0</ele><time>2026-04-26T10:14:48Z</time></trkpt><trkpt lat="44.17032761923656" lon="11.332542517518547"><ele>925.0</ele><time>2026-04-26T10:14:48.999Z</time></trkpt><trkpt lat="44.17045551610305" lon="11.332543395896623"><ele>925.0</ele><time>2026-04-26T10:14:49.999Z</time></trkpt><trkpt lat="44.17056725643572" lon="11.332578964153768"><ele>925.0</ele><time>2026-04-26T10:14:50.999Z</time></trkpt><trkpt lat="44.17065247082147" lon="11.332677486785665"><ele>925.0</ele><time>2026-04-26T10:14:51.999Z</time></trkpt><trkpt lat="44.17071953552892" lon="11.332819751618112"><ele>925.25</ele><time>2026-04-26T10:14:52.999Z</time></trkpt><trkpt lat="44.17076558919584" lon="11.332976019291543"><ele>925.5</ele><time>2026-04-26T10:14:53.999Z</time></trkpt><trkpt lat="44.17079791841524" lon="11.333130549686292"><ele>925.75</ele><time>2026-04-26T10:14:54.999Z</time></trkpt><trkpt lat="44.17082692144841" lon="11.333282687174789"><ele>926.0</ele><time>2026-04-26T10:14:55.999Z</time></trkpt><trkpt lat="44.17084755204282" lon="11.333437001126157"><ele>926.0</ele><time>2026-04-26T10:14:56.999Z</time></trkpt><trkpt lat="44.170862949244636" lon="11.333589563576718"><ele>925.9999999999999</ele><time>2026-04-26T10:14:57.999Z</time></trkpt><trkpt lat="44.17088211984316" lon="11.333733079807308"><ele>925.9999999999999</ele><time>2026-04-26T10:14:58.999Z</time></trkpt><trkpt lat="44.17090851312101" lon="11.333865507097313"><ele>926.0</ele><time>2026-04-26T10:14:59.999Z</time></trkpt><trkpt lat="44.17094206487504" lon="11.334038478497858"><ele>926.0</ele><time>2026-04-26T10:15:00.999Z</time></trkpt><trkpt lat="44.17102437218103" lon="11.334214787796837"><ele>925.6666666666667</ele><time>2026-04-26T10:15:01.999Z</time></trkpt><trkpt lat="44.17112927708201" lon="11.334386548572255"><ele>925.3333333333333</ele><time>2026-04-26T10:15:02.999Z</time></trkpt><trkpt lat="44.171242617617295" lon="11.334544413847675"><ele>925.0</ele><time>2026-04-26T10:15:03.999Z</time></trkpt><trkpt lat="44.17135059731493" lon="11.3347337136426"><ele>924.3333333333333</ele><time>2026-04-26T10:15:04.999Z</time></trkpt><trkpt lat="44.171453512728505" lon="11.334919309078263"><ele>923.6666666666667</ele><time>2026-04-26T10:15:05.999Z</time></trkpt><trkpt lat="44.17155638056162" lon="11.335110214390495"><ele>923.0</ele><time>2026-04-26T10:15:06.999Z</time></trkpt><trkpt lat="44.17165364550194" lon="11.33530388779828"><ele>928.6666666666667</ele><time>2026-04-26T10:15:07.999Z</time></trkpt><trkpt lat="44.17174386410908" lon="11.335496963158938"><ele>934.3333333333333</ele><time>2026-04-26T10:15:08.999Z</time></trkpt><trkpt lat="44.17182579335969" lon="11.335691848346304"><ele>940.0</ele><time>2026-04-26T10:15:09.999Z</time></trkpt><trkpt lat="44.17190249444382" lon="11.335888342578448"><ele>940.0</ele><time>2026-04-26T10:15:10.999Z</time></trkpt><trkpt lat="44.171978680864" lon="11.336065066453482"><ele>940.0</ele><time>2026-04-26T10:15:11.999Z</time></trkpt><trkpt lat="44.17204875619681" lon="11.336223993991686"><ele>940.0</ele><time>2026-04-26T10:15:12.999Z</time></trkpt><trkpt lat="44.172118706289545" lon="11.336381196972411"><ele>940.0</ele><time>2026-04-26T10:15:13.999Z</time></trkpt><trkpt lat="44.172182127146385" lon="11.336548346321742"><ele>939.5</ele><time>2026-04-26T10:15:14.999Z</time></trkpt><trkpt lat="44.172225379194764" lon="11.336721515475364"><ele>939.0</ele><time>2026-04-26T10:15:15.999Z</time></trkpt><trkpt lat="44.17224289422048" lon="11.336911673166453"><ele>938.5</ele><time>2026-04-26T10:15:16.999Z</time></trkpt><trkpt lat="44.172244419763665" lon="11.337102717646125"><ele>938.0</ele><time>2026-04-26T10:15:17.999Z</time></trkpt><trkpt lat="44.17224982314146" lon="11.337285078545037"><ele>938.0</ele><time>2026-04-26T10:15:18.999Z</time></trkpt><trkpt lat="44.172278756729746" lon="11.337455639614937"><ele>938.0</ele><time>2026-04-26T10:15:19.999Z</time></trkpt><trkpt lat="44.17234277384864" lon="11.337610980733599"><ele>938.0</ele><time>2026-04-26T10:15:20.999Z</time></trkpt><trkpt lat="44.17241037135413" lon="11.337746803812324"><ele>938.0</ele><time>2026-04-26T10:15:21.999Z</time></trkpt><trkpt lat="44.172464661096214" lon="11.337869714923839"><ele>941.8333333333334</ele><time>2026-04-26T10:15:22.999Z</time></trkpt><trkpt lat="44.172511683156024" lon="11.337981450048341"><ele>945.6666666666667</ele><time>2026-04-26T10:15:23.999Z</time></trkpt><trkpt lat="44.172549518725006" lon="11.338080629397002"><ele>949.5</ele><time>2026-04-26T10:15:24.999Z</time></trkpt><trkpt lat="44.172582746460336" lon="11.338161360923326"><ele>953.3333333333333</ele><time>2026-04-26T10:15:25.999Z</time></trkpt><trkpt lat="44.172642533878715" lon="11.33828476671598"><ele>957.1666666666666</ele><time>2026-04-26T10:15:27.999Z</time></trkpt><trkpt lat="44.17270526399898" lon="11.338350823000198"><ele>961.0</ele><time>2026-04-26T10:15:30Z</time></trkpt><trkpt lat="44.17275050638871" lon="11.338424667774069"><ele>961.0</ele><time>2026-04-26T10:15:32Z</time></trkpt><trkpt lat="44.17281642903776" lon="11.33839256233137"><ele>960.9999999999999</ele><time>2026-04-26T10:15:33Z</time></trkpt><trkpt lat="44.17289648331566" lon="11.33840908501736"><ele>961.0</ele><time>2026-04-26T10:15:35Z</time></trkpt><trkpt lat="44.17298281765428" lon="11.338421737259704"><ele>961.0</ele><time>2026-04-26T10:15:37Z</time></trkpt><trkpt lat="44.1730074350522" lon="11.338506118431967"><ele>960.9999999999999</ele><time>2026-04-26T10:17:33.998Z</time></trkpt><trkpt lat="44.172971392821694" lon="11.338581478115286"><ele>961.0</ele><time>2026-04-26T10:17:49Z</time></trkpt><trkpt lat="44.17295092838218" lon="11.338667774097859"><ele>961.0</ele><time>2026-04-26T10:17:58Z</time></trkpt><trkpt lat="44.172903342133736" lon="11.338732830080493"><ele>961.0</ele><time>2026-04-26T10:18:06Z</time></trkpt><trkpt lat="44.17286215948947" lon="11.338800705776634"><ele>960.9999999999999</ele><time>2026-04-26T10:18:13Z</time></trkpt><trkpt lat="44.172796550962275" lon="11.338814702026442"><ele>961.0</ele><time>2026-04-26T10:18:23Z</time></trkpt><trkpt lat="44.17275109525908" lon="11.338881815086825"><ele>961.0</ele><time>2026-04-26T10:18:31.999Z</time></trkpt><trkpt lat="44.1727285780646" lon="11.338972841706902"><ele>960.9999999999999</ele><time>2026-04-26T10:18:41.999Z</time></trkpt><trkpt lat="44.17281065530859" lon="11.338870685197675"><ele>961.0</ele><time>2026-04-26T10:19:25.053Z</time></trkpt><trkpt lat="44.17284747358915" lon="11.338786073449938"><ele>961.0</ele><time>2026-04-26T10:25:43Z</time></trkpt><trkpt lat="44.17287963321824" lon="11.338696377285363"><ele>961.0</ele><time>2026-04-26T10:25:56Z</time></trkpt><trkpt lat="44.172911378864306" lon="11.33861402410675"><ele>961.0</ele><time>2026-04-26T10:26:03Z</time></trkpt></trkseg><trkseg><trkpt lat="44.173004160478115" lon="11.338428602560862"><ele>961.0</ele><time>2026-04-26T10:53:37.999Z</time></trkpt><trkpt lat="44.17308332998093" lon="11.338418606857998"><ele>960.9999999999999</ele><time>2026-04-26T10:53:41.999Z</time></trkpt><trkpt lat="44.17307827830479" lon="11.338315950364336"><ele>960.9999999999999</ele><time>2026-04-26T10:53:45.999Z</time></trkpt><trkpt lat="44.17298755638294" lon="11.338310121868805"><ele>961.0</ele><time>2026-04-26T10:53:47.999Z</time></trkpt><trkpt lat="44.172884417074705" lon="11.338333688940258"><ele>961.0</ele><time>2026-04-26T10:53:49.999Z</time></trkpt><trkpt lat="44.172767548132704" lon="11.338305471739023"><ele>961.0</ele><time>2026-04-26T10:53:51.999Z</time></trkpt><trkpt lat="44.1726438105963" lon="11.338214290382906"><ele>960.9999999999999</ele><time>2026-04-26T10:53:53.999Z</time></trkpt><trkpt lat="44.17259991780529" lon="11.338094837040412"><ele>960.9999999999999</ele><time>2026-04-26T10:53:54.999Z</time></trkpt><trkpt lat="44.17255049095751" lon="11.337970200779244"><ele>961.0</ele><time>2026-04-26T10:53:55.999Z</time></trkpt><trkpt lat="44.17249735005528" lon="11.337838560037193"><ele>961.0</ele><time>2026-04-26T10:53:56.999Z</time></trkpt><trkpt lat="44.17242797823573" lon="11.33770732737697"><ele>961.0</ele><time>2026-04-26T10:53:57.999Z</time></trkpt><trkpt lat="44.17236136047591" lon="11.337539307767228"><ele>961.0</ele><time>2026-04-26T10:53:58.999Z</time></trkpt><trkpt lat="44.17229941431407" lon="11.337382623000705"><ele>961.0</ele><time>2026-04-26T10:53:59.999Z</time></trkpt><trkpt lat="44.17226901555836" lon="11.337219828023848"><ele>961.0</ele><time>2026-04-26T10:54:00.999Z</time></trkpt><trkpt lat="44.172263057256444" lon="11.337063104818712"><ele>955.25</ele><time>2026-04-26T10:54:01.999Z</time></trkpt><trkpt lat="44.172245034503675" lon="11.336901104408962"><ele>949.5</ele><time>2026-04-26T10:54:02.999Z</time></trkpt><trkpt lat="44.172240177431334" lon="11.336743362705977"><ele>943.75</ele><time>2026-04-26T10:54:03.999Z</time></trkpt><trkpt lat="44.1722070517807" lon="11.336589966967503"><ele>938.0</ele><time>2026-04-26T10:54:04.999Z</time></trkpt><trkpt lat="44.17217340462024" lon="11.336427282553707"><ele>938.5</ele><time>2026-04-26T10:54:05.999Z</time></trkpt><trkpt lat="44.17210402215992" lon="11.33628362627361"><ele>939.0</ele><time>2026-04-26T10:54:06.999Z</time></trkpt><trkpt lat="44.172040357709164" lon="11.336139152581444"><ele>939.5</ele><time>2026-04-26T10:54:07.999Z</time></trkpt><trkpt lat="44.17197285036909" lon="11.335991501173698"><ele>940.0</ele><time>2026-04-26T10:54:08.999Z</time></trkpt><trkpt lat="44.17190156956214" lon="11.335831883065183"><ele>940.0</ele><time>2026-04-26T10:54:09.999Z</time></trkpt><trkpt lat="44.171829604783674" lon="11.33566551808055"><ele>940.0</ele><time>2026-04-26T10:54:10.999Z</time></trkpt><trkpt lat="44.17175970273273" lon="11.335488362014484"><ele>940.0</ele><time>2026-04-26T10:54:11.999Z</time></trkpt><trkpt lat="44.17168554000126" lon="11.335313355841993"><ele>940.0</ele><time>2026-04-26T10:54:12.999Z</time></trkpt><trkpt lat="44.171609320321274" lon="11.335137022557657"><ele>936.25</ele><time>2026-04-26T10:54:13.999Z</time></trkpt><trkpt lat="44.1715179688233" lon="11.334974367759317"><ele>932.5</ele><time>2026-04-26T10:54:14.999Z</time></trkpt><trkpt lat="44.17142374610345" lon="11.334814180746996"><ele>928.75</ele><time>2026-04-26T10:54:15.999Z</time></trkpt><trkpt lat="44.171327404643186" lon="11.334659671769453"><ele>925.0</ele><time>2026-04-26T10:54:16.999Z</time></trkpt><trkpt lat="44.171231311122646" lon="11.334509827785439"><ele>925.0</ele><time>2026-04-26T10:54:17.999Z</time></trkpt><trkpt lat="44.1711518244168" lon="11.334351995051472"><ele>925.0</ele><time>2026-04-26T10:54:18.999Z</time></trkpt><trkpt lat="44.17106297156084" lon="11.334207249117354"><ele>925.0</ele><time>2026-04-26T10:54:19.999Z</time></trkpt><trkpt lat="44.17098525094783" lon="11.334053795842749"><ele>925.0</ele><time>2026-04-26T10:54:20.999Z</time></trkpt><trkpt lat="44.170934072771615" lon="11.333878224072702"><ele>925.25</ele><time>2026-04-26T10:54:21.999Z</time></trkpt><trkpt lat="44.1709091247839" lon="11.333692927684623"><ele>925.5</ele><time>2026-04-26T10:54:22.999Z</time></trkpt><trkpt lat="44.17088453970768" lon="11.333504485384989"><ele>925.75</ele><time>2026-04-26T10:54:23.999Z</time></trkpt><trkpt lat="44.17084852361883" lon="11.333319659755304"><ele>926.0</ele><time>2026-04-26T10:54:24.999Z</time></trkpt><trkpt lat="44.17082337300816" lon="11.333139501207844"><ele>925.8</ele><time>2026-04-26T10:54:25.999Z</time></trkpt><trkpt lat="44.17078523535804" lon="11.332973468754668"><ele>925.5999999999999</ele><time>2026-04-26T10:54:26.999Z</time></trkpt><trkpt lat="44.170739962643864" lon="11.332828569807768"><ele>925.4</ele><time>2026-04-26T10:54:27.999Z</time></trkpt><trkpt lat="44.17068754358853" lon="11.33270090397588"><ele>925.2</ele><time>2026-04-26T10:54:28.999Z</time></trkpt><trkpt lat="44.17061654243559" lon="11.332592357592759"><ele>925.0</ele><time>2026-04-26T10:54:29.999Z</time></trkpt><trkpt lat="44.17051692779583" lon="11.332520063316613"><ele>925.0</ele><time>2026-04-26T10:54:30.999Z</time></trkpt><trkpt lat="44.17039289264302" lon="11.332500277785075"><ele>925.0</ele><time>2026-04-26T10:54:31.999Z</time></trkpt><trkpt lat="44.17026076641142" lon="11.33251691155076"><ele>925.0</ele><time>2026-04-26T10:54:32.999Z</time></trkpt><trkpt lat="44.170118997968764" lon="11.33257185230173"><ele>925.0</ele><time>2026-04-26T10:54:33.999Z</time></trkpt><trkpt lat="44.16996421239387" lon="11.332644573904842"><ele>923.25</ele><time>2026-04-26T10:54:34.999Z</time></trkpt><trkpt lat="44.169814431293624" lon="11.332705666366182"><ele>921.5</ele><time>2026-04-26T10:54:35.999Z</time></trkpt><trkpt lat="44.169667393914615" lon="11.332752886145322"><ele>919.75</ele><time>2026-04-26T10:54:36.999Z</time></trkpt><trkpt lat="44.16954328309627" lon="11.332820064694424"><ele>918.0</ele><time>2026-04-26T10:54:37.999Z</time></trkpt><trkpt lat="44.16940041597598" lon="11.332870102007254"><ele>918.0</ele><time>2026-04-26T10:54:38.999Z</time></trkpt><trkpt lat="44.16923878836651" lon="11.33290439056896"><ele>918.0</ele><time>2026-04-26T10:54:39.999Z</time></trkpt><trkpt lat="44.169083357908285" lon="11.332872290797523"><ele>918.0</ele><time>2026-04-26T10:54:40.999Z</time></trkpt><trkpt lat="44.16892139694333" lon="11.332838581930613"><ele>914.3333333333333</ele><time>2026-04-26T10:54:41.999Z</time></trkpt><trkpt lat="44.16875174219998" lon="11.332794555418447"><ele>910.6666666666666</ele><time>2026-04-26T10:54:42.999Z</time></trkpt><trkpt lat="44.16858583168833" lon="11.332732545023815"><ele>907.0</ele><time>2026-04-26T10:54:43.999Z</time></trkpt><trkpt lat="44.16843191612365" lon="11.332679384636432"><ele>907.0</ele><time>2026-04-26T10:54:44.999Z</time></trkpt><trkpt lat="44.16829365196437" lon="11.332633720525822"><ele>907.0</ele><time>2026-04-26T10:54:45.999Z</time></trkpt><trkpt lat="44.168169746903054" lon="11.332576301132718"><ele>907.0</ele><time>2026-04-26T10:54:46.999Z</time></trkpt><trkpt lat="44.1680532633647" lon="11.332538349309484"><ele>907.0</ele><time>2026-04-26T10:54:47.999Z</time></trkpt><trkpt lat="44.16794772495634" lon="11.332494848632113"><ele>903.8</ele><time>2026-04-26T10:54:48.999Z</time></trkpt><trkpt lat="44.167852129723684" lon="11.332467242282428"><ele>900.6</ele><time>2026-04-26T10:54:49.999Z</time></trkpt><trkpt lat="44.16775631491479" lon="11.332483780281855"><ele>897.3999999999999</ele><time>2026-04-26T10:54:50.999Z</time></trkpt><trkpt lat="44.16766172575703" lon="11.332565346163797"><ele>894.1999999999999</ele><time>2026-04-26T10:54:51.999Z</time></trkpt><trkpt lat="44.16757365313111" lon="11.33270921110201"><ele>891.0</ele><time>2026-04-26T10:54:52.999Z</time></trkpt><trkpt lat="44.16748981816456" lon="11.332878922008153"><ele>891.0</ele><time>2026-04-26T10:54:53.999Z</time></trkpt><trkpt lat="44.16739567104219" lon="11.33302780364569"><ele>891.0</ele><time>2026-04-26T10:54:54.999Z</time></trkpt><trkpt lat="44.1672994694062" lon="11.33316436003401"><ele>891.0</ele><time>2026-04-26T10:54:55.999Z</time></trkpt><trkpt lat="44.167215834288356" lon="11.333284242000815"><ele>891.0</ele><time>2026-04-26T10:54:56.999Z</time></trkpt><trkpt lat="44.16715275771837" lon="11.333394112461166"><ele>888.5</ele><time>2026-04-26T10:54:57.999Z</time></trkpt><trkpt lat="44.16712388009501" lon="11.333521945003463"><ele>886.0</ele><time>2026-04-26T10:54:58.999Z</time></trkpt><trkpt lat="44.16713149711873" lon="11.333674849356063"><ele>883.5</ele><time>2026-04-26T10:54:59.999Z</time></trkpt><trkpt lat="44.16717713024463" lon="11.333832035579984"><ele>881.0</ele><time>2026-04-26T10:55:00.999Z</time></trkpt><trkpt lat="44.16725232916717" lon="11.333983720187367"><ele>880.75</ele><time>2026-04-26T10:55:01.999Z</time></trkpt><trkpt lat="44.167343486012875" lon="11.334122172718034"><ele>880.5</ele><time>2026-04-26T10:55:02.999Z</time></trkpt><trkpt lat="44.1674198331063" lon="11.334264333581345"><ele>880.25</ele><time>2026-04-26T10:55:03.999Z</time></trkpt><trkpt lat="44.16747277976035" lon="11.334385959031207"><ele>880.0</ele><time>2026-04-26T10:55:04.999Z</time></trkpt><trkpt lat="44.16750621362538" lon="11.33449873328714"><ele>880.0</ele><time>2026-04-26T10:55:05.999Z</time></trkpt><trkpt lat="44.167498854400925" lon="11.334627721522663"><ele>880.0</ele><time>2026-04-26T10:55:06.999Z</time></trkpt><trkpt lat="44.16746510940264" lon="11.33475542901246"><ele>880.0</ele><time>2026-04-26T10:55:07.999Z</time></trkpt><trkpt lat="44.16736830845479" lon="11.334844177834782"><ele>880.0</ele><time>2026-04-26T10:55:08.999Z</time></trkpt><trkpt lat="44.16726191986252" lon="11.334934458968169"><ele>880.0</ele><time>2026-04-26T10:55:09.999Z</time></trkpt><trkpt lat="44.16715241859354" lon="11.335051808744566"><ele>877.0</ele><time>2026-04-26T10:55:10.999Z</time></trkpt><trkpt lat="44.167029591112" lon="11.335157890690734"><ele>874.0</ele><time>2026-04-26T10:55:11.999Z</time></trkpt><trkpt lat="44.166903951459574" lon="11.33526138173281"><ele>871.0</ele><time>2026-04-26T10:55:12.999Z</time></trkpt><trkpt lat="44.16676989458452" lon="11.335370821673902"><ele>868.0</ele><time>2026-04-26T10:55:13.999Z</time></trkpt><trkpt lat="44.16663517457766" lon="11.335494580115009"><ele>866.0</ele><time>2026-04-26T10:55:14.999Z</time></trkpt><trkpt lat="44.166499849454496" lon="11.33561298263425"><ele>864.0</ele><time>2026-04-26T10:55:15.999Z</time></trkpt><trkpt lat="44.16636951415395" lon="11.335730922856843"><ele>862.0</ele><time>2026-04-26T10:55:16.999Z</time></trkpt><trkpt lat="44.166246579490576" lon="11.335841812345336"><ele>862.0</ele><time>2026-04-26T10:55:17.999Z</time></trkpt><trkpt lat="44.1661290668008" lon="11.335949976880794"><ele>862.0</ele><time>2026-04-26T10:55:18.999Z</time></trkpt><trkpt lat="44.16601341432396" lon="11.336038694570565"><ele>862.0</ele><time>2026-04-26T10:55:19.999Z</time></trkpt><trkpt lat="44.165891687485434" lon="11.336115685729762"><ele>862.0</ele><time>2026-04-26T10:55:20.999Z</time></trkpt><trkpt lat="44.165770576927294" lon="11.336149843486371"><ele>860.0</ele><time>2026-04-26T10:55:21.999Z</time></trkpt><trkpt lat="44.16566479358468" lon="11.336174864142858"><ele>858.0</ele><time>2026-04-26T10:55:22.999Z</time></trkpt><trkpt lat="44.16557572953225" lon="11.336197579759556"><ele>856.0</ele><time>2026-04-26T10:55:23.999Z</time></trkpt><trkpt lat="44.165500194182165" lon="11.336130904757646"><ele>854.0</ele><time>2026-04-26T10:55:24.999Z</time></trkpt><trkpt lat="44.1654480832865" lon="11.336068708490227"><ele>852.0</ele><time>2026-04-26T10:55:25.999Z</time></trkpt><trkpt lat="44.165454035976516" lon="11.33593064736771"><ele>852.0</ele><time>2026-04-26T10:55:26.999Z</time></trkpt><trkpt lat="44.16544801582386" lon="11.335777719566632"><ele>852.0</ele><time>2026-04-26T10:55:27.999Z</time></trkpt><trkpt lat="44.16541739807789" lon="11.335605694804302"><ele>852.0</ele><time>2026-04-26T10:55:28.999Z</time></trkpt><trkpt lat="44.16540453613928" lon="11.335423349003783"><ele>852.0</ele><time>2026-04-26T10:55:29.999Z</time></trkpt><trkpt lat="44.165377428292565" lon="11.33524677436895"><ele>851.75</ele><time>2026-04-26T10:55:30.999Z</time></trkpt><trkpt lat="44.165358604378326" lon="11.335062484035564"><ele>851.5</ele><time>2026-04-26T10:55:31.999Z</time></trkpt><trkpt lat="44.16528000941466" lon="11.334886928140325"><ele>851.25</ele><time>2026-04-26T10:55:32.999Z</time></trkpt><trkpt lat="44.16517854557409" lon="11.334735455941098"><ele>851.0</ele><time>2026-04-26T10:55:33.999Z</time></trkpt><trkpt lat="44.16508004183561" lon="11.33458620705972"><ele>850.5</ele><time>2026-04-26T10:55:34.999Z</time></trkpt><trkpt lat="44.16498522534546" lon="11.334442959419286"><ele>850.0</ele><time>2026-04-26T10:55:35.999Z</time></trkpt><trkpt lat="44.1648968088633" lon="11.334309311590571"><ele>849.5</ele><time>2026-04-26T10:55:36.999Z</time></trkpt><trkpt lat="44.16479635987576" lon="11.334201142846796"><ele>849.0</ele><time>2026-04-26T10:55:37.999Z</time></trkpt><trkpt lat="44.164712894957724" lon="11.334073240175973"><ele>849.0</ele><time>2026-04-26T10:55:38.999Z</time></trkpt><trkpt lat="44.164638554603506" lon="11.33393932908627"><ele>849.0</ele><time>2026-04-26T10:55:39.999Z</time></trkpt><trkpt lat="44.164582228659086" lon="11.333791446948315"><ele>849.0</ele><time>2026-04-26T10:55:40.999Z</time></trkpt><trkpt lat="44.16454369002062" lon="11.333628724355473"><ele>849.0</ele><time>2026-04-26T10:55:41.999Z</time></trkpt><trkpt lat="44.164512028624145" lon="11.333446062736385"><ele>848.5</ele><time>2026-04-26T10:55:42.999Z</time></trkpt><trkpt lat="44.16448210228272" lon="11.333262248712131"><ele>848.0</ele><time>2026-04-26T10:55:43.999Z</time></trkpt><trkpt lat="44.164445291999414" lon="11.333092236527097"><ele>847.5</ele><time>2026-04-26T10:55:44.999Z</time></trkpt><trkpt lat="44.16437968150999" lon="11.332958662471158"><ele>847.0</ele><time>2026-04-26T10:55:45.999Z</time></trkpt><trkpt lat="44.16428260580314" lon="11.332840966635473"><ele>847.0</ele><time>2026-04-26T10:55:46.999Z</time></trkpt><trkpt lat="44.16419028617121" lon="11.332697879022508"><ele>847.0</ele><time>2026-04-26T10:55:47.999Z</time></trkpt><trkpt lat="44.16409473597311" lon="11.332547847597793"><ele>847.0</ele><time>2026-04-26T10:55:48.999Z</time></trkpt><trkpt lat="44.16400400475077" lon="11.332374496803304"><ele>847.0</ele><time>2026-04-26T10:55:49.999Z</time></trkpt><trkpt lat="44.163910636724026" lon="11.332197966776697"><ele>848.3333333333333</ele><time>2026-04-26T10:55:50.999Z</time></trkpt><trkpt lat="44.1638023324799" lon="11.33201607227311"><ele>849.6666666666667</ele><time>2026-04-26T10:55:51.999Z</time></trkpt><trkpt lat="44.163700284668174" lon="11.33186919967933"><ele>851.0</ele><time>2026-04-26T10:55:52.999Z</time></trkpt><trkpt lat="44.16355613046689" lon="11.331768348664095"><ele>851.0</ele><time>2026-04-26T10:55:53.999Z</time></trkpt><trkpt lat="44.16342439151142" lon="11.331666054245767"><ele>851.0</ele><time>2026-04-26T10:55:54.999Z</time></trkpt><trkpt lat="44.16329232293099" lon="11.331567826777631"><ele>851.0</ele><time>2026-04-26T10:55:55.999Z</time></trkpt><trkpt lat="44.1631601033839" lon="11.331483934287139"><ele>851.0</ele><time>2026-04-26T10:55:56.999Z</time></trkpt><trkpt lat="44.16303804973202" lon="11.33140122686639"><ele>851.5999999999999</ele><time>2026-04-26T10:55:57.999Z</time></trkpt><trkpt lat="44.16294571260898" lon="11.331274294203668"><ele>852.2</ele><time>2026-04-26T10:55:58.999Z</time></trkpt><trkpt lat="44.16286124469221" lon="11.331170710942121"><ele>852.8000000000001</ele><time>2026-04-26T10:55:59.999Z</time></trkpt><trkpt lat="44.16282407985539" lon="11.331042090824049"><ele>853.4000000000001</ele><time>2026-04-26T10:56:00.999Z</time></trkpt><trkpt lat="44.16280392077719" lon="11.330909089660173"><ele>854.0</ele><time>2026-04-26T10:56:01.999Z</time></trkpt><trkpt lat="44.1628538438264" lon="11.330759417297392"><ele>854.0</ele><time>2026-04-26T10:56:02.999Z</time></trkpt><trkpt lat="44.16285818520214" lon="11.330587538701149"><ele>854.0</ele><time>2026-04-26T10:56:03.999Z</time></trkpt><trkpt lat="44.1628766779081" lon="11.33041391543622"><ele>854.0</ele><time>2026-04-26T10:56:04.999Z</time></trkpt><trkpt lat="44.16288285825278" lon="11.330229855295872"><ele>854.0</ele><time>2026-04-26T10:56:05.999Z</time></trkpt><trkpt lat="44.162831567843526" lon="11.330043778584866"><ele>857.6666666666667</ele><time>2026-04-26T10:56:06.999Z</time></trkpt><trkpt lat="44.16272065520267" lon="11.329894911430898"><ele>861.3333333333333</ele><time>2026-04-26T10:56:07.999Z</time></trkpt><trkpt lat="44.16261061978852" lon="11.329757273525503"><ele>865.0</ele><time>2026-04-26T10:56:09Z</time></trkpt><trkpt lat="44.16247013642597" lon="11.329680730951871"><ele>870.3333333333333</ele><time>2026-04-26T10:56:10Z</time></trkpt><trkpt lat="44.16231279516551" lon="11.329668854129554"><ele>875.6666666666667</ele><time>2026-04-26T10:56:11Z</time></trkpt><trkpt lat="44.16214940465374" lon="11.329672462562222"><ele>881.0</ele><time>2026-04-26T10:56:12Z</time></trkpt><trkpt lat="44.16199442883501" lon="11.329631359914313"><ele>881.0</ele><time>2026-04-26T10:56:13Z</time></trkpt><trkpt lat="44.16184398697341" lon="11.329581048292745"><ele>881.0</ele><time>2026-04-26T10:56:14Z</time></trkpt><trkpt lat="44.1616997616732" lon="11.32950238694378"><ele>881.0</ele><time>2026-04-26T10:56:15Z</time></trkpt><trkpt lat="44.16156673732843" lon="11.329406991584237"><ele>881.25</ele><time>2026-04-26T10:56:16Z</time></trkpt><trkpt lat="44.16145961868014" lon="11.32929223600244"><ele>881.5</ele><time>2026-04-26T10:56:17Z</time></trkpt><trkpt lat="44.16137005814698" lon="11.329151296761887"><ele>881.75</ele><time>2026-04-26T10:56:18Z</time></trkpt><trkpt lat="44.16133869850946" lon="11.328948592674907"><ele>882.0</ele><time>2026-04-26T10:56:19Z</time></trkpt><trkpt lat="44.161311153610534" lon="11.328734710149206"><ele>882.0</ele><time>2026-04-26T10:56:20Z</time></trkpt><trkpt lat="44.161305782171" lon="11.328496337599784"><ele>882.0</ele><time>2026-04-26T10:56:21Z</time></trkpt><trkpt lat="44.161275891080905" lon="11.328264410966593"><ele>882.0</ele><time>2026-04-26T10:56:22Z</time></trkpt><trkpt lat="44.16125756240508" lon="11.328042710333882"><ele>882.3333333333333</ele><time>2026-04-26T10:56:23Z</time></trkpt><trkpt lat="44.16120518128729" lon="11.327831614476242"><ele>882.6666666666666</ele><time>2026-04-26T10:56:24Z</time></trkpt><trkpt lat="44.16107269856781" lon="11.327624891166023"><ele>883.0</ele><time>2026-04-26T10:56:25Z</time></trkpt><trkpt lat="44.160995738718704" lon="11.327405209565454"><ele>884.6666666666666</ele><time>2026-04-26T10:56:26Z</time></trkpt><trkpt lat="44.16090523115756" lon="11.327180640721185"><ele>886.3333333333333</ele><time>2026-04-26T10:56:27Z</time></trkpt><trkpt lat="44.16080421017209" lon="11.326958721794114"><ele>888.0</ele><time>2026-04-26T10:56:28Z</time></trkpt><trkpt lat="44.160719013933075" lon="11.326725354783827"><ele>886.0</ele><time>2026-04-26T10:56:29Z</time></trkpt><trkpt lat="44.1606284100941" lon="11.326493771640903"><ele>884.0</ele><time>2026-04-26T10:56:30Z</time></trkpt><trkpt lat="44.160542743481756" lon="11.326262615607597"><ele>882.0</ele><time>2026-04-26T10:56:31Z</time></trkpt><trkpt lat="44.160466073367324" lon="11.326038675151926"><ele>882.0</ele><time>2026-04-26T10:56:32Z</time></trkpt><trkpt lat="44.16039382094316" lon="11.32581866988305"><ele>882.0</ele><time>2026-04-26T10:56:33Z</time></trkpt><trkpt lat="44.160324016077396" lon="11.325593609194772"><ele>882.0</ele><time>2026-04-26T10:56:34Z</time></trkpt><trkpt lat="44.160254742054455" lon="11.325368871408115"><ele>884.6666666666667</ele><time>2026-04-26T10:56:35Z</time></trkpt><trkpt lat="44.160187003016524" lon="11.325142260735854"><ele>887.3333333333334</ele><time>2026-04-26T10:56:36Z</time></trkpt><trkpt lat="44.160121796542995" lon="11.324912226754527"><ele>890.0</ele><time>2026-04-26T10:56:37Z</time></trkpt><trkpt lat="44.16004539910164" lon="11.324687327740158"><ele>893.0</ele><time>2026-04-26T10:56:38Z</time></trkpt><trkpt lat="44.159992184967486" lon="11.324458127037712"><ele>896.0</ele><time>2026-04-26T10:56:39Z</time></trkpt><trkpt lat="44.15993539790685" lon="11.3242431954774"><ele>899.0</ele><time>2026-04-26T10:56:40Z</time></trkpt><trkpt lat="44.15987297479208" lon="11.324047600461988"><ele>899.0</ele><time>2026-04-26T10:56:41Z</time></trkpt><trkpt lat="44.159781600174156" lon="11.323882646385854"><ele>899.0</ele><time>2026-04-26T10:56:42Z</time></trkpt><trkpt lat="44.15966343689545" lon="11.32373571181566"><ele>899.0</ele><time>2026-04-26T10:56:43Z</time></trkpt><trkpt lat="44.159523265427005" lon="11.323621844100098"><ele>899.0</ele><time>2026-04-26T10:56:44Z</time></trkpt><trkpt lat="44.15936408440156" lon="11.323529916613184"><ele>899.0</ele><time>2026-04-26T10:56:45Z</time></trkpt><trkpt lat="44.159198742327575" lon="11.323455478008935"><ele>899.0</ele><time>2026-04-26T10:56:46Z</time></trkpt><trkpt lat="44.15905828658192" lon="11.323343229930645"><ele>898.0</ele><time>2026-04-26T10:56:47Z</time></trkpt><trkpt lat="44.15893189562657" lon="11.323210828139068"><ele>897.0</ele><time>2026-04-26T10:56:48Z</time></trkpt><trkpt lat="44.158810787610676" lon="11.32304403007475"><ele>896.0</ele><time>2026-04-26T10:56:49Z</time></trkpt><trkpt lat="44.15866489884435" lon="11.322911993357685"><ele>899.0</ele><time>2026-04-26T10:56:50Z</time></trkpt><trkpt lat="44.15851831659244" lon="11.322789865497478"><ele>902.0</ele><time>2026-04-26T10:56:51Z</time></trkpt><trkpt lat="44.1583671347731" lon="11.322699288110377"><ele>905.0</ele><time>2026-04-26T10:56:52Z</time></trkpt><trkpt lat="44.15822261286673" lon="11.322635992710033"><ele>905.3333333333334</ele><time>2026-04-26T10:56:53Z</time></trkpt><trkpt lat="44.15807442520416" lon="11.322626699007367"><ele>905.6666666666667</ele><time>2026-04-26T10:56:54Z</time></trkpt><trkpt lat="44.15792422317684" lon="11.322687013300026"><ele>906.0</ele><time>2026-04-26T10:56:55Z</time></trkpt><trkpt lat="44.15778093199893" lon="11.322796813737476"><ele>906.0</ele><time>2026-04-26T10:56:56Z</time></trkpt><trkpt lat="44.15764898010013" lon="11.322942088229448"><ele>906.0</ele><time>2026-04-26T10:56:57Z</time></trkpt><trkpt lat="44.15753288883575" lon="11.323098863746985"><ele>906.0</ele><time>2026-04-26T10:56:58Z</time></trkpt><trkpt lat="44.157418270271656" lon="11.323226650713954"><ele>904.75</ele><time>2026-04-26T10:56:59Z</time></trkpt><trkpt lat="44.157284975504275" lon="11.323300656249895"><ele>903.5</ele><time>2026-04-26T10:57:00Z</time></trkpt><trkpt lat="44.157138069759995" lon="11.323370600971753"><ele>902.25</ele><time>2026-04-26T10:57:01Z</time></trkpt><trkpt lat="44.156991779900345" lon="11.32341192620727"><ele>901.0</ele><time>2026-04-26T10:57:02Z</time></trkpt><trkpt lat="44.156839100372856" lon="11.323371854098385"><ele>901.0</ele><time>2026-04-26T10:57:03Z</time></trkpt><trkpt lat="44.156687846293856" lon="11.323302264048055"><ele>901.0</ele><time>2026-04-26T10:57:04Z</time></trkpt><trkpt lat="44.156537331251776" lon="11.323232568633262"><ele>901.0</ele><time>2026-04-26T10:57:05Z</time></trkpt><trkpt lat="44.156382720981405" lon="11.323187444260068"><ele>900.3333333333333</ele><time>2026-04-26T10:57:06Z</time></trkpt><trkpt lat="44.15623566758946" lon="11.323138436932949"><ele>899.6666666666667</ele><time>2026-04-26T10:57:07Z</time></trkpt><trkpt lat="44.15608734084187" lon="11.323137594913057"><ele>899.0</ele><time>2026-04-26T10:57:08Z</time></trkpt><trkpt lat="44.155935660169085" lon="11.323197861420976"><ele>899.0</ele><time>2026-04-26T10:57:09Z</time></trkpt><trkpt lat="44.15578769907844" lon="11.323304750413206"><ele>899.0</ele><time>2026-04-26T10:57:10Z</time></trkpt><trkpt lat="44.15565579592249" lon="11.32345753391968"><ele>899.0</ele><time>2026-04-26T10:57:11Z</time></trkpt><trkpt lat="44.15554341957457" lon="11.323654477458614"><ele>897.6666666666667</ele><time>2026-04-26T10:57:12Z</time></trkpt><trkpt lat="44.15544768544855" lon="11.323866428556853"><ele>896.3333333333333</ele><time>2026-04-26T10:57:13Z</time></trkpt><trkpt lat="44.15534348793254" lon="11.324073624040679"><ele>895.0</ele><time>2026-04-26T10:57:14Z</time></trkpt><trkpt lat="44.15519463418704" lon="11.324219465238937"><ele>895.0</ele><time>2026-04-26T10:57:15Z</time></trkpt><trkpt lat="44.1550378722456" lon="11.324374239707165"><ele>895.0</ele><time>2026-04-26T10:57:16Z</time></trkpt><trkpt lat="44.154903908348004" lon="11.324547342745642"><ele>895.0</ele><time>2026-04-26T10:57:17Z</time></trkpt><trkpt lat="44.154786571112616" lon="11.32473000658242"><ele>894.0</ele><time>2026-04-26T10:57:18Z</time></trkpt><trkpt lat="44.15470541750478" lon="11.32492638459116"><ele>893.0</ele><time>2026-04-26T10:57:19Z</time></trkpt><trkpt lat="44.15462244377157" lon="11.325081651408755"><ele>892.0</ele><time>2026-04-26T10:57:20Z</time></trkpt><trkpt lat="44.15451817195275" lon="11.325156080642554"><ele>891.0</ele><time>2026-04-26T10:57:21Z</time></trkpt><trkpt lat="44.15438990416443" lon="11.325173410014463"><ele>891.0</ele><time>2026-04-26T10:57:22Z</time></trkpt><trkpt lat="44.154254547005934" lon="11.325145591710209"><ele>891.0</ele><time>2026-04-26T10:57:23Z</time></trkpt><trkpt lat="44.154100317279095" lon="11.325096549166322"><ele>891.0</ele><time>2026-04-26T10:57:24Z</time></trkpt><trkpt lat="44.15393990806242" lon="11.325021804544807"><ele>892.6666666666667</ele><time>2026-04-26T10:57:25Z</time></trkpt><trkpt lat="44.15379145239416" lon="11.324916708505022"><ele>894.3333333333334</ele><time>2026-04-26T10:57:26Z</time></trkpt><trkpt lat="44.153654729929976" lon="11.324792798397384"><ele>896.0</ele><time>2026-04-26T10:57:27Z</time></trkpt><trkpt lat="44.153514574166294" lon="11.324668176137742"><ele>896.0</ele><time>2026-04-26T10:57:28Z</time></trkpt><trkpt lat="44.15336183796139" lon="11.324573651415678"><ele>896.0</ele><time>2026-04-26T10:57:29Z</time></trkpt><trkpt lat="44.15321984886776" lon="11.324475335715"><ele>896.0</ele><time>2026-04-26T10:57:30Z</time></trkpt><trkpt lat="44.15307431834399" lon="11.32440469891265"><ele>898.6666666666667</ele><time>2026-04-26T10:57:31Z</time></trkpt><trkpt lat="44.152920431449516" lon="11.324384747408663"><ele>901.3333333333333</ele><time>2026-04-26T10:57:32Z</time></trkpt><trkpt lat="44.15276365630745" lon="11.32441927340157"><ele>904.0</ele><time>2026-04-26T10:57:33Z</time></trkpt><trkpt lat="44.152615021360766" lon="11.324519637769688"><ele>904.0</ele><time>2026-04-26T10:57:34Z</time></trkpt><trkpt lat="44.15247433415775" lon="11.324670789401047"><ele>904.0</ele><time>2026-04-26T10:57:34.999Z</time></trkpt><trkpt lat="44.15233155896543" lon="11.324816301138958"><ele>904.0</ele><time>2026-04-26T10:57:35.999Z</time></trkpt><trkpt lat="44.152179210947224" lon="11.324954441979894"><ele>902.3333333333333</ele><time>2026-04-26T10:57:36.999Z</time></trkpt><trkpt lat="44.15202552378352" lon="11.325085613908424"><ele>900.6666666666667</ele><time>2026-04-26T10:57:37.999Z</time></trkpt><trkpt lat="44.151867694277655" lon="11.325222763707584"><ele>899.0</ele><time>2026-04-26T10:57:38.999Z</time></trkpt><trkpt lat="44.15170441371656" lon="11.325364380264643"><ele>900.3333333333334</ele><time>2026-04-26T10:57:39.999Z</time></trkpt><trkpt lat="44.151535909465466" lon="11.325516325868936"><ele>901.6666666666667</ele><time>2026-04-26T10:57:40.999Z</time></trkpt><trkpt lat="44.15137645914996" lon="11.325649768459703"><ele>903.0</ele><time>2026-04-26T10:57:41.999Z</time></trkpt><trkpt lat="44.15122183775562" lon="11.325763117488075"><ele>897.6666666666667</ele><time>2026-04-26T10:57:42.999Z</time></trkpt><trkpt lat="44.151066913093906" lon="11.325829636453568"><ele>892.3333333333334</ele><time>2026-04-26T10:57:43.999Z</time></trkpt><trkpt lat="44.15090085799461" lon="11.325868493663727"><ele>887.0</ele><time>2026-04-26T10:57:44.999Z</time></trkpt><trkpt lat="44.15072390436825" lon="11.325858486877166"><ele>890.0</ele><time>2026-04-26T10:57:45.999Z</time></trkpt><trkpt lat="44.15054018102563" lon="11.32585830579142"><ele>893.0</ele><time>2026-04-26T10:57:46.999Z</time></trkpt><trkpt lat="44.15035314620124" lon="11.325874013069907"><ele>896.0</ele><time>2026-04-26T10:57:47.999Z</time></trkpt><trkpt lat="44.15017246103113" lon="11.325867764349116"><ele>896.0</ele><time>2026-04-26T10:57:48.999Z</time></trkpt><trkpt lat="44.14999925054632" lon="11.325859533153167"><ele>896.0</ele><time>2026-04-26T10:57:49.999Z</time></trkpt><trkpt lat="44.149835213612214" lon="11.325851569818617"><ele>896.0</ele><time>2026-04-26T10:57:50.999Z</time></trkpt><trkpt lat="44.149675614280994" lon="11.325862986374188"><ele>900.0</ele><time>2026-04-26T10:57:51.999Z</time></trkpt><trkpt lat="44.14951927046352" lon="11.325931444785473"><ele>904.0</ele><time>2026-04-26T10:57:52.999Z</time></trkpt><trkpt lat="44.14936343180432" lon="11.32604759984486"><ele>908.0</ele><time>2026-04-26T10:57:53.999Z</time></trkpt><trkpt lat="44.149222256463425" lon="11.326240521409249"><ele>907.0</ele><time>2026-04-26T10:57:54.999Z</time></trkpt><trkpt lat="44.14906671705453" lon="11.326396963759386"><ele>906.0</ele><time>2026-04-26T10:57:55.999Z</time></trkpt><trkpt lat="44.14893724634072" lon="11.326578672630866"><ele>905.0</ele><time>2026-04-26T10:57:56.999Z</time></trkpt><trkpt lat="44.14879844008982" lon="11.32675693552461"><ele>905.0</ele><time>2026-04-26T10:57:57.999Z</time></trkpt><trkpt lat="44.148676128850944" lon="11.326941624190766"><ele>905.0</ele><time>2026-04-26T10:57:58.999Z</time></trkpt><trkpt lat="44.14855218450098" lon="11.327096274279265"><ele>905.0</ele><time>2026-04-26T10:57:59.999Z</time></trkpt><trkpt lat="44.148431832944524" lon="11.327238310204875"><ele>900.25</ele><time>2026-04-26T10:58:00.999Z</time></trkpt><trkpt lat="44.14830881751582" lon="11.327363641104016"><ele>895.5</ele><time>2026-04-26T10:58:01.999Z</time></trkpt><trkpt lat="44.14818102878479" lon="11.327462861091462"><ele>890.75</ele><time>2026-04-26T10:58:02.999Z</time></trkpt><trkpt lat="44.14806002960943" lon="11.327487363329961"><ele>886.0</ele><time>2026-04-26T10:58:03.999Z</time></trkpt><trkpt lat="44.14792572897973" lon="11.32747589046619"><ele>886.0</ele><time>2026-04-26T10:58:04.999Z</time></trkpt><trkpt lat="44.14779495727782" lon="11.327340119039409"><ele>886.0</ele><time>2026-04-26T10:58:05.999Z</time></trkpt><trkpt lat="44.14763821562103" lon="11.32723791216824"><ele>886.0</ele><time>2026-04-26T10:58:06.999Z</time></trkpt><trkpt lat="44.14747231927529" lon="11.32717491552244"><ele>887.6666666666666</ele><time>2026-04-26T10:58:07.999Z</time></trkpt><trkpt lat="44.147306006547154" lon="11.327137698084377"><ele>889.3333333333333</ele><time>2026-04-26T10:58:09Z</time></trkpt><trkpt lat="44.147144626504776" lon="11.327151791569042"><ele>891.0</ele><time>2026-04-26T10:58:10Z</time></trkpt><trkpt lat="44.146992440111184" lon="11.327194803940689"><ele>891.0</ele><time>2026-04-26T10:58:11Z</time></trkpt><trkpt lat="44.14684415003593" lon="11.327178578941139"><ele>891.0</ele><time>2026-04-26T10:58:12Z</time></trkpt><trkpt lat="44.146701113343546" lon="11.327159593046652"><ele>891.0</ele><time>2026-04-26T10:58:13Z</time></trkpt><trkpt lat="44.14654644643852" lon="11.327076512142929"><ele>887.0</ele><time>2026-04-26T10:58:14Z</time></trkpt><trkpt lat="44.14639476166327" lon="11.326980657831964"><ele>883.0</ele><time>2026-04-26T10:58:15Z</time></trkpt><trkpt lat="44.14623633285659" lon="11.326876568122824"><ele>879.0</ele><time>2026-04-26T10:58:16Z</time></trkpt><trkpt lat="44.14607639357168" lon="11.326771342465658"><ele>879.0</ele><time>2026-04-26T10:58:17Z</time></trkpt><trkpt lat="44.14590896496428" lon="11.326683352209757"><ele>879.0</ele><time>2026-04-26T10:58:18Z</time></trkpt><trkpt lat="44.14574794573737" lon="11.326589553655866"><ele>879.0</ele><time>2026-04-26T10:58:19Z</time></trkpt><trkpt lat="44.145572816950505" lon="11.326547843537327"><ele>879.6666666666667</ele><time>2026-04-26T10:58:20Z</time></trkpt><trkpt lat="44.14539736840781" lon="11.32655638833561"><ele>880.3333333333334</ele><time>2026-04-26T10:58:21Z</time></trkpt><trkpt lat="44.14523407698378" lon="11.326608796908216"><ele>881.0</ele><time>2026-04-26T10:58:22Z</time></trkpt><trkpt lat="44.145077696138486" lon="11.32668465658958"><ele>881.0</ele><time>2026-04-26T10:58:23Z</time></trkpt><trkpt lat="44.14492778204857" lon="11.326803159877276"><ele>881.0</ele><time>2026-04-26T10:58:24Z</time></trkpt><trkpt lat="44.14480628144522" lon="11.32696884796678"><ele>881.0</ele><time>2026-04-26T10:58:25Z</time></trkpt><trkpt lat="44.144718832804934" lon="11.327166756228042"><ele>878.5</ele><time>2026-04-26T10:58:26Z</time></trkpt><trkpt lat="44.144661899067316" lon="11.327346270117893"><ele>876.0</ele><time>2026-04-26T10:58:27Z</time></trkpt><trkpt lat="44.14459651825188" lon="11.327482634868774"><ele>873.5</ele><time>2026-04-26T10:58:28Z</time></trkpt><trkpt lat="44.14448082345664" lon="11.327511941336569"><ele>871.0</ele><time>2026-04-26T10:58:29Z</time></trkpt><trkpt lat="44.1443489502187" lon="11.327526367995262"><ele>871.0</ele><time>2026-04-26T10:58:30Z</time></trkpt><trkpt lat="44.14420391805436" lon="11.327460789913852"><ele>871.0</ele><time>2026-04-26T10:58:31Z</time></trkpt><trkpt lat="44.144042248280186" lon="11.327378885064944"><ele>871.0</ele><time>2026-04-26T10:58:32Z</time></trkpt><trkpt lat="44.14387340757434" lon="11.32730833766596"><ele>874.3333333333333</ele><time>2026-04-26T10:58:33Z</time></trkpt><trkpt lat="44.143714073969896" lon="11.32722025403741"><ele>877.6666666666667</ele><time>2026-04-26T10:58:34Z</time></trkpt><trkpt lat="44.143554286370545" lon="11.327148158358376"><ele>881.0</ele><time>2026-04-26T10:58:35Z</time></trkpt><trkpt lat="44.143385339932195" lon="11.32711586628163"><ele>878.0</ele><time>2026-04-26T10:58:36Z</time></trkpt><trkpt lat="44.143210663802606" lon="11.327123332445868"><ele>875.0</ele><time>2026-04-26T10:58:37Z</time></trkpt><trkpt lat="44.143033936149614" lon="11.3271404524733"><ele>872.0</ele><time>2026-04-26T10:58:38Z</time></trkpt><trkpt lat="44.14285950782579" lon="11.327169098100141"><ele>872.0</ele><time>2026-04-26T10:58:39Z</time></trkpt><trkpt lat="44.142692594372114" lon="11.327209898179442"><ele>872.0</ele><time>2026-04-26T10:58:40Z</time></trkpt><trkpt lat="44.14253180224772" lon="11.327261379842225"><ele>872.0</ele><time>2026-04-26T10:58:41Z</time></trkpt><trkpt lat="44.1423731337752" lon="11.32733347943781"><ele>869.6666666666667</ele><time>2026-04-26T10:58:42Z</time></trkpt><trkpt lat="44.14221380349618" lon="11.32744139966419"><ele>867.3333333333333</ele><time>2026-04-26T10:58:43Z</time></trkpt><trkpt lat="44.142057166801294" lon="11.327577949696963"><ele>865.0</ele><time>2026-04-26T10:58:44Z</time></trkpt><trkpt lat="44.141900915833524" lon="11.32771740919017"><ele>865.0</ele><time>2026-04-26T10:58:45Z</time></trkpt><trkpt lat="44.141744628439454" lon="11.32785579906262"><ele>865.0</ele><time>2026-04-26T10:58:46Z</time></trkpt><trkpt lat="44.14158936102982" lon="11.327987052321838"><ele>865.0</ele><time>2026-04-26T10:58:47Z</time></trkpt><trkpt lat="44.14144259401195" lon="11.328109524611781"><ele>863.5</ele><time>2026-04-26T10:58:48Z</time></trkpt><trkpt lat="44.141300786874055" lon="11.32821828568891"><ele>862.0</ele><time>2026-04-26T10:58:49Z</time></trkpt><trkpt lat="44.14117275953057" lon="11.328315736719455"><ele>860.5</ele><time>2026-04-26T10:58:50Z</time></trkpt><trkpt lat="44.14105774107831" lon="11.328408587637917"><ele>859.0</ele><time>2026-04-26T10:58:51Z</time></trkpt><trkpt lat="44.140949406465126" lon="11.32850437424985"><ele>859.0</ele><time>2026-04-26T10:58:52Z</time></trkpt><trkpt lat="44.14084395164111" lon="11.328560803654165"><ele>859.0000000000001</ele><time>2026-04-26T10:58:53Z</time></trkpt><trkpt lat="44.140756478803404" lon="11.328586993219886"><ele>859.0000000000001</ele><time>2026-04-26T10:58:54Z</time></trkpt><trkpt lat="44.14066969207602" lon="11.328541305716447"><ele>859.0</ele><time>2026-04-26T10:58:55Z</time></trkpt><trkpt lat="44.14058591728473" lon="11.32845749534186"><ele>859.0</ele><time>2026-04-26T10:58:56Z</time></trkpt><trkpt lat="44.14051399824804" lon="11.328317876543295"><ele>855.25</ele><time>2026-04-26T10:58:57Z</time></trkpt><trkpt lat="44.14050153773111" lon="11.32812281794032"><ele>851.5</ele><time>2026-04-26T10:58:58Z</time></trkpt><trkpt lat="44.14046191804504" lon="11.327947527150405"><ele>847.75</ele><time>2026-04-26T10:58:59Z</time></trkpt><trkpt lat="44.140476368121696" lon="11.327768988953109"><ele>844.0</ele><time>2026-04-26T10:59:00Z</time></trkpt><trkpt lat="44.14053560576054" lon="11.32759225493932"><ele>844.0</ele><time>2026-04-26T10:59:01Z</time></trkpt><trkpt lat="44.14065926846085" lon="11.327462472975986"><ele>844.0</ele><time>2026-04-26T10:59:02Z</time></trkpt><trkpt lat="44.14078622183283" lon="11.327347790280347"><ele>844.0</ele><time>2026-04-26T10:59:03Z</time></trkpt><trkpt lat="44.14090756426667" lon="11.32722585553079"><ele>844.5</ele><time>2026-04-26T10:59:04Z</time></trkpt><trkpt lat="44.14103866344758" lon="11.32713194735327"><ele>845.0</ele><time>2026-04-26T10:59:05Z</time></trkpt><trkpt lat="44.14115381140255" lon="11.327034040300356"><ele>845.5</ele><time>2026-04-26T10:59:06Z</time></trkpt><trkpt lat="44.14124666881158" lon="11.326908673101565"><ele>846.0</ele><time>2026-04-26T10:59:07Z</time></trkpt><trkpt lat="44.14130832310754" lon="11.326742295519475"><ele>846.0</ele><time>2026-04-26T10:59:08Z</time></trkpt><trkpt lat="44.14132698642029" lon="11.326538293918022"><ele>846.0</ele><time>2026-04-26T10:59:09Z</time></trkpt><trkpt lat="44.1413020424132" lon="11.326321141632633"><ele>846.0</ele><time>2026-04-26T10:59:10Z</time></trkpt><trkpt lat="44.14123877427801" lon="11.326114481801675"><ele>846.0</ele><time>2026-04-26T10:59:11Z</time></trkpt><trkpt lat="44.14116375831843" lon="11.325926745497695"><ele>846.0</ele><time>2026-04-26T10:59:12Z</time></trkpt><trkpt lat="44.141112068109386" lon="11.325736336186658"><ele>846.0</ele><time>2026-04-26T10:59:13Z</time></trkpt><trkpt lat="44.14106278100951" lon="11.325557809487888"><ele>846.0</ele><time>2026-04-26T10:59:14Z</time></trkpt><trkpt lat="44.141020192317505" lon="11.325388296331015"><ele>845.3333333333333</ele><time>2026-04-26T10:59:15Z</time></trkpt><trkpt lat="44.14106446127385" lon="11.32519791136395"><ele>844.6666666666666</ele><time>2026-04-26T10:59:16Z</time></trkpt><trkpt lat="44.141126163405964" lon="11.324995796429347"><ele>844.0</ele><time>2026-04-26T10:59:17Z</time></trkpt><trkpt lat="44.14116420281674" lon="11.324763486927026"><ele>843.0</ele><time>2026-04-26T10:59:18Z</time></trkpt><trkpt lat="44.141211091552506" lon="11.324530595511698"><ele>842.0</ele><time>2026-04-26T10:59:19Z</time></trkpt><trkpt lat="44.141243098196455" lon="11.324305245918639"><ele>841.0</ele><time>2026-04-26T10:59:20Z</time></trkpt><trkpt lat="44.14125688296683" lon="11.324072662131927"><ele>841.0</ele><time>2026-04-26T10:59:21Z</time></trkpt><trkpt lat="44.14125273063723" lon="11.32383921192332"><ele>841.0</ele><time>2026-04-26T10:59:22Z</time></trkpt><trkpt lat="44.14124788240945" lon="11.323601465735416"><ele>841.0</ele><time>2026-04-26T10:59:23Z</time></trkpt><trkpt lat="44.141161994072974" lon="11.323372876088543"><ele>841.0</ele><time>2026-04-26T10:59:24Z</time></trkpt><trkpt lat="44.14106904590163" lon="11.323149553764637"><ele>841.0</ele><time>2026-04-26T10:59:25Z</time></trkpt><trkpt lat="44.14098723243363" lon="11.322913918681047"><ele>841.0</ele><time>2026-04-26T10:59:26Z</time></trkpt><trkpt lat="44.14090148954193" lon="11.32268434991375"><ele>840.0</ele><time>2026-04-26T10:59:27Z</time></trkpt><trkpt lat="44.14082227654473" lon="11.322468572040004"><ele>839.0</ele><time>2026-04-26T10:59:28Z</time></trkpt><trkpt lat="44.14073494063332" lon="11.322273734947315"><ele>838.0</ele><time>2026-04-26T10:59:29Z</time></trkpt><trkpt lat="44.14066684703974" lon="11.322081119036591"><ele>838.0</ele><time>2026-04-26T10:59:30Z</time></trkpt><trkpt lat="44.140602973006395" lon="11.321912844940059"><ele>838.0</ele><time>2026-04-26T10:59:31Z</time></trkpt><trkpt lat="44.140528804523555" lon="11.321772453620794"><ele>838.0</ele><time>2026-04-26T10:59:32Z</time></trkpt><trkpt lat="44.14041833445802" lon="11.321695578550823"><ele>838.0</ele><time>2026-04-26T10:59:33Z</time></trkpt><trkpt lat="44.140290686929134" lon="11.321667900572763"><ele>838.0</ele><time>2026-04-26T10:59:34Z</time></trkpt><trkpt lat="44.14015039687757" lon="11.321664773505718"><ele>838.0</ele><time>2026-04-26T10:59:35Z</time></trkpt><trkpt lat="44.14001072622667" lon="11.321648201531433"><ele>838.0</ele><time>2026-04-26T10:59:36Z</time></trkpt><trkpt lat="44.13988111270493" lon="11.321590118790064"><ele>838.0</ele><time>2026-04-26T10:59:37Z</time></trkpt><trkpt lat="44.139772498922675" lon="11.32146239015266"><ele>835.3333333333333</ele><time>2026-04-26T10:59:38Z</time></trkpt><trkpt lat="44.139659438591295" lon="11.321312240728687"><ele>832.6666666666667</ele><time>2026-04-26T10:59:39Z</time></trkpt><trkpt lat="44.139538367780744" lon="11.321161415987303"><ele>830.0</ele><time>2026-04-26T10:59:40Z</time></trkpt><trkpt lat="44.139419158087684" lon="11.320994349939292"><ele>830.0</ele><time>2026-04-26T10:59:41Z</time></trkpt><trkpt lat="44.13929400346656" lon="11.320841100270478"><ele>830.0</ele><time>2026-04-26T10:59:42Z</time></trkpt><trkpt lat="44.13917162827298" lon="11.320702350691846"><ele>830.0</ele><time>2026-04-26T10:59:43Z</time></trkpt><trkpt lat="44.13904886196174" lon="11.320594580992248"><ele>828.6</ele><time>2026-04-26T10:59:44Z</time></trkpt><trkpt lat="44.13892982879628" lon="11.320518731104894"><ele>827.2</ele><time>2026-04-26T10:59:45Z</time></trkpt><trkpt lat="44.13883228345335" lon="11.32045519010652"><ele>825.8</ele><time>2026-04-26T10:59:46Z</time></trkpt><trkpt lat="44.13877362679951" lon="11.320386771356418"><ele>824.4</ele><time>2026-04-26T10:59:47Z</time></trkpt><trkpt lat="44.13873282088124" lon="11.320318200648234"><ele>823.0</ele><time>2026-04-26T10:59:48Z</time></trkpt><trkpt lat="44.13871501206406" lon="11.320201609232384"><ele>823.0</ele><time>2026-04-26T10:59:50Z</time></trkpt><trkpt lat="44.13855151069815" lon="11.320191795123066"><ele>823.0</ele><time>2026-04-26T10:59:52Z</time></trkpt><trkpt lat="44.13844155938363" lon="11.320196034501254"><ele>823.0</ele><time>2026-04-26T10:59:53Z</time></trkpt><trkpt lat="44.13831480721047" lon="11.32020158937183"><ele>823.0</ele><time>2026-04-26T10:59:54Z</time></trkpt><trkpt lat="44.13817831885192" lon="11.32020573597017"><ele>820.0</ele><time>2026-04-26T10:59:55Z</time></trkpt><trkpt lat="44.13803403557547" lon="11.32020039595754"><ele>817.0</ele><time>2026-04-26T10:59:56Z</time></trkpt><trkpt lat="44.13789953019793" lon="11.32019469194277"><ele>814.0</ele><time>2026-04-26T10:59:57Z</time></trkpt><trkpt lat="44.13778755609975" lon="11.320187560615208"><ele>811.0</ele><time>2026-04-26T10:59:58Z</time></trkpt><trkpt lat="44.13769489701282" lon="11.320191656757562"><ele>810.9999999999999</ele><time>2026-04-26T10:59:59Z</time></trkpt><trkpt lat="44.13761961555918" lon="11.320209226786588"><ele>811.0</ele><time>2026-04-26T11:00:00Z</time></trkpt><trkpt lat="44.13756455791723" lon="11.320269702459639"><ele>811.0</ele><time>2026-04-26T11:00:01Z</time></trkpt><trkpt lat="44.13755095364218" lon="11.320365718193326"><ele>811.0</ele><time>2026-04-26T11:00:02Z</time></trkpt><trkpt lat="44.13757928297364" lon="11.320471720278446"><ele>810.9999999999999</ele><time>2026-04-26T11:00:03Z</time></trkpt><trkpt lat="44.13765361801406" lon="11.320560147445704"><ele>811.0</ele><time>2026-04-26T11:00:04Z</time></trkpt><trkpt lat="44.13775994847662" lon="11.320617824720033"><ele>810.25</ele><time>2026-04-26T11:00:05Z</time></trkpt><trkpt lat="44.13788350451903" lon="11.320645599890213"><ele>809.5</ele><time>2026-04-26T11:00:06Z</time></trkpt><trkpt lat="44.13799194796041" lon="11.320702239968451"><ele>808.75</ele><time>2026-04-26T11:00:07Z</time></trkpt><trkpt lat="44.13809301180946" lon="11.320823197193176"><ele>808.0</ele><time>2026-04-26T11:00:08Z</time></trkpt><trkpt lat="44.13818720232825" lon="11.320981162802438"><ele>806.6666666666666</ele><time>2026-04-26T11:00:09Z</time></trkpt><trkpt lat="44.138275437283184" lon="11.321148488335526"><ele>805.3333333333333</ele><time>2026-04-26T11:00:10Z</time></trkpt><trkpt lat="44.138355313001306" lon="11.321329748744892"><ele>804.0</ele><time>2026-04-26T11:00:11Z</time></trkpt><trkpt lat="44.13842305023554" lon="11.321527017402005"><ele>804.0</ele><time>2026-04-26T11:00:12Z</time></trkpt><trkpt lat="44.138467176248945" lon="11.321736253993665"><ele>804.0</ele><time>2026-04-26T11:00:12.999Z</time></trkpt><trkpt lat="44.13848275553327" lon="11.321953636245947"><ele>804.0</ele><time>2026-04-26T11:00:14Z</time></trkpt><trkpt lat="44.13847314200264" lon="11.322161426183616"><ele>803.75</ele><time>2026-04-26T11:00:15Z</time></trkpt><trkpt lat="44.138405567750766" lon="11.322338812328606"><ele>803.5</ele><time>2026-04-26T11:00:16Z</time></trkpt><trkpt lat="44.13832734528497" lon="11.322503825504741"><ele>803.25</ele><time>2026-04-26T11:00:17Z</time></trkpt><trkpt lat="44.13819944816262" lon="11.32263136178571"><ele>803.0</ele><time>2026-04-26T11:00:18Z</time></trkpt><trkpt lat="44.13804699985976" lon="11.32273153294531"><ele>798.6666666666667</ele><time>2026-04-26T11:00:19Z</time></trkpt><trkpt lat="44.137877527245784" lon="11.322823115254659"><ele>794.3333333333333</ele><time>2026-04-26T11:00:20Z</time></trkpt><trkpt lat="44.13771168907868" lon="11.322933014349786"><ele>790.0</ele><time>2026-04-26T11:00:21Z</time></trkpt><trkpt lat="44.13754254596347" lon="11.323008391966404"><ele>790.3333333333333</ele><time>2026-04-26T11:00:22Z</time></trkpt><trkpt lat="44.13738670670845" lon="11.323099338165935"><ele>790.6666666666667</ele><time>2026-04-26T11:00:23Z</time></trkpt><trkpt lat="44.13723472196866" lon="11.323190185236625"><ele>791.0</ele><time>2026-04-26T11:00:24Z</time></trkpt><trkpt lat="44.13709985423483" lon="11.32328193765057"><ele>788.0</ele><time>2026-04-26T11:00:25Z</time></trkpt><trkpt lat="44.13698106818275" lon="11.323363319753101"><ele>785.0</ele><time>2026-04-26T11:00:26Z</time></trkpt><trkpt lat="44.136865783096376" lon="11.32346068077182"><ele>782.0</ele><time>2026-04-26T11:00:27Z</time></trkpt><trkpt lat="44.13676589571256" lon="11.323572345023582"><ele>779.0</ele><time>2026-04-26T11:00:28Z</time></trkpt><trkpt lat="44.13669767175891" lon="11.323725115657854"><ele>778.3333333333334</ele><time>2026-04-26T11:00:29Z</time></trkpt><trkpt lat="44.13666142785342" lon="11.323915754020303"><ele>777.6666666666667</ele><time>2026-04-26T11:00:30Z</time></trkpt><trkpt lat="44.13665637054983" lon="11.324132401834024"><ele>777.0</ele><time>2026-04-26T11:00:31Z</time></trkpt><trkpt lat="44.13666943855961" lon="11.324358681178014"><ele>777.0</ele><time>2026-04-26T11:00:32Z</time></trkpt><trkpt lat="44.136691644510975" lon="11.32457209823984"><ele>777.0</ele><time>2026-04-26T11:00:33Z</time></trkpt><trkpt lat="44.136741870885274" lon="11.32475338373657"><ele>777.0</ele><time>2026-04-26T11:00:34Z</time></trkpt><trkpt lat="44.13681524516091" lon="11.324947847960077"><ele>776.0</ele><time>2026-04-26T11:00:35Z</time></trkpt><trkpt lat="44.1368329247717" lon="11.325139472052983"><ele>775.0</ele><time>2026-04-26T11:00:36Z</time></trkpt><trkpt lat="44.13678140580184" lon="11.325320312165635"><ele>774.0</ele><time>2026-04-26T11:00:37Z</time></trkpt><trkpt lat="44.1366933442681" lon="11.325497243917527"><ele>773.0</ele><time>2026-04-26T11:00:38Z</time></trkpt><trkpt lat="44.136581590014764" lon="11.32565006306819"><ele>768.0</ele><time>2026-04-26T11:00:39Z</time></trkpt><trkpt lat="44.13648329116563" lon="11.325810551248354"><ele>763.0</ele><time>2026-04-26T11:00:40Z</time></trkpt><trkpt lat="44.1364093547864" lon="11.325983902351364"><ele>758.0</ele><time>2026-04-26T11:00:41Z</time></trkpt><trkpt lat="44.1363798572309" lon="11.326210145193318"><ele>756.3333333333333</ele><time>2026-04-26T11:00:42Z</time></trkpt><trkpt lat="44.136372747694494" lon="11.326451728401798"><ele>754.6666666666666</ele><time>2026-04-26T11:00:43Z</time></trkpt><trkpt lat="44.136381737008044" lon="11.326711155362068"><ele>753.0</ele><time>2026-04-26T11:00:44Z</time></trkpt><trkpt lat="44.13637012665523" lon="11.326972802817618"><ele>753.0</ele><time>2026-04-26T11:00:45Z</time></trkpt><trkpt lat="44.13635958606603" lon="11.327217494809018"><ele>753.0</ele><time>2026-04-26T11:00:46Z</time></trkpt><trkpt lat="44.13637611614844" lon="11.327462545820024"><ele>753.0</ele><time>2026-04-26T11:00:47Z</time></trkpt><trkpt lat="44.13640581324651" lon="11.327700805435665"><ele>752.0</ele><time>2026-04-26T11:00:48Z</time></trkpt><trkpt lat="44.13639318451742" lon="11.32792865350173"><ele>751.0</ele><time>2026-04-26T11:00:49Z</time></trkpt><trkpt lat="44.13636144630284" lon="11.328150678711395"><ele>750.0</ele><time>2026-04-26T11:00:50Z</time></trkpt><trkpt lat="44.13630327490736" lon="11.32836328375624"><ele>750.0</ele><time>2026-04-26T11:00:51Z</time></trkpt><trkpt lat="44.13620711551961" lon="11.328550655135757"><ele>750.0</ele><time>2026-04-26T11:00:52Z</time></trkpt><trkpt lat="44.13610443343019" lon="11.328754018866642"><ele>750.0</ele><time>2026-04-26T11:00:53Z</time></trkpt><trkpt lat="44.135995805125056" lon="11.328941179417912"><ele>750.0</ele><time>2026-04-26T11:00:54Z</time></trkpt><trkpt lat="44.13588422652258" lon="11.329118676381608"><ele>750.0</ele><time>2026-04-26T11:00:55Z</time></trkpt><trkpt lat="44.135780686922864" lon="11.329280019760475"><ele>750.0</ele><time>2026-04-26T11:00:56Z</time></trkpt><trkpt lat="44.135687314642446" lon="11.329450860988596"><ele>747.25</ele><time>2026-04-26T11:00:57Z</time></trkpt><trkpt lat="44.13558454353968" lon="11.329600322056978"><ele>744.5</ele><time>2026-04-26T11:00:58Z</time></trkpt><trkpt lat="44.135495054764085" lon="11.329752891083547"><ele>741.75</ele><time>2026-04-26T11:00:59Z</time></trkpt><trkpt lat="44.135420010130794" lon="11.329925559402609"><ele>739.0</ele><time>2026-04-26T11:01:00Z</time></trkpt><trkpt lat="44.13535406783576" lon="11.330118836870348"><ele>739.0</ele><time>2026-04-26T11:01:01Z</time></trkpt><trkpt lat="44.135303439194495" lon="11.330333149911564"><ele>739.0</ele><time>2026-04-26T11:01:02Z</time></trkpt><trkpt lat="44.13524883905116" lon="11.330554418078723"><ele>739.0</ele><time>2026-04-26T11:01:03Z</time></trkpt><trkpt lat="44.13521141362827" lon="11.330785528026745"><ele>738.3333333333334</ele><time>2026-04-26T11:01:04Z</time></trkpt><trkpt lat="44.13519363150861" lon="11.331008777088313"><ele>737.6666666666666</ele><time>2026-04-26T11:01:05Z</time></trkpt><trkpt lat="44.13517957045041" lon="11.331227698362108"><ele>737.0</ele><time>2026-04-26T11:01:06Z</time></trkpt><trkpt lat="44.13511364374817" lon="11.331413222546978"><ele>736.75</ele><time>2026-04-26T11:01:07Z</time></trkpt><trkpt lat="44.13504330700465" lon="11.331596841387391"><ele>736.5</ele><time>2026-04-26T11:01:08Z</time></trkpt><trkpt lat="44.13496775808006" lon="11.33178077924334"><ele>736.25</ele><time>2026-04-26T11:01:09Z</time></trkpt><trkpt lat="44.13489630847793" lon="11.331944722178692"><ele>736.0</ele><time>2026-04-26T11:01:10Z</time></trkpt><trkpt lat="44.13483810208552" lon="11.3320998348187"><ele>735.1666666666667</ele><time>2026-04-26T11:01:11Z</time></trkpt><trkpt lat="44.13477964491812" lon="11.332230423243493"><ele>734.3333333333334</ele><time>2026-04-26T11:01:12Z</time></trkpt><trkpt lat="44.1347385956979" lon="11.332349298902349"><ele>733.5</ele><time>2026-04-26T11:01:13Z</time></trkpt><trkpt lat="44.13468947222505" lon="11.33244206683315"><ele>732.6666666666666</ele><time>2026-04-26T11:01:14Z</time></trkpt><trkpt lat="44.13464338589241" lon="11.332515398862123"><ele>731.8333333333333</ele><time>2026-04-26T11:01:15Z</time></trkpt><trkpt lat="44.134570247078265" lon="11.332547445739731"><ele>731.0</ele><time>2026-04-26T11:01:16Z</time></trkpt><trkpt lat="44.13447305743931" lon="11.332579188562688"><ele>731.0</ele><time>2026-04-26T11:01:17Z</time></trkpt><trkpt lat="44.13435401366115" lon="11.332645971496003"><ele>731.0</ele><time>2026-04-26T11:01:18Z</time></trkpt><trkpt lat="44.1342248190796" lon="11.332701872558589"><ele>731.0</ele><time>2026-04-26T11:01:19Z</time></trkpt><trkpt lat="44.13408013703233" lon="11.332757443920315"><ele>731.0</ele><time>2026-04-26T11:01:20Z</time></trkpt><trkpt lat="44.13394121327504" lon="11.332816922108313"><ele>728.0</ele><time>2026-04-26T11:01:21Z</time></trkpt><trkpt lat="44.13380379123864" lon="11.332877043976447"><ele>725.0</ele><time>2026-04-26T11:01:22Z</time></trkpt><trkpt lat="44.133672514288456" lon="11.332956494717648"><ele>722.0</ele><time>2026-04-26T11:01:23Z</time></trkpt><trkpt lat="44.13354302468824" lon="11.333024599787834"><ele>719.0</ele><time>2026-04-26T11:01:24Z</time></trkpt><trkpt lat="44.13342009927864" lon="11.333098402357136"><ele>719.0</ele><time>2026-04-26T11:01:25Z</time></trkpt><trkpt lat="44.13330615539267" lon="11.333170889144464"><ele>719.0</ele><time>2026-04-26T11:01:26Z</time></trkpt><trkpt lat="44.13319127852706" lon="11.33319401852926"><ele>719.0</ele><time>2026-04-26T11:01:27Z</time></trkpt><trkpt lat="44.13309000613235" lon="11.333196950750725"><ele>719.0</ele><time>2026-04-26T11:01:28Z</time></trkpt><trkpt lat="44.13300988136258" lon="11.333222218788883"><ele>719.0</ele><time>2026-04-26T11:01:29Z</time></trkpt><trkpt lat="44.13296682833765" lon="11.33329625675571"><ele>715.6</ele><time>2026-04-26T11:01:30Z</time></trkpt><trkpt lat="44.13296289418183" lon="11.333414416791982"><ele>712.2</ele><time>2026-04-26T11:01:31Z</time></trkpt><trkpt lat="44.133006721344266" lon="11.333549376171467"><ele>708.8000000000001</ele><time>2026-04-26T11:01:32Z</time></trkpt><trkpt lat="44.133075427702444" lon="11.333661446151666"><ele>705.4000000000001</ele><time>2026-04-26T11:01:33Z</time></trkpt><trkpt lat="44.13313027364193" lon="11.33376507922545"><ele>702.0</ele><time>2026-04-26T11:01:34Z</time></trkpt><trkpt lat="44.13313433111711" lon="11.33387975664115"><ele>701.5</ele><time>2026-04-26T11:01:35Z</time></trkpt><trkpt lat="44.133083537321376" lon="11.333994176062037"><ele>701.0</ele><time>2026-04-26T11:01:36Z</time></trkpt><trkpt lat="44.13297882482184" lon="11.334059339986926"><ele>700.5</ele><time>2026-04-26T11:01:37Z</time></trkpt><trkpt lat="44.132846152593764" lon="11.334048069354562"><ele>700.0</ele><time>2026-04-26T11:01:38Z</time></trkpt><trkpt lat="44.13272123318106" lon="11.334094805235663"><ele>700.0</ele><time>2026-04-26T11:01:39Z</time></trkpt><trkpt lat="44.13258260658076" lon="11.334159785321424"><ele>700.0</ele><time>2026-04-26T11:01:40Z</time></trkpt><trkpt lat="44.1324456701267" lon="11.33423292374504"><ele>700.0</ele><time>2026-04-26T11:01:41Z</time></trkpt><trkpt lat="44.132300222395" lon="11.334304804905322"><ele>700.0</ele><time>2026-04-26T11:01:42Z</time></trkpt><trkpt lat="44.13215257660523" lon="11.334347916373329"><ele>696.5</ele><time>2026-04-26T11:01:43Z</time></trkpt><trkpt lat="44.13200404772311" lon="11.33434637336802"><ele>693.0</ele><time>2026-04-26T11:01:44Z</time></trkpt><trkpt lat="44.13185501081206" lon="11.334322288865215"><ele>689.5</ele><time>2026-04-26T11:01:45Z</time></trkpt><trkpt lat="44.13171392066207" lon="11.334287673672923"><ele>686.0</ele><time>2026-04-26T11:01:46Z</time></trkpt><trkpt lat="44.131591448326745" lon="11.33426234513655"><ele>683.5999999999999</ele><time>2026-04-26T11:01:47Z</time></trkpt><trkpt lat="44.13147880832668" lon="11.334245556441328"><ele>681.2</ele><time>2026-04-26T11:01:48Z</time></trkpt><trkpt lat="44.13137812883037" lon="11.33427097935484"><ele>678.8</ele><time>2026-04-26T11:01:49Z</time></trkpt><trkpt lat="44.131289907783014" lon="11.33435758407838"><ele>676.4000000000001</ele><time>2026-04-26T11:01:50Z</time></trkpt><trkpt lat="44.13122973726994" lon="11.334502565842882"><ele>674.0</ele><time>2026-04-26T11:01:50.999Z</time></trkpt><trkpt lat="44.13118448051381" lon="11.334676155226031"><ele>673.0</ele><time>2026-04-26T11:01:51.999Z</time></trkpt><trkpt lat="44.13111561654112" lon="11.33484021066524"><ele>672.0</ele><time>2026-04-26T11:01:52.999Z</time></trkpt><trkpt lat="44.130977064631956" lon="11.334942232677392"><ele>671.0</ele><time>2026-04-26T11:01:53.999Z</time></trkpt><trkpt lat="44.1308476187285" lon="11.335044830925106"><ele>670.0</ele><time>2026-04-26T11:01:54.999Z</time></trkpt><trkpt lat="44.13071696172682" lon="11.3351173814753"><ele>667.5</ele><time>2026-04-26T11:01:55.999Z</time></trkpt><trkpt lat="44.13061086717314" lon="11.33523564815682"><ele>665.0</ele><time>2026-04-26T11:01:56.999Z</time></trkpt><trkpt lat="44.13053573227249" lon="11.33541088128001"><ele>662.5</ele><time>2026-04-26T11:01:57.999Z</time></trkpt><trkpt lat="44.13049191789207" lon="11.335620372075063"><ele>660.0</ele><time>2026-04-26T11:01:58.999Z</time></trkpt><trkpt lat="44.13046391319801" lon="11.335826612978066"><ele>660.0</ele><time>2026-04-26T11:01:59.999Z</time></trkpt><trkpt lat="44.13040681450631" lon="11.335995217549785"><ele>660.0</ele><time>2026-04-26T11:02:00.999Z</time></trkpt><trkpt lat="44.13036794166913" lon="11.336156028471297"><ele>660.0</ele><time>2026-04-26T11:02:01.999Z</time></trkpt><trkpt lat="44.13028694302418" lon="11.336264889754656"><ele>660.0</ele><time>2026-04-26T11:02:02.999Z</time></trkpt><trkpt lat="44.13017466337849" lon="11.336326304660023"><ele>660.0</ele><time>2026-04-26T11:02:03.999Z</time></trkpt><trkpt lat="44.13004211186002" lon="11.336315087956077"><ele>660.0</ele><time>2026-04-26T11:02:04.999Z</time></trkpt><trkpt lat="44.12989914749262" lon="11.33633482036138"><ele>660.0</ele><time>2026-04-26T11:02:05.999Z</time></trkpt><trkpt lat="44.129758973947006" lon="11.336342808536145"><ele>660.0</ele><time>2026-04-26T11:02:06.999Z</time></trkpt><trkpt lat="44.12962279007547" lon="11.33641316851974"><ele>657.75</ele><time>2026-04-26T11:02:07.999Z</time></trkpt><trkpt lat="44.12950199233147" lon="11.33651796811948"><ele>655.5</ele><time>2026-04-26T11:02:08.999Z</time></trkpt><trkpt lat="44.12938208974885" lon="11.336602878107765"><ele>653.25</ele><time>2026-04-26T11:02:09.999Z</time></trkpt><trkpt lat="44.1292585644206" lon="11.336629710665363"><ele>651.0</ele><time>2026-04-26T11:02:10.999Z</time></trkpt><trkpt lat="44.12914120795073" lon="11.336594485332336"><ele>647.0</ele><time>2026-04-26T11:02:11.999Z</time></trkpt><trkpt lat="44.12902843723215" lon="11.33657539920915"><ele>643.0</ele><time>2026-04-26T11:02:12.999Z</time></trkpt><trkpt lat="44.12891576383414" lon="11.336652680956998"><ele>639.0</ele><time>2026-04-26T11:02:13.999Z</time></trkpt><trkpt lat="44.12879718604937" lon="11.33677486688491"><ele>635.0</ele><time>2026-04-26T11:02:14.999Z</time></trkpt><trkpt lat="44.12867944464043" lon="11.336920685106206"><ele>635.0</ele><time>2026-04-26T11:02:15.999Z</time></trkpt><trkpt lat="44.12856890615037" lon="11.337082400896417"><ele>635.0</ele><time>2026-04-26T11:02:16.999Z</time></trkpt><trkpt lat="44.12847710795614" lon="11.337249221906326"><ele>635.0</ele><time>2026-04-26T11:02:17.999Z</time></trkpt><trkpt lat="44.12839900214286" lon="11.337403337507936"><ele>635.0</ele><time>2026-04-26T11:02:19Z</time></trkpt><trkpt lat="44.12832487296538" lon="11.337526094533326"><ele>635.5</ele><time>2026-04-26T11:02:20Z</time></trkpt><trkpt lat="44.12823722327995" lon="11.33760165570966"><ele>636.0</ele><time>2026-04-26T11:02:21Z</time></trkpt><trkpt lat="44.12811341155148" lon="11.337600778824681"><ele>636.5</ele><time>2026-04-26T11:02:22Z</time></trkpt><trkpt lat="44.12798095777226" lon="11.337577706467057"><ele>637.0</ele><time>2026-04-26T11:02:23Z</time></trkpt><trkpt lat="44.12786836745911" lon="11.337493337359275"><ele>634.25</ele><time>2026-04-26T11:02:24Z</time></trkpt><trkpt lat="44.127746037398495" lon="11.337429529110773"><ele>631.5</ele><time>2026-04-26T11:02:25Z</time></trkpt><trkpt lat="44.12762504677726" lon="11.337341371107247"><ele>628.75</ele><time>2026-04-26T11:02:26Z</time></trkpt><trkpt lat="44.12747425129639" lon="11.337296716143271"><ele>626.0</ele><time>2026-04-26T11:02:27Z</time></trkpt><trkpt lat="44.12733415822449" lon="11.337283549795421"><ele>625.3333333333333</ele><time>2026-04-26T11:02:28Z</time></trkpt><trkpt lat="44.12718461980863" lon="11.337328314571861"><ele>624.6666666666666</ele><time>2026-04-26T11:02:29Z</time></trkpt><trkpt lat="44.127053214505466" lon="11.337431873029981"><ele>624.0</ele><time>2026-04-26T11:02:30Z</time></trkpt><trkpt lat="44.12693920315855" lon="11.337560142050188"><ele>624.0</ele><time>2026-04-26T11:02:31Z</time></trkpt><trkpt lat="44.126839489137744" lon="11.337690510938081"><ele>624.0</ele><time>2026-04-26T11:02:32Z</time></trkpt><trkpt lat="44.126724012708166" lon="11.337759888215485"><ele>624.0</ele><time>2026-04-26T11:02:33Z</time></trkpt><trkpt lat="44.12660431685673" lon="11.337805785830861"><ele>624.0</ele><time>2026-04-26T11:02:34Z</time></trkpt><trkpt lat="44.126468470738686" lon="11.337788637446177"><ele>621.6666666666666</ele><time>2026-04-26T11:02:35Z</time></trkpt><trkpt lat="44.126316368924584" lon="11.33779624488271"><ele>619.3333333333333</ele><time>2026-04-26T11:02:36Z</time></trkpt><trkpt lat="44.12616271497282" lon="11.337774774405514"><ele>617.0</ele><time>2026-04-26T11:02:37Z</time></trkpt><trkpt lat="44.126000404086696" lon="11.337767860016822"><ele>617.0</ele><time>2026-04-26T11:02:38Z</time></trkpt><trkpt lat="44.125830805805734" lon="11.337756261822104"><ele>617.0</ele><time>2026-04-26T11:02:39Z</time></trkpt><trkpt lat="44.125657922426925" lon="11.337741240844954"><ele>617.0</ele><time>2026-04-26T11:02:40Z</time></trkpt><trkpt lat="44.12549018128599" lon="11.337729407232157"><ele>615.0</ele><time>2026-04-26T11:02:41Z</time></trkpt><trkpt lat="44.12532394456553" lon="11.337718417360337"><ele>613.0</ele><time>2026-04-26T11:02:42Z</time></trkpt><trkpt lat="44.12517719549253" lon="11.33769529678711"><ele>611.0</ele><time>2026-04-26T11:02:43Z</time></trkpt><trkpt lat="44.12504225231167" lon="11.337687718088379"><ele>609.0</ele><time>2026-04-26T11:02:44Z</time></trkpt><trkpt lat="44.12491244453315" lon="11.337712138570993"><ele>607.25</ele><time>2026-04-26T11:02:45Z</time></trkpt><trkpt lat="44.12478953043928" lon="11.33777582819636"><ele>605.5</ele><time>2026-04-26T11:02:46Z</time></trkpt><trkpt lat="44.12467360444168" lon="11.337874293831993"><ele>603.75</ele><time>2026-04-26T11:02:47Z</time></trkpt><trkpt lat="44.124574274414506" lon="11.338022042369118"><ele>602.0</ele><time>2026-04-26T11:02:48Z</time></trkpt><trkpt lat="44.12448903735443" lon="11.338202251392593"><ele>602.0</ele><time>2026-04-26T11:02:49Z</time></trkpt><trkpt lat="44.124409901948276" lon="11.33839394114752"><ele>602.0</ele><time>2026-04-26T11:02:50Z</time></trkpt><trkpt lat="44.12429135607502" lon="11.338534956529664"><ele>602.0</ele><time>2026-04-26T11:02:51Z</time></trkpt><trkpt lat="44.12415026926113" lon="11.338629031420169"><ele>599.3333333333333</ele><time>2026-04-26T11:02:52Z</time></trkpt><trkpt lat="44.12399851434619" lon="11.338716808933642"><ele>596.6666666666666</ele><time>2026-04-26T11:02:53Z</time></trkpt><trkpt lat="44.12384937602264" lon="11.338820365902256"><ele>594.0</ele><time>2026-04-26T11:02:54Z</time></trkpt><trkpt lat="44.123700827738176" lon="11.338897379700159"><ele>594.0</ele><time>2026-04-26T11:02:55Z</time></trkpt><trkpt lat="44.123545162462605" lon="11.338974379999934"><ele>594.0</ele><time>2026-04-26T11:02:56Z</time></trkpt><trkpt lat="44.123389885502576" lon="11.339030148006255"><ele>594.0</ele><time>2026-04-26T11:02:57Z</time></trkpt><trkpt lat="44.12322863059037" lon="11.338991471288692"><ele>589.0</ele><time>2026-04-26T11:02:58Z</time></trkpt><trkpt lat="44.12306231186025" lon="11.338955232062988"><ele>584.0</ele><time>2026-04-26T11:02:59Z</time></trkpt><trkpt lat="44.122899387486235" lon="11.338916808271634"><ele>579.0</ele><time>2026-04-26T11:03:00Z</time></trkpt><trkpt lat="44.122728511602574" lon="11.338922376585398"><ele>579.0</ele><time>2026-04-26T11:03:01Z</time></trkpt><trkpt lat="44.12255508243631" lon="11.3389653111427"><ele>579.0</ele><time>2026-04-26T11:03:02Z</time></trkpt><trkpt lat="44.12238051216556" lon="11.339022814763364"><ele>579.0</ele><time>2026-04-26T11:03:03Z</time></trkpt><trkpt lat="44.1222177967945" lon="11.339097575280855"><ele>577.6666666666666</ele><time>2026-04-26T11:03:04Z</time></trkpt><trkpt lat="44.12208301409261" lon="11.339211392417221"><ele>576.3333333333333</ele><time>2026-04-26T11:03:05Z</time></trkpt><trkpt lat="44.1219091166767" lon="11.339392641871935"><ele>575.0</ele><time>2026-04-26T11:03:06Z</time></trkpt><trkpt lat="44.1217603977214" lon="11.339525063481274"><ele>575.0</ele><time>2026-04-26T11:03:07Z</time></trkpt><trkpt lat="44.12158931354997" lon="11.339585165760925"><ele>575.0</ele><time>2026-04-26T11:03:08Z</time></trkpt><trkpt lat="44.12141138479859" lon="11.339638524896012"><ele>575.0</ele><time>2026-04-26T11:03:09Z</time></trkpt><trkpt lat="44.12123087613471" lon="11.339695692397681"><ele>575.6666666666666</ele><time>2026-04-26T11:03:10Z</time></trkpt><trkpt lat="44.12105581256975" lon="11.339771187775613"><ele>576.3333333333334</ele><time>2026-04-26T11:03:11Z</time></trkpt><trkpt lat="44.12087986479711" lon="11.339837441136384"><ele>577.0</ele><time>2026-04-26T11:03:12Z</time></trkpt><trkpt lat="44.1207046707674" lon="11.339899879626708"><ele>577.3333333333334</ele><time>2026-04-26T11:03:13Z</time></trkpt><trkpt lat="44.120533749893745" lon="11.33992648780631"><ele>577.6666666666666</ele><time>2026-04-26T11:03:14Z</time></trkpt><trkpt lat="44.12036620081297" lon="11.339902661714193"><ele>578.0</ele><time>2026-04-26T11:03:15Z</time></trkpt><trkpt lat="44.12020382621178" lon="11.339893605235883"><ele>578.0</ele><time>2026-04-26T11:03:16Z</time></trkpt><trkpt lat="44.12004799767569" lon="11.339900989491344"><ele>578.0</ele><time>2026-04-26T11:03:17Z</time></trkpt><trkpt lat="44.119888746726694" lon="11.339885016323146"><ele>578.0</ele><time>2026-04-26T11:03:18Z</time></trkpt><trkpt lat="44.119728337580284" lon="11.339879522713751"><ele>579.0</ele><time>2026-04-26T11:03:19Z</time></trkpt><trkpt lat="44.11957596483645" lon="11.339876912311084"><ele>580.0</ele><time>2026-04-26T11:03:20Z</time></trkpt><trkpt lat="44.119435541326645" lon="11.33989294197325"><ele>581.0</ele><time>2026-04-26T11:03:21Z</time></trkpt><trkpt lat="44.11931045840192" lon="11.339960489282511"><ele>582.0</ele><time>2026-04-26T11:03:22Z</time></trkpt><trkpt lat="44.11920414477064" lon="11.34007455591365"><ele>582.0</ele><time>2026-04-26T11:03:23Z</time></trkpt><trkpt lat="44.11911002017977" lon="11.340236137499984"><ele>582.0</ele><time>2026-04-26T11:03:24Z</time></trkpt><trkpt lat="44.11902323566521" lon="11.340417633999158"><ele>582.0</ele><time>2026-04-26T11:03:25Z</time></trkpt><trkpt lat="44.11892411700888" lon="11.340594492800902"><ele>584.0</ele><time>2026-04-26T11:03:26Z</time></trkpt><trkpt lat="44.11881117191265" lon="11.3407685263867"><ele>586.0</ele><time>2026-04-26T11:03:27Z</time></trkpt><trkpt lat="44.11869947686337" lon="11.340949237680013"><ele>588.0</ele><time>2026-04-26T11:03:28Z</time></trkpt><trkpt lat="44.11859315121098" lon="11.341139842068394"><ele>588.0</ele><time>2026-04-26T11:03:29Z</time></trkpt><trkpt lat="44.118491368067225" lon="11.341344379748296"><ele>588.0</ele><time>2026-04-26T11:03:30Z</time></trkpt><trkpt lat="44.118372282860285" lon="11.341520929481616"><ele>588.0</ele><time>2026-04-26T11:03:31Z</time></trkpt><trkpt lat="44.11825087111236" lon="11.341678106483009"><ele>587.3333333333334</ele><time>2026-04-26T11:03:32Z</time></trkpt><trkpt lat="44.11811027192009" lon="11.341824819361001"><ele>586.6666666666667</ele><time>2026-04-26T11:03:33Z</time></trkpt><trkpt lat="44.11796139037416" lon="11.341967483353551"><ele>586.0</ele><time>2026-04-26T11:03:34Z</time></trkpt><trkpt lat="44.11781611114916" lon="11.342122006586791"><ele>586.6666666666667</ele><time>2026-04-26T11:03:35Z</time></trkpt><trkpt lat="44.11766788252603" lon="11.342237629223906"><ele>587.3333333333334</ele><time>2026-04-26T11:03:36Z</time></trkpt><trkpt lat="44.1175385379571" lon="11.342372411685234"><ele>588.0</ele><time>2026-04-26T11:03:37Z</time></trkpt><trkpt lat="44.11742020237482" lon="11.34251972251289"><ele>585.3333333333334</ele><time>2026-04-26T11:03:38Z</time></trkpt><trkpt lat="44.11731793094339" lon="11.342702341738953"><ele>582.6666666666667</ele><time>2026-04-26T11:03:39Z</time></trkpt><trkpt lat="44.11722163872937" lon="11.342901794871304"><ele>580.0</ele><time>2026-04-26T11:03:40Z</time></trkpt><trkpt lat="44.11713314729694" lon="11.343104113316093"><ele>580.0</ele><time>2026-04-26T11:03:41Z</time></trkpt><trkpt lat="44.11705781268506" lon="11.343298984663601"><ele>580.0</ele><time>2026-04-26T11:03:42Z</time></trkpt><trkpt lat="44.11699788667662" lon="11.343486045207753"><ele>580.0</ele><time>2026-04-26T11:03:43Z</time></trkpt><trkpt lat="44.116970725281995" lon="11.343668244521927"><ele>580.0</ele><time>2026-04-26T11:03:44Z</time></trkpt><trkpt lat="44.11696593572447" lon="11.343849210729546"><ele>578.5</ele><time>2026-04-26T11:03:45Z</time></trkpt><trkpt lat="44.11699982709023" lon="11.344029317960965"><ele>577.0</ele><time>2026-04-26T11:03:46Z</time></trkpt><trkpt lat="44.11708674850038" lon="11.344193238876649"><ele>575.5</ele><time>2026-04-26T11:03:47Z</time></trkpt><trkpt lat="44.11718131427396" lon="11.344339204196654"><ele>574.0</ele><time>2026-04-26T11:03:48Z</time></trkpt><trkpt lat="44.11722893266942" lon="11.34452105415427"><ele>570.3333333333334</ele><time>2026-04-26T11:03:49Z</time></trkpt><trkpt lat="44.11724243356259" lon="11.344734256287326"><ele>566.6666666666666</ele><time>2026-04-26T11:03:50Z</time></trkpt><trkpt lat="44.11722875094572" lon="11.344971107151734"><ele>563.0</ele><time>2026-04-26T11:03:51Z</time></trkpt><trkpt lat="44.117212257776224" lon="11.345194174231484"><ele>563.0</ele><time>2026-04-26T11:03:52Z</time></trkpt><trkpt lat="44.11714246017122" lon="11.345401854777272"><ele>563.0</ele><time>2026-04-26T11:03:53Z</time></trkpt><trkpt lat="44.11708989454502" lon="11.345619519550775"><ele>563.0</ele><time>2026-04-26T11:03:54Z</time></trkpt><trkpt lat="44.117015381553124" lon="11.345822510713427"><ele>561.0</ele><time>2026-04-26T11:03:55Z</time></trkpt><trkpt lat="44.116951075702275" lon="11.346028707598077"><ele>559.0</ele><time>2026-04-26T11:03:56Z</time></trkpt><trkpt lat="44.11691221058353" lon="11.346252100393553"><ele>557.0</ele><time>2026-04-26T11:03:57Z</time></trkpt><trkpt lat="44.1168955413567" lon="11.34647922300494"><ele>556.3333333333333</ele><time>2026-04-26T11:03:58Z</time></trkpt><trkpt lat="44.116908447373454" lon="11.346708186794103"><ele>555.6666666666666</ele><time>2026-04-26T11:03:59Z</time></trkpt><trkpt lat="44.11694055622927" lon="11.346929522430122"><ele>555.0</ele><time>2026-04-26T11:04:00Z</time></trkpt><trkpt lat="44.11701053657911" lon="11.347139029831585"><ele>552.0</ele><time>2026-04-26T11:04:01Z</time></trkpt><trkpt lat="44.1171088785798" lon="11.347337847970252"><ele>549.0</ele><time>2026-04-26T11:04:02Z</time></trkpt><trkpt lat="44.11721350396156" lon="11.347531200994881"><ele>546.0</ele><time>2026-04-26T11:04:03Z</time></trkpt><trkpt lat="44.11729886960625" lon="11.347740365128914"><ele>546.0</ele><time>2026-04-26T11:04:04Z</time></trkpt><trkpt lat="44.117324014310384" lon="11.347985971127786"><ele>546.0</ele><time>2026-04-26T11:04:05Z</time></trkpt><trkpt lat="44.11733947126489" lon="11.348236837757597"><ele>546.0</ele><time>2026-04-26T11:04:06Z</time></trkpt><trkpt lat="44.117367637376525" lon="11.348486698519691"><ele>543.6666666666666</ele><time>2026-04-26T11:04:07Z</time></trkpt><trkpt lat="44.11737889819206" lon="11.348734174200398"><ele>541.3333333333333</ele><time>2026-04-26T11:04:08Z</time></trkpt><trkpt lat="44.11737925148485" lon="11.348984297097518"><ele>539.0</ele><time>2026-04-26T11:04:09Z</time></trkpt><trkpt lat="44.117368581528844" lon="11.349236474985714"><ele>539.0</ele><time>2026-04-26T11:04:10Z</time></trkpt><trkpt lat="44.11734755770293" lon="11.34948756452964"><ele>539.0</ele><time>2026-04-26T11:04:11Z</time></trkpt><trkpt lat="44.11732661154165" lon="11.349728451218212"><ele>539.0</ele><time>2026-04-26T11:04:12Z</time></trkpt><trkpt lat="44.11731710609241" lon="11.349951435249489"><ele>539.0</ele><time>2026-04-26T11:04:13Z</time></trkpt><trkpt lat="44.11732435662726" lon="11.35017588277037"><ele>539.0</ele><time>2026-04-26T11:04:14Z</time></trkpt><trkpt lat="44.11735521733261" lon="11.350384377332233"><ele>539.0</ele><time>2026-04-26T11:04:15Z</time></trkpt><trkpt lat="44.11739813183933" lon="11.35059447093767"><ele>540.0</ele><time>2026-04-26T11:04:16Z</time></trkpt><trkpt lat="44.117450811766204" lon="11.350806177239843"><ele>541.0</ele><time>2026-04-26T11:04:17Z</time></trkpt><trkpt lat="44.11751082401918" lon="11.351006890356327"><ele>542.0</ele><time>2026-04-26T11:04:18Z</time></trkpt><trkpt lat="44.11754128298458" lon="11.351186690416386"><ele>542.0</ele><time>2026-04-26T11:04:19Z</time></trkpt><trkpt lat="44.117532667478585" lon="11.351360290908763"><ele>542.0</ele><time>2026-04-26T11:04:20Z</time></trkpt><trkpt lat="44.11748684339007" lon="11.351520157605368"><ele>542.0</ele><time>2026-04-26T11:04:21Z</time></trkpt><trkpt lat="44.117438081550716" lon="11.351655104554206"><ele>542.0</ele><time>2026-04-26T11:04:22Z</time></trkpt><trkpt lat="44.117433025601585" lon="11.351790581578827"><ele>540.75</ele><time>2026-04-26T11:04:23Z</time></trkpt><trkpt lat="44.11749023193341" lon="11.35191916773356"><ele>539.5</ele><time>2026-04-26T11:04:24Z</time></trkpt><trkpt lat="44.1175819975647" lon="11.352020851136418"><ele>538.25</ele><time>2026-04-26T11:04:25.001Z</time></trkpt><trkpt lat="44.11766918492073" lon="11.35212229420883"><ele>537.0</ele><time>2026-04-26T11:04:26.001Z</time></trkpt><trkpt lat="44.11771904723147" lon="11.352280857592449"><ele>534.0</ele><time>2026-04-26T11:04:27.001Z</time></trkpt><trkpt lat="44.117680953123" lon="11.35249033863142"><ele>531.0</ele><time>2026-04-26T11:04:28.001Z</time></trkpt><trkpt lat="44.11765558770766" lon="11.352709167410241"><ele>528.0</ele><time>2026-04-26T11:04:29.001Z</time></trkpt><trkpt lat="44.11763741330435" lon="11.352914865546948"><ele>526.5</ele><time>2026-04-26T11:04:30.001Z</time></trkpt><trkpt lat="44.11760050245014" lon="11.353112919299196"><ele>525.0</ele><time>2026-04-26T11:04:31.001Z</time></trkpt><trkpt lat="44.117553542010995" lon="11.353307507793787"><ele>523.5</ele><time>2026-04-26T11:04:32.001Z</time></trkpt><trkpt lat="44.11747808607451" lon="11.353482149061213"><ele>522.0</ele><time>2026-04-26T11:04:33.001Z</time></trkpt><trkpt lat="44.11741302300242" lon="11.35365095459274"><ele>520.0</ele><time>2026-04-26T11:04:34.001Z</time></trkpt><trkpt lat="44.117313420461414" lon="11.353773793516602"><ele>518.0</ele><time>2026-04-26T11:04:35.001Z</time></trkpt><trkpt lat="44.11718819890429" lon="11.353843618336684"><ele>516.0</ele><time>2026-04-26T11:04:36.001Z</time></trkpt><trkpt lat="44.11704988228066" lon="11.353854140733315"><ele>514.0</ele><time>2026-04-26T11:04:37.001Z</time></trkpt><trkpt lat="44.11692924125539" lon="11.353828925852214"><ele>514.0</ele><time>2026-04-26T11:04:38.001Z</time></trkpt><trkpt lat="44.116825101561176" lon="11.353817114801805"><ele>514.0</ele><time>2026-04-26T11:04:39.001Z</time></trkpt><trkpt lat="44.11674041803611" lon="11.353813707650803"><ele>514.0</ele><time>2026-04-26T11:04:40.001Z</time></trkpt><trkpt lat="44.1166704818559" lon="11.353895134444688"><ele>514.0</ele><time>2026-04-26T11:04:41.001Z</time></trkpt><trkpt lat="44.11662417530282" lon="11.354041384428117"><ele>514.0</ele><time>2026-04-26T11:04:42.001Z</time></trkpt><trkpt lat="44.11660222619118" lon="11.354213779856877"><ele>513.75</ele><time>2026-04-26T11:04:43.001Z</time></trkpt><trkpt lat="44.11659560939379" lon="11.35441088512715"><ele>513.5</ele><time>2026-04-26T11:04:44.001Z</time></trkpt><trkpt lat="44.116577909499576" lon="11.35460555928526"><ele>513.25</ele><time>2026-04-26T11:04:45.001Z</time></trkpt><trkpt lat="44.11649321278705" lon="11.354761268442052"><ele>513.0</ele><time>2026-04-26T11:04:46.001Z</time></trkpt><trkpt lat="44.11641111319677" lon="11.354906226857654"><ele>508.5</ele><time>2026-04-26T11:04:47.001Z</time></trkpt><trkpt lat="44.11633899796239" lon="11.35503595100446"><ele>504.0</ele><time>2026-04-26T11:04:48.001Z</time></trkpt><trkpt lat="44.1162999751682" lon="11.355197900355849"><ele>499.5</ele><time>2026-04-26T11:04:49.001Z</time></trkpt><trkpt lat="44.11631140953062" lon="11.355386465355844"><ele>495.0</ele><time>2026-04-26T11:04:50.001Z</time></trkpt><trkpt lat="44.11634688855845" lon="11.355579862306243"><ele>493.5</ele><time>2026-04-26T11:04:51.001Z</time></trkpt><trkpt lat="44.1164030091892" lon="11.355770270120278"><ele>492.0</ele><time>2026-04-26T11:04:52.001Z</time></trkpt><trkpt lat="44.11646208994109" lon="11.355942048066588"><ele>490.5</ele><time>2026-04-26T11:04:53.001Z</time></trkpt><trkpt lat="44.116539043666386" lon="11.356087681374404"><ele>489.0</ele><time>2026-04-26T11:04:54.001Z</time></trkpt><trkpt lat="44.11660616165204" lon="11.356229230775359"><ele>491.0</ele><time>2026-04-26T11:04:55.001Z</time></trkpt><trkpt lat="44.11662189716587" lon="11.356392709880424"><ele>493.0</ele><time>2026-04-26T11:04:56.001Z</time></trkpt><trkpt lat="44.11656585469471" lon="11.356555244352485"><ele>495.0</ele><time>2026-04-26T11:04:57.001Z</time></trkpt><trkpt lat="44.11648957466909" lon="11.356699538763065"><ele>497.0</ele><time>2026-04-26T11:04:58.001Z</time></trkpt><trkpt lat="44.11646101628602" lon="11.356862917227476"><ele>493.0</ele><time>2026-04-26T11:04:59.001Z</time></trkpt><trkpt lat="44.11646080028491" lon="11.357051573087249"><ele>489.0</ele><time>2026-04-26T11:05:00Z</time></trkpt><trkpt lat="44.11647629072513" lon="11.357251152910138"><ele>485.0</ele><time>2026-04-26T11:05:01Z</time></trkpt><trkpt lat="44.11648522735029" lon="11.357449760736564"><ele>481.0</ele><time>2026-04-26T11:05:02Z</time></trkpt><trkpt lat="44.11650864948109" lon="11.357654818386525"><ele>480.6666666666667</ele><time>2026-04-26T11:05:03Z</time></trkpt><trkpt lat="44.11655016072606" lon="11.35786636840872"><ele>480.33333333333337</ele><time>2026-04-26T11:05:04Z</time></trkpt><trkpt lat="44.11658714494317" lon="11.358085313538307"><ele>480.0</ele><time>2026-04-26T11:05:05Z</time></trkpt><trkpt lat="44.11661085129021" lon="11.35830383246436"><ele>480.0</ele><time>2026-04-26T11:05:06Z</time></trkpt><trkpt lat="44.116659081752196" lon="11.358519745039093"><ele>480.0</ele><time>2026-04-26T11:05:07Z</time></trkpt><trkpt lat="44.11673111718364" lon="11.35872112437666"><ele>480.0</ele><time>2026-04-26T11:05:08Z</time></trkpt><trkpt lat="44.116793359188264" lon="11.358913250518206"><ele>477.0</ele><time>2026-04-26T11:05:09Z</time></trkpt><trkpt lat="44.116842998703" lon="11.359083092968847"><ele>474.0</ele><time>2026-04-26T11:05:10Z</time></trkpt><trkpt lat="44.11688954753076" lon="11.359237945187477"><ele>471.0</ele><time>2026-04-26T11:05:11Z</time></trkpt><trkpt lat="44.11696525974834" lon="11.3593614659709"><ele>468.0</ele><time>2026-04-26T11:05:12Z</time></trkpt><trkpt lat="44.117088521120706" lon="11.359451227058868"><ele>468.0</ele><time>2026-04-26T11:05:13Z</time></trkpt><trkpt lat="44.1172409828378" lon="11.359510504314871"><ele>468.0</ele><time>2026-04-26T11:05:14Z</time></trkpt><trkpt lat="44.11740829699534" lon="11.359556990460325"><ele>468.0</ele><time>2026-04-26T11:05:15Z</time></trkpt><trkpt lat="44.11757457855431" lon="11.359621582996697"><ele>466.0</ele><time>2026-04-26T11:05:16Z</time></trkpt><trkpt lat="44.117730455980066" lon="11.359692823692424"><ele>464.0</ele><time>2026-04-26T11:05:17Z</time></trkpt><trkpt lat="44.11788858200024" lon="11.35976177091237"><ele>462.0</ele><time>2026-04-26T11:05:18Z</time></trkpt><trkpt lat="44.11805309719984" lon="11.35981614032271"><ele>462.0</ele><time>2026-04-26T11:05:19Z</time></trkpt><trkpt lat="44.11821777645563" lon="11.359851694764911"><ele>462.0</ele><time>2026-04-26T11:05:20Z</time></trkpt><trkpt lat="44.11837827941457" lon="11.359888263950989"><ele>462.0</ele><time>2026-04-26T11:05:21Z</time></trkpt><trkpt lat="44.11852537403913" lon="11.359914654823324"><ele>462.0</ele><time>2026-04-26T11:05:22Z</time></trkpt><trkpt lat="44.118663355935745" lon="11.359919403084296"><ele>462.0</ele><time>2026-04-26T11:05:23Z</time></trkpt><trkpt lat="44.118791248861704" lon="11.359893469370375"><ele>462.0</ele><time>2026-04-26T11:05:24Z</time></trkpt><trkpt lat="44.11889600297119" lon="11.359851631004277"><ele>462.0</ele><time>2026-04-26T11:05:25Z</time></trkpt><trkpt lat="44.11898610016708" lon="11.359857327662807"><ele>462.0</ele><time>2026-04-26T11:05:26Z</time></trkpt><trkpt lat="44.11905658421162" lon="11.35985420961676"><ele>462.00000000000006</ele><time>2026-04-26T11:05:27Z</time></trkpt><trkpt lat="44.11911456737738" lon="11.36000353128982"><ele>462.00000000000006</ele><time>2026-04-26T11:05:29Z</time></trkpt><trkpt lat="44.119068049078365" lon="11.360123361425925"><ele>462.0</ele><time>2026-04-26T11:05:30Z</time></trkpt><trkpt lat="44.11896973665829" lon="11.36021022275879"><ele>462.0</ele><time>2026-04-26T11:05:31Z</time></trkpt><trkpt lat="44.1188687997997" lon="11.360346802489136"><ele>462.0</ele><time>2026-04-26T11:05:32Z</time></trkpt><trkpt lat="44.118764465304366" lon="11.360471541457061"><ele>462.0</ele><time>2026-04-26T11:05:33Z</time></trkpt><trkpt lat="44.11865118654546" lon="11.360615266695278"><ele>462.0</ele><time>2026-04-26T11:05:34Z</time></trkpt><trkpt lat="44.118542111130395" lon="11.36075618244655"><ele>462.0</ele><time>2026-04-26T11:05:35Z</time></trkpt><trkpt lat="44.11843752119482" lon="11.360897649625796"><ele>459.0</ele><time>2026-04-26T11:05:36Z</time></trkpt><trkpt lat="44.118336157898526" lon="11.361033202573932"><ele>456.0</ele><time>2026-04-26T11:05:37Z</time></trkpt><trkpt lat="44.11823817843893" lon="11.361158797482336"><ele>453.0</ele><time>2026-04-26T11:05:38Z</time></trkpt><trkpt lat="44.11815599500277" lon="11.361262886175782"><ele>450.0</ele><time>2026-04-26T11:05:39Z</time></trkpt><trkpt lat="44.118089339898205" lon="11.361353660901267"><ele>447.8</ele><time>2026-04-26T11:05:40Z</time></trkpt><trkpt lat="44.1180544170661" lon="11.361462380772549"><ele>445.6</ele><time>2026-04-26T11:05:41Z</time></trkpt><trkpt lat="44.11806210945217" lon="11.36159686428039"><ele>443.4</ele><time>2026-04-26T11:05:42Z</time></trkpt><trkpt lat="44.118110101997985" lon="11.361750313973529"><ele>441.2</ele><time>2026-04-26T11:05:43Z</time></trkpt><trkpt lat="44.11818165312938" lon="11.361888606508831"><ele>439.0</ele><time>2026-04-26T11:05:44Z</time></trkpt><trkpt lat="44.11825442722581" lon="11.362011679838357"><ele>438.6</ele><time>2026-04-26T11:05:45Z</time></trkpt><trkpt lat="44.118301638055" lon="11.362137464695296"><ele>438.2</ele><time>2026-04-26T11:05:46Z</time></trkpt><trkpt lat="44.11832985315663" lon="11.362256540536594"><ele>437.80000000000007</ele><time>2026-04-26T11:05:47Z</time></trkpt><trkpt lat="44.1182917221447" lon="11.362388884867396"><ele>437.40000000000003</ele><time>2026-04-26T11:05:48Z</time></trkpt><trkpt lat="44.11824098328107" lon="11.362492683323573"><ele>437.0</ele><time>2026-04-26T11:05:49Z</time></trkpt><trkpt lat="44.11816636309599" lon="11.362579602196789"><ele>435.75</ele><time>2026-04-26T11:05:50Z</time></trkpt><trkpt lat="44.11806121091935" lon="11.362628876512739"><ele>434.5</ele><time>2026-04-26T11:05:51Z</time></trkpt><trkpt lat="44.117935992620176" lon="11.362622878103863"><ele>433.25</ele><time>2026-04-26T11:05:52Z</time></trkpt><trkpt lat="44.1178087517703" lon="11.36265844547999"><ele>432.0</ele><time>2026-04-26T11:05:53Z</time></trkpt><trkpt lat="44.117670028895304" lon="11.36267155791714"><ele>432.0</ele><time>2026-04-26T11:05:54Z</time></trkpt><trkpt lat="44.11754386668579" lon="11.362695291250958"><ele>432.00000000000006</ele><time>2026-04-26T11:05:55Z</time></trkpt><trkpt lat="44.11743011640626" lon="11.362712393221646"><ele>432.00000000000006</ele><time>2026-04-26T11:05:56Z</time></trkpt><trkpt lat="44.11733297648256" lon="11.362722791094079"><ele>432.0</ele><time>2026-04-26T11:05:57Z</time></trkpt><trkpt lat="44.11724769437626" lon="11.362742464384299"><ele>432.0</ele><time>2026-04-26T11:05:58Z</time></trkpt><trkpt lat="44.11716854945532" lon="11.362755007011486"><ele>432.25</ele><time>2026-04-26T11:05:59Z</time></trkpt><trkpt lat="44.11709962019872" lon="11.36277241366374"><ele>432.5</ele><time>2026-04-26T11:06:00Z</time></trkpt><trkpt lat="44.117001465440225" lon="11.36276988722699"><ele>432.75</ele><time>2026-04-26T11:06:02Z</time></trkpt><trkpt lat="44.11700411859964" lon="11.363020719031281"><ele>433.0</ele><time>2026-04-26T11:06:03Z</time></trkpt><trkpt lat="44.11701730769351" lon="11.36316184203865"><ele>432.25</ele><time>2026-04-26T11:06:04Z</time></trkpt><trkpt lat="44.11703671246256" lon="11.363326039675938"><ele>431.5</ele><time>2026-04-26T11:06:05Z</time></trkpt><trkpt lat="44.11705112940168" lon="11.363516774586987"><ele>430.75</ele><time>2026-04-26T11:06:06Z</time></trkpt><trkpt lat="44.117058456057215" lon="11.363717929769948"><ele>430.0</ele><time>2026-04-26T11:06:07Z</time></trkpt><trkpt lat="44.11705761048422" lon="11.363921430605565"><ele>430.0</ele><time>2026-04-26T11:06:08Z</time></trkpt><trkpt lat="44.117056513208425" lon="11.364142850484871"><ele>430.0</ele><time>2026-04-26T11:06:09Z</time></trkpt><trkpt lat="44.1170503680499" lon="11.364355656503847"><ele>430.0</ele><time>2026-04-26T11:06:10Z</time></trkpt><trkpt lat="44.11704358154544" lon="11.364575036213708"><ele>429.6666666666667</ele><time>2026-04-26T11:06:11Z</time></trkpt><trkpt lat="44.11703296576053" lon="11.364810443105915"><ele>429.33333333333337</ele><time>2026-04-26T11:06:12Z</time></trkpt><trkpt lat="44.11700746799311" lon="11.365053389683226"><ele>429.0</ele><time>2026-04-26T11:06:13Z</time></trkpt><trkpt lat="44.116968643202725" lon="11.365295421286232"><ele>428.66666666666663</ele><time>2026-04-26T11:06:14Z</time></trkpt><trkpt lat="44.11691975547033" lon="11.365552364630053"><ele>428.3333333333333</ele><time>2026-04-26T11:06:15Z</time></trkpt><trkpt lat="44.11686186273802" lon="11.365819782290522"><ele>428.0</ele><time>2026-04-26T11:06:16Z</time></trkpt><trkpt lat="44.11679847317443" lon="11.366091287949832"><ele>427.66666666666663</ele><time>2026-04-26T11:06:17Z</time></trkpt><trkpt lat="44.116725925398185" lon="11.366370138940344"><ele>427.33333333333337</ele><time>2026-04-26T11:06:18Z</time></trkpt><trkpt lat="44.11665507437334" lon="11.36664809571248"><ele>427.0</ele><time>2026-04-26T11:06:19Z</time></trkpt><trkpt lat="44.11658684942737" lon="11.366923690806967"><ele>427.0</ele><time>2026-04-26T11:06:20Z</time></trkpt><trkpt lat="44.11653063188001" lon="11.367209118660272"><ele>427.0</ele><time>2026-04-26T11:06:21Z</time></trkpt><trkpt lat="44.11649223005591" lon="11.367500338862277"><ele>427.0</ele><time>2026-04-26T11:06:22Z</time></trkpt><trkpt lat="44.11646791262772" lon="11.367803845000411"><ele>427.0</ele><time>2026-04-26T11:06:23Z</time></trkpt><trkpt lat="44.11645577379424" lon="11.36811389352512"><ele>427.0</ele><time>2026-04-26T11:06:24Z</time></trkpt><trkpt lat="44.11646328761167" lon="11.368433084968096"><ele>427.0</ele><time>2026-04-26T11:06:25Z</time></trkpt><trkpt lat="44.11649422811503" lon="11.368752917685722"><ele>427.0</ele><time>2026-04-26T11:06:26Z</time></trkpt><trkpt lat="44.11653938584657" lon="11.369070208837215"><ele>425.5</ele><time>2026-04-26T11:06:27Z</time></trkpt><trkpt lat="44.11658567495875" lon="11.369388037640023"><ele>424.0</ele><time>2026-04-26T11:06:28Z</time></trkpt><trkpt lat="44.1166290622635" lon="11.369703892048271"><ele>424.0</ele><time>2026-04-26T11:06:29Z</time></trkpt><trkpt lat="44.11667059983318" lon="11.370018405656904"><ele>424.0</ele><time>2026-04-26T11:06:30Z</time></trkpt><trkpt lat="44.11670762110554" lon="11.37033651966271"><ele>423.0</ele><time>2026-04-26T11:06:31.001Z</time></trkpt><trkpt lat="44.116743943627704" lon="11.370652322699641"><ele>422.0</ele><time>2026-04-26T11:06:32.001Z</time></trkpt><trkpt lat="44.11678081561313" lon="11.370968376742942"><ele>422.0</ele><time>2026-04-26T11:06:33.001Z</time></trkpt><trkpt lat="44.116810802851525" lon="11.371278299631783"><ele>422.0</ele><time>2026-04-26T11:06:34.001Z</time></trkpt><trkpt lat="44.11682157906548" lon="11.37158470733807"><ele>422.0</ele><time>2026-04-26T11:06:35.001Z</time></trkpt><trkpt lat="44.11681784943654" lon="11.371890636756712"><ele>422.0</ele><time>2026-04-26T11:06:36.001Z</time></trkpt><trkpt lat="44.11678980642713" lon="11.372195114482343"><ele>422.0</ele><time>2026-04-26T11:06:37.001Z</time></trkpt><trkpt lat="44.11675154712021" lon="11.372490634320405"><ele>422.0</ele><time>2026-04-26T11:06:38.001Z</time></trkpt><trkpt lat="44.11670832926477" lon="11.372765553774206"><ele>421.66666666666663</ele><time>2026-04-26T11:06:39.001Z</time></trkpt><trkpt lat="44.116670264326665" lon="11.37302919091317"><ele>421.33333333333337</ele><time>2026-04-26T11:06:40.001Z</time></trkpt><trkpt lat="44.11664282189601" lon="11.373284016754656"><ele>421.0</ele><time>2026-04-26T11:06:41.001Z</time></trkpt><trkpt lat="44.11662530026864" lon="11.373528668401816"><ele>421.0</ele><time>2026-04-26T11:06:42.001Z</time></trkpt><trkpt lat="44.116619640612555" lon="11.373772796402987"><ele>421.0</ele><time>2026-04-26T11:06:43.001Z</time></trkpt><trkpt lat="44.11663460830941" lon="11.374016482330463"><ele>421.0</ele><time>2026-04-26T11:06:44.001Z</time></trkpt><trkpt lat="44.116668188977506" lon="11.374261171053226"><ele>421.0</ele><time>2026-04-26T11:06:45.001Z</time></trkpt><trkpt lat="44.11672194262375" lon="11.374503165905889"><ele>421.0</ele><time>2026-04-26T11:06:46.001Z</time></trkpt><trkpt lat="44.11678418932272" lon="11.374739550295708"><ele>421.0</ele><time>2026-04-26T11:06:47.001Z</time></trkpt><trkpt lat="44.11686801277754" lon="11.374951388480797"><ele>420.6666666666667</ele><time>2026-04-26T11:06:48.001Z</time></trkpt><trkpt lat="44.11695832613136" lon="11.375141574926133"><ele>420.33333333333337</ele><time>2026-04-26T11:06:49.001Z</time></trkpt><trkpt lat="44.117058019196044" lon="11.37530631390077"><ele>420.0</ele><time>2026-04-26T11:06:50.001Z</time></trkpt><trkpt lat="44.117152850919666" lon="11.375461649207208"><ele>420.25</ele><time>2026-04-26T11:06:51.001Z</time></trkpt><trkpt lat="44.11722977155577" lon="11.375622318179046"><ele>420.5</ele><time>2026-04-26T11:06:52.001Z</time></trkpt><trkpt lat="44.11727868374654" lon="11.375797550322705"><ele>420.75</ele><time>2026-04-26T11:06:53.001Z</time></trkpt><trkpt lat="44.11728359578829" lon="11.375979550749586"><ele>421.0</ele><time>2026-04-26T11:06:54.001Z</time></trkpt><trkpt lat="44.117249586321115" lon="11.376153938479533"><ele>421.0</ele><time>2026-04-26T11:06:55.001Z</time></trkpt><trkpt lat="44.11719752847707" lon="11.376324725341721"><ele>421.0</ele><time>2026-04-26T11:06:56.001Z</time></trkpt><trkpt lat="44.11714918933647" lon="11.376510521689612"><ele>421.0</ele><time>2026-04-26T11:06:57.001Z</time></trkpt><trkpt lat="44.117109783177185" lon="11.376710173823275"><ele>421.0</ele><time>2026-04-26T11:06:58Z</time></trkpt><trkpt lat="44.11707858854263" lon="11.376925883627726"><ele>421.0</ele><time>2026-04-26T11:06:59Z</time></trkpt><trkpt lat="44.11707873204135" lon="11.377136004632606"><ele>421.0</ele><time>2026-04-26T11:07:00Z</time></trkpt><trkpt lat="44.117100837539745" lon="11.377337031817975"><ele>421.0</ele><time>2026-04-26T11:07:01Z</time></trkpt><trkpt lat="44.1171331137711" lon="11.377522804098394"><ele>421.0</ele><time>2026-04-26T11:07:02Z</time></trkpt><trkpt lat="44.11716186358334" lon="11.377695773381785"><ele>421.0</ele><time>2026-04-26T11:07:03Z</time></trkpt><trkpt lat="44.11718509373346" lon="11.37785370172899"><ele>421.0</ele><time>2026-04-26T11:07:04Z</time></trkpt><trkpt lat="44.11719785711722" lon="11.377987985489678"><ele>421.0</ele><time>2026-04-26T11:07:05Z</time></trkpt><trkpt lat="44.11720920449594" lon="11.378118463669228"><ele>421.0</ele><time>2026-04-26T11:07:06Z</time></trkpt><trkpt lat="44.11722053350036" lon="11.378243808534123"><ele>421.0</ele><time>2026-04-26T11:07:07Z</time></trkpt><trkpt lat="44.1172349853292" lon="11.378374947898756"><ele>421.0</ele><time>2026-04-26T11:07:08Z</time></trkpt><trkpt lat="44.11724906538069" lon="11.378513888719786"><ele>421.0</ele><time>2026-04-26T11:07:09Z</time></trkpt><trkpt lat="44.117266121436366" lon="11.378653286394908"><ele>421.0</ele><time>2026-04-26T11:07:10Z</time></trkpt><trkpt lat="44.117289490320715" lon="11.378791700896606"><ele>421.0</ele><time>2026-04-26T11:07:11Z</time></trkpt><trkpt lat="44.11730965450025" lon="11.37893404375696"><ele>421.0</ele><time>2026-04-26T11:07:12Z</time></trkpt><trkpt lat="44.11733080885067" lon="11.379075108726553"><ele>420.4</ele><time>2026-04-26T11:07:13Z</time></trkpt><trkpt lat="44.11735609010523" lon="11.379202360501534"><ele>419.8</ele><time>2026-04-26T11:07:14Z</time></trkpt><trkpt lat="44.117367470966606" lon="11.379322740379138"><ele>419.2</ele><time>2026-04-26T11:07:15Z</time></trkpt><trkpt lat="44.11737434278612" lon="11.37942457327179"><ele>418.59999999999997</ele><time>2026-04-26T11:07:16Z</time></trkpt><trkpt lat="44.11736779990285" lon="11.379579910795464"><ele>418.0</ele><time>2026-04-26T11:07:18Z</time></trkpt><trkpt lat="44.11737004133984" lon="11.379745003637165"><ele>418.0</ele><time>2026-04-26T11:07:20Z</time></trkpt><trkpt lat="44.11738980460934" lon="11.379860908957685"><ele>418.0</ele><time>2026-04-26T11:07:21Z</time></trkpt><trkpt lat="44.11742652470833" lon="11.380004309876389"><ele>418.0</ele><time>2026-04-26T11:07:22Z</time></trkpt><trkpt lat="44.11746785951384" lon="11.38016744741195"><ele>418.0</ele><time>2026-04-26T11:07:22.999Z</time></trkpt><trkpt lat="44.11748793672823" lon="11.380341905508288"><ele>418.0</ele><time>2026-04-26T11:07:23.999Z</time></trkpt><trkpt lat="44.11753190383386" lon="11.380529727907627"><ele>418.25</ele><time>2026-04-26T11:07:24.999Z</time></trkpt><trkpt lat="44.117577505264315" lon="11.38071218941645"><ele>418.5</ele><time>2026-04-26T11:07:25.999Z</time></trkpt><trkpt lat="44.11763093175045" lon="11.380886147607445"><ele>418.75</ele><time>2026-04-26T11:07:26.999Z</time></trkpt><trkpt lat="44.11767202708655" lon="11.38106961635938"><ele>419.0</ele><time>2026-04-26T11:07:27.999Z</time></trkpt><trkpt lat="44.1177175395079" lon="11.381253063196294"><ele>419.0</ele><time>2026-04-26T11:07:28.999Z</time></trkpt><trkpt lat="44.11775820269337" lon="11.381429424124994"><ele>419.0</ele><time>2026-04-26T11:07:29.999Z</time></trkpt><trkpt lat="44.117796390459944" lon="11.381586086787763"><ele>419.0</ele><time>2026-04-26T11:07:30.999Z</time></trkpt><trkpt lat="44.117832983330395" lon="11.381732071905281"><ele>419.0</ele><time>2026-04-26T11:07:31.999Z</time></trkpt><trkpt lat="44.11786716932444" lon="11.38187510454164"><ele>419.0</ele><time>2026-04-26T11:07:32.999Z</time></trkpt><trkpt lat="44.11790161084323" lon="11.382036410080495"><ele>419.0</ele><time>2026-04-26T11:07:33.999Z</time></trkpt><trkpt lat="44.117951667755264" lon="11.382233143062049"><ele>419.0</ele><time>2026-04-26T11:07:34.999Z</time></trkpt><trkpt lat="44.11800695241108" lon="11.382442457334323"><ele>419.0</ele><time>2026-04-26T11:07:35.999Z</time></trkpt><trkpt lat="44.11805974924702" lon="11.382655387229073"><ele>418.0</ele><time>2026-04-26T11:07:36.999Z</time></trkpt><trkpt lat="44.11811550567133" lon="11.382876014155094"><ele>417.0</ele><time>2026-04-26T11:07:37.999Z</time></trkpt><trkpt lat="44.11816624665347" lon="11.383092633592112"><ele>416.0</ele><time>2026-04-26T11:07:38.999Z</time></trkpt><trkpt lat="44.11821421699464" lon="11.38329697132937"><ele>416.0</ele><time>2026-04-26T11:07:39.999Z</time></trkpt><trkpt lat="44.11826230568546" lon="11.383512950251905"><ele>416.0</ele><time>2026-04-26T11:07:40.999Z</time></trkpt><trkpt lat="44.11831410789643" lon="11.38372493694282"><ele>416.0</ele><time>2026-04-26T11:07:41.999Z</time></trkpt><trkpt lat="44.11837552885257" lon="11.38394237337671"><ele>416.0</ele><time>2026-04-26T11:07:42.999Z</time></trkpt><trkpt lat="44.11843035148175" lon="11.384169567099114"><ele>416.0</ele><time>2026-04-26T11:07:43.999Z</time></trkpt><trkpt lat="44.11848338647347" lon="11.384395949447697"><ele>416.0</ele><time>2026-04-26T11:07:44.999Z</time></trkpt><trkpt lat="44.11853856443986" lon="11.384627022933065"><ele>416.0</ele><time>2026-04-26T11:07:45.999Z</time></trkpt><trkpt lat="44.118589967456664" lon="11.384861500025151"><ele>416.0</ele><time>2026-04-26T11:07:46.999Z</time></trkpt><trkpt lat="44.118643789673456" lon="11.385099994269822"><ele>416.0</ele><time>2026-04-26T11:07:47.999Z</time></trkpt><trkpt lat="44.11869921877897" lon="11.385341617442883"><ele>415.66666666666663</ele><time>2026-04-26T11:07:48.999Z</time></trkpt><trkpt lat="44.118753080158896" lon="11.385587150350961"><ele>415.33333333333337</ele><time>2026-04-26T11:07:49.999Z</time></trkpt><trkpt lat="44.11880392538873" lon="11.385831203812655"><ele>415.0</ele><time>2026-04-26T11:07:50.999Z</time></trkpt><trkpt lat="44.11885607028083" lon="11.386071043457315"><ele>415.0</ele><time>2026-04-26T11:07:51.999Z</time></trkpt><trkpt lat="44.11890665187962" lon="11.38631146266002"><ele>415.0</ele><time>2026-04-26T11:07:52.999Z</time></trkpt><trkpt lat="44.11895617478251" lon="11.386553554649472"><ele>415.0</ele><time>2026-04-26T11:07:53.999Z</time></trkpt><trkpt lat="44.11900718172116" lon="11.386794850772992"><ele>415.0</ele><time>2026-04-26T11:07:54.999Z</time></trkpt><trkpt lat="44.11906117917502" lon="11.387034306164285"><ele>415.0</ele><time>2026-04-26T11:07:55.999Z</time></trkpt><trkpt lat="44.119114015098035" lon="11.387275802266826"><ele>415.0</ele><time>2026-04-26T11:07:56.999Z</time></trkpt><trkpt lat="44.11916423164819" lon="11.387519322439227"><ele>415.33333333333337</ele><time>2026-04-26T11:07:57.999Z</time></trkpt><trkpt lat="44.1192104494152" lon="11.387762282086499"><ele>415.66666666666663</ele><time>2026-04-26T11:07:58.999Z</time></trkpt><trkpt lat="44.11925896797744" lon="11.387999026303845"><ele>416.0</ele><time>2026-04-26T11:07:59.999Z</time></trkpt><trkpt lat="44.11931111110339" lon="11.388239152439105"><ele>416.0</ele><time>2026-04-26T11:08:00.999Z</time></trkpt><trkpt lat="44.11936223526204" lon="11.3884790226459"><ele>416.0</ele><time>2026-04-26T11:08:01.999Z</time></trkpt><trkpt lat="44.119399075146944" lon="11.388704055714115"><ele>416.0</ele><time>2026-04-26T11:08:02.999Z</time></trkpt><trkpt lat="44.11944627200735" lon="11.388923015923199"><ele>416.3333333333333</ele><time>2026-04-26T11:08:03.999Z</time></trkpt><trkpt lat="44.11951140326779" lon="11.389134810673724"><ele>416.66666666666663</ele><time>2026-04-26T11:08:04.999Z</time></trkpt><trkpt lat="44.11960636136765" lon="11.38933747641334"><ele>417.0</ele><time>2026-04-26T11:08:05.999Z</time></trkpt><trkpt lat="44.119723288661724" lon="11.389532075781228"><ele>416.33333333333337</ele><time>2026-04-26T11:08:06.999Z</time></trkpt><trkpt lat="44.11983355441818" lon="11.389736229537137"><ele>415.6666666666667</ele><time>2026-04-26T11:08:07.999Z</time></trkpt><trkpt lat="44.11993426062751" lon="11.389957671564208"><ele>415.0</ele><time>2026-04-26T11:08:08.999Z</time></trkpt><trkpt lat="44.120015997945714" lon="11.390198106142117"><ele>416.33333333333337</ele><time>2026-04-26T11:08:09.999Z</time></trkpt><trkpt lat="44.120105482899056" lon="11.390431572967204"><ele>417.66666666666663</ele><time>2026-04-26T11:08:10.999Z</time></trkpt><trkpt lat="44.12018383657696" lon="11.390674845427364"><ele>419.0</ele><time>2026-04-26T11:08:11.999Z</time></trkpt><trkpt lat="44.12022980199477" lon="11.39092638895349"><ele>419.0</ele><time>2026-04-26T11:08:12.999Z</time></trkpt><trkpt lat="44.120266098218075" lon="11.3911819696002"><ele>419.0</ele><time>2026-04-26T11:08:13.999Z</time></trkpt><trkpt lat="44.12029083995269" lon="11.391435810544003"><ele>419.0</ele><time>2026-04-26T11:08:14.999Z</time></trkpt><trkpt lat="44.120302637425915" lon="11.391684900652573"><ele>418.0</ele><time>2026-04-26T11:08:15.999Z</time></trkpt><trkpt lat="44.120307721476486" lon="11.391918645532185"><ele>417.0</ele><time>2026-04-26T11:08:16.999Z</time></trkpt><trkpt lat="44.12030231902656" lon="11.392138621313913"><ele>416.0</ele><time>2026-04-26T11:08:17.999Z</time></trkpt><trkpt lat="44.120285431949966" lon="11.392342217669135"><ele>416.0</ele><time>2026-04-26T11:08:18.999Z</time></trkpt><trkpt lat="44.120270704449005" lon="11.392536951455522"><ele>416.0</ele><time>2026-04-26T11:08:19.999Z</time></trkpt><trkpt lat="44.12023328286813" lon="11.39271908910978"><ele>416.0</ele><time>2026-04-26T11:08:20.999Z</time></trkpt><trkpt lat="44.12020152146109" lon="11.392894409629456"><ele>416.0</ele><time>2026-04-26T11:08:21.999Z</time></trkpt><trkpt lat="44.12017937643017" lon="11.393076110202538"><ele>417.0</ele><time>2026-04-26T11:08:22.999Z</time></trkpt><trkpt lat="44.12018171937414" lon="11.393265414119655"><ele>418.0</ele><time>2026-04-26T11:08:23.999Z</time></trkpt><trkpt lat="44.12018691943538" lon="11.39345777317533"><ele>419.0</ele><time>2026-04-26T11:08:24.999Z</time></trkpt><trkpt lat="44.120188851607" lon="11.393663470396373"><ele>420.0</ele><time>2026-04-26T11:08:25.999Z</time></trkpt><trkpt lat="44.12018555450133" lon="11.393885041206563"><ele>420.0</ele><time>2026-04-26T11:08:26.999Z</time></trkpt><trkpt lat="44.12019736440718" lon="11.394104765243013"><ele>420.0</ele><time>2026-04-26T11:08:27.999Z</time></trkpt><trkpt lat="44.12020961475576" lon="11.394316965902208"><ele>420.0</ele><time>2026-04-26T11:08:28.999Z</time></trkpt><trkpt lat="44.12023937154245" lon="11.394522101551663"><ele>416.66666666666663</ele><time>2026-04-26T11:08:29.999Z</time></trkpt><trkpt lat="44.120298557237355" lon="11.394715683528263"><ele>413.3333333333333</ele><time>2026-04-26T11:08:30.999Z</time></trkpt><trkpt lat="44.120384979516665" lon="11.394904856049276"><ele>410.0</ele><time>2026-04-26T11:08:31.999Z</time></trkpt><trkpt lat="44.12049358172345" lon="11.395091884368696"><ele>410.0</ele><time>2026-04-26T11:08:32.999Z</time></trkpt><trkpt lat="44.120593064303456" lon="11.395301058959584"><ele>410.0</ele><time>2026-04-26T11:08:33.999Z</time></trkpt><trkpt lat="44.12070528941725" lon="11.395503317699228"><ele>410.0</ele><time>2026-04-26T11:08:34.999Z</time></trkpt><trkpt lat="44.12081279003042" lon="11.395691357219752"><ele>413.3333333333333</ele><time>2026-04-26T11:08:36Z</time></trkpt><trkpt lat="44.1209185158074" lon="11.395876292209485"><ele>416.66666666666663</ele><time>2026-04-26T11:08:37Z</time></trkpt><trkpt lat="44.12102716676582" lon="11.39606065691872"><ele>420.0</ele><time>2026-04-26T11:08:38Z</time></trkpt><trkpt lat="44.12109271705983" lon="11.396282891115879"><ele>418.0</ele><time>2026-04-26T11:08:39Z</time></trkpt><trkpt lat="44.12116376437742" lon="11.396501198245355"><ele>416.0</ele><time>2026-04-26T11:08:40Z</time></trkpt><trkpt lat="44.121245288880864" lon="11.396703066129756"><ele>414.0</ele><time>2026-04-26T11:08:41Z</time></trkpt><trkpt lat="44.12129231529143" lon="11.396931457146376"><ele>414.0</ele><time>2026-04-26T11:08:42Z</time></trkpt><trkpt lat="44.12131728817424" lon="11.397164185552219"><ele>414.0</ele><time>2026-04-26T11:08:43Z</time></trkpt><trkpt lat="44.121332213650035" lon="11.397375049439146"><ele>414.0</ele><time>2026-04-26T11:08:44Z</time></trkpt><trkpt lat="44.12133215927641" lon="11.39754719495908"><ele>414.0</ele><time>2026-04-26T11:08:45Z</time></trkpt><trkpt lat="44.12132499399887" lon="11.397687216488908"><ele>414.0</ele><time>2026-04-26T11:08:46Z</time></trkpt><trkpt lat="44.121306606288655" lon="11.397796585190877"><ele>414.0</ele><time>2026-04-26T11:08:47Z</time></trkpt><trkpt lat="44.12127631918016" lon="11.397886212351956"><ele>414.0</ele><time>2026-04-26T11:08:48Z</time></trkpt><trkpt lat="44.12120625848571" lon="11.398025317194216"><ele>414.0</ele><time>2026-04-26T11:08:50Z</time></trkpt><trkpt lat="44.12120123201744" lon="11.398214204115357"><ele>414.0</ele><time>2026-04-26T11:08:52Z</time></trkpt><trkpt lat="44.1212460559591" lon="11.398361301462637"><ele>414.0</ele><time>2026-04-26T11:08:53Z</time></trkpt><trkpt lat="44.12130264965522" lon="11.398531019982334"><ele>414.0</ele><time>2026-04-26T11:08:54Z</time></trkpt><trkpt lat="44.121346047033576" lon="11.398707827027222"><ele>414.0</ele><time>2026-04-26T11:08:55Z</time></trkpt><trkpt lat="44.12137609672779" lon="11.398899028163086"><ele>414.0</ele><time>2026-04-26T11:08:56Z</time></trkpt><trkpt lat="44.12139492264721" lon="11.3991151446536"><ele>415.66666666666663</ele><time>2026-04-26T11:08:57Z</time></trkpt><trkpt lat="44.12140540084234" lon="11.399348524035256"><ele>417.3333333333333</ele><time>2026-04-26T11:08:58Z</time></trkpt><trkpt lat="44.12140834074421" lon="11.399583020971203"><ele>419.0</ele><time>2026-04-26T11:08:59Z</time></trkpt><trkpt lat="44.121414951296394" lon="11.399829861699345"><ele>418.3333333333333</ele><time>2026-04-26T11:09:00Z</time></trkpt><trkpt lat="44.12142486022207" lon="11.40009157720543"><ele>417.66666666666663</ele><time>2026-04-26T11:09:01Z</time></trkpt><trkpt lat="44.12143615327936" lon="11.400349206609965"><ele>417.0</ele><time>2026-04-26T11:09:02Z</time></trkpt><trkpt lat="44.12144651636835" lon="11.400597227660938"><ele>417.0</ele><time>2026-04-26T11:09:03Z</time></trkpt><trkpt lat="44.12145365176619" lon="11.400835018175677"><ele>417.0</ele><time>2026-04-26T11:09:04Z</time></trkpt><trkpt lat="44.12149084696284" lon="11.401060578990972"><ele>417.0</ele><time>2026-04-26T11:09:05Z</time></trkpt><trkpt lat="44.12153733265179" lon="11.401274347796596"><ele>416.33333333333337</ele><time>2026-04-26T11:09:06Z</time></trkpt><trkpt lat="44.121621153092775" lon="11.401514306169108"><ele>415.6666666666667</ele><time>2026-04-26T11:09:07Z</time></trkpt><trkpt lat="44.12171729366406" lon="11.401777591102363"><ele>415.0</ele><time>2026-04-26T11:09:08Z</time></trkpt><trkpt lat="44.12179802685645" lon="11.402002526004912"><ele>412.0</ele><time>2026-04-26T11:09:09Z</time></trkpt><trkpt lat="44.121872067381915" lon="11.402224672559447"><ele>409.0</ele><time>2026-04-26T11:09:10Z</time></trkpt><trkpt lat="44.1219281171497" lon="11.402449287357877"><ele>406.0</ele><time>2026-04-26T11:09:11Z</time></trkpt><trkpt lat="44.121961359764896" lon="11.402680720544422"><ele>406.0</ele><time>2026-04-26T11:09:12Z</time></trkpt><trkpt lat="44.12200450636872" lon="11.402907553709712"><ele>406.0</ele><time>2026-04-26T11:09:13Z</time></trkpt><trkpt lat="44.122032923883204" lon="11.403140288277521"><ele>406.0</ele><time>2026-04-26T11:09:14Z</time></trkpt><trkpt lat="44.12204142931234" lon="11.403369049320164"><ele>405.6666666666667</ele><time>2026-04-26T11:09:15Z</time></trkpt><trkpt lat="44.12202409943699" lon="11.403597903267826"><ele>405.33333333333337</ele><time>2026-04-26T11:09:16Z</time></trkpt><trkpt lat="44.121984161722935" lon="11.403829413855789"><ele>405.0</ele><time>2026-04-26T11:09:17Z</time></trkpt><trkpt lat="44.12190317302746" lon="11.404052013215791"><ele>406.0</ele><time>2026-04-26T11:09:18Z</time></trkpt><trkpt lat="44.12181782858729" lon="11.404276420558968"><ele>407.0</ele><time>2026-04-26T11:09:19Z</time></trkpt><trkpt lat="44.121721255168616" lon="11.404488714670975"><ele>408.0</ele><time>2026-04-26T11:09:20Z</time></trkpt><trkpt lat="44.121627602960025" lon="11.404702284820367"><ele>408.0</ele><time>2026-04-26T11:09:21Z</time></trkpt><trkpt lat="44.121537720316006" lon="11.40492082361175"><ele>408.0</ele><time>2026-04-26T11:09:22Z</time></trkpt><trkpt lat="44.12143038909576" lon="11.405123119153846"><ele>408.0</ele><time>2026-04-26T11:09:23Z</time></trkpt><trkpt lat="44.12131711271769" lon="11.405316837506978"><ele>405.33333333333337</ele><time>2026-04-26T11:09:24Z</time></trkpt><trkpt lat="44.12121469533258" lon="11.405520758684915"><ele>402.6666666666667</ele><time>2026-04-26T11:09:25Z</time></trkpt><trkpt lat="44.121099574265166" lon="11.405710875462802"><ele>400.0</ele><time>2026-04-26T11:09:26Z</time></trkpt><trkpt lat="44.120992345433706" lon="11.405950358371602"><ele>400.0</ele><time>2026-04-26T11:09:27Z</time></trkpt><trkpt lat="44.120922259010825" lon="11.406204500822184"><ele>400.0</ele><time>2026-04-26T11:09:28Z</time></trkpt><trkpt lat="44.120825816906155" lon="11.406464984460419"><ele>400.0</ele><time>2026-04-26T11:09:29Z</time></trkpt><trkpt lat="44.12073616335408" lon="11.406738635836323"><ele>402.0</ele><time>2026-04-26T11:09:30Z</time></trkpt><trkpt lat="44.12063432493032" lon="11.407006848517188"><ele>404.0</ele><time>2026-04-26T11:09:31Z</time></trkpt><trkpt lat="44.12052601614775" lon="11.4072735685241"><ele>406.0</ele><time>2026-04-26T11:09:32Z</time></trkpt><trkpt lat="44.12041688826687" lon="11.407537674083986"><ele>406.0</ele><time>2026-04-26T11:09:33Z</time></trkpt><trkpt lat="44.12032130968359" lon="11.40780855166259"><ele>406.0</ele><time>2026-04-26T11:09:34Z</time></trkpt><trkpt lat="44.120213329073216" lon="11.40806512912903"><ele>406.0</ele><time>2026-04-26T11:09:35Z</time></trkpt><trkpt lat="44.12012451183429" lon="11.408315881351436"><ele>404.6666666666667</ele><time>2026-04-26T11:09:36Z</time></trkpt><trkpt lat="44.120057316793115" lon="11.408570743247415"><ele>403.33333333333337</ele><time>2026-04-26T11:09:37Z</time></trkpt><trkpt lat="44.1200135440577" lon="11.408839521940891"><ele>402.0</ele><time>2026-04-26T11:09:38Z</time></trkpt><trkpt lat="44.11999574333006" lon="11.409124859521052"><ele>402.0</ele><time>2026-04-26T11:09:39Z</time></trkpt><trkpt lat="44.119988065855296" lon="11.409418019347902"><ele>402.0</ele><time>2026-04-26T11:09:40Z</time></trkpt><trkpt lat="44.11998231347169" lon="11.409711292893416"><ele>402.0</ele><time>2026-04-26T11:09:41Z</time></trkpt><trkpt lat="44.119972094631514" lon="11.409988004090936"><ele>403.0</ele><time>2026-04-26T11:09:42Z</time></trkpt><trkpt lat="44.11996163455356" lon="11.4102426088422"><ele>404.0</ele><time>2026-04-26T11:09:43Z</time></trkpt><trkpt lat="44.119934534098874" lon="11.410480830610437"><ele>405.0</ele><time>2026-04-26T11:09:44Z</time></trkpt><trkpt lat="44.11992818167308" lon="11.410692359156824"><ele>405.25</ele><time>2026-04-26T11:09:45Z</time></trkpt><trkpt lat="44.119915638015925" lon="11.410887186413609"><ele>405.5</ele><time>2026-04-26T11:09:45.999Z</time></trkpt><trkpt lat="44.119866912487836" lon="11.411057219535698"><ele>405.75</ele><time>2026-04-26T11:09:46.999Z</time></trkpt><trkpt lat="44.11977572129922" lon="11.411228186194146"><ele>406.0</ele><time>2026-04-26T11:09:47.999Z</time></trkpt><trkpt lat="44.11967140451394" lon="11.411409907945325"><ele>406.0</ele><time>2026-04-26T11:09:48.999Z</time></trkpt><trkpt lat="44.11955528616237" lon="11.411588245221736"><ele>406.0</ele><time>2026-04-26T11:09:49.999Z</time></trkpt><trkpt lat="44.11943187810124" lon="11.411749698461454"><ele>406.0</ele><time>2026-04-26T11:09:50.999Z</time></trkpt><trkpt lat="44.11930375718498" lon="11.411885866074394"><ele>406.0</ele><time>2026-04-26T11:09:51.999Z</time></trkpt><trkpt lat="44.11918210886379" lon="11.412012814093739"><ele>406.0</ele><time>2026-04-26T11:09:52.999Z</time></trkpt><trkpt lat="44.11904061081101" lon="11.412061084053065"><ele>406.0</ele><time>2026-04-26T11:09:53.999Z</time></trkpt><trkpt lat="44.11889939443521" lon="11.412066560690828"><ele>406.0</ele><time>2026-04-26T11:09:54.999Z</time></trkpt><trkpt lat="44.11876413278641" lon="11.41205634822226"><ele>406.0</ele><time>2026-04-26T11:09:55.999Z</time></trkpt><trkpt lat="44.11863413443338" lon="11.412075400784405"><ele>406.0</ele><time>2026-04-26T11:09:56.999Z</time></trkpt><trkpt lat="44.11851860839624" lon="11.412169062739638"><ele>406.0</ele><time>2026-04-26T11:09:57.999Z</time></trkpt><trkpt lat="44.11840380621285" lon="11.412340256955003"><ele>406.0</ele><time>2026-04-26T11:09:58.999Z</time></trkpt><trkpt lat="44.118316837121135" lon="11.412558353118925"><ele>405.0</ele><time>2026-04-26T11:09:59.999Z</time></trkpt><trkpt lat="44.11821335811314" lon="11.412749017926274"><ele>404.0</ele><time>2026-04-26T11:10:00.999Z</time></trkpt><trkpt lat="44.11813177823052" lon="11.412963915715883"><ele>403.0</ele><time>2026-04-26T11:10:01.999Z</time></trkpt><trkpt lat="44.11808191853886" lon="11.413205584865791"><ele>403.0</ele><time>2026-04-26T11:10:02.999Z</time></trkpt><trkpt lat="44.11805417640224" lon="11.413435937764685"><ele>403.0</ele><time>2026-04-26T11:10:03.999Z</time></trkpt><trkpt lat="44.117956404240154" lon="11.413641331718681"><ele>403.0</ele><time>2026-04-26T11:10:04.999Z</time></trkpt><trkpt lat="44.11783898298244" lon="11.413806635022357"><ele>402.0</ele><time>2026-04-26T11:10:05.999Z</time></trkpt><trkpt lat="44.117733316595725" lon="11.413978910177892"><ele>401.0</ele><time>2026-04-26T11:10:06.999Z</time></trkpt><trkpt lat="44.11763741466502" lon="11.414145626688361"><ele>400.0</ele><time>2026-04-26T11:10:07.999Z</time></trkpt><trkpt lat="44.11755093210057" lon="11.414314355666294"><ele>400.0</ele><time>2026-04-26T11:10:08.999Z</time></trkpt><trkpt lat="44.117489674917884" lon="11.414506257067872"><ele>400.0</ele><time>2026-04-26T11:10:09.999Z</time></trkpt><trkpt lat="44.117456398111536" lon="11.414714689716508"><ele>400.0</ele><time>2026-04-26T11:10:10.999Z</time></trkpt><trkpt lat="44.11746199800222" lon="11.414929567748679"><ele>401.0</ele><time>2026-04-26T11:10:11.999Z</time></trkpt><trkpt lat="44.117511392453416" lon="11.415142257202737"><ele>402.0</ele><time>2026-04-26T11:10:12.999Z</time></trkpt><trkpt lat="44.11756065977856" lon="11.415358322156903"><ele>403.0</ele><time>2026-04-26T11:10:13.999Z</time></trkpt><trkpt lat="44.11758530773763" lon="11.415584746787259"><ele>404.0</ele><time>2026-04-26T11:10:14.999Z</time></trkpt><trkpt lat="44.11759925019347" lon="11.415806560870175"><ele>405.0</ele><time>2026-04-26T11:10:15.999Z</time></trkpt><trkpt lat="44.11758860701822" lon="11.41602099219273"><ele>406.0</ele><time>2026-04-26T11:10:16.999Z</time></trkpt><trkpt lat="44.11754509643768" lon="11.416222572450602"><ele>412.33333333333337</ele><time>2026-04-26T11:10:17.999Z</time></trkpt><trkpt lat="44.11746522547568" lon="11.416405759033866"><ele>418.66666666666663</ele><time>2026-04-26T11:10:18.999Z</time></trkpt><trkpt lat="44.1173745646728" lon="11.416587975353723"><ele>425.0</ele><time>2026-04-26T11:10:19.999Z</time></trkpt><trkpt lat="44.11726047932827" lon="11.416756431664819"><ele>420.66666666666663</ele><time>2026-04-26T11:10:20.999Z</time></trkpt><trkpt lat="44.117125930189964" lon="11.416905619005787"><ele>416.33333333333337</ele><time>2026-04-26T11:10:21.999Z</time></trkpt><trkpt lat="44.11697642347016" lon="11.417029350532214"><ele>412.0</ele><time>2026-04-26T11:10:22.999Z</time></trkpt><trkpt lat="44.11686018042024" lon="11.417190704917418"><ele>412.0</ele><time>2026-04-26T11:10:23.999Z</time></trkpt><trkpt lat="44.116743808619034" lon="11.417329159837207"><ele>412.0</ele><time>2026-04-26T11:10:24.999Z</time></trkpt><trkpt lat="44.11662933996612" lon="11.417455130464829"><ele>412.0</ele><time>2026-04-26T11:10:25.999Z</time></trkpt><trkpt lat="44.116506244177074" lon="11.417555763968908"><ele>412.0</ele><time>2026-04-26T11:10:26.999Z</time></trkpt><trkpt lat="44.1163639278194" lon="11.417603957250517"><ele>404.6666666666667</ele><time>2026-04-26T11:10:27.999Z</time></trkpt><trkpt lat="44.116218863844324" lon="11.417673089023202"><ele>397.33333333333337</ele><time>2026-04-26T11:10:28.999Z</time></trkpt><trkpt lat="44.11606243941827" lon="11.417676049417052"><ele>390.0</ele><time>2026-04-26T11:10:29.999Z</time></trkpt><trkpt lat="44.1159158073361" lon="11.417672556352093"><ele>390.0</ele><time>2026-04-26T11:10:30.999Z</time></trkpt><trkpt lat="44.11576792833522" lon="11.417658577613881"><ele>390.0</ele><time>2026-04-26T11:10:31.999Z</time></trkpt><trkpt lat="44.11563580612974" lon="11.417649531038158"><ele>390.0</ele><time>2026-04-26T11:10:32.999Z</time></trkpt><trkpt lat="44.11551829425372" lon="11.417660729200703"><ele>390.0</ele><time>2026-04-26T11:10:33.999Z</time></trkpt><trkpt lat="44.11540708816218" lon="11.417653739694074"><ele>387.2</ele><time>2026-04-26T11:10:34.999Z</time></trkpt><trkpt lat="44.11531771677323" lon="11.417684716692206"><ele>384.4</ele><time>2026-04-26T11:10:35.999Z</time></trkpt><trkpt lat="44.115251468083805" lon="11.417768152894135"><ele>381.6</ele><time>2026-04-26T11:10:36.999Z</time></trkpt><trkpt lat="44.115229950106816" lon="11.417895598099937"><ele>378.8</ele><time>2026-04-26T11:10:37.999Z</time></trkpt><trkpt lat="44.11525522827993" lon="11.418039020846008"><ele>376.0</ele><time>2026-04-26T11:10:38.999Z</time></trkpt><trkpt lat="44.11532688174677" lon="11.41817469176776"><ele>376.0</ele><time>2026-04-26T11:10:39.999Z</time></trkpt><trkpt lat="44.115435885988475" lon="11.41830047519444"><ele>376.0</ele><time>2026-04-26T11:10:40.999Z</time></trkpt><trkpt lat="44.1155577214013" lon="11.4184435929046"><ele>376.0</ele><time>2026-04-26T11:10:42Z</time></trkpt><trkpt lat="44.115692523984464" lon="11.418587979359277"><ele>379.75</ele><time>2026-04-26T11:10:43Z</time></trkpt><trkpt lat="44.11581039425033" lon="11.418717848157726"><ele>383.5</ele><time>2026-04-26T11:10:44Z</time></trkpt><trkpt lat="44.11590625538065" lon="11.418876442647765"><ele>387.25</ele><time>2026-04-26T11:10:45Z</time></trkpt><trkpt lat="44.11601551269597" lon="11.419005666130648"><ele>391.0</ele><time>2026-04-26T11:10:46Z</time></trkpt><trkpt lat="44.11607223174684" lon="11.419176299579226"><ele>391.0</ele><time>2026-04-26T11:10:47Z</time></trkpt><trkpt lat="44.11610966148225" lon="11.419346233746928"><ele>391.0</ele><time>2026-04-26T11:10:48Z</time></trkpt><trkpt lat="44.11613812747031" lon="11.41953318348048"><ele>391.0</ele><time>2026-04-26T11:10:49Z</time></trkpt><trkpt lat="44.11617095853944" lon="11.419726603595029"><ele>391.0</ele><time>2026-04-26T11:10:50Z</time></trkpt><trkpt lat="44.116202511794995" lon="11.419921205975852"><ele>388.20000000000005</ele><time>2026-04-26T11:10:51Z</time></trkpt><trkpt lat="44.11621816107612" lon="11.420106014104952"><ele>385.40000000000003</ele><time>2026-04-26T11:10:52Z</time></trkpt><trkpt lat="44.11622075154149" lon="11.42025959925217"><ele>382.6</ele><time>2026-04-26T11:10:53Z</time></trkpt><trkpt lat="44.11622256684791" lon="11.420379115233063"><ele>379.8</ele><time>2026-04-26T11:10:54Z</time></trkpt><trkpt lat="44.11621002798215" lon="11.420487788428591"><ele>377.0</ele><time>2026-04-26T11:10:55Z</time></trkpt><trkpt lat="44.11620168131692" lon="11.420574953135729"><ele>376.8</ele><time>2026-04-26T11:10:56Z</time></trkpt><trkpt lat="44.11619617917087" lon="11.420693270040289"><ele>376.6</ele><time>2026-04-26T11:10:58Z</time></trkpt><trkpt lat="44.11618957810626" lon="11.420823840643358"><ele>376.40000000000003</ele><time>2026-04-26T11:12:10Z</time></trkpt><trkpt lat="44.11614268243777" lon="11.420991127727635"><ele>376.20000000000005</ele><time>2026-04-26T11:12:12Z</time></trkpt><trkpt lat="44.11609695775448" lon="11.421100221439232"><ele>376.0</ele><time>2026-04-26T11:12:13Z</time></trkpt><trkpt lat="44.1160290052611" lon="11.421190361938008"><ele>376.0</ele><time>2026-04-26T11:12:14Z</time></trkpt><trkpt lat="44.11594602167831" lon="11.421293715543225"><ele>376.0</ele><time>2026-04-26T11:12:15Z</time></trkpt><trkpt lat="44.11587979365617" lon="11.421424547890295"><ele>376.0</ele><time>2026-04-26T11:12:16Z</time></trkpt><trkpt lat="44.115843717086875" lon="11.421606717961614"><ele>376.0</ele><time>2026-04-26T11:12:17Z</time></trkpt><trkpt lat="44.11581187754272" lon="11.421790704073718"><ele>375.25</ele><time>2026-04-26T11:12:18Z</time></trkpt><trkpt lat="44.115766096748" lon="11.421938196277244"><ele>374.5</ele><time>2026-04-26T11:12:19Z</time></trkpt><trkpt lat="44.1157110337662" lon="11.422070410394452"><ele>373.75</ele><time>2026-04-26T11:12:20Z</time></trkpt><trkpt lat="44.115657037913174" lon="11.422203074689032"><ele>373.0</ele><time>2026-04-26T11:12:21Z</time></trkpt><trkpt lat="44.115631239641345" lon="11.42235950045724"><ele>373.0</ele><time>2026-04-26T11:12:22Z</time></trkpt><trkpt lat="44.11562752533599" lon="11.422529016919203"><ele>373.0</ele><time>2026-04-26T11:12:23Z</time></trkpt><trkpt lat="44.115645814632835" lon="11.42271967206792"><ele>373.0</ele><time>2026-04-26T11:12:24Z</time></trkpt><trkpt lat="44.115629272257294" lon="11.42288043718004"><ele>373.0</ele><time>2026-04-26T11:12:25Z</time></trkpt><trkpt lat="44.115579434673755" lon="11.42302362349108"><ele>371.5</ele><time>2026-04-26T11:12:26Z</time></trkpt><trkpt lat="44.115510493806994" lon="11.42319572275074"><ele>370.0</ele><time>2026-04-26T11:12:27Z</time></trkpt><trkpt lat="44.11545179282232" lon="11.423370787969972"><ele>368.5</ele><time>2026-04-26T11:12:28Z</time></trkpt><trkpt lat="44.11538828486637" lon="11.423541322114252"><ele>367.0</ele><time>2026-04-26T11:12:28.999Z</time></trkpt><trkpt lat="44.115336196857086" lon="11.423710116589906"><ele>367.0</ele><time>2026-04-26T11:12:29.999Z</time></trkpt><trkpt lat="44.115292319088056" lon="11.423880515285324"><ele>367.0</ele><time>2026-04-26T11:12:30.999Z</time></trkpt><trkpt lat="44.11526462833381" lon="11.424063830652168"><ele>367.0</ele><time>2026-04-26T11:12:31.999Z</time></trkpt><trkpt lat="44.1152550533575" lon="11.424283767421917"><ele>367.0</ele><time>2026-04-26T11:12:32.999Z</time></trkpt><trkpt lat="44.11527441975574" lon="11.424518350632821"><ele>366.75</ele><time>2026-04-26T11:12:33.999Z</time></trkpt><trkpt lat="44.11529295945426" lon="11.424731717087834"><ele>366.5</ele><time>2026-04-26T11:12:34.999Z</time></trkpt><trkpt lat="44.115311688659474" lon="11.42493093838394"><ele>366.25</ele><time>2026-04-26T11:12:35.999Z</time></trkpt><trkpt lat="44.11532529333138" lon="11.425111188707385"><ele>366.0</ele><time>2026-04-26T11:12:36.999Z</time></trkpt><trkpt lat="44.11533340540819" lon="11.425274096568591"><ele>366.0</ele><time>2026-04-26T11:12:37.999Z</time></trkpt><trkpt lat="44.115363592941726" lon="11.425418320976167"><ele>366.0</ele><time>2026-04-26T11:12:38.999Z</time></trkpt><trkpt lat="44.11542588867042" lon="11.425520784557285"><ele>366.0</ele><time>2026-04-26T11:12:39.999Z</time></trkpt><trkpt lat="44.11552530871399" lon="11.425580838617114"><ele>366.0</ele><time>2026-04-26T11:12:40.999Z</time></trkpt><trkpt lat="44.11562283165847" lon="11.425587631567637"><ele>366.0</ele><time>2026-04-26T11:12:41.999Z</time></trkpt><trkpt lat="44.115734201701756" lon="11.42554722838353"><ele>367.5</ele><time>2026-04-26T11:12:42.999Z</time></trkpt><trkpt lat="44.115861295385514" lon="11.425493227678794"><ele>369.0</ele><time>2026-04-26T11:12:43.999Z</time></trkpt><trkpt lat="44.11600499834416" lon="11.425442324147017"><ele>370.5</ele><time>2026-04-26T11:12:44.999Z</time></trkpt><trkpt lat="44.11615220286692" lon="11.425397451863228"><ele>372.0</ele><time>2026-04-26T11:12:45.999Z</time></trkpt><trkpt lat="44.11629831005278" lon="11.425361615783341"><ele>373.0</ele><time>2026-04-26T11:12:46.999Z</time></trkpt><trkpt lat="44.116447962941855" lon="11.425360366693674"><ele>374.0</ele><time>2026-04-26T11:12:48Z</time></trkpt><trkpt lat="44.116607571421596" lon="11.425463568515188"><ele>375.0</ele><time>2026-04-26T11:12:49Z</time></trkpt><trkpt lat="44.11674507224083" lon="11.425559384816104"><ele>375.0</ele><time>2026-04-26T11:12:50Z</time></trkpt><trkpt lat="44.11688286481718" lon="11.425653034863988"><ele>375.0</ele><time>2026-04-26T11:12:51Z</time></trkpt><trkpt lat="44.11699948610783" lon="11.425806404156345"><ele>375.0</ele><time>2026-04-26T11:12:52Z</time></trkpt><trkpt lat="44.11711662607829" lon="11.425974355895498"><ele>375.0</ele><time>2026-04-26T11:12:53Z</time></trkpt><trkpt lat="44.1171833333314" lon="11.426149798580926"><ele>375.0</ele><time>2026-04-26T11:12:54Z</time></trkpt><trkpt lat="44.11724321046605" lon="11.426341765933755"><ele>375.0</ele><time>2026-04-26T11:12:55Z</time></trkpt><trkpt lat="44.11728079992037" lon="11.426534950706172"><ele>375.0</ele><time>2026-04-26T11:12:56Z</time></trkpt><trkpt lat="44.11728865149239" lon="11.426724487489881"><ele>370.25</ele><time>2026-04-26T11:12:57Z</time></trkpt><trkpt lat="44.117268126192336" lon="11.426911074212342"><ele>365.5</ele><time>2026-04-26T11:12:58Z</time></trkpt><trkpt lat="44.11721352313704" lon="11.427089745313184"><ele>360.75</ele><time>2026-04-26T11:12:59Z</time></trkpt><trkpt lat="44.11711796752705" lon="11.42725654969175"><ele>356.0</ele><time>2026-04-26T11:13:00Z</time></trkpt><trkpt lat="44.11702571747142" lon="11.427440404335316"><ele>356.0</ele><time>2026-04-26T11:13:01Z</time></trkpt><trkpt lat="44.11693660257576" lon="11.427631159510584"><ele>356.0</ele><time>2026-04-26T11:13:02Z</time></trkpt><trkpt lat="44.11685988237204" lon="11.427822564035685"><ele>356.0</ele><time>2026-04-26T11:13:03Z</time></trkpt><trkpt lat="44.11678722944255" lon="11.428012761626304"><ele>356.0</ele><time>2026-04-26T11:13:04Z</time></trkpt><trkpt lat="44.116704529230894" lon="11.428200741187291"><ele>356.0</ele><time>2026-04-26T11:13:05Z</time></trkpt><trkpt lat="44.11662014723461" lon="11.428400076007351"><ele>356.0</ele><time>2026-04-26T11:13:06Z</time></trkpt><trkpt lat="44.116506809442726" lon="11.42857557918218"><ele>356.0</ele><time>2026-04-26T11:13:07Z</time></trkpt><trkpt lat="44.11640063385879" lon="11.428764618866396"><ele>356.0</ele><time>2026-04-26T11:13:08Z</time></trkpt><trkpt lat="44.11630072151204" lon="11.42897160698042"><ele>356.0</ele><time>2026-04-26T11:13:09Z</time></trkpt><trkpt lat="44.11618266047057" lon="11.429172283265641"><ele>354.33333333333337</ele><time>2026-04-26T11:13:10Z</time></trkpt><trkpt lat="44.116087825318296" lon="11.429396916323503"><ele>352.6666666666667</ele><time>2026-04-26T11:13:11Z</time></trkpt><trkpt lat="44.11599597261668" lon="11.429624910014525"><ele>351.0</ele><time>2026-04-26T11:13:12Z</time></trkpt><trkpt lat="44.11591096055938" lon="11.4298468920232"><ele>352.0</ele><time>2026-04-26T11:13:13Z</time></trkpt><trkpt lat="44.11583447327529" lon="11.430057011781535"><ele>353.0</ele><time>2026-04-26T11:13:14Z</time></trkpt><trkpt lat="44.11577956328044" lon="11.430276386987979"><ele>354.0</ele><time>2026-04-26T11:13:15Z</time></trkpt><trkpt lat="44.11573255715149" lon="11.430497960375106"><ele>354.0</ele><time>2026-04-26T11:13:16Z</time></trkpt><trkpt lat="44.115718497850374" lon="11.430733462546911"><ele>354.0</ele><time>2026-04-26T11:13:17Z</time></trkpt><trkpt lat="44.115726379807306" lon="11.430960057970617"><ele>354.0</ele><time>2026-04-26T11:13:18Z</time></trkpt><trkpt lat="44.115725941570076" lon="11.431157324696837"><ele>353.79999999999995</ele><time>2026-04-26T11:13:19Z</time></trkpt><trkpt lat="44.11572638328919" lon="11.43132528891912"><ele>353.59999999999997</ele><time>2026-04-26T11:13:20Z</time></trkpt><trkpt lat="44.1157685785213" lon="11.431455029648038"><ele>353.4</ele><time>2026-04-26T11:13:21Z</time></trkpt><trkpt lat="44.11584543772231" lon="11.43154326059846"><ele>353.2</ele><time>2026-04-26T11:13:22Z</time></trkpt><trkpt lat="44.11595473710714" lon="11.431559668755622"><ele>353.0</ele><time>2026-04-26T11:13:23Z</time></trkpt><trkpt lat="44.11607433988564" lon="11.431521523712233"><ele>353.75</ele><time>2026-04-26T11:13:24Z</time></trkpt><trkpt lat="44.11620380457961" lon="11.431428300001077"><ele>354.5</ele><time>2026-04-26T11:13:25Z</time></trkpt><trkpt lat="44.11632147951252" lon="11.43131748821542"><ele>355.25</ele><time>2026-04-26T11:13:26Z</time></trkpt><trkpt lat="44.116445781820175" lon="11.431265368218092"><ele>356.0</ele><time>2026-04-26T11:13:27Z</time></trkpt><trkpt lat="44.1165896261409" lon="11.431326909631593"><ele>358.33333333333337</ele><time>2026-04-26T11:13:28Z</time></trkpt><trkpt lat="44.116744541574306" lon="11.431416178053482"><ele>360.6666666666667</ele><time>2026-04-26T11:13:29Z</time></trkpt><trkpt lat="44.11690727563295" lon="11.431520348246448"><ele>363.0</ele><time>2026-04-26T11:13:30Z</time></trkpt><trkpt lat="44.117057173208075" lon="11.431645036267318"><ele>363.0</ele><time>2026-04-26T11:13:31Z</time></trkpt><trkpt lat="44.11723333285399" lon="11.431710057616012"><ele>363.0</ele><time>2026-04-26T11:13:32Z</time></trkpt><trkpt lat="44.11741473395322" lon="11.43174621218405"><ele>363.0</ele><time>2026-04-26T11:13:33Z</time></trkpt><trkpt lat="44.11760213751029" lon="11.431777838013991"><ele>364.6666666666667</ele><time>2026-04-26T11:13:34Z</time></trkpt><trkpt lat="44.117781500691144" lon="11.43185112821206"><ele>366.33333333333337</ele><time>2026-04-26T11:13:35Z</time></trkpt><trkpt lat="44.11795617124675" lon="11.43193971752488"><ele>368.0</ele><time>2026-04-26T11:13:36Z</time></trkpt><trkpt lat="44.118127045335676" lon="11.432037375287644"><ele>363.0</ele><time>2026-04-26T11:13:37Z</time></trkpt><trkpt lat="44.118292129788365" lon="11.432157159576734"><ele>358.0</ele><time>2026-04-26T11:13:38Z</time></trkpt><trkpt lat="44.11845164680537" lon="11.432285814893328"><ele>353.0</ele><time>2026-04-26T11:13:39Z</time></trkpt><trkpt lat="44.1186025549578" lon="11.432433282812195"><ele>353.0</ele><time>2026-04-26T11:13:40Z</time></trkpt><trkpt lat="44.118744997820734" lon="11.43260072161613"><ele>353.0</ele><time>2026-04-26T11:13:41Z</time></trkpt><trkpt lat="44.118875569743395" lon="11.432787793640323"><ele>353.0</ele><time>2026-04-26T11:13:42Z</time></trkpt><trkpt lat="44.11900453604805" lon="11.432975697909313"><ele>353.33333333333337</ele><time>2026-04-26T11:13:42.999Z</time></trkpt><trkpt lat="44.119131853369616" lon="11.433158114547197"><ele>353.6666666666667</ele><time>2026-04-26T11:13:43.999Z</time></trkpt><trkpt lat="44.11925384474788" lon="11.43333214679168"><ele>354.0</ele><time>2026-04-26T11:13:44.999Z</time></trkpt><trkpt lat="44.119370262545836" lon="11.433502121579211"><ele>354.0</ele><time>2026-04-26T11:13:45.999Z</time></trkpt><trkpt lat="44.11947427731926" lon="11.433665613512558"><ele>354.0</ele><time>2026-04-26T11:13:46.999Z</time></trkpt><trkpt lat="44.119573916832955" lon="11.43382073802731"><ele>354.0</ele><time>2026-04-26T11:13:47.999Z</time></trkpt><trkpt lat="44.11965083611861" lon="11.43399212344679"><ele>353.25</ele><time>2026-04-26T11:13:48.999Z</time></trkpt><trkpt lat="44.11970799153502" lon="11.434164039340434"><ele>352.5</ele><time>2026-04-26T11:13:49.999Z</time></trkpt><trkpt lat="44.11975911729117" lon="11.434340136004032"><ele>351.75</ele><time>2026-04-26T11:13:50.999Z</time></trkpt><trkpt lat="44.11983176895416" lon="11.434501283251022"><ele>351.0</ele><time>2026-04-26T11:13:51.999Z</time></trkpt><trkpt lat="44.11990977025562" lon="11.4346617751571"><ele>351.0</ele><time>2026-04-26T11:13:52.999Z</time></trkpt><trkpt lat="44.12000768398835" lon="11.434808275294284"><ele>351.0</ele><time>2026-04-26T11:13:53.999Z</time></trkpt><trkpt lat="44.12011766191482" lon="11.434943758549592"><ele>351.0</ele><time>2026-04-26T11:13:54.999Z</time></trkpt><trkpt lat="44.12024286384184" lon="11.435061257317777"><ele>351.0</ele><time>2026-04-26T11:13:55.999Z</time></trkpt><trkpt lat="44.12038121561144" lon="11.435160749807677"><ele>351.0</ele><time>2026-04-26T11:13:56.999Z</time></trkpt><trkpt lat="44.120521654678036" lon="11.435251513700912"><ele>351.0</ele><time>2026-04-26T11:13:57.999Z</time></trkpt><trkpt lat="44.12066020150322" lon="11.435330148306084"><ele>351.0</ele><time>2026-04-26T11:13:58.999Z</time></trkpt><trkpt lat="44.12079594488838" lon="11.435417954908145"><ele>352.0</ele><time>2026-04-26T11:13:59.999Z</time></trkpt><trkpt lat="44.120940359142274" lon="11.43548745106694"><ele>353.0</ele><time>2026-04-26T11:14:00.999Z</time></trkpt><trkpt lat="44.12109065500592" lon="11.435530145555589"><ele>354.0</ele><time>2026-04-26T11:14:01.999Z</time></trkpt><trkpt lat="44.12125202839062" lon="11.435539419451572"><ele>354.0</ele><time>2026-04-26T11:14:02.999Z</time></trkpt><trkpt lat="44.12139956945165" lon="11.435625204758233"><ele>354.0</ele><time>2026-04-26T11:14:03.999Z</time></trkpt><trkpt lat="44.12155637376522" lon="11.435671630961536"><ele>354.0</ele><time>2026-04-26T11:14:04.999Z</time></trkpt><trkpt lat="44.121705954882074" lon="11.435717266441435"><ele>355.6666666666667</ele><time>2026-04-26T11:14:05.999Z</time></trkpt><trkpt lat="44.12187618935879" lon="11.43574750568426"><ele>357.33333333333337</ele><time>2026-04-26T11:14:06.999Z</time></trkpt><trkpt lat="44.12203514011292" lon="11.435787336178072"><ele>359.0</ele><time>2026-04-26T11:14:07.999Z</time></trkpt><trkpt lat="44.12219285510344" lon="11.43583139810173"><ele>359.0</ele><time>2026-04-26T11:14:08.999Z</time></trkpt><trkpt lat="44.12235076115854" lon="11.435880166707594"><ele>359.0</ele><time>2026-04-26T11:14:09.999Z</time></trkpt><trkpt lat="44.12251074160429" lon="11.435917054703838"><ele>359.0</ele><time>2026-04-26T11:14:10.999Z</time></trkpt><trkpt lat="44.122672165921536" lon="11.435960809740616"><ele>359.6666666666667</ele><time>2026-04-26T11:14:11.999Z</time></trkpt><trkpt lat="44.12283099247869" lon="11.436001962679136"><ele>360.3333333333333</ele><time>2026-04-26T11:14:12.999Z</time></trkpt><trkpt lat="44.12298536375473" lon="11.436046802890143"><ele>361.0</ele><time>2026-04-26T11:14:13.999Z</time></trkpt><trkpt lat="44.12313665568308" lon="11.436090094803093"><ele>361.75</ele><time>2026-04-26T11:14:14.999Z</time></trkpt><trkpt lat="44.123281911513025" lon="11.43613307997607"><ele>362.5</ele><time>2026-04-26T11:14:15.999Z</time></trkpt><trkpt lat="44.12342417344727" lon="11.43616623727872"><ele>363.25</ele><time>2026-04-26T11:14:16.999Z</time></trkpt><trkpt lat="44.12356052574445" lon="11.436226804121647"><ele>364.0</ele><time>2026-04-26T11:14:17.999Z</time></trkpt><trkpt lat="44.12369844333699" lon="11.436265793713883"><ele>361.5</ele><time>2026-04-26T11:14:18.999Z</time></trkpt><trkpt lat="44.12383178255512" lon="11.436308914802758"><ele>359.0</ele><time>2026-04-26T11:14:19.999Z</time></trkpt><trkpt lat="44.123944983918456" lon="11.436367839389256"><ele>356.5</ele><time>2026-04-26T11:14:20.999Z</time></trkpt><trkpt lat="44.12403759586782" lon="11.436460721058822"><ele>354.0</ele><time>2026-04-26T11:14:21.999Z</time></trkpt><trkpt lat="44.12412621865225" lon="11.436573848662187"><ele>354.0</ele><time>2026-04-26T11:14:22.999Z</time></trkpt><trkpt lat="44.124180416709216" lon="11.436746208539722"><ele>354.0</ele><time>2026-04-26T11:14:23.999Z</time></trkpt><trkpt lat="44.12417962744146" lon="11.43695551213715"><ele>354.0</ele><time>2026-04-26T11:14:24.999Z</time></trkpt><trkpt lat="44.12421230568662" lon="11.43716561613547"><ele>354.0</ele><time>2026-04-26T11:14:25.999Z</time></trkpt><trkpt lat="44.12422916914828" lon="11.437384168345403"><ele>354.0</ele><time>2026-04-26T11:14:26.999Z</time></trkpt><trkpt lat="44.12425989640628" lon="11.437600011515102"><ele>354.0</ele><time>2026-04-26T11:14:27.999Z</time></trkpt><trkpt lat="44.12426466434906" lon="11.437799691171923"><ele>354.0</ele><time>2026-04-26T11:14:28.999Z</time></trkpt><trkpt lat="44.12429301851236" lon="11.438036210327672"><ele>352.3333333333333</ele><time>2026-04-26T11:14:29.999Z</time></trkpt><trkpt lat="44.124286089974845" lon="11.438256492386147"><ele>350.66666666666663</ele><time>2026-04-26T11:14:30.999Z</time></trkpt><trkpt lat="44.124268674027455" lon="11.43846343462397"><ele>349.0</ele><time>2026-04-26T11:14:31.999Z</time></trkpt><trkpt lat="44.12424244230964" lon="11.438662334787224"><ele>346.66666666666663</ele><time>2026-04-26T11:14:32.999Z</time></trkpt><trkpt lat="44.124201390049514" lon="11.438877836817998"><ele>344.3333333333333</ele><time>2026-04-26T11:14:33.999Z</time></trkpt><trkpt lat="44.12415537984255" lon="11.439082106313041"><ele>342.0</ele><time>2026-04-26T11:14:34.999Z</time></trkpt><trkpt lat="44.12410853143131" lon="11.439278573153834"><ele>342.25</ele><time>2026-04-26T11:14:35.999Z</time></trkpt><trkpt lat="44.12406003934337" lon="11.43947067284919"><ele>342.5</ele><time>2026-04-26T11:14:36.999Z</time></trkpt><trkpt lat="44.12401309094833" lon="11.439653585301388"><ele>342.75</ele><time>2026-04-26T11:14:37.999Z</time></trkpt><trkpt lat="44.12397267606375" lon="11.439840130906163"><ele>343.0</ele><time>2026-04-26T11:14:38.999Z</time></trkpt><trkpt lat="44.12392096652593" lon="11.440009447987503"><ele>343.0</ele><time>2026-04-26T11:14:39.999Z</time></trkpt><trkpt lat="44.12387662898721" lon="11.440142523723415"><ele>343.0</ele><time>2026-04-26T11:14:40.999Z</time></trkpt><trkpt lat="44.12385491688643" lon="11.440253284801571"><ele>343.0</ele><time>2026-04-26T11:14:41.999Z</time></trkpt><trkpt lat="44.12387803896534" lon="11.440356837878225"><ele>343.0</ele><time>2026-04-26T11:14:42.999Z</time></trkpt><trkpt lat="44.12395094502633" lon="11.44042895321927"><ele>343.0</ele><time>2026-04-26T11:14:43.999Z</time></trkpt><trkpt lat="44.12405323172574" lon="11.440423952897484"><ele>343.25</ele><time>2026-04-26T11:14:44.999Z</time></trkpt><trkpt lat="44.1241568444535" lon="11.440337200629063"><ele>343.5</ele><time>2026-04-26T11:14:45.999Z</time></trkpt><trkpt lat="44.12423419523846" lon="11.440186495902868"><ele>343.75</ele><time>2026-04-26T11:14:46.999Z</time></trkpt><trkpt lat="44.124285760546805" lon="11.439977858001416"><ele>344.0</ele><time>2026-04-26T11:14:47.999Z</time></trkpt><trkpt lat="44.124335766885736" lon="11.439727474315228"><ele>343.33333333333337</ele><time>2026-04-26T11:14:48.999Z</time></trkpt><trkpt lat="44.1243698319393" lon="11.439499841172422"><ele>342.6666666666667</ele><time>2026-04-26T11:14:49.999Z</time></trkpt><trkpt lat="44.124430052992004" lon="11.439284859889337"><ele>342.0</ele><time>2026-04-26T11:14:50.999Z</time></trkpt><trkpt lat="44.124493748183106" lon="11.439072091559185"><ele>342.0</ele><time>2026-04-26T11:14:51.999Z</time></trkpt><trkpt lat="44.1245737688312" lon="11.438879391731444"><ele>342.0</ele><time>2026-04-26T11:14:52.999Z</time></trkpt><trkpt lat="44.12467478921484" lon="11.438686887305433"><ele>342.0</ele><time>2026-04-26T11:14:53.999Z</time></trkpt><trkpt lat="44.12478606450022" lon="11.438509758833554"><ele>342.3333333333333</ele><time>2026-04-26T11:14:54.999Z</time></trkpt><trkpt lat="44.124899002453844" lon="11.438300183718697"><ele>342.66666666666663</ele><time>2026-04-26T11:14:55.999Z</time></trkpt><trkpt lat="44.125005567829334" lon="11.438128953042067"><ele>343.0</ele><time>2026-04-26T11:14:56.999Z</time></trkpt><trkpt lat="44.125118124451376" lon="11.43797701953013"><ele>349.0</ele><time>2026-04-26T11:14:57.999Z</time></trkpt><trkpt lat="44.12522039602059" lon="11.437826560508233"><ele>355.0</ele><time>2026-04-26T11:14:58.999Z</time></trkpt><trkpt lat="44.12533035810594" lon="11.437691688490482"><ele>361.0</ele><time>2026-04-26T11:14:59.999Z</time></trkpt><trkpt lat="44.12545508728616" lon="11.437591699378936"><ele>367.0</ele><time>2026-04-26T11:15:00.999Z</time></trkpt><trkpt lat="44.12558870837118" lon="11.437502683557723"><ele>367.0</ele><time>2026-04-26T11:15:01.999Z</time></trkpt><trkpt lat="44.125723176972315" lon="11.4374099651161"><ele>367.0</ele><time>2026-04-26T11:15:02.999Z</time></trkpt><trkpt lat="44.125872290575835" lon="11.437418222992985"><ele>367.0</ele><time>2026-04-26T11:15:03.999Z</time></trkpt><trkpt lat="44.12601151930318" lon="11.437461050094253"><ele>367.0</ele><time>2026-04-26T11:15:04.999Z</time></trkpt><trkpt lat="44.1261468033387" lon="11.437556301004472"><ele>370.3333333333333</ele><time>2026-04-26T11:15:05.999Z</time></trkpt><trkpt lat="44.126281282522704" lon="11.437690340548222"><ele>373.6666666666667</ele><time>2026-04-26T11:15:06.999Z</time></trkpt><trkpt lat="44.126419145273985" lon="11.43782032058152"><ele>377.0</ele><time>2026-04-26T11:15:07.999Z</time></trkpt><trkpt lat="44.126563627626446" lon="11.437935523126551"><ele>364.0</ele><time>2026-04-26T11:15:08.999Z</time></trkpt><trkpt lat="44.12669789970674" lon="11.43807697183519"><ele>351.0</ele><time>2026-04-26T11:15:09.999Z</time></trkpt><trkpt lat="44.12680505849153" lon="11.43824989160467"><ele>338.0</ele><time>2026-04-26T11:15:10.999Z</time></trkpt><trkpt lat="44.126898947891334" lon="11.438432615945404"><ele>338.0</ele><time>2026-04-26T11:15:11.999Z</time></trkpt><trkpt lat="44.12698848722036" lon="11.438620455789245"><ele>338.0</ele><time>2026-04-26T11:15:12.999Z</time></trkpt><trkpt lat="44.127075550986675" lon="11.43880946596935"><ele>338.0</ele><time>2026-04-26T11:15:13.999Z</time></trkpt><trkpt lat="44.12716289194091" lon="11.438995652218358"><ele>338.6666666666667</ele><time>2026-04-26T11:15:14.999Z</time></trkpt><trkpt lat="44.12725519731334" lon="11.439178909899326"><ele>339.3333333333333</ele><time>2026-04-26T11:15:15.999Z</time></trkpt><trkpt lat="44.12736939496129" lon="11.439346838493138"><ele>340.0</ele><time>2026-04-26T11:15:16.999Z</time></trkpt><trkpt lat="44.12748387278695" lon="11.439518276040413"><ele>338.0</ele><time>2026-04-26T11:15:17.999Z</time></trkpt><trkpt lat="44.12761184290592" lon="11.439671017482963"><ele>336.0</ele><time>2026-04-26T11:15:18.999Z</time></trkpt><trkpt lat="44.12774792012944" lon="11.43981736137342"><ele>334.0</ele><time>2026-04-26T11:15:19.999Z</time></trkpt><trkpt lat="44.12789877611369" lon="11.439928752804189"><ele>334.0</ele><time>2026-04-26T11:15:20.999Z</time></trkpt><trkpt lat="44.12806200178417" lon="11.4400007216604"><ele>334.0</ele><time>2026-04-26T11:15:21.999Z</time></trkpt><trkpt lat="44.12822328292544" lon="11.44007558760269"><ele>334.0</ele><time>2026-04-26T11:15:22.999Z</time></trkpt><trkpt lat="44.12839397229196" lon="11.440119621066893"><ele>335.66666666666663</ele><time>2026-04-26T11:15:23.999Z</time></trkpt><trkpt lat="44.12856888413091" lon="11.44013896791332"><ele>337.3333333333333</ele><time>2026-04-26T11:15:24.999Z</time></trkpt><trkpt lat="44.12874390852143" lon="11.440138228966243"><ele>339.0</ele><time>2026-04-26T11:15:25.999Z</time></trkpt><trkpt lat="44.12891477699119" lon="11.440116555539047"><ele>339.3333333333333</ele><time>2026-04-26T11:15:26.999Z</time></trkpt><trkpt lat="44.12907022989261" lon="11.440075740953858"><ele>339.66666666666663</ele><time>2026-04-26T11:15:27.999Z</time></trkpt><trkpt lat="44.12922185322583" lon="11.440029268554916"><ele>340.0</ele><time>2026-04-26T11:15:28.999Z</time></trkpt><trkpt lat="44.1293590985659" lon="11.440050683851874"><ele>340.0</ele><time>2026-04-26T11:15:29.999Z</time></trkpt><trkpt lat="44.12951038664447" lon="11.440099495895288"><ele>340.0</ele><time>2026-04-26T11:15:30.999Z</time></trkpt><trkpt lat="44.129645239326656" lon="11.440186432437889"><ele>340.0</ele><time>2026-04-26T11:15:31.999Z</time></trkpt><trkpt lat="44.12978303873298" lon="11.440297224351044"><ele>340.3333333333333</ele><time>2026-04-26T11:15:32.999Z</time></trkpt><trkpt lat="44.12989094865532" lon="11.44046843594018"><ele>340.6666666666667</ele><time>2026-04-26T11:15:33.999Z</time></trkpt><trkpt lat="44.12999702546532" lon="11.440639455587819"><ele>341.0</ele><time>2026-04-26T11:15:34.999Z</time></trkpt><trkpt lat="44.13011344970107" lon="11.440799671369417"><ele>341.0</ele><time>2026-04-26T11:15:35.999Z</time></trkpt><trkpt lat="44.13023475573904" lon="11.440939148583933"><ele>341.0</ele><time>2026-04-26T11:15:36.999Z</time></trkpt><trkpt lat="44.13034246979275" lon="11.441091848397653"><ele>341.0</ele><time>2026-04-26T11:15:37.999Z</time></trkpt><trkpt lat="44.130408385151696" lon="11.441285003599273"><ele>340.0</ele><time>2026-04-26T11:15:38.999Z</time></trkpt><trkpt lat="44.130470807815136" lon="11.441477632881382"><ele>339.0</ele><time>2026-04-26T11:15:39.999Z</time></trkpt><trkpt lat="44.130489574161864" lon="11.441698497412274"><ele>338.0</ele><time>2026-04-26T11:15:40.999Z</time></trkpt><trkpt lat="44.13052572241784" lon="11.441865141106708"><ele>337.0</ele><time>2026-04-26T11:15:41.999Z</time></trkpt><trkpt lat="44.13050966934781" lon="11.442055646342732"><ele>336.25</ele><time>2026-04-26T11:15:42.999Z</time></trkpt><trkpt lat="44.13049094372737" lon="11.442247747220794"><ele>335.5</ele><time>2026-04-26T11:15:43.999Z</time></trkpt><trkpt lat="44.130470771092426" lon="11.442445873992687"><ele>334.75</ele><time>2026-04-26T11:15:44.999Z</time></trkpt><trkpt lat="44.13044121479768" lon="11.44263121533128"><ele>334.0</ele><time>2026-04-26T11:15:45.999Z</time></trkpt><trkpt lat="44.13037461237632" lon="11.442803697760109"><ele>334.0</ele><time>2026-04-26T11:15:46.999Z</time></trkpt><trkpt lat="44.13027848967783" lon="11.442963117820236"><ele>334.0</ele><time>2026-04-26T11:15:47.999Z</time></trkpt><trkpt lat="44.13017140631434" lon="11.44312091299123"><ele>334.0</ele><time>2026-04-26T11:15:48.999Z</time></trkpt><trkpt lat="44.13007833774247" lon="11.443286869618552"><ele>335.0</ele><time>2026-04-26T11:15:49.999Z</time></trkpt><trkpt lat="44.12997618770625" lon="11.44342686947446"><ele>336.0</ele><time>2026-04-26T11:15:50.999Z</time></trkpt><trkpt lat="44.129875103309836" lon="11.443558143653858"><ele>337.0</ele><time>2026-04-26T11:15:51.999Z</time></trkpt><trkpt lat="44.12977812198589" lon="11.443678882880594"><ele>338.0</ele><time>2026-04-26T11:15:52.999Z</time></trkpt><trkpt lat="44.12969955994507" lon="11.44380954273571"><ele>335.75</ele><time>2026-04-26T11:15:53.999Z</time></trkpt><trkpt lat="44.12964641630536" lon="11.44397657249497"><ele>333.5</ele><time>2026-04-26T11:15:54.999Z</time></trkpt><trkpt lat="44.129640845554746" lon="11.444192984826921"><ele>331.25</ele><time>2026-04-26T11:15:55.999Z</time></trkpt><trkpt lat="44.12964226686895" lon="11.444363612932364"><ele>329.0</ele><time>2026-04-26T11:15:56.999Z</time></trkpt><trkpt lat="44.12969144597682" lon="11.44451590470243"><ele>329.0</ele><time>2026-04-26T11:15:57.999Z</time></trkpt><trkpt lat="44.1297741249165" lon="11.444625515622214"><ele>329.0</ele><time>2026-04-26T11:15:58.999Z</time></trkpt><trkpt lat="44.12988915825904" lon="11.444690723547941"><ele>329.0</ele><time>2026-04-26T11:15:59.999Z</time></trkpt><trkpt lat="44.130019995805036" lon="11.444736788138737"><ele>329.0</ele><time>2026-04-26T11:16:00.999Z</time></trkpt><trkpt lat="44.13015889087151" lon="11.444766362589965"><ele>329.6666666666667</ele><time>2026-04-26T11:16:01.999Z</time></trkpt><trkpt lat="44.13031245844086" lon="11.444747637770186"><ele>330.3333333333333</ele><time>2026-04-26T11:16:02.999Z</time></trkpt><trkpt lat="44.13045752734369" lon="11.444706785372768"><ele>331.0</ele><time>2026-04-26T11:16:03.999Z</time></trkpt><trkpt lat="44.130600854667726" lon="11.444608785606212"><ele>336.0</ele><time>2026-04-26T11:16:04.999Z</time></trkpt><trkpt lat="44.130729850359835" lon="11.44446306806639"><ele>341.0</ele><time>2026-04-26T11:16:05.999Z</time></trkpt><trkpt lat="44.130849341746966" lon="11.444301577543094"><ele>346.0</ele><time>2026-04-26T11:16:06.999Z</time></trkpt><trkpt lat="44.13097818787553" lon="11.444172290662236"><ele>346.0</ele><time>2026-04-26T11:16:07.999Z</time></trkpt><trkpt lat="44.13111299379807" lon="11.444058232119154"><ele>346.0</ele><time>2026-04-26T11:16:08.999Z</time></trkpt><trkpt lat="44.13124889822382" lon="11.443949770286773"><ele>346.0</ele><time>2026-04-26T11:16:09.999Z</time></trkpt><trkpt lat="44.13138226704399" lon="11.443846208293209"><ele>349.0</ele><time>2026-04-26T11:16:10.999Z</time></trkpt><trkpt lat="44.131507475320106" lon="11.443744079014781"><ele>352.0</ele><time>2026-04-26T11:16:11.999Z</time></trkpt><trkpt lat="44.131604574976514" lon="11.443651604428284"><ele>355.0</ele><time>2026-04-26T11:16:12.999Z</time></trkpt><trkpt lat="44.131699555516114" lon="11.443572071578103"><ele>358.0</ele><time>2026-04-26T11:16:13.999Z</time></trkpt><trkpt lat="44.13178904596655" lon="11.443501798752203"><ele>358.0</ele><time>2026-04-26T11:16:14.999Z</time></trkpt><trkpt lat="44.13188302145962" lon="11.443431998067982"><ele>358.0</ele><time>2026-04-26T11:16:15.999Z</time></trkpt><trkpt lat="44.13197815915603" lon="11.443365825236963"><ele>358.0</ele><time>2026-04-26T11:16:16.999Z</time></trkpt><trkpt lat="44.13208293234016" lon="11.443320808139319"><ele>358.0</ele><time>2026-04-26T11:16:17.999Z</time></trkpt><trkpt lat="44.13218789326357" lon="11.443264549842986"><ele>358.0</ele><time>2026-04-26T11:16:18.999Z</time></trkpt><trkpt lat="44.132290641658464" lon="11.443197476728617"><ele>352.75</ele><time>2026-04-26T11:16:19.999Z</time></trkpt><trkpt lat="44.13240375404552" lon="11.443154999577036"><ele>347.5</ele><time>2026-04-26T11:16:20.999Z</time></trkpt><trkpt lat="44.13252407761839" lon="11.443127969886126"><ele>342.25</ele><time>2026-04-26T11:16:21.999Z</time></trkpt><trkpt lat="44.13264842743839" lon="11.443112396651365"><ele>337.0</ele><time>2026-04-26T11:16:22.999Z</time></trkpt><trkpt lat="44.13277774769986" lon="11.443103647492627"><ele>337.0</ele><time>2026-04-26T11:16:23.999Z</time></trkpt><trkpt lat="44.13290614300797" lon="11.443103616644283"><ele>337.0</ele><time>2026-04-26T11:16:24.999Z</time></trkpt><trkpt lat="44.133033964211364" lon="11.443110108063394"><ele>337.0</ele><time>2026-04-26T11:16:25.999Z</time></trkpt><trkpt lat="44.13315718696788" lon="11.443131190374709"><ele>337.0</ele><time>2026-04-26T11:16:26.999Z</time></trkpt><trkpt lat="44.13327128626298" lon="11.443191345033396"><ele>336.25</ele><time>2026-04-26T11:16:27.999Z</time></trkpt><trkpt lat="44.1333763533254" lon="11.443267159828322"><ele>335.5</ele><time>2026-04-26T11:16:28.999Z</time></trkpt><trkpt lat="44.13348850628898" lon="11.443327345272614"><ele>334.75</ele><time>2026-04-26T11:16:29.999Z</time></trkpt><trkpt lat="44.13359821303317" lon="11.44338643047344"><ele>334.0</ele><time>2026-04-26T11:16:30.999Z</time></trkpt><trkpt lat="44.1337179781191" lon="11.44342371466348"><ele>334.0</ele><time>2026-04-26T11:16:31.999Z</time></trkpt><trkpt lat="44.13382433935793" lon="11.443483797897667"><ele>334.0</ele><time>2026-04-26T11:16:32.999Z</time></trkpt><trkpt lat="44.13392541136535" lon="11.443550875005203"><ele>334.0</ele><time>2026-04-26T11:16:33.999Z</time></trkpt><trkpt lat="44.1340093318049" lon="11.44365776397468"><ele>334.0</ele><time>2026-04-26T11:16:34.999Z</time></trkpt><trkpt lat="44.1340842840253" lon="11.443799135824307"><ele>333.0</ele><time>2026-04-26T11:16:35.999Z</time></trkpt><trkpt lat="44.13417804736603" lon="11.443919979819505"><ele>332.0</ele><time>2026-04-26T11:16:36.999Z</time></trkpt><trkpt lat="44.134264112028866" lon="11.444046396511732"><ele>331.0</ele><time>2026-04-26T11:16:37.999Z</time></trkpt><trkpt lat="44.13434225803779" lon="11.444175100850028"><ele>330.0</ele><time>2026-04-26T11:16:38.999Z</time></trkpt><trkpt lat="44.13442105832293" lon="11.444296735582627"><ele>330.0</ele><time>2026-04-26T11:16:39.999Z</time></trkpt><trkpt lat="44.134507744312515" lon="11.444405335539852"><ele>330.0</ele><time>2026-04-26T11:16:40.999Z</time></trkpt><trkpt lat="44.13461234137328" lon="11.444479551545768"><ele>330.0</ele><time>2026-04-26T11:16:41.999Z</time></trkpt><trkpt lat="44.134727237555126" lon="11.444523579166194"><ele>330.0</ele><time>2026-04-26T11:16:42.999Z</time></trkpt><trkpt lat="44.13485018132021" lon="11.444535893193207"><ele>331.2</ele><time>2026-04-26T11:16:43.999Z</time></trkpt><trkpt lat="44.1349523758863" lon="11.444582472187935"><ele>332.4</ele><time>2026-04-26T11:16:44.999Z</time></trkpt><trkpt lat="44.135037753482834" lon="11.444638876497823"><ele>333.6</ele><time>2026-04-26T11:16:45.999Z</time></trkpt><trkpt lat="44.13511282393728" lon="11.444720245613642"><ele>334.8</ele><time>2026-04-26T11:16:46.999Z</time></trkpt><trkpt lat="44.13517822652929" lon="11.444815850949123"><ele>336.0</ele><time>2026-04-26T11:16:47.999Z</time></trkpt><trkpt lat="44.13517308455177" lon="11.444960878479938"><ele>336.0</ele><time>2026-04-26T11:16:48.999Z</time></trkpt><trkpt lat="44.13517766421986" lon="11.445115554756619"><ele>336.0</ele><time>2026-04-26T11:16:49.999Z</time></trkpt><trkpt lat="44.1351977614579" lon="11.445290906603233"><ele>336.0</ele><time>2026-04-26T11:16:50.999Z</time></trkpt><trkpt lat="44.135200152221834" lon="11.445465215994115"><ele>336.0</ele><time>2026-04-26T11:16:51.999Z</time></trkpt><trkpt lat="44.135220986516586" lon="11.44563653435226"><ele>333.75</ele><time>2026-04-26T11:16:52.999Z</time></trkpt><trkpt lat="44.13523920992975" lon="11.445802498311451"><ele>331.5</ele><time>2026-04-26T11:16:53.999Z</time></trkpt><trkpt lat="44.13525135634987" lon="11.44596617448716"><ele>329.25</ele><time>2026-04-26T11:16:54.999Z</time></trkpt><trkpt lat="44.13526120349414" lon="11.446133886632358"><ele>327.0</ele><time>2026-04-26T11:16:55.999Z</time></trkpt><trkpt lat="44.135262507451586" lon="11.446304021084988"><ele>326.75</ele><time>2026-04-26T11:16:56.999Z</time></trkpt><trkpt lat="44.13525503152508" lon="11.446473772696308"><ele>326.5</ele><time>2026-04-26T11:16:57.999Z</time></trkpt><trkpt lat="44.13523652551603" lon="11.446640175617588"><ele>326.25</ele><time>2026-04-26T11:16:58.999Z</time></trkpt><trkpt lat="44.135208310122984" lon="11.446805458593175"><ele>326.0</ele><time>2026-04-26T11:17:00Z</time></trkpt><trkpt lat="44.13518768976669" lon="11.44696964851047"><ele>326.0</ele><time>2026-04-26T11:17:01Z</time></trkpt><trkpt lat="44.13518629093691" lon="11.447135775211997"><ele>326.0</ele><time>2026-04-26T11:17:02Z</time></trkpt><trkpt lat="44.13520969487258" lon="11.447295969873103"><ele>326.0</ele><time>2026-04-26T11:17:03Z</time></trkpt><trkpt lat="44.13521122909176" lon="11.447467364574338"><ele>326.0</ele><time>2026-04-26T11:17:04Z</time></trkpt><trkpt lat="44.13521549138747" lon="11.447635507182863"><ele>326.0</ele><time>2026-04-26T11:17:05Z</time></trkpt><trkpt lat="44.135218096641076" lon="11.447791436602502"><ele>326.0</ele><time>2026-04-26T11:17:06Z</time></trkpt><trkpt lat="44.13520910975649" lon="11.447933805252983"><ele>326.0</ele><time>2026-04-26T11:17:07Z</time></trkpt><trkpt lat="44.13521594322208" lon="11.44805167224827"><ele>326.0</ele><time>2026-04-26T11:17:08Z</time></trkpt><trkpt lat="44.13523836030298" lon="11.44814767932171"><ele>326.0</ele><time>2026-04-26T11:17:09Z</time></trkpt><trkpt lat="44.13528296171299" lon="11.448221153200318"><ele>326.0</ele><time>2026-04-26T11:17:10Z</time></trkpt><trkpt lat="44.13535543174899" lon="11.448263898194648"><ele>327.25</ele><time>2026-04-26T11:17:11Z</time></trkpt><trkpt lat="44.13545528627802" lon="11.448259004164187"><ele>328.5</ele><time>2026-04-26T11:17:12Z</time></trkpt><trkpt lat="44.135569072502875" lon="11.448248924852962"><ele>329.75</ele><time>2026-04-26T11:17:13Z</time></trkpt><trkpt lat="44.135697990006975" lon="11.448246066804229"><ele>331.0</ele><time>2026-04-26T11:17:14Z</time></trkpt><trkpt lat="44.13582906974409" lon="11.448247639963276"><ele>331.0</ele><time>2026-04-26T11:17:15Z</time></trkpt><trkpt lat="44.13595895278028" lon="11.448251290692447"><ele>331.0</ele><time>2026-04-26T11:17:16Z</time></trkpt><trkpt lat="44.13608860495252" lon="11.44824374470039"><ele>331.0</ele><time>2026-04-26T11:17:17Z</time></trkpt><trkpt lat="44.13621796510632" lon="11.448229840597383"><ele>331.0</ele><time>2026-04-26T11:17:18Z</time></trkpt><trkpt lat="44.136350209026325" lon="11.448210600789062"><ele>331.0</ele><time>2026-04-26T11:17:19Z</time></trkpt><trkpt lat="44.13648210271851" lon="11.448207303351223"><ele>331.0</ele><time>2026-04-26T11:17:20Z</time></trkpt><trkpt lat="44.136619170811215" lon="11.4482287004392"><ele>331.0</ele><time>2026-04-26T11:17:21Z</time></trkpt><trkpt lat="44.1367474758721" lon="11.448232141973582"><ele>331.0</ele><time>2026-04-26T11:17:22Z</time></trkpt><trkpt lat="44.136862397215076" lon="11.448195638570635"><ele>328.75</ele><time>2026-04-26T11:17:23Z</time></trkpt><trkpt lat="44.1369743285009" lon="11.448039256307272"><ele>326.5</ele><time>2026-04-26T11:17:24Z</time></trkpt><trkpt lat="44.13708572629931" lon="11.44797162766725"><ele>324.25</ele><time>2026-04-26T11:17:25Z</time></trkpt><trkpt lat="44.137205867209794" lon="11.4479162324363"><ele>322.0</ele><time>2026-04-26T11:17:26Z</time></trkpt><trkpt lat="44.13732584519243" lon="11.447849198022155"><ele>327.5</ele><time>2026-04-26T11:17:27Z</time></trkpt><trkpt lat="44.13745801763754" lon="11.4478039704067"><ele>333.0</ele><time>2026-04-26T11:17:28Z</time></trkpt><trkpt lat="44.13759891688082" lon="11.447783890150504"><ele>338.5</ele><time>2026-04-26T11:17:29Z</time></trkpt><trkpt lat="44.137762281483255" lon="11.447759808075952"><ele>344.0</ele><time>2026-04-26T11:17:30Z</time></trkpt><trkpt lat="44.13793080554395" lon="11.447735601768652"><ele>344.0</ele><time>2026-04-26T11:17:31Z</time></trkpt><trkpt lat="44.13809674409252" lon="11.447689173720166"><ele>344.0</ele><time>2026-04-26T11:17:32Z</time></trkpt><trkpt lat="44.138246885591634" lon="11.447649916915998"><ele>344.0</ele><time>2026-04-26T11:17:33Z</time></trkpt><trkpt lat="44.13837831864902" lon="11.447622114548986"><ele>343.0</ele><time>2026-04-26T11:17:34Z</time></trkpt><trkpt lat="44.13850429098301" lon="11.447607438809625"><ele>342.0</ele><time>2026-04-26T11:17:35Z</time></trkpt><trkpt lat="44.138627909601" lon="11.44759968510306"><ele>341.0</ele><time>2026-04-26T11:17:36Z</time></trkpt><trkpt lat="44.13874612352377" lon="11.447598630294333"><ele>340.0</ele><time>2026-04-26T11:17:37Z</time></trkpt><trkpt lat="44.138892295246755" lon="11.447557428510633"><ele>340.0</ele><time>2026-04-26T11:17:38Z</time></trkpt><trkpt lat="44.13904627566545" lon="11.447483222848865"><ele>340.0</ele><time>2026-04-26T11:17:39Z</time></trkpt><trkpt lat="44.139238309983334" lon="11.447390520776782"><ele>340.0</ele><time>2026-04-26T11:17:40Z</time></trkpt><trkpt lat="44.13945292617943" lon="11.44732975590614"><ele>334.3333333333333</ele><time>2026-04-26T11:17:41Z</time></trkpt><trkpt lat="44.13966105704255" lon="11.447268789498505"><ele>328.6666666666667</ele><time>2026-04-26T11:17:42Z</time></trkpt><trkpt lat="44.13986779449758" lon="11.447237870220224"><ele>323.0</ele><time>2026-04-26T11:17:43Z</time></trkpt><trkpt lat="44.14006011894255" lon="11.447190499078909"><ele>326.6666666666667</ele><time>2026-04-26T11:17:44Z</time></trkpt><trkpt lat="44.140236891802004" lon="11.447177385317636"><ele>330.3333333333333</ele><time>2026-04-26T11:17:45Z</time></trkpt><trkpt lat="44.14038814649073" lon="11.44714791183689"><ele>334.0</ele><time>2026-04-26T11:17:46Z</time></trkpt><trkpt lat="44.14053247119583" lon="11.447126195452048"><ele>328.0</ele><time>2026-04-26T11:17:47Z</time></trkpt><trkpt lat="44.14067255554935" lon="11.447134570831325"><ele>322.0</ele><time>2026-04-26T11:17:48Z</time></trkpt><trkpt lat="44.140818406742135" lon="11.447180831792448"><ele>316.0</ele><time>2026-04-26T11:17:49Z</time></trkpt><trkpt lat="44.140977525104184" lon="11.447194521975478"><ele>310.0</ele><time>2026-04-26T11:17:50Z</time></trkpt><trkpt lat="44.141147032095645" lon="11.447186729174053"><ele>309.66666666666663</ele><time>2026-04-26T11:17:51Z</time></trkpt><trkpt lat="44.14130429525042" lon="11.447174819479615"><ele>309.3333333333333</ele><time>2026-04-26T11:17:52Z</time></trkpt><trkpt lat="44.14145356790125" lon="11.447185634475339"><ele>309.0</ele><time>2026-04-26T11:17:53Z</time></trkpt><trkpt lat="44.141596272141996" lon="11.44721759921561"><ele>308.75</ele><time>2026-04-26T11:17:54Z</time></trkpt><trkpt lat="44.1417242700528" lon="11.447273312855351"><ele>308.5</ele><time>2026-04-26T11:17:55Z</time></trkpt><trkpt lat="44.14185854438515" lon="11.447357838876504"><ele>308.25</ele><time>2026-04-26T11:17:56Z</time></trkpt><trkpt lat="44.14198247622808" lon="11.447467150967379"><ele>308.0</ele><time>2026-04-26T11:17:57Z</time></trkpt><trkpt lat="44.142079891792356" lon="11.447635640352951"><ele>308.0</ele><time>2026-04-26T11:17:58Z</time></trkpt><trkpt lat="44.14215417971119" lon="11.447821518010803"><ele>308.0</ele><time>2026-04-26T11:17:59Z</time></trkpt><trkpt lat="44.142218192476065" lon="11.448022765026318"><ele>308.0</ele><time>2026-04-26T11:18:00Z</time></trkpt><trkpt lat="44.14229168995526" lon="11.448230320646578"><ele>308.0</ele><time>2026-04-26T11:18:01Z</time></trkpt><trkpt lat="44.14234995223893" lon="11.448446901446149"><ele>308.0</ele><time>2026-04-26T11:18:02Z</time></trkpt><trkpt lat="44.14241170625181" lon="11.448654803118917"><ele>308.0</ele><time>2026-04-26T11:18:03Z</time></trkpt><trkpt lat="44.14244613119571" lon="11.448877302031809"><ele>312.33333333333337</ele><time>2026-04-26T11:18:04Z</time></trkpt><trkpt lat="44.142488072516976" lon="11.44909444239695"><ele>316.6666666666667</ele><time>2026-04-26T11:18:05Z</time></trkpt><trkpt lat="44.142480408465666" lon="11.44932406161424"><ele>321.0</ele><time>2026-04-26T11:18:06Z</time></trkpt><trkpt lat="44.14249899018261" lon="11.449552866731816"><ele>319.3333333333333</ele><time>2026-04-26T11:18:07Z</time></trkpt><trkpt lat="44.14249550846647" lon="11.44977515211345"><ele>317.66666666666663</ele><time>2026-04-26T11:18:08Z</time></trkpt><trkpt lat="44.1424945417308" lon="11.44999293271166"><ele>316.0</ele><time>2026-04-26T11:18:09Z</time></trkpt><trkpt lat="44.14251576983045" lon="11.450208927429408"><ele>316.0</ele><time>2026-04-26T11:18:10Z</time></trkpt><trkpt lat="44.1425727913548" lon="11.450428598916146"><ele>316.0</ele><time>2026-04-26T11:18:11Z</time></trkpt><trkpt lat="44.14266299527358" lon="11.450649902475687"><ele>316.0</ele><time>2026-04-26T11:18:12Z</time></trkpt><trkpt lat="44.14277764107421" lon="11.450859028350374"><ele>315.66666666666663</ele><time>2026-04-26T11:18:13Z</time></trkpt><trkpt lat="44.142898925023665" lon="11.451066306578404"><ele>315.3333333333333</ele><time>2026-04-26T11:18:14Z</time></trkpt><trkpt lat="44.14301459666719" lon="11.451268745914193"><ele>315.0</ele><time>2026-04-26T11:18:15Z</time></trkpt><trkpt lat="44.14312740807343" lon="11.451458201072827"><ele>310.0</ele><time>2026-04-26T11:18:16Z</time></trkpt><trkpt lat="44.14321796709809" lon="11.451655622739572"><ele>305.0</ele><time>2026-04-26T11:18:17Z</time></trkpt><trkpt lat="44.14333026608463" lon="11.451818632314595"><ele>300.0</ele><time>2026-04-26T11:18:18Z</time></trkpt><trkpt lat="44.14342071609956" lon="11.452008507768596"><ele>305.3333333333333</ele><time>2026-04-26T11:18:19Z</time></trkpt><trkpt lat="44.143503876431716" lon="11.45221843528634"><ele>310.66666666666663</ele><time>2026-04-26T11:18:20Z</time></trkpt><trkpt lat="44.14356766492295" lon="11.452451963775616"><ele>316.0</ele><time>2026-04-26T11:18:21Z</time></trkpt><trkpt lat="44.14362297934201" lon="11.45269812971782"><ele>316.0</ele><time>2026-04-26T11:18:22Z</time></trkpt><trkpt lat="44.14369322701397" lon="11.452934756272345"><ele>316.0</ele><time>2026-04-26T11:18:23Z</time></trkpt><trkpt lat="44.143793485456925" lon="11.453167734927439"><ele>316.0</ele><time>2026-04-26T11:18:24Z</time></trkpt><trkpt lat="44.14390223640042" lon="11.453395626940173"><ele>315.66666666666663</ele><time>2026-04-26T11:18:25Z</time></trkpt><trkpt lat="44.144038972462674" lon="11.45359610437279"><ele>315.3333333333333</ele><time>2026-04-26T11:18:25.999Z</time></trkpt><trkpt lat="44.144159727384995" lon="11.453812535252315"><ele>315.0</ele><time>2026-04-26T11:18:26.999Z</time></trkpt><trkpt lat="44.14428983849129" lon="11.454027489690032"><ele>315.0</ele><time>2026-04-26T11:18:27.999Z</time></trkpt><trkpt lat="44.14441813276476" lon="11.454240079019538"><ele>315.0</ele><time>2026-04-26T11:18:28.999Z</time></trkpt><trkpt lat="44.14452899943023" lon="11.454467595605784"><ele>315.0</ele><time>2026-04-26T11:18:29.999Z</time></trkpt><trkpt lat="44.14465453937361" lon="11.454660996167796"><ele>317.0</ele><time>2026-04-26T11:18:30.999Z</time></trkpt><trkpt lat="44.14479065414367" lon="11.45484120766718"><ele>319.0</ele><time>2026-04-26T11:18:31.999Z</time></trkpt><trkpt lat="44.14494888744577" lon="11.455008374161528"><ele>321.0</ele><time>2026-04-26T11:18:32.999Z</time></trkpt><trkpt lat="44.145119699815965" lon="11.455153598532663"><ele>321.0</ele><time>2026-04-26T11:18:33.999Z</time></trkpt><trkpt lat="44.145289996693016" lon="11.455286230960331"><ele>321.0</ele><time>2026-04-26T11:18:34.999Z</time></trkpt><trkpt lat="44.14545258667758" lon="11.455403339869951"><ele>321.0</ele><time>2026-04-26T11:18:35.999Z</time></trkpt><trkpt lat="44.145603093126276" lon="11.455494063395898"><ele>331.0</ele><time>2026-04-26T11:18:36.999Z</time></trkpt><trkpt lat="44.14576440901649" lon="11.45555148462235"><ele>341.0</ele><time>2026-04-26T11:18:37.999Z</time></trkpt><trkpt lat="44.14593462677663" lon="11.455573116796785"><ele>351.0</ele><time>2026-04-26T11:18:38.999Z</time></trkpt><trkpt lat="44.146101745486035" lon="11.455567796062441"><ele>351.0</ele><time>2026-04-26T11:18:39.999Z</time></trkpt><trkpt lat="44.146260702216765" lon="11.455510214749479"><ele>351.0</ele><time>2026-04-26T11:18:40.999Z</time></trkpt><trkpt lat="44.14640317356487" lon="11.455395040504044"><ele>351.0</ele><time>2026-04-26T11:18:41.999Z</time></trkpt><trkpt lat="44.14654321698414" lon="11.455266264718437"><ele>334.6666666666667</ele><time>2026-04-26T11:18:42.999Z</time></trkpt><trkpt lat="44.146672600375894" lon="11.455132752958857"><ele>318.33333333333337</ele><time>2026-04-26T11:18:43.999Z</time></trkpt><trkpt lat="44.146795403645626" lon="11.45497858024011"><ele>302.0</ele><time>2026-04-26T11:18:44.999Z</time></trkpt><trkpt lat="44.14692118528236" lon="11.454818096575936"><ele>302.0</ele><time>2026-04-26T11:18:45.999Z</time></trkpt><trkpt lat="44.14704684334933" lon="11.454650098508488"><ele>302.0</ele><time>2026-04-26T11:18:46.999Z</time></trkpt><trkpt lat="44.147166723091786" lon="11.454483158097617"><ele>302.0</ele><time>2026-04-26T11:18:47.999Z</time></trkpt><trkpt lat="44.14728387917931" lon="11.454324898031533"><ele>300.75</ele><time>2026-04-26T11:18:48.999Z</time></trkpt><trkpt lat="44.14739054229732" lon="11.454186006159354"><ele>299.5</ele><time>2026-04-26T11:18:49.999Z</time></trkpt><trkpt lat="44.1475023303036" lon="11.454068440126017"><ele>298.25</ele><time>2026-04-26T11:18:50.999Z</time></trkpt><trkpt lat="44.14763936422736" lon="11.45404749062484"><ele>297.0</ele><time>2026-04-26T11:18:51.999Z</time></trkpt><trkpt lat="44.147780290603706" lon="11.454054605773084"><ele>297.0</ele><time>2026-04-26T11:18:52.999Z</time></trkpt><trkpt lat="44.14793861247738" lon="11.454075252942863"><ele>297.0</ele><time>2026-04-26T11:18:53.999Z</time></trkpt><trkpt lat="44.14810883005178" lon="11.454103597687316"><ele>297.0</ele><time>2026-04-26T11:18:54.999Z</time></trkpt><trkpt lat="44.14827878308497" lon="11.454153801083883"><ele>297.0</ele><time>2026-04-26T11:18:55.999Z</time></trkpt><trkpt lat="44.14843408591912" lon="11.454244768624147"><ele>297.0</ele><time>2026-04-26T11:18:56.999Z</time></trkpt><trkpt lat="44.14858999668691" lon="11.454374380118496"><ele>297.0</ele><time>2026-04-26T11:18:57.999Z</time></trkpt><trkpt lat="44.148734977154994" lon="11.45453566575266"><ele>296.3333333333333</ele><time>2026-04-26T11:18:58.999Z</time></trkpt><trkpt lat="44.148889425802885" lon="11.454697571012474"><ele>295.66666666666663</ele><time>2026-04-26T11:18:59.999Z</time></trkpt><trkpt lat="44.14903363545623" lon="11.45487037846398"><ele>295.0</ele><time>2026-04-26T11:19:00.999Z</time></trkpt><trkpt lat="44.149163317785884" lon="11.455061557004688"><ele>295.0</ele><time>2026-04-26T11:19:01.999Z</time></trkpt><trkpt lat="44.14929012939567" lon="11.4552370633379"><ele>295.0</ele><time>2026-04-26T11:19:02.999Z</time></trkpt><trkpt lat="44.14941428306652" lon="11.455415234525278"><ele>295.0</ele><time>2026-04-26T11:19:03.999Z</time></trkpt><trkpt lat="44.14954074689058" lon="11.455578574101208"><ele>297.0</ele><time>2026-04-26T11:19:04.999Z</time></trkpt><trkpt lat="44.14964756829227" lon="11.455760516062265"><ele>299.0</ele><time>2026-04-26T11:19:06Z</time></trkpt><trkpt lat="44.14983814599585" lon="11.455776474049214"><ele>301.0</ele><time>2026-04-26T11:19:07Z</time></trkpt><trkpt lat="44.15001230945101" lon="11.455800990704734"><ele>301.0</ele><time>2026-04-26T11:19:08Z</time></trkpt><trkpt lat="44.1501826246637" lon="11.455826563920459"><ele>301.0</ele><time>2026-04-26T11:19:09Z</time></trkpt><trkpt lat="44.15035344504454" lon="11.455856384117276"><ele>301.0</ele><time>2026-04-26T11:19:10Z</time></trkpt><trkpt lat="44.150530220010744" lon="11.45586322161091"><ele>301.0</ele><time>2026-04-26T11:19:11Z</time></trkpt><trkpt lat="44.15070593639309" lon="11.455838071937425"><ele>301.0</ele><time>2026-04-26T11:19:12Z</time></trkpt><trkpt lat="44.150881148600355" lon="11.455798107020815"><ele>301.0</ele><time>2026-04-26T11:19:13Z</time></trkpt><trkpt lat="44.15105987402016" lon="11.455729124371624"><ele>302.0</ele><time>2026-04-26T11:19:14Z</time></trkpt><trkpt lat="44.15123307074162" lon="11.455644865192333"><ele>303.0</ele><time>2026-04-26T11:19:15Z</time></trkpt><trkpt lat="44.151396165354164" lon="11.455552778192775"><ele>304.0</ele><time>2026-04-26T11:19:16Z</time></trkpt><trkpt lat="44.151550980800224" lon="11.455445165094694"><ele>299.3333333333333</ele><time>2026-04-26T11:19:17Z</time></trkpt><trkpt lat="44.1516940318773" lon="11.455332767415344"><ele>294.6666666666667</ele><time>2026-04-26T11:19:18Z</time></trkpt><trkpt lat="44.15182573877405" lon="11.455213704206372"><ele>290.0</ele><time>2026-04-26T11:19:19Z</time></trkpt><trkpt lat="44.15194568608234" lon="11.45511021451023"><ele>290.0</ele><time>2026-04-26T11:19:20Z</time></trkpt><trkpt lat="44.1520575435686" lon="11.455071120232068"><ele>290.0</ele><time>2026-04-26T11:19:21Z</time></trkpt><trkpt lat="44.15214660624137" lon="11.455062215369296"><ele>290.0</ele><time>2026-04-26T11:19:22Z</time></trkpt><trkpt lat="44.152215344442524" lon="11.45513265270152"><ele>290.0</ele><time>2026-04-26T11:19:23Z</time></trkpt><trkpt lat="44.15227760973547" lon="11.455246695837614"><ele>290.0</ele><time>2026-04-26T11:19:24Z</time></trkpt><trkpt lat="44.152341869716345" lon="11.455389873193392"><ele>291.6666666666667</ele><time>2026-04-26T11:19:25Z</time></trkpt><trkpt lat="44.15242090901963" lon="11.455567938011452"><ele>293.3333333333333</ele><time>2026-04-26T11:19:26Z</time></trkpt><trkpt lat="44.15250534665262" lon="11.455764008604227"><ele>295.0</ele><time>2026-04-26T11:19:27Z</time></trkpt><trkpt lat="44.15259259107396" lon="11.455957649779299"><ele>295.0</ele><time>2026-04-26T11:19:28Z</time></trkpt><trkpt lat="44.152691010673706" lon="11.456134318320334"><ele>295.0</ele><time>2026-04-26T11:19:29Z</time></trkpt><trkpt lat="44.152767632140424" lon="11.456321535397883"><ele>295.0</ele><time>2026-04-26T11:19:30Z</time></trkpt><trkpt lat="44.15286277580134" lon="11.456485111818804"><ele>296.25</ele><time>2026-04-26T11:19:31Z</time></trkpt><trkpt lat="44.15296179365857" lon="11.45663402308997"><ele>297.5</ele><time>2026-04-26T11:19:32Z</time></trkpt><trkpt lat="44.153058745862076" lon="11.456767350284089"><ele>298.75</ele><time>2026-04-26T11:19:33Z</time></trkpt><trkpt lat="44.15314526983944" lon="11.456902474121321"><ele>300.0</ele><time>2026-04-26T11:19:34Z</time></trkpt><trkpt lat="44.15323249704925" lon="11.457028668197319"><ele>299.75</ele><time>2026-04-26T11:19:35Z</time></trkpt><trkpt lat="44.15330864764618" lon="11.457152883139473"><ele>299.5</ele><time>2026-04-26T11:19:36Z</time></trkpt><trkpt lat="44.15338024844297" lon="11.457279318460095"><ele>299.25</ele><time>2026-04-26T11:19:37Z</time></trkpt><trkpt lat="44.15344951287551" lon="11.457407684683144"><ele>299.0</ele><time>2026-04-26T11:19:38Z</time></trkpt><trkpt lat="44.15351642664025" lon="11.457535164960785"><ele>299.0</ele><time>2026-04-26T11:19:39Z</time></trkpt><trkpt lat="44.153584186207944" lon="11.45765584994698"><ele>299.0</ele><time>2026-04-26T11:19:40Z</time></trkpt><trkpt lat="44.15363774037784" lon="11.45778152242765"><ele>299.0</ele><time>2026-04-26T11:19:41Z</time></trkpt><trkpt lat="44.15367844304642" lon="11.45792000560021"><ele>299.0</ele><time>2026-04-26T11:19:42Z</time></trkpt><trkpt lat="44.15370544279776" lon="11.45806311839312"><ele>299.0</ele><time>2026-04-26T11:19:43Z</time></trkpt><trkpt lat="44.15368308178425" lon="11.458220760697918"><ele>302.25</ele><time>2026-04-26T11:19:44Z</time></trkpt><trkpt lat="44.153711620039466" lon="11.45837240377149"><ele>305.5</ele><time>2026-04-26T11:19:45Z</time></trkpt><trkpt lat="44.153740182858385" lon="11.458528503431582"><ele>308.75</ele><time>2026-04-26T11:19:46Z</time></trkpt><trkpt lat="44.153767432229984" lon="11.458687997962338"><ele>312.0</ele><time>2026-04-26T11:19:47Z</time></trkpt><trkpt lat="44.15380617446324" lon="11.458848745204868"><ele>312.25</ele><time>2026-04-26T11:19:48Z</time></trkpt><trkpt lat="44.15383866308664" lon="11.459014407706883"><ele>312.5</ele><time>2026-04-26T11:19:49Z</time></trkpt><trkpt lat="44.15389794883743" lon="11.459160562841802"><ele>312.75</ele><time>2026-04-26T11:19:50Z</time></trkpt><trkpt lat="44.153973227879455" lon="11.459273608187845"><ele>313.0</ele><time>2026-04-26T11:19:51Z</time></trkpt><trkpt lat="44.15406914428118" lon="11.459356828980296"><ele>313.0</ele><time>2026-04-26T11:19:52Z</time></trkpt><trkpt lat="44.15418538090848" lon="11.459404239586702"><ele>313.0</ele><time>2026-04-26T11:19:53Z</time></trkpt><trkpt lat="44.15430801291597" lon="11.459409472851718"><ele>313.0</ele><time>2026-04-26T11:19:54Z</time></trkpt><trkpt lat="44.15443404674025" lon="11.459394495206219"><ele>313.0</ele><time>2026-04-26T11:19:55Z</time></trkpt><trkpt lat="44.15455655408235" lon="11.459350710381372"><ele>313.0</ele><time>2026-04-26T11:19:56Z</time></trkpt><trkpt lat="44.15469321723732" lon="11.459307332368978"><ele>313.0</ele><time>2026-04-26T11:19:57Z</time></trkpt><trkpt lat="44.154831741666776" lon="11.459278460446638"><ele>313.0</ele><time>2026-04-26T11:19:58Z</time></trkpt><trkpt lat="44.15496193937634" lon="11.459234343603887"><ele>313.0</ele><time>2026-04-26T11:19:59Z</time></trkpt><trkpt lat="44.15509299869656" lon="11.459206039048144"><ele>312.75</ele><time>2026-04-26T11:20:00Z</time></trkpt><trkpt lat="44.15522527983321" lon="11.459251165264314"><ele>312.5</ele><time>2026-04-26T11:20:01Z</time></trkpt><trkpt lat="44.15536815248933" lon="11.459280217096408"><ele>312.25</ele><time>2026-04-26T11:20:02Z</time></trkpt><trkpt lat="44.15551245080976" lon="11.459340044433352"><ele>312.0</ele><time>2026-04-26T11:20:03Z</time></trkpt><trkpt lat="44.155659001670095" lon="11.459423009711594"><ele>311.75</ele><time>2026-04-26T11:20:04Z</time></trkpt><trkpt lat="44.15581090697109" lon="11.459476767707832"><ele>311.5</ele><time>2026-04-26T11:20:05Z</time></trkpt><trkpt lat="44.15594897380609" lon="11.459526715451325"><ele>311.25</ele><time>2026-04-26T11:20:06Z</time></trkpt><trkpt lat="44.15607657260398" lon="11.459583690261937"><ele>311.0</ele><time>2026-04-26T11:20:07Z</time></trkpt><trkpt lat="44.156188738252546" lon="11.45968202224031"><ele>316.75</ele><time>2026-04-26T11:20:08Z</time></trkpt><trkpt lat="44.156302121890796" lon="11.459804510728937"><ele>322.5</ele><time>2026-04-26T11:20:09Z</time></trkpt><trkpt lat="44.15639526938756" lon="11.459962386599873"><ele>328.25</ele><time>2026-04-26T11:20:10Z</time></trkpt><trkpt lat="44.15646417944476" lon="11.460126881318226"><ele>334.0</ele><time>2026-04-26T11:20:11Z</time></trkpt><trkpt lat="44.15652978264877" lon="11.460289910662288"><ele>332.75</ele><time>2026-04-26T11:20:12Z</time></trkpt><trkpt lat="44.156583277253446" lon="11.460479322973093"><ele>331.5</ele><time>2026-04-26T11:20:13Z</time></trkpt><trkpt lat="44.15660294660988" lon="11.46068621220063"><ele>330.25</ele><time>2026-04-26T11:20:14Z</time></trkpt><trkpt lat="44.15660046597604" lon="11.46087655675047"><ele>329.0</ele><time>2026-04-26T11:20:15Z</time></trkpt><trkpt lat="44.15653501882223" lon="11.461024007981514"><ele>332.6</ele><time>2026-04-26T11:20:16Z</time></trkpt><trkpt lat="44.15652430632611" lon="11.461161286447492"><ele>336.2</ele><time>2026-04-26T11:20:17Z</time></trkpt><trkpt lat="44.156535249167774" lon="11.461282096271177"><ele>339.8</ele><time>2026-04-26T11:20:18Z</time></trkpt><trkpt lat="44.156594103178115" lon="11.461408257531764"><ele>343.40000000000003</ele><time>2026-04-26T11:20:19Z</time></trkpt><trkpt lat="44.156669622172224" lon="11.461532316688885"><ele>347.0</ele><time>2026-04-26T11:20:20Z</time></trkpt><trkpt lat="44.15679372228865" lon="11.461588104298928"><ele>347.0</ele><time>2026-04-26T11:20:21Z</time></trkpt><trkpt lat="44.15689007324338" lon="11.461672517079027"><ele>347.0</ele><time>2026-04-26T11:20:22Z</time></trkpt><trkpt lat="44.15696906836674" lon="11.461763566851536"><ele>347.0</ele><time>2026-04-26T11:20:23Z</time></trkpt><trkpt lat="44.15702397566699" lon="11.461876574417404"><ele>347.0</ele><time>2026-04-26T11:20:24Z</time></trkpt><trkpt lat="44.15704883577684" lon="11.462025065385198"><ele>347.0</ele><time>2026-04-26T11:20:25Z</time></trkpt><trkpt lat="44.15702961555331" lon="11.462191143694387"><ele>348.75</ele><time>2026-04-26T11:20:26Z</time></trkpt><trkpt lat="44.157008077392256" lon="11.462383913973328"><ele>350.5</ele><time>2026-04-26T11:20:27Z</time></trkpt><trkpt lat="44.1569853765989" lon="11.462582745759061"><ele>352.25</ele><time>2026-04-26T11:20:27.999Z</time></trkpt><trkpt lat="44.156978840601795" lon="11.462777263315733"><ele>354.0</ele><time>2026-04-26T11:20:28.999Z</time></trkpt><trkpt lat="44.156966716422986" lon="11.462973640631496"><ele>355.25</ele><time>2026-04-26T11:20:29.999Z</time></trkpt><trkpt lat="44.1569589662281" lon="11.463164137490367"><ele>356.5</ele><time>2026-04-26T11:20:30.999Z</time></trkpt><trkpt lat="44.15694801237574" lon="11.463337009964523"><ele>357.75</ele><time>2026-04-26T11:20:31.999Z</time></trkpt><trkpt lat="44.15694550759137" lon="11.463486510159232"><ele>359.0</ele><time>2026-04-26T11:20:32.999Z</time></trkpt><trkpt lat="44.1569451862005" lon="11.463622745450044"><ele>359.0</ele><time>2026-04-26T11:20:33.999Z</time></trkpt><trkpt lat="44.15699765556967" lon="11.463769768571213"><ele>359.0</ele><time>2026-04-26T11:20:34.999Z</time></trkpt><trkpt lat="44.15708546110428" lon="11.463890033991296"><ele>359.0</ele><time>2026-04-26T11:20:35.999Z</time></trkpt><trkpt lat="44.157175410443735" lon="11.4640256312075"><ele>359.0</ele><time>2026-04-26T11:20:36.999Z</time></trkpt><trkpt lat="44.15729774516266" lon="11.464139903860662"><ele>356.33333333333337</ele><time>2026-04-26T11:20:37.999Z</time></trkpt><trkpt lat="44.15742954209042" lon="11.464255325068626"><ele>353.6666666666667</ele><time>2026-04-26T11:20:38.999Z</time></trkpt><trkpt lat="44.15757058995276" lon="11.464362517809539"><ele>351.0</ele><time>2026-04-26T11:20:39.999Z</time></trkpt><trkpt lat="44.15770274417919" lon="11.464500772385888"><ele>356.3333333333333</ele><time>2026-04-26T11:20:40.999Z</time></trkpt><trkpt lat="44.15783965146677" lon="11.464650523092029"><ele>361.66666666666663</ele><time>2026-04-26T11:20:41.999Z</time></trkpt><trkpt lat="44.15796358707384" lon="11.464821911369263"><ele>367.0</ele><time>2026-04-26T11:20:42.999Z</time></trkpt><trkpt lat="44.158089605949954" lon="11.464971927510927"><ele>363.66666666666663</ele><time>2026-04-26T11:20:43.999Z</time></trkpt><trkpt lat="44.15821605962353" lon="11.465116813202263"><ele>360.3333333333333</ele><time>2026-04-26T11:20:44.999Z</time></trkpt><trkpt lat="44.158335421532996" lon="11.465256464596791"><ele>357.0</ele><time>2026-04-26T11:20:45.999Z</time></trkpt><trkpt lat="44.15844732906013" lon="11.46539336228262"><ele>359.5</ele><time>2026-04-26T11:20:46.999Z</time></trkpt><trkpt lat="44.158544939928284" lon="11.465537617894286"><ele>362.0</ele><time>2026-04-26T11:20:47.999Z</time></trkpt><trkpt lat="44.15862058452285" lon="11.465699481713333"><ele>364.5</ele><time>2026-04-26T11:20:48.999Z</time></trkpt><trkpt lat="44.15866786335992" lon="11.465877693336616"><ele>367.0</ele><time>2026-04-26T11:20:49.999Z</time></trkpt><trkpt lat="44.15865793746767" lon="11.466072418178312"><ele>367.0</ele><time>2026-04-26T11:20:50.999Z</time></trkpt><trkpt lat="44.158632434683454" lon="11.466253965014022"><ele>367.0</ele><time>2026-04-26T11:20:51.999Z</time></trkpt><trkpt lat="44.15858780705611" lon="11.466421008961689"><ele>367.0</ele><time>2026-04-26T11:20:52.999Z</time></trkpt><trkpt lat="44.1585041036873" lon="11.466523919270982"><ele>367.0</ele><time>2026-04-26T11:20:53.999Z</time></trkpt><trkpt lat="44.15839197937558" lon="11.466546026750388"><ele>368.25</ele><time>2026-04-26T11:20:54.999Z</time></trkpt><trkpt lat="44.15827312719338" lon="11.46647928409119"><ele>369.5</ele><time>2026-04-26T11:20:55.999Z</time></trkpt><trkpt lat="44.158157191715965" lon="11.46640262898619"><ele>370.75</ele><time>2026-04-26T11:20:56.999Z</time></trkpt><trkpt lat="44.15802897596803" lon="11.466343429847786"><ele>372.0</ele><time>2026-04-26T11:20:57.999Z</time></trkpt><trkpt lat="44.157925317028756" lon="11.466224456097581"><ele>374.0</ele><time>2026-04-26T11:20:58.999Z</time></trkpt><trkpt lat="44.15783578883748" lon="11.466077524097166"><ele>376.0</ele><time>2026-04-26T11:20:59.999Z</time></trkpt><trkpt lat="44.15773359267047" lon="11.465938006776074"><ele>378.0</ele><time>2026-04-26T11:21:00.999Z</time></trkpt><trkpt lat="44.157653722506346" lon="11.465782213954197"><ele>380.0</ele><time>2026-04-26T11:21:01.999Z</time></trkpt><trkpt lat="44.15755343109955" lon="11.465644498810137"><ele>380.0</ele><time>2026-04-26T11:21:02.999Z</time></trkpt><trkpt lat="44.157431123172614" lon="11.465521461598076"><ele>380.0</ele><time>2026-04-26T11:21:03.999Z</time></trkpt><trkpt lat="44.157292318482845" lon="11.465419192004294"><ele>380.0</ele><time>2026-04-26T11:21:04.999Z</time></trkpt><trkpt lat="44.157163911092454" lon="11.465342404438013"><ele>380.0</ele><time>2026-04-26T11:21:05.999Z</time></trkpt><trkpt lat="44.157054075879024" lon="11.465278891936391"><ele>379.83333333333337</ele><time>2026-04-26T11:21:06.999Z</time></trkpt><trkpt lat="44.15696044080578" lon="11.465238786523436"><ele>379.6666666666667</ele><time>2026-04-26T11:21:07.999Z</time></trkpt><trkpt lat="44.156878253125576" lon="11.465235180842038"><ele>379.5</ele><time>2026-04-26T11:21:08.999Z</time></trkpt><trkpt lat="44.1568062128757" lon="11.46524759086477"><ele>379.3333333333333</ele><time>2026-04-26T11:21:09.999Z</time></trkpt><trkpt lat="44.15677175179753" lon="11.465360053591361"><ele>379.16666666666663</ele><time>2026-04-26T11:21:10.999Z</time></trkpt><trkpt lat="44.15677884067561" lon="11.465477700085962"><ele>379.0</ele><time>2026-04-26T11:21:11.999Z</time></trkpt><trkpt lat="44.156828298682065" lon="11.465593652003806"><ele>382.75</ele><time>2026-04-26T11:21:12.999Z</time></trkpt><trkpt lat="44.156914625691705" lon="11.465704413727646"><ele>386.5</ele><time>2026-04-26T11:21:13.999Z</time></trkpt><trkpt lat="44.15702855963372" lon="11.465834427726914"><ele>390.25</ele><time>2026-04-26T11:21:14.999Z</time></trkpt><trkpt lat="44.15711619015882" lon="11.465985657436319"><ele>394.0</ele><time>2026-04-26T11:21:15.999Z</time></trkpt><trkpt lat="44.157191209687824" lon="11.46614507986134"><ele>395.75</ele><time>2026-04-26T11:21:16.999Z</time></trkpt><trkpt lat="44.15724553731059" lon="11.466345491415462"><ele>397.5</ele><time>2026-04-26T11:21:17.999Z</time></trkpt><trkpt lat="44.15729469715245" lon="11.466551670293292"><ele>399.25</ele><time>2026-04-26T11:21:18.999Z</time></trkpt><trkpt lat="44.157348569851614" lon="11.466711405778392"><ele>401.0</ele><time>2026-04-26T11:21:19.999Z</time></trkpt><trkpt lat="44.15735745499772" lon="11.46685810974162"><ele>401.0</ele><time>2026-04-26T11:21:20.999Z</time></trkpt><trkpt lat="44.15736183425142" lon="11.466981726140448"><ele>401.0</ele><time>2026-04-26T11:21:21.999Z</time></trkpt><trkpt lat="44.15729386327407" lon="11.467086816209559"><ele>401.0</ele><time>2026-04-26T11:21:22.999Z</time></trkpt><trkpt lat="44.1571890883876" lon="11.467126975795612"><ele>401.0</ele><time>2026-04-26T11:21:23.999Z</time></trkpt><trkpt lat="44.15707812028396" lon="11.46709481617476"><ele>401.0</ele><time>2026-04-26T11:21:24.999Z</time></trkpt><trkpt lat="44.156994672085396" lon="11.46695644582442"><ele>401.0</ele><time>2026-04-26T11:21:25.999Z</time></trkpt><trkpt lat="44.156920233500564" lon="11.466805838607886"><ele>401.0</ele><time>2026-04-26T11:21:26.999Z</time></trkpt><trkpt lat="44.156825391745606" lon="11.466671166254155"><ele>401.0</ele><time>2026-04-26T11:21:27.999Z</time></trkpt><trkpt lat="44.156754416610504" lon="11.466528467686475"><ele>401.0</ele><time>2026-04-26T11:21:28.999Z</time></trkpt><trkpt lat="44.15667800716862" lon="11.466399510932856"><ele>401.0</ele><time>2026-04-26T11:21:29.999Z</time></trkpt><trkpt lat="44.15659986633248" lon="11.466278484948967"><ele>401.0</ele><time>2026-04-26T11:21:30.999Z</time></trkpt><trkpt lat="44.15651766867654" lon="11.466168856802433"><ele>401.0</ele><time>2026-04-26T11:21:31.999Z</time></trkpt><trkpt lat="44.15642340441508" lon="11.466106019584132"><ele>401.0</ele><time>2026-04-26T11:21:32.999Z</time></trkpt><trkpt lat="44.15631434999169" lon="11.466107858797864"><ele>401.0</ele><time>2026-04-26T11:21:33.999Z</time></trkpt><trkpt lat="44.1562004465524" lon="11.466144098075844"><ele>402.20000000000005</ele><time>2026-04-26T11:21:34.999Z</time></trkpt><trkpt lat="44.156108559385615" lon="11.466227433654067"><ele>403.40000000000003</ele><time>2026-04-26T11:21:35.999Z</time></trkpt><trkpt lat="44.15604214242975" lon="11.466334760688218"><ele>404.6</ele><time>2026-04-26T11:21:36.999Z</time></trkpt><trkpt lat="44.15599849800681" lon="11.466455396872401"><ele>405.8</ele><time>2026-04-26T11:21:37.999Z</time></trkpt><trkpt lat="44.15598389617422" lon="11.466590588800642"><ele>407.0</ele><time>2026-04-26T11:21:38.999Z</time></trkpt><trkpt lat="44.155977521236494" lon="11.466733264660427"><ele>409.5</ele><time>2026-04-26T11:21:39.999Z</time></trkpt><trkpt lat="44.15606793129171" lon="11.466902406246733"><ele>412.0</ele><time>2026-04-26T11:21:40.999Z</time></trkpt><trkpt lat="44.15614523463146" lon="11.467062027906048"><ele>414.5</ele><time>2026-04-26T11:21:41.999Z</time></trkpt><trkpt lat="44.156226175083404" lon="11.467237854464749"><ele>417.0</ele><time>2026-04-26T11:21:42.999Z</time></trkpt><trkpt lat="44.15630825430797" lon="11.467428239120663"><ele>420.33333333333337</ele><time>2026-04-26T11:21:43.999Z</time></trkpt><trkpt lat="44.156391698563496" lon="11.467623613103587"><ele>423.6666666666667</ele><time>2026-04-26T11:21:44.999Z</time></trkpt><trkpt lat="44.156455172405956" lon="11.46782084828987"><ele>427.0</ele><time>2026-04-26T11:21:45.999Z</time></trkpt><trkpt lat="44.15653042720279" lon="11.468002593145572"><ele>427.25</ele><time>2026-04-26T11:21:46.999Z</time></trkpt><trkpt lat="44.15660778448197" lon="11.4681846861439"><ele>427.5</ele><time>2026-04-26T11:21:47.999Z</time></trkpt><trkpt lat="44.15668539571624" lon="11.468362740580735"><ele>427.75</ele><time>2026-04-26T11:21:48.999Z</time></trkpt><trkpt lat="44.15676258491576" lon="11.468538946206522"><ele>428.0</ele><time>2026-04-26T11:21:49.999Z</time></trkpt><trkpt lat="44.156834856715214" lon="11.468704125373971"><ele>430.75</ele><time>2026-04-26T11:21:50.999Z</time></trkpt><trkpt lat="44.15690331729119" lon="11.468862167737386"><ele>433.5</ele><time>2026-04-26T11:21:51.999Z</time></trkpt><trkpt lat="44.156967392545134" lon="11.46901424235255"><ele>436.25</ele><time>2026-04-26T11:21:52.999Z</time></trkpt><trkpt lat="44.15702056357186" lon="11.46914619993018"><ele>439.0</ele><time>2026-04-26T11:21:53.999Z</time></trkpt><trkpt lat="44.15705745215268" lon="11.46926866609103"><ele>439.00000000000006</ele><time>2026-04-26T11:21:54.999Z</time></trkpt><trkpt lat="44.157061406200256" lon="11.469380688672656"><ele>439.0</ele><time>2026-04-26T11:21:55.999Z</time></trkpt><trkpt lat="44.15702176626773" lon="11.469476483877216"><ele>439.0</ele><time>2026-04-26T11:21:56.999Z</time></trkpt><trkpt lat="44.15694141083699" lon="11.469513405975775"><ele>439.0</ele><time>2026-04-26T11:21:57.999Z</time></trkpt><trkpt lat="44.15685884958891" lon="11.469468710609254"><ele>439.00000000000006</ele><time>2026-04-26T11:21:58.999Z</time></trkpt><trkpt lat="44.15679220518682" lon="11.469350720334047"><ele>439.0</ele><time>2026-04-26T11:21:59.999Z</time></trkpt><trkpt lat="44.1567634084815" lon="11.46918687452301"><ele>439.0</ele><time>2026-04-26T11:22:00.999Z</time></trkpt><trkpt lat="44.15671029337668" lon="11.469025123415696"><ele>439.0</ele><time>2026-04-26T11:22:01.999Z</time></trkpt><trkpt lat="44.15666356901141" lon="11.468866631781726"><ele>439.0</ele><time>2026-04-26T11:22:02.999Z</time></trkpt><trkpt lat="44.15658072182351" lon="11.468726083968617"><ele>439.0</ele><time>2026-04-26T11:22:03.999Z</time></trkpt><trkpt lat="44.15648019066083" lon="11.468612537916787"><ele>439.5</ele><time>2026-04-26T11:22:04.999Z</time></trkpt><trkpt lat="44.156379034630405" lon="11.468512461475836"><ele>440.0</ele><time>2026-04-26T11:22:05.999Z</time></trkpt><trkpt lat="44.1562869217302" lon="11.468410990838523"><ele>440.5</ele><time>2026-04-26T11:22:06.999Z</time></trkpt><trkpt lat="44.15619042378363" lon="11.46831688672123"><ele>441.0</ele><time>2026-04-26T11:22:07.999Z</time></trkpt><trkpt lat="44.15608368141769" lon="11.468243079270273"><ele>441.0</ele><time>2026-04-26T11:22:08.999Z</time></trkpt><trkpt lat="44.15596730683224" lon="11.468205157723858"><ele>441.0</ele><time>2026-04-26T11:22:09.999Z</time></trkpt><trkpt lat="44.15584172316735" lon="11.468216579492987"><ele>441.0</ele><time>2026-04-26T11:22:10.999Z</time></trkpt><trkpt lat="44.15572300732985" lon="11.468266884252213"><ele>441.0</ele><time>2026-04-26T11:22:11.999Z</time></trkpt><trkpt lat="44.155617983670275" lon="11.46834742747581"><ele>443.0</ele><time>2026-04-26T11:22:12.999Z</time></trkpt><trkpt lat="44.15553273747967" lon="11.468459763710948"><ele>445.0</ele><time>2026-04-26T11:22:13.999Z</time></trkpt><trkpt lat="44.15546728602675" lon="11.46859489915017"><ele>447.0</ele><time>2026-04-26T11:22:14.999Z</time></trkpt><trkpt lat="44.15543353324601" lon="11.468754828507707"><ele>449.0</ele><time>2026-04-26T11:22:15.999Z</time></trkpt><trkpt lat="44.15544720420502" lon="11.46892150632587"><ele>450.5</ele><time>2026-04-26T11:22:16.999Z</time></trkpt><trkpt lat="44.15549788186871" lon="11.469085357884378"><ele>452.0</ele><time>2026-04-26T11:22:17.999Z</time></trkpt><trkpt lat="44.15558263793144" lon="11.469240570089447"><ele>453.5</ele><time>2026-04-26T11:22:18.999Z</time></trkpt><trkpt lat="44.15569014665127" lon="11.469398709802787"><ele>455.0</ele><time>2026-04-26T11:22:19.999Z</time></trkpt><trkpt lat="44.15579565072649" lon="11.469562466106193"><ele>460.66666666666663</ele><time>2026-04-26T11:22:20.999Z</time></trkpt><trkpt lat="44.15588985678707" lon="11.469723098982103"><ele>466.33333333333337</ele><time>2026-04-26T11:22:21.999Z</time></trkpt><trkpt lat="44.15598104690109" lon="11.4698989393028"><ele>472.0</ele><time>2026-04-26T11:22:22.999Z</time></trkpt><trkpt lat="44.15606765162095" lon="11.470082350697494"><ele>472.0</ele><time>2026-04-26T11:22:23.999Z</time></trkpt><trkpt lat="44.15616050254972" lon="11.470260131998025"><ele>472.0</ele><time>2026-04-26T11:22:24.999Z</time></trkpt><trkpt lat="44.156276355802675" lon="11.470417125502468"><ele>472.0</ele><time>2026-04-26T11:22:25.999Z</time></trkpt><trkpt lat="44.15641071578396" lon="11.470547390090058"><ele>471.6666666666667</ele><time>2026-04-26T11:22:26.999Z</time></trkpt><trkpt lat="44.15655078256775" lon="11.4706720155423"><ele>471.33333333333337</ele><time>2026-04-26T11:22:27.999Z</time></trkpt><trkpt lat="44.15668929779471" lon="11.470792364229451"><ele>471.0</ele><time>2026-04-26T11:22:28.999Z</time></trkpt><trkpt lat="44.15683025743068" lon="11.470913764656363"><ele>471.0</ele><time>2026-04-26T11:22:29.999Z</time></trkpt><trkpt lat="44.1569703981169" lon="11.471029683751976"><ele>471.0</ele><time>2026-04-26T11:22:30.999Z</time></trkpt><trkpt lat="44.15709575057591" lon="11.471157089016375"><ele>471.0</ele><time>2026-04-26T11:22:31.999Z</time></trkpt><trkpt lat="44.15721490924458" lon="11.471251734305454"><ele>471.6</ele><time>2026-04-26T11:22:32.999Z</time></trkpt><trkpt lat="44.15731598713379" lon="11.471343389520785"><ele>472.20000000000005</ele><time>2026-04-26T11:22:33.999Z</time></trkpt><trkpt lat="44.15740520668322" lon="11.471438774188362"><ele>472.79999999999995</ele><time>2026-04-26T11:22:34.999Z</time></trkpt><trkpt lat="44.15747083136775" lon="11.471553187434434"><ele>473.4</ele><time>2026-04-26T11:22:35.999Z</time></trkpt><trkpt lat="44.15751582751201" lon="11.471692115390782"><ele>474.0</ele><time>2026-04-26T11:22:36.999Z</time></trkpt><trkpt lat="44.15750096222173" lon="11.47186656374735"><ele>474.0</ele><time>2026-04-26T11:22:37.999Z</time></trkpt><trkpt lat="44.15749489247226" lon="11.472052794835365"><ele>474.0</ele><time>2026-04-26T11:22:38.999Z</time></trkpt><trkpt lat="44.15748357648678" lon="11.472239983717687"><ele>474.0</ele><time>2026-04-26T11:22:39.999Z</time></trkpt><trkpt lat="44.15745134334143" lon="11.472418063470057"><ele>474.0</ele><time>2026-04-26T11:22:40.999Z</time></trkpt><trkpt lat="44.15738027636952" lon="11.472578365589293"><ele>482.0</ele><time>2026-04-26T11:22:41.999Z</time></trkpt><trkpt lat="44.15731796650512" lon="11.472738276524625"><ele>490.0</ele><time>2026-04-26T11:22:42.999Z</time></trkpt><trkpt lat="44.15724437481319" lon="11.472873321226134"><ele>498.0</ele><time>2026-04-26T11:22:43.999Z</time></trkpt><trkpt lat="44.157178426442" lon="11.473000892742593"><ele>506.0</ele><time>2026-04-26T11:22:44.999Z</time></trkpt><trkpt lat="44.15712821026997" lon="11.473117176504383"><ele>506.6</ele><time>2026-04-26T11:22:45.999Z</time></trkpt><trkpt lat="44.1570819405617" lon="11.47322985754372"><ele>507.20000000000005</ele><time>2026-04-26T11:22:46.999Z</time></trkpt><trkpt lat="44.15707931467185" lon="11.473367249260734"><ele>507.79999999999995</ele><time>2026-04-26T11:22:47.999Z</time></trkpt><trkpt lat="44.157157600875884" lon="11.473510260931121"><ele>508.4</ele><time>2026-04-26T11:22:48.999Z</time></trkpt><trkpt lat="44.15720816029869" lon="11.4736646802596"><ele>509.0</ele><time>2026-04-26T11:22:49.999Z</time></trkpt><trkpt lat="44.15719625183824" lon="11.473855014399208"><ele>509.66666666666663</ele><time>2026-04-26T11:22:50.999Z</time></trkpt><trkpt lat="44.15717577271017" lon="11.47406298446407"><ele>510.33333333333337</ele><time>2026-04-26T11:22:51.999Z</time></trkpt><trkpt lat="44.157161338840524" lon="11.474278782732517"><ele>511.0</ele><time>2026-04-26T11:22:52.999Z</time></trkpt><trkpt lat="44.157151810224164" lon="11.47448016998251"><ele>512.5</ele><time>2026-04-26T11:22:53.999Z</time></trkpt><trkpt lat="44.15715020483833" lon="11.474677313852274"><ele>514.0</ele><time>2026-04-26T11:22:54.999Z</time></trkpt><trkpt lat="44.15714967044408" lon="11.474873705172893"><ele>515.5</ele><time>2026-04-26T11:22:55.999Z</time></trkpt><trkpt lat="44.15715164998725" lon="11.475063244328414"><ele>517.0</ele><time>2026-04-26T11:22:56.999Z</time></trkpt><trkpt lat="44.15717907983487" lon="11.475233125882232"><ele>517.0</ele><time>2026-04-26T11:22:57.999Z</time></trkpt><trkpt lat="44.15720270086804" lon="11.475406939565179"><ele>517.0</ele><time>2026-04-26T11:22:58.999Z</time></trkpt><trkpt lat="44.15730857046238" lon="11.475539922604478"><ele>517.0</ele><time>2026-04-26T11:22:59.999Z</time></trkpt><trkpt lat="44.15741379476671" lon="11.475667718105361"><ele>517.0</ele><time>2026-04-26T11:23:00.999Z</time></trkpt><trkpt lat="44.157536728924306" lon="11.475770428261146"><ele>513.75</ele><time>2026-04-26T11:23:01.999Z</time></trkpt><trkpt lat="44.15767314379522" lon="11.47583403693872"><ele>510.5</ele><time>2026-04-26T11:23:02.999Z</time></trkpt><trkpt lat="44.157803328170985" lon="11.47590571251591"><ele>507.25</ele><time>2026-04-26T11:23:03.999Z</time></trkpt><trkpt lat="44.15792190773795" lon="11.475960749365967"><ele>504.0</ele><time>2026-04-26T11:23:04.999Z</time></trkpt><trkpt lat="44.158017801613155" lon="11.476026270874552"><ele>504.0</ele><time>2026-04-26T11:23:05.999Z</time></trkpt><trkpt lat="44.1580894346973" lon="11.47611228002595"><ele>504.0</ele><time>2026-04-26T11:23:06.999Z</time></trkpt><trkpt lat="44.15811947812427" lon="11.476222839060442"><ele>504.0</ele><time>2026-04-26T11:23:07.999Z</time></trkpt><trkpt lat="44.158117971318" lon="11.476335398748184"><ele>504.0</ele><time>2026-04-26T11:23:08.999Z</time></trkpt><trkpt lat="44.1580531771068" lon="11.47644340598845"><ele>504.0</ele><time>2026-04-26T11:23:09.999Z</time></trkpt><trkpt lat="44.157955390161064" lon="11.476490291384275"><ele>504.0</ele><time>2026-04-26T11:23:10.999Z</time></trkpt><trkpt lat="44.157841455156685" lon="11.476463610055092"><ele>504.0</ele><time>2026-04-26T11:23:11.999Z</time></trkpt><trkpt lat="44.15774299956455" lon="11.476365539798593"><ele>504.0</ele><time>2026-04-26T11:23:12.999Z</time></trkpt><trkpt lat="44.15762279218478" lon="11.476302531052038"><ele>504.0</ele><time>2026-04-26T11:23:13.999Z</time></trkpt><trkpt lat="44.157504779995136" lon="11.47622262797671"><ele>504.0</ele><time>2026-04-26T11:23:14.999Z</time></trkpt><trkpt lat="44.15738799700671" lon="11.476149308100334"><ele>504.0</ele><time>2026-04-26T11:23:15.999Z</time></trkpt><trkpt lat="44.1572755218106" lon="11.47606984537123"><ele>504.0</ele><time>2026-04-26T11:23:16.999Z</time></trkpt><trkpt lat="44.15717382976685" lon="11.47596230435193"><ele>504.0</ele><time>2026-04-26T11:23:18Z</time></trkpt><trkpt lat="44.157116614820225" lon="11.475782284061719"><ele>507.25</ele><time>2026-04-26T11:23:19Z</time></trkpt><trkpt lat="44.157020162973936" lon="11.475640073749732"><ele>510.5</ele><time>2026-04-26T11:23:20Z</time></trkpt><trkpt lat="44.15693539865956" lon="11.475485950077381"><ele>513.75</ele><time>2026-04-26T11:23:21Z</time></trkpt><trkpt lat="44.15683521739913" lon="11.475357410689305"><ele>517.0</ele><time>2026-04-26T11:23:22Z</time></trkpt><trkpt lat="44.15673092487472" lon="11.475250401016794"><ele>517.0</ele><time>2026-04-26T11:23:23Z</time></trkpt><trkpt lat="44.156648894737835" lon="11.475123559963976"><ele>517.0</ele><time>2026-04-26T11:23:24Z</time></trkpt><trkpt lat="44.156587968799606" lon="11.474996718179245"><ele>517.0</ele><time>2026-04-26T11:23:25Z</time></trkpt><trkpt lat="44.156544919754126" lon="11.474858436558387"><ele>517.0</ele><time>2026-04-26T11:23:26Z</time></trkpt><trkpt lat="44.15651438930168" lon="11.474716934600615"><ele>517.0</ele><time>2026-04-26T11:23:27Z</time></trkpt><trkpt lat="44.15648530000306" lon="11.474591335357559"><ele>520.8333333333334</ele><time>2026-04-26T11:23:28Z</time></trkpt><trkpt lat="44.15645987308024" lon="11.474471711044878"><ele>524.6666666666667</ele><time>2026-04-26T11:23:29Z</time></trkpt><trkpt lat="44.156421995660665" lon="11.47436722330677"><ele>528.5</ele><time>2026-04-26T11:23:30Z</time></trkpt><trkpt lat="44.15642567689649" lon="11.474270162434351"><ele>532.3333333333334</ele><time>2026-04-26T11:23:31Z</time></trkpt><trkpt lat="44.15641180131221" lon="11.474143496056664"><ele>536.1666666666666</ele><time>2026-04-26T11:23:33Z</time></trkpt><trkpt lat="44.1563969181845" lon="11.47401334001311"><ele>540.0</ele><time>2026-04-26T11:23:35Z</time></trkpt><trkpt lat="44.15637474397374" lon="11.473872674723452"><ele>540.0</ele><time>2026-04-26T11:23:37Z</time></trkpt><trkpt lat="44.15633294543218" lon="11.473735289043798"><ele>540.0</ele><time>2026-04-26T11:23:39Z</time></trkpt><trkpt lat="44.15635966915923" lon="11.473573958212846"><ele>540.0</ele><time>2026-04-26T11:23:41Z</time></trkpt><trkpt lat="44.15635796076641" lon="11.473461114526563"><ele>540.0</ele><time>2026-04-26T11:23:42Z</time></trkpt><trkpt lat="44.156385599969006" lon="11.473335464435355"><ele>540.0</ele><time>2026-04-26T11:23:43Z</time></trkpt><trkpt lat="44.15641104544291" lon="11.473198888016162"><ele>540.0</ele><time>2026-04-26T11:23:44Z</time></trkpt><trkpt lat="44.15643191841676" lon="11.473059012101777"><ele>540.0</ele><time>2026-04-26T11:23:45Z</time></trkpt><trkpt lat="44.15643632701507" lon="11.47292531058943"><ele>540.0</ele><time>2026-04-26T11:23:46Z</time></trkpt><trkpt lat="44.15641111997369" lon="11.47279294834488"><ele>540.0</ele><time>2026-04-26T11:23:47Z</time></trkpt><trkpt lat="44.15634820009796" lon="11.472671135600633"><ele>540.0</ele><time>2026-04-26T11:23:48Z</time></trkpt><trkpt lat="44.15626476621218" lon="11.47257311603992"><ele>538.75</ele><time>2026-04-26T11:23:49Z</time></trkpt><trkpt lat="44.15615254494503" lon="11.472501593133424"><ele>537.5</ele><time>2026-04-26T11:23:50Z</time></trkpt><trkpt lat="44.15603678431099" lon="11.472436331838281"><ele>536.25</ele><time>2026-04-26T11:23:51Z</time></trkpt><trkpt lat="44.155938398216804" lon="11.472347749468991"><ele>535.0</ele><time>2026-04-26T11:23:52Z</time></trkpt><trkpt lat="44.15583070035039" lon="11.472283026327636"><ele>535.0</ele><time>2026-04-26T11:23:53Z</time></trkpt><trkpt lat="44.155762214808256" lon="11.472148842253278"><ele>535.0</ele><time>2026-04-26T11:23:54Z</time></trkpt><trkpt lat="44.15572439883535" lon="11.472003426097727"><ele>535.0</ele><time>2026-04-26T11:23:55Z</time></trkpt><trkpt lat="44.15568656128609" lon="11.471855732065475"><ele>535.0</ele><time>2026-04-26T11:23:56Z</time></trkpt><trkpt lat="44.15565699848347" lon="11.471730851874945"><ele>535.0</ele><time>2026-04-26T11:23:57Z</time></trkpt><trkpt lat="44.15561413620264" lon="11.471603274156646"><ele>533.6</ele><time>2026-04-26T11:23:58Z</time></trkpt><trkpt lat="44.15552097443514" lon="11.47155433853885"><ele>532.2</ele><time>2026-04-26T11:23:59Z</time></trkpt><trkpt lat="44.15542660606737" lon="11.471556520355476"><ele>530.8</ele><time>2026-04-26T11:24:00Z</time></trkpt><trkpt lat="44.15532866500002" lon="11.47162148852901"><ele>529.4</ele><time>2026-04-26T11:24:01Z</time></trkpt><trkpt lat="44.15523131875986" lon="11.471727415390454"><ele>528.0</ele><time>2026-04-26T11:24:02Z</time></trkpt><trkpt lat="44.15511860477449" lon="11.471840192597197"><ele>528.0</ele><time>2026-04-26T11:24:03Z</time></trkpt><trkpt lat="44.15502604459403" lon="11.47199705384606"><ele>528.0</ele><time>2026-04-26T11:24:04Z</time></trkpt><trkpt lat="44.15491274738152" lon="11.472093682940349"><ele>528.0</ele><time>2026-04-26T11:24:05Z</time></trkpt><trkpt lat="44.15478240467659" lon="11.472158153620237"><ele>528.0</ele><time>2026-04-26T11:24:06Z</time></trkpt><trkpt lat="44.15464028924018" lon="11.472180788922365"><ele>533.0</ele><time>2026-04-26T11:24:07Z</time></trkpt><trkpt lat="44.15450021411499" lon="11.472157899118717"><ele>538.0</ele><time>2026-04-26T11:24:08Z</time></trkpt><trkpt lat="44.1543589357763" lon="11.472157314077673"><ele>543.0</ele><time>2026-04-26T11:24:09Z</time></trkpt><trkpt lat="44.15422167889352" lon="11.472154437179617"><ele>548.0</ele><time>2026-04-26T11:24:10Z</time></trkpt><trkpt lat="44.15409293445638" lon="11.472152572960052"><ele>546.5</ele><time>2026-04-26T11:24:11Z</time></trkpt><trkpt lat="44.15399318220631" lon="11.472019685252397"><ele>545.0</ele><time>2026-04-26T11:24:12Z</time></trkpt><trkpt lat="44.15388650776191" lon="11.471869104390302"><ele>543.5</ele><time>2026-04-26T11:24:13Z</time></trkpt><trkpt lat="44.15375701501566" lon="11.47175152723374"><ele>542.0</ele><time>2026-04-26T11:24:14Z</time></trkpt><trkpt lat="44.15361658083557" lon="11.47164451677866"><ele>542.0</ele><time>2026-04-26T11:24:15Z</time></trkpt><trkpt lat="44.15347108654891" lon="11.471545296074504"><ele>542.0</ele><time>2026-04-26T11:24:16Z</time></trkpt><trkpt lat="44.15332493380406" lon="11.471472713982452"><ele>542.0</ele><time>2026-04-26T11:24:17Z</time></trkpt><trkpt lat="44.15319333921935" lon="11.471362685990774"><ele>541.3333333333333</ele><time>2026-04-26T11:24:18Z</time></trkpt><trkpt lat="44.1530464394091" lon="11.471317476590746"><ele>540.6666666666666</ele><time>2026-04-26T11:24:19Z</time></trkpt><trkpt lat="44.15289209495088" lon="11.471276299434177"><ele>540.0</ele><time>2026-04-26T11:24:20Z</time></trkpt><trkpt lat="44.15273337486155" lon="11.471208154223774"><ele>540.0</ele><time>2026-04-26T11:24:21Z</time></trkpt><trkpt lat="44.15258376347892" lon="11.471158341474224"><ele>540.0</ele><time>2026-04-26T11:24:22Z</time></trkpt><trkpt lat="44.152448413666065" lon="11.471095160770236"><ele>540.0</ele><time>2026-04-26T11:24:23Z</time></trkpt><trkpt lat="44.15232552886032" lon="11.471011864612452"><ele>540.0</ele><time>2026-04-26T11:24:24Z</time></trkpt><trkpt lat="44.15222701290419" lon="11.47089011384065"><ele>541.0</ele><time>2026-04-26T11:24:25Z</time></trkpt><trkpt lat="44.152152944901864" lon="11.470747282433845"><ele>542.0</ele><time>2026-04-26T11:24:26Z</time></trkpt><trkpt lat="44.15210748360359" lon="11.470588890954707"><ele>543.0</ele><time>2026-04-26T11:24:27Z</time></trkpt><trkpt lat="44.15208066401008" lon="11.470411123032308"><ele>544.0</ele><time>2026-04-26T11:24:28Z</time></trkpt><trkpt lat="44.15203561867669" lon="11.470233143124988"><ele>544.0</ele><time>2026-04-26T11:24:29Z</time></trkpt><trkpt lat="44.15201107917571" lon="11.470070691302682"><ele>544.0</ele><time>2026-04-26T11:24:30Z</time></trkpt><trkpt lat="44.15196435917568" lon="11.469929409173481"><ele>544.0</ele><time>2026-04-26T11:24:31Z</time></trkpt><trkpt lat="44.15189194985548" lon="11.469812992897404"><ele>544.0</ele><time>2026-04-26T11:24:32Z</time></trkpt><trkpt lat="44.151796783000364" lon="11.469729339613993"><ele>544.0</ele><time>2026-04-26T11:24:33Z</time></trkpt><trkpt lat="44.151695336358245" lon="11.469709373394187"><ele>544.0</ele><time>2026-04-26T11:24:34Z</time></trkpt><trkpt lat="44.151595803832656" lon="11.469763313934692"><ele>544.0</ele><time>2026-04-26T11:24:35Z</time></trkpt><trkpt lat="44.15150597364058" lon="11.469859963287988"><ele>544.0</ele><time>2026-04-26T11:24:36Z</time></trkpt><trkpt lat="44.15142165796505" lon="11.470000023093027"><ele>543.25</ele><time>2026-04-26T11:24:37Z</time></trkpt><trkpt lat="44.15134321867317" lon="11.470157298787068"><ele>542.5</ele><time>2026-04-26T11:24:38Z</time></trkpt><trkpt lat="44.15125192140363" lon="11.470320315971618"><ele>541.75</ele><time>2026-04-26T11:24:39Z</time></trkpt><trkpt lat="44.15114392241385" lon="11.47046440010113"><ele>541.0</ele><time>2026-04-26T11:24:40Z</time></trkpt><trkpt lat="44.15104691798961" lon="11.47064277064186"><ele>541.0</ele><time>2026-04-26T11:24:41Z</time></trkpt><trkpt lat="44.15095083574881" lon="11.470811931255605"><ele>541.0</ele><time>2026-04-26T11:24:42Z</time></trkpt><trkpt lat="44.15085164039573" lon="11.470965869430376"><ele>541.0</ele><time>2026-04-26T11:24:43Z</time></trkpt><trkpt lat="44.15076360202586" lon="11.471114398211938"><ele>541.0</ele><time>2026-04-26T11:24:44Z</time></trkpt><trkpt lat="44.150684764945034" lon="11.471249420887347"><ele>537.0</ele><time>2026-04-26T11:24:45Z</time></trkpt><trkpt lat="44.150610603714526" lon="11.471383571791726"><ele>533.0</ele><time>2026-04-26T11:24:46Z</time></trkpt><trkpt lat="44.15056757506362" lon="11.471523561911292"><ele>529.0</ele><time>2026-04-26T11:24:47Z</time></trkpt><trkpt lat="44.150557045758646" lon="11.47167646982008"><ele>525.0</ele><time>2026-04-26T11:24:48Z</time></trkpt><trkpt lat="44.150578639469785" lon="11.47182019774128"><ele>521.0</ele><time>2026-04-26T11:24:49Z</time></trkpt><trkpt lat="44.150631121987004" lon="11.471955608138293"><ele>521.0</ele><time>2026-04-26T11:24:50Z</time></trkpt><trkpt lat="44.15070417505208" lon="11.47208058317105"><ele>521.0</ele><time>2026-04-26T11:24:51Z</time></trkpt><trkpt lat="44.15080105283127" lon="11.472180326188163"><ele>521.0</ele><time>2026-04-26T11:24:52Z</time></trkpt><trkpt lat="44.150894723557855" lon="11.472304312019594"><ele>521.0</ele><time>2026-04-26T11:24:53Z</time></trkpt><trkpt lat="44.15096505857339" lon="11.472460661327613"><ele>524.5</ele><time>2026-04-26T11:24:54Z</time></trkpt><trkpt lat="44.15103307622666" lon="11.472641891127182"><ele>528.0</ele><time>2026-04-26T11:24:55Z</time></trkpt><trkpt lat="44.15108049451962" lon="11.47283087315065"><ele>531.5</ele><time>2026-04-26T11:24:56Z</time></trkpt><trkpt lat="44.1511197359394" lon="11.47303097058603"><ele>535.0</ele><time>2026-04-26T11:24:57Z</time></trkpt><trkpt lat="44.15115453469663" lon="11.473222531299681"><ele>535.0</ele><time>2026-04-26T11:24:58Z</time></trkpt><trkpt lat="44.15118365623593" lon="11.473393867393174"><ele>535.0</ele><time>2026-04-26T11:24:59Z</time></trkpt><trkpt lat="44.151208655515305" lon="11.473545809194075"><ele>535.0</ele><time>2026-04-26T11:25:00Z</time></trkpt><trkpt lat="44.15123884988467" lon="11.473669337520258"><ele>535.0</ele><time>2026-04-26T11:25:01Z</time></trkpt><trkpt lat="44.15125316194818" lon="11.473779414562584"><ele>535.0</ele><time>2026-04-26T11:25:02Z</time></trkpt><trkpt lat="44.15127803384207" lon="11.473923761079918"><ele>533.8333333333334</ele><time>2026-04-26T11:25:04Z</time></trkpt><trkpt lat="44.151293000048724" lon="11.47403447545355"><ele>532.6666666666667</ele><time>2026-04-26T11:25:06Z</time></trkpt><trkpt lat="44.15129403114846" lon="11.474128087477467"><ele>531.5</ele><time>2026-04-26T11:25:20Z</time></trkpt><trkpt lat="44.1513137749227" lon="11.474240744645922"><ele>530.3333333333334</ele><time>2026-04-26T11:25:22Z</time></trkpt><trkpt lat="44.151338815881736" lon="11.474340825408712"><ele>529.1666666666666</ele><time>2026-04-26T11:25:23Z</time></trkpt><trkpt lat="44.15137341440406" lon="11.474462554789845"><ele>528.0</ele><time>2026-04-26T11:25:24Z</time></trkpt><trkpt lat="44.15140653572753" lon="11.474592731996108"><ele>528.0</ele><time>2026-04-26T11:25:25Z</time></trkpt><trkpt lat="44.151428340768106" lon="11.474739480820611"><ele>528.0</ele><time>2026-04-26T11:25:26Z</time></trkpt><trkpt lat="44.15147817551685" lon="11.47490205369446"><ele>528.0</ele><time>2026-04-26T11:25:27.001Z</time></trkpt><trkpt lat="44.151494134059206" lon="11.47506710647894"><ele>528.0</ele><time>2026-04-26T11:25:28.001Z</time></trkpt><trkpt lat="44.151509741994644" lon="11.4752208894819"><ele>528.0</ele><time>2026-04-26T11:25:29.001Z</time></trkpt><trkpt lat="44.15152345250174" lon="11.475354175042682"><ele>528.0</ele><time>2026-04-26T11:25:30.001Z</time></trkpt><trkpt lat="44.151532591689964" lon="11.475473716848759"><ele>528.0</ele><time>2026-04-26T11:25:31.001Z</time></trkpt><trkpt lat="44.151538881578425" lon="11.475580397728555"><ele>528.0</ele><time>2026-04-26T11:25:32.001Z</time></trkpt><trkpt lat="44.15153937859388" lon="11.475682795160546"><ele>528.0</ele><time>2026-04-26T11:25:33.001Z</time></trkpt><trkpt lat="44.151541488247126" lon="11.475777514682225"><ele>528.0</ele><time>2026-04-26T11:25:34.001Z</time></trkpt><trkpt lat="44.15154496218332" lon="11.475866254468835"><ele>529.1666666666666</ele><time>2026-04-26T11:25:35.001Z</time></trkpt><trkpt lat="44.15152684989315" lon="11.475957473200209"><ele>530.3333333333334</ele><time>2026-04-26T11:25:36.001Z</time></trkpt><trkpt lat="44.15153178081779" lon="11.476048152632028"><ele>531.5</ele><time>2026-04-26T11:25:37.001Z</time></trkpt><trkpt lat="44.151541366090804" lon="11.476224425100316"><ele>532.6666666666667</ele><time>2026-04-26T11:25:39Z</time></trkpt><trkpt lat="44.15154638555919" lon="11.476316732777798"><ele>533.8333333333334</ele><time>2026-04-26T11:25:40Z</time></trkpt><trkpt lat="44.15155201546902" lon="11.476413316344503"><ele>535.0</ele><time>2026-04-26T11:25:41Z</time></trkpt><trkpt lat="44.1515599088138" lon="11.476505313945491"><ele>537.0</ele><time>2026-04-26T11:25:42Z</time></trkpt><trkpt lat="44.15156335208993" lon="11.476597917686902"><ele>539.0</ele><time>2026-04-26T11:25:43Z</time></trkpt><trkpt lat="44.15156054761004" lon="11.476689471609133"><ele>541.0</ele><time>2026-04-26T11:25:44Z</time></trkpt><trkpt lat="44.15152881820048" lon="11.476781836589087"><ele>543.0</ele><time>2026-04-26T11:25:45Z</time></trkpt><trkpt lat="44.151474649974816" lon="11.476850934459051"><ele>545.0</ele><time>2026-04-26T11:25:46Z</time></trkpt><trkpt lat="44.15143682648453" lon="11.476943301715197"><ele>547.0</ele><time>2026-04-26T11:25:47Z</time></trkpt><trkpt lat="44.15137795630688" lon="11.477016292305752"><ele>549.0</ele><time>2026-04-26T11:25:48Z</time></trkpt><trkpt lat="44.15131483226226" lon="11.477096913529182"><ele>554.0</ele><time>2026-04-26T11:25:49Z</time></trkpt><trkpt lat="44.151229588884284" lon="11.477167924746183"><ele>559.0</ele><time>2026-04-26T11:25:50Z</time></trkpt><trkpt lat="44.15114414804077" lon="11.477255801229841"><ele>564.0</ele><time>2026-04-26T11:25:51Z</time></trkpt><trkpt lat="44.151058609326405" lon="11.47735513772901"><ele>569.0</ele><time>2026-04-26T11:25:52Z</time></trkpt><trkpt lat="44.15095343807766" lon="11.477413880961846"><ele>574.0</ele><time>2026-04-26T11:25:53Z</time></trkpt><trkpt lat="44.15083438313485" lon="11.477443717479911"><ele>574.0</ele><time>2026-04-26T11:25:54Z</time></trkpt><trkpt lat="44.15071608051708" lon="11.477460227098032"><ele>574.0</ele><time>2026-04-26T11:25:55Z</time></trkpt><trkpt lat="44.150599591360574" lon="11.47747899545369"><ele>574.0</ele><time>2026-04-26T11:25:56Z</time></trkpt><trkpt lat="44.15048458227095" lon="11.477523675492922"><ele>574.0</ele><time>2026-04-26T11:25:57Z</time></trkpt><trkpt lat="44.15036411671238" lon="11.477611997568088"><ele>575.5</ele><time>2026-04-26T11:25:58Z</time></trkpt><trkpt lat="44.15024339836381" lon="11.477732916690213"><ele>577.0</ele><time>2026-04-26T11:25:59Z</time></trkpt><trkpt lat="44.15012614830668" lon="11.47784895028824"><ele>578.5</ele><time>2026-04-26T11:26:00Z</time></trkpt><trkpt lat="44.15001289308809" lon="11.477966903805575"><ele>580.0</ele><time>2026-04-26T11:26:01Z</time></trkpt><trkpt lat="44.14991057874312" lon="11.478107383500843"><ele>575.6666666666667</ele><time>2026-04-26T11:26:02Z</time></trkpt><trkpt lat="44.14980415194728" lon="11.47825824479214"><ele>571.3333333333334</ele><time>2026-04-26T11:26:03Z</time></trkpt><trkpt lat="44.14969374642788" lon="11.478408296229466"><ele>567.0</ele><time>2026-04-26T11:26:04Z</time></trkpt><trkpt lat="44.14957189879465" lon="11.478547459240074"><ele>567.0</ele><time>2026-04-26T11:26:05Z</time></trkpt><trkpt lat="44.1494486073048" lon="11.478689654798034"><ele>567.0</ele><time>2026-04-26T11:26:06Z</time></trkpt><trkpt lat="44.14933143520304" lon="11.478849836692502"><ele>567.0</ele><time>2026-04-26T11:26:07Z</time></trkpt><trkpt lat="44.1492147209257" lon="11.479017396532198"><ele>568.6666666666666</ele><time>2026-04-26T11:26:08Z</time></trkpt><trkpt lat="44.14909220527435" lon="11.479175858564817"><ele>570.3333333333333</ele><time>2026-04-26T11:26:09Z</time></trkpt><trkpt lat="44.14896158383346" lon="11.479313917845996"><ele>572.0</ele><time>2026-04-26T11:26:10Z</time></trkpt><trkpt lat="44.14883087917842" lon="11.479433461534304"><ele>572.0</ele><time>2026-04-26T11:26:11Z</time></trkpt><trkpt lat="44.148709950638306" lon="11.479532576365223"><ele>572.0</ele><time>2026-04-26T11:26:12Z</time></trkpt><trkpt lat="44.1485996150435" lon="11.479623592780534"><ele>572.0</ele><time>2026-04-26T11:26:13Z</time></trkpt><trkpt lat="44.14849604218916" lon="11.479710211445438"><ele>572.0</ele><time>2026-04-26T11:26:14Z</time></trkpt><trkpt lat="44.14840884398134" lon="11.479794321402697"><ele>574.6666666666666</ele><time>2026-04-26T11:26:15Z</time></trkpt><trkpt lat="44.1483389583124" lon="11.479870956696987"><ele>577.3333333333333</ele><time>2026-04-26T11:26:16Z</time></trkpt><trkpt lat="44.14829568969223" lon="11.479952946809485"><ele>580.0</ele><time>2026-04-26T11:26:17Z</time></trkpt><trkpt lat="44.148264161206484" lon="11.480037594386918"><ele>582.6666666666666</ele><time>2026-04-26T11:26:18Z</time></trkpt><trkpt lat="44.14828185053355" lon="11.480147102276257"><ele>585.3333333333334</ele><time>2026-04-26T11:26:19Z</time></trkpt><trkpt lat="44.148352081778874" lon="11.480236700013782"><ele>588.0</ele><time>2026-04-26T11:26:20Z</time></trkpt><trkpt lat="44.14846006382899" lon="11.480245713541816"><ele>588.0</ele><time>2026-04-26T11:26:21Z</time></trkpt><trkpt lat="44.14855276062398" lon="11.480161412427787"><ele>588.0</ele><time>2026-04-26T11:26:22Z</time></trkpt><trkpt lat="44.14864202166769" lon="11.480079412566363"><ele>588.0</ele><time>2026-04-26T11:26:23Z</time></trkpt><trkpt lat="44.14875065770168" lon="11.479988486967823"><ele>588.0</ele><time>2026-04-26T11:26:24Z</time></trkpt><trkpt lat="44.148894093385394" lon="11.4799134638757"><ele>588.0</ele><time>2026-04-26T11:26:25Z</time></trkpt><trkpt lat="44.149038706303315" lon="11.479881002125374"><ele>588.0</ele><time>2026-04-26T11:26:26Z</time></trkpt><trkpt lat="44.14918535142674" lon="11.479841653396495"><ele>588.0</ele><time>2026-04-26T11:26:27Z</time></trkpt><trkpt lat="44.14934141986978" lon="11.479789166068214"><ele>588.3333333333334</ele><time>2026-04-26T11:26:28Z</time></trkpt><trkpt lat="44.14948814215184" lon="11.479722892434323"><ele>588.6666666666667</ele><time>2026-04-26T11:26:29Z</time></trkpt><trkpt lat="44.14962492204101" lon="11.479623965118243"><ele>589.0</ele><time>2026-04-26T11:26:30Z</time></trkpt><trkpt lat="44.14976287661824" lon="11.479537280358908"><ele>592.25</ele><time>2026-04-26T11:26:31Z</time></trkpt><trkpt lat="44.14989148313522" lon="11.47942533761969"><ele>595.5</ele><time>2026-04-26T11:26:32Z</time></trkpt><trkpt lat="44.1500268968736" lon="11.479326219497707"><ele>598.75</ele><time>2026-04-26T11:26:33Z</time></trkpt><trkpt lat="44.15014713852947" lon="11.47921710468464"><ele>602.0</ele><time>2026-04-26T11:26:34Z</time></trkpt><trkpt lat="44.15026825985186" lon="11.479116182129387"><ele>602.0</ele><time>2026-04-26T11:26:35Z</time></trkpt><trkpt lat="44.15039002141436" lon="11.479032537347951"><ele>602.0</ele><time>2026-04-26T11:26:36Z</time></trkpt><trkpt lat="44.15051226565865" lon="11.478970638655786"><ele>602.0</ele><time>2026-04-26T11:26:37Z</time></trkpt><trkpt lat="44.15064353306327" lon="11.478970066835807"><ele>602.0</ele><time>2026-04-26T11:26:38Z</time></trkpt><trkpt lat="44.15079401229232" lon="11.478997706204954"><ele>605.0</ele><time>2026-04-26T11:26:39Z</time></trkpt><trkpt lat="44.15095499232817" lon="11.479028062156678"><ele>608.0</ele><time>2026-04-26T11:26:40Z</time></trkpt><trkpt lat="44.15111422541296" lon="11.4790602652371"><ele>611.0</ele><time>2026-04-26T11:26:41Z</time></trkpt><trkpt lat="44.15126859765898" lon="11.479098208553786"><ele>611.0</ele><time>2026-04-26T11:26:42Z</time></trkpt><trkpt lat="44.151411995377124" lon="11.479136454141981"><ele>611.0</ele><time>2026-04-26T11:26:43Z</time></trkpt><trkpt lat="44.151544347823084" lon="11.479186213080844"><ele>611.0</ele><time>2026-04-26T11:26:44Z</time></trkpt><trkpt lat="44.15166429046421" lon="11.479263848361994"><ele>611.0</ele><time>2026-04-26T11:26:45Z</time></trkpt><trkpt lat="44.15177011417572" lon="11.479358093161872"><ele>612.25</ele><time>2026-04-26T11:26:46Z</time></trkpt><trkpt lat="44.15186245373294" lon="11.479430495791291"><ele>613.5</ele><time>2026-04-26T11:26:47Z</time></trkpt><trkpt lat="44.15196060519184" lon="11.479482113184039"><ele>614.75</ele><time>2026-04-26T11:26:48Z</time></trkpt><trkpt lat="44.152077136794176" lon="11.479433620677032"><ele>616.0</ele><time>2026-04-26T11:26:49Z</time></trkpt><trkpt lat="44.152197051388654" lon="11.479409135914565"><ele>616.0</ele><time>2026-04-26T11:26:50Z</time></trkpt><trkpt lat="44.152298191810964" lon="11.479359862616883"><ele>616.0</ele><time>2026-04-26T11:26:51Z</time></trkpt><trkpt lat="44.15238620794366" lon="11.47927279854432"><ele>616.0</ele><time>2026-04-26T11:26:52Z</time></trkpt><trkpt lat="44.15243634490956" lon="11.479111595983714"><ele>616.0</ele><time>2026-04-26T11:26:53Z</time></trkpt><trkpt lat="44.15248006264052" lon="11.478938678726013"><ele>616.5</ele><time>2026-04-26T11:26:54Z</time></trkpt><trkpt lat="44.152546116722306" lon="11.478765551533549"><ele>617.0</ele><time>2026-04-26T11:26:55Z</time></trkpt><trkpt lat="44.15260136913579" lon="11.478573195717889"><ele>617.5</ele><time>2026-04-26T11:26:56Z</time></trkpt><trkpt lat="44.15266077728361" lon="11.478367267192473"><ele>618.0</ele><time>2026-04-26T11:26:57Z</time></trkpt><trkpt lat="44.15272191186412" lon="11.478163923186964"><ele>618.0</ele><time>2026-04-26T11:26:58Z</time></trkpt><trkpt lat="44.15277069665173" lon="11.477953979355418"><ele>618.0</ele><time>2026-04-26T11:26:59Z</time></trkpt><trkpt lat="44.152843191238496" lon="11.477769146725528"><ele>618.0</ele><time>2026-04-26T11:27:00Z</time></trkpt><trkpt lat="44.1528982702674" lon="11.477590406633377"><ele>618.0</ele><time>2026-04-26T11:27:01Z</time></trkpt><trkpt lat="44.15292626492631" lon="11.477415285720546"><ele>618.0</ele><time>2026-04-26T11:27:02Z</time></trkpt><trkpt lat="44.15293528938319" lon="11.477244969415088"><ele>618.0</ele><time>2026-04-26T11:27:03Z</time></trkpt><trkpt lat="44.15291793226491" lon="11.477081671324356"><ele>618.0</ele><time>2026-04-26T11:27:04Z</time></trkpt><trkpt lat="44.152858244756175" lon="11.476918001867293"><ele>618.0</ele><time>2026-04-26T11:27:05Z</time></trkpt><trkpt lat="44.1528024763304" lon="11.476748955179286"><ele>618.0</ele><time>2026-04-26T11:27:06Z</time></trkpt><trkpt lat="44.152752471867245" lon="11.476575865179429"><ele>618.0</ele><time>2026-04-26T11:27:07Z</time></trkpt><trkpt lat="44.15272145597633" lon="11.476404905729769"><ele>618.0</ele><time>2026-04-26T11:27:08Z</time></trkpt><trkpt lat="44.152680866862795" lon="11.476261304247071"><ele>618.0</ele><time>2026-04-26T11:27:09Z</time></trkpt><trkpt lat="44.1526732755392" lon="11.476108329067978"><ele>618.4</ele><time>2026-04-26T11:27:10Z</time></trkpt><trkpt lat="44.152667698418284" lon="11.47595482048213"><ele>618.8</ele><time>2026-04-26T11:27:11Z</time></trkpt><trkpt lat="44.152753367689414" lon="11.475874361819056"><ele>619.2</ele><time>2026-04-26T11:27:12Z</time></trkpt><trkpt lat="44.15282624353853" lon="11.47582561353695"><ele>619.6</ele><time>2026-04-26T11:27:12.999Z</time></trkpt><trkpt lat="44.15292523908412" lon="11.475759342037277"><ele>620.0</ele><time>2026-04-26T11:27:13.999Z</time></trkpt><trkpt lat="44.15302384927824" lon="11.475721308382845"><ele>620.0</ele><time>2026-04-26T11:27:14.999Z</time></trkpt><trkpt lat="44.1531173764618" lon="11.475694988251416"><ele>620.0</ele><time>2026-04-26T11:27:15.999Z</time></trkpt><trkpt lat="44.15320004244152" lon="11.475698390071845"><ele>620.0</ele><time>2026-04-26T11:27:16.999Z</time></trkpt><trkpt lat="44.153288925707116" lon="11.475763325729986"><ele>620.0</ele><time>2026-04-26T11:27:17.999Z</time></trkpt><trkpt lat="44.1533696539798" lon="11.475874629976117"><ele>620.0</ele><time>2026-04-26T11:27:18.999Z</time></trkpt><trkpt lat="44.153441493106506" lon="11.475985514490151"><ele>624.0</ele><time>2026-04-26T11:27:19.999Z</time></trkpt><trkpt lat="44.153474525742645" lon="11.476105209561487"><ele>628.0</ele><time>2026-04-26T11:27:20.999Z</time></trkpt><trkpt lat="44.15347166755567" lon="11.476246768338045"><ele>632.0</ele><time>2026-04-26T11:27:21.999Z</time></trkpt><trkpt lat="44.15346264084982" lon="11.476420612113943"><ele>636.0</ele><time>2026-04-26T11:27:22.999Z</time></trkpt><trkpt lat="44.153464520734495" lon="11.476609458640414"><ele>637.0</ele><time>2026-04-26T11:27:23.999Z</time></trkpt><trkpt lat="44.153455182699396" lon="11.476809336856645"><ele>638.0</ele><time>2026-04-26T11:27:24.999Z</time></trkpt><trkpt lat="44.15344938618026" lon="11.477025079061464"><ele>639.0</ele><time>2026-04-26T11:27:25.999Z</time></trkpt><trkpt lat="44.153440462079004" lon="11.477242013135003"><ele>639.5</ele><time>2026-04-26T11:27:26.999Z</time></trkpt><trkpt lat="44.15343319999711" lon="11.477446935950251"><ele>640.0</ele><time>2026-04-26T11:27:27.999Z</time></trkpt><trkpt lat="44.153423090830195" lon="11.477646465546494"><ele>640.5</ele><time>2026-04-26T11:27:29Z</time></trkpt><trkpt lat="44.1534198827275" lon="11.477850337017628"><ele>641.0</ele><time>2026-04-26T11:27:30Z</time></trkpt><trkpt lat="44.15339699759381" lon="11.47805180016732"><ele>642.25</ele><time>2026-04-26T11:27:31Z</time></trkpt><trkpt lat="44.15337888367925" lon="11.478251869395228"><ele>643.5</ele><time>2026-04-26T11:27:32Z</time></trkpt><trkpt lat="44.15334446502257" lon="11.478434856758447"><ele>644.75</ele><time>2026-04-26T11:27:33Z</time></trkpt><trkpt lat="44.15331659173733" lon="11.478630615644189"><ele>646.0</ele><time>2026-04-26T11:27:34Z</time></trkpt><trkpt lat="44.15327261455085" lon="11.478791207921654"><ele>648.25</ele><time>2026-04-26T11:27:35Z</time></trkpt><trkpt lat="44.15325434913095" lon="11.478949941486892"><ele>650.5</ele><time>2026-04-26T11:27:36Z</time></trkpt><trkpt lat="44.15326630874456" lon="11.479116236587835"><ele>652.75</ele><time>2026-04-26T11:27:37Z</time></trkpt><trkpt lat="44.153304785132484" lon="11.479287282580273"><ele>655.0</ele><time>2026-04-26T11:27:38Z</time></trkpt><trkpt lat="44.15337225641058" lon="11.479457871701678"><ele>658.0</ele><time>2026-04-26T11:27:39Z</time></trkpt><trkpt lat="44.153422559270695" lon="11.479643939079548"><ele>661.0</ele><time>2026-04-26T11:27:40Z</time></trkpt><trkpt lat="44.15348670846872" lon="11.47983152619058"><ele>664.0</ele><time>2026-04-26T11:27:41Z</time></trkpt><trkpt lat="44.15355511490242" lon="11.480025845160288"><ele>667.0</ele><time>2026-04-26T11:27:42Z</time></trkpt><trkpt lat="44.15363629885284" lon="11.480217304828729"><ele>667.0</ele><time>2026-04-26T11:27:43Z</time></trkpt><trkpt lat="44.15370335709119" lon="11.480401141267532"><ele>667.0</ele><time>2026-04-26T11:27:44Z</time></trkpt><trkpt lat="44.153767487811976" lon="11.480571783559638"><ele>667.0</ele><time>2026-04-26T11:27:45Z</time></trkpt><trkpt lat="44.153798168006794" lon="11.480735536307968"><ele>667.0</ele><time>2026-04-26T11:27:46Z</time></trkpt><trkpt lat="44.15381850152481" lon="11.480883888450148"><ele>668.2</ele><time>2026-04-26T11:27:47Z</time></trkpt><trkpt lat="44.153837486078274" lon="11.481032569887777"><ele>669.4000000000001</ele><time>2026-04-26T11:27:48Z</time></trkpt><trkpt lat="44.15388109462929" lon="11.481164879153317"><ele>670.5999999999999</ele><time>2026-04-26T11:27:49Z</time></trkpt><trkpt lat="44.15394705730621" lon="11.481280532706215"><ele>671.8</ele><time>2026-04-26T11:27:50Z</time></trkpt><trkpt lat="44.15404707579385" lon="11.481366089250741"><ele>673.0</ele><time>2026-04-26T11:27:51Z</time></trkpt><trkpt lat="44.15411623518964" lon="11.481474072265407"><ele>673.0</ele><time>2026-04-26T11:27:52Z</time></trkpt><trkpt lat="44.15417348400199" lon="11.48158236610052"><ele>673.0</ele><time>2026-04-26T11:27:53Z</time></trkpt><trkpt lat="44.15420046122622" lon="11.481707564449378"><ele>673.0</ele><time>2026-04-26T11:27:54Z</time></trkpt><trkpt lat="44.15414559722389" lon="11.481830143954944"><ele>673.0</ele><time>2026-04-26T11:27:55Z</time></trkpt><trkpt lat="44.15410096765048" lon="11.481960605573864"><ele>673.0</ele><time>2026-04-26T11:27:56Z</time></trkpt><trkpt lat="44.153986057813746" lon="11.482026057526843"><ele>676.5</ele><time>2026-04-26T11:27:57Z</time></trkpt><trkpt lat="44.15387313162497" lon="11.48213721464264"><ele>680.0</ele><time>2026-04-26T11:27:58Z</time></trkpt><trkpt lat="44.15374433338502" lon="11.482228066201742"><ele>683.5</ele><time>2026-04-26T11:27:59Z</time></trkpt><trkpt lat="44.15362012064522" lon="11.482345604317564"><ele>687.0</ele><time>2026-04-26T11:28:00Z</time></trkpt><trkpt lat="44.15349104206612" lon="11.482461089473272"><ele>687.0</ele><time>2026-04-26T11:28:01Z</time></trkpt><trkpt lat="44.15336289263416" lon="11.48254991715149"><ele>687.0</ele><time>2026-04-26T11:28:02Z</time></trkpt><trkpt lat="44.15322252741737" lon="11.48261247100751"><ele>687.0</ele><time>2026-04-26T11:28:03Z</time></trkpt><trkpt lat="44.15307230828562" lon="11.4826498697366"><ele>687.0</ele><time>2026-04-26T11:28:04Z</time></trkpt><trkpt lat="44.15291907358444" lon="11.48268597415073"><ele>686.3333333333334</ele><time>2026-04-26T11:28:05Z</time></trkpt><trkpt lat="44.15276512561726" lon="11.482727925696768"><ele>685.6666666666667</ele><time>2026-04-26T11:28:06Z</time></trkpt><trkpt lat="44.152607670821546" lon="11.482775393281127"><ele>685.0</ele><time>2026-04-26T11:28:07Z</time></trkpt><trkpt lat="44.15244811712292" lon="11.482820596147745"><ele>683.6666666666667</ele><time>2026-04-26T11:28:08Z</time></trkpt><trkpt lat="44.15229039969036" lon="11.482868000388589"><ele>682.3333333333334</ele><time>2026-04-26T11:28:09Z</time></trkpt><trkpt lat="44.15213766365148" lon="11.482911777788457"><ele>681.0</ele><time>2026-04-26T11:28:10Z</time></trkpt><trkpt lat="44.151983855377765" lon="11.482965035759044"><ele>685.6666666666666</ele><time>2026-04-26T11:28:11Z</time></trkpt><trkpt lat="44.15183213420835" lon="11.48302264212557"><ele>690.3333333333333</ele><time>2026-04-26T11:28:12Z</time></trkpt><trkpt lat="44.15167920926223" lon="11.483085856326472"><ele>695.0</ele><time>2026-04-26T11:28:13Z</time></trkpt><trkpt lat="44.15153182843574" lon="11.483170939780925"><ele>695.0</ele><time>2026-04-26T11:28:14Z</time></trkpt><trkpt lat="44.151401603080444" lon="11.483277695076703"><ele>695.0</ele><time>2026-04-26T11:28:15Z</time></trkpt><trkpt lat="44.15129149128043" lon="11.483384457392429"><ele>695.0</ele><time>2026-04-26T11:28:16Z</time></trkpt><trkpt lat="44.1512061455173" lon="11.48348454192081"><ele>695.0</ele><time>2026-04-26T11:28:17Z</time></trkpt><trkpt lat="44.15115063006056" lon="11.48358580970809"><ele>695.0</ele><time>2026-04-26T11:28:18Z</time></trkpt><trkpt lat="44.15113122400588" lon="11.483707941479217"><ele>695.0</ele><time>2026-04-26T11:28:19Z</time></trkpt><trkpt lat="44.15115848958238" lon="11.483834947858437"><ele>695.0</ele><time>2026-04-26T11:28:20Z</time></trkpt><trkpt lat="44.15122400018608" lon="11.483944198274987"><ele>695.0</ele><time>2026-04-26T11:28:21Z</time></trkpt><trkpt lat="44.15132062556977" lon="11.484008000444838"><ele>695.0</ele><time>2026-04-26T11:28:22Z</time></trkpt><trkpt lat="44.151441966779565" lon="11.48402219817602"><ele>697.0</ele><time>2026-04-26T11:28:23Z</time></trkpt><trkpt lat="44.15155887405352" lon="11.484024141825081"><ele>699.0</ele><time>2026-04-26T11:28:24Z</time></trkpt><trkpt lat="44.151653345718415" lon="11.484095236385915"><ele>701.0</ele><time>2026-04-26T11:28:25Z</time></trkpt><trkpt lat="44.151718125109994" lon="11.484208874489909"><ele>703.0</ele><time>2026-04-26T11:28:26Z</time></trkpt><trkpt lat="44.15174890669229" lon="11.484348050495472"><ele>705.0</ele><time>2026-04-26T11:28:26.999Z</time></trkpt><trkpt lat="44.151724095722244" lon="11.484495218283731"><ele>706.0</ele><time>2026-04-26T11:28:27.999Z</time></trkpt><trkpt lat="44.15166560593875" lon="11.484625216384933"><ele>707.0</ele><time>2026-04-26T11:28:28.999Z</time></trkpt><trkpt lat="44.15156536115725" lon="11.484694169064198"><ele>708.0</ele><time>2026-04-26T11:28:29.999Z</time></trkpt><trkpt lat="44.15145484767419" lon="11.484715316763731"><ele>709.0</ele><time>2026-04-26T11:28:30.999Z</time></trkpt><trkpt lat="44.15135136220388" lon="11.484605781202331"><ele>709.75</ele><time>2026-04-26T11:28:31.999Z</time></trkpt><trkpt lat="44.1512289718133" lon="11.48455846096594"><ele>710.5</ele><time>2026-04-26T11:28:32.999Z</time></trkpt><trkpt lat="44.15110696960397" lon="11.484497790492664"><ele>711.25</ele><time>2026-04-26T11:28:33.999Z</time></trkpt><trkpt lat="44.15098049305624" lon="11.484425166240253"><ele>712.0</ele><time>2026-04-26T11:28:34.999Z</time></trkpt><trkpt lat="44.15085645954405" lon="11.484353217832917"><ele>712.0</ele><time>2026-04-26T11:28:35.999Z</time></trkpt><trkpt lat="44.15073733349532" lon="11.484291071937076"><ele>712.0</ele><time>2026-04-26T11:28:36.999Z</time></trkpt><trkpt lat="44.15063233622571" lon="11.484239969897756"><ele>712.0</ele><time>2026-04-26T11:28:37.999Z</time></trkpt><trkpt lat="44.150542470550654" lon="11.484212398776666"><ele>712.0</ele><time>2026-04-26T11:28:38.999Z</time></trkpt><trkpt lat="44.15044531562957" lon="11.48422958123046"><ele>712.0</ele><time>2026-04-26T11:28:39.999Z</time></trkpt><trkpt lat="44.150346056799314" lon="11.484317272052298"><ele>713.2</ele><time>2026-04-26T11:28:40.999Z</time></trkpt><trkpt lat="44.15025210833449" lon="11.484427966627125"><ele>714.4000000000001</ele><time>2026-04-26T11:28:41.999Z</time></trkpt><trkpt lat="44.15017687346852" lon="11.484553072708577"><ele>715.5999999999999</ele><time>2026-04-26T11:28:42.999Z</time></trkpt><trkpt lat="44.15010484711634" lon="11.48464874892044"><ele>716.8</ele><time>2026-04-26T11:28:43.999Z</time></trkpt><trkpt lat="44.150032775656335" lon="11.484742524537314"><ele>718.0</ele><time>2026-04-26T11:28:44.999Z</time></trkpt><trkpt lat="44.149969228507196" lon="11.484845525717057"><ele>718.0</ele><time>2026-04-26T11:28:45.999Z</time></trkpt><trkpt lat="44.14993593374223" lon="11.48497735114121"><ele>718.0</ele><time>2026-04-26T11:28:46.999Z</time></trkpt><trkpt lat="44.14994011555664" lon="11.485115862706325"><ele>718.0</ele><time>2026-04-26T11:28:47.999Z</time></trkpt><trkpt lat="44.149987694771404" lon="11.48520767460566"><ele>718.0</ele><time>2026-04-26T11:28:48.999Z</time></trkpt><trkpt lat="44.150063652200856" lon="11.48524844466603"><ele>718.0</ele><time>2026-04-26T11:28:49.999Z</time></trkpt><trkpt lat="44.15015668457012" lon="11.485254322792402"><ele>718.0</ele><time>2026-04-26T11:28:50.999Z</time></trkpt><trkpt lat="44.150253130985625" lon="11.48520462715929"><ele>718.0</ele><time>2026-04-26T11:28:51.999Z</time></trkpt><trkpt lat="44.15035145430501" lon="11.485152286738625"><ele>718.0</ele><time>2026-04-26T11:28:52.999Z</time></trkpt><trkpt lat="44.15044347976574" lon="11.485158222609652"><ele>718.0</ele><time>2026-04-26T11:28:53.999Z</time></trkpt><trkpt lat="44.15053887266503" lon="11.485217410958986"><ele>718.0</ele><time>2026-04-26T11:28:54.999Z</time></trkpt><trkpt lat="44.150629417002534" lon="11.485323070822055"><ele>720.75</ele><time>2026-04-26T11:28:55.999Z</time></trkpt><trkpt lat="44.1507063001757" lon="11.485456379606287"><ele>723.5</ele><time>2026-04-26T11:28:56.999Z</time></trkpt><trkpt lat="44.1507809069297" lon="11.4856029624944"><ele>726.25</ele><time>2026-04-26T11:28:57.999Z</time></trkpt><trkpt lat="44.150848833188824" lon="11.485745707604202"><ele>729.0</ele><time>2026-04-26T11:28:58.999Z</time></trkpt><trkpt lat="44.15090109065742" lon="11.485877344875023"><ele>729.0</ele><time>2026-04-26T11:28:59.999Z</time></trkpt><trkpt lat="44.15092368997171" lon="11.486000540894503"><ele>729.0</ele><time>2026-04-26T11:29:00.999Z</time></trkpt><trkpt lat="44.150906643433835" lon="11.48612335361901"><ele>729.0</ele><time>2026-04-26T11:29:01.999Z</time></trkpt><trkpt lat="44.150812345893335" lon="11.486211936753628"><ele>729.0</ele><time>2026-04-26T11:29:02.999Z</time></trkpt><trkpt lat="44.15070523893304" lon="11.486236492577307"><ele>729.0</ele><time>2026-04-26T11:29:03.999Z</time></trkpt><trkpt lat="44.150603119462325" lon="11.486177576693294"><ele>729.0</ele><time>2026-04-26T11:29:04.999Z</time></trkpt><trkpt lat="44.150512967919894" lon="11.486084523588836"><ele>729.0</ele><time>2026-04-26T11:29:05.999Z</time></trkpt><trkpt lat="44.15041419444716" lon="11.486029754700516"><ele>729.0</ele><time>2026-04-26T11:29:06.999Z</time></trkpt><trkpt lat="44.150299583281196" lon="11.486027371888602"><ele>729.0</ele><time>2026-04-26T11:29:07.999Z</time></trkpt><trkpt lat="44.15018743938749" lon="11.48605461053559"><ele>729.0</ele><time>2026-04-26T11:29:08.999Z</time></trkpt><trkpt lat="44.15009616139292" lon="11.486126702015753"><ele>729.0</ele><time>2026-04-26T11:29:09.999Z</time></trkpt><trkpt lat="44.15002620314926" lon="11.48623769556591"><ele>729.0</ele><time>2026-04-26T11:29:10.999Z</time></trkpt><trkpt lat="44.14998297181259" lon="11.486374368325672"><ele>729.0</ele><time>2026-04-26T11:29:11.999Z</time></trkpt><trkpt lat="44.149978853481606" lon="11.486527822949006"><ele>729.0</ele><time>2026-04-26T11:29:12.999Z</time></trkpt><trkpt lat="44.15000883245618" lon="11.486683388887995"><ele>729.0</ele><time>2026-04-26T11:29:13.999Z</time></trkpt><trkpt lat="44.15006904383175" lon="11.486818901625114"><ele>731.25</ele><time>2026-04-26T11:29:14.999Z</time></trkpt><trkpt lat="44.150148825644514" lon="11.486935210009625"><ele>733.5</ele><time>2026-04-26T11:29:15.999Z</time></trkpt><trkpt lat="44.150252258345766" lon="11.487021835798366"><ele>735.75</ele><time>2026-04-26T11:29:16.999Z</time></trkpt><trkpt lat="44.150349176154336" lon="11.487132798353539"><ele>738.0</ele><time>2026-04-26T11:29:17.999Z</time></trkpt><trkpt lat="44.15042351210052" lon="11.487271319033807"><ele>740.75</ele><time>2026-04-26T11:29:18.999Z</time></trkpt><trkpt lat="44.150501298468114" lon="11.48742618526721"><ele>743.5</ele><time>2026-04-26T11:29:19.999Z</time></trkpt><trkpt lat="44.1505128650561" lon="11.487614199317653"><ele>746.25</ele><time>2026-04-26T11:29:20.999Z</time></trkpt><trkpt lat="44.15050455916287" lon="11.487802284088485"><ele>749.0</ele><time>2026-04-26T11:29:21.999Z</time></trkpt><trkpt lat="44.15046354006804" lon="11.487960529395458"><ele>749.25</ele><time>2026-04-26T11:29:22.999Z</time></trkpt><trkpt lat="44.15038892889346" lon="11.488057530380326"><ele>749.5</ele><time>2026-04-26T11:29:23.999Z</time></trkpt><trkpt lat="44.15029314934896" lon="11.488067462688505"><ele>749.75</ele><time>2026-04-26T11:29:24.999Z</time></trkpt><trkpt lat="44.15017943905729" lon="11.488112476058813"><ele>750.0</ele><time>2026-04-26T11:29:25.999Z</time></trkpt><trkpt lat="44.150045474106875" lon="11.488162238130709"><ele>750.0</ele><time>2026-04-26T11:29:26.999Z</time></trkpt><trkpt lat="44.14991029390369" lon="11.488231652422833"><ele>750.0</ele><time>2026-04-26T11:29:27.999Z</time></trkpt><trkpt lat="44.14977486014899" lon="11.488283553650447"><ele>750.0</ele><time>2026-04-26T11:29:28.999Z</time></trkpt><trkpt lat="44.1496416449446" lon="11.488333986366616"><ele>750.0</ele><time>2026-04-26T11:29:29.999Z</time></trkpt><trkpt lat="44.149503726981436" lon="11.488310711809877"><ele>754.25</ele><time>2026-04-26T11:29:30.999Z</time></trkpt><trkpt lat="44.14936479512892" lon="11.488275712323777"><ele>758.5</ele><time>2026-04-26T11:29:31.999Z</time></trkpt><trkpt lat="44.149224122434454" lon="11.488239633991224"><ele>762.75</ele><time>2026-04-26T11:29:32.999Z</time></trkpt><trkpt lat="44.14908148619688" lon="11.48820818321335"><ele>767.0</ele><time>2026-04-26T11:29:34Z</time></trkpt><trkpt lat="44.14895309142131" lon="11.488178491998008"><ele>767.5</ele><time>2026-04-26T11:29:35Z</time></trkpt><trkpt lat="44.148834985345914" lon="11.48813263918579"><ele>768.0</ele><time>2026-04-26T11:29:36Z</time></trkpt><trkpt lat="44.148723651835745" lon="11.488086148045952"><ele>768.5</ele><time>2026-04-26T11:29:37Z</time></trkpt><trkpt lat="44.14861861344658" lon="11.48801503510558"><ele>769.0</ele><time>2026-04-26T11:29:38Z</time></trkpt><trkpt lat="44.148548614633654" lon="11.487902042520842"><ele>769.0</ele><time>2026-04-26T11:29:39Z</time></trkpt><trkpt lat="44.14848063897482" lon="11.48777125914373"><ele>769.0</ele><time>2026-04-26T11:29:40Z</time></trkpt><trkpt lat="44.14841655784179" lon="11.487633003301628"><ele>769.0</ele><time>2026-04-26T11:29:41Z</time></trkpt><trkpt lat="44.14833800385388" lon="11.487514044984158"><ele>769.0</ele><time>2026-04-26T11:29:42Z</time></trkpt><trkpt lat="44.148250639313" lon="11.487427529600545"><ele>768.4000000000001</ele><time>2026-04-26T11:29:43Z</time></trkpt><trkpt lat="44.14814987275482" lon="11.48739549970287"><ele>767.8</ele><time>2026-04-26T11:29:44Z</time></trkpt><trkpt lat="44.14805199160233" lon="11.48742851314827"><ele>767.2</ele><time>2026-04-26T11:29:45Z</time></trkpt><trkpt lat="44.14795560265264" lon="11.487499006664516"><ele>766.5999999999999</ele><time>2026-04-26T11:29:46Z</time></trkpt><trkpt lat="44.14785984302297" lon="11.487600616212804"><ele>766.0</ele><time>2026-04-26T11:29:47Z</time></trkpt><trkpt lat="44.14776614742125" lon="11.487702623321873"><ele>766.0</ele><time>2026-04-26T11:29:48Z</time></trkpt><trkpt lat="44.14764529108007" lon="11.487750591857083"><ele>766.0</ele><time>2026-04-26T11:29:49Z</time></trkpt><trkpt lat="44.14752516844912" lon="11.487770678873781"><ele>766.0</ele><time>2026-04-26T11:29:50Z</time></trkpt><trkpt lat="44.14740684774255" lon="11.487808323727883"><ele>766.0</ele><time>2026-04-26T11:29:51Z</time></trkpt><trkpt lat="44.14729733435825" lon="11.48781061417968"><ele>767.4</ele><time>2026-04-26T11:29:52Z</time></trkpt><trkpt lat="44.147203028890885" lon="11.487834993149503"><ele>768.8</ele><time>2026-04-26T11:29:53Z</time></trkpt><trkpt lat="44.14711829757446" lon="11.487898870602054"><ele>770.1999999999999</ele><time>2026-04-26T11:29:54Z</time></trkpt><trkpt lat="44.14705481246598" lon="11.48799202403796"><ele>771.5999999999999</ele><time>2026-04-26T11:29:55Z</time></trkpt><trkpt lat="44.14703416110902" lon="11.488103936421444"><ele>773.0</ele><time>2026-04-26T11:29:56Z</time></trkpt><trkpt lat="44.14706486557729" lon="11.488213988008056"><ele>773.0</ele><time>2026-04-26T11:29:57Z</time></trkpt><trkpt lat="44.14711914048914" lon="11.488307399559767"><ele>773.0</ele><time>2026-04-26T11:29:58Z</time></trkpt><trkpt lat="44.14723129067078" lon="11.488334593663758"><ele>773.0</ele><time>2026-04-26T11:29:59Z</time></trkpt><trkpt lat="44.14734353233451" lon="11.488272283752492"><ele>773.0</ele><time>2026-04-26T11:30:00Z</time></trkpt><trkpt lat="44.14744640383642" lon="11.488210746184516"><ele>773.0</ele><time>2026-04-26T11:30:01Z</time></trkpt><trkpt lat="44.14755806420898" lon="11.488217620515"><ele>776.0</ele><time>2026-04-26T11:30:02Z</time></trkpt><trkpt lat="44.147665224943424" lon="11.488248992197727"><ele>779.0</ele><time>2026-04-26T11:30:03Z</time></trkpt><trkpt lat="44.14778431142916" lon="11.488282812606696"><ele>782.0</ele><time>2026-04-26T11:30:04Z</time></trkpt><trkpt lat="44.14789317487729" lon="11.488327466139914"><ele>785.0</ele><time>2026-04-26T11:30:05Z</time></trkpt><trkpt lat="44.148001808113165" lon="11.488382896796708"><ele>785.0</ele><time>2026-04-26T11:30:06Z</time></trkpt><trkpt lat="44.148102874509924" lon="11.488451242966754"><ele>785.0</ele><time>2026-04-26T11:30:07Z</time></trkpt><trkpt lat="44.148188689477045" lon="11.488513223503393"><ele>785.0</ele><time>2026-04-26T11:30:08Z</time></trkpt><trkpt lat="44.14825417527261" lon="11.488603998497252"><ele>785.0</ele><time>2026-04-26T11:30:09Z</time></trkpt><trkpt lat="44.148297743994036" lon="11.488711619180982"><ele>785.0</ele><time>2026-04-26T11:30:10Z</time></trkpt><trkpt lat="44.14828730266753" lon="11.488836888858206"><ele>787.6</ele><time>2026-04-26T11:30:11Z</time></trkpt><trkpt lat="44.148226301614336" lon="11.488930314368389"><ele>790.2</ele><time>2026-04-26T11:30:12Z</time></trkpt><trkpt lat="44.14813278741013" lon="11.488964801583633"><ele>792.8</ele><time>2026-04-26T11:30:13Z</time></trkpt><trkpt lat="44.148024647033395" lon="11.488901958599687"><ele>795.4</ele><time>2026-04-26T11:30:14Z</time></trkpt><trkpt lat="44.14789998741846" lon="11.488859787143294"><ele>798.0</ele><time>2026-04-26T11:30:15Z</time></trkpt><trkpt lat="44.14777772406856" lon="11.488783629884482"><ele>798.2</ele><time>2026-04-26T11:30:16Z</time></trkpt><trkpt lat="44.14767199017907" lon="11.488741900570886"><ele>798.4</ele><time>2026-04-26T11:30:17Z</time></trkpt><trkpt lat="44.14757790112648" lon="11.488735447353257"><ele>798.6</ele><time>2026-04-26T11:30:18Z</time></trkpt><trkpt lat="44.147489226382255" lon="11.488774224987111"><ele>798.8000000000001</ele><time>2026-04-26T11:30:19Z</time></trkpt><trkpt lat="44.14742645510315" lon="11.488864598365911"><ele>799.0</ele><time>2026-04-26T11:30:20Z</time></trkpt><trkpt lat="44.1474023589408" lon="11.48899615404726"><ele>799.0</ele><time>2026-04-26T11:30:21Z</time></trkpt><trkpt lat="44.147418801268344" lon="11.48913380975322"><ele>799.0</ele><time>2026-04-26T11:30:22Z</time></trkpt><trkpt lat="44.147457677785894" lon="11.489251759826285"><ele>799.0</ele><time>2026-04-26T11:30:23Z</time></trkpt><trkpt lat="44.14756906782017" lon="11.489305434257195"><ele>799.0</ele><time>2026-04-26T11:30:24Z</time></trkpt><trkpt lat="44.147686577245636" lon="11.489339819497586"><ele>799.0</ele><time>2026-04-26T11:30:25Z</time></trkpt><trkpt lat="44.14780802264257" lon="11.489404549725423"><ele>799.0</ele><time>2026-04-26T11:30:26Z</time></trkpt><trkpt lat="44.14793889550566" lon="11.489464216196923"><ele>799.0</ele><time>2026-04-26T11:30:27Z</time></trkpt><trkpt lat="44.148065855577116" lon="11.48953713927637"><ele>799.0</ele><time>2026-04-26T11:30:28Z</time></trkpt><trkpt lat="44.148187550087115" lon="11.489631136941682"><ele>799.0</ele><time>2026-04-26T11:30:29Z</time></trkpt><trkpt lat="44.148292831078074" lon="11.489746247249336"><ele>801.5</ele><time>2026-04-26T11:30:30Z</time></trkpt><trkpt lat="44.148377792828796" lon="11.48986162896893"><ele>804.0</ele><time>2026-04-26T11:30:31Z</time></trkpt><trkpt lat="44.14844662566707" lon="11.489983892807787"><ele>806.5</ele><time>2026-04-26T11:30:32Z</time></trkpt><trkpt lat="44.148474838498245" lon="11.490149840139239"><ele>809.0</ele><time>2026-04-26T11:30:33Z</time></trkpt><trkpt lat="44.14844006898165" lon="11.490317744826749"><ele>810.25</ele><time>2026-04-26T11:30:34Z</time></trkpt><trkpt lat="44.1484022852859" lon="11.490493045668774"><ele>811.5</ele><time>2026-04-26T11:30:35Z</time></trkpt><trkpt lat="44.14837594558679" lon="11.490684252676976"><ele>812.75</ele><time>2026-04-26T11:30:36Z</time></trkpt><trkpt lat="44.148322152724724" lon="11.490873184782812"><ele>814.0</ele><time>2026-04-26T11:30:37Z</time></trkpt><trkpt lat="44.14827653711603" lon="11.491068688109523"><ele>814.0</ele><time>2026-04-26T11:30:38Z</time></trkpt><trkpt lat="44.148235036922145" lon="11.491257010947546"><ele>814.0</ele><time>2026-04-26T11:30:39Z</time></trkpt><trkpt lat="44.14819468067242" lon="11.49144590701285"><ele>814.0</ele><time>2026-04-26T11:30:40Z</time></trkpt><trkpt lat="44.14812467814083" lon="11.491610388239499"><ele>814.0</ele><time>2026-04-26T11:30:41Z</time></trkpt><trkpt lat="44.148058422926034" lon="11.491768618358316"><ele>820.5</ele><time>2026-04-26T11:30:42Z</time></trkpt><trkpt lat="44.14799029357299" lon="11.491926830501933"><ele>827.0</ele><time>2026-04-26T11:30:43Z</time></trkpt><trkpt lat="44.14796166167946" lon="11.492114037906594"><ele>833.5</ele><time>2026-04-26T11:30:44Z</time></trkpt><trkpt lat="44.14795941610308" lon="11.492316671635914"><ele>840.0</ele><time>2026-04-26T11:30:45Z</time></trkpt><trkpt lat="44.14795613212599" lon="11.492526561215264"><ele>844.0</ele><time>2026-04-26T11:30:46Z</time></trkpt><trkpt lat="44.14794546284845" lon="11.492745560081387"><ele>848.0</ele><time>2026-04-26T11:30:47Z</time></trkpt><trkpt lat="44.14793077217495" lon="11.492973196805728"><ele>852.0</ele><time>2026-04-26T11:30:48Z</time></trkpt><trkpt lat="44.14791220467118" lon="11.493197638258078"><ele>855.0</ele><time>2026-04-26T11:30:49Z</time></trkpt><trkpt lat="44.147888931146625" lon="11.493409274807393"><ele>858.0</ele><time>2026-04-26T11:30:50Z</time></trkpt><trkpt lat="44.14789559308821" lon="11.493626046081106"><ele>861.0</ele><time>2026-04-26T11:30:51Z</time></trkpt><trkpt lat="44.14793445074327" lon="11.493850855602412"><ele>862.3333333333333</ele><time>2026-04-26T11:30:52Z</time></trkpt><trkpt lat="44.14798392072615" lon="11.494083256947278"><ele>863.6666666666666</ele><time>2026-04-26T11:30:53Z</time></trkpt><trkpt lat="44.14803269436797" lon="11.494317496994261"><ele>865.0</ele><time>2026-04-26T11:30:54Z</time></trkpt><trkpt lat="44.14806933042581" lon="11.4945449199513"><ele>866.0</ele><time>2026-04-26T11:30:55Z</time></trkpt><trkpt lat="44.14807328740319" lon="11.494781099722672"><ele>867.0</ele><time>2026-04-26T11:30:56Z</time></trkpt><trkpt lat="44.14810330197771" lon="11.495022538157011"><ele>868.0</ele><time>2026-04-26T11:30:57Z</time></trkpt><trkpt lat="44.14811489070992" lon="11.495265652706294"><ele>871.6666666666666</ele><time>2026-04-26T11:30:58Z</time></trkpt><trkpt lat="44.14812711883735" lon="11.495497825216223"><ele>875.3333333333333</ele><time>2026-04-26T11:30:59Z</time></trkpt><trkpt lat="44.14813668153776" lon="11.495716969493719"><ele>879.0</ele><time>2026-04-26T11:31:00Z</time></trkpt><trkpt lat="44.14816012000024" lon="11.495927111467777"><ele>879.0</ele><time>2026-04-26T11:31:01Z</time></trkpt><trkpt lat="44.14820904102491" lon="11.496120953119279"><ele>879.0</ele><time>2026-04-26T11:31:02Z</time></trkpt><trkpt lat="44.148275834281655" lon="11.49629997719887"><ele>879.0</ele><time>2026-04-26T11:31:03Z</time></trkpt><trkpt lat="44.14836793319324" lon="11.496472463296529"><ele>879.0</ele><time>2026-04-26T11:31:04Z</time></trkpt><trkpt lat="44.148477788574226" lon="11.496636069564884"><ele>877.3333333333333</ele><time>2026-04-26T11:31:05Z</time></trkpt><trkpt lat="44.148579386403505" lon="11.49682404802898"><ele>875.6666666666666</ele><time>2026-04-26T11:31:06Z</time></trkpt><trkpt lat="44.14868210906559" lon="11.496994879801527"><ele>874.0</ele><time>2026-04-26T11:31:07Z</time></trkpt><trkpt lat="44.148764382012224" lon="11.497161056109897"><ele>874.0</ele><time>2026-04-26T11:31:08Z</time></trkpt><trkpt lat="44.14883743994399" lon="11.49732686117751"><ele>874.0</ele><time>2026-04-26T11:31:09Z</time></trkpt><trkpt lat="44.1489109244644" lon="11.49748868501124"><ele>874.0</ele><time>2026-04-26T11:31:10Z</time></trkpt><trkpt lat="44.1489804904354" lon="11.497645386168116"><ele>874.0</ele><time>2026-04-26T11:31:11Z</time></trkpt><trkpt lat="44.14904097961538" lon="11.497796700191547"><ele>872.6666666666666</ele><time>2026-04-26T11:31:12Z</time></trkpt><trkpt lat="44.14907068958915" lon="11.497921714052877"><ele>871.3333333333333</ele><time>2026-04-26T11:31:13Z</time></trkpt><trkpt lat="44.149055759171" lon="11.498022130634066"><ele>870.0</ele><time>2026-04-26T11:31:14Z</time></trkpt><trkpt lat="44.14902124637097" lon="11.498111686722751"><ele>868.6666666666667</ele><time>2026-04-26T11:31:15Z</time></trkpt><trkpt lat="44.14894564512995" lon="11.498176021243546"><ele>867.3333333333334</ele><time>2026-04-26T11:31:16Z</time></trkpt><trkpt lat="44.148850784784635" lon="11.498205990698315"><ele>866.0</ele><time>2026-04-26T11:31:17Z</time></trkpt><trkpt lat="44.148740898695856" lon="11.4982280696837"><ele>866.0</ele><time>2026-04-26T11:31:18Z</time></trkpt><trkpt lat="44.148647063411566" lon="11.498310693515991"><ele>865.9999999999999</ele><time>2026-04-26T11:31:19Z</time></trkpt><trkpt lat="44.14856578564992" lon="11.498415082658926"><ele>865.9999999999999</ele><time>2026-04-26T11:31:20Z</time></trkpt><trkpt lat="44.148477128759964" lon="11.498502750810461"><ele>866.0</ele><time>2026-04-26T11:31:21Z</time></trkpt><trkpt lat="44.14836255227611" lon="11.498523366320068"><ele>866.0</ele><time>2026-04-26T11:31:22Z</time></trkpt><trkpt lat="44.14825520089913" lon="11.498453976649026"><ele>865.25</ele><time>2026-04-26T11:31:23Z</time></trkpt><trkpt lat="44.14813952096051" lon="11.498388740374637"><ele>864.5</ele><time>2026-04-26T11:31:24Z</time></trkpt><trkpt lat="44.14800607130096" lon="11.498358271550638"><ele>863.75</ele><time>2026-04-26T11:31:25Z</time></trkpt><trkpt lat="44.14789854391845" lon="11.498354229394927"><ele>863.0</ele><time>2026-04-26T11:31:26Z</time></trkpt><trkpt lat="44.147798063052186" lon="11.498357563144395"><ele>863.0</ele><time>2026-04-26T11:31:27Z</time></trkpt><trkpt lat="44.14770121086808" lon="11.498329301952932"><ele>863.0</ele><time>2026-04-26T11:31:28Z</time></trkpt><trkpt lat="44.14762720452538" lon="11.498223493152537"><ele>863.0</ele><time>2026-04-26T11:31:29Z</time></trkpt><trkpt lat="44.14761382604516" lon="11.498062135237996"><ele>863.0</ele><time>2026-04-26T11:31:30Z</time></trkpt><trkpt lat="44.1476440407282" lon="11.497915307825366"><ele>863.0</ele><time>2026-04-26T11:31:31Z</time></trkpt><trkpt lat="44.14765110224062" lon="11.497751226277165"><ele>864.25</ele><time>2026-04-26T11:31:32Z</time></trkpt><trkpt lat="44.147676672496246" lon="11.497583185840297"><ele>865.5</ele><time>2026-04-26T11:31:33Z</time></trkpt><trkpt lat="44.147692055374314" lon="11.4974106814076"><ele>866.75</ele><time>2026-04-26T11:31:34Z</time></trkpt><trkpt lat="44.14768301985276" lon="11.497239408666397"><ele>868.0</ele><time>2026-04-26T11:31:35Z</time></trkpt><trkpt lat="44.14763902322289" lon="11.497077455925872"><ele>870.25</ele><time>2026-04-26T11:31:36Z</time></trkpt><trkpt lat="44.14755765158416" lon="11.496939752078333"><ele>872.5</ele><time>2026-04-26T11:31:37Z</time></trkpt><trkpt lat="44.14745283044484" lon="11.496832556810201"><ele>874.75</ele><time>2026-04-26T11:31:38Z</time></trkpt><trkpt lat="44.14733172635016" lon="11.49675322776481"><ele>877.0</ele><time>2026-04-26T11:31:39Z</time></trkpt><trkpt lat="44.147200874711515" lon="11.496706580068798"><ele>877.0</ele><time>2026-04-26T11:31:40.001Z</time></trkpt><trkpt lat="44.14707151420918" lon="11.49670550583553"><ele>877.0</ele><time>2026-04-26T11:31:41.001Z</time></trkpt><trkpt lat="44.14696736056718" lon="11.496626761305915"><ele>877.0</ele><time>2026-04-26T11:31:42.001Z</time></trkpt><trkpt lat="44.14686041728073" lon="11.496529382346555"><ele>877.0</ele><time>2026-04-26T11:31:43.001Z</time></trkpt><trkpt lat="44.1467397507885" lon="11.496463738383532"><ele>877.0</ele><time>2026-04-26T11:31:44.001Z</time></trkpt><trkpt lat="44.14661442123366" lon="11.496407201348948"><ele>877.0</ele><time>2026-04-26T11:31:45Z</time></trkpt><trkpt lat="44.14648919441194" lon="11.496388767359445"><ele>877.0</ele><time>2026-04-26T11:31:46Z</time></trkpt><trkpt lat="44.14637360612727" lon="11.496403328498673"><ele>877.0</ele><time>2026-04-26T11:31:47Z</time></trkpt><trkpt lat="44.146263818321145" lon="11.496462816868542"><ele>880.0</ele><time>2026-04-26T11:31:48Z</time></trkpt><trkpt lat="44.14616625103611" lon="11.496575132288008"><ele>883.0</ele><time>2026-04-26T11:31:49Z</time></trkpt><trkpt lat="44.146058647606" lon="11.496640194452157"><ele>886.0</ele><time>2026-04-26T11:31:50Z</time></trkpt><trkpt lat="44.1459323055651" lon="11.496669948748071"><ele>889.0</ele><time>2026-04-26T11:31:51Z</time></trkpt><trkpt lat="44.14579227764766" lon="11.49670742287956"><ele>893.75</ele><time>2026-04-26T11:31:52Z</time></trkpt><trkpt lat="44.14565929079269" lon="11.496763078291686"><ele>898.5</ele><time>2026-04-26T11:31:53Z</time></trkpt><trkpt lat="44.145529297191565" lon="11.49681654641707"><ele>903.25</ele><time>2026-04-26T11:31:54Z</time></trkpt><trkpt lat="44.14541179061447" lon="11.496911106153584"><ele>908.0</ele><time>2026-04-26T11:31:55Z</time></trkpt><trkpt lat="44.14530289308698" lon="11.497033653715247"><ele>902.5</ele><time>2026-04-26T11:31:56Z</time></trkpt><trkpt lat="44.14519583568023" lon="11.497164975603141"><ele>897.0</ele><time>2026-04-26T11:31:57Z</time></trkpt><trkpt lat="44.14509774773426" lon="11.497319741755483"><ele>891.5</ele><time>2026-04-26T11:31:58Z</time></trkpt><trkpt lat="44.144995703204984" lon="11.497471847899448"><ele>886.0</ele><time>2026-04-26T11:31:59Z</time></trkpt><trkpt lat="44.14488400300581" lon="11.497615549029193"><ele>888.6666666666666</ele><time>2026-04-26T11:32:00Z</time></trkpt><trkpt lat="44.14477574466575" lon="11.497763502860156"><ele>891.3333333333333</ele><time>2026-04-26T11:32:01Z</time></trkpt><trkpt lat="44.1446593638695" lon="11.497904594511951"><ele>894.0</ele><time>2026-04-26T11:32:02Z</time></trkpt><trkpt lat="44.14453256886868" lon="11.498026968225062"><ele>894.0</ele><time>2026-04-26T11:32:03Z</time></trkpt><trkpt lat="44.14439489271133" lon="11.498137314013487"><ele>894.0</ele><time>2026-04-26T11:32:04Z</time></trkpt><trkpt lat="44.14426659726176" lon="11.498232583353248"><ele>894.0</ele><time>2026-04-26T11:32:05Z</time></trkpt><trkpt lat="44.144155899931675" lon="11.498318147169503"><ele>894.0</ele><time>2026-04-26T11:32:06Z</time></trkpt><trkpt lat="44.144058128930936" lon="11.498425366454825"><ele>895.75</ele><time>2026-04-26T11:32:07Z</time></trkpt><trkpt lat="44.14399131640949" lon="11.498566484743083"><ele>897.5</ele><time>2026-04-26T11:32:08Z</time></trkpt><trkpt lat="44.14391650680024" lon="11.498700090700982"><ele>899.25</ele><time>2026-04-26T11:32:09Z</time></trkpt><trkpt lat="44.14386191084986" lon="11.498876735356706"><ele>901.0</ele><time>2026-04-26T11:32:10Z</time></trkpt><trkpt lat="44.14382702315767" lon="11.499069117211697"><ele>901.0</ele><time>2026-04-26T11:32:11Z</time></trkpt><trkpt lat="44.143807711331156" lon="11.49927290963233"><ele>901.0</ele><time>2026-04-26T11:32:12Z</time></trkpt><trkpt lat="44.14378120074088" lon="11.499483306051593"><ele>901.0</ele><time>2026-04-26T11:32:13Z</time></trkpt><trkpt lat="44.14375940372081" lon="11.49969296493033"><ele>898.4</ele><time>2026-04-26T11:32:14Z</time></trkpt><trkpt lat="44.14373868693846" lon="11.499885082481127"><ele>895.8</ele><time>2026-04-26T11:32:15Z</time></trkpt><trkpt lat="44.143746804548975" lon="11.5000656593119"><ele>893.1999999999999</ele><time>2026-04-26T11:32:16Z</time></trkpt><trkpt lat="44.14374504145475" lon="11.500203800951065"><ele>890.5999999999999</ele><time>2026-04-26T11:32:17Z</time></trkpt><trkpt lat="44.14372857958232" lon="11.500312512474634"><ele>888.0</ele><time>2026-04-26T11:32:18Z</time></trkpt><trkpt lat="44.143717092795505" lon="11.500418626963029"><ele>887.3333333333334</ele><time>2026-04-26T11:32:19Z</time></trkpt><trkpt lat="44.14369564964845" lon="11.500520125569532"><ele>886.6666666666667</ele><time>2026-04-26T11:32:20Z</time></trkpt><trkpt lat="44.14365080269117" lon="11.500600589527135"><ele>886.0</ele><time>2026-04-26T11:32:21Z</time></trkpt><trkpt lat="44.14360575151186" lon="11.500700386824883"><ele>885.3333333333334</ele><time>2026-04-26T11:32:22Z</time></trkpt><trkpt lat="44.1435535415304" lon="11.500776744043062"><ele>884.6666666666667</ele><time>2026-04-26T11:32:23Z</time></trkpt><trkpt lat="44.143429343699154" lon="11.500757068924008"><ele>884.0</ele><time>2026-04-26T11:32:24Z</time></trkpt><trkpt lat="44.14332894387958" lon="11.500721785869562"><ele>884.0</ele><time>2026-04-26T11:32:25Z</time></trkpt><trkpt lat="44.14323936026681" lon="11.50064779292607"><ele>884.0000000000001</ele><time>2026-04-26T11:32:26Z</time></trkpt><trkpt lat="44.14316360493342" lon="11.500538324820164"><ele>884.0000000000001</ele><time>2026-04-26T11:32:27Z</time></trkpt><trkpt lat="44.14310680360008" lon="11.500404900776967"><ele>884.0</ele><time>2026-04-26T11:32:28Z</time></trkpt><trkpt lat="44.143086948747815" lon="11.500246177456443"><ele>884.0</ele><time>2026-04-26T11:32:29Z</time></trkpt><trkpt lat="44.143095799321486" lon="11.50009255046343"><ele>881.5</ele><time>2026-04-26T11:32:30Z</time></trkpt><trkpt lat="44.14308863780925" lon="11.499930045432494"><ele>879.0</ele><time>2026-04-26T11:32:31Z</time></trkpt><trkpt lat="44.14304861754925" lon="11.499761973294424"><ele>876.5</ele><time>2026-04-26T11:32:32Z</time></trkpt><trkpt lat="44.142984937687864" lon="11.499612600582486"><ele>874.0</ele><time>2026-04-26T11:32:33Z</time></trkpt><trkpt lat="44.142930637008824" lon="11.499482949833007"><ele>873.9999999999999</ele><time>2026-04-26T11:32:34Z</time></trkpt><trkpt lat="44.142878604533045" lon="11.499381390099055"><ele>874.0</ele><time>2026-04-26T11:32:35Z</time></trkpt><trkpt lat="44.142832159441255" lon="11.49930274188424"><ele>874.0</ele><time>2026-04-26T11:32:36Z</time></trkpt><trkpt lat="44.142785592716606" lon="11.499239127830123"><ele>874.0</ele><time>2026-04-26T11:32:37Z</time></trkpt><trkpt lat="44.142705682910496" lon="11.499192548596174"><ele>873.9999999999999</ele><time>2026-04-26T11:32:39Z</time></trkpt><trkpt lat="44.142634440116126" lon="11.499192644029273"><ele>874.0</ele><time>2026-04-26T11:32:43Z</time></trkpt><trkpt lat="44.14260984942008" lon="11.499301746543345"><ele>873.9999999999999</ele><time>2026-04-26T11:39:02Z</time></trkpt><trkpt lat="44.14260049993728" lon="11.499395741168712"><ele>874.0</ele><time>2026-04-26T11:39:04Z</time></trkpt><trkpt lat="44.142647292879936" lon="11.49955156525965"><ele>874.0</ele><time>2026-04-26T11:39:06Z</time></trkpt><trkpt lat="44.14270034839547" lon="11.499625419607732"><ele>874.0</ele><time>2026-04-26T11:39:07Z</time></trkpt><trkpt lat="44.14275166155459" lon="11.499697097620793"><ele>873.9999999999999</ele><time>2026-04-26T11:39:08Z</time></trkpt><trkpt lat="44.14279396744237" lon="11.499784797116604"><ele>874.0</ele><time>2026-04-26T11:39:09Z</time></trkpt><trkpt lat="44.142818540953726" lon="11.499890815633025"><ele>870.2</ele><time>2026-04-26T11:39:10Z</time></trkpt><trkpt lat="44.14282789168351" lon="11.500008054235783"><ele>866.4000000000001</ele><time>2026-04-26T11:39:11Z</time></trkpt><trkpt lat="44.14281839699914" lon="11.500137247675468"><ele>862.6</ele><time>2026-04-26T11:39:12Z</time></trkpt><trkpt lat="44.14278149646183" lon="11.500260042113968"><ele>858.8</ele><time>2026-04-26T11:39:13Z</time></trkpt><trkpt lat="44.14274732084256" lon="11.500397872202575"><ele>855.0</ele><time>2026-04-26T11:39:14Z</time></trkpt><trkpt lat="44.14271168857184" lon="11.50051975611558"><ele>854.4</ele><time>2026-04-26T11:39:15Z</time></trkpt><trkpt lat="44.1427403717545" lon="11.50065309984783"><ele>853.8</ele><time>2026-04-26T11:39:16Z</time></trkpt><trkpt lat="44.14277234099802" lon="11.5007757577407"><ele>853.2</ele><time>2026-04-26T11:39:17Z</time></trkpt><trkpt lat="44.14276466381452" lon="11.500891212952345"><ele>852.6</ele><time>2026-04-26T11:39:18Z</time></trkpt><trkpt lat="44.1427094160474" lon="11.500997782035538"><ele>852.0</ele><time>2026-04-26T11:39:19Z</time></trkpt><trkpt lat="44.14263521915883" lon="11.501076557032679"><ele>852.0</ele><time>2026-04-26T11:39:20Z</time></trkpt><trkpt lat="44.14254962319115" lon="11.50113210078631"><ele>852.0</ele><time>2026-04-26T11:39:21Z</time></trkpt><trkpt lat="44.14246509742785" lon="11.501200312218941"><ele>852.0</ele><time>2026-04-26T11:39:22Z</time></trkpt><trkpt lat="44.14240532804984" lon="11.501291676702643"><ele>852.0</ele><time>2026-04-26T11:39:23Z</time></trkpt><trkpt lat="44.142373246463755" lon="11.50139943979757"><ele>852.0</ele><time>2026-04-26T11:39:24Z</time></trkpt><trkpt lat="44.14235286773826" lon="11.501509556401816"><ele>852.0</ele><time>2026-04-26T11:39:25Z</time></trkpt><trkpt lat="44.14240364833153" lon="11.501625496748435"><ele>852.0</ele><time>2026-04-26T11:39:26Z</time></trkpt><trkpt lat="44.14245504223939" lon="11.501740951327621"><ele>852.0</ele><time>2026-04-26T11:39:27Z</time></trkpt><trkpt lat="44.142492568422455" lon="11.501879773814979"><ele>852.0</ele><time>2026-04-26T11:39:28Z</time></trkpt><trkpt lat="44.14253805889792" lon="11.502010905134439"><ele>852.0</ele><time>2026-04-26T11:39:29Z</time></trkpt><trkpt lat="44.14257637289865" lon="11.502132847609444"><ele>852.0</ele><time>2026-04-26T11:39:30Z</time></trkpt><trkpt lat="44.14256552072338" lon="11.502267117504138"><ele>851.2</ele><time>2026-04-26T11:39:31Z</time></trkpt><trkpt lat="44.14251830738342" lon="11.502392538618102"><ele>850.4000000000001</ele><time>2026-04-26T11:39:32Z</time></trkpt><trkpt lat="44.14243722966393" lon="11.502482894626825"><ele>849.5999999999999</ele><time>2026-04-26T11:39:33Z</time></trkpt><trkpt lat="44.142348877116746" lon="11.502550862963254"><ele>848.8</ele><time>2026-04-26T11:39:34Z</time></trkpt><trkpt lat="44.14227973039238" lon="11.502631734909261"><ele>848.0</ele><time>2026-04-26T11:39:35Z</time></trkpt><trkpt lat="44.14224175030767" lon="11.50273092099731"><ele>847.0</ele><time>2026-04-26T11:39:36Z</time></trkpt><trkpt lat="44.14222005278749" lon="11.50284526143258"><ele>846.0</ele><time>2026-04-26T11:39:37Z</time></trkpt><trkpt lat="44.14225818261589" lon="11.502975076591998"><ele>845.0</ele><time>2026-04-26T11:39:38Z</time></trkpt><trkpt lat="44.14234056386972" lon="11.50307642092736"><ele>844.0</ele><time>2026-04-26T11:39:39Z</time></trkpt><trkpt lat="44.14241557861781" lon="11.503177340885669"><ele>843.0</ele><time>2026-04-26T11:39:40Z</time></trkpt><trkpt lat="44.14249309841514" lon="11.503281509360265"><ele>843.0</ele><time>2026-04-26T11:39:41Z</time></trkpt><trkpt lat="44.142500228581135" lon="11.503442083079749"><ele>843.0</ele><time>2026-04-26T11:39:42Z</time></trkpt><trkpt lat="44.14250659931725" lon="11.503599460146877"><ele>843.0</ele><time>2026-04-26T11:39:43Z</time></trkpt><trkpt lat="44.14252268181616" lon="11.503773936555511"><ele>843.0</ele><time>2026-04-26T11:39:43.999Z</time></trkpt><trkpt lat="44.14254751755427" lon="11.503933385392363"><ele>842.0</ele><time>2026-04-26T11:39:44.999Z</time></trkpt><trkpt lat="44.1425677577091" lon="11.504072378665452"><ele>841.0</ele><time>2026-04-26T11:39:45.999Z</time></trkpt><trkpt lat="44.14256672202627" lon="11.504205909360142"><ele>840.0</ele><time>2026-04-26T11:39:46.999Z</time></trkpt><trkpt lat="44.14253019773391" lon="11.504313255091745"><ele>839.0</ele><time>2026-04-26T11:39:47.999Z</time></trkpt><trkpt lat="44.14246794619433" lon="11.504372468674108"><ele>838.0</ele><time>2026-04-26T11:39:48.999Z</time></trkpt><trkpt lat="44.14237848147066" lon="11.504369040737497"><ele>837.0</ele><time>2026-04-26T11:39:49.999Z</time></trkpt><trkpt lat="44.142306860047604" lon="11.504297816813141"><ele>830.4000000000001</ele><time>2026-04-26T11:39:50.999Z</time></trkpt><trkpt lat="44.14222756998927" lon="11.504272460630236"><ele>823.8000000000001</ele><time>2026-04-26T11:39:51.999Z</time></trkpt><trkpt lat="44.142127221825696" lon="11.504269750337933"><ele>817.2</ele><time>2026-04-26T11:39:52.999Z</time></trkpt><trkpt lat="44.14204445440065" lon="11.50434012085442"><ele>810.6</ele><time>2026-04-26T11:39:53.999Z</time></trkpt><trkpt lat="44.14197883232012" lon="11.504456821646146"><ele>804.0</ele><time>2026-04-26T11:39:54.999Z</time></trkpt><trkpt lat="44.14192404822045" lon="11.504558951863922"><ele>805.0</ele><time>2026-04-26T11:39:55.999Z</time></trkpt><trkpt lat="44.14189117706088" lon="11.50464847167924"><ele>806.0</ele><time>2026-04-26T11:39:56.999Z</time></trkpt><trkpt lat="44.1419035279538" lon="11.504756355666977"><ele>807.0</ele><time>2026-04-26T11:39:57.999Z</time></trkpt><trkpt lat="44.14195810775332" lon="11.504862454174503"><ele>808.0</ele><time>2026-04-26T11:39:58.999Z</time></trkpt><trkpt lat="44.142044871455326" lon="11.504927981788972"><ele>809.0</ele><time>2026-04-26T11:39:59.999Z</time></trkpt><trkpt lat="44.14212470307108" lon="11.505016575284683"><ele>810.0</ele><time>2026-04-26T11:40:00.999Z</time></trkpt><trkpt lat="44.14213632157003" lon="11.50517081294019"><ele>810.0</ele><time>2026-04-26T11:40:01.999Z</time></trkpt><trkpt lat="44.14210789123421" lon="11.50531218963906"><ele>810.0</ele><time>2026-04-26T11:40:03Z</time></trkpt><trkpt lat="44.142038455476005" lon="11.50542766856698"><ele>810.0</ele><time>2026-04-26T11:40:04Z</time></trkpt><trkpt lat="44.14197387455145" lon="11.505560454992132"><ele>810.0</ele><time>2026-04-26T11:40:05Z</time></trkpt><trkpt lat="44.1419583819197" lon="11.505718326566607"><ele>810.0</ele><time>2026-04-26T11:40:06Z</time></trkpt><trkpt lat="44.14195662128999" lon="11.505875669315701"><ele>810.0</ele><time>2026-04-26T11:40:07Z</time></trkpt><trkpt lat="44.14194363743834" lon="11.506015909842434"><ele>810.0</ele><time>2026-04-26T11:40:08Z</time></trkpt><trkpt lat="44.141893756521384" lon="11.506119810321627"><ele>810.0</ele><time>2026-04-26T11:40:09Z</time></trkpt><trkpt lat="44.1418168893239" lon="11.50618618372085"><ele>810.0</ele><time>2026-04-26T11:40:10Z</time></trkpt><trkpt lat="44.14171328085798" lon="11.506174842471346"><ele>810.0</ele><time>2026-04-26T11:40:11Z</time></trkpt><trkpt lat="44.14161031579055" lon="11.50622970613899"><ele>805.8</ele><time>2026-04-26T11:40:12Z</time></trkpt><trkpt lat="44.14150777652738" lon="11.506294508813223"><ele>801.6</ele><time>2026-04-26T11:40:13Z</time></trkpt><trkpt lat="44.14141276196877" lon="11.506382914882083"><ele>797.4000000000001</ele><time>2026-04-26T11:40:14Z</time></trkpt><trkpt lat="44.141334859586486" lon="11.506485101815006"><ele>793.2</ele><time>2026-04-26T11:40:15Z</time></trkpt><trkpt lat="44.14127458792184" lon="11.506599706419612"><ele>789.0</ele><time>2026-04-26T11:40:16Z</time></trkpt><trkpt lat="44.14123809357107" lon="11.506730946087485"><ele>789.0</ele><time>2026-04-26T11:40:17Z</time></trkpt><trkpt lat="44.141233244317256" lon="11.506877102135391"><ele>789.0</ele><time>2026-04-26T11:40:18Z</time></trkpt><trkpt lat="44.14124606655248" lon="11.507041225012589"><ele>789.0</ele><time>2026-04-26T11:40:19Z</time></trkpt><trkpt lat="44.14123445270438" lon="11.507215242224742"><ele>789.0</ele><time>2026-04-26T11:40:20Z</time></trkpt><trkpt lat="44.14123737675985" lon="11.507394206785062"><ele>787.25</ele><time>2026-04-26T11:40:21Z</time></trkpt><trkpt lat="44.141277270303725" lon="11.507573437535656"><ele>785.5</ele><time>2026-04-26T11:40:22Z</time></trkpt><trkpt lat="44.141325784808814" lon="11.5077516214566"><ele>783.75</ele><time>2026-04-26T11:40:23Z</time></trkpt><trkpt lat="44.14136551013764" lon="11.507931734845862"><ele>782.0</ele><time>2026-04-26T11:40:24Z</time></trkpt><trkpt lat="44.141416017467144" lon="11.508108138177963"><ele>781.0</ele><time>2026-04-26T11:40:25Z</time></trkpt><trkpt lat="44.141459377691085" lon="11.508266258987868"><ele>780.0</ele><time>2026-04-26T11:40:26Z</time></trkpt><trkpt lat="44.14149450985522" lon="11.508405748962222"><ele>779.0</ele><time>2026-04-26T11:40:27Z</time></trkpt><trkpt lat="44.1415232693574" lon="11.50853139828114"><ele>778.0</ele><time>2026-04-26T11:40:28Z</time></trkpt><trkpt lat="44.14153360638602" lon="11.508646904780559"><ele>777.0</ele><time>2026-04-26T11:40:29Z</time></trkpt><trkpt lat="44.14149881813717" lon="11.508747802421935"><ele>781.25</ele><time>2026-04-26T11:40:30Z</time></trkpt><trkpt lat="44.141429772829554" lon="11.508834484634002"><ele>785.5</ele><time>2026-04-26T11:40:31Z</time></trkpt><trkpt lat="44.14132441285366" lon="11.508862638202364"><ele>789.75</ele><time>2026-04-26T11:40:32Z</time></trkpt><trkpt lat="44.14120157033625" lon="11.508885725696885"><ele>794.0</ele><time>2026-04-26T11:40:33Z</time></trkpt><trkpt lat="44.141081350290094" lon="11.508964857895593"><ele>794.0</ele><time>2026-04-26T11:40:34Z</time></trkpt><trkpt lat="44.14094071580512" lon="11.509064006344483"><ele>794.0</ele><time>2026-04-26T11:40:35Z</time></trkpt><trkpt lat="44.14080187691762" lon="11.509207333619818"><ele>794.0</ele><time>2026-04-26T11:40:36Z</time></trkpt><trkpt lat="44.1406598869524" lon="11.509295505123761"><ele>790.6</ele><time>2026-04-26T11:40:37Z</time></trkpt><trkpt lat="44.140536016198574" lon="11.509393433329933"><ele>787.2</ele><time>2026-04-26T11:40:38Z</time></trkpt><trkpt lat="44.14043377002842" lon="11.509470331509739"><ele>783.8000000000001</ele><time>2026-04-26T11:40:39Z</time></trkpt><trkpt lat="44.14035157403052" lon="11.5095231794829"><ele>780.4000000000001</ele><time>2026-04-26T11:40:40Z</time></trkpt><trkpt lat="44.140283296756955" lon="11.50953513597697"><ele>777.0</ele><time>2026-04-26T11:40:41Z</time></trkpt><trkpt lat="44.140212820977744" lon="11.50952514683875"><ele>777.0</ele><time>2026-04-26T11:40:42Z</time></trkpt><trkpt lat="44.14015589360701" lon="11.509450386151848"><ele>777.0</ele><time>2026-04-26T11:40:43Z</time></trkpt><trkpt lat="44.140152599062844" lon="11.5093294312972"><ele>777.0</ele><time>2026-04-26T11:40:43.999Z</time></trkpt><trkpt lat="44.14021583740248" lon="11.509210636929888"><ele>777.0</ele><time>2026-04-26T11:40:44.999Z</time></trkpt><trkpt lat="44.14030309505734" lon="11.50917258589623"><ele>777.0</ele><time>2026-04-26T11:40:45.999Z</time></trkpt><trkpt lat="44.14041043237294" lon="11.509208676903961"><ele>777.0</ele><time>2026-04-26T11:40:46.999Z</time></trkpt><trkpt lat="44.14050692923843" lon="11.509171095035738"><ele>777.0</ele><time>2026-04-26T11:40:47.999Z</time></trkpt><trkpt lat="44.14059340173252" lon="11.50914822780131"><ele>777.0</ele><time>2026-04-26T11:40:48.999Z</time></trkpt><trkpt lat="44.14066021387553" lon="11.509086386833461"><ele>777.0</ele><time>2026-04-26T11:40:49.999Z</time></trkpt><trkpt lat="44.140701774644924" lon="11.50900289173501"><ele>777.0</ele><time>2026-04-26T11:40:50.999Z</time></trkpt><trkpt lat="44.14071114176388" lon="11.508881748523356"><ele>777.0</ele><time>2026-04-26T11:40:51.999Z</time></trkpt><trkpt lat="44.14064449869182" lon="11.508766100350067"><ele>777.0</ele><time>2026-04-26T11:40:52.999Z</time></trkpt><trkpt lat="44.14054684484119" lon="11.508708716905996"><ele>777.0</ele><time>2026-04-26T11:40:53.999Z</time></trkpt><trkpt lat="44.140435164962184" lon="11.508694239820102"><ele>777.0</ele><time>2026-04-26T11:40:54.999Z</time></trkpt><trkpt lat="44.14031980821884" lon="11.508745617400164"><ele>777.0</ele><time>2026-04-26T11:40:55.999Z</time></trkpt><trkpt lat="44.14021540056273" lon="11.50882438042277"><ele>777.0</ele><time>2026-04-26T11:40:56.999Z</time></trkpt><trkpt lat="44.140114552653195" lon="11.508913689358476"><ele>777.0</ele><time>2026-04-26T11:40:57.999Z</time></trkpt><trkpt lat="44.14002930201618" lon="11.509031385399197"><ele>777.0</ele><time>2026-04-26T11:40:58.999Z</time></trkpt><trkpt lat="44.13995012469546" lon="11.509149339104306"><ele>777.0</ele><time>2026-04-26T11:40:59.999Z</time></trkpt><trkpt lat="44.13983585929285" lon="11.50918787631305"><ele>771.0</ele><time>2026-04-26T11:41:00.999Z</time></trkpt><trkpt lat="44.139720055298035" lon="11.509240318281844"><ele>765.0</ele><time>2026-04-26T11:41:01.999Z</time></trkpt><trkpt lat="44.13959865164261" lon="11.509241747047882"><ele>759.0</ele><time>2026-04-26T11:41:02.999Z</time></trkpt><trkpt lat="44.139484532121955" lon="11.509266486127096"><ele>753.0</ele><time>2026-04-26T11:41:03.999Z</time></trkpt><trkpt lat="44.139385572326205" lon="11.509310662643696"><ele>753.0</ele><time>2026-04-26T11:41:04.999Z</time></trkpt><trkpt lat="44.13929977419478" lon="11.509407610256165"><ele>753.0</ele><time>2026-04-26T11:41:05.999Z</time></trkpt><trkpt lat="44.13923407012299" lon="11.509535780742713"><ele>753.0</ele><time>2026-04-26T11:41:06.999Z</time></trkpt><trkpt lat="44.13918299388212" lon="11.509681626363394"><ele>753.0</ele><time>2026-04-26T11:41:07.999Z</time></trkpt><trkpt lat="44.139135667501435" lon="11.509846673462159"><ele>755.25</ele><time>2026-04-26T11:41:08.999Z</time></trkpt><trkpt lat="44.1390737684088" lon="11.5100002684351"><ele>757.5</ele><time>2026-04-26T11:41:09.999Z</time></trkpt><trkpt lat="44.1389970886528" lon="11.510132350765103"><ele>759.75</ele><time>2026-04-26T11:41:10.999Z</time></trkpt><trkpt lat="44.138922624274386" lon="11.510252363559486"><ele>762.0</ele><time>2026-04-26T11:41:11.999Z</time></trkpt><trkpt lat="44.13885511031837" lon="11.5103661661659"><ele>752.25</ele><time>2026-04-26T11:41:12.999Z</time></trkpt><trkpt lat="44.13881873535676" lon="11.510494873772775"><ele>742.5</ele><time>2026-04-26T11:41:13.999Z</time></trkpt><trkpt lat="44.13882240136083" lon="11.510645414504838"><ele>732.75</ele><time>2026-04-26T11:41:14.999Z</time></trkpt><trkpt lat="44.1388628576879" lon="11.510808241996141"><ele>723.0</ele><time>2026-04-26T11:41:15.999Z</time></trkpt><trkpt lat="44.13890577802471" lon="11.510965438241069"><ele>723.0</ele><time>2026-04-26T11:41:16.999Z</time></trkpt><trkpt lat="44.13893868249222" lon="11.511125152644944"><ele>723.0</ele><time>2026-04-26T11:41:17.999Z</time></trkpt><trkpt lat="44.13896525301845" lon="11.511276504874653"><ele>723.0</ele><time>2026-04-26T11:41:18.999Z</time></trkpt><trkpt lat="44.13900788242765" lon="11.511393985203398"><ele>723.0</ele><time>2026-04-26T11:41:19.999Z</time></trkpt><trkpt lat="44.13908561665946" lon="11.511469552914594"><ele>723.0</ele><time>2026-04-26T11:41:20.999Z</time></trkpt><trkpt lat="44.13918967499675" lon="11.511505020055516"><ele>728.0</ele><time>2026-04-26T11:41:21.999Z</time></trkpt><trkpt lat="44.13928354609687" lon="11.51158703816686"><ele>733.0</ele><time>2026-04-26T11:41:22.999Z</time></trkpt><trkpt lat="44.13938442373373" lon="11.51164865679049"><ele>738.0</ele><time>2026-04-26T11:41:23.999Z</time></trkpt><trkpt lat="44.13954444801539" lon="11.511500355722593"><ele>743.0</ele><time>2026-04-26T11:41:24.999Z</time></trkpt><trkpt lat="44.139660367057864" lon="11.511507613725291"><ele>743.0</ele><time>2026-04-26T11:41:25.999Z</time></trkpt><trkpt lat="44.13976288136597" lon="11.511543532377829"><ele>743.0</ele><time>2026-04-26T11:41:26.999Z</time></trkpt><trkpt lat="44.13985711448088" lon="11.511572807263967"><ele>743.0</ele><time>2026-04-26T11:41:27.999Z</time></trkpt><trkpt lat="44.13994159680986" lon="11.511606290146664"><ele>743.0</ele><time>2026-04-26T11:41:28.999Z</time></trkpt><trkpt lat="44.140012062741455" lon="11.511666151195387"><ele>743.0</ele><time>2026-04-26T11:41:29.999Z</time></trkpt><trkpt lat="44.140046833326736" lon="11.51177021827333"><ele>743.0</ele><time>2026-04-26T11:41:30.999Z</time></trkpt><trkpt lat="44.14005027052393" lon="11.511876530321949"><ele>743.0</ele><time>2026-04-26T11:41:31.999Z</time></trkpt><trkpt lat="44.14001686769479" lon="11.511961879740094"><ele>743.0</ele><time>2026-04-26T11:41:32.999Z</time></trkpt><trkpt lat="44.13994729236143" lon="11.511998605654174"><ele>743.0</ele><time>2026-04-26T11:41:33.999Z</time></trkpt><trkpt lat="44.13984965531404" lon="11.51199116583572"><ele>743.0</ele><time>2026-04-26T11:41:34.999Z</time></trkpt><trkpt lat="44.13974979603528" lon="11.511975371915911"><ele>743.0</ele><time>2026-04-26T11:41:35.999Z</time></trkpt><trkpt lat="44.13965124771769" lon="11.512016382054082"><ele>740.0</ele><time>2026-04-26T11:41:36.999Z</time></trkpt><trkpt lat="44.13956464546636" lon="11.512115361442232"><ele>737.0</ele><time>2026-04-26T11:41:37.999Z</time></trkpt><trkpt lat="44.13948457989726" lon="11.512262624084396"><ele>734.0</ele><time>2026-04-26T11:41:38.999Z</time></trkpt><trkpt lat="44.1394010700869" lon="11.512368575329182"><ele>731.0</ele><time>2026-04-26T11:41:39.999Z</time></trkpt><trkpt lat="44.13928709911928" lon="11.5124595314749"><ele>731.0</ele><time>2026-04-26T11:41:40.999Z</time></trkpt><trkpt lat="44.139180189632924" lon="11.512550918406474"><ele>731.0</ele><time>2026-04-26T11:41:41.999Z</time></trkpt><trkpt lat="44.13910200960291" lon="11.512642217156438"><ele>731.0</ele><time>2026-04-26T11:41:42.999Z</time></trkpt><trkpt lat="44.139059802636446" lon="11.512746335823602"><ele>731.0</ele><time>2026-04-26T11:41:43.999Z</time></trkpt><trkpt lat="44.1390443935663" lon="11.512895412469536"><ele>731.0</ele><time>2026-04-26T11:41:44.999Z</time></trkpt><trkpt lat="44.139057310316375" lon="11.513063544543245"><ele>731.0</ele><time>2026-04-26T11:41:45.999Z</time></trkpt><trkpt lat="44.13907022920418" lon="11.513240127600525"><ele>731.0</ele><time>2026-04-26T11:41:46.999Z</time></trkpt><trkpt lat="44.1390869444933" lon="11.513420973038093"><ele>731.0</ele><time>2026-04-26T11:41:47.999Z</time></trkpt><trkpt lat="44.139110241461616" lon="11.513608310309655"><ele>731.0</ele><time>2026-04-26T11:41:48.999Z</time></trkpt><trkpt lat="44.139134293411246" lon="11.513789930778096"><ele>731.0</ele><time>2026-04-26T11:41:49.999Z</time></trkpt><trkpt lat="44.139148086444294" lon="11.513956648114235"><ele>731.0</ele><time>2026-04-26T11:41:50.999Z</time></trkpt><trkpt lat="44.13915751391383" lon="11.51411315546331"><ele>731.0</ele><time>2026-04-26T11:41:51.999Z</time></trkpt><trkpt lat="44.139147406571844" lon="11.514266915202374"><ele>731.0</ele><time>2026-04-26T11:41:52.999Z</time></trkpt><trkpt lat="44.13909231855272" lon="11.514410388699389"><ele>732.1999999999999</ele><time>2026-04-26T11:41:53.999Z</time></trkpt><trkpt lat="44.13899510242307" lon="11.514537571836067"><ele>733.4</ele><time>2026-04-26T11:41:54.999Z</time></trkpt><trkpt lat="44.138929330337916" lon="11.514601629846863"><ele>734.6</ele><time>2026-04-26T11:41:55.999Z</time></trkpt><trkpt lat="44.13882926808924" lon="11.514605724138786"><ele>735.8</ele><time>2026-04-26T11:41:56.999Z</time></trkpt><trkpt lat="44.13872331723988" lon="11.51456486712387"><ele>737.0</ele><time>2026-04-26T11:41:57.999Z</time></trkpt><trkpt lat="44.138618164091795" lon="11.51448437682881"><ele>737.0</ele><time>2026-04-26T11:41:58.999Z</time></trkpt><trkpt lat="44.13852318069492" lon="11.514366438578495"><ele>737.0</ele><time>2026-04-26T11:41:59.999Z</time></trkpt><trkpt lat="44.13844545518097" lon="11.514227806292546"><ele>737.0</ele><time>2026-04-26T11:42:00.999Z</time></trkpt><trkpt lat="44.13838260212591" lon="11.51408161306971"><ele>737.0</ele><time>2026-04-26T11:42:01.999Z</time></trkpt><trkpt lat="44.1383359726545" lon="11.513909120853256"><ele>732.25</ele><time>2026-04-26T11:42:02.999Z</time></trkpt><trkpt lat="44.138322329914374" lon="11.513731541305084"><ele>727.5</ele><time>2026-04-26T11:42:03.999Z</time></trkpt><trkpt lat="44.13831904775379" lon="11.513561023905028"><ele>722.75</ele><time>2026-04-26T11:42:04.999Z</time></trkpt><trkpt lat="44.138297161217494" lon="11.513409741907449"><ele>718.0</ele><time>2026-04-26T11:42:05.999Z</time></trkpt><trkpt lat="44.13825029332242" lon="11.51329272867733"><ele>722.2</ele><time>2026-04-26T11:42:06.999Z</time></trkpt><trkpt lat="44.138183477045224" lon="11.513225956049927"><ele>726.4</ele><time>2026-04-26T11:42:07.999Z</time></trkpt><trkpt lat="44.13809120824058" lon="11.513198737519435"><ele>730.6</ele><time>2026-04-26T11:42:08.999Z</time></trkpt><trkpt lat="44.13798723837805" lon="11.513206698680179"><ele>734.8000000000001</ele><time>2026-04-26T11:42:09.999Z</time></trkpt><trkpt lat="44.13787315236413" lon="11.513223015892432"><ele>739.0</ele><time>2026-04-26T11:42:10.999Z</time></trkpt><trkpt lat="44.137765541274376" lon="11.51319687741511"><ele>739.0</ele><time>2026-04-26T11:42:11.999Z</time></trkpt><trkpt lat="44.137665876609766" lon="11.513130822272288"><ele>739.0</ele><time>2026-04-26T11:42:12.999Z</time></trkpt><trkpt lat="44.13757563704684" lon="11.513021128966972"><ele>739.0</ele><time>2026-04-26T11:42:13.999Z</time></trkpt><trkpt lat="44.13751791124049" lon="11.51287225782142"><ele>739.0</ele><time>2026-04-26T11:42:14.999Z</time></trkpt><trkpt lat="44.13747888873696" lon="11.512705633612985"><ele>740.5</ele><time>2026-04-26T11:42:15.999Z</time></trkpt><trkpt lat="44.13743007253564" lon="11.51253354145167"><ele>742.0</ele><time>2026-04-26T11:42:16.999Z</time></trkpt><trkpt lat="44.13736027634439" lon="11.512364941051926"><ele>743.5</ele><time>2026-04-26T11:42:17.999Z</time></trkpt><trkpt lat="44.13728282274643" lon="11.512195732883187"><ele>745.0</ele><time>2026-04-26T11:42:18.999Z</time></trkpt><trkpt lat="44.13722992318917" lon="11.51199977373251"><ele>740.0</ele><time>2026-04-26T11:42:19.999Z</time></trkpt><trkpt lat="44.13716678316106" lon="11.511823124095969"><ele>735.0</ele><time>2026-04-26T11:42:20.999Z</time></trkpt><trkpt lat="44.1370918797986" lon="11.511666375424168"><ele>730.0</ele><time>2026-04-26T11:42:21.999Z</time></trkpt><trkpt lat="44.13701840495331" lon="11.511509667534483"><ele>725.0</ele><time>2026-04-26T11:42:22.999Z</time></trkpt><trkpt lat="44.13693748821902" lon="11.511356727778479"><ele>723.75</ele><time>2026-04-26T11:42:24Z</time></trkpt><trkpt lat="44.136845338935835" lon="11.51121233491927"><ele>722.5</ele><time>2026-04-26T11:42:25Z</time></trkpt><trkpt lat="44.136735509091146" lon="11.511071362852837"><ele>721.25</ele><time>2026-04-26T11:42:26Z</time></trkpt><trkpt lat="44.13662074791699" lon="11.510929247910736"><ele>720.0</ele><time>2026-04-26T11:42:27Z</time></trkpt><trkpt lat="44.13651409834816" lon="11.51079106205168"><ele>720.0</ele><time>2026-04-26T11:42:28Z</time></trkpt><trkpt lat="44.13641571079753" lon="11.510661888848212"><ele>720.0</ele><time>2026-04-26T11:42:29Z</time></trkpt><trkpt lat="44.136319530433646" lon="11.51053831530661"><ele>720.0</ele><time>2026-04-26T11:42:30Z</time></trkpt><trkpt lat="44.13622633262118" lon="11.51042491143382"><ele>720.0</ele><time>2026-04-26T11:42:31Z</time></trkpt><trkpt lat="44.136147585253056" lon="11.510314422363246"><ele>715.6</ele><time>2026-04-26T11:42:32Z</time></trkpt><trkpt lat="44.1360917467426" lon="11.51018557539139"><ele>711.2</ele><time>2026-04-26T11:42:33Z</time></trkpt><trkpt lat="44.13604629285038" lon="11.510058906940728"><ele>706.8</ele><time>2026-04-26T11:42:34Z</time></trkpt><trkpt lat="44.13599305608732" lon="11.509925319099981"><ele>702.4</ele><time>2026-04-26T11:42:35Z</time></trkpt><trkpt lat="44.13593215220429" lon="11.509829792216264"><ele>698.0</ele><time>2026-04-26T11:42:36Z</time></trkpt><trkpt lat="44.13583844807291" lon="11.509768278677052"><ele>698.0</ele><time>2026-04-26T11:42:37Z</time></trkpt><trkpt lat="44.13573290866106" lon="11.509710509211653"><ele>698.0</ele><time>2026-04-26T11:42:38Z</time></trkpt><trkpt lat="44.13562867843157" lon="11.509644691660045"><ele>698.0</ele><time>2026-04-26T11:42:39Z</time></trkpt><trkpt lat="44.13553001944558" lon="11.509592083865908"><ele>698.0</ele><time>2026-04-26T11:42:40Z</time></trkpt><trkpt lat="44.13543932689701" lon="11.509579023180804"><ele>698.0</ele><time>2026-04-26T11:42:41Z</time></trkpt><trkpt lat="44.13533109201776" lon="11.50963154057541"><ele>695.25</ele><time>2026-04-26T11:42:42Z</time></trkpt><trkpt lat="44.13522498613462" lon="11.509717650683276"><ele>692.5</ele><time>2026-04-26T11:42:43Z</time></trkpt><trkpt lat="44.135117260341325" lon="11.509823865348185"><ele>689.75</ele><time>2026-04-26T11:42:44Z</time></trkpt><trkpt lat="44.13500170925689" lon="11.509914555610171"><ele>687.0</ele><time>2026-04-26T11:42:45Z</time></trkpt><trkpt lat="44.134880144531515" lon="11.509988712738863"><ele>687.0</ele><time>2026-04-26T11:42:46Z</time></trkpt><trkpt lat="44.13475890114383" lon="11.510058716539577"><ele>687.0</ele><time>2026-04-26T11:42:47Z</time></trkpt><trkpt lat="44.13465340718191" lon="11.510162881613349"><ele>687.0</ele><time>2026-04-26T11:42:48Z</time></trkpt><trkpt lat="44.134565864161424" lon="11.510302794318596"><ele>687.0</ele><time>2026-04-26T11:42:49Z</time></trkpt><trkpt lat="44.13449739966444" lon="11.510465847231266"><ele>687.0</ele><time>2026-04-26T11:42:50Z</time></trkpt><trkpt lat="44.13443030193953" lon="11.510629303343075"><ele>687.0</ele><time>2026-04-26T11:42:51Z</time></trkpt><trkpt lat="44.13434336452538" lon="11.510767662245039"><ele>687.0</ele><time>2026-04-26T11:42:51.999Z</time></trkpt><trkpt lat="44.134244869529795" lon="11.510878935550043"><ele>687.0</ele><time>2026-04-26T11:42:52.999Z</time></trkpt><trkpt lat="44.134154827241304" lon="11.510977258703722"><ele>687.0</ele><time>2026-04-26T11:42:53.999Z</time></trkpt><trkpt lat="44.13407465039712" lon="11.511062269253722"><ele>687.0</ele><time>2026-04-26T11:42:54.999Z</time></trkpt><trkpt lat="44.13398612204749" lon="11.511124839823127"><ele>687.0</ele><time>2026-04-26T11:42:55.999Z</time></trkpt><trkpt lat="44.13389318946751" lon="11.511140792277509"><ele>687.0</ele><time>2026-04-26T11:42:56.999Z</time></trkpt><trkpt lat="44.13379576934879" lon="11.511087659527378"><ele>687.0</ele><time>2026-04-26T11:42:57.999Z</time></trkpt><trkpt lat="44.13370605733322" lon="11.510987325141437"><ele>688.0</ele><time>2026-04-26T11:42:58.999Z</time></trkpt><trkpt lat="44.13361103566559" lon="11.51087365282931"><ele>689.0</ele><time>2026-04-26T11:42:59.999Z</time></trkpt><trkpt lat="44.133507709946066" lon="11.510764069469632"><ele>690.0</ele><time>2026-04-26T11:43:00.999Z</time></trkpt><trkpt lat="44.13340034109005" lon="11.510669665701016"><ele>691.0</ele><time>2026-04-26T11:43:01.999Z</time></trkpt><trkpt lat="44.133299214832185" lon="11.51059516184603"><ele>693.8</ele><time>2026-04-26T11:43:02.999Z</time></trkpt><trkpt lat="44.13320218732165" lon="11.510566591911576"><ele>696.5999999999999</ele><time>2026-04-26T11:43:03.999Z</time></trkpt><trkpt lat="44.133095905590565" lon="11.510528284520776"><ele>699.4</ele><time>2026-04-26T11:43:04.999Z</time></trkpt><trkpt lat="44.13301264707762" lon="11.510427164149181"><ele>702.2</ele><time>2026-04-26T11:43:05.999Z</time></trkpt><trkpt lat="44.13297218443894" lon="11.510330598683417"><ele>705.0</ele><time>2026-04-26T11:43:06.999Z</time></trkpt><trkpt lat="44.132926286752884" lon="11.510155984670947"><ele>697.25</ele><time>2026-04-26T11:43:07.999Z</time></trkpt><trkpt lat="44.132862964310945" lon="11.510038586101187"><ele>689.5</ele><time>2026-04-26T11:43:08.999Z</time></trkpt><trkpt lat="44.132776140827865" lon="11.509950952810849"><ele>681.75</ele><time>2026-04-26T11:43:09.999Z</time></trkpt><trkpt lat="44.13266394563701" lon="11.50989234564495"><ele>674.0</ele><time>2026-04-26T11:43:10.999Z</time></trkpt><trkpt lat="44.13256130516754" lon="11.509803060056415"><ele>674.0</ele><time>2026-04-26T11:43:11.999Z</time></trkpt><trkpt lat="44.13247911567279" lon="11.509680803026757"><ele>674.0</ele><time>2026-04-26T11:43:12.999Z</time></trkpt><trkpt lat="44.13240168573332" lon="11.509594621160238"><ele>674.0</ele><time>2026-04-26T11:43:13.999Z</time></trkpt><trkpt lat="44.1322988753137" lon="11.50958013638849"><ele>674.0</ele><time>2026-04-26T11:43:14.999Z</time></trkpt><trkpt lat="44.132185755119394" lon="11.509581483688217"><ele>674.0</ele><time>2026-04-26T11:43:15.999Z</time></trkpt><trkpt lat="44.132072810869204" lon="11.509586503690167"><ele>671.0</ele><time>2026-04-26T11:43:16.999Z</time></trkpt><trkpt lat="44.13197603028952" lon="11.509607577936253"><ele>668.0</ele><time>2026-04-26T11:43:17.999Z</time></trkpt><trkpt lat="44.131896303603746" lon="11.509691611808728"><ele>665.0</ele><time>2026-04-26T11:43:18.999Z</time></trkpt><trkpt lat="44.13182599104844" lon="11.509822663171033"><ele>662.0</ele><time>2026-04-26T11:43:19.999Z</time></trkpt><trkpt lat="44.13175948841093" lon="11.509961125446067"><ele>659.0</ele><time>2026-04-26T11:43:20.999Z</time></trkpt><trkpt lat="44.13168086038456" lon="11.510084722433591"><ele>659.0</ele><time>2026-04-26T11:43:21.999Z</time></trkpt><trkpt lat="44.13158363824886" lon="11.510186069513283"><ele>659.0</ele><time>2026-04-26T11:43:22.999Z</time></trkpt><trkpt lat="44.13146878235036" lon="11.51023344328716"><ele>659.0</ele><time>2026-04-26T11:43:23.999Z</time></trkpt><trkpt lat="44.131348137454125" lon="11.510233177941714"><ele>659.0</ele><time>2026-04-26T11:43:24.999Z</time></trkpt><trkpt lat="44.131239501834315" lon="11.510210473144872"><ele>657.6</ele><time>2026-04-26T11:43:25.999Z</time></trkpt><trkpt lat="44.13114714103052" lon="11.510205702652645"><ele>656.2</ele><time>2026-04-26T11:43:26.999Z</time></trkpt><trkpt lat="44.131068973360485" lon="11.51025668289686"><ele>654.8000000000001</ele><time>2026-04-26T11:43:27.999Z</time></trkpt><trkpt lat="44.13100131758918" lon="11.51036348199008"><ele>653.4000000000001</ele><time>2026-04-26T11:43:28.999Z</time></trkpt><trkpt lat="44.130928207233474" lon="11.510498415373968"><ele>652.0</ele><time>2026-04-26T11:43:29.999Z</time></trkpt><trkpt lat="44.130845126877254" lon="11.510633465162913"><ele>652.0</ele><time>2026-04-26T11:43:30.999Z</time></trkpt><trkpt lat="44.130760902277046" lon="11.510772207726681"><ele>652.0</ele><time>2026-04-26T11:43:31.999Z</time></trkpt><trkpt lat="44.13067853899983" lon="11.510918890444579"><ele>652.0</ele><time>2026-04-26T11:43:32.999Z</time></trkpt><trkpt lat="44.13059726265052" lon="11.511070851266187"><ele>652.0</ele><time>2026-04-26T11:43:33.999Z</time></trkpt><trkpt lat="44.130518196534645" lon="11.511231091692345"><ele>647.25</ele><time>2026-04-26T11:43:34.999Z</time></trkpt><trkpt lat="44.1304542127591" lon="11.5114046187482"><ele>642.5</ele><time>2026-04-26T11:43:35.999Z</time></trkpt><trkpt lat="44.13038779583003" lon="11.511573305105458"><ele>637.75</ele><time>2026-04-26T11:43:36.999Z</time></trkpt><trkpt lat="44.13029227462161" lon="11.511719844213847"><ele>633.0</ele><time>2026-04-26T11:43:37.999Z</time></trkpt><trkpt lat="44.13017751113873" lon="11.511851174736455"><ele>633.0</ele><time>2026-04-26T11:43:38.999Z</time></trkpt><trkpt lat="44.130061807543576" lon="11.511980478509837"><ele>633.0</ele><time>2026-04-26T11:43:39.999Z</time></trkpt><trkpt lat="44.12994513340553" lon="11.512105672605255"><ele>633.0</ele><time>2026-04-26T11:43:40.999Z</time></trkpt><trkpt lat="44.1298286812008" lon="11.512220780175902"><ele>633.0</ele><time>2026-04-26T11:43:41.999Z</time></trkpt><trkpt lat="44.129716984502515" lon="11.512324125646177"><ele>630.75</ele><time>2026-04-26T11:43:42.999Z</time></trkpt><trkpt lat="44.12959862035948" lon="11.512404441761024"><ele>628.5</ele><time>2026-04-26T11:43:43.999Z</time></trkpt><trkpt lat="44.1294665415227" lon="11.512414196443824"><ele>626.25</ele><time>2026-04-26T11:43:44.999Z</time></trkpt><trkpt lat="44.12934568842475" lon="11.512464677104564"><ele>624.0</ele><time>2026-04-26T11:43:45.999Z</time></trkpt><trkpt lat="44.12922368161252" lon="11.512506508260241"><ele>624.0</ele><time>2026-04-26T11:43:46.999Z</time></trkpt><trkpt lat="44.129107126461044" lon="11.512580786424378"><ele>624.0</ele><time>2026-04-26T11:43:47.999Z</time></trkpt><trkpt lat="44.1289969253009" lon="11.512684129224292"><ele>624.0</ele><time>2026-04-26T11:43:48.999Z</time></trkpt><trkpt lat="44.12889926242234" lon="11.512806038415428"><ele>624.0</ele><time>2026-04-26T11:43:49.999Z</time></trkpt><trkpt lat="44.1288164752289" lon="11.512937521245888"><ele>619.6</ele><time>2026-04-26T11:43:50.999Z</time></trkpt><trkpt lat="44.12875816830404" lon="11.51306894252457"><ele>615.2</ele><time>2026-04-26T11:43:51.999Z</time></trkpt><trkpt lat="44.1287100440031" lon="11.513184170495904"><ele>610.8000000000001</ele><time>2026-04-26T11:43:52.999Z</time></trkpt><trkpt lat="44.128682706207115" lon="11.513294302925956"><ele>606.4</ele><time>2026-04-26T11:43:53.999Z</time></trkpt><trkpt lat="44.12869697479671" lon="11.513411362497148"><ele>602.0</ele><time>2026-04-26T11:43:54.999Z</time></trkpt><trkpt lat="44.12875089695176" lon="11.513525792961959"><ele>602.0</ele><time>2026-04-26T11:43:55.999Z</time></trkpt><trkpt lat="44.12882232421055" lon="11.5136344351759"><ele>602.0</ele><time>2026-04-26T11:43:56.999Z</time></trkpt><trkpt lat="44.128843511030894" lon="11.513758009837705"><ele>602.0</ele><time>2026-04-26T11:43:57.999Z</time></trkpt><trkpt lat="44.12876731369133" lon="11.513865755072068"><ele>602.0</ele><time>2026-04-26T11:43:58.999Z</time></trkpt><trkpt lat="44.12873335612387" lon="11.513987472223002"><ele>602.0</ele><time>2026-04-26T11:43:59.999Z</time></trkpt><trkpt lat="44.12870739456688" lon="11.514089144596083"><ele>601.25</ele><time>2026-04-26T11:44:00.999Z</time></trkpt><trkpt lat="44.12872296017655" lon="11.514204203134156"><ele>600.5</ele><time>2026-04-26T11:44:01.999Z</time></trkpt><trkpt lat="44.128828781532185" lon="11.514291992163256"><ele>599.75</ele><time>2026-04-26T11:44:02.999Z</time></trkpt><trkpt lat="44.12895350723874" lon="11.51433399206151"><ele>599.0</ele><time>2026-04-26T11:44:03.999Z</time></trkpt><trkpt lat="44.12908369210925" lon="11.514359785818941"><ele>601.0</ele><time>2026-04-26T11:44:04.999Z</time></trkpt><trkpt lat="44.129198366353016" lon="11.514412349770371"><ele>603.0</ele><time>2026-04-26T11:44:05.999Z</time></trkpt><trkpt lat="44.129304950226455" lon="11.514442876261795"><ele>605.0</ele><time>2026-04-26T11:44:06.999Z</time></trkpt><trkpt lat="44.12939987705348" lon="11.514497202498807"><ele>607.0</ele><time>2026-04-26T11:44:07.999Z</time></trkpt><trkpt lat="44.129461017299874" lon="11.514554568240287"><ele>609.0</ele><time>2026-04-26T11:44:08.999Z</time></trkpt><trkpt lat="44.12949321527592" lon="11.514749513815145"><ele>609.0</ele><time>2026-04-26T11:44:09.999Z</time></trkpt><trkpt lat="44.129471651000685" lon="11.514901613410384"><ele>609.0</ele><time>2026-04-26T11:44:10.999Z</time></trkpt><trkpt lat="44.12941927508838" lon="11.515065094394306"><ele>609.0</ele><time>2026-04-26T11:44:11.999Z</time></trkpt><trkpt lat="44.12933918311285" lon="11.515227965154908"><ele>609.0</ele><time>2026-04-26T11:44:12.999Z</time></trkpt><trkpt lat="44.129257915639556" lon="11.51538278557246"><ele>608.5</ele><time>2026-04-26T11:44:13.999Z</time></trkpt><trkpt lat="44.129195878772094" lon="11.5155383297503"><ele>608.0</ele><time>2026-04-26T11:44:15Z</time></trkpt><trkpt lat="44.129145615475316" lon="11.515678802531777"><ele>607.5</ele><time>2026-04-26T11:44:16Z</time></trkpt><trkpt lat="44.12912543024138" lon="11.51583194975499"><ele>607.0</ele><time>2026-04-26T11:44:17Z</time></trkpt><trkpt lat="44.129133795191926" lon="11.516017522565129"><ele>607.0</ele><time>2026-04-26T11:44:18Z</time></trkpt><trkpt lat="44.129152617609726" lon="11.516201762525732"><ele>607.0</ele><time>2026-04-26T11:44:19Z</time></trkpt><trkpt lat="44.12914813007738" lon="11.516385685116756"><ele>607.0</ele><time>2026-04-26T11:44:20Z</time></trkpt><trkpt lat="44.129114929876145" lon="11.516565253864206"><ele>607.0</ele><time>2026-04-26T11:44:21Z</time></trkpt><trkpt lat="44.129045236284796" lon="11.516731934535366"><ele>598.75</ele><time>2026-04-26T11:44:22Z</time></trkpt><trkpt lat="44.12896077438292" lon="11.51689768586695"><ele>590.5</ele><time>2026-04-26T11:44:23Z</time></trkpt><trkpt lat="44.12887204505253" lon="11.517034765642752"><ele>582.25</ele><time>2026-04-26T11:44:24Z</time></trkpt><trkpt lat="44.12878586794978" lon="11.517142330700466"><ele>574.0</ele><time>2026-04-26T11:44:25Z</time></trkpt><trkpt lat="44.128708451041476" lon="11.517243979103803"><ele>574.0</ele><time>2026-04-26T11:44:26Z</time></trkpt><trkpt lat="44.12865426634589" lon="11.517334290462493"><ele>574.0</ele><time>2026-04-26T11:44:27Z</time></trkpt><trkpt lat="44.12861400811454" lon="11.517408449607336"><ele>574.0</ele><time>2026-04-26T11:44:28Z</time></trkpt><trkpt lat="44.128619548958646" lon="11.51751040489959"><ele>574.0</ele><time>2026-04-26T11:44:29Z</time></trkpt><trkpt lat="44.128674982972335" lon="11.517617450204474"><ele>574.0</ele><time>2026-04-26T11:44:30Z</time></trkpt><trkpt lat="44.128764990362356" lon="11.517700375034893"><ele>574.0</ele><time>2026-04-26T11:44:31Z</time></trkpt><trkpt lat="44.12887687731251" lon="11.517769299520436"><ele>574.0</ele><time>2026-04-26T11:44:32Z</time></trkpt><trkpt lat="44.128999468088395" lon="11.517829112625897"><ele>574.0</ele><time>2026-04-26T11:44:33Z</time></trkpt><trkpt lat="44.12912701255158" lon="11.517878722114748"><ele>574.0</ele><time>2026-04-26T11:44:34Z</time></trkpt><trkpt lat="44.12926196206441" lon="11.517949741561338"><ele>574.0</ele><time>2026-04-26T11:44:35Z</time></trkpt><trkpt lat="44.12939541226517" lon="11.5179929632586"><ele>576.2</ele><time>2026-04-26T11:44:36Z</time></trkpt><trkpt lat="44.12951704880089" lon="11.51802349010099"><ele>578.4</ele><time>2026-04-26T11:44:37Z</time></trkpt><trkpt lat="44.12961954747016" lon="11.518045053273555"><ele>580.6</ele><time>2026-04-26T11:44:38Z</time></trkpt><trkpt lat="44.12970713114429" lon="11.51807527567478"><ele>582.8</ele><time>2026-04-26T11:44:39Z</time></trkpt><trkpt lat="44.1297436865273" lon="11.518148136295682"><ele>585.0</ele><time>2026-04-26T11:44:40Z</time></trkpt><trkpt lat="44.129706124584125" lon="11.51831638224368"><ele>585.0</ele><time>2026-04-26T11:44:42Z</time></trkpt><trkpt lat="44.12967448831369" lon="11.518418834521192"><ele>585.0</ele><time>2026-04-26T11:44:43Z</time></trkpt><trkpt lat="44.129643549211174" lon="11.51854684813428"><ele>585.0</ele><time>2026-04-26T11:44:44Z</time></trkpt><trkpt lat="44.12961685040585" lon="11.518688678941817"><ele>585.0</ele><time>2026-04-26T11:44:45Z</time></trkpt><trkpt lat="44.12959298194783" lon="11.518802795641294"><ele>585.0</ele><time>2026-04-26T11:44:46Z</time></trkpt><trkpt lat="44.129559301939274" lon="11.518884304136925"><ele>585.0</ele><time>2026-04-26T11:44:47Z</time></trkpt><trkpt lat="44.129479302841936" lon="11.518908457220444"><ele>585.0</ele><time>2026-04-26T11:44:48Z</time></trkpt><trkpt lat="44.1293903625253" lon="11.51885391327168"><ele>585.0</ele><time>2026-04-26T11:44:49Z</time></trkpt><trkpt lat="44.12928240432594" lon="11.518827258753689"><ele>585.0</ele><time>2026-04-26T11:44:50Z</time></trkpt><trkpt lat="44.129181074518264" lon="11.518781547042494"><ele>585.0</ele><time>2026-04-26T11:44:51Z</time></trkpt><trkpt lat="44.12908501728954" lon="11.518800177839179"><ele>585.0</ele><time>2026-04-26T11:44:52Z</time></trkpt><trkpt lat="44.12900020491501" lon="11.5188754993915"><ele>585.0</ele><time>2026-04-26T11:44:53Z</time></trkpt><trkpt lat="44.12891324110272" lon="11.519003310258391"><ele>585.0</ele><time>2026-04-26T11:44:54Z</time></trkpt><trkpt lat="44.12882050879868" lon="11.519123464975829"><ele>585.0</ele><time>2026-04-26T11:44:55Z</time></trkpt><trkpt lat="44.12870747620939" lon="11.51921069812745"><ele>585.0</ele><time>2026-04-26T11:44:56Z</time></trkpt><trkpt lat="44.12858361379543" lon="11.519242724070756"><ele>585.0</ele><time>2026-04-26T11:44:57Z</time></trkpt><trkpt lat="44.12846414273345" lon="11.519289340399302"><ele>585.0</ele><time>2026-04-26T11:44:58Z</time></trkpt><trkpt lat="44.128331699321016" lon="11.51927801891271"><ele>585.0</ele><time>2026-04-26T11:44:59Z</time></trkpt><trkpt lat="44.128209310137265" lon="11.51927302132962"><ele>585.0</ele><time>2026-04-26T11:45:00Z</time></trkpt><trkpt lat="44.12809648882609" lon="11.519236347155468"><ele>584.8</ele><time>2026-04-26T11:45:01Z</time></trkpt><trkpt lat="44.12800724927006" lon="11.519155677644285"><ele>584.6</ele><time>2026-04-26T11:45:02Z</time></trkpt><trkpt lat="44.127929514822384" lon="11.519059917440053"><ele>584.4</ele><time>2026-04-26T11:45:03Z</time></trkpt><trkpt lat="44.12784328730712" lon="11.518992497378282"><ele>584.2</ele><time>2026-04-26T11:45:04Z</time></trkpt><trkpt lat="44.12773365580182" lon="11.518969537288905"><ele>584.0</ele><time>2026-04-26T11:45:05Z</time></trkpt><trkpt lat="44.12761198520998" lon="11.518985291833406"><ele>584.0</ele><time>2026-04-26T11:45:06Z</time></trkpt><trkpt lat="44.127491135553335" lon="11.519026373302284"><ele>584.0</ele><time>2026-04-26T11:45:07Z</time></trkpt><trkpt lat="44.12736788916715" lon="11.519088522273316"><ele>584.0</ele><time>2026-04-26T11:45:08Z</time></trkpt><trkpt lat="44.127240290831175" lon="11.519148216592308"><ele>584.0</ele><time>2026-04-26T11:45:09Z</time></trkpt><trkpt lat="44.127111848646635" lon="11.51920211626423"><ele>581.0</ele><time>2026-04-26T11:45:10Z</time></trkpt><trkpt lat="44.12698165341334" lon="11.519196285880374"><ele>578.0</ele><time>2026-04-26T11:45:11Z</time></trkpt><trkpt lat="44.126862926503726" lon="11.519199160216665"><ele>575.0</ele><time>2026-04-26T11:45:12Z</time></trkpt><trkpt lat="44.126756385756984" lon="11.519177530433721"><ele>572.0</ele><time>2026-04-26T11:45:13Z</time></trkpt><trkpt lat="44.126656985365756" lon="11.51920455635564"><ele>572.0</ele><time>2026-04-26T11:45:14Z</time></trkpt><trkpt lat="44.126567525064466" lon="11.519293968637141"><ele>572.0</ele><time>2026-04-26T11:45:15Z</time></trkpt><trkpt lat="44.12648100568931" lon="11.519421623851608"><ele>572.0</ele><time>2026-04-26T11:45:16Z</time></trkpt><trkpt lat="44.12639523239624" lon="11.519566687227549"><ele>572.0</ele><time>2026-04-26T11:45:17Z</time></trkpt><trkpt lat="44.12630798484355" lon="11.51971958516532"><ele>570.0</ele><time>2026-04-26T11:45:18Z</time></trkpt><trkpt lat="44.12621595106401" lon="11.519881433710529"><ele>568.0</ele><time>2026-04-26T11:45:19Z</time></trkpt><trkpt lat="44.126129685079555" lon="11.520047973281372"><ele>566.0</ele><time>2026-04-26T11:45:20Z</time></trkpt><trkpt lat="44.1260587684755" lon="11.520207509389483"><ele>564.0</ele><time>2026-04-26T11:45:21Z</time></trkpt><trkpt lat="44.12600344088155" lon="11.520371140716211"><ele>566.0</ele><time>2026-04-26T11:45:22Z</time></trkpt><trkpt lat="44.12598266912496" lon="11.520548453286056"><ele>568.0</ele><time>2026-04-26T11:45:23Z</time></trkpt><trkpt lat="44.125983320809055" lon="11.52073501150426"><ele>570.0</ele><time>2026-04-26T11:45:24Z</time></trkpt><trkpt lat="44.12598707222905" lon="11.520920848135136"><ele>572.0</ele><time>2026-04-26T11:45:25Z</time></trkpt><trkpt lat="44.125967996600785" lon="11.521106248600631"><ele>575.25</ele><time>2026-04-26T11:45:26Z</time></trkpt><trkpt lat="44.12592003761431" lon="11.521289686999397"><ele>578.5</ele><time>2026-04-26T11:45:27Z</time></trkpt><trkpt lat="44.12583841903752" lon="11.521457443454343"><ele>581.75</ele><time>2026-04-26T11:45:28Z</time></trkpt><trkpt lat="44.12573167135829" lon="11.521598202079446"><ele>585.0</ele><time>2026-04-26T11:45:29Z</time></trkpt><trkpt lat="44.1255977519652" lon="11.521697047266755"><ele>579.6666666666666</ele><time>2026-04-26T11:45:30Z</time></trkpt><trkpt lat="44.12546921893199" lon="11.521818459929971"><ele>574.3333333333333</ele><time>2026-04-26T11:45:31Z</time></trkpt><trkpt lat="44.12534940305262" lon="11.521944213823922"><ele>569.0</ele><time>2026-04-26T11:45:32Z</time></trkpt><trkpt lat="44.12524443927001" lon="11.522114972869756"><ele>569.0</ele><time>2026-04-26T11:45:33Z</time></trkpt><trkpt lat="44.12514517443175" lon="11.522303826089212"><ele>569.0</ele><time>2026-04-26T11:45:34Z</time></trkpt><trkpt lat="44.12504928585179" lon="11.522483916446586"><ele>569.0</ele><time>2026-04-26T11:45:35Z</time></trkpt><trkpt lat="44.12495388433147" lon="11.52265217119904"><ele>563.0</ele><time>2026-04-26T11:45:36Z</time></trkpt><trkpt lat="44.12484891501817" lon="11.522791980570206"><ele>557.0</ele><time>2026-04-26T11:45:37Z</time></trkpt><trkpt lat="44.124754715539616" lon="11.522910767350915"><ele>551.0</ele><time>2026-04-26T11:45:38Z</time></trkpt><trkpt lat="44.12465248112158" lon="11.523015832407404"><ele>545.0</ele><time>2026-04-26T11:45:39Z</time></trkpt><trkpt lat="44.12457904451854" lon="11.523124252574702"><ele>545.0</ele><time>2026-04-26T11:45:40Z</time></trkpt><trkpt lat="44.12452548672951" lon="11.523248338856966"><ele>545.0</ele><time>2026-04-26T11:45:41Z</time></trkpt><trkpt lat="44.12449383747861" lon="11.523380598638447"><ele>545.0</ele><time>2026-04-26T11:45:42Z</time></trkpt><trkpt lat="44.12448013399311" lon="11.523516689498774"><ele>545.0</ele><time>2026-04-26T11:45:43Z</time></trkpt><trkpt lat="44.1244695166391" lon="11.523654808799426"><ele>545.0</ele><time>2026-04-26T11:45:44Z</time></trkpt><trkpt lat="44.12445169679082" lon="11.52379877363277"><ele>547.75</ele><time>2026-04-26T11:45:45Z</time></trkpt><trkpt lat="44.124423017140856" lon="11.523946058415197"><ele>550.5</ele><time>2026-04-26T11:45:46Z</time></trkpt><trkpt lat="44.12438099603116" lon="11.524095183433303"><ele>553.25</ele><time>2026-04-26T11:45:47Z</time></trkpt><trkpt lat="44.12432488814785" lon="11.524237928897536"><ele>556.0</ele><time>2026-04-26T11:45:48Z</time></trkpt><trkpt lat="44.12425650561228" lon="11.524365099221377"><ele>556.0</ele><time>2026-04-26T11:45:49Z</time></trkpt><trkpt lat="44.124184325691175" lon="11.524487475431687"><ele>556.0</ele><time>2026-04-26T11:45:50Z</time></trkpt><trkpt lat="44.12412135505048" lon="11.52460322286795"><ele>556.0</ele><time>2026-04-26T11:45:51Z</time></trkpt><trkpt lat="44.12407409856993" lon="11.524714922435258"><ele>556.0</ele><time>2026-04-26T11:45:52Z</time></trkpt><trkpt lat="44.12405125129859" lon="11.524827416024568"><ele>556.0</ele><time>2026-04-26T11:45:53Z</time></trkpt><trkpt lat="44.12403517155897" lon="11.524944366064956"><ele>557.0</ele><time>2026-04-26T11:45:54Z</time></trkpt><trkpt lat="44.124088628846145" lon="11.525059999482897"><ele>558.0</ele><time>2026-04-26T11:45:55Z</time></trkpt><trkpt lat="44.124139103733434" lon="11.52515566211827"><ele>559.0</ele><time>2026-04-26T11:45:56Z</time></trkpt><trkpt lat="44.12417241910834" lon="11.525265277630071"><ele>560.0</ele><time>2026-04-26T11:45:57Z</time></trkpt><trkpt lat="44.12419624418284" lon="11.525381494101218"><ele>561.0</ele><time>2026-04-26T11:45:58Z</time></trkpt><trkpt lat="44.124172375212574" lon="11.525511848955647"><ele>562.8</ele><time>2026-04-26T11:45:59Z</time></trkpt><trkpt lat="44.12412453583665" lon="11.52564601226171"><ele>564.6</ele><time>2026-04-26T11:46:00Z</time></trkpt><trkpt lat="44.124047275203296" lon="11.525748347081795"><ele>566.4</ele><time>2026-04-26T11:46:01Z</time></trkpt><trkpt lat="44.123949598387156" lon="11.525826493364905"><ele>568.2</ele><time>2026-04-26T11:46:02Z</time></trkpt><trkpt lat="44.12383187158073" lon="11.525853948784011"><ele>570.0</ele><time>2026-04-26T11:46:03Z</time></trkpt><trkpt lat="44.123718711135474" lon="11.525891552964934"><ele>568.6</ele><time>2026-04-26T11:46:04Z</time></trkpt><trkpt lat="44.12360710941463" lon="11.525908884259339"><ele>567.2</ele><time>2026-04-26T11:46:05Z</time></trkpt><trkpt lat="44.12350119121784" lon="11.52595468243301"><ele>565.8</ele><time>2026-04-26T11:46:06Z</time></trkpt><trkpt lat="44.1234119519214" lon="11.526027954469658"><ele>564.4</ele><time>2026-04-26T11:46:07Z</time></trkpt><trkpt lat="44.12334461746088" lon="11.526135884447314"><ele>563.0</ele><time>2026-04-26T11:46:08Z</time></trkpt><trkpt lat="44.12330367924987" lon="11.526275013438825"><ele>563.0</ele><time>2026-04-26T11:46:09Z</time></trkpt><trkpt lat="44.123285483151506" lon="11.526431325864225"><ele>563.0</ele><time>2026-04-26T11:46:10Z</time></trkpt><trkpt lat="44.12326628226856" lon="11.526582894560818"><ele>563.0</ele><time>2026-04-26T11:46:11Z</time></trkpt><trkpt lat="44.12323534644667" lon="11.526731040988548"><ele>563.0</ele><time>2026-04-26T11:46:12Z</time></trkpt><trkpt lat="44.12316678053937" lon="11.526865749538922"><ele>557.25</ele><time>2026-04-26T11:46:13Z</time></trkpt><trkpt lat="44.123088771903" lon="11.52699527361447"><ele>551.5</ele><time>2026-04-26T11:46:14Z</time></trkpt><trkpt lat="44.122996321854245" lon="11.527112910236362"><ele>545.75</ele><time>2026-04-26T11:46:15Z</time></trkpt><trkpt lat="44.12290010858091" lon="11.527226791962446"><ele>540.0</ele><time>2026-04-26T11:46:16Z</time></trkpt><trkpt lat="44.12282045137084" lon="11.52734554932577"><ele>540.0</ele><time>2026-04-26T11:46:17Z</time></trkpt><trkpt lat="44.12273127470523" lon="11.5274431859245"><ele>540.0</ele><time>2026-04-26T11:46:18Z</time></trkpt><trkpt lat="44.122646326882204" lon="11.527549921327331"><ele>540.0</ele><time>2026-04-26T11:46:19Z</time></trkpt><trkpt lat="44.122565407024844" lon="11.527668896519675"><ele>540.0</ele><time>2026-04-26T11:46:20Z</time></trkpt><trkpt lat="44.12250792444761" lon="11.527816585729415"><ele>540.4</ele><time>2026-04-26T11:46:21Z</time></trkpt><trkpt lat="44.122461218973825" lon="11.527965241315528"><ele>540.8</ele><time>2026-04-26T11:46:22Z</time></trkpt><trkpt lat="44.12243867680906" lon="11.52809609202935"><ele>541.2</ele><time>2026-04-26T11:46:23Z</time></trkpt><trkpt lat="44.122446865377086" lon="11.528215634231264"><ele>541.6</ele><time>2026-04-26T11:46:24Z</time></trkpt><trkpt lat="44.122485412633296" lon="11.528322941430378"><ele>542.0</ele><time>2026-04-26T11:46:25Z</time></trkpt><trkpt lat="44.12256490803324" lon="11.528414447772558"><ele>542.0</ele><time>2026-04-26T11:46:26Z</time></trkpt><trkpt lat="44.122688645115296" lon="11.52848722326487"><ele>542.0</ele><time>2026-04-26T11:46:27Z</time></trkpt><trkpt lat="44.122840664594115" lon="11.528579240085135"><ele>542.0</ele><time>2026-04-26T11:46:28Z</time></trkpt><trkpt lat="44.12296649748881" lon="11.528663255145943"><ele>542.0</ele><time>2026-04-26T11:46:29Z</time></trkpt><trkpt lat="44.12305808588754" lon="11.528770300367988"><ele>539.75</ele><time>2026-04-26T11:46:30Z</time></trkpt><trkpt lat="44.123083349877625" lon="11.528918846983819"><ele>537.5</ele><time>2026-04-26T11:46:31Z</time></trkpt><trkpt lat="44.12308552780001" lon="11.529079762296313"><ele>535.25</ele><time>2026-04-26T11:46:32Z</time></trkpt><trkpt lat="44.12306301401962" lon="11.529241853065514"><ele>533.0</ele><time>2026-04-26T11:46:33Z</time></trkpt><trkpt lat="44.12305610152985" lon="11.529397924131441"><ele>533.0</ele><time>2026-04-26T11:46:34Z</time></trkpt><trkpt lat="44.123000848905555" lon="11.529534963151631"><ele>533.0</ele><time>2026-04-26T11:46:35Z</time></trkpt><trkpt lat="44.12293807033798" lon="11.529660814801204"><ele>533.0</ele><time>2026-04-26T11:46:36Z</time></trkpt><trkpt lat="44.12286873786164" lon="11.52974581378984"><ele>533.0</ele><time>2026-04-26T11:46:37Z</time></trkpt><trkpt lat="44.12279152134176" lon="11.529796066202241"><ele>533.0</ele><time>2026-04-26T11:46:38Z</time></trkpt><trkpt lat="44.122690401108706" lon="11.529729575761975"><ele>536.0</ele><time>2026-04-26T11:46:39Z</time></trkpt><trkpt lat="44.12257923900244" lon="11.52967010245817"><ele>539.0</ele><time>2026-04-26T11:46:40Z</time></trkpt><trkpt lat="44.12244639264625" lon="11.529617672455146"><ele>542.0</ele><time>2026-04-26T11:46:41Z</time></trkpt><trkpt lat="44.122311159495695" lon="11.529532422889444"><ele>545.0</ele><time>2026-04-26T11:46:42Z</time></trkpt><trkpt lat="44.122179807047765" lon="11.529430057803099"><ele>545.0</ele><time>2026-04-26T11:46:43Z</time></trkpt><trkpt lat="44.12204561502806" lon="11.52932559549129"><ele>545.0</ele><time>2026-04-26T11:46:44Z</time></trkpt><trkpt lat="44.121909687559736" lon="11.529225850601737"><ele>545.0</ele><time>2026-04-26T11:46:45Z</time></trkpt><trkpt lat="44.12177836015656" lon="11.529126022955861"><ele>545.0</ele><time>2026-04-26T11:46:46Z</time></trkpt><trkpt lat="44.12165654183895" lon="11.529014332076118"><ele>545.0</ele><time>2026-04-26T11:46:47Z</time></trkpt><trkpt lat="44.121554376532316" lon="11.528875517739088"><ele>545.0</ele><time>2026-04-26T11:46:48Z</time></trkpt><trkpt lat="44.12149464962277" lon="11.52869538392916"><ele>545.0</ele><time>2026-04-26T11:46:49Z</time></trkpt><trkpt lat="44.12141383353457" lon="11.52853432898602"><ele>539.5</ele><time>2026-04-26T11:46:50Z</time></trkpt><trkpt lat="44.12135555319299" lon="11.528374535925318"><ele>534.0</ele><time>2026-04-26T11:46:51Z</time></trkpt><trkpt lat="44.12128497911848" lon="11.528248590966259"><ele>528.5</ele><time>2026-04-26T11:46:52Z</time></trkpt><trkpt lat="44.12119514440636" lon="11.52816760887194"><ele>523.0</ele><time>2026-04-26T11:46:53Z</time></trkpt><trkpt lat="44.121082325635655" lon="11.528148534997912"><ele>523.0</ele><time>2026-04-26T11:46:54Z</time></trkpt><trkpt lat="44.12096274842829" lon="11.528187666564644"><ele>523.0</ele><time>2026-04-26T11:46:55Z</time></trkpt><trkpt lat="44.12084815640452" lon="11.528274147737745"><ele>523.0</ele><time>2026-04-26T11:46:56Z</time></trkpt><trkpt lat="44.12073035960497" lon="11.528396640550698"><ele>523.0</ele><time>2026-04-26T11:46:57Z</time></trkpt><trkpt lat="44.120606405912476" lon="11.528505371298367"><ele>518.0</ele><time>2026-04-26T11:46:58Z</time></trkpt><trkpt lat="44.12049536515682" lon="11.528640864120707"><ele>513.0</ele><time>2026-04-26T11:46:59Z</time></trkpt><trkpt lat="44.12040215165024" lon="11.528823161303043"><ele>508.0</ele><time>2026-04-26T11:47:00Z</time></trkpt><trkpt lat="44.12032789950658" lon="11.529042434907522"><ele>508.0</ele><time>2026-04-26T11:47:01Z</time></trkpt><trkpt lat="44.120260351846426" lon="11.529271299082758"><ele>508.0</ele><time>2026-04-26T11:47:02Z</time></trkpt><trkpt lat="44.12019494494132" lon="11.529507083375725"><ele>508.0</ele><time>2026-04-26T11:47:03Z</time></trkpt><trkpt lat="44.12012493405174" lon="11.529753423790998"><ele>509.33333333333337</ele><time>2026-04-26T11:47:04Z</time></trkpt><trkpt lat="44.12005271481587" lon="11.52999524905271"><ele>510.66666666666663</ele><time>2026-04-26T11:47:05Z</time></trkpt><trkpt lat="44.11996571846215" lon="11.53022720694361"><ele>512.0</ele><time>2026-04-26T11:47:06Z</time></trkpt><trkpt lat="44.11985731740304" lon="11.530455939718918"><ele>505.3333333333333</ele><time>2026-04-26T11:47:07Z</time></trkpt><trkpt lat="44.11972686571569" lon="11.530664333238443"><ele>498.66666666666663</ele><time>2026-04-26T11:47:08Z</time></trkpt><trkpt lat="44.11959327100523" lon="11.530870669043821"><ele>492.0</ele><time>2026-04-26T11:47:09Z</time></trkpt><trkpt lat="44.119460893405005" lon="11.531065062879097"><ele>495.66666666666663</ele><time>2026-04-26T11:47:10Z</time></trkpt><trkpt lat="44.1193452378085" lon="11.531281273072754"><ele>499.3333333333333</ele><time>2026-04-26T11:47:11Z</time></trkpt><trkpt lat="44.11924402913562" lon="11.53150275831651"><ele>503.0</ele><time>2026-04-26T11:47:12Z</time></trkpt><trkpt lat="44.1191603907687" lon="11.531724615335778"><ele>501.66666666666663</ele><time>2026-04-26T11:47:13Z</time></trkpt><trkpt lat="44.11903299760126" lon="11.531888790484118"><ele>500.33333333333337</ele><time>2026-04-26T11:47:14Z</time></trkpt><trkpt lat="44.118882767489104" lon="11.532019069895165"><ele>499.0</ele><time>2026-04-26T11:47:15Z</time></trkpt><trkpt lat="44.11871079115693" lon="11.532106808593252"><ele>499.0</ele><time>2026-04-26T11:47:16Z</time></trkpt><trkpt lat="44.11854879104872" lon="11.532236128934713"><ele>499.0</ele><time>2026-04-26T11:47:17Z</time></trkpt><trkpt lat="44.118387412652424" lon="11.5324161262288"><ele>499.0</ele><time>2026-04-26T11:47:18Z</time></trkpt><trkpt lat="44.11822912438516" lon="11.532606654522558"><ele>495.0</ele><time>2026-04-26T11:47:19Z</time></trkpt><trkpt lat="44.11806284536389" lon="11.532779770179912"><ele>491.0</ele><time>2026-04-26T11:47:20Z</time></trkpt><trkpt lat="44.1178913613965" lon="11.532927034063137"><ele>487.0</ele><time>2026-04-26T11:47:21Z</time></trkpt><trkpt lat="44.117736990073254" lon="11.533105967136338"><ele>487.0</ele><time>2026-04-26T11:47:22Z</time></trkpt><trkpt lat="44.117581112011614" lon="11.5332693997417"><ele>487.0</ele><time>2026-04-26T11:47:23Z</time></trkpt><trkpt lat="44.117430294557465" lon="11.533432140436691"><ele>487.0</ele><time>2026-04-26T11:47:24Z</time></trkpt><trkpt lat="44.11728591163377" lon="11.53359093508016"><ele>484.25</ele><time>2026-04-26T11:47:25Z</time></trkpt><trkpt lat="44.11715893585948" lon="11.533729921480417"><ele>481.5</ele><time>2026-04-26T11:47:26Z</time></trkpt><trkpt lat="44.11705720972531" lon="11.533860674328729"><ele>478.75</ele><time>2026-04-26T11:47:27Z</time></trkpt><trkpt lat="44.1169874672229" lon="11.534015896597873"><ele>476.0</ele><time>2026-04-26T11:47:28Z</time></trkpt><trkpt lat="44.1169841373896" lon="11.534215337818237"><ele>476.0</ele><time>2026-04-26T11:47:28.999Z</time></trkpt><trkpt lat="44.11700664671388" lon="11.53442828024779"><ele>476.0</ele><time>2026-04-26T11:47:29.999Z</time></trkpt><trkpt lat="44.11703001698432" lon="11.534676488482065"><ele>476.0</ele><time>2026-04-26T11:47:30.999Z</time></trkpt><trkpt lat="44.11708139795791" lon="11.534928211311529"><ele>475.0</ele><time>2026-04-26T11:47:31.999Z</time></trkpt><trkpt lat="44.1171276141922" lon="11.535194355669539"><ele>474.0</ele><time>2026-04-26T11:47:32.999Z</time></trkpt><trkpt lat="44.117168383081406" lon="11.535461890482058"><ele>473.0</ele><time>2026-04-26T11:47:33.999Z</time></trkpt><trkpt lat="44.1172008307581" lon="11.535720781835398"><ele>471.0</ele><time>2026-04-26T11:47:34.999Z</time></trkpt><trkpt lat="44.11722828610294" lon="11.535971352972814"><ele>469.0</ele><time>2026-04-26T11:47:35.999Z</time></trkpt><trkpt lat="44.11725728861083" lon="11.536213519220754"><ele>467.0</ele><time>2026-04-26T11:47:36.999Z</time></trkpt><trkpt lat="44.11724653619741" lon="11.536456234154377"><ele>466.66666666666663</ele><time>2026-04-26T11:47:37.999Z</time></trkpt><trkpt lat="44.11723843894711" lon="11.536698522629456"><ele>466.33333333333337</ele><time>2026-04-26T11:47:38.999Z</time></trkpt><trkpt lat="44.11720236696454" lon="11.536938517434804"><ele>466.0</ele><time>2026-04-26T11:47:39.999Z</time></trkpt><trkpt lat="44.11714861740234" lon="11.537176085368321"><ele>466.0</ele><time>2026-04-26T11:47:40.999Z</time></trkpt><trkpt lat="44.117104803553644" lon="11.537421556644027"><ele>466.0</ele><time>2026-04-26T11:47:41.999Z</time></trkpt><trkpt lat="44.11706193098497" lon="11.537666416737858"><ele>466.0</ele><time>2026-04-26T11:47:42.999Z</time></trkpt><trkpt lat="44.11703544233566" lon="11.537921863516592"><ele>464.0</ele><time>2026-04-26T11:47:43.999Z</time></trkpt><trkpt lat="44.11698586171798" lon="11.538164349850682"><ele>462.0</ele><time>2026-04-26T11:47:44.999Z</time></trkpt><trkpt lat="44.11694332893198" lon="11.538405666768904"><ele>460.0</ele><time>2026-04-26T11:47:45.999Z</time></trkpt><trkpt lat="44.11685466894779" lon="11.538618619893901"><ele>461.0</ele><time>2026-04-26T11:47:46.999Z</time></trkpt><trkpt lat="44.11675250550426" lon="11.538829146749592"><ele>462.0</ele><time>2026-04-26T11:47:47.999Z</time></trkpt><trkpt lat="44.116641242982105" lon="11.539047115328929"><ele>463.0</ele><time>2026-04-26T11:47:48.999Z</time></trkpt><trkpt lat="44.11653954680521" lon="11.539278421495217"><ele>463.0</ele><time>2026-04-26T11:47:49.999Z</time></trkpt><trkpt lat="44.11642367034718" lon="11.539501664426162"><ele>463.0</ele><time>2026-04-26T11:47:50.999Z</time></trkpt><trkpt lat="44.116307221951814" lon="11.539724319868636"><ele>463.0</ele><time>2026-04-26T11:47:51.999Z</time></trkpt><trkpt lat="44.11619042840401" lon="11.53994469951219"><ele>462.33333333333337</ele><time>2026-04-26T11:47:52.999Z</time></trkpt><trkpt lat="44.116073868806446" lon="11.540165536169406"><ele>461.66666666666663</ele><time>2026-04-26T11:47:53.999Z</time></trkpt><trkpt lat="44.11598078366786" lon="11.540400175495181"><ele>461.0</ele><time>2026-04-26T11:47:54.999Z</time></trkpt><trkpt lat="44.11592300969757" lon="11.540639675652377"><ele>461.0</ele><time>2026-04-26T11:47:55.999Z</time></trkpt><trkpt lat="44.115886027528106" lon="11.54088160528119"><ele>461.0</ele><time>2026-04-26T11:47:56.999Z</time></trkpt><trkpt lat="44.11580821009836" lon="11.541086617684597"><ele>461.0</ele><time>2026-04-26T11:47:57.999Z</time></trkpt><trkpt lat="44.11570817583597" lon="11.541258745599926"><ele>458.3333333333333</ele><time>2026-04-26T11:47:58.999Z</time></trkpt><trkpt lat="44.115577926069925" lon="11.541399187538797"><ele>455.66666666666663</ele><time>2026-04-26T11:47:59.999Z</time></trkpt><trkpt lat="44.11545005947915" lon="11.541536990003578"><ele>453.0</ele><time>2026-04-26T11:48:00.999Z</time></trkpt><trkpt lat="44.11534594582804" lon="11.54166669014088"><ele>453.0</ele><time>2026-04-26T11:48:01.999Z</time></trkpt><trkpt lat="44.115248873282354" lon="11.541785884208478"><ele>453.0</ele><time>2026-04-26T11:48:02.999Z</time></trkpt><trkpt lat="44.115182705728344" lon="11.541927325512438"><ele>453.0</ele><time>2026-04-26T11:48:03.999Z</time></trkpt><trkpt lat="44.115130684270014" lon="11.542091516164891"><ele>453.0</ele><time>2026-04-26T11:48:04.999Z</time></trkpt><trkpt lat="44.11509844411963" lon="11.542280189100396"><ele>452.25</ele><time>2026-04-26T11:48:05.999Z</time></trkpt><trkpt lat="44.115061490459745" lon="11.542481234648864"><ele>451.5</ele><time>2026-04-26T11:48:06.999Z</time></trkpt><trkpt lat="44.115025444757705" lon="11.542686688206194"><ele>450.75</ele><time>2026-04-26T11:48:07.999Z</time></trkpt><trkpt lat="44.11498568346253" lon="11.542883725486513"><ele>450.0</ele><time>2026-04-26T11:48:08.999Z</time></trkpt><trkpt lat="44.11492782846355" lon="11.543070887904795"><ele>448.25</ele><time>2026-04-26T11:48:09.999Z</time></trkpt><trkpt lat="44.11486811213322" lon="11.543252970276589"><ele>446.5</ele><time>2026-04-26T11:48:10.999Z</time></trkpt><trkpt lat="44.11479550393479" lon="11.543425578597454"><ele>444.75</ele><time>2026-04-26T11:48:11.999Z</time></trkpt><trkpt lat="44.114720563515334" lon="11.543592839500471"><ele>443.0</ele><time>2026-04-26T11:48:12.999Z</time></trkpt><trkpt lat="44.11466244403933" lon="11.543763839512303"><ele>443.0</ele><time>2026-04-26T11:48:13.999Z</time></trkpt><trkpt lat="44.11458920905536" lon="11.543912711597228"><ele>443.0</ele><time>2026-04-26T11:48:14.999Z</time></trkpt><trkpt lat="44.11451878879672" lon="11.544063221626958"><ele>443.0</ele><time>2026-04-26T11:48:15.999Z</time></trkpt><trkpt lat="44.114476326647015" lon="11.544227316304896"><ele>443.0</ele><time>2026-04-26T11:48:16.999Z</time></trkpt><trkpt lat="44.11442688500334" lon="11.544399951301706"><ele>441.5</ele><time>2026-04-26T11:48:17.999Z</time></trkpt><trkpt lat="44.11439806198403" lon="11.544589992889541"><ele>440.0</ele><time>2026-04-26T11:48:18.999Z</time></trkpt><trkpt lat="44.11437198630992" lon="11.544774727963071"><ele>438.5</ele><time>2026-04-26T11:48:19.999Z</time></trkpt><trkpt lat="44.11436052747768" lon="11.544971771197982"><ele>437.0</ele><time>2026-04-26T11:48:20.999Z</time></trkpt><trkpt lat="44.11433380030927" lon="11.545163061114131"><ele>437.0</ele><time>2026-04-26T11:48:21.999Z</time></trkpt><trkpt lat="44.114288118336674" lon="11.545345749974494"><ele>437.0</ele><time>2026-04-26T11:48:22.999Z</time></trkpt><trkpt lat="44.11425712251261" lon="11.545509931101172"><ele>437.0</ele><time>2026-04-26T11:48:23.999Z</time></trkpt><trkpt lat="44.11423017021861" lon="11.545652559724354"><ele>437.0</ele><time>2026-04-26T11:48:24.999Z</time></trkpt><trkpt lat="44.11420469916333" lon="11.545787350412862"><ele>437.49999999999994</ele><time>2026-04-26T11:48:25.999Z</time></trkpt><trkpt lat="44.1141818449349" lon="11.545899764195594"><ele>438.0</ele><time>2026-04-26T11:48:27Z</time></trkpt><trkpt lat="44.114162025655006" lon="11.545990008316625"><ele>438.5</ele><time>2026-04-26T11:48:28Z</time></trkpt><trkpt lat="44.11411020444467" lon="11.546100681514172"><ele>439.0</ele><time>2026-04-26T11:48:30Z</time></trkpt><trkpt lat="44.11400728214995" lon="11.546023922437307"><ele>439.49999999999994</ele><time>2026-04-26T11:48:33Z</time></trkpt><trkpt lat="44.113975620533616" lon="11.545937698899454"><ele>440.0</ele><time>2026-04-26T11:48:34Z</time></trkpt><trkpt lat="44.11392474212063" lon="11.545844042373616"><ele>438.5</ele><time>2026-04-26T11:48:35Z</time></trkpt><trkpt lat="44.113863445734076" lon="11.54572978492688"><ele>437.0</ele><time>2026-04-26T11:48:36Z</time></trkpt><trkpt lat="44.113793327396195" lon="11.545596558908679"><ele>435.5</ele><time>2026-04-26T11:48:37Z</time></trkpt><trkpt lat="44.113708445445404" lon="11.545438962778686"><ele>434.0</ele><time>2026-04-26T11:48:38Z</time></trkpt><trkpt lat="44.11361730327154" lon="11.54526848883847"><ele>434.0</ele><time>2026-04-26T11:48:39Z</time></trkpt><trkpt lat="44.1135303376135" lon="11.545098654508864"><ele>434.0</ele><time>2026-04-26T11:48:40Z</time></trkpt><trkpt lat="44.11344245540509" lon="11.544924613676184"><ele>434.0</ele><time>2026-04-26T11:48:41Z</time></trkpt><trkpt lat="44.11334561386095" lon="11.54474779714635"><ele>434.0</ele><time>2026-04-26T11:48:42Z</time></trkpt><trkpt lat="44.113254130427165" lon="11.544558109280143"><ele>434.0</ele><time>2026-04-26T11:48:43Z</time></trkpt><trkpt lat="44.11315357230105" lon="11.544379576071478"><ele>434.0</ele><time>2026-04-26T11:48:44Z</time></trkpt><trkpt lat="44.11305556137838" lon="11.544190851435134"><ele>434.66666666666663</ele><time>2026-04-26T11:48:45Z</time></trkpt><trkpt lat="44.1129614871662" lon="11.54400596391499"><ele>435.33333333333337</ele><time>2026-04-26T11:48:46Z</time></trkpt><trkpt lat="44.112863807464244" lon="11.543823196752344"><ele>436.0</ele><time>2026-04-26T11:48:47Z</time></trkpt><trkpt lat="44.1127644325545" lon="11.543639315239105"><ele>436.6666666666667</ele><time>2026-04-26T11:48:48Z</time></trkpt><trkpt lat="44.11266609763944" lon="11.543452558020556"><ele>437.33333333333337</ele><time>2026-04-26T11:48:49Z</time></trkpt><trkpt lat="44.11256708332421" lon="11.543262835406432"><ele>438.0</ele><time>2026-04-26T11:48:50Z</time></trkpt><trkpt lat="44.11246720639443" lon="11.543071431677262"><ele>439.33333333333337</ele><time>2026-04-26T11:48:51Z</time></trkpt><trkpt lat="44.11236425845098" lon="11.542880558693538"><ele>440.6666666666667</ele><time>2026-04-26T11:48:52Z</time></trkpt><trkpt lat="44.112261253208985" lon="11.542688071880198"><ele>442.0</ele><time>2026-04-26T11:48:53Z</time></trkpt><trkpt lat="44.112157751643764" lon="11.54249092441663"><ele>442.0</ele><time>2026-04-26T11:48:54Z</time></trkpt><trkpt lat="44.1120549042556" lon="11.542294636294564"><ele>442.0</ele><time>2026-04-26T11:48:55Z</time></trkpt><trkpt lat="44.11196080608237" lon="11.542085725135493"><ele>442.0</ele><time>2026-04-26T11:48:56Z</time></trkpt><trkpt lat="44.11185972808914" lon="11.541890999217074"><ele>441.6666666666667</ele><time>2026-04-26T11:48:57Z</time></trkpt><trkpt lat="44.111745522132125" lon="11.541709553157183"><ele>441.33333333333337</ele><time>2026-04-26T11:48:58Z</time></trkpt><trkpt lat="44.11164312317148" lon="11.541519516089515"><ele>441.0</ele><time>2026-04-26T11:48:59Z</time></trkpt><trkpt lat="44.111538074264935" lon="11.541330550442071"><ele>441.0</ele><time>2026-04-26T11:49:00Z</time></trkpt><trkpt lat="44.11143581127366" lon="11.541137212875762"><ele>441.0</ele><time>2026-04-26T11:49:01Z</time></trkpt><trkpt lat="44.11133314190412" lon="11.540940051593614"><ele>441.0</ele><time>2026-04-26T11:49:02Z</time></trkpt><trkpt lat="44.11122882005098" lon="11.540732541496311"><ele>441.0</ele><time>2026-04-26T11:49:03Z</time></trkpt><trkpt lat="44.11113165981633" lon="11.540508653721984"><ele>441.0</ele><time>2026-04-26T11:49:04Z</time></trkpt><trkpt lat="44.11099954467754" lon="11.54029673398974"><ele>441.0</ele><time>2026-04-26T11:49:05Z</time></trkpt><trkpt lat="44.1108732315678" lon="11.540056304327772"><ele>441.0</ele><time>2026-04-26T11:49:06Z</time></trkpt><trkpt lat="44.1107395895217" lon="11.539804260870246"><ele>441.0</ele><time>2026-04-26T11:49:07Z</time></trkpt><trkpt lat="44.11060377076467" lon="11.539549601395992"><ele>441.0</ele><time>2026-04-26T11:49:08Z</time></trkpt><trkpt lat="44.11046686657111" lon="11.539301859814715"><ele>441.0</ele><time>2026-04-26T11:49:09Z</time></trkpt><trkpt lat="44.11033029306866" lon="11.539059152501325"><ele>441.0</ele><time>2026-04-26T11:49:10Z</time></trkpt><trkpt lat="44.11019052415379" lon="11.538822418369984"><ele>442.0</ele><time>2026-04-26T11:49:11Z</time></trkpt><trkpt lat="44.11005195490914" lon="11.538587505276862"><ele>443.0</ele><time>2026-04-26T11:49:12Z</time></trkpt><trkpt lat="44.1099176784578" lon="11.53835233629073"><ele>444.0</ele><time>2026-04-26T11:49:13Z</time></trkpt><trkpt lat="44.109783902886704" lon="11.538122079838423"><ele>444.33333333333337</ele><time>2026-04-26T11:49:14Z</time></trkpt><trkpt lat="44.109667328933554" lon="11.537879884677535"><ele>444.6666666666667</ele><time>2026-04-26T11:49:15Z</time></trkpt><trkpt lat="44.10953462896588" lon="11.5376629611365"><ele>445.0</ele><time>2026-04-26T11:49:16Z</time></trkpt><trkpt lat="44.109426149459026" lon="11.537422426274793"><ele>445.0</ele><time>2026-04-26T11:49:17Z</time></trkpt><trkpt lat="44.109346561720464" lon="11.537164220933265"><ele>445.0</ele><time>2026-04-26T11:49:18Z</time></trkpt><trkpt lat="44.10925381272262" lon="11.536914026956312"><ele>445.0</ele><time>2026-04-26T11:49:19Z</time></trkpt><trkpt lat="44.10914716048338" lon="11.536675530731983"><ele>445.6666666666667</ele><time>2026-04-26T11:49:20Z</time></trkpt><trkpt lat="44.109046763278236" lon="11.53643333301244"><ele>446.33333333333337</ele><time>2026-04-26T11:49:21Z</time></trkpt><trkpt lat="44.108934064616506" lon="11.536204047201792"><ele>447.0</ele><time>2026-04-26T11:49:22Z</time></trkpt><trkpt lat="44.10881143400799" lon="11.535985386625047"><ele>447.0</ele><time>2026-04-26T11:49:23Z</time></trkpt><trkpt lat="44.10868081764558" lon="11.535778178312805"><ele>447.0</ele><time>2026-04-26T11:49:24Z</time></trkpt><trkpt lat="44.108551724589695" lon="11.535573340510453"><ele>447.0</ele><time>2026-04-26T11:49:25Z</time></trkpt><trkpt lat="44.10842564951646" lon="11.535369909262798"><ele>447.0</ele><time>2026-04-26T11:49:26Z</time></trkpt><trkpt lat="44.108301812052154" lon="11.535170329103494"><ele>447.0</ele><time>2026-04-26T11:49:26.999Z</time></trkpt><trkpt lat="44.10818021309048" lon="11.53497717577489"><ele>447.0</ele><time>2026-04-26T11:49:27.999Z</time></trkpt><trkpt lat="44.10806472967728" lon="11.53478572647598"><ele>448.33333333333337</ele><time>2026-04-26T11:49:28.999Z</time></trkpt><trkpt lat="44.10794891556226" lon="11.53459822069426"><ele>449.6666666666667</ele><time>2026-04-26T11:49:29.999Z</time></trkpt><trkpt lat="44.107833892160386" lon="11.534409492489695"><ele>451.0</ele><time>2026-04-26T11:49:30.999Z</time></trkpt><trkpt lat="44.1077265186001" lon="11.534215741413849"><ele>451.0</ele><time>2026-04-26T11:49:31.999Z</time></trkpt><trkpt lat="44.10761957043122" lon="11.53404242034666"><ele>451.0</ele><time>2026-04-26T11:49:32.999Z</time></trkpt><trkpt lat="44.107515357853046" lon="11.533883368578081"><ele>451.0</ele><time>2026-04-26T11:49:33.999Z</time></trkpt><trkpt lat="44.10740946848913" lon="11.533734794822221"><ele>452.75</ele><time>2026-04-26T11:49:34.999Z</time></trkpt><trkpt lat="44.10729223531677" lon="11.533608947055553"><ele>454.5</ele><time>2026-04-26T11:49:35.999Z</time></trkpt><trkpt lat="44.107177437312956" lon="11.53349905720401"><ele>456.25</ele><time>2026-04-26T11:49:36.999Z</time></trkpt><trkpt lat="44.10707093376709" lon="11.533395478662872"><ele>458.0</ele><time>2026-04-26T11:49:37.999Z</time></trkpt><trkpt lat="44.106979858329645" lon="11.533271814250524"><ele>458.0</ele><time>2026-04-26T11:49:38.999Z</time></trkpt><trkpt lat="44.106877365575784" lon="11.533163250362078"><ele>458.0</ele><time>2026-04-26T11:49:39.999Z</time></trkpt><trkpt lat="44.10676163266747" lon="11.53306774611306"><ele>458.0</ele><time>2026-04-26T11:49:40.999Z</time></trkpt><trkpt lat="44.106657447289486" lon="11.5329437603085"><ele>458.0</ele><time>2026-04-26T11:49:41.999Z</time></trkpt><trkpt lat="44.10655139234574" lon="11.532816608919731"><ele>457.25</ele><time>2026-04-26T11:49:42.999Z</time></trkpt><trkpt lat="44.10645198688878" lon="11.532672772778206"><ele>456.5</ele><time>2026-04-26T11:49:43.999Z</time></trkpt><trkpt lat="44.106353348914176" lon="11.532514143415002"><ele>455.75</ele><time>2026-04-26T11:49:44.999Z</time></trkpt><trkpt lat="44.106272988295444" lon="11.532334416315956"><ele>455.0</ele><time>2026-04-26T11:49:45.999Z</time></trkpt><trkpt lat="44.10617554483753" lon="11.532184931136081"><ele>455.5</ele><time>2026-04-26T11:49:46.999Z</time></trkpt><trkpt lat="44.106097778422814" lon="11.532025872148916"><ele>456.0</ele><time>2026-04-26T11:49:47.999Z</time></trkpt><trkpt lat="44.10600879136943" lon="11.53187440879456"><ele>456.5</ele><time>2026-04-26T11:49:48.999Z</time></trkpt><trkpt lat="44.105897979459584" lon="11.531736339548946"><ele>457.0</ele><time>2026-04-26T11:49:49.999Z</time></trkpt><trkpt lat="44.105770875940465" lon="11.53161705079126"><ele>456.25</ele><time>2026-04-26T11:49:50.999Z</time></trkpt><trkpt lat="44.10563997525436" lon="11.531513109696077"><ele>455.5</ele><time>2026-04-26T11:49:51.999Z</time></trkpt><trkpt lat="44.1055150294791" lon="11.531412952199956"><ele>454.75</ele><time>2026-04-26T11:49:52.999Z</time></trkpt><trkpt lat="44.1053917406187" lon="11.531332029689224"><ele>454.0</ele><time>2026-04-26T11:49:53.999Z</time></trkpt><trkpt lat="44.10526121469711" lon="11.53128463653495"><ele>454.0</ele><time>2026-04-26T11:49:54.999Z</time></trkpt><trkpt lat="44.10512202826703" lon="11.531241666098015"><ele>454.0</ele><time>2026-04-26T11:49:55.999Z</time></trkpt><trkpt lat="44.104989422650796" lon="11.531223700579481"><ele>454.0</ele><time>2026-04-26T11:49:56.999Z</time></trkpt><trkpt lat="44.10487411695413" lon="11.531199442655643"><ele>454.0</ele><time>2026-04-26T11:49:57.999Z</time></trkpt><trkpt lat="44.1047805878875" lon="11.531104095314385"><ele>462.0</ele><time>2026-04-26T11:49:58.999Z</time></trkpt><trkpt lat="44.10469989400636" lon="11.53097489302915"><ele>470.0</ele><time>2026-04-26T11:49:59.999Z</time></trkpt><trkpt lat="44.104627267395564" lon="11.53082613423306"><ele>478.0</ele><time>2026-04-26T11:50:00.999Z</time></trkpt><trkpt lat="44.10453055278988" lon="11.530700609506864"><ele>486.0</ele><time>2026-04-26T11:50:01.999Z</time></trkpt><trkpt lat="44.10444808442159" lon="11.53055140020197"><ele>486.0</ele><time>2026-04-26T11:50:02.999Z</time></trkpt><trkpt lat="44.10435550163142" lon="11.530402312856255"><ele>486.0</ele><time>2026-04-26T11:50:03.999Z</time></trkpt><trkpt lat="44.10425332181729" lon="11.530246414238235"><ele>486.0</ele><time>2026-04-26T11:50:04.999Z</time></trkpt><trkpt lat="44.10414967141752" lon="11.5300815182921"><ele>494.0</ele><time>2026-04-26T11:50:05.999Z</time></trkpt><trkpt lat="44.10405182838119" lon="11.529921396830787"><ele>502.0</ele><time>2026-04-26T11:50:06.999Z</time></trkpt><trkpt lat="44.10394751012173" lon="11.529762296823876"><ele>510.0</ele><time>2026-04-26T11:50:07.999Z</time></trkpt><trkpt lat="44.103822079212286" lon="11.52962734535803"><ele>502.0</ele><time>2026-04-26T11:50:08.999Z</time></trkpt><trkpt lat="44.10368539024116" lon="11.529497369205188"><ele>494.0</ele><time>2026-04-26T11:50:09.999Z</time></trkpt><trkpt lat="44.10360938622731" lon="11.529449572290503"><ele>486.0</ele><time>2026-04-26T11:50:10.999Z</time></trkpt><trkpt lat="44.10349547558791" lon="11.529345923576141"><ele>478.0</ele><time>2026-04-26T11:50:11.999Z</time></trkpt><trkpt lat="44.103389779362494" lon="11.52923934229557"><ele>478.0</ele><time>2026-04-26T11:50:12.999Z</time></trkpt><trkpt lat="44.10328448894356" lon="11.52913805585851"><ele>478.0</ele><time>2026-04-26T11:50:13.999Z</time></trkpt><trkpt lat="44.10318347046462" lon="11.529039888157364"><ele>478.0</ele><time>2026-04-26T11:50:14.999Z</time></trkpt><trkpt lat="44.10308481164024" lon="11.528948899191606"><ele>478.0</ele><time>2026-04-26T11:50:15.999Z</time></trkpt><trkpt lat="44.10297614168453" lon="11.528879334302756"><ele>478.75</ele><time>2026-04-26T11:50:16.999Z</time></trkpt><trkpt lat="44.102863694581714" lon="11.528825148826593"><ele>479.5</ele><time>2026-04-26T11:50:17.999Z</time></trkpt><trkpt lat="44.10275354743273" lon="11.528777186765286"><ele>480.25</ele><time>2026-04-26T11:50:18.999Z</time></trkpt><trkpt lat="44.102640992764165" lon="11.528717584166332"><ele>481.0</ele><time>2026-04-26T11:50:19.999Z</time></trkpt><trkpt lat="44.10253952451508" lon="11.528632403920502"><ele>481.0</ele><time>2026-04-26T11:50:20.999Z</time></trkpt><trkpt lat="44.102432130212875" lon="11.528544895502625"><ele>481.0</ele><time>2026-04-26T11:50:21.999Z</time></trkpt><trkpt lat="44.102312072892005" lon="11.528440937058754"><ele>481.0</ele><time>2026-04-26T11:50:22.999Z</time></trkpt><trkpt lat="44.102187589913825" lon="11.52832146104063"><ele>481.0</ele><time>2026-04-26T11:50:23.999Z</time></trkpt><trkpt lat="44.10205621349046" lon="11.528193236534438"><ele>482.6666666666667</ele><time>2026-04-26T11:50:24.999Z</time></trkpt><trkpt lat="44.10192501583001" lon="11.528058791255118"><ele>484.33333333333337</ele><time>2026-04-26T11:50:25.999Z</time></trkpt><trkpt lat="44.10179400146239" lon="11.527933783898545"><ele>486.0</ele><time>2026-04-26T11:50:26.999Z</time></trkpt><trkpt lat="44.10164978153762" lon="11.527827407426198"><ele>496.66666666666663</ele><time>2026-04-26T11:50:27.999Z</time></trkpt><trkpt lat="44.101493932221345" lon="11.527737693760853"><ele>507.3333333333333</ele><time>2026-04-26T11:50:28.999Z</time></trkpt><trkpt lat="44.101340606831286" lon="11.527644159860765"><ele>518.0</ele><time>2026-04-26T11:50:29.999Z</time></trkpt><trkpt lat="44.10120070131715" lon="11.527502433270204"><ele>518.0</ele><time>2026-04-26T11:50:30.999Z</time></trkpt><trkpt lat="44.10103884348634" lon="11.527403224756997"><ele>518.0</ele><time>2026-04-26T11:50:31.999Z</time></trkpt><trkpt lat="44.10089763250668" lon="11.52726602111233"><ele>518.0</ele><time>2026-04-26T11:50:33Z</time></trkpt><trkpt lat="44.100760343591325" lon="11.527125848096906"><ele>519.0</ele><time>2026-04-26T11:50:34Z</time></trkpt><trkpt lat="44.100623400373614" lon="11.526986546870436"><ele>520.0</ele><time>2026-04-26T11:50:35Z</time></trkpt><trkpt lat="44.1004935675147" lon="11.526858426236338"><ele>521.0</ele><time>2026-04-26T11:50:36Z</time></trkpt><trkpt lat="44.100369829646816" lon="11.526735267116814"><ele>521.0</ele><time>2026-04-26T11:50:37Z</time></trkpt><trkpt lat="44.10025348302417" lon="11.526620735454959"><ele>521.0</ele><time>2026-04-26T11:50:38Z</time></trkpt><trkpt lat="44.100142745719154" lon="11.52653634799232"><ele>521.0</ele><time>2026-04-26T11:50:39Z</time></trkpt><trkpt lat="44.10001298049009" lon="11.526499885425224"><ele>521.0</ele><time>2026-04-26T11:50:40Z</time></trkpt><trkpt lat="44.0998810792754" lon="11.526496933072982"><ele>522.25</ele><time>2026-04-26T11:50:41Z</time></trkpt><trkpt lat="44.09976019176557" lon="11.526468506645582"><ele>523.5</ele><time>2026-04-26T11:50:42Z</time></trkpt><trkpt lat="44.099673614006164" lon="11.526364882910363"><ele>524.75</ele><time>2026-04-26T11:50:43Z</time></trkpt><trkpt lat="44.099630279886505" lon="11.526204985105382"><ele>526.0</ele><time>2026-04-26T11:50:44Z</time></trkpt><trkpt lat="44.09955838814057" lon="11.526062882447079"><ele>526.0</ele><time>2026-04-26T11:50:45Z</time></trkpt><trkpt lat="44.09948415005278" lon="11.525920931414042"><ele>526.0</ele><time>2026-04-26T11:50:46Z</time></trkpt><trkpt lat="44.099371880663064" lon="11.525808057713077"><ele>526.0</ele><time>2026-04-26T11:50:47Z</time></trkpt><trkpt lat="44.09925807775233" lon="11.525722865147152"><ele>526.0</ele><time>2026-04-26T11:50:48Z</time></trkpt><trkpt lat="44.0991543413605" lon="11.525645256563475"><ele>530.75</ele><time>2026-04-26T11:50:49Z</time></trkpt><trkpt lat="44.099054829121265" lon="11.525591748145636"><ele>535.5</ele><time>2026-04-26T11:50:50Z</time></trkpt><trkpt lat="44.098949256616194" lon="11.525579581683054"><ele>540.25</ele><time>2026-04-26T11:50:51Z</time></trkpt><trkpt lat="44.098828086547236" lon="11.525620966083777"><ele>545.0</ele><time>2026-04-26T11:50:52Z</time></trkpt><trkpt lat="44.09870011775907" lon="11.525662945853465"><ele>545.0</ele><time>2026-04-26T11:50:53Z</time></trkpt><trkpt lat="44.09857266214375" lon="11.525628569117039"><ele>545.0</ele><time>2026-04-26T11:50:54Z</time></trkpt><trkpt lat="44.09844886076608" lon="11.525617162720913"><ele>545.0</ele><time>2026-04-26T11:50:55Z</time></trkpt><trkpt lat="44.098346135331276" lon="11.525565968060697"><ele>545.0</ele><time>2026-04-26T11:50:56Z</time></trkpt><trkpt lat="44.09825841668045" lon="11.525485833545941"><ele>542.8</ele><time>2026-04-26T11:50:57Z</time></trkpt><trkpt lat="44.098209458081485" lon="11.525362179186347"><ele>540.6</ele><time>2026-04-26T11:50:58Z</time></trkpt><trkpt lat="44.098202332104734" lon="11.525221934553581"><ele>538.4</ele><time>2026-04-26T11:50:59Z</time></trkpt><trkpt lat="44.09825838446304" lon="11.52509624638735"><ele>536.2</ele><time>2026-04-26T11:51:00Z</time></trkpt><trkpt lat="44.09830937875485" lon="11.52496653406765"><ele>534.0</ele><time>2026-04-26T11:51:01Z</time></trkpt><trkpt lat="44.09834935567382" lon="11.524835538976093"><ele>534.0</ele><time>2026-04-26T11:51:02Z</time></trkpt><trkpt lat="44.0983541888636" lon="11.524704314385197"><ele>534.0</ele><time>2026-04-26T11:51:03Z</time></trkpt><trkpt lat="44.09830589114427" lon="11.524587112593759"><ele>534.0</ele><time>2026-04-26T11:51:04Z</time></trkpt><trkpt lat="44.09822840645628" lon="11.524505564989463"><ele>534.0</ele><time>2026-04-26T11:51:05Z</time></trkpt><trkpt lat="44.098136615123686" lon="11.524459354974567"><ele>534.0</ele><time>2026-04-26T11:51:06Z</time></trkpt><trkpt lat="44.09804382037926" lon="11.524426790810029"><ele>540.2</ele><time>2026-04-26T11:51:07Z</time></trkpt><trkpt lat="44.09795860779699" lon="11.524376249962245"><ele>546.4</ele><time>2026-04-26T11:51:08Z</time></trkpt><trkpt lat="44.097869950936165" lon="11.524281531435262"><ele>552.6</ele><time>2026-04-26T11:51:09Z</time></trkpt><trkpt lat="44.097809361235825" lon="11.524118730399882"><ele>558.8</ele><time>2026-04-26T11:51:10Z</time></trkpt><trkpt lat="44.09773800592437" lon="11.524001315873667"><ele>565.0</ele><time>2026-04-26T11:51:11Z</time></trkpt><trkpt lat="44.09766869549803" lon="11.52391548405825"><ele>565.0</ele><time>2026-04-26T11:51:12Z</time></trkpt><trkpt lat="44.09755906758038" lon="11.52392268406973"><ele>565.0</ele><time>2026-04-26T11:51:13Z</time></trkpt><trkpt lat="44.0974756627716" lon="11.523884899768007"><ele>565.0</ele><time>2026-04-26T11:51:14Z</time></trkpt><trkpt lat="44.09741223083698" lon="11.523843764981388"><ele>565.0</ele><time>2026-04-26T11:51:15Z</time></trkpt><trkpt lat="44.09736716480248" lon="11.523771806546847"><ele>565.0</ele><time>2026-04-26T11:51:16Z</time></trkpt><trkpt lat="44.097333528951026" lon="11.52367935886459"><ele>565.0</ele><time>2026-04-26T11:51:17Z</time></trkpt><trkpt lat="44.09732576027811" lon="11.523567702808768"><ele>567.4</ele><time>2026-04-26T11:51:18Z</time></trkpt><trkpt lat="44.09733994810523" lon="11.523452856117563"><ele>569.8</ele><time>2026-04-26T11:51:19Z</time></trkpt><trkpt lat="44.09733389952678" lon="11.523324496640573"><ele>572.2</ele><time>2026-04-26T11:51:20Z</time></trkpt><trkpt lat="44.09731580706186" lon="11.523221911268342"><ele>574.6</ele><time>2026-04-26T11:51:21Z</time></trkpt><trkpt lat="44.09721874215684" lon="11.523152581747198"><ele>577.0</ele><time>2026-04-26T11:51:22Z</time></trkpt><trkpt lat="44.09710545932319" lon="11.523106310786686"><ele>577.0</ele><time>2026-04-26T11:51:23Z</time></trkpt><trkpt lat="44.09698094793562" lon="11.523083850620134"><ele>577.0</ele><time>2026-04-26T11:51:24Z</time></trkpt><trkpt lat="44.09687137548739" lon="11.523014096745671"><ele>577.0</ele><time>2026-04-26T11:51:25Z</time></trkpt><trkpt lat="44.0967805988851" lon="11.52291312221427"><ele>577.0</ele><time>2026-04-26T11:51:26Z</time></trkpt><trkpt lat="44.0967244121466" lon="11.52276050934878"><ele>574.4</ele><time>2026-04-26T11:51:27Z</time></trkpt><trkpt lat="44.09670077878998" lon="11.52259397085346"><ele>571.8000000000001</ele><time>2026-04-26T11:51:28Z</time></trkpt><trkpt lat="44.09668795026912" lon="11.522433105087972"><ele>569.2</ele><time>2026-04-26T11:51:29Z</time></trkpt><trkpt lat="44.096662068930065" lon="11.522304270084971"><ele>566.6</ele><time>2026-04-26T11:51:30Z</time></trkpt><trkpt lat="44.09662784370499" lon="11.522191940367586"><ele>564.0</ele><time>2026-04-26T11:51:31Z</time></trkpt><trkpt lat="44.09657857161182" lon="11.522095508825718"><ele>570.5</ele><time>2026-04-26T11:51:32Z</time></trkpt><trkpt lat="44.09646252463106" lon="11.522061417971079"><ele>577.0</ele><time>2026-04-26T11:51:33Z</time></trkpt><trkpt lat="44.0963474907469" lon="11.522022897799488"><ele>583.5</ele><time>2026-04-26T11:51:34Z</time></trkpt><trkpt lat="44.09622935684138" lon="11.521969404338597"><ele>590.0</ele><time>2026-04-26T11:51:35Z</time></trkpt><trkpt lat="44.096116326613235" lon="11.521914126287077"><ele>590.0</ele><time>2026-04-26T11:51:36Z</time></trkpt><trkpt lat="44.09601490754027" lon="11.521830071159515"><ele>590.0</ele><time>2026-04-26T11:51:37Z</time></trkpt><trkpt lat="44.09595125790821" lon="11.521698892443153"><ele>590.0</ele><time>2026-04-26T11:51:38Z</time></trkpt><trkpt lat="44.09591802962974" lon="11.521545990334783"><ele>590.0</ele><time>2026-04-26T11:51:39Z</time></trkpt><trkpt lat="44.09591596332133" lon="11.52137537832375"><ele>592.3333333333333</ele><time>2026-04-26T11:51:40Z</time></trkpt><trkpt lat="44.09596165279781" lon="11.52119912127009"><ele>594.6666666666666</ele><time>2026-04-26T11:51:41Z</time></trkpt><trkpt lat="44.096062002320444" lon="11.52102670132985"><ele>597.0</ele><time>2026-04-26T11:51:42Z</time></trkpt><trkpt lat="44.09613470664104" lon="11.520813700746608"><ele>597.0</ele><time>2026-04-26T11:51:43Z</time></trkpt><trkpt lat="44.096183311329256" lon="11.520619223113329"><ele>597.0</ele><time>2026-04-26T11:51:44Z</time></trkpt><trkpt lat="44.09623501799701" lon="11.520434845002761"><ele>597.0</ele><time>2026-04-26T11:51:45Z</time></trkpt><trkpt lat="44.09628092864399" lon="11.52027140711316"><ele>597.0</ele><time>2026-04-26T11:51:46Z</time></trkpt><trkpt lat="44.0963135102085" lon="11.520129752558404"><ele>597.0</ele><time>2026-04-26T11:51:47Z</time></trkpt><trkpt lat="44.09631691095704" lon="11.520002268782761"><ele>597.0</ele><time>2026-04-26T11:51:48Z</time></trkpt><trkpt lat="44.09628369188271" lon="11.519878641330921"><ele>597.0</ele><time>2026-04-26T11:51:49Z</time></trkpt><trkpt lat="44.09619996105755" lon="11.519773673523188"><ele>597.0</ele><time>2026-04-26T11:51:50Z</time></trkpt><trkpt lat="44.09609416491441" lon="11.519692622385708"><ele>597.0</ele><time>2026-04-26T11:51:51Z</time></trkpt><trkpt lat="44.09598568737344" lon="11.519581401600567"><ele>592.0</ele><time>2026-04-26T11:51:52Z</time></trkpt><trkpt lat="44.09588051156837" lon="11.519451124284133"><ele>587.0</ele><time>2026-04-26T11:51:53Z</time></trkpt><trkpt lat="44.095792659763674" lon="11.519295296279976"><ele>582.0</ele><time>2026-04-26T11:51:54Z</time></trkpt><trkpt lat="44.09573320442887" lon="11.51913838608403"><ele>577.0</ele><time>2026-04-26T11:51:55Z</time></trkpt><trkpt lat="44.095661528895214" lon="11.518998779056686"><ele>581.75</ele><time>2026-04-26T11:51:56Z</time></trkpt><trkpt lat="44.095591883367646" lon="11.518861020529835"><ele>586.5</ele><time>2026-04-26T11:51:57Z</time></trkpt><trkpt lat="44.09548083719569" lon="11.518756996895043"><ele>591.25</ele><time>2026-04-26T11:51:58Z</time></trkpt><trkpt lat="44.09534578906505" lon="11.518689942294985"><ele>596.0</ele><time>2026-04-26T11:51:59Z</time></trkpt><trkpt lat="44.09521587003049" lon="11.518635380109414"><ele>596.0</ele><time>2026-04-26T11:52:00Z</time></trkpt><trkpt lat="44.09510926840754" lon="11.518570323812353"><ele>596.0</ele><time>2026-04-26T11:52:01Z</time></trkpt><trkpt lat="44.09504160474636" lon="11.518460116136303"><ele>596.0</ele><time>2026-04-26T11:52:02Z</time></trkpt><trkpt lat="44.0950082227093" lon="11.518309760670919"><ele>596.0</ele><time>2026-04-26T11:52:03Z</time></trkpt><trkpt lat="44.09495780473177" lon="11.518161807314803"><ele>596.75</ele><time>2026-04-26T11:52:04Z</time></trkpt><trkpt lat="44.094889672817104" lon="11.518035519721343"><ele>597.5</ele><time>2026-04-26T11:52:05Z</time></trkpt><trkpt lat="44.09480967678818" lon="11.517929793085914"><ele>598.25</ele><time>2026-04-26T11:52:06Z</time></trkpt><trkpt lat="44.09469890017725" lon="11.517861640547688"><ele>599.0</ele><time>2026-04-26T11:52:07Z</time></trkpt><trkpt lat="44.09456314192987" lon="11.517843568054081"><ele>599.0</ele><time>2026-04-26T11:52:08Z</time></trkpt><trkpt lat="44.09442793810792" lon="11.517824065222147"><ele>599.0</ele><time>2026-04-26T11:52:09Z</time></trkpt><trkpt lat="44.094296760146534" lon="11.517748544155657"><ele>599.0</ele><time>2026-04-26T11:52:10Z</time></trkpt><trkpt lat="44.094169573058394" lon="11.517664130718819"><ele>599.0</ele><time>2026-04-26T11:52:11Z</time></trkpt><trkpt lat="44.094060052829015" lon="11.517547446008782"><ele>601.25</ele><time>2026-04-26T11:52:12Z</time></trkpt><trkpt lat="44.09395425945693" lon="11.517421278682821"><ele>603.5</ele><time>2026-04-26T11:52:13Z</time></trkpt><trkpt lat="44.093850283903436" lon="11.517317763339681"><ele>605.75</ele><time>2026-04-26T11:52:14Z</time></trkpt><trkpt lat="44.0937655022945" lon="11.5172311833137"><ele>608.0</ele><time>2026-04-26T11:52:15Z</time></trkpt><trkpt lat="44.09366523286408" lon="11.517186421759646"><ele>608.0</ele><time>2026-04-26T11:52:16Z</time></trkpt><trkpt lat="44.09354928965653" lon="11.517214302495013"><ele>608.0</ele><time>2026-04-26T11:52:17Z</time></trkpt><trkpt lat="44.09343593789174" lon="11.517280010358707"><ele>608.0</ele><time>2026-04-26T11:52:18Z</time></trkpt><trkpt lat="44.09331732198328" lon="11.517338916576767"><ele>608.0</ele><time>2026-04-26T11:52:19Z</time></trkpt><trkpt lat="44.09319092439984" lon="11.517374603697316"><ele>610.0</ele><time>2026-04-26T11:52:20Z</time></trkpt><trkpt lat="44.09306057762678" lon="11.51741427519723"><ele>612.0</ele><time>2026-04-26T11:52:21Z</time></trkpt><trkpt lat="44.092929489716205" lon="11.517459881012869"><ele>614.0</ele><time>2026-04-26T11:52:22Z</time></trkpt><trkpt lat="44.09280449765603" lon="11.51750312963414"><ele>616.0</ele><time>2026-04-26T11:52:23Z</time></trkpt><trkpt lat="44.092703418742204" lon="11.517536481081763"><ele>616.0</ele><time>2026-04-26T11:52:24Z</time></trkpt><trkpt lat="44.092628600604975" lon="11.517588160168069"><ele>616.0</ele><time>2026-04-26T11:52:25Z</time></trkpt><trkpt lat="44.09258478667638" lon="11.517680674748318"><ele>616.0</ele><time>2026-04-26T11:52:26Z</time></trkpt><trkpt lat="44.09254697408908" lon="11.517777533270635"><ele>616.0</ele><time>2026-04-26T11:52:27Z</time></trkpt><trkpt lat="44.09262002091555" lon="11.517926024957807"><ele>616.0</ele><time>2026-04-26T11:52:28Z</time></trkpt><trkpt lat="44.09270270677447" lon="11.518002008347612"><ele>621.5</ele><time>2026-04-26T11:52:29Z</time></trkpt><trkpt lat="44.09280538971464" lon="11.51800909957754"><ele>627.0</ele><time>2026-04-26T11:52:30Z</time></trkpt><trkpt lat="44.09291789899073" lon="11.517990721809745"><ele>632.5</ele><time>2026-04-26T11:52:31Z</time></trkpt><trkpt lat="44.09303224760889" lon="11.518006456064711"><ele>638.0</ele><time>2026-04-26T11:52:32Z</time></trkpt><trkpt lat="44.0931452990541" lon="11.518109633533703"><ele>634.75</ele><time>2026-04-26T11:52:33Z</time></trkpt><trkpt lat="44.093271317801744" lon="11.518176929300347"><ele>631.5</ele><time>2026-04-26T11:52:34Z</time></trkpt><trkpt lat="44.09338617933752" lon="11.518251061975265"><ele>628.25</ele><time>2026-04-26T11:52:35Z</time></trkpt><trkpt lat="44.09350780925556" lon="11.518284003221526"><ele>625.0</ele><time>2026-04-26T11:52:36Z</time></trkpt><trkpt lat="44.09362887640033" lon="11.518265609632449"><ele>625.0</ele><time>2026-04-26T11:52:37Z</time></trkpt><trkpt lat="44.093733968650504" lon="11.51818472739983"><ele>625.0</ele><time>2026-04-26T11:52:38Z</time></trkpt><trkpt lat="44.093835643799885" lon="11.518133868526157"><ele>625.0</ele><time>2026-04-26T11:52:39.001Z</time></trkpt><trkpt lat="44.09392050353781" lon="11.518102260022136"><ele>625.0</ele><time>2026-04-26T11:52:40.001Z</time></trkpt><trkpt lat="44.09399554243879" lon="11.518158173081684"><ele>625.0</ele><time>2026-04-26T11:52:41.001Z</time></trkpt><trkpt lat="44.09403271110254" lon="11.518261244668603"><ele>625.0</ele><time>2026-04-26T11:52:42.001Z</time></trkpt><trkpt lat="44.09403295909004" lon="11.518376681244636"><ele>625.0</ele><time>2026-04-26T11:52:43.001Z</time></trkpt><trkpt lat="44.09397021906608" lon="11.518485188620925"><ele>625.0</ele><time>2026-04-26T11:52:44.001Z</time></trkpt><trkpt lat="44.09384538614874" lon="11.518523321422794"><ele>625.0</ele><time>2026-04-26T11:52:45.001Z</time></trkpt><trkpt lat="44.09372874480585" lon="11.518555852759878"><ele>625.0</ele><time>2026-04-26T11:52:46.001Z</time></trkpt><trkpt lat="44.093616071003936" lon="11.518574358540613"><ele>625.0</ele><time>2026-04-26T11:52:47.001Z</time></trkpt><trkpt lat="44.093513604610266" lon="11.518539938691298"><ele>625.0</ele><time>2026-04-26T11:52:48.001Z</time></trkpt><trkpt lat="44.0934274039806" lon="11.518522845488018"><ele>625.0</ele><time>2026-04-26T11:52:49Z</time></trkpt><trkpt lat="44.093352408423584" lon="11.518562450944318"><ele>625.0</ele><time>2026-04-26T11:52:50Z</time></trkpt><trkpt lat="44.09329994608157" lon="11.518653816956302"><ele>625.0</ele><time>2026-04-26T11:52:51Z</time></trkpt><trkpt lat="44.09328667517358" lon="11.518778325400401"><ele>625.0</ele><time>2026-04-26T11:52:52Z</time></trkpt><trkpt lat="44.09333695457873" lon="11.518910369135185"><ele>629.2</ele><time>2026-04-26T11:52:53Z</time></trkpt><trkpt lat="44.09343995015332" lon="11.518975815438152"><ele>633.4</ele><time>2026-04-26T11:52:54Z</time></trkpt><trkpt lat="44.09354169151249" lon="11.518959422568082"><ele>637.5999999999999</ele><time>2026-04-26T11:52:55Z</time></trkpt><trkpt lat="44.09365258088422" lon="11.518915335525552"><ele>641.8</ele><time>2026-04-26T11:52:56Z</time></trkpt><trkpt lat="44.0937657007435" lon="11.51888154003496"><ele>646.0</ele><time>2026-04-26T11:52:57Z</time></trkpt><trkpt lat="44.09390287605219" lon="11.518852979755957"><ele>646.0</ele><time>2026-04-26T11:52:58Z</time></trkpt><trkpt lat="44.09402841849097" lon="11.51881235133626"><ele>646.0</ele><time>2026-04-26T11:52:59Z</time></trkpt><trkpt lat="44.0941415771954" lon="11.518782914703605"><ele>646.0</ele><time>2026-04-26T11:53:00Z</time></trkpt><trkpt lat="44.094256110516056" lon="11.51875760713874"><ele>646.0</ele><time>2026-04-26T11:53:01Z</time></trkpt><trkpt lat="44.09434444586598" lon="11.518772270798495"><ele>646.0</ele><time>2026-04-26T11:53:02Z</time></trkpt><trkpt lat="44.09439756449357" lon="11.518855633017607"><ele>646.0</ele><time>2026-04-26T11:53:03Z</time></trkpt><trkpt lat="44.09442908440572" lon="11.518964526371887"><ele>646.0</ele><time>2026-04-26T11:53:04Z</time></trkpt><trkpt lat="44.094391996641406" lon="11.519072733163194"><ele>646.0</ele><time>2026-04-26T11:53:05Z</time></trkpt><trkpt lat="44.09432392058711" lon="11.519156318109053"><ele>646.0</ele><time>2026-04-26T11:53:06Z</time></trkpt><trkpt lat="44.09420835479772" lon="11.519177894743791"><ele>646.0</ele><time>2026-04-26T11:53:07Z</time></trkpt><trkpt lat="44.09407733814678" lon="11.519215256413899"><ele>646.0</ele><time>2026-04-26T11:53:08Z</time></trkpt><trkpt lat="44.093940433105594" lon="11.51926118220776"><ele>646.0</ele><time>2026-04-26T11:53:09Z</time></trkpt><trkpt lat="44.09379701767149" lon="11.519310886262605"><ele>646.0</ele><time>2026-04-26T11:53:10Z</time></trkpt><trkpt lat="44.09366553386329" lon="11.519353170350612"><ele>646.0</ele><time>2026-04-26T11:53:11Z</time></trkpt><trkpt lat="44.09353385066054" lon="11.519386830629758"><ele>646.0</ele><time>2026-04-26T11:53:12Z</time></trkpt><trkpt lat="44.09340162363883" lon="11.519367645341896"><ele>646.0</ele><time>2026-04-26T11:53:13Z</time></trkpt><trkpt lat="44.093274511252886" lon="11.519314616967351"><ele>646.0</ele><time>2026-04-26T11:53:14Z</time></trkpt><trkpt lat="44.09314384556456" lon="11.519243730926107"><ele>646.0</ele><time>2026-04-26T11:53:15Z</time></trkpt><trkpt lat="44.0930394519376" lon="11.519130312676893"><ele>648.75</ele><time>2026-04-26T11:53:16Z</time></trkpt><trkpt lat="44.09294532007569" lon="11.519016288630459"><ele>651.5</ele><time>2026-04-26T11:53:17Z</time></trkpt><trkpt lat="44.09284813810894" lon="11.518944178594449"><ele>654.25</ele><time>2026-04-26T11:53:18Z</time></trkpt><trkpt lat="44.09276170104846" lon="11.518870988625668"><ele>657.0</ele><time>2026-04-26T11:53:19Z</time></trkpt><trkpt lat="44.09264842274957" lon="11.518857999657884"><ele>657.0</ele><time>2026-04-26T11:53:20Z</time></trkpt><trkpt lat="44.092518948067266" lon="11.518906839409931"><ele>657.0</ele><time>2026-04-26T11:53:21Z</time></trkpt><trkpt lat="44.09238714710694" lon="11.518974795048544"><ele>657.0</ele><time>2026-04-26T11:53:22Z</time></trkpt><trkpt lat="44.09224541411001" lon="11.519016542935267"><ele>657.0</ele><time>2026-04-26T11:53:23Z</time></trkpt><trkpt lat="44.092097416917035" lon="11.519050711114197"><ele>659.75</ele><time>2026-04-26T11:53:24Z</time></trkpt><trkpt lat="44.09196094977637" lon="11.51908180099295"><ele>662.5</ele><time>2026-04-26T11:53:25Z</time></trkpt><trkpt lat="44.09182694496709" lon="11.519124019379486"><ele>665.25</ele><time>2026-04-26T11:53:26Z</time></trkpt><trkpt lat="44.09169562045632" lon="11.519152646033362"><ele>668.0</ele><time>2026-04-26T11:53:27Z</time></trkpt><trkpt lat="44.09158027015556" lon="11.51908385563401"><ele>670.25</ele><time>2026-04-26T11:53:28Z</time></trkpt><trkpt lat="44.09148412829317" lon="11.518988880020846"><ele>672.5</ele><time>2026-04-26T11:53:29Z</time></trkpt><trkpt lat="44.09140439864598" lon="11.518860946173744"><ele>674.75</ele><time>2026-04-26T11:53:30Z</time></trkpt><trkpt lat="44.09133137511945" lon="11.518716446306994"><ele>677.0</ele><time>2026-04-26T11:53:31Z</time></trkpt><trkpt lat="44.091250617792284" lon="11.51857270091346"><ele>677.0</ele><time>2026-04-26T11:53:32Z</time></trkpt><trkpt lat="44.09115642438181" lon="11.518448023311551"><ele>677.0</ele><time>2026-04-26T11:53:33Z</time></trkpt><trkpt lat="44.0910397153727" lon="11.518339173366838"><ele>677.0</ele><time>2026-04-26T11:53:34Z</time></trkpt><trkpt lat="44.09089967951045" lon="11.518250246837113"><ele>677.0</ele><time>2026-04-26T11:53:35Z</time></trkpt><trkpt lat="44.09074426232236" lon="11.51817790929357"><ele>681.6666666666666</ele><time>2026-04-26T11:53:36Z</time></trkpt><trkpt lat="44.090593159204424" lon="11.518076804704945"><ele>686.3333333333334</ele><time>2026-04-26T11:53:37Z</time></trkpt><trkpt lat="44.09044339666591" lon="11.517983221709208"><ele>691.0</ele><time>2026-04-26T11:53:38Z</time></trkpt><trkpt lat="44.0903131265297" lon="11.517863420654283"><ele>691.0</ele><time>2026-04-26T11:53:39Z</time></trkpt><trkpt lat="44.09019856972151" lon="11.517704167066347"><ele>691.0</ele><time>2026-04-26T11:53:40Z</time></trkpt><trkpt lat="44.09009893439263" lon="11.517515868109996"><ele>691.0</ele><time>2026-04-26T11:53:41Z</time></trkpt><trkpt lat="44.09000584469076" lon="11.517320931068072"><ele>694.25</ele><time>2026-04-26T11:53:42Z</time></trkpt><trkpt lat="44.08991043441575" lon="11.517154235329013"><ele>697.5</ele><time>2026-04-26T11:53:43Z</time></trkpt><trkpt lat="44.0898288089738" lon="11.516988529798528"><ele>700.75</ele><time>2026-04-26T11:53:44Z</time></trkpt><trkpt lat="44.08972103381491" lon="11.516858629403343"><ele>704.0</ele><time>2026-04-26T11:53:45Z</time></trkpt><trkpt lat="44.08959521020381" lon="11.51675559199466"><ele>704.0</ele><time>2026-04-26T11:53:46Z</time></trkpt><trkpt lat="44.08947004512574" lon="11.516649199921467"><ele>704.0</ele><time>2026-04-26T11:53:47Z</time></trkpt><trkpt lat="44.08939373104564" lon="11.516477145147592"><ele>704.0</ele><time>2026-04-26T11:53:48Z</time></trkpt><trkpt lat="44.089309122486476" lon="11.516307777929496"><ele>704.0</ele><time>2026-04-26T11:53:49Z</time></trkpt><trkpt lat="44.08923090368954" lon="11.516147003723873"><ele>703.2</ele><time>2026-04-26T11:53:50Z</time></trkpt><trkpt lat="44.08917432094616" lon="11.515998202947209"><ele>702.4000000000001</ele><time>2026-04-26T11:53:51Z</time></trkpt><trkpt lat="44.089171933702715" lon="11.515849059921441"><ele>701.6</ele><time>2026-04-26T11:53:52Z</time></trkpt><trkpt lat="44.089153279280595" lon="11.515711075035737"><ele>700.8</ele><time>2026-04-26T11:53:53Z</time></trkpt><trkpt lat="44.08910330703521" lon="11.515585665690729"><ele>700.0</ele><time>2026-04-26T11:53:54Z</time></trkpt><trkpt lat="44.08903195502688" lon="11.515485480926374"><ele>700.0</ele><time>2026-04-26T11:53:55Z</time></trkpt><trkpt lat="44.08892788428388" lon="11.51543230783985"><ele>700.0</ele><time>2026-04-26T11:53:56Z</time></trkpt><trkpt lat="44.088800417841846" lon="11.515435362615836"><ele>700.0</ele><time>2026-04-26T11:53:57Z</time></trkpt><trkpt lat="44.08866420408013" lon="11.515452902477136"><ele>700.0</ele><time>2026-04-26T11:53:58Z</time></trkpt><trkpt lat="44.088523960715015" lon="11.515459911244866"><ele>700.0</ele><time>2026-04-26T11:53:59Z</time></trkpt><trkpt lat="44.08839039179576" lon="11.51545573027541"><ele>700.0</ele><time>2026-04-26T11:54:00Z</time></trkpt><trkpt lat="44.08825645593358" lon="11.51545353732884"><ele>700.0</ele><time>2026-04-26T11:54:01Z</time></trkpt><trkpt lat="44.08812525251359" lon="11.515446494813801"><ele>700.0</ele><time>2026-04-26T11:54:02Z</time></trkpt><trkpt lat="44.08799241951984" lon="11.515446757765146"><ele>702.0</ele><time>2026-04-26T11:54:03Z</time></trkpt><trkpt lat="44.087859845674615" lon="11.515445766684447"><ele>704.0</ele><time>2026-04-26T11:54:04Z</time></trkpt><trkpt lat="44.08773163347398" lon="11.515466448513205"><ele>706.0</ele><time>2026-04-26T11:54:05Z</time></trkpt><trkpt lat="44.08760166805415" lon="11.515543213383516"><ele>708.0</ele><time>2026-04-26T11:54:06Z</time></trkpt><trkpt lat="44.08747157846386" lon="11.51565586426731"><ele>708.25</ele><time>2026-04-26T11:54:07Z</time></trkpt><trkpt lat="44.087355261054164" lon="11.515785181378467"><ele>708.5</ele><time>2026-04-26T11:54:08Z</time></trkpt><trkpt lat="44.08723763033324" lon="11.515893333963623"><ele>708.75</ele><time>2026-04-26T11:54:09Z</time></trkpt><trkpt lat="44.08712961965735" lon="11.516002196373035"><ele>709.0</ele><time>2026-04-26T11:54:10Z</time></trkpt><trkpt lat="44.0870395095492" lon="11.516107607978077"><ele>709.0</ele><time>2026-04-26T11:54:11Z</time></trkpt><trkpt lat="44.08692896585829" lon="11.516137845920426"><ele>709.0</ele><time>2026-04-26T11:54:12Z</time></trkpt><trkpt lat="44.086817314568734" lon="11.516070408959301"><ele>709.0</ele><time>2026-04-26T11:54:13Z</time></trkpt><trkpt lat="44.086696676969865" lon="11.51601124363474"><ele>709.0</ele><time>2026-04-26T11:54:13.999Z</time></trkpt><trkpt lat="44.086585320344824" lon="11.51592907463827"><ele>713.5</ele><time>2026-04-26T11:54:14.999Z</time></trkpt><trkpt lat="44.086464035659816" lon="11.515907784946005"><ele>718.0</ele><time>2026-04-26T11:54:15.999Z</time></trkpt><trkpt lat="44.08633371405908" lon="11.515949073414587"><ele>722.5</ele><time>2026-04-26T11:54:16.999Z</time></trkpt><trkpt lat="44.08620653140068" lon="11.516036076480189"><ele>727.0</ele><time>2026-04-26T11:54:17.999Z</time></trkpt><trkpt lat="44.08607791113834" lon="11.516071111272788"><ele>727.0</ele><time>2026-04-26T11:54:18.999Z</time></trkpt><trkpt lat="44.08596659260103" lon="11.51610820595463"><ele>727.0</ele><time>2026-04-26T11:54:19.999Z</time></trkpt><trkpt lat="44.085858631971384" lon="11.516110367958666"><ele>727.0</ele><time>2026-04-26T11:54:20.999Z</time></trkpt><trkpt lat="44.085768144542655" lon="11.51601400679801"><ele>727.0</ele><time>2026-04-26T11:54:21.999Z</time></trkpt><trkpt lat="44.08573935216975" lon="11.515836591418667"><ele>727.6</ele><time>2026-04-26T11:54:22.999Z</time></trkpt><trkpt lat="44.08575311734591" lon="11.515669344134263"><ele>728.2</ele><time>2026-04-26T11:54:23.999Z</time></trkpt><trkpt lat="44.08573183157015" lon="11.515513933957997"><ele>728.8</ele><time>2026-04-26T11:54:24.999Z</time></trkpt><trkpt lat="44.08572475006074" lon="11.515371938253317"><ele>729.4</ele><time>2026-04-26T11:54:25.999Z</time></trkpt><trkpt lat="44.08567398191558" lon="11.51526401312444"><ele>730.0</ele><time>2026-04-26T11:54:26.999Z</time></trkpt><trkpt lat="44.08558788661425" lon="11.515193308869097"><ele>730.0</ele><time>2026-04-26T11:54:27.999Z</time></trkpt><trkpt lat="44.08547545314283" lon="11.51518253574786"><ele>730.0</ele><time>2026-04-26T11:54:28.999Z</time></trkpt><trkpt lat="44.08536057433548" lon="11.515183083601478"><ele>730.0</ele><time>2026-04-26T11:54:29.999Z</time></trkpt><trkpt lat="44.08523827428935" lon="11.515171401364672"><ele>730.0</ele><time>2026-04-26T11:54:30.999Z</time></trkpt><trkpt lat="44.08510948479589" lon="11.515161911258403"><ele>730.0</ele><time>2026-04-26T11:54:31.999Z</time></trkpt><trkpt lat="44.08497518761366" lon="11.515151382164996"><ele>730.0</ele><time>2026-04-26T11:54:32.999Z</time></trkpt><trkpt lat="44.08483658331575" lon="11.515146082962252"><ele>730.0</ele><time>2026-04-26T11:54:33.999Z</time></trkpt><trkpt lat="44.084694964781946" lon="11.515155252003357"><ele>730.0</ele><time>2026-04-26T11:54:34.999Z</time></trkpt><trkpt lat="44.084563626828505" lon="11.515173494751476"><ele>734.0</ele><time>2026-04-26T11:54:35.999Z</time></trkpt><trkpt lat="44.08443098813757" lon="11.515164231576922"><ele>738.0</ele><time>2026-04-26T11:54:36.999Z</time></trkpt><trkpt lat="44.08430761331491" lon="11.515076542800085"><ele>742.0</ele><time>2026-04-26T11:54:37.999Z</time></trkpt><trkpt lat="44.0841835596027" lon="11.515015258891752"><ele>746.0</ele><time>2026-04-26T11:54:38.999Z</time></trkpt><trkpt lat="44.08406588967725" lon="11.514940024316148"><ele>746.0</ele><time>2026-04-26T11:54:39.999Z</time></trkpt><trkpt lat="44.08396161276709" lon="11.51485915577039"><ele>746.0</ele><time>2026-04-26T11:54:40.999Z</time></trkpt><trkpt lat="44.08387706679841" lon="11.514761567893158"><ele>746.0</ele><time>2026-04-26T11:54:41.999Z</time></trkpt><trkpt lat="44.08385201811193" lon="11.514611568309185"><ele>746.0</ele><time>2026-04-26T11:54:42.999Z</time></trkpt><trkpt lat="44.083817098593116" lon="11.514462072442523"><ele>743.75</ele><time>2026-04-26T11:54:43.999Z</time></trkpt><trkpt lat="44.08378065329785" lon="11.514327633007971"><ele>741.5</ele><time>2026-04-26T11:54:45Z</time></trkpt><trkpt lat="44.08369481311464" lon="11.514228659098304"><ele>739.25</ele><time>2026-04-26T11:54:46Z</time></trkpt><trkpt lat="44.08358059391867" lon="11.514164701472566"><ele>737.0</ele><time>2026-04-26T11:54:47Z</time></trkpt><trkpt lat="44.08345243251087" lon="11.514132021653081"><ele>737.0</ele><time>2026-04-26T11:54:48Z</time></trkpt><trkpt lat="44.08333038126965" lon="11.514094034639655"><ele>737.0</ele><time>2026-04-26T11:54:49Z</time></trkpt><trkpt lat="44.08320839201014" lon="11.514045576920765"><ele>737.0</ele><time>2026-04-26T11:54:50Z</time></trkpt><trkpt lat="44.0830843466787" lon="11.514012402631185"><ele>737.0</ele><time>2026-04-26T11:54:51Z</time></trkpt><trkpt lat="44.08296181569481" lon="11.51398789845618"><ele>736.2</ele><time>2026-04-26T11:54:52Z</time></trkpt><trkpt lat="44.08283962625629" lon="11.513956292254287"><ele>735.4000000000001</ele><time>2026-04-26T11:54:53Z</time></trkpt><trkpt lat="44.0827335527885" lon="11.513903469032675"><ele>734.5999999999999</ele><time>2026-04-26T11:54:54Z</time></trkpt><trkpt lat="44.082645963462966" lon="11.51382551940132"><ele>733.8</ele><time>2026-04-26T11:54:55Z</time></trkpt><trkpt lat="44.08258300973104" lon="11.513709555505704"><ele>733.0</ele><time>2026-04-26T11:54:56Z</time></trkpt><trkpt lat="44.082540835307825" lon="11.513565979139969"><ele>735.75</ele><time>2026-04-26T11:54:57Z</time></trkpt><trkpt lat="44.08251989539897" lon="11.513413529798779"><ele>738.5</ele><time>2026-04-26T11:54:58Z</time></trkpt><trkpt lat="44.08253421392583" lon="11.513255281869816"><ele>741.25</ele><time>2026-04-26T11:54:59Z</time></trkpt><trkpt lat="44.08257178331337" lon="11.513096064179603"><ele>744.0</ele><time>2026-04-26T11:55:00Z</time></trkpt><trkpt lat="44.08260361627784" lon="11.512937073991537"><ele>744.0</ele><time>2026-04-26T11:55:01Z</time></trkpt><trkpt lat="44.0826259591941" lon="11.512768183186106"><ele>744.0</ele><time>2026-04-26T11:55:02Z</time></trkpt><trkpt lat="44.08257594724922" lon="11.512596670138654"><ele>744.0</ele><time>2026-04-26T11:55:03Z</time></trkpt><trkpt lat="44.08252093298267" lon="11.51243672880827"><ele>744.0</ele><time>2026-04-26T11:55:04Z</time></trkpt><trkpt lat="44.08246066573162" lon="11.512281850156894"><ele>745.5</ele><time>2026-04-26T11:55:05Z</time></trkpt><trkpt lat="44.08239715562485" lon="11.512137350646013"><ele>747.0</ele><time>2026-04-26T11:55:06Z</time></trkpt><trkpt lat="44.08231911626306" lon="11.512010242413387"><ele>748.5</ele><time>2026-04-26T11:55:07Z</time></trkpt><trkpt lat="44.082238449206" lon="11.511892556200655"><ele>750.0</ele><time>2026-04-26T11:55:08Z</time></trkpt><trkpt lat="44.08215956766245" lon="11.511776415493232"><ele>750.0</ele><time>2026-04-26T11:55:09Z</time></trkpt><trkpt lat="44.08207886560093" lon="11.511668460906396"><ele>750.0</ele><time>2026-04-26T11:55:10Z</time></trkpt><trkpt lat="44.081985715468754" lon="11.51158420009199"><ele>750.0</ele><time>2026-04-26T11:55:11Z</time></trkpt><trkpt lat="44.081881516780236" lon="11.511527791994883"><ele>750.0</ele><time>2026-04-26T11:55:12Z</time></trkpt><trkpt lat="44.081782010005355" lon="11.511477286010471"><ele>750.0</ele><time>2026-04-26T11:55:13Z</time></trkpt><trkpt lat="44.081700461332886" lon="11.511397247254479"><ele>750.0</ele><time>2026-04-26T11:55:14Z</time></trkpt><trkpt lat="44.08164096730466" lon="11.511279429293241"><ele>750.0</ele><time>2026-04-26T11:55:15Z</time></trkpt><trkpt lat="44.081646618916345" lon="11.51113771070389"><ele>750.0</ele><time>2026-04-26T11:55:16Z</time></trkpt><trkpt lat="44.08168328500492" lon="11.511017963197382"><ele>750.0</ele><time>2026-04-26T11:55:17Z</time></trkpt><trkpt lat="44.08171736482708" lon="11.510871807977015"><ele>750.0</ele><time>2026-04-26T11:55:18Z</time></trkpt><trkpt lat="44.081741604658916" lon="11.510720721319553"><ele>752.5</ele><time>2026-04-26T11:55:19Z</time></trkpt><trkpt lat="44.081772364986115" lon="11.51056667207641"><ele>755.0</ele><time>2026-04-26T11:55:20Z</time></trkpt><trkpt lat="44.08180396253207" lon="11.5104100896382"><ele>757.5</ele><time>2026-04-26T11:55:21Z</time></trkpt><trkpt lat="44.08182180114907" lon="11.510249582545256"><ele>760.0</ele><time>2026-04-26T11:55:22Z</time></trkpt><trkpt lat="44.08183237948024" lon="11.51009163430584"><ele>761.0</ele><time>2026-04-26T11:55:23Z</time></trkpt><trkpt lat="44.081842482214746" lon="11.509925930426556"><ele>762.0</ele><time>2026-04-26T11:55:24Z</time></trkpt><trkpt lat="44.08178463359907" lon="11.509767777292211"><ele>763.0</ele><time>2026-04-26T11:55:25Z</time></trkpt><trkpt lat="44.08168867859797" lon="11.50964740657389"><ele>764.0</ele><time>2026-04-26T11:55:26Z</time></trkpt><trkpt lat="44.081596055022366" lon="11.509545592306187"><ele>757.75</ele><time>2026-04-26T11:55:27Z</time></trkpt><trkpt lat="44.081566811341766" lon="11.509401035991411"><ele>751.5</ele><time>2026-04-26T11:55:28Z</time></trkpt><trkpt lat="44.08156008223947" lon="11.509248065823703"><ele>745.25</ele><time>2026-04-26T11:55:29Z</time></trkpt><trkpt lat="44.08154559370785" lon="11.50907263894132"><ele>739.0</ele><time>2026-04-26T11:55:30Z</time></trkpt><trkpt lat="44.08154912096888" lon="11.508893623878562"><ele>742.5</ele><time>2026-04-26T11:55:31Z</time></trkpt><trkpt lat="44.08155136997011" lon="11.508707506595202"><ele>746.0</ele><time>2026-04-26T11:55:32Z</time></trkpt><trkpt lat="44.081553739310195" lon="11.508513869718394"><ele>749.5</ele><time>2026-04-26T11:55:33Z</time></trkpt><trkpt lat="44.08151291289038" lon="11.508321754893476"><ele>753.0</ele><time>2026-04-26T11:55:34Z</time></trkpt><trkpt lat="44.08144905482767" lon="11.508135712490468"><ele>753.0</ele><time>2026-04-26T11:55:35Z</time></trkpt><trkpt lat="44.081361515310604" lon="11.507952324787931"><ele>753.0</ele><time>2026-04-26T11:55:36Z</time></trkpt><trkpt lat="44.081266978228264" lon="11.507767446657905"><ele>753.0</ele><time>2026-04-26T11:55:37Z</time></trkpt><trkpt lat="44.08117796602162" lon="11.507579163039978"><ele>759.25</ele><time>2026-04-26T11:55:38Z</time></trkpt><trkpt lat="44.081093524397915" lon="11.507399459491156"><ele>765.5</ele><time>2026-04-26T11:55:39Z</time></trkpt><trkpt lat="44.08101511306113" lon="11.507241989770648"><ele>771.75</ele><time>2026-04-26T11:55:40Z</time></trkpt><trkpt lat="44.080917020500905" lon="11.507122915161377"><ele>778.0</ele><time>2026-04-26T11:55:41Z</time></trkpt><trkpt lat="44.080793448620575" lon="11.507046274160189"><ele>784.5</ele><time>2026-04-26T11:55:42Z</time></trkpt><trkpt lat="44.080653629006235" lon="11.507012142563411"><ele>791.0</ele><time>2026-04-26T11:55:43Z</time></trkpt><trkpt lat="44.080509338199676" lon="11.506996359438219"><ele>797.5</ele><time>2026-04-26T11:55:44Z</time></trkpt><trkpt lat="44.08036593761687" lon="11.506964735404454"><ele>804.0</ele><time>2026-04-26T11:55:45Z</time></trkpt><trkpt lat="44.080220542395374" lon="11.506919881649175"><ele>804.0</ele><time>2026-04-26T11:55:46Z</time></trkpt><trkpt lat="44.0800814018578" lon="11.506862009831389"><ele>804.0</ele><time>2026-04-26T11:55:47Z</time></trkpt><trkpt lat="44.07995071283488" lon="11.506808487776198"><ele>804.0</ele><time>2026-04-26T11:55:48Z</time></trkpt><trkpt lat="44.079830973343135" lon="11.506778653057209"><ele>804.0</ele><time>2026-04-26T11:55:49Z</time></trkpt><trkpt lat="44.07972241645315" lon="11.50677643420164"><ele>805.0</ele><time>2026-04-26T11:55:50Z</time></trkpt><trkpt lat="44.07963411752387" lon="11.50682486730206"><ele>806.0</ele><time>2026-04-26T11:55:51Z</time></trkpt><trkpt lat="44.0795748319985" lon="11.506927321230023"><ele>807.0</ele><time>2026-04-26T11:55:52Z</time></trkpt><trkpt lat="44.07954539526871" lon="11.507065343254352"><ele>808.0</ele><time>2026-04-26T11:55:53Z</time></trkpt><trkpt lat="44.079509875609645" lon="11.507194506078331"><ele>809.0</ele><time>2026-04-26T11:55:54Z</time></trkpt><trkpt lat="44.079430862428836" lon="11.507271261517397"><ele>809.0</ele><time>2026-04-26T11:55:55Z</time></trkpt><trkpt lat="44.07932554922868" lon="11.507269300951057"><ele>809.0</ele><time>2026-04-26T11:55:55.999Z</time></trkpt><trkpt lat="44.07924251180527" lon="11.507151920191601"><ele>809.0</ele><time>2026-04-26T11:55:56.999Z</time></trkpt><trkpt lat="44.07914324581499" lon="11.507026359881637"><ele>809.0</ele><time>2026-04-26T11:55:57.999Z</time></trkpt><trkpt lat="44.07906043837234" lon="11.506905540394557"><ele>809.75</ele><time>2026-04-26T11:55:58.999Z</time></trkpt><trkpt lat="44.07902364439877" lon="11.506739687448144"><ele>810.5</ele><time>2026-04-26T11:55:59.999Z</time></trkpt><trkpt lat="44.07900572776323" lon="11.506558822983584"><ele>811.25</ele><time>2026-04-26T11:56:00.999Z</time></trkpt><trkpt lat="44.07899197186417" lon="11.506373035025801"><ele>812.0</ele><time>2026-04-26T11:56:01.999Z</time></trkpt><trkpt lat="44.07895108494252" lon="11.506194922725523"><ele>812.0</ele><time>2026-04-26T11:56:02.999Z</time></trkpt><trkpt lat="44.078870687609836" lon="11.50604052142462"><ele>812.0</ele><time>2026-04-26T11:56:03.999Z</time></trkpt><trkpt lat="44.07876605022667" lon="11.505932312067975"><ele>812.0</ele><time>2026-04-26T11:56:04.999Z</time></trkpt><trkpt lat="44.07864138757114" lon="11.505877318721629"><ele>812.0</ele><time>2026-04-26T11:56:05.999Z</time></trkpt><trkpt lat="44.07851000411882" lon="11.50588636116951"><ele>812.0</ele><time>2026-04-26T11:56:06.999Z</time></trkpt><trkpt lat="44.078397894780295" lon="11.505879189526649"><ele>812.0</ele><time>2026-04-26T11:56:07.999Z</time></trkpt><trkpt lat="44.0782749944826" lon="11.505887552351231"><ele>812.0</ele><time>2026-04-26T11:56:08.999Z</time></trkpt><trkpt lat="44.07820484058838" lon="11.505780881300762"><ele>812.0</ele><time>2026-04-26T11:56:09.999Z</time></trkpt><trkpt lat="44.078160942400196" lon="11.505653365032712"><ele>812.0</ele><time>2026-04-26T11:56:10.999Z</time></trkpt><trkpt lat="44.078171085147815" lon="11.50551160731744"><ele>813.25</ele><time>2026-04-26T11:56:11.999Z</time></trkpt><trkpt lat="44.078253438631045" lon="11.505396529786216"><ele>814.5</ele><time>2026-04-26T11:56:12.999Z</time></trkpt><trkpt lat="44.078331580259665" lon="11.505254943336169"><ele>815.75</ele><time>2026-04-26T11:56:13.999Z</time></trkpt><trkpt lat="44.07838085538982" lon="11.505108178899304"><ele>817.0</ele><time>2026-04-26T11:56:14.999Z</time></trkpt><trkpt lat="44.07835570046013" lon="11.504929211686388"><ele>817.0</ele><time>2026-04-26T11:56:15.999Z</time></trkpt><trkpt lat="44.07830032108676" lon="11.504783771341282"><ele>817.0</ele><time>2026-04-26T11:56:16.999Z</time></trkpt><trkpt lat="44.078205956690226" lon="11.504659666766768"><ele>817.0</ele><time>2026-04-26T11:56:17.999Z</time></trkpt><trkpt lat="44.07811172682403" lon="11.504539557155416"><ele>817.0</ele><time>2026-04-26T11:56:18.999Z</time></trkpt><trkpt lat="44.078021898059234" lon="11.50441429214355"><ele>816.0</ele><time>2026-04-26T11:56:19.999Z</time></trkpt><trkpt lat="44.07793500020276" lon="11.504279251348338"><ele>815.0</ele><time>2026-04-26T11:56:20.999Z</time></trkpt><trkpt lat="44.077848308481514" lon="11.504152804730042"><ele>814.0</ele><time>2026-04-26T11:56:21.999Z</time></trkpt><trkpt lat="44.07778247125216" lon="11.504015117195042"><ele>813.0</ele><time>2026-04-26T11:56:22.999Z</time></trkpt><trkpt lat="44.07774068085981" lon="11.503883023979176"><ele>814.25</ele><time>2026-04-26T11:56:23.999Z</time></trkpt><trkpt lat="44.07773699209848" lon="11.503739747976955"><ele>815.5</ele><time>2026-04-26T11:56:24.999Z</time></trkpt><trkpt lat="44.077781031384816" lon="11.50358766135429"><ele>816.75</ele><time>2026-04-26T11:56:25.999Z</time></trkpt><trkpt lat="44.07779272937509" lon="11.503424057578007"><ele>818.0</ele><time>2026-04-26T11:56:26.999Z</time></trkpt><trkpt lat="44.07777549949262" lon="11.503267952196888"><ele>818.0</ele><time>2026-04-26T11:56:27.999Z</time></trkpt><trkpt lat="44.07773354306207" lon="11.50311334874231"><ele>818.0</ele><time>2026-04-26T11:56:28.999Z</time></trkpt><trkpt lat="44.07765668401336" lon="11.50297534670905"><ele>818.0</ele><time>2026-04-26T11:56:29.999Z</time></trkpt><trkpt lat="44.07755822973578" lon="11.502848001501738"><ele>818.0</ele><time>2026-04-26T11:56:30.999Z</time></trkpt><trkpt lat="44.077449065712656" lon="11.502714303037918"><ele>819.5</ele><time>2026-04-26T11:56:31.999Z</time></trkpt><trkpt lat="44.07735924642316" lon="11.502570069281264"><ele>821.0</ele><time>2026-04-26T11:56:32.999Z</time></trkpt><trkpt lat="44.077271705524545" lon="11.50243361654404"><ele>822.5</ele><time>2026-04-26T11:56:33.999Z</time></trkpt><trkpt lat="44.07717882933847" lon="11.502331295728977"><ele>824.0</ele><time>2026-04-26T11:56:34.999Z</time></trkpt><trkpt lat="44.077072174104124" lon="11.502282251009863"><ele>824.0</ele><time>2026-04-26T11:56:35.999Z</time></trkpt><trkpt lat="44.07695412446746" lon="11.502275582503119"><ele>824.0</ele><time>2026-04-26T11:56:36.999Z</time></trkpt><trkpt lat="44.07683365020434" lon="11.502293682667213"><ele>824.0</ele><time>2026-04-26T11:56:37.999Z</time></trkpt><trkpt lat="44.07672708602747" lon="11.50226501852942"><ele>824.0</ele><time>2026-04-26T11:56:38.999Z</time></trkpt><trkpt lat="44.07664773309835" lon="11.502204730954876"><ele>824.0</ele><time>2026-04-26T11:56:39.999Z</time></trkpt><trkpt lat="44.076580387204196" lon="11.502114597609957"><ele>822.0</ele><time>2026-04-26T11:56:40.999Z</time></trkpt><trkpt lat="44.076582523056075" lon="11.501941600031136"><ele>820.0</ele><time>2026-04-26T11:56:41.999Z</time></trkpt><trkpt lat="44.07654030296004" lon="11.501790813952109"><ele>818.0</ele><time>2026-04-26T11:56:42.999Z</time></trkpt><trkpt lat="44.07646055882319" lon="11.501653345461126"><ele>816.0</ele><time>2026-04-26T11:56:43.999Z</time></trkpt><trkpt lat="44.076363647745296" lon="11.50152487422778"><ele>816.0</ele><time>2026-04-26T11:56:44.999Z</time></trkpt><trkpt lat="44.07624940276751" lon="11.501417864759006"><ele>816.0</ele><time>2026-04-26T11:56:45.999Z</time></trkpt><trkpt lat="44.07616570579335" lon="11.501284229010572"><ele>816.0</ele><time>2026-04-26T11:56:46.999Z</time></trkpt><trkpt lat="44.076092326771956" lon="11.501165580388077"><ele>816.0</ele><time>2026-04-26T11:56:47.999Z</time></trkpt><trkpt lat="44.076078397633154" lon="11.501033315204284"><ele>821.8</ele><time>2026-04-26T11:56:48.999Z</time></trkpt><trkpt lat="44.076063761898766" lon="11.500882579097553"><ele>827.5999999999999</ele><time>2026-04-26T11:56:49.999Z</time></trkpt><trkpt lat="44.076033162721316" lon="11.50076334095921"><ele>833.4</ele><time>2026-04-26T11:56:51Z</time></trkpt><trkpt lat="44.07595343039579" lon="11.500673049656744"><ele>839.2</ele><time>2026-04-26T11:56:52Z</time></trkpt><trkpt lat="44.07586405988543" lon="11.500585871935133"><ele>845.0</ele><time>2026-04-26T11:56:53Z</time></trkpt><trkpt lat="44.07577954464243" lon="11.500477859427306"><ele>841.4</ele><time>2026-04-26T11:56:54Z</time></trkpt><trkpt lat="44.07569882481436" lon="11.500371361720715"><ele>837.8</ele><time>2026-04-26T11:56:55Z</time></trkpt><trkpt lat="44.07564028216599" lon="11.500246620202123"><ele>834.2</ele><time>2026-04-26T11:56:56Z</time></trkpt><trkpt lat="44.07561494076181" lon="11.500091695611074"><ele>830.6</ele><time>2026-04-26T11:56:57Z</time></trkpt><trkpt lat="44.07562596563738" lon="11.499930388444662"><ele>827.0</ele><time>2026-04-26T11:56:58Z</time></trkpt><trkpt lat="44.075639988851364" lon="11.499767927373226"><ele>827.0</ele><time>2026-04-26T11:56:59Z</time></trkpt><trkpt lat="44.075639247084425" lon="11.49961688337753"><ele>827.0</ele><time>2026-04-26T11:57:00Z</time></trkpt><trkpt lat="44.07563989507108" lon="11.499482799224976"><ele>827.0</ele><time>2026-04-26T11:57:01Z</time></trkpt><trkpt lat="44.07561025921023" lon="11.499361207832514"><ele>827.0</ele><time>2026-04-26T11:57:02Z</time></trkpt><trkpt lat="44.075547495943646" lon="11.499263416798335"><ele>827.0</ele><time>2026-04-26T11:57:03Z</time></trkpt><trkpt lat="44.07545604826132" lon="11.499202288366018"><ele>834.0</ele><time>2026-04-26T11:57:04Z</time></trkpt><trkpt lat="44.07533489431002" lon="11.499191837234592"><ele>841.0</ele><time>2026-04-26T11:57:05Z</time></trkpt><trkpt lat="44.07521377803368" lon="11.499184090353749"><ele>848.0</ele><time>2026-04-26T11:57:06Z</time></trkpt><trkpt lat="44.07510687476949" lon="11.499130337889545"><ele>855.0</ele><time>2026-04-26T11:57:07Z</time></trkpt><trkpt lat="44.07501051196915" lon="11.499013097293483"><ele>853.75</ele><time>2026-04-26T11:57:08Z</time></trkpt><trkpt lat="44.074912812378216" lon="11.49888368513064"><ele>852.5</ele><time>2026-04-26T11:57:09Z</time></trkpt><trkpt lat="44.07479529103026" lon="11.498772553822883"><ele>851.25</ele><time>2026-04-26T11:57:10Z</time></trkpt><trkpt lat="44.07468914433783" lon="11.498635275038623"><ele>850.0</ele><time>2026-04-26T11:57:11Z</time></trkpt><trkpt lat="44.07458250915383" lon="11.49851566947679"><ele>855.8</ele><time>2026-04-26T11:57:12Z</time></trkpt><trkpt lat="44.074489331509646" lon="11.498401351714014"><ele>861.6</ele><time>2026-04-26T11:57:13Z</time></trkpt><trkpt lat="44.074399286678094" lon="11.498306546961919"><ele>867.4000000000001</ele><time>2026-04-26T11:57:14Z</time></trkpt><trkpt lat="44.07431516722376" lon="11.498224260461328"><ele>873.2</ele><time>2026-04-26T11:57:15Z</time></trkpt><trkpt lat="44.074221204736496" lon="11.498172133822234"><ele>879.0</ele><time>2026-04-26T11:57:16Z</time></trkpt><trkpt lat="44.074125033082154" lon="11.498174149834337"><ele>885.0</ele><time>2026-04-26T11:57:17Z</time></trkpt><trkpt lat="44.07403622284374" lon="11.498232902814086"><ele>891.0000000000001</ele><time>2026-04-26T11:57:18Z</time></trkpt><trkpt lat="44.07396415384606" lon="11.498324474945088"><ele>897.0000000000001</ele><time>2026-04-26T11:57:19Z</time></trkpt><trkpt lat="44.07391527039997" lon="11.498451167170947"><ele>903.0</ele><time>2026-04-26T11:57:20Z</time></trkpt><trkpt lat="44.07386604397781" lon="11.498594234563788"><ele>909.0</ele><time>2026-04-26T11:57:21Z</time></trkpt><trkpt lat="44.07378143847173" lon="11.498701747272213"><ele>901.25</ele><time>2026-04-26T11:57:22Z</time></trkpt><trkpt lat="44.07371242000002" lon="11.498818554256294"><ele>893.5</ele><time>2026-04-26T11:57:23Z</time></trkpt><trkpt lat="44.07366164521285" lon="11.498956723728169"><ele>885.75</ele><time>2026-04-26T11:57:24Z</time></trkpt><trkpt lat="44.07364518061016" lon="11.499132236397921"><ele>878.0</ele><time>2026-04-26T11:57:25Z</time></trkpt><trkpt lat="44.07363981703472" lon="11.49930680652429"><ele>878.0</ele><time>2026-04-26T11:57:26Z</time></trkpt><trkpt lat="44.073631347609705" lon="11.499482566323067"><ele>878.0</ele><time>2026-04-26T11:57:27Z</time></trkpt><trkpt lat="44.073605095232026" lon="11.499638892375867"><ele>878.0</ele><time>2026-04-26T11:57:28Z</time></trkpt><trkpt lat="44.07359139131528" lon="11.499771270912879"><ele>878.0</ele><time>2026-04-26T11:57:29Z</time></trkpt><trkpt lat="44.07358253486152" lon="11.499885009167738"><ele>878.0</ele><time>2026-04-26T11:57:30Z</time></trkpt><trkpt lat="44.073522756569936" lon="11.499947039315527"><ele>878.0</ele><time>2026-04-26T11:57:31Z</time></trkpt><trkpt lat="44.073448655329564" lon="11.499946505692455"><ele>878.0</ele><time>2026-04-26T11:57:32Z</time></trkpt><trkpt lat="44.073385820539876" lon="11.49987891736379"><ele>878.0</ele><time>2026-04-26T11:57:33Z</time></trkpt><trkpt lat="44.0733704347153" lon="11.499744283876932"><ele>878.0</ele><time>2026-04-26T11:57:34Z</time></trkpt><trkpt lat="44.07337666238638" lon="11.499593145938345"><ele>878.0</ele><time>2026-04-26T11:57:35Z</time></trkpt><trkpt lat="44.07341546403906" lon="11.499440083274106"><ele>878.0</ele><time>2026-04-26T11:57:36Z</time></trkpt><trkpt lat="44.073429882676066" lon="11.49926242026742"><ele>878.0</ele><time>2026-04-26T11:57:37Z</time></trkpt><trkpt lat="44.0734587432501" lon="11.499086769154335"><ele>878.0</ele><time>2026-04-26T11:57:38Z</time></trkpt><trkpt lat="44.07348767380519" lon="11.498914974104808"><ele>878.0</ele><time>2026-04-26T11:57:39Z</time></trkpt><trkpt lat="44.07351714001998" lon="11.4987553556901"><ele>885.75</ele><time>2026-04-26T11:57:40Z</time></trkpt><trkpt lat="44.073566892157544" lon="11.498612792497273"><ele>893.5</ele><time>2026-04-26T11:57:41Z</time></trkpt><trkpt lat="44.07366304989225" lon="11.498505094594499"><ele>901.25</ele><time>2026-04-26T11:57:42Z</time></trkpt><trkpt lat="44.07369775099588" lon="11.498351844542087"><ele>909.0</ele><time>2026-04-26T11:57:43Z</time></trkpt><trkpt lat="44.073726188789784" lon="11.498193745085274"><ele>909.0</ele><time>2026-04-26T11:57:44Z</time></trkpt><trkpt lat="44.07374815489293" lon="11.498029959190674"><ele>909.0</ele><time>2026-04-26T11:57:45Z</time></trkpt><trkpt lat="44.07380660336282" lon="11.49790231113271"><ele>909.0</ele><time>2026-04-26T11:57:46Z</time></trkpt><trkpt lat="44.07394416553322" lon="11.497860038678446"><ele>909.0</ele><time>2026-04-26T11:57:47Z</time></trkpt><trkpt lat="44.07404621449066" lon="11.497818841950734"><ele>910.75</ele><time>2026-04-26T11:57:48Z</time></trkpt><trkpt lat="44.07416609824448" lon="11.497762157327713"><ele>912.5</ele><time>2026-04-26T11:57:49Z</time></trkpt><trkpt lat="44.07428726351885" lon="11.497705495937229"><ele>914.25</ele><time>2026-04-26T11:57:50Z</time></trkpt><trkpt lat="44.07440689370227" lon="11.49765877169931"><ele>916.0</ele><time>2026-04-26T11:57:51Z</time></trkpt><trkpt lat="44.07453327644795" lon="11.497679275120877"><ele>916.0</ele><time>2026-04-26T11:57:52Z</time></trkpt><trkpt lat="44.07465080806963" lon="11.497780718415664"><ele>916.0</ele><time>2026-04-26T11:57:53Z</time></trkpt><trkpt lat="44.07475943046984" lon="11.497882109234235"><ele>916.0</ele><time>2026-04-26T11:57:54Z</time></trkpt><trkpt lat="44.07488248950364" lon="11.497968651763806"><ele>916.0</ele><time>2026-04-26T11:57:55Z</time></trkpt><trkpt lat="44.07498565918305" lon="11.498079734461177"><ele>909.5</ele><time>2026-04-26T11:57:56Z</time></trkpt><trkpt lat="44.07512836645372" lon="11.498089105561675"><ele>903.0</ele><time>2026-04-26T11:57:57Z</time></trkpt><trkpt lat="44.07526718051704" lon="11.498098939194303"><ele>896.5</ele><time>2026-04-26T11:57:58Z</time></trkpt><trkpt lat="44.075372575841996" lon="11.498201139874219"><ele>890.0</ele><time>2026-04-26T11:57:59Z</time></trkpt><trkpt lat="44.07549541687889" lon="11.498297623335507"><ele>890.0</ele><time>2026-04-26T11:58:00Z</time></trkpt><trkpt lat="44.07563782805792" lon="11.49833065628362"><ele>890.0</ele><time>2026-04-26T11:58:01Z</time></trkpt><trkpt lat="44.07578665775202" lon="11.498340355499344"><ele>890.0</ele><time>2026-04-26T11:58:02Z</time></trkpt><trkpt lat="44.075921163394085" lon="11.498390854567521"><ele>890.0</ele><time>2026-04-26T11:58:03Z</time></trkpt><trkpt lat="44.07604488509533" lon="11.498461000703674"><ele>891.8</ele><time>2026-04-26T11:58:04Z</time></trkpt><trkpt lat="44.07615785156879" lon="11.498561504391395"><ele>893.6</ele><time>2026-04-26T11:58:05Z</time></trkpt><trkpt lat="44.07624967522759" lon="11.498675484139603"><ele>895.4000000000001</ele><time>2026-04-26T11:58:06Z</time></trkpt><trkpt lat="44.0763356226186" lon="11.498764348251958"><ele>897.2</ele><time>2026-04-26T11:58:07Z</time></trkpt><trkpt lat="44.07640048062838" lon="11.498838922705737"><ele>899.0</ele><time>2026-04-26T11:58:08Z</time></trkpt><trkpt lat="44.07647266577246" lon="11.498855362487857"><ele>899.0</ele><time>2026-04-26T11:58:09Z</time></trkpt><trkpt lat="44.076544033663694" lon="11.498827746451862"><ele>899.0000000000001</ele><time>2026-04-26T11:58:10Z</time></trkpt><trkpt lat="44.076591002223836" lon="11.498691929223018"><ele>899.0000000000001</ele><time>2026-04-26T11:58:11Z</time></trkpt><trkpt lat="44.07657210723424" lon="11.498535373124376"><ele>899.0</ele><time>2026-04-26T11:58:12Z</time></trkpt><trkpt lat="44.07652564471796" lon="11.498397606719044"><ele>899.0</ele><time>2026-04-26T11:58:13Z</time></trkpt><trkpt lat="44.07644083457432" lon="11.498290990092736"><ele>899.0</ele><time>2026-04-26T11:58:14Z</time></trkpt><trkpt lat="44.07631827283432" lon="11.498244863920121"><ele>899.0</ele><time>2026-04-26T11:58:15Z</time></trkpt><trkpt lat="44.07617135883599" lon="11.498231468714405"><ele>899.0</ele><time>2026-04-26T11:58:16Z</time></trkpt><trkpt lat="44.07601984329378" lon="11.498190049585483"><ele>899.0</ele><time>2026-04-26T11:58:17Z</time></trkpt><trkpt lat="44.0758857856336" lon="11.498097130532294"><ele>896.0</ele><time>2026-04-26T11:58:18Z</time></trkpt><trkpt lat="44.07576128307287" lon="11.497968153370598"><ele>893.0</ele><time>2026-04-26T11:58:19Z</time></trkpt><trkpt lat="44.07563366576927" lon="11.497847867991107"><ele>890.0</ele><time>2026-04-26T11:58:20Z</time></trkpt><trkpt lat="44.075506082872494" lon="11.497756290317565"><ele>896.25</ele><time>2026-04-26T11:58:21Z</time></trkpt><trkpt lat="44.075370832556246" lon="11.497704974928165"><ele>902.5</ele><time>2026-04-26T11:58:22Z</time></trkpt><trkpt lat="44.07524152476568" lon="11.497706477700875"><ele>908.75</ele><time>2026-04-26T11:58:23Z</time></trkpt><trkpt lat="44.07512833138265" lon="11.497709646711343"><ele>915.0</ele><time>2026-04-26T11:58:24Z</time></trkpt><trkpt lat="44.07502688150032" lon="11.497661394442375"><ele>915.0</ele><time>2026-04-26T11:58:25Z</time></trkpt><trkpt lat="44.074949894732825" lon="11.497530477863103"><ele>915.0</ele><time>2026-04-26T11:58:26Z</time></trkpt><trkpt lat="44.07484991630759" lon="11.497392692539842"><ele>915.0</ele><time>2026-04-26T11:58:27Z</time></trkpt><trkpt lat="44.07476314139467" lon="11.49726997358915"><ele>915.0</ele><time>2026-04-26T11:58:28Z</time></trkpt><trkpt lat="44.07467049548026" lon="11.497151988918754"><ele>915.25</ele><time>2026-04-26T11:58:29Z</time></trkpt><trkpt lat="44.07455504466801" lon="11.49706824528471"><ele>915.5</ele><time>2026-04-26T11:58:30Z</time></trkpt><trkpt lat="44.074431976508535" lon="11.497045619107855"><ele>915.75</ele><time>2026-04-26T11:58:31Z</time></trkpt><trkpt lat="44.07429735151521" lon="11.497083898669722"><ele>916.0</ele><time>2026-04-26T11:58:32Z</time></trkpt><trkpt lat="44.074166951933314" lon="11.497115187783997"><ele>920.75</ele><time>2026-04-26T11:58:33Z</time></trkpt><trkpt lat="44.07404542623209" lon="11.497116104718451"><ele>925.5</ele><time>2026-04-26T11:58:34Z</time></trkpt><trkpt lat="44.07392827968634" lon="11.497092836343203"><ele>930.25</ele><time>2026-04-26T11:58:35Z</time></trkpt><trkpt lat="44.07381363495913" lon="11.497073506000346"><ele>935.0</ele><time>2026-04-26T11:58:36Z</time></trkpt><trkpt lat="44.07370293823191" lon="11.497086589212282"><ele>935.0</ele><time>2026-04-26T11:58:37Z</time></trkpt><trkpt lat="44.07359962786635" lon="11.49714241757944"><ele>935.0</ele><time>2026-04-26T11:58:38Z</time></trkpt><trkpt lat="44.07350827547201" lon="11.49723784804037"><ele>935.0</ele><time>2026-04-26T11:58:39Z</time></trkpt><trkpt lat="44.07343382073811" lon="11.497356759882498"><ele>935.0</ele><time>2026-04-26T11:58:40Z</time></trkpt><trkpt lat="44.073368316117794" lon="11.497471413326442"><ele>935.0</ele><time>2026-04-26T11:58:41Z</time></trkpt><trkpt lat="44.07331544091214" lon="11.497568495786116"><ele>933.8333333333334</ele><time>2026-04-26T11:58:42Z</time></trkpt><trkpt lat="44.07325257718441" lon="11.497635313402728"><ele>932.6666666666667</ele><time>2026-04-26T11:58:43Z</time></trkpt><trkpt lat="44.07317678477149" lon="11.49766365329497"><ele>931.5</ele><time>2026-04-26T11:58:44Z</time></trkpt><trkpt lat="44.07309887320343" lon="11.497653325182972"><ele>930.3333333333333</ele><time>2026-04-26T11:58:45Z</time></trkpt><trkpt lat="44.07302745205084" lon="11.49758927451458"><ele>929.1666666666666</ele><time>2026-04-26T11:58:46Z</time></trkpt><trkpt lat="44.0729841878023" lon="11.497492132596953"><ele>928.0</ele><time>2026-04-26T11:58:47Z</time></trkpt><trkpt lat="44.0729441640887" lon="11.497387965756541"><ele>928.0</ele><time>2026-04-26T11:58:48Z</time></trkpt><trkpt lat="44.07289886052481" lon="11.497284730897084"><ele>928.0</ele><time>2026-04-26T11:58:49Z</time></trkpt><trkpt lat="44.07284647803114" lon="11.497172897323235"><ele>928.0</ele><time>2026-04-26T11:58:49.999Z</time></trkpt><trkpt lat="44.072802038500384" lon="11.497041771315478"><ele>928.0</ele><time>2026-04-26T11:58:50.999Z</time></trkpt><trkpt lat="44.07274615701854" lon="11.496919387027086"><ele>928.0</ele><time>2026-04-26T11:58:51.999Z</time></trkpt><trkpt lat="44.072721341983716" lon="11.49677845100473"><ele>931.5</ele><time>2026-04-26T11:58:52.999Z</time></trkpt><trkpt lat="44.072733463743816" lon="11.496616605975158"><ele>935.0</ele><time>2026-04-26T11:58:53.999Z</time></trkpt><trkpt lat="44.07273952956454" lon="11.496448631453477"><ele>938.5</ele><time>2026-04-26T11:58:54.999Z</time></trkpt><trkpt lat="44.07271045435124" lon="11.496277043252634"><ele>942.0</ele><time>2026-04-26T11:58:55.999Z</time></trkpt><trkpt lat="44.0726489586676" lon="11.496101428533844"><ele>938.25</ele><time>2026-04-26T11:58:57.001Z</time></trkpt><trkpt lat="44.0725692067821" lon="11.495926240900857"><ele>934.5</ele><time>2026-04-26T11:58:58.001Z</time></trkpt><trkpt lat="44.072494439197705" lon="11.495759259377468"><ele>930.75</ele><time>2026-04-26T11:58:59.001Z</time></trkpt><trkpt lat="44.072418169066374" lon="11.495591229105637"><ele>927.0</ele><time>2026-04-26T11:59:00.001Z</time></trkpt><trkpt lat="44.072348348467" lon="11.495414454765196"><ele>935.0</ele><time>2026-04-26T11:59:01.001Z</time></trkpt><trkpt lat="44.07223550381882" lon="11.495280218939048"><ele>943.0</ele><time>2026-04-26T11:59:02.001Z</time></trkpt><trkpt lat="44.072144347285175" lon="11.495136166876355"><ele>951.0</ele><time>2026-04-26T11:59:03.001Z</time></trkpt><trkpt lat="44.072084720226485" lon="11.494982571997943"><ele>959.0</ele><time>2026-04-26T11:59:04.001Z</time></trkpt><trkpt lat="44.0720307237136" lon="11.494847837201071"><ele>959.0</ele><time>2026-04-26T11:59:05.001Z</time></trkpt><trkpt lat="44.071948030494724" lon="11.494728028447495"><ele>959.0</ele><time>2026-04-26T11:59:06.001Z</time></trkpt><trkpt lat="44.07187329524794" lon="11.494654995185432"><ele>959.0</ele><time>2026-04-26T11:59:07.001Z</time></trkpt><trkpt lat="44.071751519122614" lon="11.494639133238254"><ele>959.0</ele><time>2026-04-26T11:59:08.001Z</time></trkpt><trkpt lat="44.07163367012831" lon="11.494621242654615"><ele>964.0</ele><time>2026-04-26T11:59:09.001Z</time></trkpt><trkpt lat="44.071523675097104" lon="11.494547828697776"><ele>969.0</ele><time>2026-04-26T11:59:10.001Z</time></trkpt><trkpt lat="44.07144479790666" lon="11.49440527041459"><ele>974.0</ele><time>2026-04-26T11:59:11Z</time></trkpt><trkpt lat="44.071340837669126" lon="11.49428635472792"><ele>979.0</ele><time>2026-04-26T11:59:12Z</time></trkpt><trkpt lat="44.07124576538531" lon="11.49415858906404"><ele>979.0</ele><time>2026-04-26T11:59:13Z</time></trkpt><trkpt lat="44.071138395859194" lon="11.494055713353509"><ele>979.0</ele><time>2026-04-26T11:59:14Z</time></trkpt><trkpt lat="44.07105243640767" lon="11.493974506660786"><ele>979.0</ele><time>2026-04-26T11:59:15Z</time></trkpt><trkpt lat="44.070936650901764" lon="11.493894229057192"><ele>979.0</ele><time>2026-04-26T11:59:16Z</time></trkpt><trkpt lat="44.07083646488217" lon="11.493829209729142"><ele>989.0</ele><time>2026-04-26T11:59:17Z</time></trkpt><trkpt lat="44.07074232824257" lon="11.493796503671275"><ele>999.0000000000001</ele><time>2026-04-26T11:59:18Z</time></trkpt><trkpt lat="44.07064597019067" lon="11.493819712759608"><ele>1009.0000000000001</ele><time>2026-04-26T11:59:19Z</time></trkpt><trkpt lat="44.070554477981766" lon="11.493902351906158"><ele>1019.0</ele><time>2026-04-26T11:59:20Z</time></trkpt><trkpt lat="44.070478249162484" lon="11.494040725131082"><ele>1029.0</ele><time>2026-04-26T11:59:21Z</time></trkpt><trkpt lat="44.07042168117615" lon="11.494196116482385"><ele>1029.0</ele><time>2026-04-26T11:59:22Z</time></trkpt><trkpt lat="44.07035619161982" lon="11.494347324822252"><ele>1029.0</ele><time>2026-04-26T11:59:23Z</time></trkpt><trkpt lat="44.07028908352376" lon="11.494495045036187"><ele>1029.0</ele><time>2026-04-26T11:59:24Z</time></trkpt><trkpt lat="44.07023215385513" lon="11.494645015373768"><ele>1029.0</ele><time>2026-04-26T11:59:25Z</time></trkpt><trkpt lat="44.07020708600057" lon="11.494805692496724"><ele>1021.4000000000001</ele><time>2026-04-26T11:59:26Z</time></trkpt><trkpt lat="44.07020286518511" lon="11.494968314651532"><ele>1013.8000000000001</ele><time>2026-04-26T11:59:27Z</time></trkpt><trkpt lat="44.07019140330927" lon="11.495120719281257"><ele>1006.1999999999999</ele><time>2026-04-26T11:59:28Z</time></trkpt><trkpt lat="44.07012199287063" lon="11.4952299329635"><ele>998.5999999999999</ele><time>2026-04-26T11:59:29Z</time></trkpt><trkpt lat="44.07006175356043" lon="11.495358116778819"><ele>991.0</ele><time>2026-04-26T11:59:30Z</time></trkpt><trkpt lat="44.06996281233515" lon="11.495419177379551"><ele>987.5999999999999</ele><time>2026-04-26T11:59:31Z</time></trkpt><trkpt lat="44.06988045184438" lon="11.49545297357271"><ele>984.1999999999999</ele><time>2026-04-26T11:59:32Z</time></trkpt><trkpt lat="44.069776930313246" lon="11.495396698161187"><ele>980.8000000000001</ele><time>2026-04-26T11:59:33Z</time></trkpt><trkpt lat="44.06967996193142" lon="11.495326296200167"><ele>977.4000000000001</ele><time>2026-04-26T11:59:34Z</time></trkpt><trkpt lat="44.0695764681182" lon="11.495258447894944"><ele>974.0</ele><time>2026-04-26T11:59:35Z</time></trkpt><trkpt lat="44.069484511593764" lon="11.495184239094522"><ele>981.3333333333334</ele><time>2026-04-26T11:59:36Z</time></trkpt><trkpt lat="44.06939785117069" lon="11.495121440721013"><ele>988.6666666666667</ele><time>2026-04-26T11:59:37Z</time></trkpt><trkpt lat="44.06933020954141" lon="11.495063364432207"><ele>996.0</ele><time>2026-04-26T11:59:38Z</time></trkpt><trkpt lat="44.06926560976934" lon="11.49492551480617"><ele>1003.3333333333333</ele><time>2026-04-26T11:59:40Z</time></trkpt><trkpt lat="44.06927537850542" lon="11.494826163335135"><ele>1010.6666666666666</ele><time>2026-04-26T11:59:41Z</time></trkpt><trkpt lat="44.06932197253318" lon="11.494741773551276"><ele>1018.0</ele><time>2026-04-26T11:59:42Z</time></trkpt><trkpt lat="44.06941679534166" lon="11.494718033964014"><ele>1017.9999999999999</ele><time>2026-04-26T11:59:43Z</time></trkpt><trkpt lat="44.069493893902795" lon="11.494762312559745"><ele>1018.0</ele><time>2026-04-26T11:59:44Z</time></trkpt><trkpt lat="44.0695479166813" lon="11.494843071275012"><ele>1018.0</ele><time>2026-04-26T11:59:45Z</time></trkpt><trkpt lat="44.0696219489132" lon="11.494897390492513"><ele>1018.0</ele><time>2026-04-26T11:59:46Z</time></trkpt><trkpt lat="44.06969295907512" lon="11.494937355129865"><ele>1017.9999999999999</ele><time>2026-04-26T11:59:47Z</time></trkpt><trkpt lat="44.069747752754516" lon="11.494990440686141"><ele>1018.0</ele><time>2026-04-26T11:59:48Z</time></trkpt><trkpt lat="44.06983609153566" lon="11.495017854837885"><ele>1017.9999999999999</ele><time>2026-04-26T11:59:50Z</time></trkpt><trkpt lat="44.069900241533844" lon="11.495008390465077"><ele>1018.0</ele><time>2026-04-26T11:59:53Z</time></trkpt><trkpt lat="44.069949322837516" lon="11.494947305440792"><ele>1018.0</ele><time>2026-04-26T11:59:58Z</time></trkpt><trkpt lat="44.069920421637114" lon="11.495054239262288"><ele>1018.0</ele><time>2026-04-26T12:00:33Z</time></trkpt><trkpt lat="44.069971801541215" lon="11.495192652904684"><ele>1017.9999999999999</ele><time>2026-04-26T12:00:44Z</time></trkpt><trkpt lat="44.069933174709874" lon="11.495116187581859"><ele>1018.0</ele><time>2026-04-26T12:01:44.999Z</time></trkpt><trkpt lat="44.069922306274464" lon="11.495026497054887"><ele>1017.9999999999999</ele><time>2026-04-26T12:01:51.999Z</time></trkpt><trkpt lat="44.069927114818455" lon="11.494931081070822"><ele>1018.0</ele><time>2026-04-26T12:03:58.999Z</time></trkpt><trkpt lat="44.069969405341354" lon="11.494851316326978"><ele>1018.0</ele><time>2026-04-26T12:04:01.999Z</time></trkpt><trkpt lat="44.06998814256505" lon="11.494726693871455"><ele>1018.0</ele><time>2026-04-26T12:04:03.999Z</time></trkpt><trkpt lat="44.0700214864215" lon="11.494559259219884"><ele>1017.9999999999999</ele><time>2026-04-26T12:04:05.999Z</time></trkpt><trkpt lat="44.070065780266745" lon="11.494465906884347"><ele>1018.0</ele><time>2026-04-26T12:04:06.999Z</time></trkpt><trkpt lat="44.07008341164759" lon="11.49435483952394"><ele>1020.2</ele><time>2026-04-26T12:04:07.999Z</time></trkpt><trkpt lat="44.07010325485193" lon="11.494233672909651"><ele>1022.4</ele><time>2026-04-26T12:04:08.999Z</time></trkpt><trkpt lat="44.07012500411698" lon="11.494108155986801"><ele>1024.6000000000001</ele><time>2026-04-26T12:04:09.999Z</time></trkpt><trkpt lat="44.07015218145239" lon="11.493985814280931"><ele>1026.8</ele><time>2026-04-26T12:04:10.999Z</time></trkpt><trkpt lat="44.07019037368553" lon="11.49387673332396"><ele>1029.0</ele><time>2026-04-26T12:04:11.999Z</time></trkpt><trkpt lat="44.070239994086606" lon="11.493769041645004"><ele>1033.857142857143</ele><time>2026-04-26T12:04:12.999Z</time></trkpt><trkpt lat="44.07030795597866" lon="11.493678397206823"><ele>1038.7142857142858</ele><time>2026-04-26T12:04:13.999Z</time></trkpt><trkpt lat="44.07035357129067" lon="11.493588669257075"><ele>1043.5714285714284</ele><time>2026-04-26T12:04:14.999Z</time></trkpt><trkpt lat="44.07038826758557" lon="11.493497203447527"><ele>1048.4285714285716</ele><time>2026-04-26T12:04:15.999Z</time></trkpt><trkpt lat="44.07042089927889" lon="11.493411718210984"><ele>1053.2857142857142</ele><time>2026-04-26T12:04:16.999Z</time></trkpt><trkpt lat="44.07045758674384" lon="11.493339137476337"><ele>1058.142857142857</ele><time>2026-04-26T12:04:17.999Z</time></trkpt><trkpt lat="44.07050199522696" lon="11.493270048610567"><ele>1063.0</ele><time>2026-04-26T12:04:18.999Z</time></trkpt><trkpt lat="44.070550569653435" lon="11.493201052247239"><ele>1063.0</ele><time>2026-04-26T12:04:19.999Z</time></trkpt><trkpt lat="44.0706018495328" lon="11.493132122225212"><ele>1063.0</ele><time>2026-04-26T12:04:20.999Z</time></trkpt><trkpt lat="44.07066097722139" lon="11.493055490819543"><ele>1063.0</ele><time>2026-04-26T12:04:21.999Z</time></trkpt><trkpt lat="44.07072347726935" lon="11.492978412412254"><ele>1063.0</ele><time>2026-04-26T12:04:22.999Z</time></trkpt><trkpt lat="44.070788021524415" lon="11.492899469281966"><ele>1063.0</ele><time>2026-04-26T12:04:23.999Z</time></trkpt><trkpt lat="44.07085213000515" lon="11.492832183628511"><ele>1063.0</ele><time>2026-04-26T12:04:24.999Z</time></trkpt><trkpt lat="44.070941559771235" lon="11.492879952169794"><ele>1054.4</ele><time>2026-04-26T12:04:25.999Z</time></trkpt><trkpt lat="44.07102802923875" lon="11.4929416628206"><ele>1045.8</ele><time>2026-04-26T12:04:26.999Z</time></trkpt><trkpt lat="44.071117140126184" lon="11.493033747723082"><ele>1037.2</ele><time>2026-04-26T12:04:27.999Z</time></trkpt><trkpt lat="44.07120470259746" lon="11.493133158520328"><ele>1028.6</ele><time>2026-04-26T12:04:28.999Z</time></trkpt><trkpt lat="44.07130436651973" lon="11.493197648858962"><ele>1020.0</ele><time>2026-04-26T12:04:29.999Z</time></trkpt><trkpt lat="44.071401526732885" lon="11.493260193235784"><ele>1020.0</ele><time>2026-04-26T12:04:30.999Z</time></trkpt><trkpt lat="44.07150191791753" lon="11.49330472574644"><ele>1020.0</ele><time>2026-04-26T12:04:31.999Z</time></trkpt><trkpt lat="44.07159379226897" lon="11.493340891471075"><ele>1020.0</ele><time>2026-04-26T12:04:32.999Z</time></trkpt><trkpt lat="44.07167354547994" lon="11.493374933522842"><ele>1020.0</ele><time>2026-04-26T12:04:33.999Z</time></trkpt><trkpt lat="44.071752129215625" lon="11.493355312197705"><ele>1020.0</ele><time>2026-04-26T12:04:34.999Z</time></trkpt><trkpt lat="44.07181849106971" lon="11.493290470919952"><ele>1020.0</ele><time>2026-04-26T12:04:35.999Z</time></trkpt><trkpt lat="44.07184970140152" lon="11.49317794632708"><ele>1019.6</ele><time>2026-04-26T12:04:36.999Z</time></trkpt><trkpt lat="44.071819194733045" lon="11.493068710022868"><ele>1019.2</ele><time>2026-04-26T12:04:37.999Z</time></trkpt><trkpt lat="44.07176632005709" lon="11.492986805574414"><ele>1018.8</ele><time>2026-04-26T12:04:38.999Z</time></trkpt><trkpt lat="44.071687935917744" lon="11.492916621035318"><ele>1018.4</ele><time>2026-04-26T12:04:39.999Z</time></trkpt><trkpt lat="44.07160695538072" lon="11.49283723183338"><ele>1018.0</ele><time>2026-04-26T12:04:40.999Z</time></trkpt><trkpt lat="44.0715259380162" lon="11.49273519040443"><ele>1024.6</ele><time>2026-04-26T12:04:41.999Z</time></trkpt><trkpt lat="44.07145137172297" lon="11.492610118543993"><ele>1031.1999999999998</ele><time>2026-04-26T12:04:42.999Z</time></trkpt><trkpt lat="44.07139371969119" lon="11.492484629259403"><ele>1037.8</ele><time>2026-04-26T12:04:43.999Z</time></trkpt><trkpt lat="44.07134198787088" lon="11.492351763911856"><ele>1044.3999999999999</ele><time>2026-04-26T12:04:44.999Z</time></trkpt><trkpt lat="44.07131392450954" lon="11.492209965104347"><ele>1051.0</ele><time>2026-04-26T12:04:45.999Z</time></trkpt><trkpt lat="44.071282446208514" lon="11.492050892814458"><ele>1056.75</ele><time>2026-04-26T12:04:46.999Z</time></trkpt><trkpt lat="44.07128353524969" lon="11.491882556219181"><ele>1062.5</ele><time>2026-04-26T12:04:47.999Z</time></trkpt><trkpt lat="44.07130934486242" lon="11.491726974897762"><ele>1068.25</ele><time>2026-04-26T12:04:48.999Z</time></trkpt><trkpt lat="44.0713534043034" lon="11.491581755224436"><ele>1074.0</ele><time>2026-04-26T12:04:49.999Z</time></trkpt><trkpt lat="44.071394187278024" lon="11.491419514428452"><ele>1074.0</ele><time>2026-04-26T12:04:50.999Z</time></trkpt><trkpt lat="44.07142125548619" lon="11.491262020317436"><ele>1074.0</ele><time>2026-04-26T12:04:51.999Z</time></trkpt><trkpt lat="44.07141933217955" lon="11.491105994706185"><ele>1074.0</ele><time>2026-04-26T12:04:52.999Z</time></trkpt><trkpt lat="44.07135945331532" lon="11.49097868320163"><ele>1074.0</ele><time>2026-04-26T12:04:53.999Z</time></trkpt><trkpt lat="44.07128209373254" lon="11.49088585145316"><ele>1074.0</ele><time>2026-04-26T12:04:54.999Z</time></trkpt><trkpt lat="44.07118851972293" lon="11.49080691271854"><ele>1074.25</ele><time>2026-04-26T12:04:55.999Z</time></trkpt><trkpt lat="44.07112471564092" lon="11.490677230845916"><ele>1074.5</ele><time>2026-04-26T12:04:56.999Z</time></trkpt><trkpt lat="44.07111848163706" lon="11.490526620546463"><ele>1074.75</ele><time>2026-04-26T12:04:57.999Z</time></trkpt><trkpt lat="44.071134319485765" lon="11.490363813729518"><ele>1075.0</ele><time>2026-04-26T12:04:58.999Z</time></trkpt><trkpt lat="44.071146372034725" lon="11.490179153332612"><ele>1075.0</ele><time>2026-04-26T12:04:59.999Z</time></trkpt><trkpt lat="44.07115576200094" lon="11.490001923993374"><ele>1075.0</ele><time>2026-04-26T12:05:00.999Z</time></trkpt><trkpt lat="44.0711636453833" lon="11.489826607703668"><ele>1075.0</ele><time>2026-04-26T12:05:01.999Z</time></trkpt><trkpt lat="44.07116608739376" lon="11.489640515067999"><ele>1075.0</ele><time>2026-04-26T12:05:02.999Z</time></trkpt><trkpt lat="44.0711488925941" lon="11.48946529310025"><ele>1074.25</ele><time>2026-04-26T12:05:03.999Z</time></trkpt><trkpt lat="44.07109189179258" lon="11.489299097305132"><ele>1073.5</ele><time>2026-04-26T12:05:04.999Z</time></trkpt><trkpt lat="44.07103765797143" lon="11.489147122102688"><ele>1072.75</ele><time>2026-04-26T12:05:05.999Z</time></trkpt><trkpt lat="44.070971185669556" lon="11.489013296123176"><ele>1072.0</ele><time>2026-04-26T12:05:06.999Z</time></trkpt><trkpt lat="44.07094806670396" lon="11.488871656509298"><ele>1074.2</ele><time>2026-04-26T12:05:07.999Z</time></trkpt><trkpt lat="44.07092922989553" lon="11.488745124239431"><ele>1076.4</ele><time>2026-04-26T12:05:08.999Z</time></trkpt><trkpt lat="44.07095993451426" lon="11.488610909983969"><ele>1078.6</ele><time>2026-04-26T12:05:09.999Z</time></trkpt><trkpt lat="44.071042658402206" lon="11.488500620446933"><ele>1080.8</ele><time>2026-04-26T12:05:10.999Z</time></trkpt><trkpt lat="44.07109579194569" lon="11.488352309101547"><ele>1083.0</ele><time>2026-04-26T12:05:11.999Z</time></trkpt><trkpt lat="44.07110643082226" lon="11.488186019823647"><ele>1083.0</ele><time>2026-04-26T12:05:12.999Z</time></trkpt><trkpt lat="44.07110274771496" lon="11.488012586888287"><ele>1083.0</ele><time>2026-04-26T12:05:13.999Z</time></trkpt><trkpt lat="44.071133254331926" lon="11.487854575321542"><ele>1083.0</ele><time>2026-04-26T12:05:15Z</time></trkpt><trkpt lat="44.07117524191443" lon="11.487723465699826"><ele>1083.0</ele><time>2026-04-26T12:05:16Z</time></trkpt><trkpt lat="44.07124715274161" lon="11.487635735789883"><ele>1083.0</ele><time>2026-04-26T12:05:17Z</time></trkpt><trkpt lat="44.07134258126571" lon="11.487590172006986"><ele>1086.75</ele><time>2026-04-26T12:05:18Z</time></trkpt><trkpt lat="44.071458565555226" lon="11.487532697301928"><ele>1090.5</ele><time>2026-04-26T12:05:19Z</time></trkpt><trkpt lat="44.07158891375766" lon="11.487468994721498"><ele>1094.25</ele><time>2026-04-26T12:05:20Z</time></trkpt><trkpt lat="44.07171825300106" lon="11.487405929178632"><ele>1098.0</ele><time>2026-04-26T12:05:21Z</time></trkpt><trkpt lat="44.07185207837279" lon="11.487341168997878"><ele>1089.25</ele><time>2026-04-26T12:05:22Z</time></trkpt><trkpt lat="44.07198419136589" lon="11.487278020645046"><ele>1080.5</ele><time>2026-04-26T12:05:23Z</time></trkpt><trkpt lat="44.072116092441036" lon="11.487199483391349"><ele>1071.75</ele><time>2026-04-26T12:05:24Z</time></trkpt><trkpt lat="44.07225115984944" lon="11.487147516497654"><ele>1063.0</ele><time>2026-04-26T12:05:25Z</time></trkpt><trkpt lat="44.07237869063884" lon="11.487125061894494"><ele>1062.8</ele><time>2026-04-26T12:05:26Z</time></trkpt><trkpt lat="44.07247921213109" lon="11.487074919874445"><ele>1062.6</ele><time>2026-04-26T12:05:27Z</time></trkpt><trkpt lat="44.07255423754098" lon="11.487022790277171"><ele>1062.4</ele><time>2026-04-26T12:05:28Z</time></trkpt><trkpt lat="44.072590745440664" lon="11.486922347196813"><ele>1062.2</ele><time>2026-04-26T12:05:29Z</time></trkpt><trkpt lat="44.072577753194075" lon="11.486798184917708"><ele>1062.0</ele><time>2026-04-26T12:05:30Z</time></trkpt><trkpt lat="44.07253950842235" lon="11.486673838792711"><ele>1062.0</ele><time>2026-04-26T12:05:31Z</time></trkpt><trkpt lat="44.07248960060318" lon="11.486544278603098"><ele>1062.0</ele><time>2026-04-26T12:05:32Z</time></trkpt><trkpt lat="44.072457132397346" lon="11.486407491563611"><ele>1062.0</ele><time>2026-04-26T12:05:33Z</time></trkpt><trkpt lat="44.07245314682456" lon="11.486239090984222"><ele>1062.0</ele><time>2026-04-26T12:05:34Z</time></trkpt><trkpt lat="44.07248678041081" lon="11.486111103168124"><ele>1062.0</ele><time>2026-04-26T12:05:35Z</time></trkpt><trkpt lat="44.07250338886042" lon="11.485975266291783"><ele>1063.6666666666667</ele><time>2026-04-26T12:05:36Z</time></trkpt><trkpt lat="44.07249277344251" lon="11.485853246658062"><ele>1065.3333333333333</ele><time>2026-04-26T12:05:37Z</time></trkpt><trkpt lat="44.072491005146155" lon="11.485749967642112"><ele>1067.0</ele><time>2026-04-26T12:05:38Z</time></trkpt><trkpt lat="44.07244283307319" lon="11.48563781353373"><ele>1068.6666666666665</ele><time>2026-04-26T12:05:40Z</time></trkpt><trkpt lat="44.07238109508382" lon="11.485596415201831"><ele>1070.3333333333333</ele><time>2026-04-26T12:05:43Z</time></trkpt><trkpt lat="44.07232720518616" lon="11.485546265841668"><ele>1072.0</ele><time>2026-04-26T12:05:46Z</time></trkpt><trkpt lat="44.0722580297394" lon="11.48549092711572"><ele>1073.4</ele><time>2026-04-26T12:05:48Z</time></trkpt><trkpt lat="44.07216777980583" lon="11.48544899861635"><ele>1074.8000000000002</ele><time>2026-04-26T12:05:50Z</time></trkpt><trkpt lat="44.07203430729256" lon="11.485438177466715"><ele>1076.2</ele><time>2026-04-26T12:05:52Z</time></trkpt><trkpt lat="44.071964658569634" lon="11.485442148279974"><ele>1077.6000000000001</ele><time>2026-04-26T12:05:53Z</time></trkpt><trkpt lat="44.071818292447" lon="11.485434127959216"><ele>1079.0</ele><time>2026-04-26T12:05:55Z</time></trkpt><trkpt lat="44.07174301702294" lon="11.48543044791344"><ele>1076.6666666666667</ele><time>2026-04-26T12:05:56Z</time></trkpt><trkpt lat="44.071666078829445" lon="11.485418499437355"><ele>1074.3333333333335</ele><time>2026-04-26T12:05:57Z</time></trkpt><trkpt lat="44.071596546467035" lon="11.485410435810005"><ele>1072.0</ele><time>2026-04-26T12:05:58Z</time></trkpt><trkpt lat="44.07152046040086" lon="11.485379644365056"><ele>1069.6666666666667</ele><time>2026-04-26T12:05:59Z</time></trkpt><trkpt lat="44.07146239755901" lon="11.48531045881338"><ele>1067.3333333333333</ele><time>2026-04-26T12:06:00Z</time></trkpt><trkpt lat="44.07141894508047" lon="11.485203332170151"><ele>1065.0</ele><time>2026-04-26T12:06:01Z</time></trkpt><trkpt lat="44.071393414674176" lon="11.485070966494265"><ele>1065.0</ele><time>2026-04-26T12:06:02Z</time></trkpt><trkpt lat="44.07140667699658" lon="11.48492786385708"><ele>1065.0</ele><time>2026-04-26T12:06:03Z</time></trkpt><trkpt lat="44.071364224384475" lon="11.484816742450125"><ele>1065.0</ele><time>2026-04-26T12:06:04Z</time></trkpt><trkpt lat="44.071298110974475" lon="11.484723375568985"><ele>1065.0</ele><time>2026-04-26T12:06:05Z</time></trkpt><trkpt lat="44.071203328602955" lon="11.484654969293548"><ele>1065.0</ele><time>2026-04-26T12:06:06Z</time></trkpt><trkpt lat="44.07109751526721" lon="11.484611387326753"><ele>1065.0</ele><time>2026-04-26T12:06:07Z</time></trkpt><trkpt lat="44.070982298950824" lon="11.48461220717205"><ele>1065.0</ele><time>2026-04-26T12:06:08Z</time></trkpt><trkpt lat="44.07086557563691" lon="11.484650194617107"><ele>1065.0</ele><time>2026-04-26T12:06:09Z</time></trkpt><trkpt lat="44.070750698818586" lon="11.484722116711314"><ele>1065.0</ele><time>2026-04-26T12:06:10Z</time></trkpt><trkpt lat="44.070635270360306" lon="11.4848035670312"><ele>1068.25</ele><time>2026-04-26T12:06:11Z</time></trkpt><trkpt lat="44.07052246626951" lon="11.48487453820822"><ele>1071.5</ele><time>2026-04-26T12:06:12Z</time></trkpt><trkpt lat="44.070413356171784" lon="11.484908706337837"><ele>1074.75</ele><time>2026-04-26T12:06:13Z</time></trkpt><trkpt lat="44.07030294771879" lon="11.484931177388063"><ele>1078.0</ele><time>2026-04-26T12:06:14Z</time></trkpt><trkpt lat="44.070199924231495" lon="11.484925345078807"><ele>1078.0</ele><time>2026-04-26T12:06:15Z</time></trkpt><trkpt lat="44.07010509708874" lon="11.484926934817853"><ele>1078.0</ele><time>2026-04-26T12:06:16Z</time></trkpt><trkpt lat="44.070029677899065" lon="11.48486524979296"><ele>1078.0</ele><time>2026-04-26T12:06:17Z</time></trkpt><trkpt lat="44.06997839131696" lon="11.484762430370845"><ele>1078.0</ele><time>2026-04-26T12:06:18Z</time></trkpt><trkpt lat="44.06996749234862" lon="11.484627223092156"><ele>1078.0</ele><time>2026-04-26T12:06:19Z</time></trkpt><trkpt lat="44.070020267529436" lon="11.484491482548096"><ele>1074.6</ele><time>2026-04-26T12:06:20Z</time></trkpt><trkpt lat="44.070042255954824" lon="11.484349738649238"><ele>1071.1999999999998</ele><time>2026-04-26T12:06:21Z</time></trkpt><trkpt lat="44.07007651913194" lon="11.484221864252275"><ele>1067.8</ele><time>2026-04-26T12:06:22Z</time></trkpt><trkpt lat="44.070087006114434" lon="11.484095321607096"><ele>1064.3999999999999</ele><time>2026-04-26T12:06:23Z</time></trkpt><trkpt lat="44.070061870837705" lon="11.483975367635892"><ele>1061.0</ele><time>2026-04-26T12:06:24Z</time></trkpt><trkpt lat="44.070004138072846" lon="11.483858132960219"><ele>1057.5</ele><time>2026-04-26T12:06:25Z</time></trkpt><trkpt lat="44.06993073683715" lon="11.483746322150209"><ele>1054.0</ele><time>2026-04-26T12:06:26Z</time></trkpt><trkpt lat="44.06983909397173" lon="11.483642243857085"><ele>1050.5</ele><time>2026-04-26T12:06:27Z</time></trkpt><trkpt lat="44.06972910023471" lon="11.483558406385228"><ele>1047.0</ele><time>2026-04-26T12:06:28Z</time></trkpt><trkpt lat="44.069608778968416" lon="11.483499785334704"><ele>1047.0</ele><time>2026-04-26T12:06:29Z</time></trkpt><trkpt lat="44.06947647645814" lon="11.483489856057163"><ele>1047.0</ele><time>2026-04-26T12:06:30Z</time></trkpt><trkpt lat="44.069343641299575" lon="11.48351862794278"><ele>1047.0</ele><time>2026-04-26T12:06:31Z</time></trkpt><trkpt lat="44.06921726755781" lon="11.483551101688134"><ele>1047.0</ele><time>2026-04-26T12:06:32Z</time></trkpt><trkpt lat="44.06908962890809" lon="11.48357629481845"><ele>1049.0</ele><time>2026-04-26T12:06:33Z</time></trkpt><trkpt lat="44.06896221944903" lon="11.483599183720292"><ele>1051.0</ele><time>2026-04-26T12:06:34Z</time></trkpt><trkpt lat="44.068840372034025" lon="11.483631611098632"><ele>1053.0</ele><time>2026-04-26T12:06:35Z</time></trkpt><trkpt lat="44.06873594923158" lon="11.48370654130792"><ele>1055.0</ele><time>2026-04-26T12:06:36Z</time></trkpt><trkpt lat="44.06864897332285" lon="11.48382226364057"><ele>1055.0</ele><time>2026-04-26T12:06:37Z</time></trkpt><trkpt lat="44.06859209148748" lon="11.483971216310705"><ele>1055.0</ele><time>2026-04-26T12:06:38Z</time></trkpt><trkpt lat="44.06856362646429" lon="11.484127784248464"><ele>1055.0</ele><time>2026-04-26T12:06:39Z</time></trkpt><trkpt lat="44.0685071738893" lon="11.4842295656941"><ele>1055.0</ele><time>2026-04-26T12:06:40Z</time></trkpt><trkpt lat="44.06844824636588" lon="11.484307668738182"><ele>1055.0</ele><time>2026-04-26T12:06:41Z</time></trkpt><trkpt lat="44.068343344109515" lon="11.484314804218949"><ele>1053.0</ele><time>2026-04-26T12:06:42Z</time></trkpt><trkpt lat="44.068238497436475" lon="11.484279164957059"><ele>1051.0</ele><time>2026-04-26T12:06:43Z</time></trkpt><trkpt lat="44.06812890306278" lon="11.484218963836904"><ele>1049.0</ele><time>2026-04-26T12:06:44Z</time></trkpt><trkpt lat="44.06801707228066" lon="11.48422332635027"><ele>1047.0</ele><time>2026-04-26T12:06:45Z</time></trkpt><trkpt lat="44.06791910245875" lon="11.4842977263292"><ele>1045.0</ele><time>2026-04-26T12:06:46Z</time></trkpt><trkpt lat="44.06783220078087" lon="11.484413941389702"><ele>1045.0</ele><time>2026-04-26T12:06:47Z</time></trkpt><trkpt lat="44.067754740384146" lon="11.484546539295215"><ele>1045.0</ele><time>2026-04-26T12:06:48Z</time></trkpt><trkpt lat="44.06766902992952" lon="11.484612624593119"><ele>1045.0</ele><time>2026-04-26T12:06:49Z</time></trkpt><trkpt lat="44.06755652014152" lon="11.484621386880674"><ele>1045.0</ele><time>2026-04-26T12:06:50Z</time></trkpt><trkpt lat="44.067451732367594" lon="11.484542408924842"><ele>1053.0</ele><time>2026-04-26T12:06:51Z</time></trkpt><trkpt lat="44.067352516550095" lon="11.484390002345283"><ele>1061.0</ele><time>2026-04-26T12:06:52Z</time></trkpt><trkpt lat="44.06727686247602" lon="11.484234875424685"><ele>1069.0</ele><time>2026-04-26T12:06:53Z</time></trkpt><trkpt lat="44.06722731873242" lon="11.4841272075858"><ele>1077.0</ele><time>2026-04-26T12:06:54Z</time></trkpt><trkpt lat="44.06716574086385" lon="11.483985939168326"><ele>1077.0</ele><time>2026-04-26T12:06:55Z</time></trkpt><trkpt lat="44.06706692255942" lon="11.483879181573023"><ele>1077.0</ele><time>2026-04-26T12:06:56Z</time></trkpt><trkpt lat="44.06695270438276" lon="11.48382305622131"><ele>1077.0</ele><time>2026-04-26T12:06:57Z</time></trkpt><trkpt lat="44.06687904207601" lon="11.483776175360665"><ele>1077.0</ele><time>2026-04-26T12:06:58Z</time></trkpt><trkpt lat="44.06682196983146" lon="11.48367958212402"><ele>1077.0</ele><time>2026-04-26T12:06:59Z</time></trkpt><trkpt lat="44.06679917524538" lon="11.483522507228658"><ele>1072.4</ele><time>2026-04-26T12:07:00Z</time></trkpt><trkpt lat="44.06683399939856" lon="11.483389410870327"><ele>1067.8000000000002</ele><time>2026-04-26T12:07:01Z</time></trkpt><trkpt lat="44.06685711282447" lon="11.483232296929906"><ele>1063.2</ele><time>2026-04-26T12:07:02Z</time></trkpt><trkpt lat="44.066855326411165" lon="11.483077465514924"><ele>1058.6000000000001</ele><time>2026-04-26T12:07:03Z</time></trkpt><trkpt lat="44.06683273628834" lon="11.482927951608673"><ele>1054.0</ele><time>2026-04-26T12:07:03.999Z</time></trkpt><trkpt lat="44.06678145971641" lon="11.482769055811787"><ele>1057.25</ele><time>2026-04-26T12:07:04.999Z</time></trkpt><trkpt lat="44.066729489050424" lon="11.482595879576706"><ele>1060.5</ele><time>2026-04-26T12:07:05.999Z</time></trkpt><trkpt lat="44.066677459512604" lon="11.482427772631778"><ele>1063.75</ele><time>2026-04-26T12:07:06.999Z</time></trkpt><trkpt lat="44.06660150437992" lon="11.482274474657707"><ele>1067.0</ele><time>2026-04-26T12:07:07.999Z</time></trkpt><trkpt lat="44.066494057317755" lon="11.48214019478238"><ele>1056.75</ele><time>2026-04-26T12:07:08.999Z</time></trkpt><trkpt lat="44.066376763128304" lon="11.48202090453465"><ele>1046.5</ele><time>2026-04-26T12:07:09.999Z</time></trkpt><trkpt lat="44.06626705306772" lon="11.481894611801348"><ele>1036.25</ele><time>2026-04-26T12:07:10.999Z</time></trkpt><trkpt lat="44.066148739369865" lon="11.481777128100813"><ele>1026.0</ele><time>2026-04-26T12:07:11.999Z</time></trkpt><trkpt lat="44.06601562222621" lon="11.481684928766597"><ele>1026.0</ele><time>2026-04-26T12:07:12.999Z</time></trkpt><trkpt lat="44.065875903364535" lon="11.48160794687077"><ele>1026.0</ele><time>2026-04-26T12:07:13.999Z</time></trkpt><trkpt lat="44.065728884169424" lon="11.48155217253032"><ele>1026.0</ele><time>2026-04-26T12:07:14.999Z</time></trkpt><trkpt lat="44.065596881987446" lon="11.481463671504521"><ele>1026.0</ele><time>2026-04-26T12:07:15.999Z</time></trkpt><trkpt lat="44.06546858883245" lon="11.481345994724792"><ele>1029.3333333333333</ele><time>2026-04-26T12:07:16.999Z</time></trkpt><trkpt lat="44.065323140595495" lon="11.481288804091111"><ele>1032.6666666666665</ele><time>2026-04-26T12:07:17.999Z</time></trkpt><trkpt lat="44.06518582430575" lon="11.481221359945083"><ele>1036.0</ele><time>2026-04-26T12:07:18.999Z</time></trkpt><trkpt lat="44.06503527284493" lon="11.48118525250645"><ele>1033.75</ele><time>2026-04-26T12:07:19.999Z</time></trkpt><trkpt lat="44.06489272554883" lon="11.481179707352052"><ele>1031.5</ele><time>2026-04-26T12:07:21Z</time></trkpt><trkpt lat="44.064746069075916" lon="11.481195573015869"><ele>1029.25</ele><time>2026-04-26T12:07:22Z</time></trkpt><trkpt lat="44.06460592486178" lon="11.48124229587207"><ele>1027.0</ele><time>2026-04-26T12:07:23Z</time></trkpt><trkpt lat="44.06446772159051" lon="11.481300138426164"><ele>1027.0</ele><time>2026-04-26T12:07:24Z</time></trkpt><trkpt lat="44.0643321214404" lon="11.481358511441796"><ele>1027.0</ele><time>2026-04-26T12:07:25Z</time></trkpt><trkpt lat="44.06419247066604" lon="11.481354696076492"><ele>1027.0</ele><time>2026-04-26T12:07:26Z</time></trkpt><trkpt lat="44.06406248058995" lon="11.481384022735094"><ele>1027.0</ele><time>2026-04-26T12:07:27Z</time></trkpt><trkpt lat="44.06394496870016" lon="11.481378569710458"><ele>1029.8</ele><time>2026-04-26T12:07:28Z</time></trkpt><trkpt lat="44.06384190704093" lon="11.481368407462416"><ele>1032.6</ele><time>2026-04-26T12:07:29Z</time></trkpt><trkpt lat="44.06373928626651" lon="11.481324119957655"><ele>1035.3999999999999</ele><time>2026-04-26T12:07:30.001Z</time></trkpt><trkpt lat="44.06364761827641" lon="11.481299491959492"><ele>1038.2</ele><time>2026-04-26T12:07:31.001Z</time></trkpt><trkpt lat="44.063572542187444" lon="11.481297684251851"><ele>1041.0</ele><time>2026-04-26T12:07:32.001Z</time></trkpt><trkpt lat="44.063477751189104" lon="11.480974668717279"><ele>1036.0</ele><time>2026-04-26T12:07:33.001Z</time></trkpt><trkpt lat="44.063365289281236" lon="11.480897527409464"><ele>1031.0</ele><time>2026-04-26T12:07:34.001Z</time></trkpt><trkpt lat="44.06322023418011" lon="11.480833015288132"><ele>1026.0</ele><time>2026-04-26T12:07:35.001Z</time></trkpt><trkpt lat="44.06308123226801" lon="11.480785880698622"><ele>1021.0</ele><time>2026-04-26T12:07:36.001Z</time></trkpt><trkpt lat="44.06295350503034" lon="11.480691115885238"><ele>1021.0</ele><time>2026-04-26T12:07:37.001Z</time></trkpt><trkpt lat="44.06283938176165" lon="11.480541189283572"><ele>1021.0</ele><time>2026-04-26T12:07:38.001Z</time></trkpt><trkpt lat="44.06271768384162" lon="11.4804094535387"><ele>1021.0</ele><time>2026-04-26T12:07:39.001Z</time></trkpt><trkpt lat="44.06257779333909" lon="11.480311205140364"><ele>1017.75</ele><time>2026-04-26T12:07:40.001Z</time></trkpt><trkpt lat="44.06244492975642" lon="11.480212027289724"><ele>1014.5</ele><time>2026-04-26T12:07:41.001Z</time></trkpt><trkpt lat="44.062316256596326" lon="11.480113915702084"><ele>1011.25</ele><time>2026-04-26T12:07:42.001Z</time></trkpt><trkpt lat="44.062177332674494" lon="11.480037331992447"><ele>1008.0</ele><time>2026-04-26T12:07:43.001Z</time></trkpt><trkpt lat="44.0620423867599" lon="11.47995510169171"><ele>1008.0</ele><time>2026-04-26T12:07:44.001Z</time></trkpt><trkpt lat="44.06192575148586" lon="11.479836256679604"><ele>1008.0</ele><time>2026-04-26T12:07:45Z</time></trkpt><trkpt lat="44.06182154753111" lon="11.47968388996551"><ele>1008.0</ele><time>2026-04-26T12:07:46Z</time></trkpt><trkpt lat="44.061727203564374" lon="11.47951623755124"><ele>1008.0</ele><time>2026-04-26T12:07:47Z</time></trkpt><trkpt lat="44.06162235388089" lon="11.479363682222125"><ele>1001.3333333333333</ele><time>2026-04-26T12:07:47.999Z</time></trkpt><trkpt lat="44.0615041031009" lon="11.47921922051489"><ele>994.6666666666666</ele><time>2026-04-26T12:07:48.999Z</time></trkpt><trkpt lat="44.061394875366915" lon="11.479066405368398"><ele>988.0</ele><time>2026-04-26T12:07:49.999Z</time></trkpt><trkpt lat="44.06129078176333" lon="11.478930264924749"><ele>988.0</ele><time>2026-04-26T12:07:50.999Z</time></trkpt><trkpt lat="44.061186491105026" lon="11.47880937576633"><ele>988.0</ele><time>2026-04-26T12:07:51.999Z</time></trkpt><trkpt lat="44.0610882387977" lon="11.478688652298507"><ele>988.0</ele><time>2026-04-26T12:07:52.999Z</time></trkpt><trkpt lat="44.06099284186285" lon="11.478574290216198"><ele>988.0</ele><time>2026-04-26T12:07:53.999Z</time></trkpt><trkpt lat="44.06090210305293" lon="11.478456387682819"><ele>981.75</ele><time>2026-04-26T12:07:54.999Z</time></trkpt><trkpt lat="44.06080715867435" lon="11.478338762196296"><ele>975.5</ele><time>2026-04-26T12:07:55.999Z</time></trkpt><trkpt lat="44.060698317529514" lon="11.478236715919651"><ele>969.25</ele><time>2026-04-26T12:07:56.999Z</time></trkpt><trkpt lat="44.060573824165154" lon="11.47815079578584"><ele>963.0</ele><time>2026-04-26T12:07:57.999Z</time></trkpt><trkpt lat="44.06044612927901" lon="11.478071277556444"><ele>963.0</ele><time>2026-04-26T12:07:58.999Z</time></trkpt><trkpt lat="44.060324892744326" lon="11.47799014695242"><ele>963.0</ele><time>2026-04-26T12:07:59.999Z</time></trkpt><trkpt lat="44.060213011631035" lon="11.477920460139863"><ele>963.0</ele><time>2026-04-26T12:08:00.999Z</time></trkpt><trkpt lat="44.06010756001663" lon="11.47787906809079"><ele>963.0</ele><time>2026-04-26T12:08:01.999Z</time></trkpt><trkpt lat="44.05999347828821" lon="11.477883532555097"><ele>958.75</ele><time>2026-04-26T12:08:02.999Z</time></trkpt><trkpt lat="44.05987181149943" lon="11.4779093772144"><ele>954.5</ele><time>2026-04-26T12:08:03.999Z</time></trkpt><trkpt lat="44.05974854376105" lon="11.477956417076612"><ele>950.25</ele><time>2026-04-26T12:08:04.999Z</time></trkpt><trkpt lat="44.05962149916894" lon="11.47800625263308"><ele>946.0</ele><time>2026-04-26T12:08:05.999Z</time></trkpt><trkpt lat="44.059503843523174" lon="11.47808041777215"><ele>946.0</ele><time>2026-04-26T12:08:06.999Z</time></trkpt><trkpt lat="44.05938772727677" lon="11.478171795558744"><ele>946.0</ele><time>2026-04-26T12:08:07.999Z</time></trkpt><trkpt lat="44.059270413197666" lon="11.478266971666278"><ele>946.0</ele><time>2026-04-26T12:08:08.999Z</time></trkpt><trkpt lat="44.05915345426913" lon="11.478362201600863"><ele>946.0</ele><time>2026-04-26T12:08:09.999Z</time></trkpt><trkpt lat="44.05904186563201" lon="11.47846122441947"><ele>943.5</ele><time>2026-04-26T12:08:10.999Z</time></trkpt><trkpt lat="44.0589612695397" lon="11.478586385155259"><ele>941.0</ele><time>2026-04-26T12:08:11.999Z</time></trkpt><trkpt lat="44.05890080727223" lon="11.478727192868273"><ele>938.5</ele><time>2026-04-26T12:08:12.999Z</time></trkpt><trkpt lat="44.058841288563535" lon="11.478864104664833"><ele>936.0</ele><time>2026-04-26T12:08:13.999Z</time></trkpt><trkpt lat="44.05875902910201" lon="11.478973483834599"><ele>936.0</ele><time>2026-04-26T12:08:14.999Z</time></trkpt><trkpt lat="44.058650788710864" lon="11.47904778372608"><ele>936.0</ele><time>2026-04-26T12:08:15.999Z</time></trkpt><trkpt lat="44.05853292776485" lon="11.479114407366813"><ele>936.0</ele><time>2026-04-26T12:08:16.999Z</time></trkpt><trkpt lat="44.058412906181616" lon="11.479181092139424"><ele>936.0</ele><time>2026-04-26T12:08:17.999Z</time></trkpt><trkpt lat="44.058285211050965" lon="11.47925466053182"><ele>932.0</ele><time>2026-04-26T12:08:18.999Z</time></trkpt><trkpt lat="44.05816045590889" lon="11.479321722260297"><ele>928.0</ele><time>2026-04-26T12:08:19.999Z</time></trkpt><trkpt lat="44.058036340582525" lon="11.479387774340381"><ele>924.0</ele><time>2026-04-26T12:08:20.999Z</time></trkpt><trkpt lat="44.05791907032745" lon="11.479460258526379"><ele>920.0</ele><time>2026-04-26T12:08:21.999Z</time></trkpt><trkpt lat="44.057812453806264" lon="11.479546833847596"><ele>922.75</ele><time>2026-04-26T12:08:22.999Z</time></trkpt><trkpt lat="44.057721498131194" lon="11.479663925176569"><ele>925.5</ele><time>2026-04-26T12:08:23.999Z</time></trkpt><trkpt lat="44.05764349850986" lon="11.479801696464817"><ele>928.25</ele><time>2026-04-26T12:08:24.999Z</time></trkpt><trkpt lat="44.05756763826746" lon="11.479950879785399"><ele>931.0</ele><time>2026-04-26T12:08:25.999Z</time></trkpt><trkpt lat="44.057489225746394" lon="11.480095586441376"><ele>932.0</ele><time>2026-04-26T12:08:26.999Z</time></trkpt><trkpt lat="44.05741013573213" lon="11.480233509256069"><ele>933.0</ele><time>2026-04-26T12:08:27.999Z</time></trkpt><trkpt lat="44.05732719169698" lon="11.480363227449038"><ele>934.0</ele><time>2026-04-26T12:08:28.999Z</time></trkpt><trkpt lat="44.05724246951599" lon="11.480470973738102"><ele>935.0</ele><time>2026-04-26T12:08:29.999Z</time></trkpt><trkpt lat="44.05716107971021" lon="11.480571994382863"><ele>933.0</ele><time>2026-04-26T12:08:30.999Z</time></trkpt><trkpt lat="44.05710005318182" lon="11.480701770314225"><ele>931.0</ele><time>2026-04-26T12:08:31.999Z</time></trkpt><trkpt lat="44.05706827413607" lon="11.480861115505958"><ele>929.0</ele><time>2026-04-26T12:08:32.999Z</time></trkpt><trkpt lat="44.05705716629033" lon="11.481028609144328"><ele>927.0</ele><time>2026-04-26T12:08:33.999Z</time></trkpt><trkpt lat="44.05705704743694" lon="11.481187207141419"><ele>926.6</ele><time>2026-04-26T12:08:34.999Z</time></trkpt><trkpt lat="44.057053644079446" lon="11.48133233510024"><ele>926.2</ele><time>2026-04-26T12:08:35.999Z</time></trkpt><trkpt lat="44.057025356458986" lon="11.481464390625536"><ele>925.8</ele><time>2026-04-26T12:08:36.999Z</time></trkpt><trkpt lat="44.05696949179293" lon="11.481582344852233"><ele>925.4</ele><time>2026-04-26T12:08:37.999Z</time></trkpt><trkpt lat="44.0568787484603" lon="11.481673590789665"><ele>925.0</ele><time>2026-04-26T12:08:38.999Z</time></trkpt><trkpt lat="44.056792389705514" lon="11.481763872350312"><ele>925.0</ele><time>2026-04-26T12:08:39.999Z</time></trkpt><trkpt lat="44.05670781521772" lon="11.481838579148718"><ele>925.0</ele><time>2026-04-26T12:08:40.999Z</time></trkpt><trkpt lat="44.056616507083554" lon="11.481885271076104"><ele>925.0</ele><time>2026-04-26T12:08:41.999Z</time></trkpt><trkpt lat="44.05651727503378" lon="11.481896634735676"><ele>925.0</ele><time>2026-04-26T12:08:42.999Z</time></trkpt><trkpt lat="44.05641838355342" lon="11.481871643963192"><ele>925.0</ele><time>2026-04-26T12:08:43.999Z</time></trkpt><trkpt lat="44.05631640453129" lon="11.481821112345019"><ele>931.0</ele><time>2026-04-26T12:08:44.999Z</time></trkpt><trkpt lat="44.05621499303579" lon="11.481757597048462"><ele>937.0</ele><time>2026-04-26T12:08:45.999Z</time></trkpt><trkpt lat="44.05611526928155" lon="11.481675376056353"><ele>943.0</ele><time>2026-04-26T12:08:46.999Z</time></trkpt><trkpt lat="44.05601334293429" lon="11.481579211784409"><ele>949.0</ele><time>2026-04-26T12:08:47.999Z</time></trkpt><trkpt lat="44.05590574386836" lon="11.481480025314966"><ele>949.0</ele><time>2026-04-26T12:08:48.999Z</time></trkpt><trkpt lat="44.055788218804636" lon="11.481383993712674"><ele>949.0</ele><time>2026-04-26T12:08:49.999Z</time></trkpt><trkpt lat="44.055657003329586" lon="11.481304622302178"><ele>949.0</ele><time>2026-04-26T12:08:50.999Z</time></trkpt><trkpt lat="44.05550568955654" lon="11.481244653849119"><ele>949.0</ele><time>2026-04-26T12:08:51.999Z</time></trkpt><trkpt lat="44.05535063547606" lon="11.481212696495373"><ele>951.3333333333333</ele><time>2026-04-26T12:08:52.999Z</time></trkpt><trkpt lat="44.05518896940759" lon="11.481211470357383"><ele>953.6666666666667</ele><time>2026-04-26T12:08:53.999Z</time></trkpt><trkpt lat="44.05503088856661" lon="11.481219612236494"><ele>956.0</ele><time>2026-04-26T12:08:54.999Z</time></trkpt><trkpt lat="44.05486867581517" lon="11.481246591422298"><ele>956.3333333333334</ele><time>2026-04-26T12:08:55.999Z</time></trkpt><trkpt lat="44.0547133598563" lon="11.481266750686954"><ele>956.6666666666667</ele><time>2026-04-26T12:08:56.999Z</time></trkpt><trkpt lat="44.054575293465945" lon="11.481259776053774"><ele>957.0</ele><time>2026-04-26T12:08:57.999Z</time></trkpt><trkpt lat="44.054416149459534" lon="11.48126783896839"><ele>957.0</ele><time>2026-04-26T12:08:58.999Z</time></trkpt><trkpt lat="44.054270025698266" lon="11.481239554180904"><ele>957.0</ele><time>2026-04-26T12:08:59.999Z</time></trkpt><trkpt lat="44.054113939430074" lon="11.48120234139946"><ele>957.0</ele><time>2026-04-26T12:09:00.999Z</time></trkpt><trkpt lat="44.05395953268879" lon="11.4811214832058"><ele>960.0</ele><time>2026-04-26T12:09:01.999Z</time></trkpt><trkpt lat="44.053813597339584" lon="11.481006148882665"><ele>963.0</ele><time>2026-04-26T12:09:02.999Z</time></trkpt><trkpt lat="44.053683972308214" lon="11.480888785598676"><ele>966.0</ele><time>2026-04-26T12:09:03.999Z</time></trkpt><trkpt lat="44.05352487036033" lon="11.480762310608453"><ele>966.0</ele><time>2026-04-26T12:09:04.999Z</time></trkpt><trkpt lat="44.053391106455635" lon="11.480662239701882"><ele>966.0</ele><time>2026-04-26T12:09:05.999Z</time></trkpt><trkpt lat="44.05365066548921" lon="11.481010955665765"><ele>966.0</ele><time>2026-04-26T12:09:06.999Z</time></trkpt><trkpt lat="44.05353038765912" lon="11.480917496851317"><ele>966.0</ele><time>2026-04-26T12:09:07.999Z</time></trkpt><trkpt lat="44.053411894271505" lon="11.480809359120643"><ele>966.0</ele><time>2026-04-26T12:09:08.999Z</time></trkpt><trkpt lat="44.0532931863917" lon="11.480718347171111"><ele>966.0</ele><time>2026-04-26T12:09:09.999Z</time></trkpt><trkpt lat="44.05316607127539" lon="11.48064129270478"><ele>969.25</ele><time>2026-04-26T12:09:10.999Z</time></trkpt><trkpt lat="44.05302985640796" lon="11.480589272661941"><ele>972.5</ele><time>2026-04-26T12:09:11.999Z</time></trkpt><trkpt lat="44.052879439278485" lon="11.48055310158751"><ele>975.75</ele><time>2026-04-26T12:09:12.999Z</time></trkpt><trkpt lat="44.05272925742813" lon="11.48052209251476"><ele>979.0</ele><time>2026-04-26T12:09:13.999Z</time></trkpt><trkpt lat="44.05257807699623" lon="11.48049452288015"><ele>978.0</ele><time>2026-04-26T12:09:14.999Z</time></trkpt><trkpt lat="44.05242427172143" lon="11.480468364822324"><ele>977.0</ele><time>2026-04-26T12:09:15.999Z</time></trkpt><trkpt lat="44.05227034487452" lon="11.48043688441261"><ele>976.0</ele><time>2026-04-26T12:09:16.999Z</time></trkpt><trkpt lat="44.052123409912035" lon="11.480399681715395"><ele>976.0</ele><time>2026-04-26T12:09:17.999Z</time></trkpt><trkpt lat="44.05198290910056" lon="11.480371634201497"><ele>976.0</ele><time>2026-04-26T12:09:18.999Z</time></trkpt><trkpt lat="44.051839216582835" lon="11.480342034038738"><ele>976.0</ele><time>2026-04-26T12:09:19.999Z</time></trkpt><trkpt lat="44.051696108780455" lon="11.480319997698846"><ele>976.0</ele><time>2026-04-26T12:09:20.999Z</time></trkpt><trkpt lat="44.05155593030274" lon="11.480290270865755"><ele>978.75</ele><time>2026-04-26T12:09:21.999Z</time></trkpt><trkpt lat="44.051411810147904" lon="11.480260513944705"><ele>981.5</ele><time>2026-04-26T12:09:22.999Z</time></trkpt><trkpt lat="44.05127190917233" lon="11.480225854394625"><ele>984.25</ele><time>2026-04-26T12:09:23.999Z</time></trkpt><trkpt lat="44.05113238937191" lon="11.480179533650476"><ele>987.0</ele><time>2026-04-26T12:09:24.999Z</time></trkpt><trkpt lat="44.05099620702574" lon="11.480104895446589"><ele>987.0</ele><time>2026-04-26T12:09:25.999Z</time></trkpt><trkpt lat="44.05086533067035" lon="11.480016202474703"><ele>987.0</ele><time>2026-04-26T12:09:27Z</time></trkpt><trkpt lat="44.05073649786014" lon="11.479934034499388"><ele>987.0</ele><time>2026-04-26T12:09:28Z</time></trkpt><trkpt lat="44.05061318443714" lon="11.479845167851852"><ele>987.0</ele><time>2026-04-26T12:09:29Z</time></trkpt><trkpt lat="44.05049867715225" lon="11.47974792799042"><ele>989.5</ele><time>2026-04-26T12:09:30Z</time></trkpt><trkpt lat="44.050385336009626" lon="11.479624897715484"><ele>992.0</ele><time>2026-04-26T12:09:31Z</time></trkpt><trkpt lat="44.05030378405275" lon="11.47946607991969"><ele>994.5</ele><time>2026-04-26T12:09:32Z</time></trkpt><trkpt lat="44.05023966257497" lon="11.47926230827545"><ele>997.0</ele><time>2026-04-26T12:09:33Z</time></trkpt><trkpt lat="44.0501718172596" lon="11.479076783758762"><ele>997.0</ele><time>2026-04-26T12:09:34Z</time></trkpt><trkpt lat="44.04996008911312" lon="11.47917171335866"><ele>997.0</ele><time>2026-04-26T12:09:35Z</time></trkpt><trkpt lat="44.049879781535616" lon="11.479035878817706"><ele>997.0</ele><time>2026-04-26T12:09:36Z</time></trkpt><trkpt lat="44.04982960893721" lon="11.478883827378622"><ele>1000.5</ele><time>2026-04-26T12:09:37Z</time></trkpt><trkpt lat="44.04980879114725" lon="11.478710889992588"><ele>1004.0</ele><time>2026-04-26T12:09:38Z</time></trkpt><trkpt lat="44.049778881831834" lon="11.478541851788115"><ele>1007.5</ele><time>2026-04-26T12:09:39Z</time></trkpt><trkpt lat="44.04972959255003" lon="11.478400883082257"><ele>1011.0</ele><time>2026-04-26T12:09:40Z</time></trkpt><trkpt lat="44.049649913012836" lon="11.478293959372445"><ele>1011.0</ele><time>2026-04-26T12:09:41Z</time></trkpt><trkpt lat="44.04956833986973" lon="11.47818160047362"><ele>1011.0</ele><time>2026-04-26T12:09:42Z</time></trkpt><trkpt lat="44.04945903667486" lon="11.478120216994016"><ele>1011.0</ele><time>2026-04-26T12:09:43Z</time></trkpt><trkpt lat="44.049341830919786" lon="11.478072893949474"><ele>1011.0</ele><time>2026-04-26T12:09:44Z</time></trkpt><trkpt lat="44.04921711976471" lon="11.478017121383044"><ele>1011.75</ele><time>2026-04-26T12:09:45Z</time></trkpt><trkpt lat="44.04912756454194" lon="11.477917901249436"><ele>1012.5</ele><time>2026-04-26T12:09:46Z</time></trkpt><trkpt lat="44.04902873463694" lon="11.477829331570188"><ele>1013.25</ele><time>2026-04-26T12:09:47Z</time></trkpt><trkpt lat="44.04887209360543" lon="11.477783870676369"><ele>1014.0</ele><time>2026-04-26T12:09:48Z</time></trkpt><trkpt lat="44.04872865211052" lon="11.477724473497581"><ele>1014.0</ele><time>2026-04-26T12:09:49Z</time></trkpt><trkpt lat="44.04858746310261" lon="11.477654224135089"><ele>1014.0</ele><time>2026-04-26T12:09:50Z</time></trkpt><trkpt lat="44.048452071492925" lon="11.477579434438207"><ele>1014.0</ele><time>2026-04-26T12:09:51Z</time></trkpt><trkpt lat="44.048313566017306" lon="11.477500355098659"><ele>1014.0</ele><time>2026-04-26T12:09:52Z</time></trkpt><trkpt lat="44.04818030623674" lon="11.477458287501964"><ele>1016.75</ele><time>2026-04-26T12:09:53Z</time></trkpt><trkpt lat="44.048046373363654" lon="11.477455306890745"><ele>1019.5</ele><time>2026-04-26T12:09:54Z</time></trkpt><trkpt lat="44.04791971830119" lon="11.477481870464818"><ele>1022.25</ele><time>2026-04-26T12:09:55Z</time></trkpt><trkpt lat="44.04779719736737" lon="11.477476857505343"><ele>1025.0</ele><time>2026-04-26T12:09:56Z</time></trkpt><trkpt lat="44.0476712398945" lon="11.477436144753101"><ele>1025.0</ele><time>2026-04-26T12:09:57Z</time></trkpt><trkpt lat="44.04756478098448" lon="11.477342881919057"><ele>1025.0</ele><time>2026-04-26T12:09:58Z</time></trkpt><trkpt lat="44.04745330225886" lon="11.477271495317515"><ele>1025.0</ele><time>2026-04-26T12:09:59Z</time></trkpt><trkpt lat="44.04731943849036" lon="11.477195112524411"><ele>1025.0</ele><time>2026-04-26T12:10:00Z</time></trkpt><trkpt lat="44.047178634329605" lon="11.47713921887593"><ele>1026.5</ele><time>2026-04-26T12:10:01Z</time></trkpt><trkpt lat="44.047035847914906" lon="11.477104198867208"><ele>1028.0</ele><time>2026-04-26T12:10:02Z</time></trkpt><trkpt lat="44.04691032093056" lon="11.47704755894507"><ele>1029.5</ele><time>2026-04-26T12:10:03Z</time></trkpt><trkpt lat="44.04679787039564" lon="11.476952448996641"><ele>1031.0</ele><time>2026-04-26T12:10:04Z</time></trkpt><trkpt lat="44.04669501748884" lon="11.47683097284468"><ele>1034.3999999999999</ele><time>2026-04-26T12:10:05Z</time></trkpt><trkpt lat="44.04658835540923" lon="11.47674297535419"><ele>1037.8</ele><time>2026-04-26T12:10:06Z</time></trkpt><trkpt lat="44.046473553965946" lon="11.476695235335855"><ele>1041.1999999999998</ele><time>2026-04-26T12:10:07Z</time></trkpt><trkpt lat="44.04636730698202" lon="11.476675259958192"><ele>1044.6</ele><time>2026-04-26T12:10:08Z</time></trkpt><trkpt lat="44.04628051543384" lon="11.476652540004519"><ele>1048.0</ele><time>2026-04-26T12:10:09Z</time></trkpt><trkpt lat="44.04620351523018" lon="11.47660327219833"><ele>1048.0</ele><time>2026-04-26T12:10:10Z</time></trkpt><trkpt lat="44.04615594037596" lon="11.476499063012714"><ele>1048.0</ele><time>2026-04-26T12:10:11Z</time></trkpt><trkpt lat="44.04614120323383" lon="11.47637141547548"><ele>1048.0</ele><time>2026-04-26T12:10:12Z</time></trkpt><trkpt lat="44.04612286555502" lon="11.476247823320225"><ele>1048.0</ele><time>2026-04-26T12:10:13Z</time></trkpt><trkpt lat="44.04605198157522" lon="11.476154119694861"><ele>1048.0</ele><time>2026-04-26T12:10:14Z</time></trkpt><trkpt lat="44.045957562331274" lon="11.476084863465921"><ele>1047.4</ele><time>2026-04-26T12:10:15Z</time></trkpt><trkpt lat="44.04586054388134" lon="11.47601907290114"><ele>1046.8</ele><time>2026-04-26T12:10:16Z</time></trkpt><trkpt lat="44.04575318853035" lon="11.475972073237525"><ele>1046.2</ele><time>2026-04-26T12:10:17Z</time></trkpt><trkpt lat="44.04566865406237" lon="11.475901683063832"><ele>1045.6</ele><time>2026-04-26T12:10:18Z</time></trkpt><trkpt lat="44.045576244387114" lon="11.4758399995134"><ele>1045.0</ele><time>2026-04-26T12:10:19Z</time></trkpt><trkpt lat="44.04547311563532" lon="11.475793152293182"><ele>1044.6666666666665</ele><time>2026-04-26T12:10:20Z</time></trkpt><trkpt lat="44.04537576054765" lon="11.475733452391276"><ele>1044.3333333333333</ele><time>2026-04-26T12:10:21Z</time></trkpt><trkpt lat="44.04529714852395" lon="11.475668220550528"><ele>1044.0</ele><time>2026-04-26T12:10:22Z</time></trkpt><trkpt lat="44.045237069101" lon="11.475584968892749"><ele>1043.6666666666667</ele><time>2026-04-26T12:10:23Z</time></trkpt><trkpt lat="44.04520309783296" lon="11.475489284501277"><ele>1043.3333333333335</ele><time>2026-04-26T12:10:24Z</time></trkpt><trkpt lat="44.04518118722626" lon="11.475400545571109"><ele>1043.0</ele><time>2026-04-26T12:10:25Z</time></trkpt><trkpt lat="44.045159269369826" lon="11.475313488309233"><ele>1042.142857142857</ele><time>2026-04-26T12:10:26Z</time></trkpt><trkpt lat="44.045166647941045" lon="11.475224317002786"><ele>1041.2857142857142</ele><time>2026-04-26T12:10:27Z</time></trkpt><trkpt lat="44.045144325428346" lon="11.475135885197933"><ele>1040.4285714285716</ele><time>2026-04-26T12:10:28Z</time></trkpt><trkpt lat="44.04512297028207" lon="11.47504432050429"><ele>1039.5714285714284</ele><time>2026-04-26T12:10:29Z</time></trkpt><trkpt lat="44.045098287060426" lon="11.474945039712399"><ele>1038.7142857142858</ele><time>2026-04-26T12:10:30Z</time></trkpt><trkpt lat="44.04507905936963" lon="11.47484469374897"><ele>1037.857142857143</ele><time>2026-04-26T12:10:31Z</time></trkpt><trkpt lat="44.04504479807691" lon="11.474742064530695"><ele>1037.0</ele><time>2026-04-26T12:10:32Z</time></trkpt><trkpt lat="44.04499664309054" lon="11.474648255676726"><ele>1034.8</ele><time>2026-04-26T12:10:33Z</time></trkpt><trkpt lat="44.044935624515304" lon="11.474562599036135"><ele>1032.6</ele><time>2026-04-26T12:10:34Z</time></trkpt><trkpt lat="44.04487227107384" lon="11.474478878372848"><ele>1030.3999999999999</ele><time>2026-04-26T12:10:35Z</time></trkpt><trkpt lat="44.044804128034784" lon="11.474392711000524"><ele>1028.2</ele><time>2026-04-26T12:10:36Z</time></trkpt><trkpt lat="44.04473823948616" lon="11.474298011780597"><ele>1026.0</ele><time>2026-04-26T12:10:37Z</time></trkpt><trkpt lat="44.04468021079829" lon="11.474192306645651"><ele>1026.0</ele><time>2026-04-26T12:10:38Z</time></trkpt><trkpt lat="44.0446445329906" lon="11.474062415735302"><ele>1026.0</ele><time>2026-04-26T12:10:39Z</time></trkpt><trkpt lat="44.044640450748005" lon="11.473913816732896"><ele>1026.0</ele><time>2026-04-26T12:10:40Z</time></trkpt><trkpt lat="44.044650840939" lon="11.473758361605098"><ele>1026.0</ele><time>2026-04-26T12:10:41Z</time></trkpt><trkpt lat="44.04466158900992" lon="11.473614733783327"><ele>1026.0</ele><time>2026-04-26T12:10:42Z</time></trkpt><trkpt lat="44.044666819675435" lon="11.47347406742386"><ele>1025.8</ele><time>2026-04-26T12:10:43Z</time></trkpt><trkpt lat="44.04466598696415" lon="11.473339767981956"><ele>1025.6</ele><time>2026-04-26T12:10:44Z</time></trkpt><trkpt lat="44.04466793146919" lon="11.473214244708654"><ele>1025.4</ele><time>2026-04-26T12:10:45Z</time></trkpt><trkpt lat="44.04466861385621" lon="11.473085276793594"><ele>1025.2</ele><time>2026-04-26T12:10:46Z</time></trkpt><trkpt lat="44.044668457174346" lon="11.472936852785148"><ele>1025.0</ele><time>2026-04-26T12:10:47Z</time></trkpt><trkpt lat="44.04467183860006" lon="11.47277697867831"><ele>1025.0</ele><time>2026-04-26T12:10:48Z</time></trkpt><trkpt lat="44.04468086024131" lon="11.472610670028205"><ele>1025.0</ele><time>2026-04-26T12:10:49Z</time></trkpt><trkpt lat="44.04468145099414" lon="11.472447105428094"><ele>1025.0</ele><time>2026-04-26T12:10:50Z</time></trkpt><trkpt lat="44.04468331098738" lon="11.47228377130614"><ele>1025.0</ele><time>2026-04-26T12:10:51Z</time></trkpt><trkpt lat="44.04468511849357" lon="11.472121184025696"><ele>1022.6</ele><time>2026-04-26T12:10:52Z</time></trkpt><trkpt lat="44.044689585740336" lon="11.47196830552534"><ele>1020.2</ele><time>2026-04-26T12:10:53Z</time></trkpt><trkpt lat="44.0446982162841" lon="11.471830514145962"><ele>1017.8</ele><time>2026-04-26T12:10:54Z</time></trkpt><trkpt lat="44.044707313256694" lon="11.471702486762247"><ele>1015.4</ele><time>2026-04-26T12:10:55Z</time></trkpt><trkpt lat="44.04470314282509" lon="11.471593629816917"><ele>1013.0</ele><time>2026-04-26T12:10:56Z</time></trkpt><trkpt lat="44.044668980739004" lon="11.471499257428587"><ele>1013.0</ele><time>2026-04-26T12:10:57Z</time></trkpt><trkpt lat="44.04460811527913" lon="11.471431244363208"><ele>1013.0</ele><time>2026-04-26T12:10:58Z</time></trkpt><trkpt lat="44.04453309022623" lon="11.471407779800412"><ele>1013.0</ele><time>2026-04-26T12:10:59Z</time></trkpt><trkpt lat="44.04445398720308" lon="11.471454501238302"><ele>1013.0</ele><time>2026-04-26T12:11:00Z</time></trkpt><trkpt lat="44.04437671397191" lon="11.471533782098787"><ele>1013.0</ele><time>2026-04-26T12:11:01Z</time></trkpt><trkpt lat="44.04430216045692" lon="11.471652916026587"><ele>1013.0</ele><time>2026-04-26T12:11:02Z</time></trkpt><trkpt lat="44.04422433224872" lon="11.471763056251183"><ele>1013.0</ele><time>2026-04-26T12:11:03Z</time></trkpt><trkpt lat="44.04414596683314" lon="11.471882782636385"><ele>1013.0</ele><time>2026-04-26T12:11:04Z</time></trkpt><trkpt lat="44.044067420738806" lon="11.472016788055278"><ele>1013.0</ele><time>2026-04-26T12:11:05Z</time></trkpt><trkpt lat="44.04400006051708" lon="11.472156575262767"><ele>1005.25</ele><time>2026-04-26T12:11:06Z</time></trkpt><trkpt lat="44.04395499805246" lon="11.472326973824543"><ele>997.5</ele><time>2026-04-26T12:11:07Z</time></trkpt><trkpt lat="44.04390314110114" lon="11.472484984337955"><ele>989.75</ele><time>2026-04-26T12:11:08Z</time></trkpt><trkpt lat="44.043827685763375" lon="11.472618565392565"><ele>982.0</ele><time>2026-04-26T12:11:09Z</time></trkpt><trkpt lat="44.0437371548271" lon="11.472728099681884"><ele>982.0</ele><time>2026-04-26T12:11:10Z</time></trkpt><trkpt lat="44.04365717493772" lon="11.472821585612321"><ele>982.0</ele><time>2026-04-26T12:11:11Z</time></trkpt><trkpt lat="44.043616929151696" lon="11.472934337651377"><ele>982.0</ele><time>2026-04-26T12:11:12Z</time></trkpt><trkpt lat="44.04361222458353" lon="11.47306606015163"><ele>982.0</ele><time>2026-04-26T12:11:13Z</time></trkpt><trkpt lat="44.043647680332306" lon="11.473214029416555"><ele>982.0</ele><time>2026-04-26T12:11:14Z</time></trkpt><trkpt lat="44.0437022232524" lon="11.473360958907843"><ele>981.25</ele><time>2026-04-26T12:11:15Z</time></trkpt><trkpt lat="44.043746916113406" lon="11.47351880777423"><ele>980.5</ele><time>2026-04-26T12:11:15.999Z</time></trkpt><trkpt lat="44.0437669268921" lon="11.473685108222691"><ele>979.75</ele><time>2026-04-26T12:11:16.999Z</time></trkpt><trkpt lat="44.0437726971793" lon="11.473864525053758"><ele>979.0</ele><time>2026-04-26T12:11:17.999Z</time></trkpt><trkpt lat="44.04376147579721" lon="11.473996713848901"><ele>979.0</ele><time>2026-04-26T12:11:18.999Z</time></trkpt><trkpt lat="44.043730093021246" lon="11.474100530190187"><ele>979.0000000000001</ele><time>2026-04-26T12:11:20.999Z</time></trkpt><trkpt lat="44.04372104082277" lon="11.474272624156088"><ele>979.0000000000001</ele><time>2026-04-26T12:12:22Z</time></trkpt><trkpt lat="44.043637417419326" lon="11.474334628856163"><ele>979.0</ele><time>2026-04-26T12:12:23Z</time></trkpt><trkpt lat="44.043577046975095" lon="11.474444011440038"><ele>979.0</ele><time>2026-04-26T12:12:24Z</time></trkpt><trkpt lat="44.04352331739681" lon="11.474575908802903"><ele>980.8000000000001</ele><time>2026-04-26T12:12:25Z</time></trkpt><trkpt lat="44.04348342877789" lon="11.47472063650917"><ele>982.6000000000001</ele><time>2026-04-26T12:12:26Z</time></trkpt><trkpt lat="44.04346001227833" lon="11.474878851007217"><ele>984.4</ele><time>2026-04-26T12:12:27Z</time></trkpt><trkpt lat="44.04344972491647" lon="11.475028670439606"><ele>986.2</ele><time>2026-04-26T12:12:28Z</time></trkpt><trkpt lat="44.04344423284187" lon="11.475186359186791"><ele>988.0</ele><time>2026-04-26T12:12:29Z</time></trkpt><trkpt lat="44.0434422952384" lon="11.475337492139015"><ele>989.4</ele><time>2026-04-26T12:12:30Z</time></trkpt><trkpt lat="44.043439791475365" lon="11.475483427803637"><ele>990.8</ele><time>2026-04-26T12:12:31Z</time></trkpt><trkpt lat="44.04342796082567" lon="11.47562508025986"><ele>992.2</ele><time>2026-04-26T12:12:32Z</time></trkpt><trkpt lat="44.04338240591251" lon="11.475769316901049"><ele>993.6</ele><time>2026-04-26T12:12:33Z</time></trkpt><trkpt lat="44.043307873916554" lon="11.475895817743629"><ele>995.0</ele><time>2026-04-26T12:12:34Z</time></trkpt><trkpt lat="44.04323547713183" lon="11.476024066403138"><ele>990.0</ele><time>2026-04-26T12:12:35Z</time></trkpt><trkpt lat="44.043164514827744" lon="11.476140007331518"><ele>985.0</ele><time>2026-04-26T12:12:36Z</time></trkpt><trkpt lat="44.04306862330381" lon="11.476227261795511"><ele>980.0</ele><time>2026-04-26T12:12:37Z</time></trkpt><trkpt lat="44.04296989023717" lon="11.47629165397054"><ele>975.0</ele><time>2026-04-26T12:12:38Z</time></trkpt><trkpt lat="44.042877748400066" lon="11.476343419614636"><ele>970.0</ele><time>2026-04-26T12:12:39Z</time></trkpt><trkpt lat="44.042787304321614" lon="11.476417861903913"><ele>970.0</ele><time>2026-04-26T12:12:40Z</time></trkpt><trkpt lat="44.04272908972323" lon="11.476521853178292"><ele>970.0</ele><time>2026-04-26T12:12:41Z</time></trkpt><trkpt lat="44.042713109010194" lon="11.476674791228563"><ele>970.0</ele><time>2026-04-26T12:12:42Z</time></trkpt><trkpt lat="44.04275240079766" lon="11.47684667760842"><ele>970.0</ele><time>2026-04-26T12:12:43Z</time></trkpt><trkpt lat="44.04277557020016" lon="11.477023173506574"><ele>968.25</ele><time>2026-04-26T12:12:44Z</time></trkpt><trkpt lat="44.042796682102846" lon="11.477219706281204"><ele>966.5</ele><time>2026-04-26T12:12:45Z</time></trkpt><trkpt lat="44.04281546392592" lon="11.477413870634448"><ele>964.75</ele><time>2026-04-26T12:12:46Z</time></trkpt><trkpt lat="44.04283309265128" lon="11.477591743612374"><ele>963.0</ele><time>2026-04-26T12:12:47Z</time></trkpt><trkpt lat="44.04285595766405" lon="11.477778164251315"><ele>962.75</ele><time>2026-04-26T12:12:48Z</time></trkpt><trkpt lat="44.04287318852062" lon="11.477951457957213"><ele>962.5</ele><time>2026-04-26T12:12:49Z</time></trkpt><trkpt lat="44.0428467089935" lon="11.478104796646386"><ele>962.25</ele><time>2026-04-26T12:12:50Z</time></trkpt><trkpt lat="44.042790501940935" lon="11.47824473160679"><ele>962.0</ele><time>2026-04-26T12:12:51Z</time></trkpt><trkpt lat="44.04274067007131" lon="11.478405833696819"><ele>962.0</ele><time>2026-04-26T12:12:52Z</time></trkpt><trkpt lat="44.04269150547416" lon="11.47856223151742"><ele>962.0</ele><time>2026-04-26T12:12:53Z</time></trkpt><trkpt lat="44.04264024830574" lon="11.478691955642116"><ele>962.0</ele><time>2026-04-26T12:12:54Z</time></trkpt><trkpt lat="44.0425898928243" lon="11.47879068052961"><ele>962.0</ele><time>2026-04-26T12:12:55Z</time></trkpt><trkpt lat="44.0425338390542" lon="11.478890842988786"><ele>962.0</ele><time>2026-04-26T12:12:56Z</time></trkpt><trkpt lat="44.042469043877496" lon="11.479000686088863"><ele>952.75</ele><time>2026-04-26T12:12:57Z</time></trkpt><trkpt lat="44.04239046095794" lon="11.479129555935643"><ele>943.5</ele><time>2026-04-26T12:12:58Z</time></trkpt><trkpt lat="44.04229725651375" lon="11.47927301645778"><ele>934.25</ele><time>2026-04-26T12:12:59Z</time></trkpt><trkpt lat="44.04221368408761" lon="11.479424195271315"><ele>925.0</ele><time>2026-04-26T12:13:00Z</time></trkpt><trkpt lat="44.0421276872879" lon="11.479547228695727"><ele>927.75</ele><time>2026-04-26T12:13:01Z</time></trkpt><trkpt lat="44.042054017168745" lon="11.479691440592168"><ele>930.5</ele><time>2026-04-26T12:13:02Z</time></trkpt><trkpt lat="44.042005815557" lon="11.47986506397137"><ele>933.25</ele><time>2026-04-26T12:13:03Z</time></trkpt><trkpt lat="44.041974347345445" lon="11.480059180494543"><ele>936.0</ele><time>2026-04-26T12:13:04Z</time></trkpt><trkpt lat="44.041928701056854" lon="11.480253321657239"><ele>938.25</ele><time>2026-04-26T12:13:05Z</time></trkpt><trkpt lat="44.04187535205018" lon="11.480440622349112"><ele>940.5</ele><time>2026-04-26T12:13:06Z</time></trkpt><trkpt lat="44.041836000786965" lon="11.480626937582606"><ele>942.75</ele><time>2026-04-26T12:13:07Z</time></trkpt><trkpt lat="44.041820029882295" lon="11.480835204169201"><ele>945.0</ele><time>2026-04-26T12:13:08Z</time></trkpt><trkpt lat="44.041778574483395" lon="11.481026370861038"><ele>945.0</ele><time>2026-04-26T12:13:09Z</time></trkpt><trkpt lat="44.04170870499441" lon="11.48118892367614"><ele>945.0</ele><time>2026-04-26T12:13:10Z</time></trkpt><trkpt lat="44.041614205185475" lon="11.481346720294363"><ele>945.0</ele><time>2026-04-26T12:13:11Z</time></trkpt><trkpt lat="44.04155396676973" lon="11.481506879579431"><ele>945.0</ele><time>2026-04-26T12:13:12Z</time></trkpt><trkpt lat="44.04150604490905" lon="11.481637711909508"><ele>938.0</ele><time>2026-04-26T12:13:13Z</time></trkpt><trkpt lat="44.041451219205605" lon="11.481744837241704"><ele>931.0</ele><time>2026-04-26T12:13:14Z</time></trkpt><trkpt lat="44.04136280619437" lon="11.481786737762018"><ele>924.0</ele><time>2026-04-26T12:13:15Z</time></trkpt><trkpt lat="44.04123374574733" lon="11.481845520407237"><ele>917.0</ele><time>2026-04-26T12:13:16Z</time></trkpt><trkpt lat="44.041116186191566" lon="11.48191818502723"><ele>917.0</ele><time>2026-04-26T12:13:17Z</time></trkpt><trkpt lat="44.04099166011078" lon="11.481938122290119"><ele>917.0</ele><time>2026-04-26T12:13:18Z</time></trkpt><trkpt lat="44.040867747097174" lon="11.48195324469305"><ele>917.0</ele><time>2026-04-26T12:13:19Z</time></trkpt><trkpt lat="44.04075587122343" lon="11.482019919733633"><ele>917.0</ele><time>2026-04-26T12:13:20Z</time></trkpt><trkpt lat="44.04064177116874" lon="11.482107810510117"><ele>915.75</ele><time>2026-04-26T12:13:21Z</time></trkpt><trkpt lat="44.04053179168838" lon="11.482233609769896"><ele>914.5</ele><time>2026-04-26T12:13:22Z</time></trkpt><trkpt lat="44.04044947036871" lon="11.482363571478366"><ele>913.25</ele><time>2026-04-26T12:13:23Z</time></trkpt><trkpt lat="44.04038762626395" lon="11.482515509230428"><ele>912.0</ele><time>2026-04-26T12:13:24Z</time></trkpt><trkpt lat="44.04032815920634" lon="11.48269152319255"><ele>912.0</ele><time>2026-04-26T12:13:25Z</time></trkpt><trkpt lat="44.040280602515914" lon="11.482866128624835"><ele>912.0</ele><time>2026-04-26T12:13:26Z</time></trkpt><trkpt lat="44.04023130319308" lon="11.483020805974071"><ele>912.0</ele><time>2026-04-26T12:13:27Z</time></trkpt><trkpt lat="44.040223759008974" lon="11.48317514325612"><ele>912.0</ele><time>2026-04-26T12:13:28Z</time></trkpt><trkpt lat="44.040208780286285" lon="11.48329304532885"><ele>911.5</ele><time>2026-04-26T12:13:29Z</time></trkpt><trkpt lat="44.04017469998201" lon="11.483388641979218"><ele>911.0</ele><time>2026-04-26T12:13:30Z</time></trkpt><trkpt lat="44.04011421436796" lon="11.483466707980309"><ele>910.5</ele><time>2026-04-26T12:13:31Z</time></trkpt><trkpt lat="44.04002674516017" lon="11.483475843781658"><ele>910.0</ele><time>2026-04-26T12:13:32Z</time></trkpt><trkpt lat="44.03993499408631" lon="11.483483570621795"><ele>909.5</ele><time>2026-04-26T12:13:33Z</time></trkpt><trkpt lat="44.03986111117761" lon="11.483582621938236"><ele>909.0</ele><time>2026-04-26T12:13:34Z</time></trkpt><trkpt lat="44.03979626579121" lon="11.483708672738636"><ele>914.5</ele><time>2026-04-26T12:13:35Z</time></trkpt><trkpt lat="44.03971948458748" lon="11.483794184435208"><ele>920.0</ele><time>2026-04-26T12:13:36Z</time></trkpt><trkpt lat="44.03963816149113" lon="11.483893360025656"><ele>925.5</ele><time>2026-04-26T12:13:37Z</time></trkpt><trkpt lat="44.039513521345725" lon="11.483907252409363"><ele>931.0</ele><time>2026-04-26T12:13:38.001Z</time></trkpt><trkpt lat="44.03939637155712" lon="11.483929398934391"><ele>931.0</ele><time>2026-04-26T12:13:39.001Z</time></trkpt><trkpt lat="44.03928038886711" lon="11.48394200878602"><ele>930.9999999999999</ele><time>2026-04-26T12:13:40.001Z</time></trkpt><trkpt lat="44.039165363265376" lon="11.483970037624651"><ele>930.9999999999999</ele><time>2026-04-26T12:13:41.001Z</time></trkpt><trkpt lat="44.03905943800593" lon="11.483964961476058"><ele>931.0</ele><time>2026-04-26T12:13:42.001Z</time></trkpt><trkpt lat="44.03895461408052" lon="11.483956922932329"><ele>931.0</ele><time>2026-04-26T12:13:43.001Z</time></trkpt><trkpt lat="44.03886886051174" lon="11.483926926123756"><ele>930.4</ele><time>2026-04-26T12:13:44.001Z</time></trkpt><trkpt lat="44.03880680960902" lon="11.483891153940197"><ele>929.8</ele><time>2026-04-26T12:13:45.001Z</time></trkpt><trkpt lat="44.038728993618236" lon="11.483821344750188"><ele>929.1999999999999</ele><time>2026-04-26T12:13:47.001Z</time></trkpt><trkpt lat="44.03865228694402" lon="11.483695504405475"><ele>928.5999999999999</ele><time>2026-04-26T12:13:49.001Z</time></trkpt><trkpt lat="44.038600482941995" lon="11.483600628181708"><ele>928.0</ele><time>2026-04-26T12:13:50.001Z</time></trkpt><trkpt lat="44.03853022277143" lon="11.483498202257046"><ele>927.8333333333333</ele><time>2026-04-26T12:13:51.001Z</time></trkpt><trkpt lat="44.03846166199571" lon="11.483382581966703"><ele>927.6666666666666</ele><time>2026-04-26T12:13:52.001Z</time></trkpt><trkpt lat="44.03840456486483" lon="11.483281527400027"><ele>927.5</ele><time>2026-04-26T12:13:53.001Z</time></trkpt><trkpt lat="44.038355209447644" lon="11.483199044391341"><ele>927.3333333333333</ele><time>2026-04-26T12:13:54.001Z</time></trkpt><trkpt lat="44.03831308045843" lon="11.48311972704464"><ele>927.1666666666666</ele><time>2026-04-26T12:13:55.001Z</time></trkpt><trkpt lat="44.038291509742116" lon="11.483028724418318"><ele>927.0</ele><time>2026-04-26T12:13:56.001Z</time></trkpt><trkpt lat="44.03826404923336" lon="11.48294182998833"><ele>929.7142857142856</ele><time>2026-04-26T12:13:57.001Z</time></trkpt><trkpt lat="44.03823210677578" lon="11.482853617121"><ele>932.4285714285713</ele><time>2026-04-26T12:13:58.001Z</time></trkpt><trkpt lat="44.0382338457621" lon="11.482755863374814"><ele>935.1428571428571</ele><time>2026-04-26T12:13:59.001Z</time></trkpt><trkpt lat="44.03822268805271" lon="11.482659531617484"><ele>937.8571428571428</ele><time>2026-04-26T12:14:00.001Z</time></trkpt><trkpt lat="44.038196341844696" lon="11.482559003858308"><ele>940.5714285714284</ele><time>2026-04-26T12:14:01.001Z</time></trkpt><trkpt lat="44.03818570546068" lon="11.482448489718399"><ele>943.2857142857143</ele><time>2026-04-26T12:14:02.001Z</time></trkpt><trkpt lat="44.03816848184236" lon="11.482338556295424"><ele>946.0</ele><time>2026-04-26T12:14:03.001Z</time></trkpt><trkpt lat="44.03813767914332" lon="11.482236020222986"><ele>945.9999999999999</ele><time>2026-04-26T12:14:04.001Z</time></trkpt><trkpt lat="44.03809133315068" lon="11.482164482700187"><ele>946.0</ele><time>2026-04-26T12:14:05.001Z</time></trkpt><trkpt lat="44.03802005770718" lon="11.482100096517772"><ele>946.0</ele><time>2026-04-26T12:14:06.001Z</time></trkpt><trkpt lat="44.03795068943028" lon="11.482036827904446"><ele>946.0</ele><time>2026-04-26T12:14:07.001Z</time></trkpt><trkpt lat="44.03789679343346" lon="11.481955466230284"><ele>945.9999999999999</ele><time>2026-04-26T12:14:08.001Z</time></trkpt><trkpt lat="44.037868972215435" lon="11.481850570837686"><ele>946.0</ele><time>2026-04-26T12:14:09.001Z</time></trkpt><trkpt lat="44.0378684408347" lon="11.481734132949628"><ele>943.4999999999999</ele><time>2026-04-26T12:14:10Z</time></trkpt><trkpt lat="44.037887325911726" lon="11.481624657523202"><ele>941.0</ele><time>2026-04-26T12:14:11Z</time></trkpt><trkpt lat="44.03791666553638" lon="11.481531631106423"><ele>938.5</ele><time>2026-04-26T12:14:12Z</time></trkpt><trkpt lat="44.03794263008833" lon="11.481387952401526"><ele>936.0</ele><time>2026-04-26T12:14:14Z</time></trkpt><trkpt lat="44.037952926562006" lon="11.481274511213291"><ele>933.4999999999999</ele><time>2026-04-26T12:14:17Z</time></trkpt><trkpt lat="44.037923825008804" lon="11.481381795939706"><ele>931.0</ele><time>2026-04-26T12:14:21Z</time></trkpt><trkpt lat="44.037874081742466" lon="11.481464918123926"><ele>931.0</ele><time>2026-04-26T12:14:22Z</time></trkpt><trkpt lat="44.037859095009246" lon="11.481589321163918"><ele>930.9999999999999</ele><time>2026-04-26T12:14:23Z</time></trkpt><trkpt lat="44.0378440739556" lon="11.48173723890961"><ele>930.9999999999999</ele><time>2026-04-26T12:14:24Z</time></trkpt><trkpt lat="44.037861638287055" lon="11.48187091407786"><ele>931.0</ele><time>2026-04-26T12:14:25Z</time></trkpt><trkpt lat="44.037927051142844" lon="11.482039987294494"><ele>931.0</ele><time>2026-04-26T12:14:26Z</time></trkpt><trkpt lat="44.03799103280289" lon="11.48213572859999"><ele>934.0</ele><time>2026-04-26T12:14:27Z</time></trkpt><trkpt lat="44.03809812070589" lon="11.48222033856139"><ele>936.9999999999999</ele><time>2026-04-26T12:14:28Z</time></trkpt><trkpt lat="44.03815626368871" lon="11.48232487905538"><ele>939.9999999999999</ele><time>2026-04-26T12:14:29Z</time></trkpt><trkpt lat="44.03819828193227" lon="11.482444355848015"><ele>943.0</ele><time>2026-04-26T12:14:30Z</time></trkpt><trkpt lat="44.03819866336131" lon="11.482613947376693"><ele>946.0</ele><time>2026-04-26T12:14:31Z</time></trkpt><trkpt lat="44.03823782477044" lon="11.482824035398457"><ele>941.25</ele><time>2026-04-26T12:14:31.999Z</time></trkpt><trkpt lat="44.038310736200465" lon="11.483091181647982"><ele>936.5</ele><time>2026-04-26T12:14:32.999Z</time></trkpt><trkpt lat="44.038359129158" lon="11.483239512636924"><ele>931.75</ele><time>2026-04-26T12:14:33.999Z</time></trkpt><trkpt lat="44.03843530663279" lon="11.48336231532998"><ele>927.0</ele><time>2026-04-26T12:14:34.999Z</time></trkpt><trkpt lat="44.03850063431419" lon="11.483474420109534"><ele>927.0</ele><time>2026-04-26T12:14:35.999Z</time></trkpt><trkpt lat="44.03855845078093" lon="11.483572638890582"><ele>927.0</ele><time>2026-04-26T12:14:36.999Z</time></trkpt><trkpt lat="44.038650328952556" lon="11.483737660803262"><ele>927.0</ele><time>2026-04-26T12:14:38.999Z</time></trkpt><trkpt lat="44.03871680716514" lon="11.483849010927873"><ele>927.0</ele><time>2026-04-26T12:14:40.999Z</time></trkpt><trkpt lat="44.03876870628803" lon="11.483902657473157"><ele>927.0</ele><time>2026-04-26T12:14:42.999Z</time></trkpt><trkpt lat="44.038850788008105" lon="11.483927615378267"><ele>927.1666666666666</ele><time>2026-04-26T12:14:46.999Z</time></trkpt><trkpt lat="44.03892109592687" lon="11.483946511736658"><ele>927.3333333333333</ele><time>2026-04-26T12:14:48.999Z</time></trkpt><trkpt lat="44.03899168846626" lon="11.483981870582156"><ele>927.5</ele><time>2026-04-26T12:14:50.999Z</time></trkpt><trkpt lat="44.0390590325566" lon="11.483997854556232"><ele>927.6666666666666</ele><time>2026-04-26T12:14:53.999Z</time></trkpt><trkpt lat="44.038974357554686" lon="11.483993242816938"><ele>927.8333333333333</ele><time>2026-04-26T12:15:30.999Z</time></trkpt><trkpt lat="44.03889565152485" lon="11.483968046599044"><ele>928.0</ele><time>2026-04-26T12:15:32.999Z</time></trkpt><trkpt lat="44.03882419229658" lon="11.483927909347718"><ele>928.0000000000001</ele><time>2026-04-26T12:15:34.999Z</time></trkpt><trkpt lat="44.03874240334708" lon="11.483881938277577"><ele>928.0</ele><time>2026-04-26T12:15:37.999Z</time></trkpt><trkpt lat="44.03880651441254" lon="11.483917972315162"><ele>928.0000000000001</ele><time>2026-04-26T12:16:48.999Z</time></trkpt><trkpt lat="44.03887577660014" lon="11.483938054163133"><ele>928.0000000000001</ele><time>2026-04-26T12:16:56.999Z</time></trkpt><trkpt lat="44.03884279812854" lon="11.483863362724474"><ele>928.0</ele><time>2026-04-26T12:20:04.998Z</time></trkpt><trkpt lat="44.038779614505714" lon="11.483864397533006"><ele>928.0000000000001</ele><time>2026-04-26T12:20:18.001Z</time></trkpt><trkpt lat="44.0387393764206" lon="11.483795128044001"><ele>928.0000000000001</ele><time>2026-04-26T12:20:31.001Z</time></trkpt><trkpt lat="44.038680140547605" lon="11.483748693234864"><ele>927.8333333333333</ele><time>2026-04-26T12:23:28.999Z</time></trkpt><trkpt lat="44.03863347135036" lon="11.483684745771933"><ele>927.6666666666666</ele><time>2026-04-26T12:23:29.999Z</time></trkpt><trkpt lat="44.0385912707696" lon="11.483602102830755"><ele>927.5</ele><time>2026-04-26T12:23:30.999Z</time></trkpt><trkpt lat="44.038550468556075" lon="11.483524770405978"><ele>927.3333333333333</ele><time>2026-04-26T12:23:31.999Z</time></trkpt><trkpt lat="44.03850014973384" lon="11.4834379981574"><ele>927.1666666666666</ele><time>2026-04-26T12:23:32.999Z</time></trkpt><trkpt lat="44.03844615218748" lon="11.483341523855755"><ele>927.0</ele><time>2026-04-26T12:23:33.999Z</time></trkpt><trkpt lat="44.03838592324351" lon="11.48324015633524"><ele>927.0</ele><time>2026-04-26T12:23:34.999Z</time></trkpt><trkpt lat="44.038323532992024" lon="11.483123406183205"><ele>927.0</ele><time>2026-04-26T12:23:35.999Z</time></trkpt><trkpt lat="44.03827116423004" lon="11.482994442619095"><ele>927.0</ele><time>2026-04-26T12:23:36.999Z</time></trkpt><trkpt lat="44.03823042466888" lon="11.482849966570408"><ele>927.0</ele><time>2026-04-26T12:23:37.999Z</time></trkpt><trkpt lat="44.03822730359131" lon="11.482699380485546"><ele>927.0</ele><time>2026-04-26T12:23:38.999Z</time></trkpt><trkpt lat="44.03821113056746" lon="11.482551364860223"><ele>927.8</ele><time>2026-04-26T12:23:39.999Z</time></trkpt><trkpt lat="44.03818635568822" lon="11.48241496404073"><ele>928.6</ele><time>2026-04-26T12:23:40.999Z</time></trkpt><trkpt lat="44.038169635891464" lon="11.482275560742446"><ele>929.3999999999999</ele><time>2026-04-26T12:23:41.999Z</time></trkpt><trkpt lat="44.038085928753894" lon="11.482172499337878"><ele>930.1999999999999</ele><time>2026-04-26T12:23:42.999Z</time></trkpt><trkpt lat="44.03799989319178" lon="11.48208381530099"><ele>931.0</ele><time>2026-04-26T12:23:43.999Z</time></trkpt><trkpt lat="44.03792339943262" lon="11.481988541730292"><ele>931.0</ele><time>2026-04-26T12:23:44.999Z</time></trkpt><trkpt lat="44.037884557052706" lon="11.481861117562582"><ele>930.9999999999999</ele><time>2026-04-26T12:23:45.999Z</time></trkpt><trkpt lat="44.03787357571877" lon="11.481713648022199"><ele>930.9999999999999</ele><time>2026-04-26T12:23:46.999Z</time></trkpt><trkpt lat="44.03788661903788" lon="11.481546263980768"><ele>931.0</ele><time>2026-04-26T12:23:47.999Z</time></trkpt><trkpt lat="44.037927765211485" lon="11.481388764619997"><ele>931.0</ele><time>2026-04-26T12:23:48.999Z</time></trkpt><trkpt lat="44.037954574881894" lon="11.4812368156691"><ele>928.8333333333333</ele><time>2026-04-26T12:23:49.999Z</time></trkpt><trkpt lat="44.0379833676544" lon="11.481092882434453"><ele>926.6666666666666</ele><time>2026-04-26T12:23:50.999Z</time></trkpt><trkpt lat="44.0380200876402" lon="11.480988312844376"><ele>924.5</ele><time>2026-04-26T12:23:51.999Z</time></trkpt><trkpt lat="44.03807706104152" lon="11.480899159488335"><ele>922.3333333333333</ele><time>2026-04-26T12:23:52.999Z</time></trkpt><trkpt lat="44.03814131926507" lon="11.480832671740421"><ele>920.1666666666666</ele><time>2026-04-26T12:23:53.999Z</time></trkpt><trkpt lat="44.03821277197688" lon="11.480799321803735"><ele>918.0</ele><time>2026-04-26T12:23:54.999Z</time></trkpt><trkpt lat="44.03832931141111" lon="11.480882907151106"><ele>918.0</ele><time>2026-04-26T12:23:56.999Z</time></trkpt><trkpt lat="44.03832153005095" lon="11.48101819355544"><ele>918.0</ele><time>2026-04-26T12:23:57.999Z</time></trkpt><trkpt lat="44.03823075411372" lon="11.481131230246193"><ele>918.0</ele><time>2026-04-26T12:23:58.999Z</time></trkpt><trkpt lat="44.038165924235656" lon="11.481274173888115"><ele>918.0</ele><time>2026-04-26T12:23:59.999Z</time></trkpt><trkpt lat="44.03812948229371" lon="11.481418518197637"><ele>920.5999999999999</ele><time>2026-04-26T12:24:00.999Z</time></trkpt><trkpt lat="44.03816541664496" lon="11.481576506599513"><ele>923.1999999999999</ele><time>2026-04-26T12:24:01.999Z</time></trkpt><trkpt lat="44.03821595279385" lon="11.4817052063982"><ele>925.8</ele><time>2026-04-26T12:24:02.999Z</time></trkpt><trkpt lat="44.038290133323834" lon="11.481815667388341"><ele>928.4</ele><time>2026-04-26T12:24:03.999Z</time></trkpt><trkpt lat="44.03838365314875" lon="11.481910151543145"><ele>931.0</ele><time>2026-04-26T12:24:04.999Z</time></trkpt><trkpt lat="44.03847312553841" lon="11.482059314729213"><ele>927.0</ele><time>2026-04-26T12:24:05.999Z</time></trkpt><trkpt lat="44.038522528299275" lon="11.482235462007857"><ele>923.0</ele><time>2026-04-26T12:24:06.999Z</time></trkpt><trkpt lat="44.03861203494758" lon="11.482395067330406"><ele>919.0</ele><time>2026-04-26T12:24:07.999Z</time></trkpt><trkpt lat="44.0387110933551" lon="11.482526295369826"><ele>915.0</ele><time>2026-04-26T12:24:08.999Z</time></trkpt><trkpt lat="44.03880479764356" lon="11.482642238148049"><ele>915.0</ele><time>2026-04-26T12:24:09.999Z</time></trkpt><trkpt lat="44.03888385432253" lon="11.482742275122535"><ele>915.0</ele><time>2026-04-26T12:24:10.999Z</time></trkpt><trkpt lat="44.03895254377551" lon="11.482835386524679"><ele>915.0</ele><time>2026-04-26T12:24:11.999Z</time></trkpt><trkpt lat="44.039052546288914" lon="11.482859188794542"><ele>915.0</ele><time>2026-04-26T12:24:12.999Z</time></trkpt><trkpt lat="44.039146468920045" lon="11.482845118881764"><ele>915.0</ele><time>2026-04-26T12:24:13.999Z</time></trkpt><trkpt lat="44.03923925119976" lon="11.482767828388447"><ele>906.75</ele><time>2026-04-26T12:24:14.999Z</time></trkpt><trkpt lat="44.03932263638094" lon="11.482626334206918"><ele>898.5</ele><time>2026-04-26T12:24:15.999Z</time></trkpt><trkpt lat="44.03939869014305" lon="11.482465078848255"><ele>890.25</ele><time>2026-04-26T12:24:16.999Z</time></trkpt><trkpt lat="44.03947709955499" lon="11.48228782424753"><ele>882.0</ele><time>2026-04-26T12:24:18Z</time></trkpt><trkpt lat="44.039551510986215" lon="11.482144602799691"><ele>881.25</ele><time>2026-04-26T12:24:19Z</time></trkpt><trkpt lat="44.039649084828945" lon="11.482052169137154"><ele>880.5</ele><time>2026-04-26T12:24:20Z</time></trkpt><trkpt lat="44.03972019199839" lon="11.482008330972185"><ele>879.75</ele><time>2026-04-26T12:24:21Z</time></trkpt><trkpt lat="44.039879076610305" lon="11.481892821648016"><ele>879.0</ele><time>2026-04-26T12:24:22Z</time></trkpt><trkpt lat="44.04000592165562" lon="11.481739057456837"><ele>879.0</ele><time>2026-04-26T12:24:23Z</time></trkpt><trkpt lat="44.040121767830705" lon="11.481571670082998"><ele>879.0</ele><time>2026-04-26T12:24:24Z</time></trkpt><trkpt lat="44.04023910372044" lon="11.481426458455681"><ele>879.0</ele><time>2026-04-26T12:24:25Z</time></trkpt><trkpt lat="44.04035690192046" lon="11.481307054953833"><ele>872.5</ele><time>2026-04-26T12:24:26Z</time></trkpt><trkpt lat="44.04046758293951" lon="11.481183152252981"><ele>866.0</ele><time>2026-04-26T12:24:27Z</time></trkpt><trkpt lat="44.040537253711875" lon="11.481026232079875"><ele>859.5</ele><time>2026-04-26T12:24:28Z</time></trkpt><trkpt lat="44.040599266374585" lon="11.480871309835878"><ele>853.0</ele><time>2026-04-26T12:24:29Z</time></trkpt><trkpt lat="44.040613049777996" lon="11.480690802601224"><ele>853.0</ele><time>2026-04-26T12:24:30Z</time></trkpt><trkpt lat="44.04058865823251" lon="11.480490421098235"><ele>853.0</ele><time>2026-04-26T12:24:31Z</time></trkpt><trkpt lat="44.04055179324012" lon="11.480283718258715"><ele>853.0</ele><time>2026-04-26T12:24:32Z</time></trkpt><trkpt lat="44.04060013382355" lon="11.48007110694536"><ele>850.3333333333333</ele><time>2026-04-26T12:24:33Z</time></trkpt><trkpt lat="44.040632449358945" lon="11.479839068280505"><ele>847.6666666666667</ele><time>2026-04-26T12:24:34Z</time></trkpt><trkpt lat="44.04062787955185" lon="11.479618039726981"><ele>845.0</ele><time>2026-04-26T12:24:35Z</time></trkpt><trkpt lat="44.04062570156199" lon="11.479402125231227"><ele>844.75</ele><time>2026-04-26T12:24:36Z</time></trkpt><trkpt lat="44.04062023382093" lon="11.479201260159394"><ele>844.5</ele><time>2026-04-26T12:24:37Z</time></trkpt><trkpt lat="44.040613172923216" lon="11.479021831199894"><ele>844.25</ele><time>2026-04-26T12:24:38Z</time></trkpt><trkpt lat="44.04059909731587" lon="11.478864582180393"><ele>844.0</ele><time>2026-04-26T12:24:39Z</time></trkpt><trkpt lat="44.040558498934146" lon="11.478730970623335"><ele>844.0</ele><time>2026-04-26T12:24:40Z</time></trkpt><trkpt lat="44.04048069473021" lon="11.478617609526403"><ele>844.0</ele><time>2026-04-26T12:24:41Z</time></trkpt><trkpt lat="44.04036497464043" lon="11.478558873259807"><ele>844.0</ele><time>2026-04-26T12:24:42Z</time></trkpt><trkpt lat="44.04023840177218" lon="11.478542826482549"><ele>844.0</ele><time>2026-04-26T12:24:43Z</time></trkpt><trkpt lat="44.04014811790365" lon="11.478493002917178"><ele>844.0</ele><time>2026-04-26T12:24:44Z</time></trkpt><trkpt lat="44.04014066208414" lon="11.478351004303345"><ele>844.0</ele><time>2026-04-26T12:24:45Z</time></trkpt><trkpt lat="44.04015833730922" lon="11.47820086646388"><ele>844.0</ele><time>2026-04-26T12:24:46Z</time></trkpt><trkpt lat="44.04020134851088" lon="11.478058574315813"><ele>844.0</ele><time>2026-04-26T12:24:47Z</time></trkpt><trkpt lat="44.04025020932885" lon="11.47794762345922"><ele>844.0</ele><time>2026-04-26T12:24:48Z</time></trkpt><trkpt lat="44.04034629667923" lon="11.477937079557533"><ele>843.9999999999999</ele><time>2026-04-26T12:24:49Z</time></trkpt><trkpt lat="44.040434723676334" lon="11.478032290337103"><ele>844.0</ele><time>2026-04-26T12:24:50Z</time></trkpt><trkpt lat="44.04051485321896" lon="11.478047437458226"><ele>844.0</ele><time>2026-04-26T12:24:51Z</time></trkpt><trkpt lat="44.04057547721387" lon="11.47800228160774"><ele>844.0</ele><time>2026-04-26T12:24:52Z</time></trkpt><trkpt lat="44.04062416367826" lon="11.477899305788368"><ele>843.9999999999999</ele><time>2026-04-26T12:24:53Z</time></trkpt><trkpt lat="44.040658325657006" lon="11.477793549528899"><ele>844.0</ele><time>2026-04-26T12:24:54Z</time></trkpt><trkpt lat="44.040690706927336" lon="11.4776625737609"><ele>844.4000000000001</ele><time>2026-04-26T12:24:55Z</time></trkpt><trkpt lat="44.04071938924234" lon="11.477511455887354"><ele>844.8</ele><time>2026-04-26T12:24:56Z</time></trkpt><trkpt lat="44.04073868256904" lon="11.47735414232287"><ele>845.2</ele><time>2026-04-26T12:24:57Z</time></trkpt><trkpt lat="44.04074492153632" lon="11.47720719913667"><ele>845.5999999999999</ele><time>2026-04-26T12:24:58Z</time></trkpt><trkpt lat="44.040731745459155" lon="11.477072642626814"><ele>846.0</ele><time>2026-04-26T12:24:59Z</time></trkpt><trkpt lat="44.040711576326345" lon="11.476936242849607"><ele>846.0</ele><time>2026-04-26T12:25:00Z</time></trkpt><trkpt lat="44.04068503981702" lon="11.476807393627984"><ele>846.0</ele><time>2026-04-26T12:25:01Z</time></trkpt><trkpt lat="44.04064363236081" lon="11.476671355498455"><ele>846.0</ele><time>2026-04-26T12:25:02Z</time></trkpt><trkpt lat="44.04058060705729" lon="11.47656682839297"><ele>846.0</ele><time>2026-04-26T12:25:03Z</time></trkpt><trkpt lat="44.04049050180983" lon="11.476502453960489"><ele>846.0</ele><time>2026-04-26T12:25:04Z</time></trkpt><trkpt lat="44.040375637045166" lon="11.476484711796067"><ele>846.0</ele><time>2026-04-26T12:25:05Z</time></trkpt><trkpt lat="44.040250643620936" lon="11.47649488722173"><ele>846.0</ele><time>2026-04-26T12:25:06Z</time></trkpt><trkpt lat="44.040125806052465" lon="11.476501388629943"><ele>846.0</ele><time>2026-04-26T12:25:07Z</time></trkpt><trkpt lat="44.03999206261413" lon="11.47649968071875"><ele>846.0</ele><time>2026-04-26T12:25:08Z</time></trkpt><trkpt lat="44.0398511870272" lon="11.476476278748866"><ele>840.5</ele><time>2026-04-26T12:25:09Z</time></trkpt><trkpt lat="44.039727035220345" lon="11.476409812391804"><ele>835.0</ele><time>2026-04-26T12:25:10Z</time></trkpt><trkpt lat="44.039600941921336" lon="11.476358343431555"><ele>829.5</ele><time>2026-04-26T12:25:11Z</time></trkpt><trkpt lat="44.03948092709154" lon="11.476344767870664"><ele>824.0</ele><time>2026-04-26T12:25:12Z</time></trkpt><trkpt lat="44.03937314073965" lon="11.476332133405332"><ele>824.0</ele><time>2026-04-26T12:25:13Z</time></trkpt><trkpt lat="44.0392825682817" lon="11.47627752883822"><ele>824.0</ele><time>2026-04-26T12:25:14Z</time></trkpt><trkpt lat="44.03922568332495" lon="11.47615775058539"><ele>824.0</ele><time>2026-04-26T12:25:15Z</time></trkpt><trkpt lat="44.03918956007875" lon="11.476025155249282"><ele>824.0</ele><time>2026-04-26T12:25:16Z</time></trkpt><trkpt lat="44.03913053043277" lon="11.475887767079499"><ele>824.0</ele><time>2026-04-26T12:25:17Z</time></trkpt><trkpt lat="44.03906962711402" lon="11.475750407265952"><ele>821.5</ele><time>2026-04-26T12:25:18Z</time></trkpt><trkpt lat="44.03898019534543" lon="11.47562957618678"><ele>819.0</ele><time>2026-04-26T12:25:19Z</time></trkpt><trkpt lat="44.0388827822746" lon="11.475518505181961"><ele>816.5</ele><time>2026-04-26T12:25:20Z</time></trkpt><trkpt lat="44.038783580546486" lon="11.475412797707197"><ele>814.0</ele><time>2026-04-26T12:25:21Z</time></trkpt><trkpt lat="44.038699496941746" lon="11.475313798178442"><ele>812.0</ele><time>2026-04-26T12:25:22Z</time></trkpt><trkpt lat="44.038616024762824" lon="11.475235022374255"><ele>810.0</ele><time>2026-04-26T12:25:23Z</time></trkpt><trkpt lat="44.0385176545266" lon="11.475184860564738"><ele>808.0</ele><time>2026-04-26T12:25:24Z</time></trkpt><trkpt lat="44.03840578092263" lon="11.475172217627987"><ele>806.0</ele><time>2026-04-26T12:25:25Z</time></trkpt><trkpt lat="44.038288761333824" lon="11.475176833436432"><ele>804.0</ele><time>2026-04-26T12:25:26Z</time></trkpt><trkpt lat="44.038175347189195" lon="11.47520249309151"><ele>804.0</ele><time>2026-04-26T12:25:27Z</time></trkpt><trkpt lat="44.0380686926853" lon="11.475225826595208"><ele>804.0</ele><time>2026-04-26T12:25:28Z</time></trkpt><trkpt lat="44.03796636173301" lon="11.475255990727836"><ele>804.0</ele><time>2026-04-26T12:25:29Z</time></trkpt><trkpt lat="44.037874371829346" lon="11.475265876504505"><ele>804.0</ele><time>2026-04-26T12:25:30Z</time></trkpt><trkpt lat="44.03778614840251" lon="11.475244628705417"><ele>804.0</ele><time>2026-04-26T12:25:31Z</time></trkpt><trkpt lat="44.0377180369342" lon="11.47517970549129"><ele>804.0</ele><time>2026-04-26T12:25:32Z</time></trkpt><trkpt lat="44.037675849729716" lon="11.475075050686469"><ele>804.0</ele><time>2026-04-26T12:25:33Z</time></trkpt><trkpt lat="44.03770475732073" lon="11.474938326489378"><ele>804.0</ele><time>2026-04-26T12:25:34Z</time></trkpt><trkpt lat="44.037708635151866" lon="11.474800005286486"><ele>804.0</ele><time>2026-04-26T12:25:35Z</time></trkpt><trkpt lat="44.037713557307214" lon="11.474660719326119"><ele>804.0</ele><time>2026-04-26T12:25:36Z</time></trkpt><trkpt lat="44.03775053674652" lon="11.47454634600188"><ele>800.6</ele><time>2026-04-26T12:25:37Z</time></trkpt><trkpt lat="44.03782964190503" lon="11.474488046962122"><ele>797.2</ele><time>2026-04-26T12:25:38Z</time></trkpt><trkpt lat="44.037918923778605" lon="11.474432922527681"><ele>793.8000000000001</ele><time>2026-04-26T12:25:39Z</time></trkpt><trkpt lat="44.03802116894009" lon="11.47437554899355"><ele>790.4000000000001</ele><time>2026-04-26T12:25:40Z</time></trkpt><trkpt lat="44.03813069810004" lon="11.47434758878344"><ele>787.0</ele><time>2026-04-26T12:25:41Z</time></trkpt><trkpt lat="44.03824677641198" lon="11.474349243728811"><ele>793.5</ele><time>2026-04-26T12:25:42Z</time></trkpt><trkpt lat="44.03836750915188" lon="11.474358561369986"><ele>800.0</ele><time>2026-04-26T12:25:43Z</time></trkpt><trkpt lat="44.03848421797672" lon="11.474311787090114"><ele>806.5</ele><time>2026-04-26T12:25:44Z</time></trkpt><trkpt lat="44.03860410295297" lon="11.474258843841035"><ele>813.0</ele><time>2026-04-26T12:25:45Z</time></trkpt><trkpt lat="44.03870742740898" lon="11.474155315816772"><ele>813.0</ele><time>2026-04-26T12:25:46Z</time></trkpt><trkpt lat="44.0387658664736" lon="11.47399946833463"><ele>813.0</ele><time>2026-04-26T12:25:47Z</time></trkpt><trkpt lat="44.03885382641456" lon="11.47393160593417"><ele>813.0</ele><time>2026-04-26T12:25:48Z</time></trkpt><trkpt lat="44.03894838794362" lon="11.473902642772535"><ele>813.0</ele><time>2026-04-26T12:25:49Z</time></trkpt><trkpt lat="44.03903818284962" lon="11.473974466081046"><ele>813.0</ele><time>2026-04-26T12:25:50Z</time></trkpt><trkpt lat="44.03914866691819" lon="11.47401273464885"><ele>809.75</ele><time>2026-04-26T12:25:51Z</time></trkpt><trkpt lat="44.039261183283074" lon="11.474016922299521"><ele>806.5</ele><time>2026-04-26T12:25:52Z</time></trkpt><trkpt lat="44.039373071373696" lon="11.473989417960318"><ele>803.25</ele><time>2026-04-26T12:25:53Z</time></trkpt><trkpt lat="44.03949056217372" lon="11.473917854458495"><ele>800.0</ele><time>2026-04-26T12:25:54Z</time></trkpt><trkpt lat="44.039573893712294" lon="11.473758613348288"><ele>800.0</ele><time>2026-04-26T12:25:54.999Z</time></trkpt><trkpt lat="44.039643464493615" lon="11.473587209221236"><ele>800.0</ele><time>2026-04-26T12:25:55.999Z</time></trkpt><trkpt lat="44.03970343543095" lon="11.473408480810427"><ele>800.0</ele><time>2026-04-26T12:25:56.999Z</time></trkpt><trkpt lat="44.039798168351304" lon="11.47326504553545"><ele>800.0</ele><time>2026-04-26T12:25:57.999Z</time></trkpt><trkpt lat="44.039881794110286" lon="11.473141849906238"><ele>800.0</ele><time>2026-04-26T12:25:58.999Z</time></trkpt><trkpt lat="44.039931385661504" lon="11.473036192123892"><ele>800.0</ele><time>2026-04-26T12:25:59.999Z</time></trkpt><trkpt lat="44.03993423227703" lon="11.472906259552701"><ele>800.0</ele><time>2026-04-26T12:26:00.999Z</time></trkpt><trkpt lat="44.03988380071272" lon="11.472766594306558"><ele>800.0</ele><time>2026-04-26T12:26:01.999Z</time></trkpt><trkpt lat="44.03980286086455" lon="11.47262534919541"><ele>800.0</ele><time>2026-04-26T12:26:02.999Z</time></trkpt><trkpt lat="44.03976303847153" lon="11.472438784517728"><ele>800.2</ele><time>2026-04-26T12:26:03.999Z</time></trkpt><trkpt lat="44.039771357443264" lon="11.472289490455807"><ele>800.4</ele><time>2026-04-26T12:26:04.999Z</time></trkpt><trkpt lat="44.03976045578152" lon="11.472118488549764"><ele>800.5999999999999</ele><time>2026-04-26T12:26:05.999Z</time></trkpt><trkpt lat="44.03973745150282" lon="11.472000653345155"><ele>800.8</ele><time>2026-04-26T12:26:06.999Z</time></trkpt><trkpt lat="44.03968739320249" lon="11.471923285189733"><ele>801.0</ele><time>2026-04-26T12:26:07.999Z</time></trkpt><trkpt lat="44.03960946153896" lon="11.471904373453857"><ele>801.0</ele><time>2026-04-26T12:26:08.999Z</time></trkpt><trkpt lat="44.03952917552969" lon="11.47197125995371"><ele>801.0</ele><time>2026-04-26T12:26:09.999Z</time></trkpt><trkpt lat="44.039468990786396" lon="11.472089389724292"><ele>801.0</ele><time>2026-04-26T12:26:10.999Z</time></trkpt><trkpt lat="44.03942499293653" lon="11.472255121976602"><ele>801.0</ele><time>2026-04-26T12:26:11.999Z</time></trkpt><trkpt lat="44.03937144759817" lon="11.472385010872213"><ele>801.0</ele><time>2026-04-26T12:26:12.999Z</time></trkpt><trkpt lat="44.03928333030297" lon="11.47244925490975"><ele>801.0</ele><time>2026-04-26T12:26:13.999Z</time></trkpt><trkpt lat="44.03916408922456" lon="11.472423179980593"><ele>801.0</ele><time>2026-04-26T12:26:14.999Z</time></trkpt><trkpt lat="44.03904381912237" lon="11.472408637991885"><ele>801.0</ele><time>2026-04-26T12:26:15.999Z</time></trkpt><trkpt lat="44.03891561838144" lon="11.472379660461504"><ele>801.0</ele><time>2026-04-26T12:26:16.999Z</time></trkpt><trkpt lat="44.038793438634" lon="11.472385805437082"><ele>798.75</ele><time>2026-04-26T12:26:17.999Z</time></trkpt><trkpt lat="44.03863294567775" lon="11.472394643638562"><ele>796.5</ele><time>2026-04-26T12:26:18.999Z</time></trkpt><trkpt lat="44.03850738448596" lon="11.47238274444236"><ele>794.25</ele><time>2026-04-26T12:26:19.999Z</time></trkpt><trkpt lat="44.03838839877933" lon="11.472327838323123"><ele>792.0</ele><time>2026-04-26T12:26:20.999Z</time></trkpt><trkpt lat="44.038288509803714" lon="11.47221041726796"><ele>786.25</ele><time>2026-04-26T12:26:21.999Z</time></trkpt><trkpt lat="44.038172195061" lon="11.472148167203184"><ele>780.5</ele><time>2026-04-26T12:26:22.999Z</time></trkpt><trkpt lat="44.03805156892664" lon="11.472107258206155"><ele>774.75</ele><time>2026-04-26T12:26:24Z</time></trkpt><trkpt lat="44.03793232277794" lon="11.472117506499595"><ele>769.0</ele><time>2026-04-26T12:26:25Z</time></trkpt><trkpt lat="44.037825623661384" lon="11.472176594758757"><ele>769.0</ele><time>2026-04-26T12:26:26Z</time></trkpt><trkpt lat="44.037743029875955" lon="11.472229341262281"><ele>769.0</ele><time>2026-04-26T12:26:27Z</time></trkpt><trkpt lat="44.03764890054857" lon="11.472164941905172"><ele>769.0</ele><time>2026-04-26T12:26:28Z</time></trkpt><trkpt lat="44.037577710562225" lon="11.472016980227448"><ele>769.0</ele><time>2026-04-26T12:26:29Z</time></trkpt><trkpt lat="44.03748091975733" lon="11.471904715510068"><ele>764.8000000000001</ele><time>2026-04-26T12:26:30Z</time></trkpt><trkpt lat="44.03737940334804" lon="11.471839091523622"><ele>760.6</ele><time>2026-04-26T12:26:31Z</time></trkpt><trkpt lat="44.03727449774506" lon="11.471770739907225"><ele>756.4</ele><time>2026-04-26T12:26:32Z</time></trkpt><trkpt lat="44.037197121530944" lon="11.471708613840605"><ele>752.2</ele><time>2026-04-26T12:26:33Z</time></trkpt><trkpt lat="44.037103423401426" lon="11.471651906773879"><ele>748.0</ele><time>2026-04-26T12:26:34Z</time></trkpt><trkpt lat="44.03705427906832" lon="11.471562165836529"><ele>748.0</ele><time>2026-04-26T12:26:35Z</time></trkpt><trkpt lat="44.03703460004807" lon="11.47145747333446"><ele>748.0</ele><time>2026-04-26T12:26:36Z</time></trkpt><trkpt lat="44.03708221657384" lon="11.471361803090078"><ele>748.0</ele><time>2026-04-26T12:26:37Z</time></trkpt><trkpt lat="44.03712536060172" lon="11.471270004290073"><ele>748.0</ele><time>2026-04-26T12:26:38Z</time></trkpt><trkpt lat="44.037164925436706" lon="11.4711767054658"><ele>748.0</ele><time>2026-04-26T12:26:39Z</time></trkpt><trkpt lat="44.03720220089356" lon="11.471066176429092"><ele>748.0</ele><time>2026-04-26T12:26:40Z</time></trkpt><trkpt lat="44.037261493686316" lon="11.470953588086907"><ele>746.25</ele><time>2026-04-26T12:26:41Z</time></trkpt><trkpt lat="44.03732986065085" lon="11.470830355766227"><ele>744.5</ele><time>2026-04-26T12:26:42Z</time></trkpt><trkpt lat="44.037412535005345" lon="11.470705174717372"><ele>742.75</ele><time>2026-04-26T12:26:43Z</time></trkpt><trkpt lat="44.03751508378375" lon="11.47060927302733"><ele>741.0</ele><time>2026-04-26T12:26:44Z</time></trkpt><trkpt lat="44.037592415698875" lon="11.470497400510155"><ele>745.8333333333334</ele><time>2026-04-26T12:26:45Z</time></trkpt><trkpt lat="44.03767087954332" lon="11.47041964305227"><ele>750.6666666666667</ele><time>2026-04-26T12:26:46Z</time></trkpt><trkpt lat="44.037730332386865" lon="11.47034988956884"><ele>755.5</ele><time>2026-04-26T12:26:47Z</time></trkpt><trkpt lat="44.037781499562975" lon="11.470275062230025"><ele>760.3333333333334</ele><time>2026-04-26T12:26:48Z</time></trkpt><trkpt lat="44.037803103841554" lon="11.470181727004364"><ele>765.1666666666667</ele><time>2026-04-26T12:26:49Z</time></trkpt><trkpt lat="44.03780435985458" lon="11.470082380788051"><ele>770.0</ele><time>2026-04-26T12:26:50Z</time></trkpt><trkpt lat="44.037789818622954" lon="11.469984548479486"><ele>770.0000000000001</ele><time>2026-04-26T12:26:51Z</time></trkpt><trkpt lat="44.03775278726253" lon="11.469885476207681"><ele>770.0</ele><time>2026-04-26T12:26:52Z</time></trkpt><trkpt lat="44.037699670573694" lon="11.469795845505836"><ele>770.0</ele><time>2026-04-26T12:26:53Z</time></trkpt><trkpt lat="44.037636443624436" lon="11.469712030226832"><ele>770.0</ele><time>2026-04-26T12:26:54Z</time></trkpt><trkpt lat="44.0375779642709" lon="11.469639911778623"><ele>770.0000000000001</ele><time>2026-04-26T12:26:55Z</time></trkpt><trkpt lat="44.037505375466516" lon="11.469580902501399"><ele>770.0</ele><time>2026-04-26T12:26:56Z</time></trkpt><trkpt lat="44.03741708976424" lon="11.469556140517682"><ele>769.0</ele><time>2026-04-26T12:26:57Z</time></trkpt><trkpt lat="44.037322125397814" lon="11.469556392158953"><ele>768.0</ele><time>2026-04-26T12:26:58Z</time></trkpt><trkpt lat="44.037222428099206" lon="11.46958732990818"><ele>767.0</ele><time>2026-04-26T12:26:59Z</time></trkpt><trkpt lat="44.0370918395701" lon="11.46962381178539"><ele>766.0</ele><time>2026-04-26T12:27:00Z</time></trkpt><trkpt lat="44.036959441318636" lon="11.469724558982714"><ele>766.0</ele><time>2026-04-26T12:27:01Z</time></trkpt><trkpt lat="44.03682797056087" lon="11.469822879619104"><ele>766.0</ele><time>2026-04-26T12:27:02Z</time></trkpt><trkpt lat="44.036670985480605" lon="11.469891329406744"><ele>766.0</ele><time>2026-04-26T12:27:03Z</time></trkpt><trkpt lat="44.03649973592614" lon="11.469950675057312"><ele>767.3333333333334</ele><time>2026-04-26T12:27:04Z</time></trkpt><trkpt lat="44.03633149421247" lon="11.470002027074209"><ele>768.6666666666667</ele><time>2026-04-26T12:27:05Z</time></trkpt><trkpt lat="44.036184837997716" lon="11.470049074390122"><ele>770.0</ele><time>2026-04-26T12:27:06Z</time></trkpt><trkpt lat="44.03605933481072" lon="11.470117623393163"><ele>770.0</ele><time>2026-04-26T12:27:07Z</time></trkpt><trkpt lat="44.035938589387825" lon="11.470177396600318"><ele>770.0</ele><time>2026-04-26T12:27:08Z</time></trkpt><trkpt lat="44.03581926798323" lon="11.470228492895775"><ele>770.0</ele><time>2026-04-26T12:27:09Z</time></trkpt><trkpt lat="44.035725060621445" lon="11.470310393327145"><ele>770.0</ele><time>2026-04-26T12:27:10Z</time></trkpt><trkpt lat="44.0356173330746" lon="11.470306220613685"><ele>763.5</ele><time>2026-04-26T12:27:11Z</time></trkpt><trkpt lat="44.03550326038244" lon="11.470200972208332"><ele>757.0</ele><time>2026-04-26T12:27:12Z</time></trkpt><trkpt lat="44.035393631703315" lon="11.470011232293041"><ele>750.5</ele><time>2026-04-26T12:27:13Z</time></trkpt><trkpt lat="44.035324136569514" lon="11.470006204157805"><ele>744.0</ele><time>2026-04-26T12:27:14Z</time></trkpt><trkpt lat="44.03519750918321" lon="11.469916295206014"><ele>744.0</ele><time>2026-04-26T12:27:15Z</time></trkpt><trkpt lat="44.03507519591301" lon="11.469802052953016"><ele>744.0</ele><time>2026-04-26T12:27:16Z</time></trkpt><trkpt lat="44.03500363912883" lon="11.469707211768254"><ele>744.0</ele><time>2026-04-26T12:27:17Z</time></trkpt><trkpt lat="44.034913432797666" lon="11.469649114324692"><ele>744.0</ele><time>2026-04-26T12:27:18Z</time></trkpt><trkpt lat="44.03480631259157" lon="11.46964243512614"><ele>737.0</ele><time>2026-04-26T12:27:19Z</time></trkpt><trkpt lat="44.034669720954355" lon="11.469690113481255"><ele>730.0</ele><time>2026-04-26T12:27:20Z</time></trkpt><trkpt lat="44.034559837913704" lon="11.469755761540176"><ele>723.0</ele><time>2026-04-26T12:27:21Z</time></trkpt><trkpt lat="44.03447338922168" lon="11.46982536645203"><ele>716.0</ele><time>2026-04-26T12:27:22Z</time></trkpt><trkpt lat="44.034389352126475" lon="11.46983174661951"><ele>709.0</ele><time>2026-04-26T12:27:23Z</time></trkpt><trkpt lat="44.03433194281829" lon="11.469743378503848"><ele>709.0</ele><time>2026-04-26T12:27:24Z</time></trkpt><trkpt lat="44.03428835471206" lon="11.469653624238923"><ele>709.0</ele><time>2026-04-26T12:27:25Z</time></trkpt><trkpt lat="44.03435410589327" lon="11.469513590710916"><ele>709.0</ele><time>2026-04-26T12:27:26Z</time></trkpt><trkpt lat="44.034440758921804" lon="11.46946847229206"><ele>709.0</ele><time>2026-04-26T12:27:27Z</time></trkpt><trkpt lat="44.03453837274459" lon="11.469354105693242"><ele>709.0</ele><time>2026-04-26T12:27:28Z</time></trkpt><trkpt lat="44.034641176679024" lon="11.469199374245127"><ele>709.0</ele><time>2026-04-26T12:27:29Z</time></trkpt><trkpt lat="44.03469058685705" lon="11.468992103990379"><ele>709.0</ele><time>2026-04-26T12:27:30Z</time></trkpt><trkpt lat="44.0347371140689" lon="11.46878501461738"><ele>709.0</ele><time>2026-04-26T12:27:31Z</time></trkpt><trkpt lat="44.03478563138191" lon="11.468577828650606"><ele>709.0</ele><time>2026-04-26T12:27:32Z</time></trkpt><trkpt lat="44.034827483723234" lon="11.468377312039275"><ele>709.0</ele><time>2026-04-26T12:27:33Z</time></trkpt><trkpt lat="44.034854133899074" lon="11.468185418895988"><ele>709.0</ele><time>2026-04-26T12:27:34Z</time></trkpt><trkpt lat="44.03487603517583" lon="11.467992006052198"><ele>709.0</ele><time>2026-04-26T12:27:35Z</time></trkpt><trkpt lat="44.03490026289754" lon="11.467805513336517"><ele>710.2</ele><time>2026-04-26T12:27:36Z</time></trkpt><trkpt lat="44.034924267439045" lon="11.467639510275722"><ele>711.4000000000001</ele><time>2026-04-26T12:27:37Z</time></trkpt><trkpt lat="44.03494402162267" lon="11.467492163346181"><ele>712.6</ele><time>2026-04-26T12:27:38Z</time></trkpt><trkpt lat="44.03496330871731" lon="11.467359400037251"><ele>713.8</ele><time>2026-04-26T12:27:39Z</time></trkpt><trkpt lat="44.03496578924531" lon="11.467238659807451"><ele>715.0</ele><time>2026-04-26T12:27:40Z</time></trkpt><trkpt lat="44.03494439850714" lon="11.467149105091933"><ele>715.0</ele><time>2026-04-26T12:27:41Z</time></trkpt><trkpt lat="44.03489456976471" lon="11.467086746730676"><ele>715.0</ele><time>2026-04-26T12:27:42Z</time></trkpt><trkpt lat="44.03481048701622" lon="11.467071175528286"><ele>715.0</ele><time>2026-04-26T12:27:43Z</time></trkpt><trkpt lat="44.03471306109397" lon="11.467114120929411"><ele>715.0</ele><time>2026-04-26T12:27:44Z</time></trkpt><trkpt lat="44.03460606447044" lon="11.467195521480345"><ele>715.0</ele><time>2026-04-26T12:27:45Z</time></trkpt><trkpt lat="44.034486702169055" lon="11.467289698680785"><ele>715.0</ele><time>2026-04-26T12:27:46Z</time></trkpt><trkpt lat="44.034367298730345" lon="11.467363435089823"><ele>715.0</ele><time>2026-04-26T12:27:47Z</time></trkpt><trkpt lat="44.03425836002919" lon="11.46743338983459"><ele>715.0</ele><time>2026-04-26T12:27:48Z</time></trkpt><trkpt lat="44.03416148597265" lon="11.467441679507527"><ele>715.0</ele><time>2026-04-26T12:27:49Z</time></trkpt><trkpt lat="44.03408538335957" lon="11.467420389343248"><ele>715.0</ele><time>2026-04-26T12:27:50Z</time></trkpt><trkpt lat="44.03404941106161" lon="11.46731821987655"><ele>712.5</ele><time>2026-04-26T12:27:51Z</time></trkpt><trkpt lat="44.03413545800636" lon="11.467182689880895"><ele>710.0</ele><time>2026-04-26T12:27:52Z</time></trkpt><trkpt lat="44.034189613708115" lon="11.467036860224935"><ele>707.5</ele><time>2026-04-26T12:27:53Z</time></trkpt><trkpt lat="44.0342107032541" lon="11.466878021727789"><ele>705.0</ele><time>2026-04-26T12:27:54Z</time></trkpt><trkpt lat="44.03425382082183" lon="11.466705216375182"><ele>705.0</ele><time>2026-04-26T12:27:55Z</time></trkpt><trkpt lat="44.03437195795012" lon="11.466581226657489"><ele>705.0</ele><time>2026-04-26T12:27:56Z</time></trkpt><trkpt lat="44.03450377468176" lon="11.466449184529349"><ele>705.0</ele><time>2026-04-26T12:27:57Z</time></trkpt><trkpt lat="44.03464042956946" lon="11.466329631303653"><ele>702.6</ele><time>2026-04-26T12:27:58Z</time></trkpt><trkpt lat="44.03468482267769" lon="11.46624866508504"><ele>700.2</ele><time>2026-04-26T12:27:59Z</time></trkpt><trkpt lat="44.03475190642849" lon="11.466141581057617"><ele>697.8</ele><time>2026-04-26T12:28:00Z</time></trkpt><trkpt lat="44.034798012600874" lon="11.466027757092046"><ele>695.4</ele><time>2026-04-26T12:28:01Z</time></trkpt><trkpt lat="44.03479869805188" lon="11.465899510984253"><ele>693.0</ele><time>2026-04-26T12:28:02Z</time></trkpt><trkpt lat="44.03475093651385" lon="11.46576117882031"><ele>693.0</ele><time>2026-04-26T12:28:03Z</time></trkpt><trkpt lat="44.03466750232959" lon="11.465632926731459"><ele>693.0</ele><time>2026-04-26T12:28:03.999Z</time></trkpt><trkpt lat="44.03454413130692" lon="11.46550028886445"><ele>693.0</ele><time>2026-04-26T12:28:04.999Z</time></trkpt><trkpt lat="44.03442940184788" lon="11.465430757194426"><ele>693.0</ele><time>2026-04-26T12:28:05.999Z</time></trkpt><trkpt lat="44.034315485681795" lon="11.465378079938416"><ele>693.8</ele><time>2026-04-26T12:28:06.999Z</time></trkpt><trkpt lat="44.034235505127974" lon="11.4653017677809"><ele>694.5999999999999</ele><time>2026-04-26T12:28:07.999Z</time></trkpt><trkpt lat="44.03419832622284" lon="11.46519310859451"><ele>695.4000000000001</ele><time>2026-04-26T12:28:08.999Z</time></trkpt><trkpt lat="44.03420680324709" lon="11.465082904064413"><ele>696.2</ele><time>2026-04-26T12:28:09.999Z</time></trkpt><trkpt lat="44.034291538322805" lon="11.465010969968047"><ele>697.0</ele><time>2026-04-26T12:28:10.999Z</time></trkpt><trkpt lat="44.034371300710134" lon="11.464916362044221"><ele>697.0</ele><time>2026-04-26T12:28:11.999Z</time></trkpt><trkpt lat="44.03446177194578" lon="11.464788956164165"><ele>697.0</ele><time>2026-04-26T12:28:12.999Z</time></trkpt><trkpt lat="44.03453614647813" lon="11.46458769693628"><ele>697.0</ele><time>2026-04-26T12:28:13.999Z</time></trkpt><trkpt lat="44.0345743510801" lon="11.464359225956896"><ele>696.5</ele><time>2026-04-26T12:28:14.999Z</time></trkpt><trkpt lat="44.034593892603965" lon="11.464154648351224"><ele>696.0</ele><time>2026-04-26T12:28:15.999Z</time></trkpt><trkpt lat="44.03462625813784" lon="11.463982709067542"><ele>695.5</ele><time>2026-04-26T12:28:16.999Z</time></trkpt><trkpt lat="44.034677736432165" lon="11.463842637334315"><ele>695.0</ele><time>2026-04-26T12:28:17.999Z</time></trkpt><trkpt lat="44.034721093099336" lon="11.463718658169464"><ele>699.6</ele><time>2026-04-26T12:28:18.999Z</time></trkpt><trkpt lat="44.034708263475096" lon="11.463590428681023"><ele>704.2</ele><time>2026-04-26T12:28:19.999Z</time></trkpt><trkpt lat="44.03463973112108" lon="11.46349281792588"><ele>708.8</ele><time>2026-04-26T12:28:20.999Z</time></trkpt><trkpt lat="44.03453826245453" lon="11.463467863709374"><ele>713.4</ele><time>2026-04-26T12:28:21.999Z</time></trkpt><trkpt lat="44.034424594154935" lon="11.463530162046856"><ele>718.0</ele><time>2026-04-26T12:28:22.999Z</time></trkpt><trkpt lat="44.03431874597435" lon="11.463624140930145"><ele>718.0</ele><time>2026-04-26T12:28:23.999Z</time></trkpt><trkpt lat="44.03422872931833" lon="11.463743570095126"><ele>718.0</ele><time>2026-04-26T12:28:24.999Z</time></trkpt><trkpt lat="44.034177820850296" lon="11.463898018280835"><ele>718.0</ele><time>2026-04-26T12:28:25.999Z</time></trkpt><trkpt lat="44.034141588378574" lon="11.46406185834345"><ele>718.0</ele><time>2026-04-26T12:28:26.999Z</time></trkpt><trkpt lat="44.034081309617164" lon="11.464192434803403"><ele>712.8</ele><time>2026-04-26T12:28:27.998Z</time></trkpt><trkpt lat="44.033990150012784" lon="11.464242117645686"><ele>707.5999999999999</ele><time>2026-04-26T12:28:28.998Z</time></trkpt><trkpt lat="44.03387993773482" lon="11.464281547141887"><ele>702.4000000000001</ele><time>2026-04-26T12:28:30Z</time></trkpt><trkpt lat="44.03377676391149" lon="11.464232486784367"><ele>697.2</ele><time>2026-04-26T12:28:31Z</time></trkpt><trkpt lat="44.0336661003867" lon="11.464171251386153"><ele>692.0</ele><time>2026-04-26T12:28:32Z</time></trkpt><trkpt lat="44.033543165046204" lon="11.464113335144932"><ele>692.0</ele><time>2026-04-26T12:28:33Z</time></trkpt><trkpt lat="44.03341538614198" lon="11.46408435390154"><ele>692.0</ele><time>2026-04-26T12:28:34Z</time></trkpt><trkpt lat="44.03329519622894" lon="11.464079467705002"><ele>692.0</ele><time>2026-04-26T12:28:35Z</time></trkpt><trkpt lat="44.03319937231182" lon="11.464081449918103"><ele>692.0</ele><time>2026-04-26T12:28:36Z</time></trkpt><trkpt lat="44.033118084512644" lon="11.4640990601"><ele>692.0</ele><time>2026-04-26T12:28:37Z</time></trkpt><trkpt lat="44.033046649329144" lon="11.464132737290882"><ele>692.0</ele><time>2026-04-26T12:28:38Z</time></trkpt><trkpt lat="44.03300147188126" lon="11.464203787598244"><ele>692.0</ele><time>2026-04-26T12:28:39Z</time></trkpt><trkpt lat="44.03300799910962" lon="11.464329859114473"><ele>692.0</ele><time>2026-04-26T12:28:40Z</time></trkpt><trkpt lat="44.03307071628105" lon="11.464415807901968"><ele>692.0</ele><time>2026-04-26T12:28:41Z</time></trkpt><trkpt lat="44.033163378473134" lon="11.46440014937437"><ele>692.0</ele><time>2026-04-26T12:28:42Z</time></trkpt><trkpt lat="44.03326281516768" lon="11.464372078668752"><ele>692.0</ele><time>2026-04-26T12:28:43Z</time></trkpt><trkpt lat="44.033377417415544" lon="11.464347147762924"><ele>692.0</ele><time>2026-04-26T12:28:44Z</time></trkpt><trkpt lat="44.0334724338789" lon="11.464375931434361"><ele>692.0</ele><time>2026-04-26T12:28:45Z</time></trkpt><trkpt lat="44.033545784127256" lon="11.464439910216484"><ele>692.0</ele><time>2026-04-26T12:28:46Z</time></trkpt><trkpt lat="44.0335791698623" lon="11.46453782012982"><ele>692.0</ele><time>2026-04-26T12:28:47Z</time></trkpt><trkpt lat="44.03356981870902" lon="11.464653602582008"><ele>692.0</ele><time>2026-04-26T12:28:48Z</time></trkpt><trkpt lat="44.03350690293452" lon="11.464765947256005"><ele>692.0</ele><time>2026-04-26T12:28:49Z</time></trkpt><trkpt lat="44.03334852557059" lon="11.464778602923742"><ele>694.0</ele><time>2026-04-26T12:28:50Z</time></trkpt><trkpt lat="44.0332554878485" lon="11.464910488117791"><ele>696.0</ele><time>2026-04-26T12:28:52Z</time></trkpt><trkpt lat="44.03325690390248" lon="11.4650634974292"><ele>698.0</ele><time>2026-04-26T12:28:53Z</time></trkpt><trkpt lat="44.033314452873185" lon="11.465228145100035"><ele>700.0</ele><time>2026-04-26T12:28:54Z</time></trkpt><trkpt lat="44.03340842481335" lon="11.465333595663699"><ele>691.75</ele><time>2026-04-26T12:28:55Z</time></trkpt><trkpt lat="44.03348727217414" lon="11.465451308254236"><ele>683.5</ele><time>2026-04-26T12:28:56Z</time></trkpt><trkpt lat="44.03353515841717" lon="11.465611118955938"><ele>675.25</ele><time>2026-04-26T12:28:56.999Z</time></trkpt><trkpt lat="44.0335586268961" lon="11.465778535606274"><ele>667.0</ele><time>2026-04-26T12:28:57.999Z</time></trkpt><trkpt lat="44.03355153570073" lon="11.46594298336906"><ele>667.0</ele><time>2026-04-26T12:28:58.999Z</time></trkpt><trkpt lat="44.033480562028046" lon="11.46607336817282"><ele>667.0</ele><time>2026-04-26T12:28:59.999Z</time></trkpt><trkpt lat="44.03338858349755" lon="11.466223551960308"><ele>667.0</ele><time>2026-04-26T12:29:00.999Z</time></trkpt><trkpt lat="44.03333126996825" lon="11.466401114433456"><ele>667.0</ele><time>2026-04-26T12:29:01.999Z</time></trkpt><trkpt lat="44.03327115712878" lon="11.466551859288117"><ele>664.4000000000001</ele><time>2026-04-26T12:29:02.999Z</time></trkpt><trkpt lat="44.03317927196169" lon="11.466649235515499"><ele>661.8000000000001</ele><time>2026-04-26T12:29:03.999Z</time></trkpt><trkpt lat="44.03310281593779" lon="11.46674283177557"><ele>659.2</ele><time>2026-04-26T12:29:04.999Z</time></trkpt><trkpt lat="44.033054237128404" lon="11.46685130222202"><ele>656.6</ele><time>2026-04-26T12:29:05.999Z</time></trkpt><trkpt lat="44.03303287267835" lon="11.467014926538269"><ele>654.0</ele><time>2026-04-26T12:29:06.999Z</time></trkpt><trkpt lat="44.03291750571782" lon="11.467141670523604"><ele>652.0</ele><time>2026-04-26T12:29:07.999Z</time></trkpt><trkpt lat="44.032854245853095" lon="11.467312159830271"><ele>650.0</ele><time>2026-04-26T12:29:08.999Z</time></trkpt><trkpt lat="44.03278525576675" lon="11.467459464034597"><ele>648.0</ele><time>2026-04-26T12:29:09.999Z</time></trkpt><trkpt lat="44.03271124129161" lon="11.467595422600398"><ele>646.0</ele><time>2026-04-26T12:29:10.999Z</time></trkpt><trkpt lat="44.03265214025735" lon="11.46773764910497"><ele>646.0</ele><time>2026-04-26T12:29:11.999Z</time></trkpt><trkpt lat="44.03258657369278" lon="11.4678658790698"><ele>646.0</ele><time>2026-04-26T12:29:12.999Z</time></trkpt><trkpt lat="44.03256860103598" lon="11.468031403965908"><ele>646.0</ele><time>2026-04-26T12:29:13.999Z</time></trkpt><trkpt lat="44.03258407513021" lon="11.468200762464585"><ele>646.0</ele><time>2026-04-26T12:29:14.999Z</time></trkpt><trkpt lat="44.03259172040393" lon="11.468348902298532"><ele>646.8</ele><time>2026-04-26T12:29:15.999Z</time></trkpt><trkpt lat="44.03259148087003" lon="11.468482555240092"><ele>647.5999999999999</ele><time>2026-04-26T12:29:16.999Z</time></trkpt><trkpt lat="44.032555630534084" lon="11.468589606905752"><ele>648.4</ele><time>2026-04-26T12:29:17.999Z</time></trkpt><trkpt lat="44.03248373753514" lon="11.468669090139215"><ele>649.2</ele><time>2026-04-26T12:29:18.999Z</time></trkpt><trkpt lat="44.03237910888673" lon="11.468691674374956"><ele>650.0</ele><time>2026-04-26T12:29:19.999Z</time></trkpt><trkpt lat="44.03227764143124" lon="11.468737138759991"><ele>649.2</ele><time>2026-04-26T12:29:20.999Z</time></trkpt><trkpt lat="44.032184948169636" lon="11.468772158956138"><ele>648.4</ele><time>2026-04-26T12:29:21.999Z</time></trkpt><trkpt lat="44.03211298224282" lon="11.468848777126567"><ele>647.5999999999999</ele><time>2026-04-26T12:29:22.999Z</time></trkpt><trkpt lat="44.0320664484341" lon="11.468938959937406"><ele>646.8</ele><time>2026-04-26T12:29:23.999Z</time></trkpt><trkpt lat="44.031980410488366" lon="11.469017672028567"><ele>646.0</ele><time>2026-04-26T12:29:25.999Z</time></trkpt><trkpt lat="44.03189851859111" lon="11.468962041039621"><ele>646.0</ele><time>2026-04-26T12:29:26.999Z</time></trkpt><trkpt lat="44.03184494940283" lon="11.46884617777243"><ele>646.0</ele><time>2026-04-26T12:29:27.999Z</time></trkpt><trkpt lat="44.03180591497057" lon="11.468696656321564"><ele>646.0</ele><time>2026-04-26T12:29:28.999Z</time></trkpt><trkpt lat="44.031751408614625" lon="11.468573019519734"><ele>646.0</ele><time>2026-04-26T12:29:29.999Z</time></trkpt><trkpt lat="44.03169621120605" lon="11.468450588999568"><ele>646.0</ele><time>2026-04-26T12:29:30.999Z</time></trkpt><trkpt lat="44.03164533478231" lon="11.468322192839866"><ele>645.0</ele><time>2026-04-26T12:29:31.999Z</time></trkpt><trkpt lat="44.031592723612775" lon="11.468202801380754"><ele>644.0</ele><time>2026-04-26T12:29:32.999Z</time></trkpt><trkpt lat="44.031535160793595" lon="11.468090361038708"><ele>643.0</ele><time>2026-04-26T12:29:33.999Z</time></trkpt><trkpt lat="44.03147309981414" lon="11.46798514877621"><ele>642.0</ele><time>2026-04-26T12:29:34.999Z</time></trkpt><trkpt lat="44.03140040095627" lon="11.467879846118416"><ele>641.0</ele><time>2026-04-26T12:29:35.999Z</time></trkpt><trkpt lat="44.03134782267254" lon="11.467797660587216"><ele>641.0</ele><time>2026-04-26T12:29:36.999Z</time></trkpt><trkpt lat="44.03130705000292" lon="11.46770890380947"><ele>641.0</ele><time>2026-04-26T12:29:37.999Z</time></trkpt><trkpt lat="44.03130374223094" lon="11.467597113348074"><ele>641.0</ele><time>2026-04-26T12:29:38.999Z</time></trkpt><trkpt lat="44.0313266022738" lon="11.467478176483963"><ele>641.0</ele><time>2026-04-26T12:29:39.999Z</time></trkpt><trkpt lat="44.03134695625988" lon="11.467347528956491"><ele>641.0</ele><time>2026-04-26T12:29:40.999Z</time></trkpt><trkpt lat="44.03141400939348" lon="11.46723467899026"><ele>641.0</ele><time>2026-04-26T12:29:41.999Z</time></trkpt><trkpt lat="44.031496425537135" lon="11.467138257446344"><ele>639.8</ele><time>2026-04-26T12:29:42.999Z</time></trkpt><trkpt lat="44.03158530595193" lon="11.467046548499257"><ele>638.5999999999999</ele><time>2026-04-26T12:29:43.999Z</time></trkpt><trkpt lat="44.03168392404833" lon="11.4669679876753"><ele>637.4</ele><time>2026-04-26T12:29:44.999Z</time></trkpt><trkpt lat="44.03176401748049" lon="11.466877222452494"><ele>636.2</ele><time>2026-04-26T12:29:45.999Z</time></trkpt><trkpt lat="44.031824013534305" lon="11.466778162116276"><ele>635.0</ele><time>2026-04-26T12:29:46.999Z</time></trkpt><trkpt lat="44.031887718229555" lon="11.466716723668602"><ele>635.0</ele><time>2026-04-26T12:29:47.999Z</time></trkpt><trkpt lat="44.0319023655523" lon="11.466614120417217"><ele>635.0</ele><time>2026-04-26T12:29:48.999Z</time></trkpt><trkpt lat="44.03183732677745" lon="11.46650357300011"><ele>635.0</ele><time>2026-04-26T12:29:49.999Z</time></trkpt><trkpt lat="44.03175376885196" lon="11.466432057765505"><ele>635.0</ele><time>2026-04-26T12:29:50.999Z</time></trkpt><trkpt lat="44.03164557841868" lon="11.466392589594502"><ele>635.0</ele><time>2026-04-26T12:29:51.999Z</time></trkpt><trkpt lat="44.031537988822954" lon="11.466395913471976"><ele>633.6</ele><time>2026-04-26T12:29:52.999Z</time></trkpt><trkpt lat="44.031443692928335" lon="11.466457724953653"><ele>632.2</ele><time>2026-04-26T12:29:53.999Z</time></trkpt><trkpt lat="44.03137101823004" lon="11.466557879619522"><ele>630.8</ele><time>2026-04-26T12:29:54.999Z</time></trkpt><trkpt lat="44.03128733470004" lon="11.466652368983318"><ele>629.4</ele><time>2026-04-26T12:29:55.999Z</time></trkpt><trkpt lat="44.03122214935783" lon="11.466705321388355"><ele>628.0</ele><time>2026-04-26T12:29:56.999Z</time></trkpt><trkpt lat="44.03114631231759" lon="11.466674166033977"><ele>628.0</ele><time>2026-04-26T12:29:57.999Z</time></trkpt><trkpt lat="44.031077169749544" lon="11.466578146249901"><ele>628.0</ele><time>2026-04-26T12:29:58.999Z</time></trkpt><trkpt lat="44.03107898246235" lon="11.466409913239259"><ele>628.0</ele><time>2026-04-26T12:29:59.999Z</time></trkpt><trkpt lat="44.03103111430578" lon="11.466244678032448"><ele>628.0</ele><time>2026-04-26T12:30:00.999Z</time></trkpt><trkpt lat="44.03097639509303" lon="11.466066699838175"><ele>627.5</ele><time>2026-04-26T12:30:01.999Z</time></trkpt><trkpt lat="44.030896794583185" lon="11.465905700963722"><ele>627.0</ele><time>2026-04-26T12:30:02.999Z</time></trkpt><trkpt lat="44.03076164599913" lon="11.465810920291313"><ele>626.5</ele><time>2026-04-26T12:30:03.999Z</time></trkpt><trkpt lat="44.03063079755103" lon="11.465729975550692"><ele>626.0</ele><time>2026-04-26T12:30:04.999Z</time></trkpt><trkpt lat="44.03052608639525" lon="11.465611617449891"><ele>627.25</ele><time>2026-04-26T12:30:05.999Z</time></trkpt><trkpt lat="44.030450968957076" lon="11.465471268208761"><ele>628.5</ele><time>2026-04-26T12:30:06.999Z</time></trkpt><trkpt lat="44.03039983323494" lon="11.465299388521103"><ele>629.75</ele><time>2026-04-26T12:30:07.999Z</time></trkpt><trkpt lat="44.030338486269194" lon="11.465117413729073"><ele>631.0</ele><time>2026-04-26T12:30:08.999Z</time></trkpt><trkpt lat="44.03024505264045" lon="11.464976571057027"><ele>628.0</ele><time>2026-04-26T12:30:09.999Z</time></trkpt><trkpt lat="44.03013100700244" lon="11.464864391083019"><ele>625.0</ele><time>2026-04-26T12:30:10.999Z</time></trkpt><trkpt lat="44.03001419198852" lon="11.464775858150393"><ele>622.0</ele><time>2026-04-26T12:30:11.999Z</time></trkpt><trkpt lat="44.02990589102414" lon="11.464728891277689"><ele>619.0</ele><time>2026-04-26T12:30:12.999Z</time></trkpt><trkpt lat="44.02981037967041" lon="11.46472143089465"><ele>619.2</ele><time>2026-04-26T12:30:13.999Z</time></trkpt><trkpt lat="44.029729699537526" lon="11.464707095625547"><ele>619.4</ele><time>2026-04-26T12:30:14.999Z</time></trkpt><trkpt lat="44.02967638599911" lon="11.46462662085247"><ele>619.6</ele><time>2026-04-26T12:30:15.999Z</time></trkpt><trkpt lat="44.029670767762255" lon="11.464498764912785"><ele>619.8</ele><time>2026-04-26T12:30:16.999Z</time></trkpt><trkpt lat="44.02974559286004" lon="11.464377936564375"><ele>620.0</ele><time>2026-04-26T12:30:17.999Z</time></trkpt><trkpt lat="44.029778214190344" lon="11.464221060353292"><ele>620.0</ele><time>2026-04-26T12:30:18.999Z</time></trkpt><trkpt lat="44.029805024118254" lon="11.464052433616999"><ele>620.0</ele><time>2026-04-26T12:30:19.999Z</time></trkpt><trkpt lat="44.02980268550573" lon="11.463881146788971"><ele>620.0</ele><time>2026-04-26T12:30:20.999Z</time></trkpt><trkpt lat="44.02978937766238" lon="11.46371065596497"><ele>620.0</ele><time>2026-04-26T12:30:21.999Z</time></trkpt><trkpt lat="44.02974027615156" lon="11.46355028417588"><ele>617.2</ele><time>2026-04-26T12:30:22.999Z</time></trkpt><trkpt lat="44.02966602785591" lon="11.46343277031206"><ele>614.4</ele><time>2026-04-26T12:30:23.999Z</time></trkpt><trkpt lat="44.02958129661075" lon="11.463354588155587"><ele>611.6</ele><time>2026-04-26T12:30:24.999Z</time></trkpt><trkpt lat="44.02948011122917" lon="11.463317233609393"><ele>608.8</ele><time>2026-04-26T12:30:25.999Z</time></trkpt><trkpt lat="44.0293847255793" lon="11.463307527844842"><ele>606.0</ele><time>2026-04-26T12:30:26.999Z</time></trkpt><trkpt lat="44.02931896432002" lon="11.463253039471576"><ele>606.0</ele><time>2026-04-26T12:30:27.999Z</time></trkpt><trkpt lat="44.0292885502721" lon="11.463147897527094"><ele>606.0</ele><time>2026-04-26T12:30:28.999Z</time></trkpt><trkpt lat="44.02935301331233" lon="11.463007140289259"><ele>606.0</ele><time>2026-04-26T12:30:29.999Z</time></trkpt><trkpt lat="44.029375849370865" lon="11.462838099852393"><ele>606.0</ele><time>2026-04-26T12:30:30.999Z</time></trkpt><trkpt lat="44.0293769702676" lon="11.46266771807693"><ele>606.0</ele><time>2026-04-26T12:30:31.999Z</time></trkpt><trkpt lat="44.0293708498366" lon="11.462507013526768"><ele>604.5</ele><time>2026-04-26T12:30:32.999Z</time></trkpt><trkpt lat="44.02932394449025" lon="11.462359374329134"><ele>603.0</ele><time>2026-04-26T12:30:33.999Z</time></trkpt><trkpt lat="44.029250050267564" lon="11.46223238567218"><ele>601.5</ele><time>2026-04-26T12:30:34.999Z</time></trkpt><trkpt lat="44.02915373140966" lon="11.462147507385833"><ele>600.0</ele><time>2026-04-26T12:30:36Z</time></trkpt><trkpt lat="44.02904563056343" lon="11.462114651957398"><ele>598.8</ele><time>2026-04-26T12:30:37Z</time></trkpt><trkpt lat="44.028939725641976" lon="11.462125737751581"><ele>597.6</ele><time>2026-04-26T12:30:38Z</time></trkpt><trkpt lat="44.0288405214347" lon="11.462089992484728"><ele>596.4</ele><time>2026-04-26T12:30:39Z</time></trkpt><trkpt lat="44.02873400682375" lon="11.462006274590468"><ele>595.2</ele><time>2026-04-26T12:30:40Z</time></trkpt><trkpt lat="44.0287304442671" lon="11.461849925882852"><ele>594.0</ele><time>2026-04-26T12:30:41Z</time></trkpt><trkpt lat="44.028657973973175" lon="11.461676807991797"><ele>594.0</ele><time>2026-04-26T12:30:42Z</time></trkpt><trkpt lat="44.028542558019744" lon="11.46154346095551"><ele>594.0</ele><time>2026-04-26T12:30:43Z</time></trkpt><trkpt lat="44.028427801522476" lon="11.461419674297183"><ele>594.0</ele><time>2026-04-26T12:30:44Z</time></trkpt><trkpt lat="44.02832787263487" lon="11.461291428933306"><ele>594.0</ele><time>2026-04-26T12:30:45Z</time></trkpt><trkpt lat="44.02824881131815" lon="11.461142854837279"><ele>595.0</ele><time>2026-04-26T12:30:46Z</time></trkpt><trkpt lat="44.028181102581065" lon="11.460976182957989"><ele>596.0</ele><time>2026-04-26T12:30:47Z</time></trkpt><trkpt lat="44.02810967737745" lon="11.460800152959392"><ele>597.0</ele><time>2026-04-26T12:30:48Z</time></trkpt><trkpt lat="44.028028435560934" lon="11.460650886559788"><ele>598.0</ele><time>2026-04-26T12:30:49Z</time></trkpt><trkpt lat="44.02791287291708" lon="11.460548011605088"><ele>598.0</ele><time>2026-04-26T12:30:50Z</time></trkpt><trkpt lat="44.02778749090703" lon="11.46046929951245"><ele>598.0</ele><time>2026-04-26T12:30:51Z</time></trkpt><trkpt lat="44.02765499805695" lon="11.460413908315846"><ele>598.0</ele><time>2026-04-26T12:30:52Z</time></trkpt><trkpt lat="44.02752394847362" lon="11.460351891862668"><ele>598.0</ele><time>2026-04-26T12:30:53Z</time></trkpt><trkpt lat="44.0274154545513" lon="11.460285383484552"><ele>598.5</ele><time>2026-04-26T12:30:54Z</time></trkpt><trkpt lat="44.02732713332892" lon="11.460216459029736"><ele>599.0</ele><time>2026-04-26T12:30:55Z</time></trkpt><trkpt lat="44.027267007876205" lon="11.460089085835701"><ele>599.5</ele><time>2026-04-26T12:30:56Z</time></trkpt><trkpt lat="44.02724885246782" lon="11.45992653625788"><ele>600.0</ele><time>2026-04-26T12:30:57Z</time></trkpt><trkpt lat="44.02725389662906" lon="11.459741197025235"><ele>596.0</ele><time>2026-04-26T12:30:58Z</time></trkpt><trkpt lat="44.02726497812803" lon="11.459570539783009"><ele>592.0</ele><time>2026-04-26T12:30:59Z</time></trkpt><trkpt lat="44.02726222776224" lon="11.459413331030243"><ele>588.0</ele><time>2026-04-26T12:31:00Z</time></trkpt><trkpt lat="44.02723635515572" lon="11.459276726157395"><ele>584.0</ele><time>2026-04-26T12:31:01Z</time></trkpt><trkpt lat="44.02716720004335" lon="11.459166506563928"><ele>580.0</ele><time>2026-04-26T12:31:02Z</time></trkpt><trkpt lat="44.027056866418064" lon="11.459091472805785"><ele>580.0</ele><time>2026-04-26T12:31:03Z</time></trkpt><trkpt lat="44.026920164032944" lon="11.45904487161298"><ele>580.0</ele><time>2026-04-26T12:31:04Z</time></trkpt><trkpt lat="44.02678003718817" lon="11.459017608550017"><ele>580.0</ele><time>2026-04-26T12:31:05Z</time></trkpt><trkpt lat="44.02664455911272" lon="11.458968831841934"><ele>580.0</ele><time>2026-04-26T12:31:06Z</time></trkpt><trkpt lat="44.02650661347252" lon="11.458883110931389"><ele>576.0</ele><time>2026-04-26T12:31:07Z</time></trkpt><trkpt lat="44.02638567009875" lon="11.458776465104819"><ele>572.0</ele><time>2026-04-26T12:31:08Z</time></trkpt><trkpt lat="44.02627637508175" lon="11.458647350606636"><ele>568.0</ele><time>2026-04-26T12:31:09Z</time></trkpt><trkpt lat="44.026159849771624" lon="11.458541195641516"><ele>564.0</ele><time>2026-04-26T12:31:10Z</time></trkpt><trkpt lat="44.02602540350314" lon="11.45848517980397"><ele>564.0</ele><time>2026-04-26T12:31:11Z</time></trkpt><trkpt lat="44.02588785564841" lon="11.45847128624353"><ele>564.0</ele><time>2026-04-26T12:31:12Z</time></trkpt><trkpt lat="44.025751618495555" lon="11.458495486944408"><ele>564.0</ele><time>2026-04-26T12:31:13Z</time></trkpt><trkpt lat="44.025628414392216" lon="11.458525586237338"><ele>564.0</ele><time>2026-04-26T12:31:14Z</time></trkpt><trkpt lat="44.02552879806443" lon="11.458542731308627"><ele>566.0</ele><time>2026-04-26T12:31:15Z</time></trkpt><trkpt lat="44.02544904836189" lon="11.458544698400082"><ele>568.0</ele><time>2026-04-26T12:31:16Z</time></trkpt><trkpt lat="44.02538380785164" lon="11.458417432939042"><ele>570.0</ele><time>2026-04-26T12:31:18Z</time></trkpt><trkpt lat="44.025428745314066" lon="11.458321296655567"><ele>572.0</ele><time>2026-04-26T12:31:19Z</time></trkpt><trkpt lat="44.025504509651206" lon="11.458232310843947"><ele>574.0</ele><time>2026-04-26T12:31:20Z</time></trkpt><trkpt lat="44.02557588373976" lon="11.458129432645812"><ele>574.0</ele><time>2026-04-26T12:31:21Z</time></trkpt><trkpt lat="44.02564107256917" lon="11.457994581126457"><ele>574.0</ele><time>2026-04-26T12:31:22Z</time></trkpt><trkpt lat="44.025684055468" lon="11.457853043514381"><ele>574.0</ele><time>2026-04-26T12:31:23Z</time></trkpt><trkpt lat="44.02568610696055" lon="11.457693316024931"><ele>574.0</ele><time>2026-04-26T12:31:24Z</time></trkpt><trkpt lat="44.02564210579057" lon="11.457545436586406"><ele>570.25</ele><time>2026-04-26T12:31:25Z</time></trkpt><trkpt lat="44.02555735806719" lon="11.457412043018023"><ele>566.5</ele><time>2026-04-26T12:31:26Z</time></trkpt><trkpt lat="44.02544446468816" lon="11.457323861081589"><ele>562.75</ele><time>2026-04-26T12:31:27Z</time></trkpt><trkpt lat="44.025318285972475" lon="11.457285384554435"><ele>559.0</ele><time>2026-04-26T12:31:28Z</time></trkpt><trkpt lat="44.02519065836969" lon="11.457295091887142"><ele>559.0</ele><time>2026-04-26T12:31:29Z</time></trkpt><trkpt lat="44.025072234798294" lon="11.457319737348781"><ele>559.0</ele><time>2026-04-26T12:31:30Z</time></trkpt><trkpt lat="44.02496579447281" lon="11.457314470937282"><ele>559.0</ele><time>2026-04-26T12:31:31Z</time></trkpt><trkpt lat="44.02487074532633" lon="11.457248056310199"><ele>559.0</ele><time>2026-04-26T12:31:32Z</time></trkpt><trkpt lat="44.02481190861803" lon="11.457135312162967"><ele>559.0</ele><time>2026-04-26T12:31:33Z</time></trkpt><trkpt lat="44.024815277487036" lon="11.456951687521713"><ele>556.5</ele><time>2026-04-26T12:31:34Z</time></trkpt><trkpt lat="44.02484492363337" lon="11.456770730623209"><ele>554.0</ele><time>2026-04-26T12:31:35Z</time></trkpt><trkpt lat="44.024889987136106" lon="11.456580161910498"><ele>551.5</ele><time>2026-04-26T12:31:36Z</time></trkpt><trkpt lat="44.02492162636856" lon="11.456398603046704"><ele>549.0</ele><time>2026-04-26T12:31:37Z</time></trkpt><trkpt lat="44.02493992549314" lon="11.456212734540237"><ele>549.0</ele><time>2026-04-26T12:31:38Z</time></trkpt><trkpt lat="44.02494814462354" lon="11.456030055292212"><ele>549.0</ele><time>2026-04-26T12:31:39Z</time></trkpt><trkpt lat="44.024982685557134" lon="11.455846636568225"><ele>549.0</ele><time>2026-04-26T12:31:40Z</time></trkpt><trkpt lat="44.025001044622016" lon="11.455679672797443"><ele>549.0</ele><time>2026-04-26T12:31:41Z</time></trkpt><trkpt lat="44.025013170115926" lon="11.455526726486747"><ele>547.3333333333334</ele><time>2026-04-26T12:31:42Z</time></trkpt><trkpt lat="44.024828514282326" lon="11.45540847831838"><ele>545.6666666666667</ele><time>2026-04-26T12:31:43Z</time></trkpt><trkpt lat="44.024676328568894" lon="11.455338529683509"><ele>544.0</ele><time>2026-04-26T12:31:44Z</time></trkpt><trkpt lat="44.02455887036826" lon="11.455283580332027"><ele>544.0</ele><time>2026-04-26T12:31:45Z</time></trkpt><trkpt lat="44.024421989445585" lon="11.455277849123558"><ele>544.0</ele><time>2026-04-26T12:31:46Z</time></trkpt><trkpt lat="44.0242835591657" lon="11.455283695086495"><ele>544.0</ele><time>2026-04-26T12:31:46.999Z</time></trkpt><trkpt lat="44.02415143917324" lon="11.455205657874256"><ele>544.0</ele><time>2026-04-26T12:31:47.999Z</time></trkpt><trkpt lat="44.02402364430434" lon="11.455103483964507"><ele>539.6666666666667</ele><time>2026-04-26T12:31:48.999Z</time></trkpt><trkpt lat="44.023912350555506" lon="11.45495798011514"><ele>535.3333333333334</ele><time>2026-04-26T12:31:49.999Z</time></trkpt><trkpt lat="44.023805547158155" lon="11.454813479345665"><ele>531.0</ele><time>2026-04-26T12:31:50.999Z</time></trkpt><trkpt lat="44.023692956579275" lon="11.454667620852177"><ele>530.0</ele><time>2026-04-26T12:31:51.999Z</time></trkpt><trkpt lat="44.02358442621243" lon="11.45452673446423"><ele>529.0</ele><time>2026-04-26T12:31:52.999Z</time></trkpt><trkpt lat="44.023477305548745" lon="11.454395849941552"><ele>528.0</ele><time>2026-04-26T12:31:53.999Z</time></trkpt><trkpt lat="44.023364470367" lon="11.454261088446225"><ele>527.0</ele><time>2026-04-26T12:31:54.999Z</time></trkpt><trkpt lat="44.02327472395992" lon="11.454075712349534"><ele>526.6666666666666</ele><time>2026-04-26T12:31:55.999Z</time></trkpt><trkpt lat="44.023204438294954" lon="11.453868015402222"><ele>526.3333333333334</ele><time>2026-04-26T12:31:56.999Z</time></trkpt><trkpt lat="44.023133219350996" lon="11.453669117954094"><ele>526.0</ele><time>2026-04-26T12:31:57.999Z</time></trkpt><trkpt lat="44.02304988655222" lon="11.45348872849849"><ele>525.3333333333334</ele><time>2026-04-26T12:31:58.999Z</time></trkpt><trkpt lat="44.02292023451037" lon="11.453379781077178"><ele>524.6666666666666</ele><time>2026-04-26T12:31:59.999Z</time></trkpt><trkpt lat="44.022766161722274" lon="11.453302115914065"><ele>524.0</ele><time>2026-04-26T12:32:00.999Z</time></trkpt><trkpt lat="44.0225938884674" lon="11.453255900891966"><ele>521.6666666666666</ele><time>2026-04-26T12:32:01.999Z</time></trkpt><trkpt lat="44.02241695940275" lon="11.453223489968783"><ele>519.3333333333334</ele><time>2026-04-26T12:32:02.999Z</time></trkpt><trkpt lat="44.02224286544568" lon="11.45317525204836"><ele>517.0</ele><time>2026-04-26T12:32:03.999Z</time></trkpt><trkpt lat="44.02207659564042" lon="11.45309888970137"><ele>517.0</ele><time>2026-04-26T12:32:04.999Z</time></trkpt><trkpt lat="44.02191243805413" lon="11.453023365780751"><ele>517.0</ele><time>2026-04-26T12:32:05.999Z</time></trkpt><trkpt lat="44.021749579063965" lon="11.452981841180032"><ele>517.0</ele><time>2026-04-26T12:32:06.999Z</time></trkpt><trkpt lat="44.02158062818155" lon="11.452956316924592"><ele>514.6666666666667</ele><time>2026-04-26T12:32:07.999Z</time></trkpt><trkpt lat="44.02142024149371" lon="11.452923297275916"><ele>512.3333333333334</ele><time>2026-04-26T12:32:08.999Z</time></trkpt><trkpt lat="44.02126582419601" lon="11.452869319478252"><ele>510.0</ele><time>2026-04-26T12:32:09.999Z</time></trkpt><trkpt lat="44.021125392305045" lon="11.452794487938155"><ele>510.0</ele><time>2026-04-26T12:32:10.999Z</time></trkpt><trkpt lat="44.020985413541446" lon="11.452758336938325"><ele>510.0</ele><time>2026-04-26T12:32:11.999Z</time></trkpt><trkpt lat="44.020846635837216" lon="11.452775778932049"><ele>510.0</ele><time>2026-04-26T12:32:12.999Z</time></trkpt><trkpt lat="44.0207270149072" lon="11.452816469164125"><ele>510.0</ele><time>2026-04-26T12:32:13.999Z</time></trkpt><trkpt lat="44.02062284672449" lon="11.452804766221567"><ele>513.4</ele><time>2026-04-26T12:32:14.999Z</time></trkpt><trkpt lat="44.02053584875598" lon="11.45276170791165"><ele>516.8</ele><time>2026-04-26T12:32:15.999Z</time></trkpt><trkpt lat="44.02047140560409" lon="11.452686248009455"><ele>520.2</ele><time>2026-04-26T12:32:16.999Z</time></trkpt><trkpt lat="44.02045983759162" lon="11.452547575059906"><ele>523.6</ele><time>2026-04-26T12:32:17.999Z</time></trkpt><trkpt lat="44.02046019935215" lon="11.452378192949702"><ele>527.0</ele><time>2026-04-26T12:32:18.999Z</time></trkpt><trkpt lat="44.02046282253775" lon="11.452196319529062"><ele>527.0</ele><time>2026-04-26T12:32:19.999Z</time></trkpt><trkpt lat="44.02047048771209" lon="11.45201519081217"><ele>527.0</ele><time>2026-04-26T12:32:20.999Z</time></trkpt><trkpt lat="44.02049042285177" lon="11.451845966862786"><ele>527.0</ele><time>2026-04-26T12:32:21.999Z</time></trkpt><trkpt lat="44.02054100917494" lon="11.451692908317245"><ele>527.0</ele><time>2026-04-26T12:32:22.999Z</time></trkpt><trkpt lat="44.020634407023714" lon="11.451550705509364"><ele>527.0</ele><time>2026-04-26T12:32:23.999Z</time></trkpt><trkpt lat="44.02073668098482" lon="11.451402514226002"><ele>527.0</ele><time>2026-04-26T12:32:24.999Z</time></trkpt><trkpt lat="44.02083211907917" lon="11.451252259099139"><ele>527.0</ele><time>2026-04-26T12:32:25.999Z</time></trkpt><trkpt lat="44.020930994508745" lon="11.45110244041356"><ele>527.0</ele><time>2026-04-26T12:32:26.999Z</time></trkpt><trkpt lat="44.0210252622247" lon="11.450963640335054"><ele>518.25</ele><time>2026-04-26T12:32:27.999Z</time></trkpt><trkpt lat="44.02110633903847" lon="11.45081169487347"><ele>509.5</ele><time>2026-04-26T12:32:28.999Z</time></trkpt><trkpt lat="44.02115832987913" lon="11.450650540856866"><ele>500.75</ele><time>2026-04-26T12:32:29.999Z</time></trkpt><trkpt lat="44.02118884361083" lon="11.45047338980011"><ele>492.0</ele><time>2026-04-26T12:32:30.999Z</time></trkpt><trkpt lat="44.02119924605846" lon="11.45030537808855"><ele>491.6</ele><time>2026-04-26T12:32:31.999Z</time></trkpt><trkpt lat="44.02120365804595" lon="11.45016238606173"><ele>491.20000000000005</ele><time>2026-04-26T12:32:32.999Z</time></trkpt><trkpt lat="44.02118093574858" lon="11.450034038789727"><ele>490.8</ele><time>2026-04-26T12:32:33.999Z</time></trkpt><trkpt lat="44.02111697412869" lon="11.449929200174088"><ele>490.4</ele><time>2026-04-26T12:32:34.999Z</time></trkpt><trkpt lat="44.020985796162044" lon="11.449863121110488"><ele>490.0</ele><time>2026-04-26T12:32:35.999Z</time></trkpt><trkpt lat="44.02087275663839" lon="11.449805741077302"><ele>490.0</ele><time>2026-04-26T12:32:36.999Z</time></trkpt><trkpt lat="44.02076805582673" lon="11.449728202460289"><ele>490.0</ele><time>2026-04-26T12:32:37.999Z</time></trkpt><trkpt lat="44.02068021666" lon="11.449607437220925"><ele>490.0</ele><time>2026-04-26T12:32:38.999Z</time></trkpt><trkpt lat="44.02062449017829" lon="11.449451549653848"><ele>490.0</ele><time>2026-04-26T12:32:39.999Z</time></trkpt><trkpt lat="44.020584545976256" lon="11.44929166726885"><ele>490.0</ele><time>2026-04-26T12:32:40.999Z</time></trkpt><trkpt lat="44.020531868456146" lon="11.449160500795012"><ele>490.0</ele><time>2026-04-26T12:32:42Z</time></trkpt><trkpt lat="44.02045346877175" lon="11.449062700317835"><ele>490.0</ele><time>2026-04-26T12:32:43Z</time></trkpt><trkpt lat="44.02035240916153" lon="11.448993739998258"><ele>490.0</ele><time>2026-04-26T12:32:44Z</time></trkpt><trkpt lat="44.02023900472706" lon="11.448955968250774"><ele>490.0</ele><time>2026-04-26T12:32:45Z</time></trkpt><trkpt lat="44.02011956052272" lon="11.448949220267718"><ele>490.0</ele><time>2026-04-26T12:32:46Z</time></trkpt><trkpt lat="44.020001154705184" lon="11.448961770952167"><ele>490.0</ele><time>2026-04-26T12:32:47Z</time></trkpt><trkpt lat="44.01987965240977" lon="11.448982444726512"><ele>490.0</ele><time>2026-04-26T12:32:48Z</time></trkpt><trkpt lat="44.01976567678848" lon="11.449003845925917"><ele>490.0</ele><time>2026-04-26T12:32:49Z</time></trkpt><trkpt lat="44.019664427018625" lon="11.449018043076661"><ele>488.0</ele><time>2026-04-26T12:32:50Z</time></trkpt><trkpt lat="44.0195725160347" lon="11.44902289771158"><ele>486.0</ele><time>2026-04-26T12:32:51Z</time></trkpt><trkpt lat="44.01947731674783" lon="11.448997947519585"><ele>484.0</ele><time>2026-04-26T12:32:52Z</time></trkpt><trkpt lat="44.01937235715516" lon="11.448926892914681"><ele>482.0</ele><time>2026-04-26T12:32:53Z</time></trkpt><trkpt lat="44.01926125019042" lon="11.448824423411722"><ele>480.0</ele><time>2026-04-26T12:32:54Z</time></trkpt><trkpt lat="44.019136698427424" lon="11.448726883321097"><ele>476.25</ele><time>2026-04-26T12:32:55Z</time></trkpt><trkpt lat="44.01900512003257" lon="11.448658988974378"><ele>472.5</ele><time>2026-04-26T12:32:56Z</time></trkpt><trkpt lat="44.01887663275068" lon="11.448612277263452"><ele>468.75</ele><time>2026-04-26T12:32:57Z</time></trkpt><trkpt lat="44.01876963645643" lon="11.448542047357725"><ele>465.0</ele><time>2026-04-26T12:32:58Z</time></trkpt><trkpt lat="44.01869471666584" lon="11.448418830191292"><ele>465.0</ele><time>2026-04-26T12:32:59Z</time></trkpt><trkpt lat="44.018696926531746" lon="11.448242054845675"><ele>465.0</ele><time>2026-04-26T12:33:00Z</time></trkpt><trkpt lat="44.01868675619784" lon="11.448068861492038"><ele>465.0</ele><time>2026-04-26T12:33:01Z</time></trkpt><trkpt lat="44.01865074707079" lon="11.447881398747004"><ele>465.0</ele><time>2026-04-26T12:33:02Z</time></trkpt><trkpt lat="44.01860677987357" lon="11.447703409792728"><ele>463.5</ele><time>2026-04-26T12:33:03Z</time></trkpt><trkpt lat="44.0185353757209" lon="11.447551704682345"><ele>462.0</ele><time>2026-04-26T12:33:04Z</time></trkpt><trkpt lat="44.018444679254294" lon="11.447438838036534"><ele>460.5</ele><time>2026-04-26T12:33:05Z</time></trkpt><trkpt lat="44.01833842686595" lon="11.447373449703758"><ele>459.0</ele><time>2026-04-26T12:33:06Z</time></trkpt><trkpt lat="44.018225007412624" lon="11.447360306442892"><ele>459.0</ele><time>2026-04-26T12:33:07Z</time></trkpt><trkpt lat="44.018107083515446" lon="11.447386653848413"><ele>459.0</ele><time>2026-04-26T12:33:08Z</time></trkpt><trkpt lat="44.01799238971606" lon="11.447464759594176"><ele>459.0</ele><time>2026-04-26T12:33:09Z</time></trkpt><trkpt lat="44.01788891185254" lon="11.447548664240209"><ele>459.0</ele><time>2026-04-26T12:33:10Z</time></trkpt><trkpt lat="44.01777664639449" lon="11.447597856501856"><ele>459.0</ele><time>2026-04-26T12:33:11Z</time></trkpt><trkpt lat="44.01766887024881" lon="11.447535301401324"><ele>459.0</ele><time>2026-04-26T12:33:12Z</time></trkpt><trkpt lat="44.017556351078476" lon="11.447466354922744"><ele>459.0</ele><time>2026-04-26T12:33:13Z</time></trkpt><trkpt lat="44.01745167353005" lon="11.447337536386007"><ele>459.0</ele><time>2026-04-26T12:33:14Z</time></trkpt><trkpt lat="44.017341220541844" lon="11.447212084513023"><ele>465.5</ele><time>2026-04-26T12:33:15Z</time></trkpt><trkpt lat="44.01722952314113" lon="11.447104905631262"><ele>472.0</ele><time>2026-04-26T12:33:16Z</time></trkpt><trkpt lat="44.01711401398366" lon="11.44704049207733"><ele>478.5</ele><time>2026-04-26T12:33:17Z</time></trkpt><trkpt lat="44.016989854763096" lon="11.447013899669242"><ele>485.0</ele><time>2026-04-26T12:33:18Z</time></trkpt><trkpt lat="44.01686591587935" lon="11.447075763538423"><ele>475.5</ele><time>2026-04-26T12:33:19Z</time></trkpt><trkpt lat="44.01676529164428" lon="11.447186838308488"><ele>466.0</ele><time>2026-04-26T12:33:20Z</time></trkpt><trkpt lat="44.01667024387328" lon="11.447289273036048"><ele>456.5</ele><time>2026-04-26T12:33:21Z</time></trkpt><trkpt lat="44.0165455928137" lon="11.44732020408673"><ele>447.0</ele><time>2026-04-26T12:33:22Z</time></trkpt><trkpt lat="44.016410702794786" lon="11.447293188400076"><ele>446.5</ele><time>2026-04-26T12:33:23Z</time></trkpt><trkpt lat="44.01626943859007" lon="11.447295967222543"><ele>446.0</ele><time>2026-04-26T12:33:24Z</time></trkpt><trkpt lat="44.01614274810634" lon="11.447255208509784"><ele>445.5</ele><time>2026-04-26T12:33:25Z</time></trkpt><trkpt lat="44.01602807551665" lon="11.447187860108588"><ele>445.0</ele><time>2026-04-26T12:33:26Z</time></trkpt><trkpt lat="44.01596350990661" lon="11.44701874179475"><ele>446.6666666666667</ele><time>2026-04-26T12:33:27Z</time></trkpt><trkpt lat="44.01587203336579" lon="11.446849377898983"><ele>448.33333333333337</ele><time>2026-04-26T12:33:28Z</time></trkpt><trkpt lat="44.01576246805459" lon="11.446678456313013"><ele>450.0</ele><time>2026-04-26T12:33:29Z</time></trkpt><trkpt lat="44.01563751383247" lon="11.446482622361687"><ele>450.0</ele><time>2026-04-26T12:33:30Z</time></trkpt><trkpt lat="44.015504962727405" lon="11.446380855121605"><ele>450.0</ele><time>2026-04-26T12:33:31Z</time></trkpt><trkpt lat="44.015394731194824" lon="11.44622541890136"><ele>450.0</ele><time>2026-04-26T12:33:32Z</time></trkpt><trkpt lat="44.01530141027641" lon="11.446054882505273"><ele>446.66666666666663</ele><time>2026-04-26T12:33:33Z</time></trkpt><trkpt lat="44.0152395945363" lon="11.445839222895653"><ele>443.3333333333333</ele><time>2026-04-26T12:33:34Z</time></trkpt><trkpt lat="44.01517511733466" lon="11.445605135785648"><ele>440.0</ele><time>2026-04-26T12:33:35Z</time></trkpt><trkpt lat="44.015094875265824" lon="11.445371016699921"><ele>439.0</ele><time>2026-04-26T12:33:36Z</time></trkpt><trkpt lat="44.01505267149677" lon="11.445127637063669"><ele>438.0</ele><time>2026-04-26T12:33:37Z</time></trkpt><trkpt lat="44.01501086150406" lon="11.444902372759328"><ele>437.0</ele><time>2026-04-26T12:33:38Z</time></trkpt><trkpt lat="44.01496199800412" lon="11.444692953144544"><ele>433.75</ele><time>2026-04-26T12:33:39Z</time></trkpt><trkpt lat="44.01491009948735" lon="11.444495112785313"><ele>430.5</ele><time>2026-04-26T12:33:40Z</time></trkpt><trkpt lat="44.01484435964017" lon="11.444321642682123"><ele>427.25</ele><time>2026-04-26T12:33:41Z</time></trkpt><trkpt lat="44.014794781709114" lon="11.444148875024833"><ele>424.0</ele><time>2026-04-26T12:33:42Z</time></trkpt><trkpt lat="44.01472495466742" lon="11.443990986277457"><ele>424.0</ele><time>2026-04-26T12:33:43Z</time></trkpt><trkpt lat="44.01468137546917" lon="11.443833797192505"><ele>424.0</ele><time>2026-04-26T12:33:44Z</time></trkpt><trkpt lat="44.01463358731357" lon="11.443657343817792"><ele>424.0</ele><time>2026-04-26T12:33:45Z</time></trkpt><trkpt lat="44.01460685713724" lon="11.443506148564753"><ele>424.0</ele><time>2026-04-26T12:33:46Z</time></trkpt><trkpt lat="44.014577810717924" lon="11.443358531465792"><ele>422.79999999999995</ele><time>2026-04-26T12:33:47Z</time></trkpt><trkpt lat="44.014536205058846" lon="11.443221183519993"><ele>421.59999999999997</ele><time>2026-04-26T12:33:48Z</time></trkpt><trkpt lat="44.01447027424227" lon="11.443121072813167"><ele>420.4</ele><time>2026-04-26T12:33:49Z</time></trkpt><trkpt lat="44.01437990031765" lon="11.443073340239689"><ele>419.2</ele><time>2026-04-26T12:33:50Z</time></trkpt><trkpt lat="44.01428162531574" lon="11.443075896715465"><ele>418.0</ele><time>2026-04-26T12:33:51Z</time></trkpt><trkpt lat="44.01418271359089" lon="11.443119929550043"><ele>417.79999999999995</ele><time>2026-04-26T12:33:52Z</time></trkpt><trkpt lat="44.01409156331907" lon="11.443187835527786"><ele>417.6</ele><time>2026-04-26T12:33:53Z</time></trkpt><trkpt lat="44.01400013602427" lon="11.44326360128802"><ele>417.4</ele><time>2026-04-26T12:33:54Z</time></trkpt><trkpt lat="44.01390432535733" lon="11.4433281718432"><ele>417.20000000000005</ele><time>2026-04-26T12:33:55Z</time></trkpt><trkpt lat="44.013800806160916" lon="11.443392383208547"><ele>417.0</ele><time>2026-04-26T12:33:56Z</time></trkpt><trkpt lat="44.013693228066124" lon="11.443435815785223"><ele>417.0</ele><time>2026-04-26T12:33:57Z</time></trkpt><trkpt lat="44.013586055779015" lon="11.443436128242892"><ele>417.0</ele><time>2026-04-26T12:33:58Z</time></trkpt><trkpt lat="44.01347706056663" lon="11.443424201422976"><ele>417.0</ele><time>2026-04-26T12:33:59Z</time></trkpt><trkpt lat="44.01339747167213" lon="11.443296061473442"><ele>417.0</ele><time>2026-04-26T12:34:00Z</time></trkpt><trkpt lat="44.01334690616543" lon="11.443152282423178"><ele>417.25</ele><time>2026-04-26T12:34:01Z</time></trkpt><trkpt lat="44.013309867985726" lon="11.442989455799998"><ele>417.5</ele><time>2026-04-26T12:34:02Z</time></trkpt><trkpt lat="44.013258665307056" lon="11.442822147639161"><ele>417.75</ele><time>2026-04-26T12:34:03Z</time></trkpt><trkpt lat="44.013224932526256" lon="11.442644418205477"><ele>418.0</ele><time>2026-04-26T12:34:04Z</time></trkpt><trkpt lat="44.01321234326422" lon="11.44245366368533"><ele>415.25</ele><time>2026-04-26T12:34:05Z</time></trkpt><trkpt lat="44.013197209086144" lon="11.44225681631648"><ele>412.5</ele><time>2026-04-26T12:34:06Z</time></trkpt><trkpt lat="44.013177434679534" lon="11.442062428378744"><ele>409.75</ele><time>2026-04-26T12:34:07Z</time></trkpt><trkpt lat="44.01318308077926" lon="11.441877658911618"><ele>407.0</ele><time>2026-04-26T12:34:08Z</time></trkpt><trkpt lat="44.0131618077329" lon="11.44170981959789"><ele>405.8</ele><time>2026-04-26T12:34:09Z</time></trkpt><trkpt lat="44.01311138031939" lon="11.441564607027209"><ele>404.6</ele><time>2026-04-26T12:34:10Z</time></trkpt><trkpt lat="44.01307624256128" lon="11.441428971336727"><ele>403.40000000000003</ele><time>2026-04-26T12:34:11Z</time></trkpt><trkpt lat="44.0130534728442" lon="11.441287007737802"><ele>402.20000000000005</ele><time>2026-04-26T12:34:12Z</time></trkpt><trkpt lat="44.01304098797076" lon="11.441137171595683"><ele>401.0</ele><time>2026-04-26T12:34:13Z</time></trkpt><trkpt lat="44.01303171191238" lon="11.440972360554738"><ele>400.25</ele><time>2026-04-26T12:34:14Z</time></trkpt><trkpt lat="44.01302291873684" lon="11.440807861298827"><ele>399.5</ele><time>2026-04-26T12:34:15Z</time></trkpt><trkpt lat="44.01300887573286" lon="11.440647905908579"><ele>398.75</ele><time>2026-04-26T12:34:16Z</time></trkpt><trkpt lat="44.01298999797212" lon="11.440491985546384"><ele>398.0</ele><time>2026-04-26T12:34:17Z</time></trkpt><trkpt lat="44.01296215221617" lon="11.440340770709389"><ele>398.0</ele><time>2026-04-26T12:34:18Z</time></trkpt><trkpt lat="44.01292207638309" lon="11.440194760651593"><ele>398.0</ele><time>2026-04-26T12:34:19Z</time></trkpt><trkpt lat="44.01287946135334" lon="11.440053652543785"><ele>398.0</ele><time>2026-04-26T12:34:20Z</time></trkpt><trkpt lat="44.01284720713722" lon="11.439919492396369"><ele>398.0</ele><time>2026-04-26T12:34:21Z</time></trkpt><trkpt lat="44.01281436117527" lon="11.439797557236453"><ele>398.0</ele><time>2026-04-26T12:34:22Z</time></trkpt><trkpt lat="44.01277952689893" lon="11.439694384315251"><ele>399.3333333333333</ele><time>2026-04-26T12:34:23Z</time></trkpt><trkpt lat="44.0127281834988" lon="11.439613492696637"><ele>400.66666666666663</ele><time>2026-04-26T12:34:24Z</time></trkpt><trkpt lat="44.01266223135477" lon="11.439560641583297"><ele>402.0</ele><time>2026-04-26T12:34:25Z</time></trkpt><trkpt lat="44.012589777340544" lon="11.439533915936595"><ele>403.33333333333337</ele><time>2026-04-26T12:34:26Z</time></trkpt><trkpt lat="44.01250928902763" lon="11.43952261408042"><ele>404.6666666666667</ele><time>2026-04-26T12:34:27Z</time></trkpt><trkpt lat="44.01242290026964" lon="11.439515012012585"><ele>406.0</ele><time>2026-04-26T12:34:28Z</time></trkpt><trkpt lat="44.012337263346296" lon="11.439471354618759"><ele>402.8</ele><time>2026-04-26T12:34:29Z</time></trkpt><trkpt lat="44.012262827402544" lon="11.43938115941382"><ele>399.6</ele><time>2026-04-26T12:34:30Z</time></trkpt><trkpt lat="44.01222483824998" lon="11.439247586897954"><ele>396.4</ele><time>2026-04-26T12:34:30.999Z</time></trkpt><trkpt lat="44.012181101665334" lon="11.439122031429491"><ele>393.2</ele><time>2026-04-26T12:34:31.999Z</time></trkpt><trkpt lat="44.01212789531076" lon="11.438999081663571"><ele>390.0</ele><time>2026-04-26T12:34:32.999Z</time></trkpt><trkpt lat="44.012082675120425" lon="11.438866633056353"><ele>391.75</ele><time>2026-04-26T12:34:33.999Z</time></trkpt><trkpt lat="44.012019179240774" lon="11.438738558896189"><ele>393.5</ele><time>2026-04-26T12:34:34.999Z</time></trkpt><trkpt lat="44.01194526205529" lon="11.438619221012035"><ele>395.25</ele><time>2026-04-26T12:34:35.999Z</time></trkpt><trkpt lat="44.011858572937356" lon="11.438519647480536"><ele>397.0</ele><time>2026-04-26T12:34:36.999Z</time></trkpt><trkpt lat="44.01175880779212" lon="11.438433123979364"><ele>397.0</ele><time>2026-04-26T12:34:37.999Z</time></trkpt><trkpt lat="44.01166634841194" lon="11.438350311433146"><ele>397.0</ele><time>2026-04-26T12:34:38.999Z</time></trkpt><trkpt lat="44.011579758939654" lon="11.438266376852948"><ele>397.0</ele><time>2026-04-26T12:34:39.999Z</time></trkpt><trkpt lat="44.01149612969491" lon="11.438185646318479"><ele>397.0</ele><time>2026-04-26T12:34:40.999Z</time></trkpt><trkpt lat="44.01141119985703" lon="11.43811389941499"><ele>397.0</ele><time>2026-04-26T12:34:41.999Z</time></trkpt><trkpt lat="44.01133520484696" lon="11.438026734237763"><ele>396.20000000000005</ele><time>2026-04-26T12:34:42.999Z</time></trkpt><trkpt lat="44.011239253912414" lon="11.437974806857925"><ele>395.4</ele><time>2026-04-26T12:34:43.999Z</time></trkpt><trkpt lat="44.01114782322289" lon="11.437901622826038"><ele>394.6</ele><time>2026-04-26T12:34:44.999Z</time></trkpt><trkpt lat="44.01105262459317" lon="11.4378311893693"><ele>393.79999999999995</ele><time>2026-04-26T12:34:45.999Z</time></trkpt><trkpt lat="44.01095689727543" lon="11.43775493878987"><ele>393.0</ele><time>2026-04-26T12:34:46.999Z</time></trkpt><trkpt lat="44.010862313531376" lon="11.437674009196186"><ele>390.79999999999995</ele><time>2026-04-26T12:34:48.001Z</time></trkpt><trkpt lat="44.010776654575245" lon="11.437570073795877"><ele>388.6</ele><time>2026-04-26T12:34:49.001Z</time></trkpt><trkpt lat="44.010686880181254" lon="11.437480224835875"><ele>386.4</ele><time>2026-04-26T12:34:50Z</time></trkpt><trkpt lat="44.01059679049249" lon="11.437390907176725"><ele>384.20000000000005</ele><time>2026-04-26T12:34:51Z</time></trkpt><trkpt lat="44.01051087540174" lon="11.437298139813315"><ele>382.0</ele><time>2026-04-26T12:34:52Z</time></trkpt><trkpt lat="44.01044294961069" lon="11.437175428311287"><ele>382.8</ele><time>2026-04-26T12:34:53Z</time></trkpt><trkpt lat="44.01036824548419" lon="11.437071148125412"><ele>383.6</ele><time>2026-04-26T12:34:54Z</time></trkpt><trkpt lat="44.01029617051696" lon="11.436970539362235"><ele>384.40000000000003</ele><time>2026-04-26T12:34:55Z</time></trkpt><trkpt lat="44.0102142452382" lon="11.436888896154622"><ele>385.20000000000005</ele><time>2026-04-26T12:34:56Z</time></trkpt><trkpt lat="44.01014117280716" lon="11.436795503765232"><ele>386.0</ele><time>2026-04-26T12:34:57Z</time></trkpt><trkpt lat="44.010074601214136" lon="11.436692542376791"><ele>384.4</ele><time>2026-04-26T12:34:58Z</time></trkpt><trkpt lat="44.00998742915033" lon="11.436624453890172"><ele>382.8</ele><time>2026-04-26T12:34:59Z</time></trkpt><trkpt lat="44.00988941487311" lon="11.436595020961677"><ele>381.2</ele><time>2026-04-26T12:35:00Z</time></trkpt><trkpt lat="44.00979524318202" lon="11.436557739341856"><ele>379.59999999999997</ele><time>2026-04-26T12:35:01Z</time></trkpt><trkpt lat="44.009700801160584" lon="11.436531660541203"><ele>378.0</ele><time>2026-04-26T12:35:02Z</time></trkpt><trkpt lat="44.009609564157856" lon="11.436503990591161"><ele>378.0</ele><time>2026-04-26T12:35:03Z</time></trkpt><trkpt lat="44.00951944906236" lon="11.436468633210756"><ele>378.0</ele><time>2026-04-26T12:35:04Z</time></trkpt><trkpt lat="44.00943239272309" lon="11.436426011237435"><ele>378.0</ele><time>2026-04-26T12:35:05Z</time></trkpt><trkpt lat="44.00934512127432" lon="11.436374466405274"><ele>378.0</ele><time>2026-04-26T12:35:06Z</time></trkpt><trkpt lat="44.009261306498345" lon="11.436311902749672"><ele>378.0</ele><time>2026-04-26T12:35:07Z</time></trkpt><trkpt lat="44.009177527948516" lon="11.436247318977813"><ele>377.4</ele><time>2026-04-26T12:35:08Z</time></trkpt><trkpt lat="44.00909241246818" lon="11.436185592088938"><ele>376.79999999999995</ele><time>2026-04-26T12:35:09Z</time></trkpt><trkpt lat="44.00900782423447" lon="11.436116079209619"><ele>376.2</ele><time>2026-04-26T12:35:09.999Z</time></trkpt><trkpt lat="44.00892244689337" lon="11.436049230547079"><ele>375.6</ele><time>2026-04-26T12:35:10.999Z</time></trkpt><trkpt lat="44.00883795024804" lon="11.435983393726039"><ele>375.0</ele><time>2026-04-26T12:35:11.999Z</time></trkpt><trkpt lat="44.008752229356816" lon="11.43592302965989"><ele>375.0</ele><time>2026-04-26T12:35:12.999Z</time></trkpt><trkpt lat="44.008668416012554" lon="11.435862540472804"><ele>375.0</ele><time>2026-04-26T12:35:13.999Z</time></trkpt><trkpt lat="44.00857700531846" lon="11.435800691295004"><ele>375.0</ele><time>2026-04-26T12:35:14.999Z</time></trkpt><trkpt lat="44.00848780755695" lon="11.435729858835131"><ele>375.0</ele><time>2026-04-26T12:35:15.999Z</time></trkpt><trkpt lat="44.008395814629516" lon="11.43566226549955"><ele>375.0</ele><time>2026-04-26T12:35:16.999Z</time></trkpt><trkpt lat="44.00831060214651" lon="11.43558447705263"><ele>373.6</ele><time>2026-04-26T12:35:17.999Z</time></trkpt><trkpt lat="44.008243106174525" lon="11.435481554417333"><ele>372.2</ele><time>2026-04-26T12:35:18.999Z</time></trkpt><trkpt lat="44.008169504352935" lon="11.435389953290652"><ele>370.79999999999995</ele><time>2026-04-26T12:35:19.999Z</time></trkpt><trkpt lat="44.0080862727993" lon="11.435316944807916"><ele>369.4</ele><time>2026-04-26T12:35:20.999Z</time></trkpt><trkpt lat="44.00801229199011" lon="11.43523060628812"><ele>368.0</ele><time>2026-04-26T12:35:21.999Z</time></trkpt><trkpt lat="44.00794373015273" lon="11.435145580962924"><ele>368.0</ele><time>2026-04-26T12:35:22.999Z</time></trkpt><trkpt lat="44.0078730637496" lon="11.4350574036112"><ele>368.0</ele><time>2026-04-26T12:35:23.999Z</time></trkpt><trkpt lat="44.0078027407236" lon="11.434967887376587"><ele>368.0</ele><time>2026-04-26T12:35:24.999Z</time></trkpt><trkpt lat="44.00772891629206" lon="11.434875590003315"><ele>368.0</ele><time>2026-04-26T12:35:25.999Z</time></trkpt><trkpt lat="44.00765143553166" lon="11.434790915772622"><ele>368.0</ele><time>2026-04-26T12:35:26.999Z</time></trkpt><trkpt lat="44.00757508342986" lon="11.434697455291893"><ele>368.59999999999997</ele><time>2026-04-26T12:35:27.999Z</time></trkpt><trkpt lat="44.00749909286721" lon="11.434604628906984"><ele>369.2</ele><time>2026-04-26T12:35:28.999Z</time></trkpt><trkpt lat="44.00742163691301" lon="11.434506226335708"><ele>369.8</ele><time>2026-04-26T12:35:29.999Z</time></trkpt><trkpt lat="44.00734373968816" lon="11.434410005145223"><ele>370.4</ele><time>2026-04-26T12:35:30.999Z</time></trkpt><trkpt lat="44.00726474757261" lon="11.434313784648104"><ele>371.0</ele><time>2026-04-26T12:35:31.999Z</time></trkpt><trkpt lat="44.007182793975126" lon="11.434219687057197"><ele>370.8</ele><time>2026-04-26T12:35:32.999Z</time></trkpt><trkpt lat="44.007104069692026" lon="11.434119453481086"><ele>370.6</ele><time>2026-04-26T12:35:33.999Z</time></trkpt><trkpt lat="44.00702659831836" lon="11.434026456375115"><ele>370.4</ele><time>2026-04-26T12:35:34.999Z</time></trkpt><trkpt lat="44.00695191238779" lon="11.433939012566244"><ele>370.2</ele><time>2026-04-26T12:35:35.999Z</time></trkpt><trkpt lat="44.00687886971925" lon="11.433854708459176"><ele>370.0</ele><time>2026-04-26T12:35:36.999Z</time></trkpt><trkpt lat="44.00680747372024" lon="11.433771608853922"><ele>370.0</ele><time>2026-04-26T12:35:37.999Z</time></trkpt><trkpt lat="44.00673608019275" lon="11.433686899618545"><ele>370.0</ele><time>2026-04-26T12:35:38.999Z</time></trkpt><trkpt lat="44.00666950507733" lon="11.433605268254919"><ele>370.0</ele><time>2026-04-26T12:35:39.999Z</time></trkpt><trkpt lat="44.006604066317216" lon="11.433522406692134"><ele>370.0</ele><time>2026-04-26T12:35:40.999Z</time></trkpt><trkpt lat="44.00653911319747" lon="11.433443094044554"><ele>370.0</ele><time>2026-04-26T12:35:41.999Z</time></trkpt><trkpt lat="44.00647451354705" lon="11.433367596507457"><ele>370.0</ele><time>2026-04-26T12:35:42.999Z</time></trkpt><trkpt lat="44.00642312991618" lon="11.433271251581623"><ele>369.4</ele><time>2026-04-26T12:35:43.999Z</time></trkpt><trkpt lat="44.00635881576399" lon="11.433180794984738"><ele>368.8</ele><time>2026-04-26T12:35:44.999Z</time></trkpt><trkpt lat="44.00629056237696" lon="11.433084826624443"><ele>368.20000000000005</ele><time>2026-04-26T12:35:45.999Z</time></trkpt><trkpt lat="44.00621210886405" lon="11.433003935023377"><ele>367.6</ele><time>2026-04-26T12:35:46.999Z</time></trkpt><trkpt lat="44.00614785436976" lon="11.432910167399484"><ele>367.0</ele><time>2026-04-26T12:35:47.999Z</time></trkpt><trkpt lat="44.0061002025043" lon="11.432812548651864"><ele>367.0</ele><time>2026-04-26T12:35:48.999Z</time></trkpt><trkpt lat="44.00604166022388" lon="11.432728554234489"><ele>367.0</ele><time>2026-04-26T12:35:49.999Z</time></trkpt><trkpt lat="44.0059706580706" lon="11.432656189767087"><ele>367.0</ele><time>2026-04-26T12:35:50.999Z</time></trkpt><trkpt lat="44.00590566366183" lon="11.432550483421366"><ele>367.0</ele><time>2026-04-26T12:35:51.999Z</time></trkpt><trkpt lat="44.00582893270436" lon="11.43245315450862"><ele>367.0</ele><time>2026-04-26T12:35:52.999Z</time></trkpt><trkpt lat="44.005748660504025" lon="11.432341896106562"><ele>366.25</ele><time>2026-04-26T12:35:53.999Z</time></trkpt><trkpt lat="44.00567538835009" lon="11.432206586056017"><ele>365.5</ele><time>2026-04-26T12:35:54.999Z</time></trkpt><trkpt lat="44.00558600888968" lon="11.432079564138846"><ele>364.75</ele><time>2026-04-26T12:35:55.999Z</time></trkpt><trkpt lat="44.00550189682991" lon="11.431960029298446"><ele>364.0</ele><time>2026-04-26T12:35:56.999Z</time></trkpt><trkpt lat="44.00541702103928" lon="11.431839407805878"><ele>364.0</ele><time>2026-04-26T12:35:57.999Z</time></trkpt><trkpt lat="44.00533229687826" lon="11.431719001793239"><ele>364.0</ele><time>2026-04-26T12:35:58.999Z</time></trkpt><trkpt lat="44.005242995414896" lon="11.43159209319887"><ele>364.0</ele><time>2026-04-26T12:35:59.999Z</time></trkpt><trkpt lat="44.00515569248733" lon="11.431469143925838"><ele>364.0</ele><time>2026-04-26T12:36:00.999Z</time></trkpt><trkpt lat="44.00506640465459" lon="11.431343145108604"><ele>363.0</ele><time>2026-04-26T12:36:01.999Z</time></trkpt><trkpt lat="44.004978606898376" lon="11.431219248920534"><ele>362.0</ele><time>2026-04-26T12:36:02.999Z</time></trkpt><trkpt lat="44.00489090253345" lon="11.431095484598801"><ele>361.0</ele><time>2026-04-26T12:36:03.999Z</time></trkpt><trkpt lat="44.00480263046301" lon="11.43097062498338"><ele>360.0</ele><time>2026-04-26T12:36:04.999Z</time></trkpt><trkpt lat="44.004714617478236" lon="11.430845278260165"><ele>360.0</ele><time>2026-04-26T12:36:05.999Z</time></trkpt><trkpt lat="44.00462944504592" lon="11.430722824524729"><ele>360.0</ele><time>2026-04-26T12:36:06.999Z</time></trkpt><trkpt lat="44.00454767934262" lon="11.430603992313257"><ele>360.0</ele><time>2026-04-26T12:36:07.999Z</time></trkpt><trkpt lat="44.00446859194924" lon="11.430489052858114"><ele>360.0</ele><time>2026-04-26T12:36:08.999Z</time></trkpt><trkpt lat="44.00439424818811" lon="11.430381007055264"><ele>361.8</ele><time>2026-04-26T12:36:09.999Z</time></trkpt><trkpt lat="44.00432092824056" lon="11.430274452052805"><ele>363.6</ele><time>2026-04-26T12:36:10.999Z</time></trkpt><trkpt lat="44.00424813529595" lon="11.430171933916366"><ele>365.4</ele><time>2026-04-26T12:36:11.999Z</time></trkpt><trkpt lat="44.004180197468" lon="11.430074977061025"><ele>367.2</ele><time>2026-04-26T12:36:12.999Z</time></trkpt><trkpt lat="44.00411719802428" lon="11.429984652259579"><ele>369.0</ele><time>2026-04-26T12:36:13.999Z</time></trkpt><trkpt lat="44.00405745065118" lon="11.429898990121346"><ele>367.1666666666667</ele><time>2026-04-26T12:36:14.999Z</time></trkpt><trkpt lat="44.00399952212663" lon="11.429815935666692"><ele>365.3333333333333</ele><time>2026-04-26T12:36:15.999Z</time></trkpt><trkpt lat="44.00394772043904" lon="11.429742873399286"><ele>363.5</ele><time>2026-04-26T12:36:16.999Z</time></trkpt><trkpt lat="44.00386869841648" lon="11.429636068897157"><ele>361.66666666666663</ele><time>2026-04-26T12:36:18.999Z</time></trkpt><trkpt lat="44.00380054167563" lon="11.429575590348167"><ele>359.8333333333333</ele><time>2026-04-26T12:36:20.999Z</time></trkpt><trkpt lat="44.003770145808225" lon="11.429492948525887"><ele>358.0</ele><time>2026-04-26T12:36:22.999Z</time></trkpt><trkpt lat="44.00374284220453" lon="11.429396995085428"><ele>358.0</ele><time>2026-04-26T12:36:24.999Z</time></trkpt><trkpt lat="44.003640920353234" lon="11.429384070891368"><ele>358.0</ele><time>2026-04-26T12:36:26.999Z</time></trkpt><trkpt lat="44.0035244924263" lon="11.429390821443208"><ele>358.0</ele><time>2026-04-26T12:36:28.999Z</time></trkpt><trkpt lat="44.003457914269326" lon="11.42935816696741"><ele>358.0</ele><time>2026-04-26T12:36:29.999Z</time></trkpt><trkpt lat="44.00339600163731" lon="11.42930549063633"><ele>358.0</ele><time>2026-04-26T12:36:30.999Z</time></trkpt><trkpt lat="44.003335037276756" lon="11.429246134981028"><ele>358.0</ele><time>2026-04-26T12:36:31.999Z</time></trkpt><trkpt lat="44.00326860807675" lon="11.429198325832699"><ele>355.5</ele><time>2026-04-26T12:36:32.999Z</time></trkpt><trkpt lat="44.003189978575094" lon="11.429133287189075"><ele>353.0</ele><time>2026-04-26T12:36:33.999Z</time></trkpt><trkpt lat="44.00308040751814" lon="11.429093691656128"><ele>350.5</ele><time>2026-04-26T12:36:34.999Z</time></trkpt><trkpt lat="44.00295306383106" lon="11.429084946236742"><ele>348.0</ele><time>2026-04-26T12:36:35.999Z</time></trkpt><trkpt lat="44.00280503852544" lon="11.429110712304782"><ele>348.0</ele><time>2026-04-26T12:36:36.999Z</time></trkpt><trkpt lat="44.00264970024093" lon="11.429149592916241"><ele>348.0</ele><time>2026-04-26T12:36:37.999Z</time></trkpt><trkpt lat="44.0024840505646" lon="11.42919574097243"><ele>348.0</ele><time>2026-04-26T12:36:38.999Z</time></trkpt><trkpt lat="44.002382925820214" lon="11.429219794858685"><ele>348.0</ele><time>2026-04-26T12:36:39.999Z</time></trkpt><trkpt lat="44.002228110640914" lon="11.429227207708115"><ele>345.6666666666667</ele><time>2026-04-26T12:36:40.999Z</time></trkpt><trkpt lat="44.00207338672581" lon="11.429208427078844"><ele>343.33333333333337</ele><time>2026-04-26T12:36:41.999Z</time></trkpt><trkpt lat="44.00191711547284" lon="11.429153996135684"><ele>341.0</ele><time>2026-04-26T12:36:42.999Z</time></trkpt><trkpt lat="44.00176634908151" lon="11.42906586488628"><ele>340.0</ele><time>2026-04-26T12:36:43.999Z</time></trkpt><trkpt lat="44.00161110399793" lon="11.428956953376739"><ele>339.0</ele><time>2026-04-26T12:36:44.999Z</time></trkpt><trkpt lat="44.001460425502124" lon="11.428858891675112"><ele>338.0</ele><time>2026-04-26T12:36:45.999Z</time></trkpt><trkpt lat="44.00131359109052" lon="11.428757438689082"><ele>338.0</ele><time>2026-04-26T12:36:46.999Z</time></trkpt><trkpt lat="44.001171879340774" lon="11.428657036469232"><ele>338.0</ele><time>2026-04-26T12:36:47.999Z</time></trkpt><trkpt lat="44.00102743434169" lon="11.428559950025553"><ele>338.0</ele><time>2026-04-26T12:36:48.999Z</time></trkpt><trkpt lat="44.00088422598975" lon="11.428455044189851"><ele>335.33333333333337</ele><time>2026-04-26T12:36:49.999Z</time></trkpt><trkpt lat="44.00073930785348" lon="11.42834528596458"><ele>332.6666666666667</ele><time>2026-04-26T12:36:50.999Z</time></trkpt><trkpt lat="44.00059396655536" lon="11.428230286468036"><ele>330.0</ele><time>2026-04-26T12:36:51.999Z</time></trkpt><trkpt lat="44.00045483738763" lon="11.428116540978964"><ele>330.0</ele><time>2026-04-26T12:36:52.999Z</time></trkpt><trkpt lat="44.00030987527394" lon="11.428006047374438"><ele>330.0</ele><time>2026-04-26T12:36:54Z</time></trkpt><trkpt lat="44.000172433950404" lon="11.427889504982467"><ele>330.0</ele><time>2026-04-26T12:36:55Z</time></trkpt><trkpt lat="44.00003234219551" lon="11.427778211730848"><ele>331.3333333333333</ele><time>2026-04-26T12:36:56Z</time></trkpt><trkpt lat="43.99989397182335" lon="11.427667854553633"><ele>332.66666666666663</ele><time>2026-04-26T12:36:57Z</time></trkpt><trkpt lat="43.99975522164399" lon="11.427557624344821"><ele>334.0</ele><time>2026-04-26T12:36:58Z</time></trkpt><trkpt lat="43.99962179975242" lon="11.427450710265886"><ele>334.0</ele><time>2026-04-26T12:36:59Z</time></trkpt><trkpt lat="43.99949248876159" lon="11.427348508397685"><ele>334.0</ele><time>2026-04-26T12:37:00Z</time></trkpt><trkpt lat="43.999362893592114" lon="11.427252075840698"><ele>334.0</ele><time>2026-04-26T12:37:01Z</time></trkpt><trkpt lat="43.99923763267298" lon="11.427173931734659"><ele>334.0</ele><time>2026-04-26T12:37:02Z</time></trkpt><trkpt lat="43.99909954268553" lon="11.427111276147931"><ele>333.3333333333333</ele><time>2026-04-26T12:37:03Z</time></trkpt><trkpt lat="43.99895886972496" lon="11.427047890981376"><ele>332.6666666666667</ele><time>2026-04-26T12:37:04Z</time></trkpt><trkpt lat="43.99881249436906" lon="11.426984814956361"><ele>332.0</ele><time>2026-04-26T12:37:05Z</time></trkpt><trkpt lat="43.998669313194576" lon="11.426918643943333"><ele>332.0</ele><time>2026-04-26T12:37:06Z</time></trkpt><trkpt lat="43.99852646385598" lon="11.426851860307504"><ele>332.0</ele><time>2026-04-26T12:37:07Z</time></trkpt><trkpt lat="43.99838385979429" lon="11.426785565596596"><ele>332.0</ele><time>2026-04-26T12:37:08Z</time></trkpt><trkpt lat="43.99823756353251" lon="11.426717141518484"><ele>330.33333333333337</ele><time>2026-04-26T12:37:09Z</time></trkpt><trkpt lat="43.998088045413645" lon="11.426655920721924"><ele>328.6666666666667</ele><time>2026-04-26T12:37:10Z</time></trkpt><trkpt lat="43.99793901348689" lon="11.426582172069576"><ele>327.0</ele><time>2026-04-26T12:37:11Z</time></trkpt><trkpt lat="43.99778375638589" lon="11.426510136878996"><ele>327.0</ele><time>2026-04-26T12:37:12Z</time></trkpt><trkpt lat="43.997625916174094" lon="11.426438037013776"><ele>327.0</ele><time>2026-04-26T12:37:13Z</time></trkpt><trkpt lat="43.99746401887251" lon="11.426360236853881"><ele>327.0</ele><time>2026-04-26T12:37:14Z</time></trkpt><trkpt lat="43.99730676868987" lon="11.4262830223188"><ele>326.0</ele><time>2026-04-26T12:37:15Z</time></trkpt><trkpt lat="43.99715729780265" lon="11.426201832823155"><ele>325.0</ele><time>2026-04-26T12:37:16Z</time></trkpt><trkpt lat="43.997034834525394" lon="11.42607390201489"><ele>324.0</ele><time>2026-04-26T12:37:17Z</time></trkpt><trkpt lat="43.996934396949236" lon="11.425924642925064"><ele>324.0</ele><time>2026-04-26T12:37:18Z</time></trkpt><trkpt lat="43.996853361173976" lon="11.425750288277564"><ele>324.0</ele><time>2026-04-26T12:37:19Z</time></trkpt><trkpt lat="43.99680374020338" lon="11.425553949993613"><ele>324.0</ele><time>2026-04-26T12:37:20Z</time></trkpt><trkpt lat="43.99678298233248" lon="11.425337555336077"><ele>324.3333333333333</ele><time>2026-04-26T12:37:21Z</time></trkpt><trkpt lat="43.99678602216713" lon="11.425109894109951"><ele>324.66666666666663</ele><time>2026-04-26T12:37:22Z</time></trkpt><trkpt lat="43.996788562447335" lon="11.424866594372146"><ele>325.0</ele><time>2026-04-26T12:37:23Z</time></trkpt><trkpt lat="43.99681185961098" lon="11.424617983475974"><ele>327.0</ele><time>2026-04-26T12:37:24Z</time></trkpt><trkpt lat="43.99683667669011" lon="11.424368131599534"><ele>329.0</ele><time>2026-04-26T12:37:25Z</time></trkpt><trkpt lat="43.99685398414284" lon="11.42411435864542"><ele>331.0</ele><time>2026-04-26T12:37:26Z</time></trkpt><trkpt lat="43.9968682352268" lon="11.423860714715584"><ele>333.0</ele><time>2026-04-26T12:37:27Z</time></trkpt><trkpt lat="43.99687067230675" lon="11.423603525047989"><ele>335.0</ele><time>2026-04-26T12:37:28Z</time></trkpt><trkpt lat="43.99686802870587" lon="11.423347703152862"><ele>337.0</ele><time>2026-04-26T12:37:29Z</time></trkpt><trkpt lat="43.996860849746085" lon="11.423091695845429"><ele>337.0</ele><time>2026-04-26T12:37:30Z</time></trkpt><trkpt lat="43.99685244046213" lon="11.422837189202495"><ele>337.0</ele><time>2026-04-26T12:37:31Z</time></trkpt><trkpt lat="43.99684764495552" lon="11.422588902943554"><ele>337.0</ele><time>2026-04-26T12:37:32Z</time></trkpt><trkpt lat="43.99684443271782" lon="11.42235068021025"><ele>337.3333333333333</ele><time>2026-04-26T12:37:33Z</time></trkpt><trkpt lat="43.99682375307489" lon="11.422121211713257"><ele>337.6666666666667</ele><time>2026-04-26T12:37:34Z</time></trkpt><trkpt lat="43.99677557339058" lon="11.421900179293045"><ele>338.0</ele><time>2026-04-26T12:37:34.999Z</time></trkpt><trkpt lat="43.9966933100458" lon="11.421701343340018"><ele>338.0</ele><time>2026-04-26T12:37:35.999Z</time></trkpt><trkpt lat="43.996585034054846" lon="11.421531602037227"><ele>338.0</ele><time>2026-04-26T12:37:36.999Z</time></trkpt><trkpt lat="43.9964561463674" lon="11.421398692684487"><ele>338.0</ele><time>2026-04-26T12:37:37.999Z</time></trkpt><trkpt lat="43.99631766460492" lon="11.421301757938764"><ele>338.0</ele><time>2026-04-26T12:37:38.999Z</time></trkpt><trkpt lat="43.996185128931906" lon="11.421243961384764"><ele>338.0</ele><time>2026-04-26T12:37:39.999Z</time></trkpt><trkpt lat="43.99607230944344" lon="11.421197661588053"><ele>338.0</ele><time>2026-04-26T12:37:40.999Z</time></trkpt><trkpt lat="43.995983203154154" lon="11.421142685499879"><ele>338.0</ele><time>2026-04-26T12:37:41.999Z</time></trkpt><trkpt lat="43.99591604994097" lon="11.421071498395841"><ele>338.0</ele><time>2026-04-26T12:37:42.999Z</time></trkpt><trkpt lat="43.99587175842909" lon="11.42098345460451"><ele>337.0</ele><time>2026-04-26T12:37:43.999Z</time></trkpt><trkpt lat="43.99582851010096" lon="11.420902509129753"><ele>336.0</ele><time>2026-04-26T12:37:44.999Z</time></trkpt><trkpt lat="43.995763570831016" lon="11.420868659076977"><ele>335.0</ele><time>2026-04-26T12:37:45.999Z</time></trkpt><trkpt lat="43.99567571522952" lon="11.420880332490055"><ele>334.0</ele><time>2026-04-26T12:37:46.999Z</time></trkpt><trkpt lat="43.995570930401406" lon="11.42090607282381"><ele>333.0</ele><time>2026-04-26T12:37:47.999Z</time></trkpt><trkpt lat="43.99544671842171" lon="11.420918896091777"><ele>333.0</ele><time>2026-04-26T12:37:48.999Z</time></trkpt><trkpt lat="43.99530322073948" lon="11.420911658715351"><ele>333.0</ele><time>2026-04-26T12:37:49.999Z</time></trkpt><trkpt lat="43.9951468273555" lon="11.420903588806334"><ele>333.0</ele><time>2026-04-26T12:37:50.999Z</time></trkpt><trkpt lat="43.994985090960334" lon="11.420897896088764"><ele>331.3333333333333</ele><time>2026-04-26T12:37:51.999Z</time></trkpt><trkpt lat="43.994823662453896" lon="11.420886741678004"><ele>329.66666666666663</ele><time>2026-04-26T12:37:52.999Z</time></trkpt><trkpt lat="43.994661064959296" lon="11.420859570623351"><ele>328.0</ele><time>2026-04-26T12:37:53.999Z</time></trkpt><trkpt lat="43.99450405186414" lon="11.420808086158527"><ele>328.0</ele><time>2026-04-26T12:37:54.999Z</time></trkpt><trkpt lat="43.994348230684444" lon="11.420742307712477"><ele>328.0</ele><time>2026-04-26T12:37:55.999Z</time></trkpt><trkpt lat="43.99420137235568" lon="11.420656572883175"><ele>328.0</ele><time>2026-04-26T12:37:56.999Z</time></trkpt><trkpt lat="43.99406541313668" lon="11.420553736275457"><ele>328.3333333333333</ele><time>2026-04-26T12:37:57.999Z</time></trkpt><trkpt lat="43.99394092910074" lon="11.420427474333753"><ele>328.6666666666667</ele><time>2026-04-26T12:37:58.999Z</time></trkpt><trkpt lat="43.99382026424335" lon="11.420274686656574"><ele>329.0</ele><time>2026-04-26T12:37:59.999Z</time></trkpt><trkpt lat="43.993699318204875" lon="11.420109261868312"><ele>329.0</ele><time>2026-04-26T12:38:00.999Z</time></trkpt><trkpt lat="43.99357109870831" lon="11.419937984541207"><ele>329.0</ele><time>2026-04-26T12:38:01.999Z</time></trkpt><trkpt lat="43.99344239447266" lon="11.419761153642146"><ele>329.0</ele><time>2026-04-26T12:38:02.999Z</time></trkpt><trkpt lat="43.993307937691526" lon="11.419583832467193"><ele>326.6666666666667</ele><time>2026-04-26T12:38:03.999Z</time></trkpt><trkpt lat="43.99317058920273" lon="11.41940174844788"><ele>324.3333333333333</ele><time>2026-04-26T12:38:04.999Z</time></trkpt><trkpt lat="43.99303345098679" lon="11.419215373493845"><ele>322.0</ele><time>2026-04-26T12:38:05.999Z</time></trkpt><trkpt lat="43.99289833644444" lon="11.419031040973016"><ele>322.0</ele><time>2026-04-26T12:38:06.999Z</time></trkpt><trkpt lat="43.992767016217556" lon="11.418853180665892"><ele>322.0</ele><time>2026-04-26T12:38:07.999Z</time></trkpt><trkpt lat="43.9926373503348" lon="11.418683821379037"><ele>322.0</ele><time>2026-04-26T12:38:08.999Z</time></trkpt><trkpt lat="43.9925134971575" lon="11.418525629704373"><ele>321.3333333333333</ele><time>2026-04-26T12:38:09.999Z</time></trkpt><trkpt lat="43.992400892023326" lon="11.418361964147126"><ele>320.6666666666667</ele><time>2026-04-26T12:38:10.999Z</time></trkpt><trkpt lat="43.99228297252548" lon="11.418202657196026"><ele>320.0</ele><time>2026-04-26T12:38:11.999Z</time></trkpt><trkpt lat="43.992161656316775" lon="11.418042471350653"><ele>320.33333333333337</ele><time>2026-04-26T12:38:12.999Z</time></trkpt><trkpt lat="43.99204241302052" lon="11.417882265173963"><ele>320.6666666666667</ele><time>2026-04-26T12:38:13.999Z</time></trkpt><trkpt lat="43.99192888241557" lon="11.417727381703404"><ele>321.0</ele><time>2026-04-26T12:38:14.999Z</time></trkpt><trkpt lat="43.991818328625094" lon="11.417579687322341"><ele>321.0</ele><time>2026-04-26T12:38:15.999Z</time></trkpt><trkpt lat="43.991712722072194" lon="11.417437209370053"><ele>321.0</ele><time>2026-04-26T12:38:16.999Z</time></trkpt><trkpt lat="43.991612515237414" lon="11.417298688910005"><ele>321.0</ele><time>2026-04-26T12:38:17.999Z</time></trkpt><trkpt lat="43.9915174938668" lon="11.417164427260463"><ele>321.0</ele><time>2026-04-26T12:38:18.999Z</time></trkpt><trkpt lat="43.99142436690835" lon="11.417036862640737"><ele>321.0</ele><time>2026-04-26T12:38:19.999Z</time></trkpt><trkpt lat="43.991335330877135" lon="11.41691604371641"><ele>321.0</ele><time>2026-04-26T12:38:20.999Z</time></trkpt><trkpt lat="43.99125138241933" lon="11.416803561410902"><ele>321.0</ele><time>2026-04-26T12:38:21.999Z</time></trkpt><trkpt lat="43.99117970845318" lon="11.416705439411428"><ele>321.0</ele><time>2026-04-26T12:38:22.999Z</time></trkpt><trkpt lat="43.9911177827959" lon="11.41661729211827"><ele>321.0</ele><time>2026-04-26T12:38:23.999Z</time></trkpt><trkpt lat="43.99105972722333" lon="11.416536107814647"><ele>321.0</ele><time>2026-04-26T12:38:24.999Z</time></trkpt><trkpt lat="43.991000710840545" lon="11.416458743348397"><ele>321.0</ele><time>2026-04-26T12:38:25.999Z</time></trkpt><trkpt lat="43.99093546251473" lon="11.416378443781632"><ele>321.0</ele><time>2026-04-26T12:38:26.999Z</time></trkpt><trkpt lat="43.99086294146789" lon="11.416281122283332"><ele>321.0</ele><time>2026-04-26T12:38:27.999Z</time></trkpt><trkpt lat="43.9907797872875" lon="11.41616623128291"><ele>321.0</ele><time>2026-04-26T12:38:28.999Z</time></trkpt><trkpt lat="43.99068455242958" lon="11.416038112411277"><ele>319.3333333333333</ele><time>2026-04-26T12:38:29.999Z</time></trkpt><trkpt lat="43.99058152510009" lon="11.41589492402824"><ele>317.66666666666663</ele><time>2026-04-26T12:38:30.999Z</time></trkpt><trkpt lat="43.99046822677797" lon="11.415747244694927"><ele>316.0</ele><time>2026-04-26T12:38:31.999Z</time></trkpt><trkpt lat="43.99035194001419" lon="11.415595092835291"><ele>316.3333333333333</ele><time>2026-04-26T12:38:32.999Z</time></trkpt><trkpt lat="43.99023141725517" lon="11.415428573343288"><ele>316.6666666666667</ele><time>2026-04-26T12:38:33.999Z</time></trkpt><trkpt lat="43.99011568976129" lon="11.415272699194027"><ele>317.0</ele><time>2026-04-26T12:38:34.999Z</time></trkpt><trkpt lat="43.989998321945585" lon="11.41511672518327"><ele>316.6666666666667</ele><time>2026-04-26T12:38:35.999Z</time></trkpt><trkpt lat="43.989881118185764" lon="11.41495451652592"><ele>316.3333333333333</ele><time>2026-04-26T12:38:36.999Z</time></trkpt><trkpt lat="43.98976743602367" lon="11.4147926252114"><ele>316.0</ele><time>2026-04-26T12:38:37.999Z</time></trkpt><trkpt lat="43.98965155187804" lon="11.41462536504216"><ele>316.0</ele><time>2026-04-26T12:38:38.999Z</time></trkpt><trkpt lat="43.989535946866084" lon="11.414463796122051"><ele>316.0</ele><time>2026-04-26T12:38:39.999Z</time></trkpt><trkpt lat="43.989422034337885" lon="11.414293742990676"><ele>316.0</ele><time>2026-04-26T12:38:40.999Z</time></trkpt><trkpt lat="43.98930929425915" lon="11.414119608925535"><ele>316.0</ele><time>2026-04-26T12:38:41.999Z</time></trkpt><trkpt lat="43.989198853930525" lon="11.41394488809191"><ele>316.0</ele><time>2026-04-26T12:38:42.999Z</time></trkpt><trkpt lat="43.989090010739126" lon="11.413763387779271"><ele>316.0</ele><time>2026-04-26T12:38:43.999Z</time></trkpt><trkpt lat="43.988980152532676" lon="11.41358175448265"><ele>314.66666666666663</ele><time>2026-04-26T12:38:44.999Z</time></trkpt><trkpt lat="43.98887065244145" lon="11.413402476593987"><ele>313.3333333333333</ele><time>2026-04-26T12:38:45.999Z</time></trkpt><trkpt lat="43.988760036006624" lon="11.413219037965938"><ele>312.0</ele><time>2026-04-26T12:38:46.999Z</time></trkpt><trkpt lat="43.98864844166541" lon="11.413033582305387"><ele>310.6666666666667</ele><time>2026-04-26T12:38:47.999Z</time></trkpt><trkpt lat="43.98853704265374" lon="11.412850337901624"><ele>309.33333333333337</ele><time>2026-04-26T12:38:48.999Z</time></trkpt><trkpt lat="43.98842462096439" lon="11.412664417440629"><ele>308.0</ele><time>2026-04-26T12:38:49.999Z</time></trkpt><trkpt lat="43.988311448101186" lon="11.412482174202582"><ele>307.33333333333337</ele><time>2026-04-26T12:38:50.999Z</time></trkpt><trkpt lat="43.98820380480128" lon="11.4123039923212"><ele>306.6666666666667</ele><time>2026-04-26T12:38:51.999Z</time></trkpt><trkpt lat="43.98810586831771" lon="11.412139642455317"><ele>306.0</ele><time>2026-04-26T12:38:52.999Z</time></trkpt><trkpt lat="43.988018583922084" lon="11.411988703547015"><ele>305.25</ele><time>2026-04-26T12:38:53.999Z</time></trkpt><trkpt lat="43.987931164604085" lon="11.411853314463965"><ele>304.5</ele><time>2026-04-26T12:38:54.999Z</time></trkpt><trkpt lat="43.98785454781411" lon="11.411734327106217"><ele>303.75</ele><time>2026-04-26T12:38:55.999Z</time></trkpt><trkpt lat="43.987784559194665" lon="11.411622047324288"><ele>303.0</ele><time>2026-04-26T12:38:56.999Z</time></trkpt><trkpt lat="43.98771251944007" lon="11.41150445871782"><ele>303.0</ele><time>2026-04-26T12:38:57.999Z</time></trkpt><trkpt lat="43.987634393058734" lon="11.411377952950728"><ele>303.0</ele><time>2026-04-26T12:38:58.999Z</time></trkpt><trkpt lat="43.98754525871804" lon="11.411236499797726"><ele>303.0</ele><time>2026-04-26T12:39:00Z</time></trkpt><trkpt lat="43.98745201077502" lon="11.41108165937257"><ele>303.0</ele><time>2026-04-26T12:39:01Z</time></trkpt><trkpt lat="43.98735478253021" lon="11.410921609874242"><ele>302.3333333333333</ele><time>2026-04-26T12:39:02Z</time></trkpt><trkpt lat="43.987256998387494" lon="11.410760038942204"><ele>301.66666666666663</ele><time>2026-04-26T12:39:03Z</time></trkpt><trkpt lat="43.98715887833226" lon="11.410596480416155"><ele>301.0</ele><time>2026-04-26T12:39:04Z</time></trkpt><trkpt lat="43.98706108985088" lon="11.410432814418927"><ele>300.5</ele><time>2026-04-26T12:39:05Z</time></trkpt><trkpt lat="43.986965735481945" lon="11.410268774712408"><ele>300.0</ele><time>2026-04-26T12:39:06Z</time></trkpt><trkpt lat="43.9868705338361" lon="11.410111824148583"><ele>299.5</ele><time>2026-04-26T12:39:07Z</time></trkpt><trkpt lat="43.98677090972759" lon="11.40996441078446"><ele>299.0</ele><time>2026-04-26T12:39:08Z</time></trkpt><trkpt lat="43.986659358530744" lon="11.409826745654607"><ele>299.0</ele><time>2026-04-26T12:39:09Z</time></trkpt><trkpt lat="43.98653727328507" lon="11.409694499672845"><ele>299.0</ele><time>2026-04-26T12:39:10Z</time></trkpt><trkpt lat="43.986407038215646" lon="11.409572276771202"><ele>299.0</ele><time>2026-04-26T12:39:11Z</time></trkpt><trkpt lat="43.98627058461643" lon="11.409453343726721"><ele>298.33333333333337</ele><time>2026-04-26T12:39:12Z</time></trkpt><trkpt lat="43.986129706937035" lon="11.409334594368858"><ele>297.6666666666667</ele><time>2026-04-26T12:39:13Z</time></trkpt><trkpt lat="43.985984501388366" lon="11.409214448999062"><ele>297.0</ele><time>2026-04-26T12:39:14Z</time></trkpt><trkpt lat="43.98584133002474" lon="11.409087327348118"><ele>297.0</ele><time>2026-04-26T12:39:15Z</time></trkpt><trkpt lat="43.985696987120306" lon="11.408958383594202"><ele>297.0</ele><time>2026-04-26T12:39:16Z</time></trkpt><trkpt lat="43.98555541460841" lon="11.408821103348778"><ele>297.0</ele><time>2026-04-26T12:39:17Z</time></trkpt><trkpt lat="43.98541552645593" lon="11.408675579220377"><ele>296.6666666666667</ele><time>2026-04-26T12:39:18Z</time></trkpt><trkpt lat="43.98527987244814" lon="11.408533585120338"><ele>296.33333333333337</ele><time>2026-04-26T12:39:19Z</time></trkpt><trkpt lat="43.98514692508262" lon="11.408399646151336"><ele>296.0</ele><time>2026-04-26T12:39:20Z</time></trkpt><trkpt lat="43.985011187047036" lon="11.408273073474708"><ele>295.6666666666667</ele><time>2026-04-26T12:39:21Z</time></trkpt><trkpt lat="43.984874123659345" lon="11.40815188058267"><ele>295.3333333333333</ele><time>2026-04-26T12:39:22Z</time></trkpt><trkpt lat="43.984732498345686" lon="11.408037721731016"><ele>295.0</ele><time>2026-04-26T12:39:23Z</time></trkpt><trkpt lat="43.98458708167746" lon="11.40793281685084"><ele>294.66666666666663</ele><time>2026-04-26T12:39:24Z</time></trkpt><trkpt lat="43.98444064183716" lon="11.407835661412335"><ele>294.3333333333333</ele><time>2026-04-26T12:39:25Z</time></trkpt><trkpt lat="43.98429913347064" lon="11.407744265482219"><ele>294.0</ele><time>2026-04-26T12:39:26Z</time></trkpt><trkpt lat="43.984160963926854" lon="11.407657301112309"><ele>293.25</ele><time>2026-04-26T12:39:27Z</time></trkpt><trkpt lat="43.98402578705411" lon="11.407571624600125"><ele>292.5</ele><time>2026-04-26T12:39:28Z</time></trkpt><trkpt lat="43.983894051324704" lon="11.407490003981904"><ele>291.75</ele><time>2026-04-26T12:39:29Z</time></trkpt><trkpt lat="43.983765113056904" lon="11.407406967670463"><ele>291.0</ele><time>2026-04-26T12:39:30Z</time></trkpt><trkpt lat="43.98364201186461" lon="11.407327346030383"><ele>291.0</ele><time>2026-04-26T12:39:31Z</time></trkpt><trkpt lat="43.983525835982164" lon="11.407253420315175"><ele>291.0</ele><time>2026-04-26T12:39:32Z</time></trkpt><trkpt lat="43.98341165301547" lon="11.407183961800921"><ele>291.0</ele><time>2026-04-26T12:39:33Z</time></trkpt><trkpt lat="43.98330107010244" lon="11.407115640788252"><ele>291.0</ele><time>2026-04-26T12:39:34Z</time></trkpt><trkpt lat="43.98319794641088" lon="11.407048356901363"><ele>290.8</ele><time>2026-04-26T12:39:35Z</time></trkpt><trkpt lat="43.98309568179524" lon="11.406987230411216"><ele>290.6</ele><time>2026-04-26T12:39:36Z</time></trkpt><trkpt lat="43.98299341504722" lon="11.406942148041937"><ele>290.4</ele><time>2026-04-26T12:39:37Z</time></trkpt><trkpt lat="43.982888060077336" lon="11.40692242865302"><ele>290.2</ele><time>2026-04-26T12:39:38Z</time></trkpt><trkpt lat="43.98278098283019" lon="11.406919598229278"><ele>290.0</ele><time>2026-04-26T12:39:39Z</time></trkpt><trkpt lat="43.98267095439203" lon="11.406918724478015"><ele>290.0</ele><time>2026-04-26T12:39:40Z</time></trkpt><trkpt lat="43.982564205812665" lon="11.406911663771096"><ele>290.0</ele><time>2026-04-26T12:39:41Z</time></trkpt><trkpt lat="43.98245877481291" lon="11.406907232104523"><ele>290.0</ele><time>2026-04-26T12:39:42Z</time></trkpt><trkpt lat="43.9823544329631" lon="11.406904282332937"><ele>290.0</ele><time>2026-04-26T12:39:43Z</time></trkpt><trkpt lat="43.982251312418995" lon="11.406897435053288"><ele>290.0</ele><time>2026-04-26T12:39:44Z</time></trkpt><trkpt lat="43.9821502381739" lon="11.406892282655324"><ele>289.8</ele><time>2026-04-26T12:39:45Z</time></trkpt><trkpt lat="43.98204685211416" lon="11.4068902249663"><ele>289.6</ele><time>2026-04-26T12:39:46Z</time></trkpt><trkpt lat="43.98193921183046" lon="11.406883291041057"><ele>289.4</ele><time>2026-04-26T12:39:47Z</time></trkpt><trkpt lat="43.981825324538356" lon="11.4068815321676"><ele>289.2</ele><time>2026-04-26T12:39:48Z</time></trkpt><trkpt lat="43.981713664651785" lon="11.406867413962924"><ele>289.0</ele><time>2026-04-26T12:39:49Z</time></trkpt><trkpt lat="43.981595777411734" lon="11.40686012666098"><ele>288.25</ele><time>2026-04-26T12:39:50Z</time></trkpt><trkpt lat="43.98147284820578" lon="11.406853634046394"><ele>287.5</ele><time>2026-04-26T12:39:51Z</time></trkpt><trkpt lat="43.98134364056864" lon="11.406837694325809"><ele>286.75</ele><time>2026-04-26T12:39:52Z</time></trkpt><trkpt lat="43.98120986244722" lon="11.406819604404108"><ele>286.0</ele><time>2026-04-26T12:39:53Z</time></trkpt><trkpt lat="43.98107274173719" lon="11.406800296219323"><ele>286.0</ele><time>2026-04-26T12:39:54Z</time></trkpt><trkpt lat="43.980932307372285" lon="11.406772669638313"><ele>286.0</ele><time>2026-04-26T12:39:55Z</time></trkpt><trkpt lat="43.98079298559161" lon="11.40675544524989"><ele>286.0</ele><time>2026-04-26T12:39:56Z</time></trkpt><trkpt lat="43.98065236549126" lon="11.406738188984054"><ele>286.0</ele><time>2026-04-26T12:39:57Z</time></trkpt><trkpt lat="43.98051344905265" lon="11.406718410355856"><ele>285.0</ele><time>2026-04-26T12:39:58Z</time></trkpt><trkpt lat="43.98037819878367" lon="11.406700391807169"><ele>284.0</ele><time>2026-04-26T12:39:59Z</time></trkpt><trkpt lat="43.98024573287645" lon="11.406679318671006"><ele>283.0</ele><time>2026-04-26T12:40:00Z</time></trkpt><trkpt lat="43.98011314153682" lon="11.406654111885102"><ele>282.0</ele><time>2026-04-26T12:40:01Z</time></trkpt><trkpt lat="43.97998014864575" lon="11.406622782455994"><ele>281.5</ele><time>2026-04-26T12:40:02Z</time></trkpt><trkpt lat="43.97984642478677" lon="11.406576518742884"><ele>281.0</ele><time>2026-04-26T12:40:03Z</time></trkpt><trkpt lat="43.97971344168376" lon="11.406515788844775"><ele>280.5</ele><time>2026-04-26T12:40:04Z</time></trkpt><trkpt lat="43.97957671667459" lon="11.406450636591357"><ele>280.0</ele><time>2026-04-26T12:40:05Z</time></trkpt><trkpt lat="43.9794436398876" lon="11.406390158152682"><ele>280.0</ele><time>2026-04-26T12:40:06Z</time></trkpt><trkpt lat="43.97931596711361" lon="11.406335430967998"><ele>280.0</ele><time>2026-04-26T12:40:07Z</time></trkpt><trkpt lat="43.979191950207685" lon="11.406283876633244"><ele>280.0</ele><time>2026-04-26T12:40:08Z</time></trkpt><trkpt lat="43.97907248556073" lon="11.406228411897272"><ele>280.0</ele><time>2026-04-26T12:40:09Z</time></trkpt><trkpt lat="43.978946638791555" lon="11.4061686023284"><ele>279.25</ele><time>2026-04-26T12:40:10Z</time></trkpt><trkpt lat="43.978816593150576" lon="11.40610473064445"><ele>278.5</ele><time>2026-04-26T12:40:11Z</time></trkpt><trkpt lat="43.978687673500346" lon="11.40603552506652"><ele>277.75</ele><time>2026-04-26T12:40:12Z</time></trkpt><trkpt lat="43.978567888071105" lon="11.405961673480709"><ele>277.0</ele><time>2026-04-26T12:40:13Z</time></trkpt><trkpt lat="43.97845336174043" lon="11.405896656392345"><ele>276.75</ele><time>2026-04-26T12:40:14Z</time></trkpt><trkpt lat="43.9783423925211" lon="11.40583151043549"><ele>276.5</ele><time>2026-04-26T12:40:15Z</time></trkpt><trkpt lat="43.978234915056554" lon="11.40576559718491"><ele>276.25</ele><time>2026-04-26T12:40:16Z</time></trkpt><trkpt lat="43.97812599298851" lon="11.405699996393203"><ele>276.0</ele><time>2026-04-26T12:40:17Z</time></trkpt><trkpt lat="43.97801814032679" lon="11.405631359419013"><ele>276.0</ele><time>2026-04-26T12:40:18Z</time></trkpt><trkpt lat="43.977910176797614" lon="11.405560492358715"><ele>276.0</ele><time>2026-04-26T12:40:19Z</time></trkpt><trkpt lat="43.97780509155212" lon="11.405476884560994"><ele>276.0</ele><time>2026-04-26T12:40:20Z</time></trkpt><trkpt lat="43.97770116820605" lon="11.405396171426034"><ele>276.0</ele><time>2026-04-26T12:40:21Z</time></trkpt><trkpt lat="43.977600484386976" lon="11.405313098231595"><ele>275.25</ele><time>2026-04-26T12:40:22Z</time></trkpt><trkpt lat="43.97750317850318" lon="11.40522948613161"><ele>274.5</ele><time>2026-04-26T12:40:23Z</time></trkpt><trkpt lat="43.97741125718165" lon="11.405139106570852"><ele>273.75</ele><time>2026-04-26T12:40:24Z</time></trkpt><trkpt lat="43.9773210592168" lon="11.405043657183775"><ele>273.0</ele><time>2026-04-26T12:40:25Z</time></trkpt><trkpt lat="43.9772336694401" lon="11.404941900992952"><ele>273.0</ele><time>2026-04-26T12:40:26Z</time></trkpt><trkpt lat="43.97714820881343" lon="11.404835066242356"><ele>273.0</ele><time>2026-04-26T12:40:27Z</time></trkpt><trkpt lat="43.977066055578184" lon="11.404726513439055"><ele>273.0</ele><time>2026-04-26T12:40:28Z</time></trkpt><trkpt lat="43.97698419684617" lon="11.404618226715787"><ele>273.0</ele><time>2026-04-26T12:40:29Z</time></trkpt><trkpt lat="43.97690689656916" lon="11.404513692975685"><ele>273.0</ele><time>2026-04-26T12:40:30Z</time></trkpt><trkpt lat="43.97682955720605" lon="11.404412233320208"><ele>272.8</ele><time>2026-04-26T12:40:31Z</time></trkpt><trkpt lat="43.97675231377091" lon="11.404316296805181"><ele>272.6</ele><time>2026-04-26T12:40:32Z</time></trkpt><trkpt lat="43.97667550560135" lon="11.404218047420247"><ele>272.4</ele><time>2026-04-26T12:40:33Z</time></trkpt><trkpt lat="43.97660166485938" lon="11.404111768604983"><ele>272.2</ele><time>2026-04-26T12:40:34Z</time></trkpt><trkpt lat="43.976526711091076" lon="11.4040058189892"><ele>272.0</ele><time>2026-04-26T12:40:35Z</time></trkpt><trkpt lat="43.9764505317575" lon="11.403908141310014"><ele>271.4</ele><time>2026-04-26T12:40:36Z</time></trkpt><trkpt lat="43.97637344775858" lon="11.403818366914841"><ele>270.79999999999995</ele><time>2026-04-26T12:40:36.999Z</time></trkpt><trkpt lat="43.97629537286574" lon="11.403738057440648"><ele>270.2</ele><time>2026-04-26T12:40:37.999Z</time></trkpt><trkpt lat="43.976211917811426" lon="11.403666742002084"><ele>269.59999999999997</ele><time>2026-04-26T12:40:38.999Z</time></trkpt><trkpt lat="43.97612406191304" lon="11.403619008394358"><ele>269.0</ele><time>2026-04-26T12:40:39.999Z</time></trkpt><trkpt lat="43.976049150626" lon="11.403577554773427"><ele>269.0</ele><time>2026-04-26T12:40:40.999Z</time></trkpt><trkpt lat="43.97598457591971" lon="11.40354974530667"><ele>269.0</ele><time>2026-04-26T12:40:41.999Z</time></trkpt><trkpt lat="43.975897074056284" lon="11.403459403342236"><ele>269.0</ele><time>2026-04-26T12:40:43.999Z</time></trkpt><trkpt lat="43.97590014615335" lon="11.403295931170055"><ele>269.0</ele><time>2026-04-26T12:40:45.999Z</time></trkpt><trkpt lat="43.97587887170918" lon="11.403191302642854"><ele>269.0</ele><time>2026-04-26T12:40:46.999Z</time></trkpt><trkpt lat="43.97586987232164" lon="11.403072205572505"><ele>269.0</ele><time>2026-04-26T12:40:47.999Z</time></trkpt><trkpt lat="43.975852579204535" lon="11.40293239695966"><ele>269.0</ele><time>2026-04-26T12:40:48.999Z</time></trkpt><trkpt lat="43.97584281062277" lon="11.402766504172146"><ele>269.0</ele><time>2026-04-26T12:40:49.999Z</time></trkpt><trkpt lat="43.975836007328304" lon="11.402597640064558"><ele>269.0</ele><time>2026-04-26T12:40:50.999Z</time></trkpt><trkpt lat="43.975808220655125" lon="11.402412453739045"><ele>269.0</ele><time>2026-04-26T12:40:51.999Z</time></trkpt><trkpt lat="43.975785460431524" lon="11.40220830153842"><ele>269.0</ele><time>2026-04-26T12:40:52.999Z</time></trkpt><trkpt lat="43.975771090245324" lon="11.402017005000895"><ele>269.0</ele><time>2026-04-26T12:40:53.999Z</time></trkpt><trkpt lat="43.97575374690145" lon="11.401820519531476"><ele>269.0</ele><time>2026-04-26T12:40:54.999Z</time></trkpt><trkpt lat="43.97573964939503" lon="11.401623523038078"><ele>269.0</ele><time>2026-04-26T12:40:55.999Z</time></trkpt><trkpt lat="43.975724515343586" lon="11.401424593522288"><ele>269.0</ele><time>2026-04-26T12:40:56.999Z</time></trkpt><trkpt lat="43.97571021676635" lon="11.401233364994015"><ele>269.0</ele><time>2026-04-26T12:40:57.999Z</time></trkpt><trkpt lat="43.975693599297166" lon="11.40103998095321"><ele>269.0</ele><time>2026-04-26T12:40:58.999Z</time></trkpt><trkpt lat="43.97567592561796" lon="11.400842843814562"><ele>269.0</ele><time>2026-04-26T12:40:59.999Z</time></trkpt><trkpt lat="43.97565601832535" lon="11.400641579550859"><ele>269.0</ele><time>2026-04-26T12:41:00.999Z</time></trkpt><trkpt lat="43.97564034239758" lon="11.40044231638975"><ele>269.0</ele><time>2026-04-26T12:41:01.999Z</time></trkpt><trkpt lat="43.97562453650874" lon="11.400241570755977"><ele>269.0</ele><time>2026-04-26T12:41:02.999Z</time></trkpt><trkpt lat="43.97560592045289" lon="11.400040954756307"><ele>269.25</ele><time>2026-04-26T12:41:03.999Z</time></trkpt><trkpt lat="43.975593101547915" lon="11.399838797195073"><ele>269.5</ele><time>2026-04-26T12:41:05Z</time></trkpt><trkpt lat="43.97556991647673" lon="11.399640488237496"><ele>269.75</ele><time>2026-04-26T12:41:06Z</time></trkpt><trkpt lat="43.97555997866276" lon="11.399448498821625"><ele>270.0</ele><time>2026-04-26T12:41:07Z</time></trkpt><trkpt lat="43.97554422119488" lon="11.39926615495878"><ele>269.5</ele><time>2026-04-26T12:41:08Z</time></trkpt><trkpt lat="43.975530695635015" lon="11.399088201685606"><ele>269.0</ele><time>2026-04-26T12:41:09Z</time></trkpt><trkpt lat="43.97551336825766" lon="11.398925983939241"><ele>268.5</ele><time>2026-04-26T12:41:10Z</time></trkpt><trkpt lat="43.97549919918321" lon="11.398764142030023"><ele>268.0</ele><time>2026-04-26T12:41:11Z</time></trkpt><trkpt lat="43.9754876594669" lon="11.39861526329487"><ele>268.0</ele><time>2026-04-26T12:41:12Z</time></trkpt><trkpt lat="43.97548565768531" lon="11.398489176898499"><ele>268.0</ele><time>2026-04-26T12:41:13Z</time></trkpt><trkpt lat="43.97550315134216" lon="11.398377780410755"><ele>268.0</ele><time>2026-04-26T12:41:14Z</time></trkpt><trkpt lat="43.97556387335944" lon="11.398281666119209"><ele>268.0</ele><time>2026-04-26T12:41:15Z</time></trkpt><trkpt lat="43.975617369646216" lon="11.398176435492068"><ele>268.0</ele><time>2026-04-26T12:41:16Z</time></trkpt><trkpt lat="43.97565507645297" lon="11.398045616122335"><ele>268.0</ele><time>2026-04-26T12:41:17Z</time></trkpt><trkpt lat="43.97567682114258" lon="11.397918305168995"><ele>268.0</ele><time>2026-04-26T12:41:18Z</time></trkpt><trkpt lat="43.97569228314143" lon="11.39779462382256"><ele>268.0</ele><time>2026-04-26T12:41:19Z</time></trkpt><trkpt lat="43.975656578258736" lon="11.397673875411904"><ele>268.0</ele><time>2026-04-26T12:41:20Z</time></trkpt><trkpt lat="43.97563343136376" lon="11.397566057174373"><ele>268.0</ele><time>2026-04-26T12:41:21Z</time></trkpt><trkpt lat="43.975610100198814" lon="11.397476526590518"><ele>268.0</ele><time>2026-04-26T12:41:22Z</time></trkpt><trkpt lat="43.97558260908531" lon="11.397328610285207"><ele>268.0</ele><time>2026-04-26T12:41:23Z</time></trkpt><trkpt lat="43.975531710165" lon="11.39725938495713"><ele>268.0</ele><time>2026-04-26T12:41:24Z</time></trkpt><trkpt lat="43.975440353910386" lon="11.397200875914583"><ele>268.0</ele><time>2026-04-26T12:41:26Z</time></trkpt><trkpt lat="43.975378806271074" lon="11.397117071614383"><ele>268.0</ele><time>2026-04-26T12:41:28Z</time></trkpt><trkpt lat="43.975401586873296" lon="11.397019425778456"><ele>268.0</ele><time>2026-04-26T12:41:30Z</time></trkpt><trkpt lat="43.97548350009602" lon="11.396877710478714"><ele>266.5</ele><time>2026-04-26T12:41:32Z</time></trkpt><trkpt lat="43.97559048249831" lon="11.396903153073056"><ele>265.0</ele><time>2026-04-26T12:41:33Z</time></trkpt><trkpt lat="43.97565588484776" lon="11.396830547092945"><ele>263.5</ele><time>2026-04-26T12:41:34Z</time></trkpt><trkpt lat="43.9757167976091" lon="11.396860162657108"><ele>262.0</ele><time>2026-04-26T12:41:35Z</time></trkpt><trkpt lat="43.97577847655192" lon="11.396840611592198"><ele>260.5</ele><time>2026-04-26T12:41:36Z</time></trkpt><trkpt lat="43.975838982639985" lon="11.396779148646505"><ele>259.0</ele><time>2026-04-26T12:41:36.999Z</time></trkpt><trkpt lat="43.9759002074579" lon="11.396701579808484"><ele>258.66666666666663</ele><time>2026-04-26T12:41:37.999Z</time></trkpt><trkpt lat="43.97593907403704" lon="11.396590178930262"><ele>258.3333333333333</ele><time>2026-04-26T12:41:38.999Z</time></trkpt><trkpt lat="43.975945682300356" lon="11.396462232582785"><ele>258.0</ele><time>2026-04-26T12:41:39.999Z</time></trkpt><trkpt lat="43.975968476950214" lon="11.396345594897975"><ele>257.6666666666667</ele><time>2026-04-26T12:41:40.999Z</time></trkpt><trkpt lat="43.97599502617074" lon="11.396250866484996"><ele>257.33333333333337</ele><time>2026-04-26T12:41:41.999Z</time></trkpt><trkpt lat="43.97604902001393" lon="11.39617576153674"><ele>257.0</ele><time>2026-04-26T12:41:42.999Z</time></trkpt><trkpt lat="43.97610270483308" lon="11.396097179702686"><ele>254.2</ele><time>2026-04-26T12:41:43.999Z</time></trkpt><trkpt lat="43.97618112473023" lon="11.396041308613722"><ele>251.39999999999998</ele><time>2026-04-26T12:41:44.999Z</time></trkpt><trkpt lat="43.97627887438788" lon="11.395972802228746"><ele>248.60000000000002</ele><time>2026-04-26T12:41:45.999Z</time></trkpt><trkpt lat="43.976364475880835" lon="11.39590999035101"><ele>245.8</ele><time>2026-04-26T12:41:46.999Z</time></trkpt><trkpt lat="43.97643451816984" lon="11.395843721235892"><ele>243.0</ele><time>2026-04-26T12:41:47.999Z</time></trkpt><trkpt lat="43.97649113952416" lon="11.395749432790298"><ele>243.0</ele><time>2026-04-26T12:41:48.999Z</time></trkpt><trkpt lat="43.97649338439534" lon="11.395602171479993"><ele>243.0</ele><time>2026-04-26T12:41:49.999Z</time></trkpt><trkpt lat="43.97653666274732" lon="11.395475177834875"><ele>243.0</ele><time>2026-04-26T12:41:50.999Z</time></trkpt><trkpt lat="43.97656702376582" lon="11.395329370340837"><ele>243.0</ele><time>2026-04-26T12:41:51.999Z</time></trkpt><trkpt lat="43.976596186643604" lon="11.395180236117605"><ele>243.0</ele><time>2026-04-26T12:41:52.999Z</time></trkpt><trkpt lat="43.976617977369635" lon="11.395024976710056"><ele>241.0</ele><time>2026-04-26T12:41:53.999Z</time></trkpt><trkpt lat="43.976631053502466" lon="11.394858458633136"><ele>239.0</ele><time>2026-04-26T12:41:54.999Z</time></trkpt><trkpt lat="43.97666321524232" lon="11.394689115853097"><ele>237.0</ele><time>2026-04-26T12:41:55.999Z</time></trkpt><trkpt lat="43.97669693740351" lon="11.394516210585588"><ele>235.0</ele><time>2026-04-26T12:41:56.999Z</time></trkpt><trkpt lat="43.97674518618516" lon="11.39435872027764"><ele>233.4</ele><time>2026-04-26T12:41:57.999Z</time></trkpt><trkpt lat="43.97677540135357" lon="11.394213003622887"><ele>231.8</ele><time>2026-04-26T12:41:58.999Z</time></trkpt><trkpt lat="43.976809056839414" lon="11.394093524281567"><ele>230.2</ele><time>2026-04-26T12:41:59.999Z</time></trkpt><trkpt lat="43.976853202857285" lon="11.394004028116468"><ele>228.6</ele><time>2026-04-26T12:42:00.999Z</time></trkpt><trkpt lat="43.97692219988589" lon="11.39394016475523"><ele>227.0</ele><time>2026-04-26T12:42:01.999Z</time></trkpt><trkpt lat="43.97701639096463" lon="11.393923597379102"><ele>227.0</ele><time>2026-04-26T12:42:02.999Z</time></trkpt><trkpt lat="43.977124547632584" lon="11.393915078102973"><ele>227.0</ele><time>2026-04-26T12:42:03.999Z</time></trkpt><trkpt lat="43.977244554033895" lon="11.393896468241808"><ele>227.0</ele><time>2026-04-26T12:42:04.999Z</time></trkpt><trkpt lat="43.97736577087192" lon="11.393855600805837"><ele>227.0</ele><time>2026-04-26T12:42:05.999Z</time></trkpt><trkpt lat="43.97748155220334" lon="11.393753752043343"><ele>227.25</ele><time>2026-04-26T12:42:06.999Z</time></trkpt><trkpt lat="43.977598736663815" lon="11.393645422924816"><ele>227.5</ele><time>2026-04-26T12:42:07.999Z</time></trkpt><trkpt lat="43.97772490438805" lon="11.393554212715829"><ele>227.75</ele><time>2026-04-26T12:42:08.999Z</time></trkpt><trkpt lat="43.97785087036173" lon="11.393442374464364"><ele>228.0</ele><time>2026-04-26T12:42:09.999Z</time></trkpt><trkpt lat="43.97797199345072" lon="11.393313536536631"><ele>228.0</ele><time>2026-04-26T12:42:10.999Z</time></trkpt><trkpt lat="43.97808126784949" lon="11.393165528411771"><ele>228.0</ele><time>2026-04-26T12:42:11.999Z</time></trkpt><trkpt lat="43.97817631575551" lon="11.393021636283413"><ele>228.0</ele><time>2026-04-26T12:42:12.999Z</time></trkpt><trkpt lat="43.97827768696293" lon="11.39289754803229"><ele>228.0</ele><time>2026-04-26T12:42:13.999Z</time></trkpt><trkpt lat="43.97838712931667" lon="11.392786709262827"><ele>230.25</ele><time>2026-04-26T12:42:14.999Z</time></trkpt><trkpt lat="43.97849880207491" lon="11.39267611271066"><ele>232.5</ele><time>2026-04-26T12:42:15.999Z</time></trkpt><trkpt lat="43.97861944747212" lon="11.392574481188587"><ele>234.75</ele><time>2026-04-26T12:42:16.999Z</time></trkpt><trkpt lat="43.97874481757959" lon="11.39247734111348"><ele>237.0</ele><time>2026-04-26T12:42:17.999Z</time></trkpt><trkpt lat="43.97886870421695" lon="11.392388445218383"><ele>237.0</ele><time>2026-04-26T12:42:18.999Z</time></trkpt><trkpt lat="43.97898450935118" lon="11.392310161060086"><ele>237.0</ele><time>2026-04-26T12:42:19.999Z</time></trkpt><trkpt lat="43.97908614503542" lon="11.392250743937257"><ele>237.0</ele><time>2026-04-26T12:42:20.999Z</time></trkpt><trkpt lat="43.97920726589463" lon="11.392184863994634"><ele>237.0</ele><time>2026-04-26T12:42:21.999Z</time></trkpt><trkpt lat="43.97932376656466" lon="11.392127489334438"><ele>238.0</ele><time>2026-04-26T12:42:22.999Z</time></trkpt><trkpt lat="43.979432505631316" lon="11.392089106189779"><ele>239.0</ele><time>2026-04-26T12:42:23.999Z</time></trkpt><trkpt lat="43.97954013403456" lon="11.39207378327932"><ele>240.0</ele><time>2026-04-26T12:42:24.999Z</time></trkpt><trkpt lat="43.97965285890836" lon="11.392078897915317"><ele>241.0</ele><time>2026-04-26T12:42:25.999Z</time></trkpt><trkpt lat="43.97977682957668" lon="11.392094257839897"><ele>241.0</ele><time>2026-04-26T12:42:26.999Z</time></trkpt><trkpt lat="43.97990704377797" lon="11.392115713114858"><ele>241.0</ele><time>2026-04-26T12:42:27.999Z</time></trkpt><trkpt lat="43.980041209974196" lon="11.392144040111862"><ele>241.0</ele><time>2026-04-26T12:42:28.999Z</time></trkpt><trkpt lat="43.980174417744855" lon="11.39217189691273"><ele>241.0</ele><time>2026-04-26T12:42:29.999Z</time></trkpt><trkpt lat="43.98029628786847" lon="11.392200545114697"><ele>242.0</ele><time>2026-04-26T12:42:30.999Z</time></trkpt><trkpt lat="43.980410633366965" lon="11.39223931274989"><ele>243.00000000000003</ele><time>2026-04-26T12:42:31.999Z</time></trkpt><trkpt lat="43.98051610389982" lon="11.392288251879197"><ele>244.00000000000003</ele><time>2026-04-26T12:42:32.999Z</time></trkpt><trkpt lat="43.98062103982857" lon="11.392339770549029"><ele>245.0</ele><time>2026-04-26T12:42:33.999Z</time></trkpt><trkpt lat="43.98071687262252" lon="11.392386820087896"><ele>246.0</ele><time>2026-04-26T12:42:34.999Z</time></trkpt><trkpt lat="43.98080540766247" lon="11.392434218983393"><ele>247.83333333333334</ele><time>2026-04-26T12:42:35.999Z</time></trkpt><trkpt lat="43.98088888600728" lon="11.392478194356533"><ele>249.66666666666669</ele><time>2026-04-26T12:42:36.999Z</time></trkpt><trkpt lat="43.98095365598666" lon="11.392510874630455"><ele>251.5</ele><time>2026-04-26T12:42:37.999Z</time></trkpt><trkpt lat="43.98106058815735" lon="11.392515748149833"><ele>253.33333333333334</ele><time>2026-04-26T12:42:39.999Z</time></trkpt><trkpt lat="43.981104424855914" lon="11.392448147905563"><ele>255.16666666666669</ele><time>2026-04-26T12:42:40.999Z</time></trkpt><trkpt lat="43.98112084097605" lon="11.392347414008674"><ele>257.0</ele><time>2026-04-26T12:42:41.999Z</time></trkpt><trkpt lat="43.98114078275519" lon="11.392248313596486"><ele>257.6666666666667</ele><time>2026-04-26T12:42:42.999Z</time></trkpt><trkpt lat="43.98116030717078" lon="11.392143896504345"><ele>258.33333333333337</ele><time>2026-04-26T12:42:43.999Z</time></trkpt><trkpt lat="43.98118089606528" lon="11.392033786868515"><ele>259.0</ele><time>2026-04-26T12:42:44.999Z</time></trkpt><trkpt lat="43.98120403725873" lon="11.391915945582047"><ele>259.6666666666667</ele><time>2026-04-26T12:42:45.999Z</time></trkpt><trkpt lat="43.98123053599252" lon="11.391806583714168"><ele>260.3333333333333</ele><time>2026-04-26T12:42:46.999Z</time></trkpt><trkpt lat="43.981260529077026" lon="11.391700847344127"><ele>261.0</ele><time>2026-04-26T12:42:47.999Z</time></trkpt><trkpt lat="43.981295594947696" lon="11.391608624329638"><ele>261.0</ele><time>2026-04-26T12:42:48.999Z</time></trkpt><trkpt lat="43.98133571442224" lon="11.391532538444247"><ele>261.0</ele><time>2026-04-26T12:42:49.999Z</time></trkpt><trkpt lat="43.98139160666597" lon="11.391472076595804"><ele>261.0</ele><time>2026-04-26T12:42:50.999Z</time></trkpt><trkpt lat="43.98146516618912" lon="11.39145199623911"><ele>261.0</ele><time>2026-04-26T12:42:51.999Z</time></trkpt><trkpt lat="43.98154355541926" lon="11.391403692541525"><ele>261.0</ele><time>2026-04-26T12:42:52.999Z</time></trkpt><trkpt lat="43.98160438913842" lon="11.391308905039018"><ele>261.0</ele><time>2026-04-26T12:42:53.999Z</time></trkpt><trkpt lat="43.98162374699555" lon="11.391169362157033"><ele>262.3333333333333</ele><time>2026-04-26T12:42:54.999Z</time></trkpt><trkpt lat="43.98163113575035" lon="11.391036521369966"><ele>263.6666666666667</ele><time>2026-04-26T12:42:55.999Z</time></trkpt><trkpt lat="43.98164656871313" lon="11.390912539475536"><ele>265.0</ele><time>2026-04-26T12:42:56.999Z</time></trkpt><trkpt lat="43.98166923094238" lon="11.390794825269987"><ele>266.33333333333337</ele><time>2026-04-26T12:42:57.999Z</time></trkpt><trkpt lat="43.9817020072845" lon="11.390680437786719"><ele>267.6666666666667</ele><time>2026-04-26T12:42:58.999Z</time></trkpt><trkpt lat="43.98174016009628" lon="11.39057226092142"><ele>269.0</ele><time>2026-04-26T12:42:59.999Z</time></trkpt><trkpt lat="43.98178285095429" lon="11.390471097874174"><ele>271.6666666666667</ele><time>2026-04-26T12:43:00.999Z</time></trkpt><trkpt lat="43.9818260998076" lon="11.390385538318053"><ele>274.33333333333337</ele><time>2026-04-26T12:43:01.999Z</time></trkpt><trkpt lat="43.98186436291858" lon="11.390315542911717"><ele>277.0</ele><time>2026-04-26T12:43:02.999Z</time></trkpt><trkpt lat="43.98189871794195" lon="11.390226957175067"><ele>279.6666666666667</ele><time>2026-04-26T12:43:04.999Z</time></trkpt><trkpt lat="43.981863615596325" lon="11.39007095282629"><ele>282.3333333333333</ele><time>2026-04-26T12:43:06.999Z</time></trkpt><trkpt lat="43.98183994274069" lon="11.389979444128501"><ele>285.0</ele><time>2026-04-26T12:43:07.999Z</time></trkpt><trkpt lat="43.98182330667841" lon="11.389885439521533"><ele>285.0</ele><time>2026-04-26T12:43:08.999Z</time></trkpt><trkpt lat="43.98182654629485" lon="11.389734553139915"><ele>285.0</ele><time>2026-04-26T12:43:11Z</time></trkpt><trkpt lat="43.98187413511419" lon="11.389628067828925"><ele>285.0</ele><time>2026-04-26T12:43:13Z</time></trkpt><trkpt lat="43.98197116194701" lon="11.389521191117566"><ele>285.0</ele><time>2026-04-26T12:43:15Z</time></trkpt><trkpt lat="43.982041516959725" lon="11.3894777651817"><ele>285.0</ele><time>2026-04-26T12:43:16Z</time></trkpt><trkpt lat="43.982112838633334" lon="11.389402036587251"><ele>285.0</ele><time>2026-04-26T12:43:17Z</time></trkpt><trkpt lat="43.98217254982875" lon="11.38932888381708"><ele>285.0</ele><time>2026-04-26T12:43:18Z</time></trkpt><trkpt lat="43.98221809817763" lon="11.389258792344437"><ele>285.0</ele><time>2026-04-26T12:43:19Z</time></trkpt><trkpt lat="43.982255898929274" lon="11.389133679689536"><ele>285.0</ele><time>2026-04-26T12:43:21Z</time></trkpt><trkpt lat="43.98228555060753" lon="11.389044613110496"><ele>285.0</ele><time>2026-04-26T12:43:28Z</time></trkpt><trkpt lat="43.98215608755307" lon="11.388949768460307"><ele>285.0</ele><time>2026-04-26T12:43:29Z</time></trkpt><trkpt lat="43.98208665204423" lon="11.388901244679598"><ele>285.0</ele><time>2026-04-26T12:43:30Z</time></trkpt><trkpt lat="43.98200663574083" lon="11.38884108363587"><ele>285.0</ele><time>2026-04-26T12:43:31Z</time></trkpt><trkpt lat="43.98191311457494" lon="11.388775996913164"><ele>285.0</ele><time>2026-04-26T12:43:32Z</time></trkpt><trkpt lat="43.98181185668158" lon="11.388691897277457"><ele>285.0</ele><time>2026-04-26T12:43:33Z</time></trkpt><trkpt lat="43.98170159115176" lon="11.388592636802496"><ele>283.6666666666667</ele><time>2026-04-26T12:43:34Z</time></trkpt><trkpt lat="43.98156680195606" lon="11.388492795509958"><ele>282.33333333333337</ele><time>2026-04-26T12:43:35Z</time></trkpt><trkpt lat="43.98143297359656" lon="11.38838761244832"><ele>281.0</ele><time>2026-04-26T12:43:36Z</time></trkpt><trkpt lat="43.98129085277872" lon="11.388277239854762"><ele>281.0</ele><time>2026-04-26T12:43:37Z</time></trkpt><trkpt lat="43.98115430216617" lon="11.388160701723818"><ele>281.0</ele><time>2026-04-26T12:43:38Z</time></trkpt><trkpt lat="43.98101959995471" lon="11.388052050413325"><ele>281.0</ele><time>2026-04-26T12:43:39Z</time></trkpt><trkpt lat="43.98089748248569" lon="11.387951920676086"><ele>279.5</ele><time>2026-04-26T12:43:40Z</time></trkpt><trkpt lat="43.980772097280365" lon="11.387858513388727"><ele>278.0</ele><time>2026-04-26T12:43:41Z</time></trkpt><trkpt lat="43.98065158350763" lon="11.387761806642478"><ele>276.5</ele><time>2026-04-26T12:43:42Z</time></trkpt><trkpt lat="43.98053258515047" lon="11.387671368879442"><ele>275.0</ele><time>2026-04-26T12:43:43Z</time></trkpt><trkpt lat="43.980424481804256" lon="11.387561598044242"><ele>275.0</ele><time>2026-04-26T12:43:43.999Z</time></trkpt><trkpt lat="43.980308921242205" lon="11.387472494135638"><ele>275.0</ele><time>2026-04-26T12:43:44.999Z</time></trkpt><trkpt lat="43.98019479337149" lon="11.387390327231925"><ele>275.0</ele><time>2026-04-26T12:43:45.999Z</time></trkpt><trkpt lat="43.98007833521473" lon="11.38731285843273"><ele>275.0</ele><time>2026-04-26T12:43:46.999Z</time></trkpt><trkpt lat="43.97997014692383" lon="11.387214702494102"><ele>273.5</ele><time>2026-04-26T12:43:47.999Z</time></trkpt><trkpt lat="43.979869521296315" lon="11.387111124829906"><ele>272.0</ele><time>2026-04-26T12:43:48.999Z</time></trkpt><trkpt lat="43.97976034761864" lon="11.3870065511754"><ele>270.5</ele><time>2026-04-26T12:43:49.999Z</time></trkpt><trkpt lat="43.97965280835428" lon="11.386899096836364"><ele>269.0</ele><time>2026-04-26T12:43:50.999Z</time></trkpt><trkpt lat="43.97955447560215" lon="11.386762937679096"><ele>269.0</ele><time>2026-04-26T12:43:51.999Z</time></trkpt><trkpt lat="43.97943910879821" lon="11.38665246902802"><ele>269.0</ele><time>2026-04-26T12:43:52.999Z</time></trkpt><trkpt lat="43.97934165913452" lon="11.386512695556576"><ele>269.0</ele><time>2026-04-26T12:43:53.999Z</time></trkpt><trkpt lat="43.97923583421516" lon="11.386379162004268"><ele>269.0</ele><time>2026-04-26T12:43:54.999Z</time></trkpt><trkpt lat="43.97913185446662" lon="11.386239036296471"><ele>267.75</ele><time>2026-04-26T12:43:55.999Z</time></trkpt><trkpt lat="43.97902766221142" lon="11.386090073555948"><ele>266.5</ele><time>2026-04-26T12:43:56.999Z</time></trkpt><trkpt lat="43.97892876334442" lon="11.385932794758425"><ele>265.25</ele><time>2026-04-26T12:43:57.999Z</time></trkpt><trkpt lat="43.9788336879858" lon="11.385773873648343"><ele>264.0</ele><time>2026-04-26T12:43:58.999Z</time></trkpt><trkpt lat="43.97874165258797" lon="11.385613820011503"><ele>261.5</ele><time>2026-04-26T12:43:59.999Z</time></trkpt><trkpt lat="43.97865369499879" lon="11.385459164391541"><ele>259.0</ele><time>2026-04-26T12:44:00.999Z</time></trkpt><trkpt lat="43.97856047072361" lon="11.385305969407094"><ele>256.5</ele><time>2026-04-26T12:44:01.999Z</time></trkpt><trkpt lat="43.978470364602835" lon="11.385151857749824"><ele>254.0</ele><time>2026-04-26T12:44:02.999Z</time></trkpt><trkpt lat="43.978381943705855" lon="11.384998818641261"><ele>253.25</ele><time>2026-04-26T12:44:03.999Z</time></trkpt><trkpt lat="43.978294576295966" lon="11.384846324101822"><ele>252.5</ele><time>2026-04-26T12:44:04.999Z</time></trkpt><trkpt lat="43.978206526783474" lon="11.38469763987144"><ele>251.75</ele><time>2026-04-26T12:44:05.999Z</time></trkpt><trkpt lat="43.978109993143704" lon="11.38455252603685"><ele>251.0</ele><time>2026-04-26T12:44:06.999Z</time></trkpt><trkpt lat="43.97800868493202" lon="11.384410349915887"><ele>251.0</ele><time>2026-04-26T12:44:07.999Z</time></trkpt><trkpt lat="43.97789467920194" lon="11.384276413471047"><ele>251.0</ele><time>2026-04-26T12:44:08.999Z</time></trkpt><trkpt lat="43.9777711192057" lon="11.38415725236683"><ele>251.0</ele><time>2026-04-26T12:44:09.999Z</time></trkpt><trkpt lat="43.97763758468356" lon="11.384054221390281"><ele>253.0</ele><time>2026-04-26T12:44:10.999Z</time></trkpt><trkpt lat="43.977492251285895" lon="11.383967484751011"><ele>255.0</ele><time>2026-04-26T12:44:11.999Z</time></trkpt><trkpt lat="43.97734714092127" lon="11.38390791118072"><ele>257.0</ele><time>2026-04-26T12:44:12.999Z</time></trkpt><trkpt lat="43.977195309454196" lon="11.383855355911903"><ele>254.0</ele><time>2026-04-26T12:44:13.999Z</time></trkpt><trkpt lat="43.977038442594115" lon="11.383795795216379"><ele>251.0</ele><time>2026-04-26T12:44:14.999Z</time></trkpt><trkpt lat="43.97687315848905" lon="11.383731003010352"><ele>248.0</ele><time>2026-04-26T12:44:15.999Z</time></trkpt><trkpt lat="43.976698275187076" lon="11.383663844327858"><ele>249.0</ele><time>2026-04-26T12:44:16.999Z</time></trkpt><trkpt lat="43.976524170152196" lon="11.38357331102852"><ele>250.0</ele><time>2026-04-26T12:44:17.999Z</time></trkpt><trkpt lat="43.97633673631269" lon="11.383524912101933"><ele>251.0</ele><time>2026-04-26T12:44:18.999Z</time></trkpt><trkpt lat="43.976154812069346" lon="11.383432641775805"><ele>251.0</ele><time>2026-04-26T12:44:19.999Z</time></trkpt><trkpt lat="43.97595807189369" lon="11.38338983906683"><ele>251.0</ele><time>2026-04-26T12:44:20.999Z</time></trkpt><trkpt lat="43.9757589724671" lon="11.383324811387034"><ele>251.0</ele><time>2026-04-26T12:44:21.999Z</time></trkpt><trkpt lat="43.97555363330527" lon="11.383260699213913"><ele>250.0</ele><time>2026-04-26T12:44:22.999Z</time></trkpt><trkpt lat="43.975344087910784" lon="11.383197959296838"><ele>249.0</ele><time>2026-04-26T12:44:23.999Z</time></trkpt><trkpt lat="43.97513336675009" lon="11.383131599577641"><ele>248.0</ele><time>2026-04-26T12:44:24.999Z</time></trkpt><trkpt lat="43.97492128271783" lon="11.38306649788139"><ele>246.0</ele><time>2026-04-26T12:44:25.999Z</time></trkpt><trkpt lat="43.974709014623905" lon="11.383000646692704"><ele>244.0</ele><time>2026-04-26T12:44:26.999Z</time></trkpt><trkpt lat="43.97450337831696" lon="11.382936265887203"><ele>242.0</ele><time>2026-04-26T12:44:27.999Z</time></trkpt><trkpt lat="43.97429922897245" lon="11.38287311004263"><ele>243.0</ele><time>2026-04-26T12:44:28.999Z</time></trkpt><trkpt lat="43.97410725239656" lon="11.382818343118107"><ele>244.0</ele><time>2026-04-26T12:44:29.999Z</time></trkpt><trkpt lat="43.97392875844878" lon="11.382769552944817"><ele>245.0</ele><time>2026-04-26T12:44:30.999Z</time></trkpt><trkpt lat="43.973763457521486" lon="11.382718784583387"><ele>245.0</ele><time>2026-04-26T12:44:31.999Z</time></trkpt><trkpt lat="43.97360821254931" lon="11.382665528852781"><ele>245.0</ele><time>2026-04-26T12:44:32.999Z</time></trkpt><trkpt lat="43.9734628451605" lon="11.382603906319494"><ele>245.0</ele><time>2026-04-26T12:44:33.999Z</time></trkpt><trkpt lat="43.97332491160131" lon="11.382530194750927"><ele>247.0</ele><time>2026-04-26T12:44:34.999Z</time></trkpt><trkpt lat="43.97319148401959" lon="11.382422182736075"><ele>249.0</ele><time>2026-04-26T12:44:35.999Z</time></trkpt><trkpt lat="43.97303670438676" lon="11.3823404898466"><ele>251.0</ele><time>2026-04-26T12:44:36.999Z</time></trkpt><trkpt lat="43.97288909403799" lon="11.382210589298538"><ele>250.33333333333334</ele><time>2026-04-26T12:44:37.999Z</time></trkpt><trkpt lat="43.972726181552936" lon="11.382101394192095"><ele>249.66666666666669</ele><time>2026-04-26T12:44:38.999Z</time></trkpt><trkpt lat="43.97255179297534" lon="11.382002408101211"><ele>249.0</ele><time>2026-04-26T12:44:39.999Z</time></trkpt><trkpt lat="43.972367569400966" lon="11.381921807064924"><ele>249.0</ele><time>2026-04-26T12:44:40.999Z</time></trkpt><trkpt lat="43.97218078778307" lon="11.381850999108794"><ele>249.0</ele><time>2026-04-26T12:44:41.999Z</time></trkpt><trkpt lat="43.97198988406198" lon="11.38179297645339"><ele>249.0</ele><time>2026-04-26T12:44:42.999Z</time></trkpt><trkpt lat="43.97180274264379" lon="11.38173953772653"><ele>248.33333333333331</ele><time>2026-04-26T12:44:43.999Z</time></trkpt><trkpt lat="43.97161099319011" lon="11.381685447494663"><ele>247.66666666666666</ele><time>2026-04-26T12:44:44.999Z</time></trkpt><trkpt lat="43.971417976259225" lon="11.3816384534238"><ele>247.0</ele><time>2026-04-26T12:44:45.999Z</time></trkpt><trkpt lat="43.97122482958194" lon="11.381598217435942"><ele>247.0</ele><time>2026-04-26T12:44:46.999Z</time></trkpt><trkpt lat="43.97103076552878" lon="11.381577457049245"><ele>247.0</ele><time>2026-04-26T12:44:47.999Z</time></trkpt><trkpt lat="43.97084036528785" lon="11.381541365169523"><ele>247.0</ele><time>2026-04-26T12:44:48.999Z</time></trkpt><trkpt lat="43.9706526414065" lon="11.381492215047011"><ele>246.0</ele><time>2026-04-26T12:44:49.999Z</time></trkpt><trkpt lat="43.970465528422515" lon="11.381466401373627"><ele>245.0</ele><time>2026-04-26T12:44:50.999Z</time></trkpt><trkpt lat="43.97028040697163" lon="11.381445750375967"><ele>244.0</ele><time>2026-04-26T12:44:51.999Z</time></trkpt><trkpt lat="43.97009287393549" lon="11.381437023589537"><ele>243.66666666666666</ele><time>2026-04-26T12:44:52.999Z</time></trkpt><trkpt lat="43.96990559099565" lon="11.381409877243827"><ele>243.33333333333331</ele><time>2026-04-26T12:44:53.999Z</time></trkpt><trkpt lat="43.96972361076676" lon="11.381362492522392"><ele>243.0</ele><time>2026-04-26T12:44:54.999Z</time></trkpt><trkpt lat="43.96953994715162" lon="11.38133155009118"><ele>243.0</ele><time>2026-04-26T12:44:55.999Z</time></trkpt><trkpt lat="43.969361318477986" lon="11.381291268345775"><ele>243.0</ele><time>2026-04-26T12:44:56.999Z</time></trkpt><trkpt lat="43.96919228993182" lon="11.381241746524951"><ele>243.0</ele><time>2026-04-26T12:44:57.999Z</time></trkpt><trkpt lat="43.969037997422575" lon="11.381193422017079"><ele>243.0</ele><time>2026-04-26T12:44:58.999Z</time></trkpt><trkpt lat="43.96887856961981" lon="11.381142277091056"><ele>243.0</ele><time>2026-04-26T12:44:59.999Z</time></trkpt><trkpt lat="43.96873727228458" lon="11.381096948466574"><ele>243.0</ele><time>2026-04-26T12:45:00.999Z</time></trkpt><trkpt lat="43.96859262934539" lon="11.38104958725084"><ele>243.0</ele><time>2026-04-26T12:45:01.999Z</time></trkpt><trkpt lat="43.96844719651201" lon="11.380994867504663"><ele>243.0</ele><time>2026-04-26T12:45:02.999Z</time></trkpt><trkpt lat="43.968299355309234" lon="11.38095069978944"><ele>243.0</ele><time>2026-04-26T12:45:03.999Z</time></trkpt><trkpt lat="43.96817184240598" lon="11.380857955795996"><ele>243.0</ele><time>2026-04-26T12:45:04.999Z</time></trkpt><trkpt lat="43.96804746980918" lon="11.380779768137092"><ele>244.0</ele><time>2026-04-26T12:45:05.999Z</time></trkpt><trkpt lat="43.96792045345824" lon="11.380705511983551"><ele>245.0</ele><time>2026-04-26T12:45:06.999Z</time></trkpt><trkpt lat="43.96779211691776" lon="11.38067065573857"><ele>246.0</ele><time>2026-04-26T12:45:07.999Z</time></trkpt><trkpt lat="43.96766478224095" lon="11.380639919238396"><ele>247.0</ele><time>2026-04-26T12:45:08.999Z</time></trkpt><trkpt lat="43.96754415904116" lon="11.380636366502813"><ele>246.8</ele><time>2026-04-26T12:45:09.999Z</time></trkpt><trkpt lat="43.96743883081761" lon="11.380646238012067"><ele>246.6</ele><time>2026-04-26T12:45:10.999Z</time></trkpt><trkpt lat="43.96733576983032" lon="11.380680498556362"><ele>246.40000000000003</ele><time>2026-04-26T12:45:11.999Z</time></trkpt><trkpt lat="43.96723219574009" lon="11.38070862294618"><ele>246.20000000000002</ele><time>2026-04-26T12:45:12.999Z</time></trkpt><trkpt lat="43.96712973453825" lon="11.380746112037313"><ele>246.0</ele><time>2026-04-26T12:45:13.999Z</time></trkpt><trkpt lat="43.967028245115955" lon="11.380765946411405"><ele>246.0</ele><time>2026-04-26T12:45:14.999Z</time></trkpt><trkpt lat="43.9669243582091" lon="11.380786183208164"><ele>246.00000000000003</ele><time>2026-04-26T12:45:15.999Z</time></trkpt><trkpt lat="43.966811685568665" lon="11.380798474679622"><ele>246.00000000000003</ele><time>2026-04-26T12:45:17Z</time></trkpt><trkpt lat="43.966700386478294" lon="11.380796795747735"><ele>246.0</ele><time>2026-04-26T12:45:18Z</time></trkpt><trkpt lat="43.96658637274663" lon="11.380792954422068"><ele>246.0</ele><time>2026-04-26T12:45:19Z</time></trkpt><trkpt lat="43.966464987898476" lon="11.380788864752645"><ele>245.5</ele><time>2026-04-26T12:45:20Z</time></trkpt><trkpt lat="43.966348558936694" lon="11.38078344363487"><ele>245.0</ele><time>2026-04-26T12:45:21Z</time></trkpt><trkpt lat="43.966232173567704" lon="11.380777695148597"><ele>244.5</ele><time>2026-04-26T12:45:22Z</time></trkpt><trkpt lat="43.96612032023484" lon="11.380773838044732"><ele>244.0</ele><time>2026-04-26T12:45:23Z</time></trkpt><trkpt lat="43.96600834741919" lon="11.380792642136326"><ele>244.0</ele><time>2026-04-26T12:45:24Z</time></trkpt><trkpt lat="43.96588712865576" lon="11.380797423646012"><ele>244.0</ele><time>2026-04-26T12:45:25Z</time></trkpt><trkpt lat="43.96574508536599" lon="11.380805070461173"><ele>244.0</ele><time>2026-04-26T12:45:26Z</time></trkpt><trkpt lat="43.965592878763324" lon="11.380831177449997"><ele>244.0</ele><time>2026-04-26T12:45:27Z</time></trkpt><trkpt lat="43.96543393198821" lon="11.380859626681476"><ele>242.33333333333331</ele><time>2026-04-26T12:45:28Z</time></trkpt><trkpt lat="43.96526990815931" lon="11.380885983203953"><ele>240.66666666666669</ele><time>2026-04-26T12:45:29Z</time></trkpt><trkpt lat="43.965098294650986" lon="11.380912114687261"><ele>239.0</ele><time>2026-04-26T12:45:30Z</time></trkpt><trkpt lat="43.964928156094345" lon="11.380957959279833"><ele>238.66666666666669</ele><time>2026-04-26T12:45:31Z</time></trkpt><trkpt lat="43.96475624482598" lon="11.380995315118623"><ele>238.33333333333331</ele><time>2026-04-26T12:45:32Z</time></trkpt><trkpt lat="43.96458654371418" lon="11.381062894500683"><ele>238.0</ele><time>2026-04-26T12:45:33Z</time></trkpt><trkpt lat="43.96442321508287" lon="11.381134536779832"><ele>238.0</ele><time>2026-04-26T12:45:34Z</time></trkpt><trkpt lat="43.96427053762117" lon="11.381217464548035"><ele>238.0</ele><time>2026-04-26T12:45:35Z</time></trkpt><trkpt lat="43.964121515996766" lon="11.381295340565885"><ele>238.0</ele><time>2026-04-26T12:45:36Z</time></trkpt><trkpt lat="43.9639754268204" lon="11.381371520325015"><ele>235.66666666666666</ele><time>2026-04-26T12:45:37Z</time></trkpt><trkpt lat="43.96382918609929" lon="11.381437268841582"><ele>233.33333333333331</ele><time>2026-04-26T12:45:38Z</time></trkpt><trkpt lat="43.96367845039814" lon="11.381485382855338"><ele>231.0</ele><time>2026-04-26T12:45:39Z</time></trkpt><trkpt lat="43.96352219999145" lon="11.381487595221584"><ele>231.66666666666669</ele><time>2026-04-26T12:45:40Z</time></trkpt><trkpt lat="43.96336289874717" lon="11.38150559319141"><ele>232.33333333333334</ele><time>2026-04-26T12:45:41Z</time></trkpt><trkpt lat="43.963199191258134" lon="11.381547642494992"><ele>233.0</ele><time>2026-04-26T12:45:42Z</time></trkpt><trkpt lat="43.96302866871768" lon="11.381576093079978"><ele>233.0</ele><time>2026-04-26T12:45:43Z</time></trkpt><trkpt lat="43.96286026450397" lon="11.381627473327402"><ele>233.0</ele><time>2026-04-26T12:45:44Z</time></trkpt><trkpt lat="43.962691565194454" lon="11.381685080869147"><ele>233.0</ele><time>2026-04-26T12:45:45Z</time></trkpt><trkpt lat="43.962520946686894" lon="11.381742228561263"><ele>230.66666666666669</ele><time>2026-04-26T12:45:46Z</time></trkpt><trkpt lat="43.96234294420734" lon="11.38177655692754"><ele>228.33333333333331</ele><time>2026-04-26T12:45:47Z</time></trkpt><trkpt lat="43.96217096822762" lon="11.381853035607586"><ele>226.0</ele><time>2026-04-26T12:45:48Z</time></trkpt><trkpt lat="43.96199845898228" lon="11.381929809615901"><ele>226.0</ele><time>2026-04-26T12:45:49Z</time></trkpt><trkpt lat="43.96182918912411" lon="11.382017714585507"><ele>226.0</ele><time>2026-04-26T12:45:50Z</time></trkpt><trkpt lat="43.9616711736211" lon="11.382120845629203"><ele>226.0</ele><time>2026-04-26T12:45:51Z</time></trkpt><trkpt lat="43.96150956353135" lon="11.382216835849128"><ele>224.66666666666666</ele><time>2026-04-26T12:45:52Z</time></trkpt><trkpt lat="43.96135997663373" lon="11.382318320740932"><ele>223.33333333333331</ele><time>2026-04-26T12:45:53Z</time></trkpt><trkpt lat="43.96121443628107" lon="11.382429343254218"><ele>222.0</ele><time>2026-04-26T12:45:54Z</time></trkpt><trkpt lat="43.961073133839946" lon="11.38256628458876"><ele>222.0</ele><time>2026-04-26T12:45:55Z</time></trkpt><trkpt lat="43.96094269916326" lon="11.382727263117708"><ele>222.0</ele><time>2026-04-26T12:45:56Z</time></trkpt><trkpt lat="43.960819018229714" lon="11.38288744233475"><ele>222.0</ele><time>2026-04-26T12:45:57Z</time></trkpt><trkpt lat="43.96069737343697" lon="11.383039003585184"><ele>218.0</ele><time>2026-04-26T12:45:58Z</time></trkpt><trkpt lat="43.96057346623461" lon="11.383179819402997"><ele>214.0</ele><time>2026-04-26T12:45:59Z</time></trkpt><trkpt lat="43.96045226778784" lon="11.383317898490876"><ele>210.0</ele><time>2026-04-26T12:46:00Z</time></trkpt><trkpt lat="43.96033770865067" lon="11.38344768335255"><ele>210.0</ele><time>2026-04-26T12:46:01Z</time></trkpt><trkpt lat="43.96023618396396" lon="11.383564874099235"><ele>210.0</ele><time>2026-04-26T12:46:02Z</time></trkpt><trkpt lat="43.960148685284985" lon="11.383670365173705"><ele>210.0</ele><time>2026-04-26T12:46:03Z</time></trkpt><trkpt lat="43.96007432394356" lon="11.383761034377088"><ele>210.0</ele><time>2026-04-26T12:46:04Z</time></trkpt><trkpt lat="43.95999011506345" lon="11.383797212141204"><ele>210.0</ele><time>2026-04-26T12:46:05Z</time></trkpt><trkpt lat="43.959919374254135" lon="11.383846745223632"><ele>209.6</ele><time>2026-04-26T12:46:06Z</time></trkpt><trkpt lat="43.959824109771354" lon="11.383855038985114"><ele>209.2</ele><time>2026-04-26T12:46:07Z</time></trkpt><trkpt lat="43.95974628324374" lon="11.383820795383139"><ele>208.8</ele><time>2026-04-26T12:46:08Z</time></trkpt><trkpt lat="43.95967495817776" lon="11.38377875192322"><ele>208.4</ele><time>2026-04-26T12:46:09Z</time></trkpt><trkpt lat="43.95956517390568" lon="11.383739172464281"><ele>208.0</ele><time>2026-04-26T12:46:10Z</time></trkpt><trkpt lat="43.95946847925502" lon="11.383675132692394"><ele>208.0</ele><time>2026-04-26T12:46:11Z</time></trkpt><trkpt lat="43.959376952803794" lon="11.383598495565922"><ele>208.0</ele><time>2026-04-26T12:46:12Z</time></trkpt><trkpt lat="43.959286226139554" lon="11.383543364520648"><ele>208.0</ele><time>2026-04-26T12:46:13Z</time></trkpt><trkpt lat="43.959204389235744" lon="11.383493969056307"><ele>208.0</ele><time>2026-04-26T12:46:14Z</time></trkpt><trkpt lat="43.959127802364875" lon="11.383447742479769"><ele>208.0</ele><time>2026-04-26T12:46:15Z</time></trkpt><trkpt lat="43.95905824361363" lon="11.38340686043235"><ele>207.33333333333331</ele><time>2026-04-26T12:46:16Z</time></trkpt><trkpt lat="43.95899571940755" lon="11.383392648092496"><ele>206.66666666666666</ele><time>2026-04-26T12:46:17Z</time></trkpt><trkpt lat="43.95892175079764" lon="11.383345155648765"><ele>206.0</ele><time>2026-04-26T12:46:19Z</time></trkpt><trkpt lat="43.9588599826658" lon="11.383309853470784"><ele>205.33333333333331</ele><time>2026-04-26T12:46:22Z</time></trkpt><trkpt lat="43.95875743361349" lon="11.38323107381572"><ele>204.66666666666666</ele><time>2026-04-26T12:46:31Z</time></trkpt><trkpt lat="43.95868216561438" lon="11.383186803459179"><ele>204.0</ele><time>2026-04-26T12:46:32Z</time></trkpt><trkpt lat="43.95858711750979" lon="11.383130863282702"><ele>204.0</ele><time>2026-04-26T12:46:33Z</time></trkpt><trkpt lat="43.9584832158707" lon="11.383068816999614"><ele>204.0</ele><time>2026-04-26T12:46:34Z</time></trkpt><trkpt lat="43.95838659821369" lon="11.38300790885781"><ele>204.0</ele><time>2026-04-26T12:46:35Z</time></trkpt><trkpt lat="43.958295552010206" lon="11.382950512972393"><ele>204.0</ele><time>2026-04-26T12:46:36Z</time></trkpt><trkpt lat="43.9582215123529" lon="11.3829048274964"><ele>204.0</ele><time>2026-04-26T12:46:37Z</time></trkpt><trkpt lat="43.95815349910065" lon="11.382862876958662"><ele>203.16666666666666</ele><time>2026-04-26T12:46:38Z</time></trkpt><trkpt lat="43.95809078870655" lon="11.382825677507538"><ele>202.33333333333331</ele><time>2026-04-26T12:46:39Z</time></trkpt><trkpt lat="43.95802634805831" lon="11.382788308285782"><ele>201.5</ele><time>2026-04-26T12:46:40Z</time></trkpt><trkpt lat="43.95794737622334" lon="11.382747432047527"><ele>200.66666666666666</ele><time>2026-04-26T12:46:41Z</time></trkpt><trkpt lat="43.957864753730135" lon="11.38273276051895"><ele>199.83333333333331</ele><time>2026-04-26T12:46:42Z</time></trkpt><trkpt lat="43.957806806599336" lon="11.38269097449809"><ele>199.0</ele><time>2026-04-26T12:46:43Z</time></trkpt><trkpt lat="43.95773394111161" lon="11.382467896813678"><ele>199.0</ele><time>2026-04-26T12:46:45.999Z</time></trkpt><trkpt lat="43.95771471182699" lon="11.38232174911534"><ele>199.0</ele><time>2026-04-26T12:46:46.999Z</time></trkpt><trkpt lat="43.957692084484876" lon="11.38214962165195"><ele>199.0</ele><time>2026-04-26T12:46:47.999Z</time></trkpt><trkpt lat="43.95765274344356" lon="11.381970301358455"><ele>199.0</ele><time>2026-04-26T12:46:48.999Z</time></trkpt><trkpt lat="43.957627294318264" lon="11.381769922002862"><ele>198.66666666666666</ele><time>2026-04-26T12:46:49.999Z</time></trkpt><trkpt lat="43.95760042985344" lon="11.381551850832238"><ele>198.33333333333331</ele><time>2026-04-26T12:46:50.999Z</time></trkpt><trkpt lat="43.95757796155529" lon="11.381331790278875"><ele>198.0</ele><time>2026-04-26T12:46:51.999Z</time></trkpt><trkpt lat="43.95754374679857" lon="11.38110612878894"><ele>197.66666666666669</ele><time>2026-04-26T12:46:52.999Z</time></trkpt><trkpt lat="43.957514810445254" lon="11.380879714724887"><ele>197.33333333333334</ele><time>2026-04-26T12:46:53.999Z</time></trkpt><trkpt lat="43.95748912720838" lon="11.380667421903116"><ele>197.0</ele><time>2026-04-26T12:46:54.999Z</time></trkpt><trkpt lat="43.95746684785841" lon="11.380458212226667"><ele>197.0</ele><time>2026-04-26T12:46:55.999Z</time></trkpt><trkpt lat="43.95744493431058" lon="11.38024862962643"><ele>197.0</ele><time>2026-04-26T12:46:56.999Z</time></trkpt><trkpt lat="43.95742638551046" lon="11.380042889250364"><ele>197.0</ele><time>2026-04-26T12:46:57.999Z</time></trkpt><trkpt lat="43.957416899043736" lon="11.379823330714647"><ele>196.66666666666669</ele><time>2026-04-26T12:46:58.999Z</time></trkpt><trkpt lat="43.95741498762351" lon="11.379604043035776"><ele>196.33333333333331</ele><time>2026-04-26T12:46:59.999Z</time></trkpt><trkpt lat="43.9574218548742" lon="11.379386820134581"><ele>196.0</ele><time>2026-04-26T12:47:00.999Z</time></trkpt><trkpt lat="43.95742573793889" lon="11.37916662428578"><ele>196.0</ele><time>2026-04-26T12:47:01.999Z</time></trkpt><trkpt lat="43.95742041480283" lon="11.378952205451021"><ele>196.0</ele><time>2026-04-26T12:47:02.999Z</time></trkpt><trkpt lat="43.95741753180712" lon="11.378732439953142"><ele>196.0</ele><time>2026-04-26T12:47:03.999Z</time></trkpt><trkpt lat="43.957416298109194" lon="11.378514443008614"><ele>196.0</ele><time>2026-04-26T12:47:04.999Z</time></trkpt><trkpt lat="43.95741249659464" lon="11.378297711722835"><ele>196.0</ele><time>2026-04-26T12:47:05.999Z</time></trkpt><trkpt lat="43.95741093775399" lon="11.3780805597781"><ele>196.0</ele><time>2026-04-26T12:47:06.999Z</time></trkpt><trkpt lat="43.95740918308785" lon="11.377859748434087"><ele>196.0</ele><time>2026-04-26T12:47:07.999Z</time></trkpt><trkpt lat="43.95740234700997" lon="11.377644098966783"><ele>196.0</ele><time>2026-04-26T12:47:08.999Z</time></trkpt><trkpt lat="43.957401126452886" lon="11.377423130435645"><ele>196.0</ele><time>2026-04-26T12:47:09.999Z</time></trkpt><trkpt lat="43.9573998976128" lon="11.37720361538416"><ele>196.0</ele><time>2026-04-26T12:47:10.999Z</time></trkpt><trkpt lat="43.95740224961742" lon="11.376991802515592"><ele>196.0</ele><time>2026-04-26T12:47:11.999Z</time></trkpt><trkpt lat="43.957403306510514" lon="11.3767813157025"><ele>196.0</ele><time>2026-04-26T12:47:12.999Z</time></trkpt><trkpt lat="43.95740271701793" lon="11.37657261035079"><ele>196.0</ele><time>2026-04-26T12:47:13.999Z</time></trkpt><trkpt lat="43.95739785810885" lon="11.376360036235887"><ele>196.0</ele><time>2026-04-26T12:47:14.999Z</time></trkpt><trkpt lat="43.95739668566805" lon="11.376134856224935"><ele>196.0</ele><time>2026-04-26T12:47:15.999Z</time></trkpt><trkpt lat="43.95739299398525" lon="11.375911405755787"><ele>196.0</ele><time>2026-04-26T12:47:16.999Z</time></trkpt><trkpt lat="43.95739150401391" lon="11.375689098994425"><ele>196.0</ele><time>2026-04-26T12:47:17.999Z</time></trkpt><trkpt lat="43.95738884140632" lon="11.375462761477552"><ele>196.0</ele><time>2026-04-26T12:47:18.999Z</time></trkpt><trkpt lat="43.957389097056115" lon="11.375239979553902"><ele>196.0</ele><time>2026-04-26T12:47:19.999Z</time></trkpt><trkpt lat="43.9573929895381" lon="11.37502218457765"><ele>196.0</ele><time>2026-04-26T12:47:20.999Z</time></trkpt><trkpt lat="43.95739056134646" lon="11.37480657458281"><ele>196.0</ele><time>2026-04-26T12:47:21.999Z</time></trkpt><trkpt lat="43.957392324197045" lon="11.374605753656326"><ele>196.0</ele><time>2026-04-26T12:47:23Z</time></trkpt><trkpt lat="43.95739319702543" lon="11.374409175944624"><ele>196.0</ele><time>2026-04-26T12:47:24Z</time></trkpt><trkpt lat="43.957392602052934" lon="11.374227994365686"><ele>196.0</ele><time>2026-04-26T12:47:25Z</time></trkpt><trkpt lat="43.95739278806883" lon="11.374051643824476"><ele>196.0</ele><time>2026-04-26T12:47:26Z</time></trkpt><trkpt lat="43.95739250084778" lon="11.373875707770994"><ele>196.0</ele><time>2026-04-26T12:47:27Z</time></trkpt><trkpt lat="43.95739067435128" lon="11.373704959935381"><ele>196.0</ele><time>2026-04-26T12:47:28Z</time></trkpt><trkpt lat="43.957389232209216" lon="11.373552795167987"><ele>196.0</ele><time>2026-04-26T12:47:29Z</time></trkpt><trkpt lat="43.95738965106621" lon="11.373413155296932"><ele>196.0</ele><time>2026-04-26T12:47:30Z</time></trkpt><trkpt lat="43.95740379606261" lon="11.3732935347496"><ele>196.0</ele><time>2026-04-26T12:47:31Z</time></trkpt><trkpt lat="43.9574102638245" lon="11.373190968392166"><ele>196.0</ele><time>2026-04-26T12:47:32Z</time></trkpt><trkpt lat="43.957574227978434" lon="11.373064113447843"><ele>196.0</ele><time>2026-04-26T12:47:34Z</time></trkpt><trkpt lat="43.95767499276349" lon="11.373025175076547"><ele>196.0</ele><time>2026-04-26T12:47:35Z</time></trkpt><trkpt lat="43.957800204409295" lon="11.372977552062947"><ele>196.0</ele><time>2026-04-26T12:47:36Z</time></trkpt><trkpt lat="43.957928284035866" lon="11.372931895698995"><ele>196.0</ele><time>2026-04-26T12:47:37Z</time></trkpt><trkpt lat="43.95806457637018" lon="11.372883138399999"><ele>196.0</ele><time>2026-04-26T12:47:38Z</time></trkpt><trkpt lat="43.958199447446525" lon="11.37282947859823"><ele>196.0</ele><time>2026-04-26T12:47:39Z</time></trkpt><trkpt lat="43.95832776783119" lon="11.372763286402057"><ele>196.0</ele><time>2026-04-26T12:47:40Z</time></trkpt><trkpt lat="43.958458596172" lon="11.372733761062765"><ele>195.8</ele><time>2026-04-26T12:47:41Z</time></trkpt><trkpt lat="43.95857834233006" lon="11.372726475477432"><ele>195.60000000000002</ele><time>2026-04-26T12:47:42Z</time></trkpt><trkpt lat="43.95868488244354" lon="11.37273326962634"><ele>195.4</ele><time>2026-04-26T12:47:43Z</time></trkpt><trkpt lat="43.95877105753478" lon="11.372751636441466"><ele>195.2</ele><time>2026-04-26T12:47:44Z</time></trkpt><trkpt lat="43.958840347581365" lon="11.372759996965021"><ele>195.0</ele><time>2026-04-26T12:47:45Z</time></trkpt><trkpt lat="43.958914046605294" lon="11.372737064453597"><ele>195.0</ele><time>2026-04-26T12:47:46Z</time></trkpt><trkpt lat="43.958993931854934" lon="11.372691528489614"><ele>195.0</ele><time>2026-04-26T12:47:47Z</time></trkpt><trkpt lat="43.95906559027672" lon="11.372553249795981"><ele>195.0</ele><time>2026-04-26T12:47:48Z</time></trkpt><trkpt lat="43.9591547294163" lon="11.37242342917436"><ele>195.0</ele><time>2026-04-26T12:47:49Z</time></trkpt><trkpt lat="43.95924282317949" lon="11.372298191615265"><ele>195.6</ele><time>2026-04-26T12:47:50Z</time></trkpt><trkpt lat="43.95932775976674" lon="11.372183661438559"><ele>196.2</ele><time>2026-04-26T12:47:51Z</time></trkpt><trkpt lat="43.9594061337393" lon="11.372089849211621"><ele>196.8</ele><time>2026-04-26T12:47:52Z</time></trkpt><trkpt lat="43.95948674494634" lon="11.372031543650133"><ele>197.4</ele><time>2026-04-26T12:47:53Z</time></trkpt><trkpt lat="43.95957625154392" lon="11.37200696145037"><ele>198.0</ele><time>2026-04-26T12:47:54Z</time></trkpt><trkpt lat="43.95968103769557" lon="11.372001967438436"><ele>198.0</ele><time>2026-04-26T12:47:55Z</time></trkpt><trkpt lat="43.95980373095524" lon="11.37201028267513"><ele>198.0</ele><time>2026-04-26T12:47:56Z</time></trkpt><trkpt lat="43.95994280965464" lon="11.372028664382247"><ele>198.0</ele><time>2026-04-26T12:47:57Z</time></trkpt><trkpt lat="43.960086031872734" lon="11.372052881006892"><ele>198.0</ele><time>2026-04-26T12:47:58Z</time></trkpt><trkpt lat="43.96022862096211" lon="11.372085799096373"><ele>199.0</ele><time>2026-04-26T12:47:59Z</time></trkpt><trkpt lat="43.96037365659249" lon="11.372103507954533"><ele>200.0</ele><time>2026-04-26T12:48:00Z</time></trkpt><trkpt lat="43.96053192970679" lon="11.372140393197874"><ele>201.0</ele><time>2026-04-26T12:48:01Z</time></trkpt><trkpt lat="43.96069893309685" lon="11.372178045993842"><ele>200.33333333333331</ele><time>2026-04-26T12:48:02Z</time></trkpt><trkpt lat="43.96086579942421" lon="11.37221709396971"><ele>199.66666666666666</ele><time>2026-04-26T12:48:03Z</time></trkpt><trkpt lat="43.96103050663493" lon="11.37225722309881"><ele>199.0</ele><time>2026-04-26T12:48:04Z</time></trkpt><trkpt lat="43.96119710450269" lon="11.372284618779451"><ele>200.33333333333331</ele><time>2026-04-26T12:48:05Z</time></trkpt><trkpt lat="43.96136599008463" lon="11.372295096904484"><ele>201.66666666666669</ele><time>2026-04-26T12:48:06Z</time></trkpt><trkpt lat="43.96153079698026" lon="11.372288300091025"><ele>203.0</ele><time>2026-04-26T12:48:07Z</time></trkpt><trkpt lat="43.96169789844255" lon="11.37227148068772"><ele>203.0</ele><time>2026-04-26T12:48:08Z</time></trkpt><trkpt lat="43.96186784133374" lon="11.372235661903028"><ele>203.0</ele><time>2026-04-26T12:48:09Z</time></trkpt><trkpt lat="43.96203660265993" lon="11.37220995338751"><ele>203.0</ele><time>2026-04-26T12:48:10Z</time></trkpt><trkpt lat="43.96221183358229" lon="11.372184438711006"><ele>203.0</ele><time>2026-04-26T12:48:11Z</time></trkpt><trkpt lat="43.96239626004931" lon="11.372147802885662"><ele>203.0</ele><time>2026-04-26T12:48:12Z</time></trkpt><trkpt lat="43.96258154516586" lon="11.3721213388581"><ele>203.0</ele><time>2026-04-26T12:48:13Z</time></trkpt><trkpt lat="43.96276599972902" lon="11.37208881810217"><ele>202.66666666666669</ele><time>2026-04-26T12:48:14Z</time></trkpt><trkpt lat="43.96295497401811" lon="11.372049864583381"><ele>202.33333333333331</ele><time>2026-04-26T12:48:15Z</time></trkpt><trkpt lat="43.96314246638265" lon="11.37201573976127"><ele>202.0</ele><time>2026-04-26T12:48:16Z</time></trkpt><trkpt lat="43.96333142660568" lon="11.371977750621207"><ele>202.66666666666666</ele><time>2026-04-26T12:48:17Z</time></trkpt><trkpt lat="43.96352518120997" lon="11.37193183195882"><ele>203.33333333333331</ele><time>2026-04-26T12:48:18Z</time></trkpt><trkpt lat="43.963722736933555" lon="11.371857105800908"><ele>204.0</ele><time>2026-04-26T12:48:19Z</time></trkpt><trkpt lat="43.96391730188099" lon="11.371745959676732"><ele>204.0</ele><time>2026-04-26T12:48:20Z</time></trkpt><trkpt lat="43.964110723835724" lon="11.371606849498463"><ele>204.0</ele><time>2026-04-26T12:48:21Z</time></trkpt><trkpt lat="43.964299266428235" lon="11.371444997585"><ele>204.0</ele><time>2026-04-26T12:48:21.999Z</time></trkpt><trkpt lat="43.96447051233685" lon="11.371262638468465"><ele>206.33333333333331</ele><time>2026-04-26T12:48:22.999Z</time></trkpt><trkpt lat="43.96462880025233" lon="11.371059928220564"><ele>208.66666666666666</ele><time>2026-04-26T12:48:23.999Z</time></trkpt><trkpt lat="43.96477499071705" lon="11.370837904570097"><ele>211.0</ele><time>2026-04-26T12:48:24.999Z</time></trkpt><trkpt lat="43.96491306889621" lon="11.37060767612394"><ele>212.33333333333331</ele><time>2026-04-26T12:48:25.999Z</time></trkpt><trkpt lat="43.965051761070356" lon="11.370377054367687"><ele>213.66666666666669</ele><time>2026-04-26T12:48:26.999Z</time></trkpt><trkpt lat="43.965191281798845" lon="11.3701489977767"><ele>215.0</ele><time>2026-04-26T12:48:27.999Z</time></trkpt><trkpt lat="43.965330431264704" lon="11.369921887355217"><ele>215.0</ele><time>2026-04-26T12:48:28.999Z</time></trkpt><trkpt lat="43.96547196126574" lon="11.369693842486235"><ele>215.0</ele><time>2026-04-26T12:48:29.999Z</time></trkpt><trkpt lat="43.965613798453745" lon="11.36946454670112"><ele>215.0</ele><time>2026-04-26T12:48:30.999Z</time></trkpt><trkpt lat="43.965753135991044" lon="11.369234273223405"><ele>215.66666666666669</ele><time>2026-04-26T12:48:31.999Z</time></trkpt><trkpt lat="43.9658827807039" lon="11.368998102048083"><ele>216.33333333333331</ele><time>2026-04-26T12:48:32.999Z</time></trkpt><trkpt lat="43.96599443009184" lon="11.368752088873672"><ele>217.0</ele><time>2026-04-26T12:48:33.999Z</time></trkpt><trkpt lat="43.96608907845675" lon="11.368495497806718"><ele>217.0</ele><time>2026-04-26T12:48:34.999Z</time></trkpt><trkpt lat="43.96616816238427" lon="11.368225912914355"><ele>217.0</ele><time>2026-04-26T12:48:35.999Z</time></trkpt><trkpt lat="43.966233577386056" lon="11.367948989128703"><ele>217.0</ele><time>2026-04-26T12:48:36.999Z</time></trkpt><trkpt lat="43.96628707551377" lon="11.367666509436555"><ele>217.0</ele><time>2026-04-26T12:48:37.999Z</time></trkpt><trkpt lat="43.96633589396255" lon="11.367380039919889"><ele>217.0</ele><time>2026-04-26T12:48:38.999Z</time></trkpt><trkpt lat="43.96640538398117" lon="11.367099976468408"><ele>217.0</ele><time>2026-04-26T12:48:39.999Z</time></trkpt><trkpt lat="43.96645879165397" lon="11.366815403170223"><ele>217.33333333333331</ele><time>2026-04-26T12:48:40.999Z</time></trkpt><trkpt lat="43.96651017592129" lon="11.366541611152853"><ele>217.66666666666669</ele><time>2026-04-26T12:48:41.999Z</time></trkpt><trkpt lat="43.9665577951465" lon="11.366287880513406"><ele>218.0</ele><time>2026-04-26T12:48:42.999Z</time></trkpt><trkpt lat="43.966600691388095" lon="11.366059315394953"><ele>219.25</ele><time>2026-04-26T12:48:43.999Z</time></trkpt><trkpt lat="43.966637900325296" lon="11.36586105409547"><ele>220.5</ele><time>2026-04-26T12:48:44.999Z</time></trkpt><trkpt lat="43.96667006992534" lon="11.365689252014636"><ele>221.75</ele><time>2026-04-26T12:48:45.999Z</time></trkpt><trkpt lat="43.966695497615476" lon="11.365553119950212"><ele>223.0</ele><time>2026-04-26T12:48:46.999Z</time></trkpt><trkpt lat="43.96671568453363" lon="11.365445045370658"><ele>223.0</ele><time>2026-04-26T12:48:47.999Z</time></trkpt><trkpt lat="43.966762913100524" lon="11.365319253098905"><ele>223.0</ele><time>2026-04-26T12:48:49.999Z</time></trkpt><trkpt lat="43.96691265643278" lon="11.365277153901117"><ele>223.0</ele><time>2026-04-26T12:48:51.999Z</time></trkpt><trkpt lat="43.9670232501541" lon="11.365291300436068"><ele>223.0</ele><time>2026-04-26T12:48:52.999Z</time></trkpt><trkpt lat="43.96714534899603" lon="11.365330283625397"><ele>223.0</ele><time>2026-04-26T12:48:53.999Z</time></trkpt><trkpt lat="43.967269548533" lon="11.365382919613563"><ele>223.0</ele><time>2026-04-26T12:48:54.999Z</time></trkpt><trkpt lat="43.967416686046384" lon="11.365428462719553"><ele>223.0</ele><time>2026-04-26T12:48:55.999Z</time></trkpt><trkpt lat="43.967567188269825" lon="11.365475985243211"><ele>223.0</ele><time>2026-04-26T12:48:56.999Z</time></trkpt><trkpt lat="43.96772829693452" lon="11.365519831227333"><ele>223.66666666666666</ele><time>2026-04-26T12:48:57.999Z</time></trkpt><trkpt lat="43.96789814453642" lon="11.365570392549643"><ele>224.33333333333331</ele><time>2026-04-26T12:48:58.999Z</time></trkpt><trkpt lat="43.968067328361585" lon="11.365623149438637"><ele>225.0</ele><time>2026-04-26T12:48:59.999Z</time></trkpt><trkpt lat="43.968243674358284" lon="11.365681844877326"><ele>225.66666666666669</ele><time>2026-04-26T12:49:00.999Z</time></trkpt><trkpt lat="43.96842955629088" lon="11.365740361597336"><ele>226.33333333333334</ele><time>2026-04-26T12:49:01.999Z</time></trkpt><trkpt lat="43.96861867250246" lon="11.36580393495147"><ele>227.0</ele><time>2026-04-26T12:49:02.999Z</time></trkpt><trkpt lat="43.968804907004746" lon="11.365861590221146"><ele>227.0</ele><time>2026-04-26T12:49:03.999Z</time></trkpt><trkpt lat="43.96899017161712" lon="11.365912754491323"><ele>227.0</ele><time>2026-04-26T12:49:04.999Z</time></trkpt><trkpt lat="43.969167847640406" lon="11.365957549550389"><ele>227.0</ele><time>2026-04-26T12:49:05.999Z</time></trkpt><trkpt lat="43.969343299363715" lon="11.36598562746685"><ele>228.66666666666669</ele><time>2026-04-26T12:49:06.999Z</time></trkpt><trkpt lat="43.96951660984182" lon="11.365979035639585"><ele>230.33333333333331</ele><time>2026-04-26T12:49:07.999Z</time></trkpt><trkpt lat="43.9696816040172" lon="11.365936095378405"><ele>232.0</ele><time>2026-04-26T12:49:08.999Z</time></trkpt><trkpt lat="43.969845747405955" lon="11.36586919139974"><ele>232.0</ele><time>2026-04-26T12:49:09.999Z</time></trkpt><trkpt lat="43.97001045734344" lon="11.365784209713642"><ele>232.0</ele><time>2026-04-26T12:49:10.999Z</time></trkpt><trkpt lat="43.970173256026584" lon="11.36567954638421"><ele>232.0</ele><time>2026-04-26T12:49:11.999Z</time></trkpt><trkpt lat="43.970339480484164" lon="11.365593412221678"><ele>231.66666666666666</ele><time>2026-04-26T12:49:12.999Z</time></trkpt><trkpt lat="43.97050271629264" lon="11.365542526161214"><ele>231.33333333333331</ele><time>2026-04-26T12:49:13.999Z</time></trkpt><trkpt lat="43.9706635751563" lon="11.365516987905437"><ele>231.0</ele><time>2026-04-26T12:49:14.999Z</time></trkpt><trkpt lat="43.97083184767903" lon="11.365530860436264"><ele>228.66666666666669</ele><time>2026-04-26T12:49:15.999Z</time></trkpt><trkpt lat="43.97100264341302" lon="11.365590718794481"><ele>226.33333333333334</ele><time>2026-04-26T12:49:16.999Z</time></trkpt><trkpt lat="43.97117608762338" lon="11.365690305271233"><ele>224.0</ele><time>2026-04-26T12:49:17.999Z</time></trkpt><trkpt lat="43.971332615523025" lon="11.365833690560182"><ele>224.0</ele><time>2026-04-26T12:49:18.999Z</time></trkpt><trkpt lat="43.97149188113479" lon="11.365980606507382"><ele>224.0</ele><time>2026-04-26T12:49:19.999Z</time></trkpt><trkpt lat="43.97161130244789" lon="11.366180965151846"><ele>224.0</ele><time>2026-04-26T12:49:20.999Z</time></trkpt><trkpt lat="43.97169855374913" lon="11.366397419447805"><ele>224.0</ele><time>2026-04-26T12:49:21.999Z</time></trkpt><trkpt lat="43.97175868161478" lon="11.366625800176703"><ele>224.0</ele><time>2026-04-26T12:49:22.999Z</time></trkpt><trkpt lat="43.971820528676965" lon="11.366850698239055"><ele>224.0</ele><time>2026-04-26T12:49:23.999Z</time></trkpt><trkpt lat="43.97191088711259" lon="11.367063701258314"><ele>225.0</ele><time>2026-04-26T12:49:24.999Z</time></trkpt><trkpt lat="43.97201985195523" lon="11.367257075411803"><ele>226.0</ele><time>2026-04-26T12:49:25.999Z</time></trkpt><trkpt lat="43.9721336804329" lon="11.367443463611723"><ele>227.0</ele><time>2026-04-26T12:49:26.999Z</time></trkpt><trkpt lat="43.97226479204862" lon="11.367606060503961"><ele>227.0</ele><time>2026-04-26T12:49:27.999Z</time></trkpt><trkpt lat="43.972411568475344" lon="11.367742533140982"><ele>227.0</ele><time>2026-04-26T12:49:28.999Z</time></trkpt><trkpt lat="43.97256646840101" lon="11.367863881732612"><ele>227.0</ele><time>2026-04-26T12:49:29.999Z</time></trkpt><trkpt lat="43.97273494911603" lon="11.367965569823138"><ele>228.0</ele><time>2026-04-26T12:49:30.999Z</time></trkpt><trkpt lat="43.972907876363735" lon="11.368058587420764"><ele>229.0</ele><time>2026-04-26T12:49:31.999Z</time></trkpt><trkpt lat="43.973070686666524" lon="11.368145814772717"><ele>230.0</ele><time>2026-04-26T12:49:32.999Z</time></trkpt><trkpt lat="43.973222200984026" lon="11.36824403078086"><ele>229.33333333333334</ele><time>2026-04-26T12:49:33.999Z</time></trkpt><trkpt lat="43.97338815949342" lon="11.368323776218636"><ele>228.66666666666669</ele><time>2026-04-26T12:49:34.999Z</time></trkpt><trkpt lat="43.97355600718964" lon="11.368394026822264"><ele>228.0</ele><time>2026-04-26T12:49:35.999Z</time></trkpt><trkpt lat="43.97372888165743" lon="11.36848941534993"><ele>228.0</ele><time>2026-04-26T12:49:36.999Z</time></trkpt><trkpt lat="43.97390665203365" lon="11.368596835273935"><ele>228.0</ele><time>2026-04-26T12:49:37.999Z</time></trkpt><trkpt lat="43.974091154047414" lon="11.368695415696829"><ele>228.0</ele><time>2026-04-26T12:49:38.999Z</time></trkpt><trkpt lat="43.97428069526929" lon="11.368795676106707"><ele>228.66666666666669</ele><time>2026-04-26T12:49:39.999Z</time></trkpt><trkpt lat="43.97447053257019" lon="11.368905302833815"><ele>229.33333333333334</ele><time>2026-04-26T12:49:40.999Z</time></trkpt><trkpt lat="43.97466447921661" lon="11.369012230027934"><ele>230.0</ele><time>2026-04-26T12:49:41.999Z</time></trkpt><trkpt lat="43.974861829373644" lon="11.369122141438712"><ele>230.0</ele><time>2026-04-26T12:49:42.999Z</time></trkpt><trkpt lat="43.97506189992356" lon="11.369235627061917"><ele>230.0</ele><time>2026-04-26T12:49:43.999Z</time></trkpt><trkpt lat="43.97526496230456" lon="11.36934513118128"><ele>230.0</ele><time>2026-04-26T12:49:44.999Z</time></trkpt><trkpt lat="43.97546925184241" lon="11.369451649768758"><ele>230.0</ele><time>2026-04-26T12:49:45.999Z</time></trkpt><trkpt lat="43.975675239808005" lon="11.369560491910116"><ele>230.0</ele><time>2026-04-26T12:49:46.999Z</time></trkpt><trkpt lat="43.97587784310345" lon="11.369670576152215"><ele>230.0</ele><time>2026-04-26T12:49:47.999Z</time></trkpt><trkpt lat="43.97607630448808" lon="11.36980211750519"><ele>231.0</ele><time>2026-04-26T12:49:48.999Z</time></trkpt><trkpt lat="43.976274555315825" lon="11.369937232956488"><ele>232.0</ele><time>2026-04-26T12:49:49.999Z</time></trkpt><trkpt lat="43.976451117573724" lon="11.370126009804965"><ele>233.0</ele><time>2026-04-26T12:49:50.999Z</time></trkpt><trkpt lat="43.97664083192575" lon="11.370291861473827"><ele>232.66666666666669</ele><time>2026-04-26T12:49:51.999Z</time></trkpt><trkpt lat="43.976819579877436" lon="11.370481601794056"><ele>232.33333333333331</ele><time>2026-04-26T12:49:52.999Z</time></trkpt><trkpt lat="43.97699763397803" lon="11.370670206321384"><ele>232.0</ele><time>2026-04-26T12:49:53.999Z</time></trkpt><trkpt lat="43.97717902435002" lon="11.370856477076154"><ele>233.0</ele><time>2026-04-26T12:49:54.999Z</time></trkpt><trkpt lat="43.97736153244296" lon="11.371040181944775"><ele>234.0</ele><time>2026-04-26T12:49:55.999Z</time></trkpt><trkpt lat="43.97754808284997" lon="11.37121507565605"><ele>235.0</ele><time>2026-04-26T12:49:56.999Z</time></trkpt><trkpt lat="43.97773764519954" lon="11.371391451663161"><ele>236.0</ele><time>2026-04-26T12:49:57.999Z</time></trkpt><trkpt lat="43.977927314575915" lon="11.37156607949425"><ele>236.0</ele><time>2026-04-26T12:49:58.999Z</time></trkpt><trkpt lat="43.978118389456505" lon="11.37173867346789"><ele>236.0</ele><time>2026-04-26T12:49:59.999Z</time></trkpt><trkpt lat="43.97831129674344" lon="11.371913036690247"><ele>236.5</ele><time>2026-04-26T12:50:00.999Z</time></trkpt><trkpt lat="43.9785033220292" lon="11.372085913140724"><ele>237.0</ele><time>2026-04-26T12:50:01.999Z</time></trkpt><trkpt lat="43.978696611484835" lon="11.372259114021602"><ele>237.0</ele><time>2026-04-26T12:50:02.999Z</time></trkpt><trkpt lat="43.978890044596405" lon="11.372434578474545"><ele>237.0</ele><time>2026-04-26T12:50:03.999Z</time></trkpt><trkpt lat="43.97908324643666" lon="11.372611756826906"><ele>238.0</ele><time>2026-04-26T12:50:04.999Z</time></trkpt><trkpt lat="43.97927588351539" lon="11.37278927423748"><ele>239.0</ele><time>2026-04-26T12:50:05.999Z</time></trkpt><trkpt lat="43.97946913854911" lon="11.37296473287504"><ele>239.0</ele><time>2026-04-26T12:50:06.999Z</time></trkpt><trkpt lat="43.97966310106148" lon="11.373137953353675"><ele>239.0</ele><time>2026-04-26T12:50:07.999Z</time></trkpt><trkpt lat="43.97985638804381" lon="11.37331055266383"><ele>240.0</ele><time>2026-04-26T12:50:08.999Z</time></trkpt><trkpt lat="43.980049536008835" lon="11.373484742795142"><ele>241.0</ele><time>2026-04-26T12:50:09.999Z</time></trkpt><trkpt lat="43.98024273681897" lon="11.37366066849042"><ele>241.0</ele><time>2026-04-26T12:50:10.999Z</time></trkpt><trkpt lat="43.980434487287575" lon="11.37383486352091"><ele>241.0</ele><time>2026-04-26T12:50:11.999Z</time></trkpt><trkpt lat="43.98062474183967" lon="11.374011959527083"><ele>242.0</ele><time>2026-04-26T12:50:12.999Z</time></trkpt><trkpt lat="43.98081747628914" lon="11.374188386215865"><ele>243.0</ele><time>2026-04-26T12:50:13.999Z</time></trkpt><trkpt lat="43.981009682431676" lon="11.374361893120506"><ele>243.0</ele><time>2026-04-26T12:50:14.999Z</time></trkpt><trkpt lat="43.98120113712539" lon="11.37453489435101"><ele>243.0</ele><time>2026-04-26T12:50:15.999Z</time></trkpt><trkpt lat="43.98139337643925" lon="11.374705706381343"><ele>243.0</ele><time>2026-04-26T12:50:16.999Z</time></trkpt><trkpt lat="43.98158577250989" lon="11.37487392219543"><ele>243.0</ele><time>2026-04-26T12:50:17.999Z</time></trkpt><trkpt lat="43.981781580208406" lon="11.375028966173796"><ele>244.0</ele><time>2026-04-26T12:50:18.999Z</time></trkpt><trkpt lat="43.98198094387941" lon="11.375167935731621"><ele>245.0</ele><time>2026-04-26T12:50:19.999Z</time></trkpt><trkpt lat="43.982185501754756" lon="11.375292774217582"><ele>246.0</ele><time>2026-04-26T12:50:20.999Z</time></trkpt><trkpt lat="43.98238932201465" lon="11.375415027540333"><ele>246.33333333333331</ele><time>2026-04-26T12:50:21.999Z</time></trkpt><trkpt lat="43.982592401681615" lon="11.375542483751117"><ele>246.66666666666666</ele><time>2026-04-26T12:50:22.999Z</time></trkpt><trkpt lat="43.98279501893209" lon="11.375672650620233"><ele>247.0</ele><time>2026-04-26T12:50:23.999Z</time></trkpt><trkpt lat="43.982997221551265" lon="11.37580342937814"><ele>247.0</ele><time>2026-04-26T12:50:24.999Z</time></trkpt><trkpt lat="43.98319726706687" lon="11.375931717501647"><ele>247.0</ele><time>2026-04-26T12:50:25.999Z</time></trkpt><trkpt lat="43.98339332614706" lon="11.376070461113317"><ele>247.0</ele><time>2026-04-26T12:50:26.999Z</time></trkpt><trkpt lat="43.98358217104797" lon="11.376227118766806"><ele>247.66666666666666</ele><time>2026-04-26T12:50:27.999Z</time></trkpt><trkpt lat="43.9837628284239" lon="11.37639950532725"><ele>248.33333333333331</ele><time>2026-04-26T12:50:28.999Z</time></trkpt><trkpt lat="43.98394188138902" lon="11.376581666922146"><ele>249.0</ele><time>2026-04-26T12:50:29.999Z</time></trkpt><trkpt lat="43.984118527155445" lon="11.376763060102943"><ele>249.0</ele><time>2026-04-26T12:50:30.999Z</time></trkpt><trkpt lat="43.98429587175462" lon="11.376945066276342"><ele>249.0</ele><time>2026-04-26T12:50:31.999Z</time></trkpt><trkpt lat="43.98447218468881" lon="11.377124655231155"><ele>249.0</ele><time>2026-04-26T12:50:32.999Z</time></trkpt><trkpt lat="43.98464496900131" lon="11.377303665423403"><ele>249.0</ele><time>2026-04-26T12:50:33.999Z</time></trkpt><trkpt lat="43.98481353159139" lon="11.377472378856307"><ele>249.0</ele><time>2026-04-26T12:50:34.999Z</time></trkpt><trkpt lat="43.9849746616292" lon="11.377631897855494"><ele>249.0</ele><time>2026-04-26T12:50:35.999Z</time></trkpt><trkpt lat="43.98513962142978" lon="11.37777389077572"><ele>249.33333333333331</ele><time>2026-04-26T12:50:36.999Z</time></trkpt><trkpt lat="43.985308229819616" lon="11.377893163168219"><ele>249.66666666666666</ele><time>2026-04-26T12:50:37.999Z</time></trkpt><trkpt lat="43.98547220608008" lon="11.3779732094381"><ele>250.0</ele><time>2026-04-26T12:50:38.999Z</time></trkpt><trkpt lat="43.98562428684771" lon="11.37802844706962"><ele>250.2</ele><time>2026-04-26T12:50:39.999Z</time></trkpt><trkpt lat="43.98576108684203" lon="11.378064709908077"><ele>250.4</ele><time>2026-04-26T12:50:40.999Z</time></trkpt><trkpt lat="43.985881795611775" lon="11.37809020615696"><ele>250.60000000000002</ele><time>2026-04-26T12:50:41.999Z</time></trkpt><trkpt lat="43.98598416532376" lon="11.378099871552346"><ele>250.8</ele><time>2026-04-26T12:50:42.999Z</time></trkpt><trkpt lat="43.98606216858505" lon="11.378100435637704"><ele>251.0</ele><time>2026-04-26T12:50:43.999Z</time></trkpt><trkpt lat="43.986159174439464" lon="11.37808665476529"><ele>250.20000000000002</ele><time>2026-04-26T12:50:45.999Z</time></trkpt><trkpt lat="43.98619175801599" lon="11.377965158179052"><ele>249.40000000000003</ele><time>2026-04-26T12:50:47.999Z</time></trkpt><trkpt lat="43.986186468397676" lon="11.3778453301025"><ele>248.6</ele><time>2026-04-26T12:50:48.999Z</time></trkpt><trkpt lat="43.98617736771741" lon="11.377718133429022"><ele>247.8</ele><time>2026-04-26T12:50:49.999Z</time></trkpt><trkpt lat="43.9861724602671" lon="11.377562451383021"><ele>247.0</ele><time>2026-04-26T12:50:50.999Z</time></trkpt><trkpt lat="43.986169315799025" lon="11.377381668117476"><ele>247.0</ele><time>2026-04-26T12:50:51.999Z</time></trkpt><trkpt lat="43.98616731819894" lon="11.377194632700197"><ele>247.0</ele><time>2026-04-26T12:50:52.999Z</time></trkpt><trkpt lat="43.986166081057256" lon="11.376988671282126"><ele>247.0</ele><time>2026-04-26T12:50:53.999Z</time></trkpt><trkpt lat="43.986168703039134" lon="11.376774026214617"><ele>247.0</ele><time>2026-04-26T12:50:54.999Z</time></trkpt><trkpt lat="43.98619850716145" lon="11.376562712513508"><ele>247.66666666666666</ele><time>2026-04-26T12:50:55.999Z</time></trkpt><trkpt lat="43.98626040673744" lon="11.37636047018361"><ele>248.33333333333331</ele><time>2026-04-26T12:50:56.999Z</time></trkpt><trkpt lat="43.98634676536518" lon="11.376168532037521"><ele>249.0</ele><time>2026-04-26T12:50:57.999Z</time></trkpt><trkpt lat="43.986439807853344" lon="11.375981267665143"><ele>249.33333333333331</ele><time>2026-04-26T12:50:58.999Z</time></trkpt><trkpt lat="43.98653234247392" lon="11.37579189281367"><ele>249.66666666666666</ele><time>2026-04-26T12:50:59.999Z</time></trkpt><trkpt lat="43.98662935458334" lon="11.37560301185704"><ele>250.0</ele><time>2026-04-26T12:51:00.999Z</time></trkpt><trkpt lat="43.98672377536485" lon="11.375413920306874"><ele>251.0</ele><time>2026-04-26T12:51:01.999Z</time></trkpt><trkpt lat="43.98681542980021" lon="11.375227248385139"><ele>252.0</ele><time>2026-04-26T12:51:02.999Z</time></trkpt><trkpt lat="43.986911920423594" lon="11.375038793036891"><ele>253.0</ele><time>2026-04-26T12:51:03.999Z</time></trkpt><trkpt lat="43.987013440919924" lon="11.37485033989826"><ele>252.66666666666666</ele><time>2026-04-26T12:51:04.999Z</time></trkpt><trkpt lat="43.98712061068522" lon="11.374659447180832"><ele>252.33333333333331</ele><time>2026-04-26T12:51:05.999Z</time></trkpt><trkpt lat="43.98722467758957" lon="11.374460217212809"><ele>252.0</ele><time>2026-04-26T12:51:06.999Z</time></trkpt><trkpt lat="43.98732671266639" lon="11.374254880431879"><ele>252.0</ele><time>2026-04-26T12:51:07.999Z</time></trkpt><trkpt lat="43.987436418874935" lon="11.374053809663387"><ele>252.0</ele><time>2026-04-26T12:51:08.999Z</time></trkpt><trkpt lat="43.98755069333836" lon="11.373855069125003"><ele>252.0</ele><time>2026-04-26T12:51:09.999Z</time></trkpt><trkpt lat="43.98766421856825" lon="11.3736559324743"><ele>252.66666666666669</ele><time>2026-04-26T12:51:10.999Z</time></trkpt><trkpt lat="43.987780068232226" lon="11.373458257779166"><ele>253.33333333333334</ele><time>2026-04-26T12:51:11.999Z</time></trkpt><trkpt lat="43.98789982926858" lon="11.373269195156274"><ele>254.0</ele><time>2026-04-26T12:51:12.999Z</time></trkpt><trkpt lat="43.9880193787695" lon="11.373083393672342"><ele>255.33333333333334</ele><time>2026-04-26T12:51:13.999Z</time></trkpt><trkpt lat="43.98813353628468" lon="11.372896761775833"><ele>256.6666666666667</ele><time>2026-04-26T12:51:14.999Z</time></trkpt><trkpt lat="43.988244574240426" lon="11.372712974440958"><ele>258.0</ele><time>2026-04-26T12:51:15.999Z</time></trkpt><trkpt lat="43.98835347414616" lon="11.372535153991542"><ele>260.3333333333333</ele><time>2026-04-26T12:51:16.999Z</time></trkpt><trkpt lat="43.98846294541523" lon="11.372362202255678"><ele>262.66666666666663</ele><time>2026-04-26T12:51:17.999Z</time></trkpt><trkpt lat="43.98856927036651" lon="11.372192655762031"><ele>265.0</ele><time>2026-04-26T12:51:18.999Z</time></trkpt><trkpt lat="43.98867768677711" lon="11.372033115400505"><ele>265.0</ele><time>2026-04-26T12:51:19.999Z</time></trkpt><trkpt lat="43.98879430530117" lon="11.371890122243055"><ele>265.0</ele><time>2026-04-26T12:51:20.999Z</time></trkpt><trkpt lat="43.988916446964076" lon="11.371761486293106"><ele>265.0</ele><time>2026-04-26T12:51:21.999Z</time></trkpt><trkpt lat="43.98904721785472" lon="11.371650299122049"><ele>265.0</ele><time>2026-04-26T12:51:22.999Z</time></trkpt><trkpt lat="43.98917202567379" lon="11.371547251221221"><ele>265.0</ele><time>2026-04-26T12:51:23.999Z</time></trkpt><trkpt lat="43.98929334862741" lon="11.37145080295312"><ele>265.0</ele><time>2026-04-26T12:51:24.999Z</time></trkpt><trkpt lat="43.989401761950205" lon="11.371368887815196"><ele>265.0</ele><time>2026-04-26T12:51:25.999Z</time></trkpt><trkpt lat="43.98950456464609" lon="11.3712929015935"><ele>263.25</ele><time>2026-04-26T12:51:26.999Z</time></trkpt><trkpt lat="43.98960196411654" lon="11.371213883337445"><ele>261.5</ele><time>2026-04-26T12:51:27.999Z</time></trkpt><trkpt lat="43.98969558459314" lon="11.371121485979824"><ele>259.75</ele><time>2026-04-26T12:51:28.999Z</time></trkpt><trkpt lat="43.98977956493855" lon="11.37101651598425"><ele>258.0</ele><time>2026-04-26T12:51:29.999Z</time></trkpt><trkpt lat="43.98986291462325" lon="11.370918047764158"><ele>258.0</ele><time>2026-04-26T12:51:30.999Z</time></trkpt><trkpt lat="43.989948772944054" lon="11.370821722399816"><ele>258.0</ele><time>2026-04-26T12:51:31.999Z</time></trkpt><trkpt lat="43.990024428985734" lon="11.370725633239077"><ele>258.0</ele><time>2026-04-26T12:51:32.999Z</time></trkpt><trkpt lat="43.990094432271434" lon="11.370634251476682"><ele>258.0</ele><time>2026-04-26T12:51:33.999Z</time></trkpt><trkpt lat="43.99015467424181" lon="11.370554583210295"><ele>258.0</ele><time>2026-04-26T12:51:34.999Z</time></trkpt><trkpt lat="43.99020807067536" lon="11.370476252287983"><ele>256.1666666666667</ele><time>2026-04-26T12:51:35.999Z</time></trkpt><trkpt lat="43.990260228845294" lon="11.370406027249732"><ele>254.33333333333331</ele><time>2026-04-26T12:51:36.999Z</time></trkpt><trkpt lat="43.99031045266594" lon="11.370346715576284"><ele>252.5</ele><time>2026-04-26T12:51:37.999Z</time></trkpt><trkpt lat="43.99041140756668" lon="11.370269645028218"><ele>250.66666666666666</ele><time>2026-04-26T12:51:40Z</time></trkpt><trkpt lat="43.99049726647306" lon="11.370245692077367"><ele>248.83333333333331</ele><time>2026-04-26T12:51:41.999Z</time></trkpt><trkpt lat="43.99058398122575" lon="11.370237226318077"><ele>247.0</ele><time>2026-04-26T12:51:44.999Z</time></trkpt><trkpt lat="43.99064260711" lon="11.370155359333909"><ele>246.99999999999997</ele><time>2026-04-26T12:54:09Z</time></trkpt><trkpt lat="43.99063122905722" lon="11.37006374622539"><ele>247.0</ele><time>2026-04-26T12:57:38.999Z</time></trkpt><trkpt lat="43.99057253718891" lon="11.369910340185152"><ele>247.0</ele><time>2026-04-26T12:57:40.999Z</time></trkpt><trkpt lat="43.990531347555" lon="11.36980682787308"><ele>247.0</ele><time>2026-04-26T12:57:41.999Z</time></trkpt><trkpt lat="43.99050296535891" lon="11.369692726078535"><ele>246.99999999999997</ele><time>2026-04-26T12:57:42.999Z</time></trkpt><trkpt lat="43.99048877399395" lon="11.369585139615792"><ele>247.0</ele><time>2026-04-26T12:57:43.999Z</time></trkpt><trkpt lat="43.99048538135327" lon="11.369480599066659"><ele>246.33333333333331</ele><time>2026-04-26T12:57:44.999Z</time></trkpt><trkpt lat="43.99049111484164" lon="11.369375112026118"><ele>245.66666666666666</ele><time>2026-04-26T12:57:45.999Z</time></trkpt><trkpt lat="43.99050706431851" lon="11.369264110582435"><ele>245.0</ele><time>2026-04-26T12:57:46.999Z</time></trkpt><trkpt lat="43.99054911212135" lon="11.369163799661191"><ele>244.33333333333331</ele><time>2026-04-26T12:57:47.999Z</time></trkpt><trkpt lat="43.99057894271977" lon="11.369056307058916"><ele>243.66666666666666</ele><time>2026-04-26T12:57:48.999Z</time></trkpt><trkpt lat="43.990610188157305" lon="11.36894300953527"><ele>243.0</ele><time>2026-04-26T12:57:49.999Z</time></trkpt><trkpt lat="43.990643205911816" lon="11.368823634674001"><ele>242.8</ele><time>2026-04-26T12:57:50.999Z</time></trkpt><trkpt lat="43.99067887915634" lon="11.368699760127516"><ele>242.60000000000002</ele><time>2026-04-26T12:57:51.999Z</time></trkpt><trkpt lat="43.99071606916554" lon="11.36857079972521"><ele>242.39999999999998</ele><time>2026-04-26T12:57:52.999Z</time></trkpt><trkpt lat="43.99075528472356" lon="11.368434815508843"><ele>242.2</ele><time>2026-04-26T12:57:53.999Z</time></trkpt><trkpt lat="43.99079587710449" lon="11.368294057008727"><ele>242.0</ele><time>2026-04-26T12:57:54.999Z</time></trkpt><trkpt lat="43.990838123541224" lon="11.368148868708976"><ele>243.5</ele><time>2026-04-26T12:57:55.999Z</time></trkpt><trkpt lat="43.99088218914751" lon="11.367998466086934"><ele>245.0</ele><time>2026-04-26T12:57:56.999Z</time></trkpt><trkpt lat="43.99092706722868" lon="11.367845290357497"><ele>246.5</ele><time>2026-04-26T12:57:57.999Z</time></trkpt><trkpt lat="43.99095999436938" lon="11.367676003861707"><ele>248.0</ele><time>2026-04-26T12:57:58.999Z</time></trkpt><trkpt lat="43.991025640799364" lon="11.367522343684122"><ele>248.0</ele><time>2026-04-26T12:57:59.999Z</time></trkpt><trkpt lat="43.991078242955446" lon="11.367358745522743"><ele>248.0</ele><time>2026-04-26T12:58:00.999Z</time></trkpt><trkpt lat="43.99111733606571" lon="11.36718569721921"><ele>248.0</ele><time>2026-04-26T12:58:02Z</time></trkpt><trkpt lat="43.99119031315689" lon="11.367026790690552"><ele>248.0</ele><time>2026-04-26T12:58:03Z</time></trkpt><trkpt lat="43.99125108929668" lon="11.366856876886578"><ele>249.25</ele><time>2026-04-26T12:58:04Z</time></trkpt><trkpt lat="43.991312973957356" lon="11.366687798780664"><ele>250.5</ele><time>2026-04-26T12:58:05Z</time></trkpt><trkpt lat="43.991374959547485" lon="11.366518444918544"><ele>251.75</ele><time>2026-04-26T12:58:06Z</time></trkpt><trkpt lat="43.99143663918489" lon="11.36634992696266"><ele>253.0</ele><time>2026-04-26T12:58:07Z</time></trkpt><trkpt lat="43.991499254895935" lon="11.36617885151409"><ele>254.75</ele><time>2026-04-26T12:58:08Z</time></trkpt><trkpt lat="43.991551268644955" lon="11.365999025551114"><ele>256.5</ele><time>2026-04-26T12:58:09Z</time></trkpt><trkpt lat="43.991612178276526" lon="11.365829520486121"><ele>258.25</ele><time>2026-04-26T12:58:10Z</time></trkpt><trkpt lat="43.99167379630965" lon="11.365658712906635"><ele>260.0</ele><time>2026-04-26T12:58:11Z</time></trkpt><trkpt lat="43.991735208900224" lon="11.365485723693928"><ele>262.25</ele><time>2026-04-26T12:58:12Z</time></trkpt><trkpt lat="43.99181202154402" lon="11.365326173300627"><ele>264.5</ele><time>2026-04-26T12:58:13Z</time></trkpt><trkpt lat="43.9918740726285" lon="11.365157719544039"><ele>266.75</ele><time>2026-04-26T12:58:14Z</time></trkpt><trkpt lat="43.99193612202826" lon="11.364989270361866"><ele>269.0</ele><time>2026-04-26T12:58:15Z</time></trkpt><trkpt lat="43.99199794603539" lon="11.364821433064732"><ele>271.5</ele><time>2026-04-26T12:58:16Z</time></trkpt><trkpt lat="43.99205950196722" lon="11.364654918693859"><ele>274.0</ele><time>2026-04-26T12:58:17Z</time></trkpt><trkpt lat="43.99211922045251" lon="11.364497706410713"><ele>276.5</ele><time>2026-04-26T12:58:18Z</time></trkpt><trkpt lat="43.99217684151793" lon="11.364351607689844"><ele>279.0</ele><time>2026-04-26T12:58:19Z</time></trkpt><trkpt lat="43.99223255894019" lon="11.364214477122632"><ele>279.0</ele><time>2026-04-26T12:58:20Z</time></trkpt><trkpt lat="43.99228956822517" lon="11.364088760160481"><ele>279.0</ele><time>2026-04-26T12:58:21Z</time></trkpt><trkpt lat="43.992350653034" lon="11.363969483027985"><ele>279.0</ele><time>2026-04-26T12:58:22Z</time></trkpt><trkpt lat="43.99240668723925" lon="11.363849608459937"><ele>279.0</ele><time>2026-04-26T12:58:23Z</time></trkpt><trkpt lat="43.99248103120218" lon="11.36375612730554"><ele>279.0</ele><time>2026-04-26T12:58:24Z</time></trkpt><trkpt lat="43.992554710114796" lon="11.363670730804198"><ele>280.5</ele><time>2026-04-26T12:58:25Z</time></trkpt><trkpt lat="43.99262218138162" lon="11.363600572157202"><ele>282.0</ele><time>2026-04-26T12:58:26Z</time></trkpt><trkpt lat="43.992689909572654" lon="11.363550102260497"><ele>283.5</ele><time>2026-04-26T12:58:27Z</time></trkpt><trkpt lat="43.99276201062676" lon="11.363512092338954"><ele>285.0</ele><time>2026-04-26T12:58:28Z</time></trkpt><trkpt lat="43.99283523547109" lon="11.363479961079952"><ele>286.5</ele><time>2026-04-26T12:58:29Z</time></trkpt><trkpt lat="43.9929060803429" lon="11.363448910419526"><ele>288.0</ele><time>2026-04-26T12:58:30Z</time></trkpt><trkpt lat="43.99296635346551" lon="11.363405369248808"><ele>288.0</ele><time>2026-04-26T12:58:31Z</time></trkpt><trkpt lat="43.99303412654754" lon="11.363353339828246"><ele>288.0</ele><time>2026-04-26T12:58:32Z</time></trkpt><trkpt lat="43.99311205859018" lon="11.363298707773033"><ele>288.0</ele><time>2026-04-26T12:58:33Z</time></trkpt><trkpt lat="43.99320601640809" lon="11.363262519688819"><ele>288.0</ele><time>2026-04-26T12:58:34Z</time></trkpt><trkpt lat="43.993308894469436" lon="11.363235800266343"><ele>288.0</ele><time>2026-04-26T12:58:35Z</time></trkpt><trkpt lat="43.99341848436887" lon="11.3632170656447"><ele>289.25</ele><time>2026-04-26T12:58:36Z</time></trkpt><trkpt lat="43.99353442539371" lon="11.363200898054336"><ele>290.5</ele><time>2026-04-26T12:58:37Z</time></trkpt><trkpt lat="43.99365227457794" lon="11.363184689001514"><ele>291.75</ele><time>2026-04-26T12:58:38Z</time></trkpt><trkpt lat="43.993767983244034" lon="11.36320751409567"><ele>293.0</ele><time>2026-04-26T12:58:39Z</time></trkpt><trkpt lat="43.99387994782995" lon="11.363212267040385"><ele>293.0</ele><time>2026-04-26T12:58:40Z</time></trkpt><trkpt lat="43.993999952506044" lon="11.363228402926826"><ele>293.0</ele><time>2026-04-26T12:58:41Z</time></trkpt><trkpt lat="43.994112821833234" lon="11.363229697668531"><ele>293.0</ele><time>2026-04-26T12:58:42Z</time></trkpt><trkpt lat="43.99422517857729" lon="11.363239864067296"><ele>293.0</ele><time>2026-04-26T12:58:43Z</time></trkpt><trkpt lat="43.994336122310095" lon="11.363254096391186"><ele>294.2</ele><time>2026-04-26T12:58:44Z</time></trkpt><trkpt lat="43.994446412418306" lon="11.363278667303451"><ele>295.4</ele><time>2026-04-26T12:58:45Z</time></trkpt><trkpt lat="43.99455550676643" lon="11.363303926194963"><ele>296.59999999999997</ele><time>2026-04-26T12:58:46Z</time></trkpt><trkpt lat="43.99466208471677" lon="11.363326059652376"><ele>297.8</ele><time>2026-04-26T12:58:47Z</time></trkpt><trkpt lat="43.99476864688677" lon="11.363355110318269"><ele>299.0</ele><time>2026-04-26T12:58:48Z</time></trkpt><trkpt lat="43.99487608677225" lon="11.363382820008544"><ele>299.0</ele><time>2026-04-26T12:58:49Z</time></trkpt><trkpt lat="43.99497786359768" lon="11.363421457640854"><ele>299.0</ele><time>2026-04-26T12:58:50Z</time></trkpt><trkpt lat="43.99507681869203" lon="11.363466945866303"><ele>299.0</ele><time>2026-04-26T12:58:51Z</time></trkpt><trkpt lat="43.9951725502041" lon="11.363501816242227"><ele>299.0</ele><time>2026-04-26T12:58:52Z</time></trkpt><trkpt lat="43.99525267830926" lon="11.363537743627479"><ele>299.0</ele><time>2026-04-26T12:58:53Z</time></trkpt><trkpt lat="43.995317033163644" lon="11.363567125832425"><ele>299.0</ele><time>2026-04-26T12:58:54Z</time></trkpt><trkpt lat="43.99538966933168" lon="11.363596895567378"><ele>299.0</ele><time>2026-04-26T12:58:56Z</time></trkpt><trkpt lat="43.99528138361819" lon="11.363487677619732"><ele>299.0</ele><time>2026-04-26T12:59:02Z</time></trkpt><trkpt lat="43.99519872970753" lon="11.363456483509404"><ele>299.0</ele><time>2026-04-26T12:59:03Z</time></trkpt><trkpt lat="43.99508948975764" lon="11.363407186554298"><ele>299.0</ele><time>2026-04-26T12:59:04Z</time></trkpt><trkpt lat="43.99498753252957" lon="11.363368639281575"><ele>299.0</ele><time>2026-04-26T12:59:05Z</time></trkpt><trkpt lat="43.99487095009736" lon="11.363332324889862"><ele>299.0</ele><time>2026-04-26T12:59:06Z</time></trkpt><trkpt lat="43.99474189192532" lon="11.363299249408255"><ele>299.0</ele><time>2026-04-26T12:59:07Z</time></trkpt><trkpt lat="43.99461033438244" lon="11.363268208140564"><ele>299.0</ele><time>2026-04-26T12:59:08Z</time></trkpt><trkpt lat="43.994483760523394" lon="11.363245609870223"><ele>299.0</ele><time>2026-04-26T12:59:09Z</time></trkpt><trkpt lat="43.9943606443871" lon="11.363206578008665"><ele>299.0</ele><time>2026-04-26T12:59:10Z</time></trkpt><trkpt lat="43.99423730650816" lon="11.36321108735458"><ele>299.0</ele><time>2026-04-26T12:59:11Z</time></trkpt><trkpt lat="43.99411508422525" lon="11.363197276763396"><ele>299.0</ele><time>2026-04-26T12:59:12Z</time></trkpt><trkpt lat="43.993992562885644" lon="11.363190278022731"><ele>297.5</ele><time>2026-04-26T12:59:13Z</time></trkpt><trkpt lat="43.99387097858812" lon="11.363180560315849"><ele>296.0</ele><time>2026-04-26T12:59:14Z</time></trkpt><trkpt lat="43.99374882358235" lon="11.3631756159593"><ele>294.5</ele><time>2026-04-26T12:59:15Z</time></trkpt><trkpt lat="43.99362720509598" lon="11.363173956366168"><ele>293.0</ele><time>2026-04-26T12:59:16Z</time></trkpt><trkpt lat="43.993505614893714" lon="11.363162409850993"><ele>293.0</ele><time>2026-04-26T12:59:17Z</time></trkpt><trkpt lat="43.993388479662606" lon="11.363166767734024"><ele>293.0</ele><time>2026-04-26T12:59:18Z</time></trkpt><trkpt lat="43.99327466524057" lon="11.363171661151718"><ele>293.0</ele><time>2026-04-26T12:59:19Z</time></trkpt><trkpt lat="43.993170182738226" lon="11.363174431862667"><ele>293.0</ele><time>2026-04-26T12:59:20Z</time></trkpt><trkpt lat="43.9930775871944" lon="11.363164394346807"><ele>293.0</ele><time>2026-04-26T12:59:21Z</time></trkpt><trkpt lat="43.99299476674383" lon="11.363127742035843"><ele>292.2857142857143</ele><time>2026-04-26T12:59:22Z</time></trkpt><trkpt lat="43.99292676756587" lon="11.363068684089262"><ele>291.57142857142856</ele><time>2026-04-26T12:59:23Z</time></trkpt><trkpt lat="43.99285880003561" lon="11.36303587407272"><ele>290.8571428571429</ele><time>2026-04-26T12:59:23.999Z</time></trkpt><trkpt lat="43.992791165506404" lon="11.363051581144635"><ele>290.1428571428571</ele><time>2026-04-26T12:59:24.999Z</time></trkpt><trkpt lat="43.992731233943005" lon="11.363096739404753"><ele>289.42857142857144</ele><time>2026-04-26T12:59:25.999Z</time></trkpt><trkpt lat="43.99268712149817" lon="11.363167603949167"><ele>288.7142857142857</ele><time>2026-04-26T12:59:26.999Z</time></trkpt><trkpt lat="43.99266523775545" lon="11.363256458466616"><ele>288.0</ele><time>2026-04-26T12:59:27.999Z</time></trkpt><trkpt lat="43.992650466251696" lon="11.363352355307834"><ele>288.0</ele><time>2026-04-26T12:59:28.999Z</time></trkpt><trkpt lat="43.992623456830856" lon="11.363446085965148"><ele>288.0</ele><time>2026-04-26T12:59:29.999Z</time></trkpt><trkpt lat="43.992575301614075" lon="11.363531751593428"><ele>288.0</ele><time>2026-04-26T12:59:30.999Z</time></trkpt><trkpt lat="43.9925137070456" lon="11.363615107543101"><ele>288.0</ele><time>2026-04-26T12:59:31.999Z</time></trkpt><trkpt lat="43.99244973570953" lon="11.363701270985299"><ele>288.0</ele><time>2026-04-26T12:59:32.999Z</time></trkpt><trkpt lat="43.99238948847743" lon="11.363790904655207"><ele>288.0</ele><time>2026-04-26T12:59:33.999Z</time></trkpt><trkpt lat="43.992335811709374" lon="11.363885109058897"><ele>286.5</ele><time>2026-04-26T12:59:34.999Z</time></trkpt><trkpt lat="43.9922831154881" lon="11.36398247791753"><ele>285.0</ele><time>2026-04-26T12:59:35.999Z</time></trkpt><trkpt lat="43.99223284530562" lon="11.36408253551069"><ele>283.5</ele><time>2026-04-26T12:59:36.999Z</time></trkpt><trkpt lat="43.992186647909314" lon="11.364184934961346"><ele>282.0</ele><time>2026-04-26T12:59:37.999Z</time></trkpt><trkpt lat="43.99214324351773" lon="11.364291150017113"><ele>280.5</ele><time>2026-04-26T12:59:38.999Z</time></trkpt><trkpt lat="43.992102789914895" lon="11.364399362439542"><ele>279.0</ele><time>2026-04-26T12:59:39.999Z</time></trkpt><trkpt lat="43.992061390324054" lon="11.364508370375251"><ele>279.0</ele><time>2026-04-26T12:59:40.999Z</time></trkpt><trkpt lat="43.99201952944996" lon="11.364616091632511"><ele>279.0</ele><time>2026-04-26T12:59:41.999Z</time></trkpt><trkpt lat="43.99198057436918" lon="11.364723454042702"><ele>279.0</ele><time>2026-04-26T12:59:42.999Z</time></trkpt><trkpt lat="43.99194383240073" lon="11.364831303028863"><ele>279.0</ele><time>2026-04-26T12:59:43.999Z</time></trkpt><trkpt lat="43.99190501521261" lon="11.364939363788292"><ele>279.0</ele><time>2026-04-26T12:59:44.999Z</time></trkpt><trkpt lat="43.99186363005996" lon="11.365048462738404"><ele>279.0</ele><time>2026-04-26T12:59:45.999Z</time></trkpt><trkpt lat="43.991822833448985" lon="11.365160710417818"><ele>277.0</ele><time>2026-04-26T12:59:46.999Z</time></trkpt><trkpt lat="43.991782592090445" lon="11.365276317458296"><ele>275.0</ele><time>2026-04-26T12:59:47.999Z</time></trkpt><trkpt lat="43.99174180741883" lon="11.365392118185285"><ele>273.0</ele><time>2026-04-26T12:59:48.999Z</time></trkpt><trkpt lat="43.99170362046474" lon="11.365515357036488"><ele>271.0</ele><time>2026-04-26T12:59:49.999Z</time></trkpt><trkpt lat="43.99166084626947" lon="11.365635509751582"><ele>269.0</ele><time>2026-04-26T12:59:50.999Z</time></trkpt><trkpt lat="43.99161346351288" lon="11.365767109697684"><ele>266.75</ele><time>2026-04-26T12:59:51.999Z</time></trkpt><trkpt lat="43.991566954359534" lon="11.365903474236786"><ele>264.5</ele><time>2026-04-26T12:59:52.999Z</time></trkpt><trkpt lat="43.99151920668535" lon="11.3660447465517"><ele>262.25</ele><time>2026-04-26T12:59:53.999Z</time></trkpt><trkpt lat="43.99146545475653" lon="11.366188026703172"><ele>260.0</ele><time>2026-04-26T12:59:54.999Z</time></trkpt><trkpt lat="43.99141125424002" lon="11.366338253101956"><ele>258.25</ele><time>2026-04-26T12:59:55.999Z</time></trkpt><trkpt lat="43.99135513729302" lon="11.366493282544194"><ele>256.5</ele><time>2026-04-26T12:59:56.999Z</time></trkpt><trkpt lat="43.991294828746845" lon="11.366645313109236"><ele>254.75</ele><time>2026-04-26T12:59:58Z</time></trkpt><trkpt lat="43.99123704648992" lon="11.366807580356582"><ele>253.0</ele><time>2026-04-26T12:59:59Z</time></trkpt><trkpt lat="43.99117747509594" lon="11.366984311348098"><ele>253.0</ele><time>2026-04-26T13:00:00Z</time></trkpt><trkpt lat="43.99111704668854" lon="11.36716210344247"><ele>253.0</ele><time>2026-04-26T13:00:01Z</time></trkpt><trkpt lat="43.991054574991416" lon="11.367352101141027"><ele>253.0</ele><time>2026-04-26T13:00:02Z</time></trkpt><trkpt lat="43.99099223245914" lon="11.367551612875253"><ele>253.0</ele><time>2026-04-26T13:00:03Z</time></trkpt><trkpt lat="43.990927285688706" lon="11.367773279128338"><ele>251.33333333333331</ele><time>2026-04-26T13:00:04Z</time></trkpt><trkpt lat="43.99086804270663" lon="11.367996424175875"><ele>249.66666666666669</ele><time>2026-04-26T13:00:05Z</time></trkpt><trkpt lat="43.99080343541807" lon="11.368224763301672"><ele>248.0</ele><time>2026-04-26T13:00:06Z</time></trkpt><trkpt lat="43.99073148912738" lon="11.368454590820738"><ele>246.33333333333334</ele><time>2026-04-26T13:00:07Z</time></trkpt><trkpt lat="43.99066364478769" lon="11.368694974119794"><ele>244.66666666666669</ele><time>2026-04-26T13:00:08Z</time></trkpt><trkpt lat="43.99059178342596" lon="11.368933825902314"><ele>243.0</ele><time>2026-04-26T13:00:09Z</time></trkpt><trkpt lat="43.9905203090582" lon="11.369179316605148"><ele>243.0</ele><time>2026-04-26T13:00:10Z</time></trkpt><trkpt lat="43.99044693065292" lon="11.369437412039682"><ele>243.0</ele><time>2026-04-26T13:00:11Z</time></trkpt><trkpt lat="43.99037958147067" lon="11.369693687266134"><ele>243.0</ele><time>2026-04-26T13:00:12Z</time></trkpt><trkpt lat="43.99031321446215" lon="11.369935955714416"><ele>244.33333333333331</ele><time>2026-04-26T13:00:13Z</time></trkpt><trkpt lat="43.990236500916645" lon="11.370177256511994"><ele>245.66666666666666</ele><time>2026-04-26T13:00:14Z</time></trkpt><trkpt lat="43.990148259470736" lon="11.370419578519943"><ele>247.0</ele><time>2026-04-26T13:00:15Z</time></trkpt><trkpt lat="43.99003013429869" lon="11.370652959278289"><ele>250.66666666666666</ele><time>2026-04-26T13:00:16Z</time></trkpt><trkpt lat="43.98990211985423" lon="11.370862020138707"><ele>254.33333333333331</ele><time>2026-04-26T13:00:17Z</time></trkpt><trkpt lat="43.98975732276819" lon="11.3710237394922"><ele>258.0</ele><time>2026-04-26T13:00:18Z</time></trkpt><trkpt lat="43.989609563825795" lon="11.37117491998323"><ele>258.0</ele><time>2026-04-26T13:00:19Z</time></trkpt><trkpt lat="43.98944397110899" lon="11.371309058374177"><ele>258.0</ele><time>2026-04-26T13:00:20Z</time></trkpt><trkpt lat="43.9892792326122" lon="11.371454442287448"><ele>258.0</ele><time>2026-04-26T13:00:21Z</time></trkpt><trkpt lat="43.98910801129444" lon="11.371577062078357"><ele>260.3333333333333</ele><time>2026-04-26T13:00:22Z</time></trkpt><trkpt lat="43.98895207145663" lon="11.371713806152945"><ele>262.66666666666663</ele><time>2026-04-26T13:00:23Z</time></trkpt><trkpt lat="43.988815965672394" lon="11.371854099909244"><ele>265.0</ele><time>2026-04-26T13:00:24Z</time></trkpt><trkpt lat="43.98868620417045" lon="11.37200102876846"><ele>265.0</ele><time>2026-04-26T13:00:25Z</time></trkpt><trkpt lat="43.988557605094904" lon="11.372179377386729"><ele>265.0</ele><time>2026-04-26T13:00:26Z</time></trkpt><trkpt lat="43.98842916382547" lon="11.372390045188402"><ele>265.0</ele><time>2026-04-26T13:00:27Z</time></trkpt><trkpt lat="43.988297384998155" lon="11.372614227003732"><ele>262.66666666666663</ele><time>2026-04-26T13:00:28Z</time></trkpt><trkpt lat="43.98816023572914" lon="11.372845317813214"><ele>260.3333333333333</ele><time>2026-04-26T13:00:29Z</time></trkpt><trkpt lat="43.988020228473474" lon="11.373077944901759"><ele>258.0</ele><time>2026-04-26T13:00:30Z</time></trkpt><trkpt lat="43.987880705800805" lon="11.373306765388696"><ele>256.6666666666667</ele><time>2026-04-26T13:00:31Z</time></trkpt><trkpt lat="43.98774207598335" lon="11.37353365432276"><ele>255.33333333333334</ele><time>2026-04-26T13:00:32Z</time></trkpt><trkpt lat="43.98760672079471" lon="11.373757093875287"><ele>254.0</ele><time>2026-04-26T13:00:33Z</time></trkpt><trkpt lat="43.98747705896951" lon="11.373982312844136"><ele>253.33333333333334</ele><time>2026-04-26T13:00:34Z</time></trkpt><trkpt lat="43.98735239570479" lon="11.37420602831533"><ele>252.66666666666669</ele><time>2026-04-26T13:00:35Z</time></trkpt><trkpt lat="43.98722933266061" lon="11.37442590639667"><ele>252.0</ele><time>2026-04-26T13:00:36Z</time></trkpt><trkpt lat="43.987109786999596" lon="11.374648284910611"><ele>252.33333333333331</ele><time>2026-04-26T13:00:37Z</time></trkpt><trkpt lat="43.98699529739157" lon="11.374870639185886"><ele>252.66666666666666</ele><time>2026-04-26T13:00:38Z</time></trkpt><trkpt lat="43.986880829448744" lon="11.375091271686234"><ele>253.0</ele><time>2026-04-26T13:00:39Z</time></trkpt><trkpt lat="43.98676666695593" lon="11.375310665506529"><ele>252.0</ele><time>2026-04-26T13:00:40Z</time></trkpt><trkpt lat="43.98665592219982" lon="11.375532569199397"><ele>251.0</ele><time>2026-04-26T13:00:41Z</time></trkpt><trkpt lat="43.98655186228972" lon="11.375748486024628"><ele>250.0</ele><time>2026-04-26T13:00:42Z</time></trkpt><trkpt lat="43.986452976913064" lon="11.375951917035382"><ele>250.0</ele><time>2026-04-26T13:00:43Z</time></trkpt><trkpt lat="43.98635979258061" lon="11.376151247048314"><ele>250.0</ele><time>2026-04-26T13:00:44Z</time></trkpt><trkpt lat="43.98627408973026" lon="11.376331777072222"><ele>250.0</ele><time>2026-04-26T13:00:45Z</time></trkpt><trkpt lat="43.9862083289886" lon="11.37651985234569"><ele>249.75</ele><time>2026-04-26T13:00:46Z</time></trkpt><trkpt lat="43.986169111971364" lon="11.376719775647452"><ele>249.5</ele><time>2026-04-26T13:00:47Z</time></trkpt><trkpt lat="43.98615284231859" lon="11.376923680916484"><ele>249.25</ele><time>2026-04-26T13:00:48Z</time></trkpt><trkpt lat="43.98615316328124" lon="11.377122855555154"><ele>249.0</ele><time>2026-04-26T13:00:49Z</time></trkpt><trkpt lat="43.98615907680503" lon="11.377308337026047"><ele>248.6</ele><time>2026-04-26T13:00:50Z</time></trkpt><trkpt lat="43.98616325785387" lon="11.377480662594163"><ele>248.2</ele><time>2026-04-26T13:00:51Z</time></trkpt><trkpt lat="43.986168500448656" lon="11.377633276385238"><ele>247.79999999999998</ele><time>2026-04-26T13:00:52Z</time></trkpt><trkpt lat="43.98616303306478" lon="11.377771990416244"><ele>247.39999999999998</ele><time>2026-04-26T13:00:53Z</time></trkpt><trkpt lat="43.98612527314436" lon="11.377890207014312"><ele>247.0</ele><time>2026-04-26T13:00:54Z</time></trkpt><trkpt lat="43.98606247753277" lon="11.377979332783282"><ele>247.75</ele><time>2026-04-26T13:00:55Z</time></trkpt><trkpt lat="43.98597909155036" lon="11.378036406787942"><ele>248.5</ele><time>2026-04-26T13:00:56Z</time></trkpt><trkpt lat="43.98586807639936" lon="11.378059506090798"><ele>249.25</ele><time>2026-04-26T13:00:57Z</time></trkpt><trkpt lat="43.9857318179482" lon="11.378008975237245"><ele>250.0</ele><time>2026-04-26T13:00:58Z</time></trkpt><trkpt lat="43.98556934131232" lon="11.37796658031083"><ele>250.0</ele><time>2026-04-26T13:00:59Z</time></trkpt><trkpt lat="43.98540253811176" lon="11.377894088097868"><ele>250.0</ele><time>2026-04-26T13:01:00Z</time></trkpt><trkpt lat="43.98524183586264" lon="11.377799369752125"><ele>250.0</ele><time>2026-04-26T13:01:01Z</time></trkpt><trkpt lat="43.985070189968184" lon="11.377691071367854"><ele>249.66666666666666</ele><time>2026-04-26T13:01:02Z</time></trkpt><trkpt lat="43.98492728418856" lon="11.377525842615936"><ele>249.33333333333331</ele><time>2026-04-26T13:01:03Z</time></trkpt><trkpt lat="43.984777339912114" lon="11.377373759677555"><ele>249.0</ele><time>2026-04-26T13:01:04Z</time></trkpt><trkpt lat="43.9846182669908" lon="11.37724077191952"><ele>249.0</ele><time>2026-04-26T13:01:05Z</time></trkpt><trkpt lat="43.98446759912444" lon="11.377090694829098"><ele>249.0</ele><time>2026-04-26T13:01:06Z</time></trkpt><trkpt lat="43.9843250744921" lon="11.376919241037772"><ele>249.0</ele><time>2026-04-26T13:01:07Z</time></trkpt><trkpt lat="43.98416368497405" lon="11.376783892339404"><ele>249.0</ele><time>2026-04-26T13:01:08Z</time></trkpt><trkpt lat="43.984011889220305" lon="11.37663097737116"><ele>249.0</ele><time>2026-04-26T13:01:09Z</time></trkpt><trkpt lat="43.9838656831533" lon="11.37647481893091"><ele>249.0</ele><time>2026-04-26T13:01:10Z</time></trkpt><trkpt lat="43.98371702233089" lon="11.376326294720311"><ele>248.66666666666669</ele><time>2026-04-26T13:01:11Z</time></trkpt><trkpt lat="43.98356522782465" lon="11.376182223058134"><ele>248.33333333333334</ele><time>2026-04-26T13:01:12Z</time></trkpt><trkpt lat="43.983406426316314" lon="11.376044373308334"><ele>248.0</ele><time>2026-04-26T13:01:13Z</time></trkpt><trkpt lat="43.983235520204694" lon="11.375919580076657"><ele>247.66666666666669</ele><time>2026-04-26T13:01:14Z</time></trkpt><trkpt lat="43.983058875884474" lon="11.375809241651991"><ele>247.33333333333331</ele><time>2026-04-26T13:01:15Z</time></trkpt><trkpt lat="43.98287906798301" lon="11.375699146067303"><ele>247.0</ele><time>2026-04-26T13:01:16Z</time></trkpt><trkpt lat="43.98270401825521" lon="11.375567778600931"><ele>246.66666666666666</ele><time>2026-04-26T13:01:17Z</time></trkpt><trkpt lat="43.982522625912424" lon="11.375452727232393"><ele>246.33333333333331</ele><time>2026-04-26T13:01:18Z</time></trkpt><trkpt lat="43.982339073786534" lon="11.375336305973907"><ele>246.0</ele><time>2026-04-26T13:01:19Z</time></trkpt><trkpt lat="43.98214509127789" lon="11.375238034367152"><ele>246.0</ele><time>2026-04-26T13:01:20Z</time></trkpt><trkpt lat="43.98196055788316" lon="11.375109346643928"><ele>246.0</ele><time>2026-04-26T13:01:21Z</time></trkpt><trkpt lat="43.981773856668" lon="11.374980308561668"><ele>246.0</ele><time>2026-04-26T13:01:22Z</time></trkpt><trkpt lat="43.981586147698174" lon="11.374835751872865"><ele>245.0</ele><time>2026-04-26T13:01:23Z</time></trkpt><trkpt lat="43.98140154829798" lon="11.374677815172408"><ele>244.0</ele><time>2026-04-26T13:01:24Z</time></trkpt><trkpt lat="43.98121930373262" lon="11.374513536987584"><ele>243.0</ele><time>2026-04-26T13:01:25Z</time></trkpt><trkpt lat="43.9810357740645" lon="11.374346167873618"><ele>243.0</ele><time>2026-04-26T13:01:26Z</time></trkpt><trkpt lat="43.98085267771701" lon="11.374179598375349"><ele>243.0</ele><time>2026-04-26T13:01:27Z</time></trkpt><trkpt lat="43.98066740946827" lon="11.374013183205792"><ele>243.0</ele><time>2026-04-26T13:01:28Z</time></trkpt><trkpt lat="43.980483868757865" lon="11.37384569354829"><ele>242.33333333333331</ele><time>2026-04-26T13:01:29Z</time></trkpt><trkpt lat="43.98029880739521" lon="11.373678670772538"><ele>241.66666666666666</ele><time>2026-04-26T13:01:30Z</time></trkpt><trkpt lat="43.98011331344306" lon="11.373511550540313"><ele>241.0</ele><time>2026-04-26T13:01:31Z</time></trkpt><trkpt lat="43.979926854569776" lon="11.37334485725482"><ele>240.33333333333331</ele><time>2026-04-26T13:01:32Z</time></trkpt><trkpt lat="43.9797392147231" lon="11.373174675409889"><ele>239.66666666666669</ele><time>2026-04-26T13:01:33Z</time></trkpt><trkpt lat="43.97955479079089" lon="11.373006740479102"><ele>239.0</ele><time>2026-04-26T13:01:34Z</time></trkpt><trkpt lat="43.979368704726085" lon="11.372839574017048"><ele>238.33333333333334</ele><time>2026-04-26T13:01:35Z</time></trkpt><trkpt lat="43.97918079241526" lon="11.37267218843018"><ele>237.66666666666669</ele><time>2026-04-26T13:01:36Z</time></trkpt><trkpt lat="43.9789947302938" lon="11.372504095567573"><ele>237.0</ele><time>2026-04-26T13:01:37Z</time></trkpt><trkpt lat="43.97880710004161" lon="11.372336415826563"><ele>237.0</ele><time>2026-04-26T13:01:38Z</time></trkpt><trkpt lat="43.97861893824202" lon="11.37216863643049"><ele>237.0</ele><time>2026-04-26T13:01:39Z</time></trkpt><trkpt lat="43.978433941206305" lon="11.371998791863005"><ele>237.0</ele><time>2026-04-26T13:01:40Z</time></trkpt><trkpt lat="43.978249556947866" lon="11.371830109014645"><ele>236.66666666666669</ele><time>2026-04-26T13:01:41Z</time></trkpt><trkpt lat="43.978064940312244" lon="11.37166278554683"><ele>236.33333333333334</ele><time>2026-04-26T13:01:42Z</time></trkpt><trkpt lat="43.97788093270901" lon="11.371494544862868"><ele>236.0</ele><time>2026-04-26T13:01:43Z</time></trkpt><trkpt lat="43.9776960903372" lon="11.371325558934576"><ele>235.66666666666669</ele><time>2026-04-26T13:01:44Z</time></trkpt><trkpt lat="43.977512219422415" lon="11.371153924183032"><ele>235.33333333333331</ele><time>2026-04-26T13:01:45Z</time></trkpt><trkpt lat="43.97733043715428" lon="11.370978841653404"><ele>235.0</ele><time>2026-04-26T13:01:46Z</time></trkpt><trkpt lat="43.97715099451874" lon="11.370796956991137"><ele>235.0</ele><time>2026-04-26T13:01:47Z</time></trkpt><trkpt lat="43.97697265268065" lon="11.370615079873861"><ele>235.0</ele><time>2026-04-26T13:01:48Z</time></trkpt><trkpt lat="43.97679636112049" lon="11.370431207790828"><ele>235.0</ele><time>2026-04-26T13:01:49Z</time></trkpt><trkpt lat="43.97662146704753" lon="11.370252236130371"><ele>234.33333333333331</ele><time>2026-04-26T13:01:50Z</time></trkpt><trkpt lat="43.976442070553524" lon="11.370081814520516"><ele>233.66666666666669</ele><time>2026-04-26T13:01:50.999Z</time></trkpt><trkpt lat="43.97626301841892" lon="11.369914603638493"><ele>233.0</ele><time>2026-04-26T13:01:51.999Z</time></trkpt><trkpt lat="43.97607113628071" lon="11.369769722427854"><ele>232.0</ele><time>2026-04-26T13:01:52.999Z</time></trkpt><trkpt lat="43.97587307198498" lon="11.369639418022038"><ele>231.0</ele><time>2026-04-26T13:01:53.999Z</time></trkpt><trkpt lat="43.97567029897443" lon="11.36952318022961"><ele>230.0</ele><time>2026-04-26T13:01:54.999Z</time></trkpt><trkpt lat="43.97546436649227" lon="11.369416260872335"><ele>230.0</ele><time>2026-04-26T13:01:55.999Z</time></trkpt><trkpt lat="43.97525739026082" lon="11.369306703066556"><ele>230.0</ele><time>2026-04-26T13:01:56.999Z</time></trkpt><trkpt lat="43.975052495777184" lon="11.369196991179614"><ele>230.0</ele><time>2026-04-26T13:01:57.999Z</time></trkpt><trkpt lat="43.97484712406812" lon="11.36908525337804"><ele>230.0</ele><time>2026-04-26T13:01:58.999Z</time></trkpt><trkpt lat="43.97464385649984" lon="11.368974784220184"><ele>230.0</ele><time>2026-04-26T13:01:59.999Z</time></trkpt><trkpt lat="43.97444024188844" lon="11.368866638545004"><ele>230.0</ele><time>2026-04-26T13:02:00.999Z</time></trkpt><trkpt lat="43.974239458513466" lon="11.368757637547375"><ele>229.33333333333334</ele><time>2026-04-26T13:02:01.999Z</time></trkpt><trkpt lat="43.97404299342925" lon="11.368647644175274"><ele>228.66666666666669</ele><time>2026-04-26T13:02:02.999Z</time></trkpt><trkpt lat="43.973850473789724" lon="11.368540511830254"><ele>228.0</ele><time>2026-04-26T13:02:03.999Z</time></trkpt><trkpt lat="43.97366747521046" lon="11.368439220734537"><ele>228.0</ele><time>2026-04-26T13:02:04.999Z</time></trkpt><trkpt lat="43.97349261017899" lon="11.3683437231168"><ele>228.0</ele><time>2026-04-26T13:02:05.999Z</time></trkpt><trkpt lat="43.97332245147835" lon="11.368251534956098"><ele>228.0</ele><time>2026-04-26T13:02:06.999Z</time></trkpt><trkpt lat="43.97315773700995" lon="11.36815940712662"><ele>228.66666666666669</ele><time>2026-04-26T13:02:07.999Z</time></trkpt><trkpt lat="43.97300166829911" lon="11.368068676866148"><ele>229.33333333333334</ele><time>2026-04-26T13:02:08.999Z</time></trkpt><trkpt lat="43.97284865113077" lon="11.36799037759158"><ele>230.0</ele><time>2026-04-26T13:02:09.999Z</time></trkpt><trkpt lat="43.972701355803956" lon="11.367907575035757"><ele>229.0</ele><time>2026-04-26T13:02:10.999Z</time></trkpt><trkpt lat="43.972565564937376" lon="11.367814925672441"><ele>228.0</ele><time>2026-04-26T13:02:11.999Z</time></trkpt><trkpt lat="43.97243653038792" lon="11.36770989859643"><ele>227.0</ele><time>2026-04-26T13:02:12.999Z</time></trkpt><trkpt lat="43.972311953528965" lon="11.367595794405759"><ele>227.0</ele><time>2026-04-26T13:02:13.999Z</time></trkpt><trkpt lat="43.97219222700821" lon="11.36746799424129"><ele>227.0</ele><time>2026-04-26T13:02:14.999Z</time></trkpt><trkpt lat="43.972078262479556" lon="11.367319040708725"><ele>227.0</ele><time>2026-04-26T13:02:15.999Z</time></trkpt><trkpt lat="43.971978984042075" lon="11.367154390217697"><ele>226.0</ele><time>2026-04-26T13:02:16.999Z</time></trkpt><trkpt lat="43.97189037723793" lon="11.366977692578303"><ele>225.0</ele><time>2026-04-26T13:02:17.999Z</time></trkpt><trkpt lat="43.97180996613894" lon="11.366790193612575"><ele>224.0</ele><time>2026-04-26T13:02:18.999Z</time></trkpt><trkpt lat="43.97173673189923" lon="11.366589196025867"><ele>224.0</ele><time>2026-04-26T13:02:19.999Z</time></trkpt><trkpt lat="43.97167005918054" lon="11.366377574003169"><ele>224.0</ele><time>2026-04-26T13:02:20.999Z</time></trkpt><trkpt lat="43.97159587218515" lon="11.366169793680967"><ele>224.0</ele><time>2026-04-26T13:02:21.999Z</time></trkpt><trkpt lat="43.97149980858136" lon="11.365983773333577"><ele>224.0</ele><time>2026-04-26T13:02:22.999Z</time></trkpt><trkpt lat="43.971374168180745" lon="11.365826631819422"><ele>224.0</ele><time>2026-04-26T13:02:23.999Z</time></trkpt><trkpt lat="43.97122993134674" lon="11.365696822632325"><ele>224.0</ele><time>2026-04-26T13:02:24.999Z</time></trkpt><trkpt lat="43.97107652248467" lon="11.365593376529295"><ele>223.0</ele><time>2026-04-26T13:02:25.999Z</time></trkpt><trkpt lat="43.97091842128934" lon="11.365521316074547"><ele>222.0</ele><time>2026-04-26T13:02:26.999Z</time></trkpt><trkpt lat="43.9707527427979" lon="11.36547860815038"><ele>221.0</ele><time>2026-04-26T13:02:27.999Z</time></trkpt><trkpt lat="43.97058398395987" lon="11.365477423827121"><ele>221.0</ele><time>2026-04-26T13:02:28.999Z</time></trkpt><trkpt lat="43.97041439920116" lon="11.365516132544322"><ele>221.0</ele><time>2026-04-26T13:02:29.999Z</time></trkpt><trkpt lat="43.97024858146726" lon="11.365593751675055"><ele>221.0</ele><time>2026-04-26T13:02:30.999Z</time></trkpt><trkpt lat="43.97008807107746" lon="11.3656976033865"><ele>224.66666666666669</ele><time>2026-04-26T13:02:31.999Z</time></trkpt><trkpt lat="43.969927527911516" lon="11.365801269036035"><ele>228.33333333333331</ele><time>2026-04-26T13:02:32.999Z</time></trkpt><trkpt lat="43.96976507489307" lon="11.365880544147707"><ele>232.0</ele><time>2026-04-26T13:02:33.999Z</time></trkpt><trkpt lat="43.96959623241554" lon="11.365930666724973"><ele>232.0</ele><time>2026-04-26T13:02:34.999Z</time></trkpt><trkpt lat="43.96942686819425" lon="11.36595451446603"><ele>232.0</ele><time>2026-04-26T13:02:35.999Z</time></trkpt><trkpt lat="43.96925648605043" lon="11.365949002552822"><ele>232.0</ele><time>2026-04-26T13:02:36.999Z</time></trkpt><trkpt lat="43.96908351754224" lon="11.365913078082961"><ele>230.33333333333331</ele><time>2026-04-26T13:02:37.999Z</time></trkpt><trkpt lat="43.968906176741896" lon="11.365866543988773"><ele>228.66666666666669</ele><time>2026-04-26T13:02:38.999Z</time></trkpt><trkpt lat="43.96873209625805" lon="11.365796491828686"><ele>227.0</ele><time>2026-04-26T13:02:39.999Z</time></trkpt><trkpt lat="43.96854885151967" lon="11.365750985680853"><ele>227.0</ele><time>2026-04-26T13:02:40.999Z</time></trkpt><trkpt lat="43.96836595004276" lon="11.365691792240828"><ele>227.0</ele><time>2026-04-26T13:02:41.999Z</time></trkpt><trkpt lat="43.96818490122187" lon="11.365630670009336"><ele>227.0</ele><time>2026-04-26T13:02:42.999Z</time></trkpt><trkpt lat="43.96800816133948" lon="11.365574070045813"><ele>225.66666666666669</ele><time>2026-04-26T13:02:43.999Z</time></trkpt><trkpt lat="43.9678378953162" lon="11.365520597130772"><ele>224.33333333333331</ele><time>2026-04-26T13:02:44.999Z</time></trkpt><trkpt lat="43.96767199822223" lon="11.365473115817291"><ele>223.0</ele><time>2026-04-26T13:02:45.999Z</time></trkpt><trkpt lat="43.96751171399467" lon="11.365426485660528"><ele>223.0</ele><time>2026-04-26T13:02:46.999Z</time></trkpt><trkpt lat="43.96736118877902" lon="11.365382648822058"><ele>223.0</ele><time>2026-04-26T13:02:47.999Z</time></trkpt><trkpt lat="43.967219433961816" lon="11.36531251123648"><ele>223.0</ele><time>2026-04-26T13:02:48.999Z</time></trkpt><trkpt lat="43.96708992775415" lon="11.365267650377307"><ele>223.0</ele><time>2026-04-26T13:02:49.999Z</time></trkpt><trkpt lat="43.966977333752396" lon="11.365232774360948"><ele>223.0</ele><time>2026-04-26T13:02:50.999Z</time></trkpt><trkpt lat="43.96688038517463" lon="11.365208295050076"><ele>223.0</ele><time>2026-04-26T13:02:51.999Z</time></trkpt><trkpt lat="43.96680504711756" lon="11.365217022305446"><ele>223.0</ele><time>2026-04-26T13:02:52.999Z</time></trkpt><trkpt lat="43.966714153724396" lon="11.365196517922433"><ele>223.0</ele><time>2026-04-26T13:02:54.999Z</time></trkpt><trkpt lat="43.96666459654329" lon="11.365481321763223"><ele>223.0</ele><time>2026-04-26T13:02:56.999Z</time></trkpt><trkpt lat="43.966638929255005" lon="11.365628457185517"><ele>223.0</ele><time>2026-04-26T13:02:57.999Z</time></trkpt><trkpt lat="43.96661248126285" lon="11.365809624107847"><ele>223.0</ele><time>2026-04-26T13:02:58.999Z</time></trkpt><trkpt lat="43.96657376121973" lon="11.36600700113975"><ele>223.0</ele><time>2026-04-26T13:02:59.999Z</time></trkpt><trkpt lat="43.96653628528003" lon="11.366201932024108"><ele>221.33333333333331</ele><time>2026-04-26T13:03:00.999Z</time></trkpt><trkpt lat="43.96649703817267" lon="11.366423729132991"><ele>219.66666666666669</ele><time>2026-04-26T13:03:01.999Z</time></trkpt><trkpt lat="43.9664487731611" lon="11.366647702080424"><ele>218.0</ele><time>2026-04-26T13:03:02.999Z</time></trkpt><trkpt lat="43.96641345429553" lon="11.36687110576694"><ele>218.0</ele><time>2026-04-26T13:03:03.999Z</time></trkpt><trkpt lat="43.96637352741465" lon="11.367094256060897"><ele>218.0</ele><time>2026-04-26T13:03:04.999Z</time></trkpt><trkpt lat="43.96632828907828" lon="11.367321069224381"><ele>218.0</ele><time>2026-04-26T13:03:05.999Z</time></trkpt><trkpt lat="43.96628359417441" lon="11.367547639459492"><ele>218.0</ele><time>2026-04-26T13:03:06.999Z</time></trkpt><trkpt lat="43.966239576252896" lon="11.3677756305671"><ele>218.0</ele><time>2026-04-26T13:03:07.999Z</time></trkpt><trkpt lat="43.96619438042442" lon="11.368008322780739"><ele>218.0</ele><time>2026-04-26T13:03:08.999Z</time></trkpt><trkpt lat="43.966139477273025" lon="11.368239762607987"><ele>218.0</ele><time>2026-04-26T13:03:09.999Z</time></trkpt><trkpt lat="43.96606686012766" lon="11.368466056688993"><ele>218.0</ele><time>2026-04-26T13:03:10.999Z</time></trkpt><trkpt lat="43.9659625456665" lon="11.368655647522433"><ele>218.0</ele><time>2026-04-26T13:03:11.999Z</time></trkpt><trkpt lat="43.96589422609294" lon="11.368908113072495"><ele>217.0</ele><time>2026-04-26T13:03:12.999Z</time></trkpt><trkpt lat="43.96579007823657" lon="11.369116901888281"><ele>216.0</ele><time>2026-04-26T13:03:13.999Z</time></trkpt><trkpt lat="43.96567983512179" lon="11.369323735455435"><ele>215.0</ele><time>2026-04-26T13:03:14.999Z</time></trkpt><trkpt lat="43.96555326575807" lon="11.369531753598912"><ele>215.0</ele><time>2026-04-26T13:03:15.999Z</time></trkpt><trkpt lat="43.965424540999116" lon="11.369738575748055"><ele>215.0</ele><time>2026-04-26T13:03:16.999Z</time></trkpt><trkpt lat="43.96529083019386" lon="11.369953275822086"><ele>215.0</ele><time>2026-04-26T13:03:17.999Z</time></trkpt><trkpt lat="43.96515471646086" lon="11.37017273885128"><ele>214.0</ele><time>2026-04-26T13:03:18.999Z</time></trkpt><trkpt lat="43.96501774980613" lon="11.370388602803699"><ele>213.0</ele><time>2026-04-26T13:03:19.999Z</time></trkpt><trkpt lat="43.964886520151865" lon="11.370603090453896"><ele>212.0</ele><time>2026-04-26T13:03:20.999Z</time></trkpt><trkpt lat="43.96476015586941" lon="11.370806129015811"><ele>211.66666666666669</ele><time>2026-04-26T13:03:21.999Z</time></trkpt><trkpt lat="43.96463106429051" lon="11.37100958727707"><ele>211.33333333333331</ele><time>2026-04-26T13:03:22.999Z</time></trkpt><trkpt lat="43.964491414299836" lon="11.37120734265557"><ele>211.0</ele><time>2026-04-26T13:03:23.999Z</time></trkpt><trkpt lat="43.964337512740634" lon="11.371389188664393"><ele>208.66666666666666</ele><time>2026-04-26T13:03:24.999Z</time></trkpt><trkpt lat="43.96416746389691" lon="11.37155029598812"><ele>206.33333333333331</ele><time>2026-04-26T13:03:25.999Z</time></trkpt><trkpt lat="43.96398474752736" lon="11.371689428866375"><ele>204.0</ele><time>2026-04-26T13:03:26.999Z</time></trkpt><trkpt lat="43.963790108979154" lon="11.37180464339288"><ele>204.0</ele><time>2026-04-26T13:03:27.999Z</time></trkpt><trkpt lat="43.96358790605801" lon="11.371900020617193"><ele>204.0</ele><time>2026-04-26T13:03:28.999Z</time></trkpt><trkpt lat="43.9633777014786" lon="11.371934991282004"><ele>204.0</ele><time>2026-04-26T13:03:29.999Z</time></trkpt><trkpt lat="43.9631777793658" lon="11.371975726882892"><ele>203.33333333333331</ele><time>2026-04-26T13:03:30.999Z</time></trkpt><trkpt lat="43.96298671449392" lon="11.372011117243284"><ele>202.66666666666666</ele><time>2026-04-26T13:03:31.999Z</time></trkpt><trkpt lat="43.96280573746253" lon="11.372048089005876"><ele>202.0</ele><time>2026-04-26T13:03:32.999Z</time></trkpt><trkpt lat="43.96262662669897" lon="11.372080024630282"><ele>202.33333333333331</ele><time>2026-04-26T13:03:33.999Z</time></trkpt><trkpt lat="43.96244767950576" lon="11.372113055936977"><ele>202.66666666666669</ele><time>2026-04-26T13:03:34.999Z</time></trkpt><trkpt lat="43.9622709189216" lon="11.372143966858832"><ele>203.0</ele><time>2026-04-26T13:03:35.999Z</time></trkpt><trkpt lat="43.96210998489805" lon="11.372162680208545"><ele>203.0</ele><time>2026-04-26T13:03:36.999Z</time></trkpt><trkpt lat="43.961950505287874" lon="11.37218944711301"><ele>203.0</ele><time>2026-04-26T13:03:37.999Z</time></trkpt><trkpt lat="43.96179814311854" lon="11.372219428622515"><ele>203.0</ele><time>2026-04-26T13:03:38.999Z</time></trkpt><trkpt lat="43.96165250807222" lon="11.372243575074402"><ele>203.0</ele><time>2026-04-26T13:03:39.999Z</time></trkpt><trkpt lat="43.961512478948656" lon="11.372262180562108"><ele>203.0</ele><time>2026-04-26T13:03:40.999Z</time></trkpt><trkpt lat="43.96137036143998" lon="11.37226859837067"><ele>203.0</ele><time>2026-04-26T13:03:41.999Z</time></trkpt><trkpt lat="43.961224957119335" lon="11.3722636198131"><ele>203.0</ele><time>2026-04-26T13:03:42.999Z</time></trkpt><trkpt lat="43.96107975263578" lon="11.372224323184493"><ele>203.0</ele><time>2026-04-26T13:03:43.999Z</time></trkpt><trkpt lat="43.960931718421826" lon="11.372214656011861"><ele>203.0</ele><time>2026-04-26T13:03:44.999Z</time></trkpt><trkpt lat="43.96078580726129" lon="11.372173338171077"><ele>203.0</ele><time>2026-04-26T13:03:45.999Z</time></trkpt><trkpt lat="43.96064369763047" lon="11.372136690551496"><ele>203.0</ele><time>2026-04-26T13:03:46.999Z</time></trkpt><trkpt lat="43.960506569941174" lon="11.372101906042204"><ele>202.5</ele><time>2026-04-26T13:03:47.999Z</time></trkpt><trkpt lat="43.96036927549371" lon="11.372075260035443"><ele>202.0</ele><time>2026-04-26T13:03:48.999Z</time></trkpt><trkpt lat="43.96023505742833" lon="11.372061744713037"><ele>201.5</ele><time>2026-04-26T13:03:49.999Z</time></trkpt><trkpt lat="43.960101634297146" lon="11.372052103575708"><ele>201.0</ele><time>2026-04-26T13:03:50.999Z</time></trkpt><trkpt lat="43.9599880479677" lon="11.372030995309483"><ele>200.25</ele><time>2026-04-26T13:03:51.999Z</time></trkpt><trkpt lat="43.95986673841288" lon="11.372004662065192"><ele>199.5</ele><time>2026-04-26T13:03:52.999Z</time></trkpt><trkpt lat="43.9597299085399" lon="11.371992745550497"><ele>198.75</ele><time>2026-04-26T13:03:53.999Z</time></trkpt><trkpt lat="43.959621735163914" lon="11.371992528273694"><ele>198.0</ele><time>2026-04-26T13:03:54.999Z</time></trkpt><trkpt lat="43.95952546240696" lon="11.372000101596308"><ele>198.0</ele><time>2026-04-26T13:03:55.999Z</time></trkpt><trkpt lat="43.95943953214971" lon="11.3720433852774"><ele>198.0</ele><time>2026-04-26T13:03:56.999Z</time></trkpt><trkpt lat="43.95936088962799" lon="11.372116331188433"><ele>198.0</ele><time>2026-04-26T13:03:57.999Z</time></trkpt><trkpt lat="43.95928197030659" lon="11.372207679218116"><ele>198.0</ele><time>2026-04-26T13:03:58.999Z</time></trkpt><trkpt lat="43.95920511460207" lon="11.372309081142996"><ele>198.0</ele><time>2026-04-26T13:03:59.999Z</time></trkpt><trkpt lat="43.95912805714301" lon="11.372416865628114"><ele>197.4</ele><time>2026-04-26T13:04:00.999Z</time></trkpt><trkpt lat="43.959054568986396" lon="11.372525595681145"><ele>196.8</ele><time>2026-04-26T13:04:01.999Z</time></trkpt><trkpt lat="43.95898783367536" lon="11.372618668052366"><ele>196.2</ele><time>2026-04-26T13:04:02.999Z</time></trkpt><trkpt lat="43.9589234431828" lon="11.37268692539712"><ele>195.6</ele><time>2026-04-26T13:04:03.999Z</time></trkpt><trkpt lat="43.958849071288455" lon="11.372728322970293"><ele>195.0</ele><time>2026-04-26T13:04:04.999Z</time></trkpt><trkpt lat="43.958761798834686" lon="11.372720166792579"><ele>195.0</ele><time>2026-04-26T13:04:05.999Z</time></trkpt><trkpt lat="43.958670656529634" lon="11.372713860866586"><ele>195.0</ele><time>2026-04-26T13:04:06.999Z</time></trkpt><trkpt lat="43.95857288088358" lon="11.372721068122283"><ele>195.0</ele><time>2026-04-26T13:04:07.999Z</time></trkpt><trkpt lat="43.95847013644736" lon="11.372716883145081"><ele>195.0</ele><time>2026-04-26T13:04:08.999Z</time></trkpt><trkpt lat="43.958367366721085" lon="11.37274131247471"><ele>195.0</ele><time>2026-04-26T13:04:10Z</time></trkpt><trkpt lat="43.95826057919143" lon="11.372777537389922"><ele>195.2</ele><time>2026-04-26T13:04:11Z</time></trkpt><trkpt lat="43.95815200654466" lon="11.37281592695554"><ele>195.4</ele><time>2026-04-26T13:04:12Z</time></trkpt><trkpt lat="43.95804623013457" lon="11.372853353865642"><ele>195.60000000000002</ele><time>2026-04-26T13:04:13Z</time></trkpt><trkpt lat="43.957947808110085" lon="11.372891368753903"><ele>195.8</ele><time>2026-04-26T13:04:14Z</time></trkpt><trkpt lat="43.957856498218966" lon="11.372926415358355"><ele>196.0</ele><time>2026-04-26T13:04:15Z</time></trkpt><trkpt lat="43.95776966321209" lon="11.37295930585289"><ele>195.99999999999997</ele><time>2026-04-26T13:04:16Z</time></trkpt><trkpt lat="43.95768580103195" lon="11.372987663028056"><ele>196.0</ele><time>2026-04-26T13:04:17Z</time></trkpt><trkpt lat="43.957606681219914" lon="11.373014076934968"><ele>196.0</ele><time>2026-04-26T13:04:18Z</time></trkpt><trkpt lat="43.957538954918014" lon="11.373037630396604"><ele>196.0</ele><time>2026-04-26T13:04:19Z</time></trkpt><trkpt lat="43.957461934877756" lon="11.373065874003382"><ele>195.99999999999997</ele><time>2026-04-26T13:04:21Z</time></trkpt><trkpt lat="43.95739371566921" lon="11.373077136428222"><ele>196.0</ele><time>2026-04-26T13:04:25Z</time></trkpt><trkpt lat="43.95733703777053" lon="11.373124107031545"><ele>196.0</ele><time>2026-04-26T13:04:28Z</time></trkpt><trkpt lat="43.95732699291547" lon="11.373219562626682"><ele>196.0</ele><time>2026-04-26T13:04:29Z</time></trkpt><trkpt lat="43.95732803198016" lon="11.373351588838636"><ele>196.0</ele><time>2026-04-26T13:04:30Z</time></trkpt><trkpt lat="43.9573222940647" lon="11.373476533669425"><ele>196.0</ele><time>2026-04-26T13:04:31Z</time></trkpt><trkpt lat="43.95732613006625" lon="11.373625674351242"><ele>196.0</ele><time>2026-04-26T13:04:32Z</time></trkpt><trkpt lat="43.957325976710294" lon="11.373785765811435"><ele>196.0</ele><time>2026-04-26T13:04:33Z</time></trkpt><trkpt lat="43.957326348434975" lon="11.373942505215107"><ele>196.0</ele><time>2026-04-26T13:04:34Z</time></trkpt><trkpt lat="43.95733164765264" lon="11.374101216295147"><ele>196.0</ele><time>2026-04-26T13:04:35Z</time></trkpt><trkpt lat="43.95734153259382" lon="11.374257012272306"><ele>196.0</ele><time>2026-04-26T13:04:36Z</time></trkpt><trkpt lat="43.95733643208672" lon="11.374418254884588"><ele>196.0</ele><time>2026-04-26T13:04:37Z</time></trkpt><trkpt lat="43.95733957480759" lon="11.37458339912761"><ele>196.0</ele><time>2026-04-26T13:04:38Z</time></trkpt><trkpt lat="43.957348507932785" lon="11.37475772329393"><ele>196.0</ele><time>2026-04-26T13:04:39Z</time></trkpt><trkpt lat="43.95735029200904" lon="11.374933989517194"><ele>196.0</ele><time>2026-04-26T13:04:40Z</time></trkpt><trkpt lat="43.95734981761375" lon="11.375114743590931"><ele>196.0</ele><time>2026-04-26T13:04:41Z</time></trkpt><trkpt lat="43.95735132975513" lon="11.37529466403631"><ele>196.0</ele><time>2026-04-26T13:04:42Z</time></trkpt><trkpt lat="43.95735087295867" lon="11.375468114168648"><ele>196.0</ele><time>2026-04-26T13:04:43Z</time></trkpt><trkpt lat="43.95735187635923" lon="11.375646440849494"><ele>196.0</ele><time>2026-04-26T13:04:44Z</time></trkpt><trkpt lat="43.95735427651485" lon="11.375826573284836"><ele>196.0</ele><time>2026-04-26T13:04:45Z</time></trkpt><trkpt lat="43.95735754095284" lon="11.376001090173332"><ele>196.0</ele><time>2026-04-26T13:04:46Z</time></trkpt><trkpt lat="43.95735807060461" lon="11.376174106173227"><ele>196.0</ele><time>2026-04-26T13:04:47Z</time></trkpt><trkpt lat="43.95735788948431" lon="11.376342892767239"><ele>196.0</ele><time>2026-04-26T13:04:48Z</time></trkpt><trkpt lat="43.957359226703545" lon="11.376510443383824"><ele>196.0</ele><time>2026-04-26T13:04:49Z</time></trkpt><trkpt lat="43.95735805874705" lon="11.376674226661548"><ele>196.0</ele><time>2026-04-26T13:04:50Z</time></trkpt><trkpt lat="43.9573584499299" lon="11.376843024700943"><ele>196.0</ele><time>2026-04-26T13:04:51Z</time></trkpt><trkpt lat="43.957363396103716" lon="11.37701032940298"><ele>196.0</ele><time>2026-04-26T13:04:52Z</time></trkpt><trkpt lat="43.95736442680179" lon="11.37717371799712"><ele>196.0</ele><time>2026-04-26T13:04:53Z</time></trkpt><trkpt lat="43.957372360062095" lon="11.377335837201018"><ele>196.0</ele><time>2026-04-26T13:04:54Z</time></trkpt><trkpt lat="43.95738128054556" lon="11.377501980946683"><ele>196.0</ele><time>2026-04-26T13:04:55Z</time></trkpt><trkpt lat="43.957382970022344" lon="11.37766790681156"><ele>196.0</ele><time>2026-04-26T13:04:56Z</time></trkpt><trkpt lat="43.95738609423555" lon="11.377827827606467"><ele>196.0</ele><time>2026-04-26T13:04:57Z</time></trkpt><trkpt lat="43.9573856419284" lon="11.377994562108096"><ele>196.0</ele><time>2026-04-26T13:04:58Z</time></trkpt><trkpt lat="43.957386562711896" lon="11.378164147172185"><ele>196.0</ele><time>2026-04-26T13:04:59Z</time></trkpt><trkpt lat="43.95738254326797" lon="11.3783347622284"><ele>196.0</ele><time>2026-04-26T13:05:00Z</time></trkpt><trkpt lat="43.95738735328062" lon="11.378517998531095"><ele>196.0</ele><time>2026-04-26T13:05:01Z</time></trkpt><trkpt lat="43.9573776706875" lon="11.37870086558024"><ele>196.0</ele><time>2026-04-26T13:05:02Z</time></trkpt><trkpt lat="43.95737641477363" lon="11.378881733874454"><ele>196.0</ele><time>2026-04-26T13:05:03Z</time></trkpt><trkpt lat="43.95737772633076" lon="11.379061641299224"><ele>196.0</ele><time>2026-04-26T13:05:04Z</time></trkpt><trkpt lat="43.95738148172934" lon="11.379237260654671"><ele>196.0</ele><time>2026-04-26T13:05:05Z</time></trkpt><trkpt lat="43.95738456695161" lon="11.379407703382416"><ele>196.0</ele><time>2026-04-26T13:05:06Z</time></trkpt><trkpt lat="43.9573845307504" lon="11.379575210710962"><ele>196.0</ele><time>2026-04-26T13:05:07Z</time></trkpt><trkpt lat="43.957386401077294" lon="11.379741094495436"><ele>196.0</ele><time>2026-04-26T13:05:08Z</time></trkpt><trkpt lat="43.957388850059935" lon="11.379906954521338"><ele>196.0</ele><time>2026-04-26T13:05:09Z</time></trkpt><trkpt lat="43.9573956596764" lon="11.380072393856482"><ele>196.0</ele><time>2026-04-26T13:05:10Z</time></trkpt><trkpt lat="43.95740889401388" lon="11.380237415880263"><ele>196.0</ele><time>2026-04-26T13:05:11Z</time></trkpt><trkpt lat="43.9574347325365" lon="11.380404963568784"><ele>196.0</ele><time>2026-04-26T13:05:12Z</time></trkpt><trkpt lat="43.95746456408" lon="11.380573685740911"><ele>196.0</ele><time>2026-04-26T13:05:13Z</time></trkpt><trkpt lat="43.9574947416375" lon="11.380747803437945"><ele>196.0</ele><time>2026-04-26T13:05:14Z</time></trkpt><trkpt lat="43.957513552902824" lon="11.380923612428965"><ele>196.0</ele><time>2026-04-26T13:05:15Z</time></trkpt><trkpt lat="43.95752997340371" lon="11.381099238746003"><ele>196.0</ele><time>2026-04-26T13:05:16Z</time></trkpt><trkpt lat="43.957544536073506" lon="11.381274793240703"><ele>196.5</ele><time>2026-04-26T13:05:17Z</time></trkpt><trkpt lat="43.95756198230144" lon="11.381449536548033"><ele>197.0</ele><time>2026-04-26T13:05:18Z</time></trkpt><trkpt lat="43.957579999453124" lon="11.381619246297902"><ele>197.5</ele><time>2026-04-26T13:05:19Z</time></trkpt><trkpt lat="43.95759958928791" lon="11.381788957504789"><ele>198.0</ele><time>2026-04-26T13:05:20Z</time></trkpt><trkpt lat="43.95762231787316" lon="11.381959325575194"><ele>198.0</ele><time>2026-04-26T13:05:21Z</time></trkpt><trkpt lat="43.9576443966176" lon="11.382130250635091"><ele>198.0</ele><time>2026-04-26T13:05:22Z</time></trkpt><trkpt lat="43.95766632909085" lon="11.382300879369307"><ele>198.0</ele><time>2026-04-26T13:05:23Z</time></trkpt><trkpt lat="43.95768878047086" lon="11.382474823142648"><ele>198.0</ele><time>2026-04-26T13:05:24Z</time></trkpt><trkpt lat="43.95770990811425" lon="11.382648764793307"><ele>198.25</ele><time>2026-04-26T13:05:25Z</time></trkpt><trkpt lat="43.95773267816995" lon="11.38282248535938"><ele>198.5</ele><time>2026-04-26T13:05:26Z</time></trkpt><trkpt lat="43.95775522078196" lon="11.382991505626018"><ele>198.75</ele><time>2026-04-26T13:05:27Z</time></trkpt><trkpt lat="43.95777639155442" lon="11.38315172030885"><ele>199.0</ele><time>2026-04-26T13:05:28Z</time></trkpt><trkpt lat="43.95779459315027" lon="11.383307928828286"><ele>199.0</ele><time>2026-04-26T13:05:29Z</time></trkpt><trkpt lat="43.957816170436026" lon="11.38346274893989"><ele>199.0</ele><time>2026-04-26T13:05:30Z</time></trkpt><trkpt lat="43.9578410158939" lon="11.383616029201638"><ele>199.0</ele><time>2026-04-26T13:05:31Z</time></trkpt><trkpt lat="43.9578666600858" lon="11.383767570076358"><ele>199.0</ele><time>2026-04-26T13:05:32Z</time></trkpt><trkpt lat="43.95788800861536" lon="11.383913833097214"><ele>199.0</ele><time>2026-04-26T13:05:33Z</time></trkpt><trkpt lat="43.957906082176684" lon="11.384052621205795"><ele>199.0</ele><time>2026-04-26T13:05:34Z</time></trkpt><trkpt lat="43.95792177182315" lon="11.384190030772464"><ele>199.0</ele><time>2026-04-26T13:05:35Z</time></trkpt><trkpt lat="43.95793858751806" lon="11.384328463623023"><ele>199.0</ele><time>2026-04-26T13:05:36Z</time></trkpt><trkpt lat="43.957950219868394" lon="11.38446086207965"><ele>199.0</ele><time>2026-04-26T13:05:37Z</time></trkpt><trkpt lat="43.957955865040624" lon="11.384589335967467"><ele>199.0</ele><time>2026-04-26T13:05:38Z</time></trkpt><trkpt lat="43.95796120632228" lon="11.384717590792196"><ele>198.79999999999998</ele><time>2026-04-26T13:05:39Z</time></trkpt><trkpt lat="43.957970600792564" lon="11.384851944315653"><ele>198.6</ele><time>2026-04-26T13:05:40Z</time></trkpt><trkpt lat="43.957985754270226" lon="11.384992649086765"><ele>198.4</ele><time>2026-04-26T13:05:41Z</time></trkpt><trkpt lat="43.95799991059542" lon="11.385133443164607"><ele>198.2</ele><time>2026-04-26T13:05:42Z</time></trkpt><trkpt lat="43.958003387318435" lon="11.385280011768792"><ele>198.0</ele><time>2026-04-26T13:05:43Z</time></trkpt><trkpt lat="43.95799026570206" lon="11.385419879070188"><ele>198.0</ele><time>2026-04-26T13:05:44Z</time></trkpt><trkpt lat="43.95796904459829" lon="11.385553331902763"><ele>198.0</ele><time>2026-04-26T13:05:45Z</time></trkpt><trkpt lat="43.957941413685454" lon="11.38567875927994"><ele>198.0</ele><time>2026-04-26T13:05:46Z</time></trkpt><trkpt lat="43.957903720362204" lon="11.385792536474598"><ele>198.0</ele><time>2026-04-26T13:05:47Z</time></trkpt><trkpt lat="43.957870362545" lon="11.385894398821724"><ele>198.0</ele><time>2026-04-26T13:05:48Z</time></trkpt><trkpt lat="43.95785159640796" lon="11.385992475471003"><ele>198.0</ele><time>2026-04-26T13:05:49Z</time></trkpt><trkpt lat="43.957853179798164" lon="11.386092676600274"><ele>198.0</ele><time>2026-04-26T13:05:50Z</time></trkpt><trkpt lat="43.95786569515205" lon="11.38619335404366"><ele>198.0</ele><time>2026-04-26T13:05:51Z</time></trkpt><trkpt lat="43.957880887142835" lon="11.386327278641454"><ele>198.0</ele><time>2026-04-26T13:05:52Z</time></trkpt><trkpt lat="43.95785997451152" lon="11.386495163471857"><ele>198.0</ele><time>2026-04-26T13:05:53Z</time></trkpt><trkpt lat="43.957813577195125" lon="11.386673446930526"><ele>198.0</ele><time>2026-04-26T13:05:54Z</time></trkpt><trkpt lat="43.95775533019043" lon="11.386844909536599"><ele>197.75</ele><time>2026-04-26T13:05:55Z</time></trkpt><trkpt lat="43.957691744613484" lon="11.387012424407658"><ele>197.5</ele><time>2026-04-26T13:05:56Z</time></trkpt><trkpt lat="43.95762611007171" lon="11.387173775160578"><ele>197.25</ele><time>2026-04-26T13:05:57Z</time></trkpt><trkpt lat="43.95756284808227" lon="11.387332399751388"><ele>197.0</ele><time>2026-04-26T13:05:58Z</time></trkpt><trkpt lat="43.95750521164322" lon="11.387485800049031"><ele>197.0</ele><time>2026-04-26T13:05:59Z</time></trkpt><trkpt lat="43.957451634989475" lon="11.387626241501168"><ele>197.0</ele><time>2026-04-26T13:06:00Z</time></trkpt><trkpt lat="43.957404993723294" lon="11.3877575556547"><ele>197.0</ele><time>2026-04-26T13:06:01Z</time></trkpt><trkpt lat="43.95735461022792" lon="11.387881930739528"><ele>197.0</ele><time>2026-04-26T13:06:02Z</time></trkpt><trkpt lat="43.95730453520253" lon="11.388012637965232"><ele>197.0</ele><time>2026-04-26T13:06:03Z</time></trkpt><trkpt lat="43.95725721462044" lon="11.388149966863468"><ele>197.2</ele><time>2026-04-26T13:06:04Z</time></trkpt><trkpt lat="43.957205664414985" lon="11.388287851686382"><ele>197.39999999999998</ele><time>2026-04-26T13:06:05Z</time></trkpt><trkpt lat="43.95715615852331" lon="11.38842482678849"><ele>197.60000000000002</ele><time>2026-04-26T13:06:06Z</time></trkpt><trkpt lat="43.957108256452365" lon="11.388558404440586"><ele>197.8</ele><time>2026-04-26T13:06:07Z</time></trkpt><trkpt lat="43.957061523000775" lon="11.388690218371437"><ele>198.0</ele><time>2026-04-26T13:06:08Z</time></trkpt><trkpt lat="43.957011494600586" lon="11.388824293685934"><ele>198.2</ele><time>2026-04-26T13:06:09Z</time></trkpt><trkpt lat="43.95696207243023" lon="11.38895729884236"><ele>198.4</ele><time>2026-04-26T13:06:10Z</time></trkpt><trkpt lat="43.956913770239936" lon="11.389089330699482"><ele>198.6</ele><time>2026-04-26T13:06:11Z</time></trkpt><trkpt lat="43.95686401335151" lon="11.389221835061898"><ele>198.79999999999998</ele><time>2026-04-26T13:06:12Z</time></trkpt><trkpt lat="43.95681584610903" lon="11.38935737637565"><ele>199.0</ele><time>2026-04-26T13:06:13Z</time></trkpt><trkpt lat="43.956762789352226" lon="11.389498262836693"><ele>199.0</ele><time>2026-04-26T13:06:14Z</time></trkpt><trkpt lat="43.95671373051771" lon="11.389634813743019"><ele>199.0</ele><time>2026-04-26T13:06:15Z</time></trkpt><trkpt lat="43.95666779042313" lon="11.3897649337043"><ele>199.0</ele><time>2026-04-26T13:06:16Z</time></trkpt><trkpt lat="43.95662541859664" lon="11.3898805769607"><ele>199.0</ele><time>2026-04-26T13:06:17Z</time></trkpt><trkpt lat="43.95658506709512" lon="11.389985779701249"><ele>199.0</ele><time>2026-04-26T13:06:18Z</time></trkpt><trkpt lat="43.956546742619565" lon="11.390101364212844"><ele>198.2</ele><time>2026-04-26T13:06:19Z</time></trkpt><trkpt lat="43.95651621679918" lon="11.39018731098944"><ele>197.39999999999998</ele><time>2026-04-26T13:06:20Z</time></trkpt><trkpt lat="43.95645725106566" lon="11.390324187638935"><ele>196.6</ele><time>2026-04-26T13:06:22Z</time></trkpt><trkpt lat="43.956425452539776" lon="11.390410622572057"><ele>195.8</ele><time>2026-04-26T13:06:24Z</time></trkpt><trkpt lat="43.956387543917124" lon="11.390519080065426"><ele>195.0</ele><time>2026-04-26T13:06:32Z</time></trkpt><trkpt lat="43.956313248272345" lon="11.390689896304453"><ele>195.0</ele><time>2026-04-26T13:06:34Z</time></trkpt><trkpt lat="43.956259174373365" lon="11.390815553233637"><ele>195.0</ele><time>2026-04-26T13:06:35Z</time></trkpt><trkpt lat="43.95620564648142" lon="11.390937819786403"><ele>195.0</ele><time>2026-04-26T13:06:36Z</time></trkpt><trkpt lat="43.956142851960905" lon="11.391090409423967"><ele>195.0</ele><time>2026-04-26T13:06:37Z</time></trkpt><trkpt lat="43.95607530091289" lon="11.39123672717444"><ele>195.0</ele><time>2026-04-26T13:06:38Z</time></trkpt><trkpt lat="43.95601265932776" lon="11.391379877469786"><ele>195.0</ele><time>2026-04-26T13:06:39Z</time></trkpt><trkpt lat="43.95594752633283" lon="11.391524835825585"><ele>195.0</ele><time>2026-04-26T13:06:40Z</time></trkpt><trkpt lat="43.95588227478472" lon="11.391668314016432"><ele>195.0</ele><time>2026-04-26T13:06:41Z</time></trkpt><trkpt lat="43.95580863768051" lon="11.391820002602387"><ele>195.0</ele><time>2026-04-26T13:06:42Z</time></trkpt><trkpt lat="43.955737863656715" lon="11.391971238319572"><ele>195.0</ele><time>2026-04-26T13:06:43Z</time></trkpt><trkpt lat="43.95566625047381" lon="11.392122513430246"><ele>195.0</ele><time>2026-04-26T13:06:44Z</time></trkpt><trkpt lat="43.95559513571733" lon="11.39227647007758"><ele>195.0</ele><time>2026-04-26T13:06:45Z</time></trkpt><trkpt lat="43.955522544967586" lon="11.392435733913402"><ele>195.0</ele><time>2026-04-26T13:06:46Z</time></trkpt><trkpt lat="43.95545112209828" lon="11.392588351302074"><ele>195.0</ele><time>2026-04-26T13:06:47Z</time></trkpt><trkpt lat="43.95537923367161" lon="11.392742892862154"><ele>195.0</ele><time>2026-04-26T13:06:48Z</time></trkpt><trkpt lat="43.955310821876395" lon="11.392895955972113"><ele>195.0</ele><time>2026-04-26T13:06:49Z</time></trkpt><trkpt lat="43.955244755260324" lon="11.393034407108301"><ele>195.8</ele><time>2026-04-26T13:06:50Z</time></trkpt><trkpt lat="43.95518197711807" lon="11.393154903767766"><ele>196.6</ele><time>2026-04-26T13:06:51Z</time></trkpt><trkpt lat="43.955133465887606" lon="11.393269700674765"><ele>197.39999999999998</ele><time>2026-04-26T13:06:52Z</time></trkpt><trkpt lat="43.955097092775155" lon="11.39336238975333"><ele>198.2</ele><time>2026-04-26T13:06:53Z</time></trkpt><trkpt lat="43.95504293232233" lon="11.393486408990784"><ele>199.0</ele><time>2026-04-26T13:06:55Z</time></trkpt><trkpt lat="43.95511099146129" lon="11.393640636553327"><ele>198.99999999999997</ele><time>2026-04-26T13:06:59Z</time></trkpt><trkpt lat="43.95515574109994" lon="11.39354487741599"><ele>199.0</ele><time>2026-04-26T13:07:00Z</time></trkpt><trkpt lat="43.95519969609542" lon="11.393461171711277"><ele>199.0</ele><time>2026-04-26T13:07:02Z</time></trkpt><trkpt lat="43.955243018401944" lon="11.393392843727716"><ele>199.0</ele><time>2026-04-26T13:07:05Z</time></trkpt><trkpt lat="43.9552742093252" lon="11.393277357270719"><ele>198.99999999999997</ele><time>2026-04-26T13:10:18.999Z</time></trkpt><trkpt lat="43.95520695503062" lon="11.393222392993879"><ele>199.0</ele><time>2026-04-26T13:10:35Z</time></trkpt><trkpt lat="43.955120876558105" lon="11.393302052800781"><ele>198.99999999999997</ele><time>2026-04-26T13:10:37Z</time></trkpt><trkpt lat="43.955081290922685" lon="11.393382401978036"><ele>199.0</ele><time>2026-04-26T13:10:38Z</time></trkpt><trkpt lat="43.95503629531107" lon="11.393474792447726"><ele>199.0</ele><time>2026-04-26T13:10:39Z</time></trkpt><trkpt lat="43.954987271477684" lon="11.393577457445666"><ele>199.0</ele><time>2026-04-26T13:10:40Z</time></trkpt><trkpt lat="43.95494171413149" lon="11.393686177559344"><ele>198.99999999999997</ele><time>2026-04-26T13:10:41Z</time></trkpt><trkpt lat="43.95489823457903" lon="11.3938159270432"><ele>199.0</ele><time>2026-04-26T13:10:42Z</time></trkpt><trkpt lat="43.9548357275426" lon="11.393945957245137"><ele>199.25</ele><time>2026-04-26T13:10:43Z</time></trkpt><trkpt lat="43.95477320103057" lon="11.394090290431569"><ele>199.5</ele><time>2026-04-26T13:10:44Z</time></trkpt><trkpt lat="43.95470527707277" lon="11.394244170356517"><ele>199.75</ele><time>2026-04-26T13:10:45Z</time></trkpt><trkpt lat="43.95463102158152" lon="11.394427838130133"><ele>200.0</ele><time>2026-04-26T13:10:46Z</time></trkpt><trkpt lat="43.95456070645214" lon="11.394613276066966"><ele>200.33333333333334</ele><time>2026-04-26T13:10:47Z</time></trkpt><trkpt lat="43.954483990503014" lon="11.394822003314578"><ele>200.66666666666669</ele><time>2026-04-26T13:10:48Z</time></trkpt><trkpt lat="43.95440429199653" lon="11.395028342624002"><ele>201.0</ele><time>2026-04-26T13:10:49Z</time></trkpt><trkpt lat="43.95432238077542" lon="11.395247411349747"><ele>201.0</ele><time>2026-04-26T13:10:50Z</time></trkpt><trkpt lat="43.95424375339382" lon="11.395460344720316"><ele>201.0</ele><time>2026-04-26T13:10:51Z</time></trkpt><trkpt lat="43.954165173041375" lon="11.395669321010093"><ele>201.0</ele><time>2026-04-26T13:10:52Z</time></trkpt><trkpt lat="43.954087972536406" lon="11.395876956215806"><ele>199.0</ele><time>2026-04-26T13:10:53Z</time></trkpt><trkpt lat="43.95400975028902" lon="11.396084377575535"><ele>197.0</ele><time>2026-04-26T13:10:54Z</time></trkpt><trkpt lat="43.953930217704105" lon="11.396289027912097"><ele>195.0</ele><time>2026-04-26T13:10:55Z</time></trkpt><trkpt lat="43.95385258743586" lon="11.396493868114705"><ele>195.0</ele><time>2026-04-26T13:10:56Z</time></trkpt><trkpt lat="43.95377539938708" lon="11.396697031365143"><ele>195.0</ele><time>2026-04-26T13:10:57Z</time></trkpt><trkpt lat="43.9536965954374" lon="11.396898982303929"><ele>195.0</ele><time>2026-04-26T13:10:58Z</time></trkpt><trkpt lat="43.95361559662637" lon="11.397098791199426"><ele>195.66666666666669</ele><time>2026-04-26T13:10:59Z</time></trkpt><trkpt lat="43.95353271423957" lon="11.397295779221578"><ele>196.33333333333334</ele><time>2026-04-26T13:11:00Z</time></trkpt><trkpt lat="43.95345366297476" lon="11.39748501713955"><ele>197.0</ele><time>2026-04-26T13:11:01Z</time></trkpt><trkpt lat="43.95337609880779" lon="11.397664953031915"><ele>196.5</ele><time>2026-04-26T13:11:02Z</time></trkpt><trkpt lat="43.9533042812399" lon="11.397841409124213"><ele>196.0</ele><time>2026-04-26T13:11:03Z</time></trkpt><trkpt lat="43.953234487505476" lon="11.398011327453306"><ele>195.5</ele><time>2026-04-26T13:11:04Z</time></trkpt><trkpt lat="43.95316517517254" lon="11.39817257422793"><ele>195.0</ele><time>2026-04-26T13:11:05Z</time></trkpt><trkpt lat="43.95309719870681" lon="11.398328236817163"><ele>195.0</ele><time>2026-04-26T13:11:06Z</time></trkpt><trkpt lat="43.95303336407919" lon="11.398479224341509"><ele>195.0</ele><time>2026-04-26T13:11:07Z</time></trkpt><trkpt lat="43.95296932184493" lon="11.398626477335023"><ele>195.0</ele><time>2026-04-26T13:11:08Z</time></trkpt><trkpt lat="43.95290326789522" lon="11.398775232827322"><ele>195.0</ele><time>2026-04-26T13:11:09Z</time></trkpt><trkpt lat="43.95283640618041" lon="11.398927994469254"><ele>194.75</ele><time>2026-04-26T13:11:10Z</time></trkpt><trkpt lat="43.95276643517637" lon="11.399094676774045"><ele>194.5</ele><time>2026-04-26T13:11:11Z</time></trkpt><trkpt lat="43.9526876195266" lon="11.399274790048258"><ele>194.25</ele><time>2026-04-26T13:11:12Z</time></trkpt><trkpt lat="43.95260544079718" lon="11.399454123495639"><ele>194.0</ele><time>2026-04-26T13:11:13Z</time></trkpt><trkpt lat="43.9525238212346" lon="11.399637081110932"><ele>194.66666666666669</ele><time>2026-04-26T13:11:14Z</time></trkpt><trkpt lat="43.952441170108465" lon="11.399822649425875"><ele>195.33333333333331</ele><time>2026-04-26T13:11:15Z</time></trkpt><trkpt lat="43.95235910541765" lon="11.400006287131948"><ele>196.0</ele><time>2026-04-26T13:11:16Z</time></trkpt><trkpt lat="43.95228034471869" lon="11.400181107568814"><ele>196.0</ele><time>2026-04-26T13:11:17Z</time></trkpt><trkpt lat="43.95220342594491" lon="11.400347685645782"><ele>196.0</ele><time>2026-04-26T13:11:18Z</time></trkpt><trkpt lat="43.952128739851524" lon="11.400509308898496"><ele>196.0</ele><time>2026-04-26T13:11:19Z</time></trkpt><trkpt lat="43.952055567847" lon="11.400669510106702"><ele>196.0</ele><time>2026-04-26T13:11:20Z</time></trkpt><trkpt lat="43.95198371517799" lon="11.400839467988245"><ele>195.66666666666666</ele><time>2026-04-26T13:11:21Z</time></trkpt><trkpt lat="43.95191154391919" lon="11.401017300040083"><ele>195.33333333333331</ele><time>2026-04-26T13:11:22Z</time></trkpt><trkpt lat="43.95183550549724" lon="11.401201542647575"><ele>195.0</ele><time>2026-04-26T13:11:23Z</time></trkpt><trkpt lat="43.95175453062694" lon="11.40139306091178"><ele>193.66666666666666</ele><time>2026-04-26T13:11:24Z</time></trkpt><trkpt lat="43.95167172450359" lon="11.401590709171114"><ele>192.33333333333331</ele><time>2026-04-26T13:11:25Z</time></trkpt><trkpt lat="43.95158281719627" lon="11.401796602549544"><ele>191.0</ele><time>2026-04-26T13:11:26Z</time></trkpt><trkpt lat="43.95149112417539" lon="11.402006136851554"><ele>192.0</ele><time>2026-04-26T13:11:27Z</time></trkpt><trkpt lat="43.95139681661332" lon="11.40222719972691"><ele>193.0</ele><time>2026-04-26T13:11:28Z</time></trkpt><trkpt lat="43.95130003958345" lon="11.402448722382267"><ele>194.0</ele><time>2026-04-26T13:11:29Z</time></trkpt><trkpt lat="43.95120218710058" lon="11.402674539191192"><ele>194.0</ele><time>2026-04-26T13:11:30Z</time></trkpt><trkpt lat="43.95110273559905" lon="11.402900033294587"><ele>194.0</ele><time>2026-04-26T13:11:31Z</time></trkpt><trkpt lat="43.95100437308254" lon="11.403126808278826"><ele>194.0</ele><time>2026-04-26T13:11:32Z</time></trkpt><trkpt lat="43.95090910508655" lon="11.403356590324442"><ele>194.0</ele><time>2026-04-26T13:11:33Z</time></trkpt><trkpt lat="43.950812624475745" lon="11.403585752923913"><ele>194.0</ele><time>2026-04-26T13:11:34Z</time></trkpt><trkpt lat="43.95071492117134" lon="11.403814985664233"><ele>194.0</ele><time>2026-04-26T13:11:35Z</time></trkpt><trkpt lat="43.950613641963734" lon="11.404032609365853"><ele>194.66666666666669</ele><time>2026-04-26T13:11:36Z</time></trkpt><trkpt lat="43.95050609514635" lon="11.40422832704613"><ele>195.33333333333331</ele><time>2026-04-26T13:11:37Z</time></trkpt><trkpt lat="43.950401791119106" lon="11.404419141686294"><ele>196.0</ele><time>2026-04-26T13:11:38Z</time></trkpt><trkpt lat="43.95027680900544" lon="11.40458048290195"><ele>196.33333333333331</ele><time>2026-04-26T13:11:39Z</time></trkpt><trkpt lat="43.95015480427984" lon="11.404730054380298"><ele>196.66666666666669</ele><time>2026-04-26T13:11:40Z</time></trkpt><trkpt lat="43.95002413231072" lon="11.40487033625734"><ele>197.0</ele><time>2026-04-26T13:11:41Z</time></trkpt><trkpt lat="43.94989451097887" lon="11.404996790839533"><ele>196.0</ele><time>2026-04-26T13:11:42Z</time></trkpt><trkpt lat="43.94977109215747" lon="11.405102220474255"><ele>195.0</ele><time>2026-04-26T13:11:43Z</time></trkpt><trkpt lat="43.94966450942952" lon="11.405194555534123"><ele>194.0</ele><time>2026-04-26T13:11:44Z</time></trkpt><trkpt lat="43.94956873564998" lon="11.405273813476978"><ele>193.0</ele><time>2026-04-26T13:11:45Z</time></trkpt><trkpt lat="43.94947058597107" lon="11.405321391806378"><ele>193.0</ele><time>2026-04-26T13:11:46Z</time></trkpt><trkpt lat="43.949367799674455" lon="11.405305554802235"><ele>193.0</ele><time>2026-04-26T13:11:47Z</time></trkpt><trkpt lat="43.94927857362196" lon="11.405244018905453"><ele>193.0</ele><time>2026-04-26T13:11:48Z</time></trkpt><trkpt lat="43.94919146712464" lon="11.405224447796261"><ele>193.0</ele><time>2026-04-26T13:11:49Z</time></trkpt><trkpt lat="43.94911418093364" lon="11.4052653693231"><ele>193.0</ele><time>2026-04-26T13:11:50Z</time></trkpt><trkpt lat="43.94905442137377" lon="11.405365252669817"><ele>192.25</ele><time>2026-04-26T13:11:51Z</time></trkpt><trkpt lat="43.949045602563544" lon="11.40551550351605"><ele>191.5</ele><time>2026-04-26T13:11:52Z</time></trkpt><trkpt lat="43.94900482905057" lon="11.405665959960807"><ele>190.75</ele><time>2026-04-26T13:11:53Z</time></trkpt><trkpt lat="43.94899608726428" lon="11.405841770755405"><ele>190.0</ele><time>2026-04-26T13:11:54Z</time></trkpt><trkpt lat="43.94886689258861" lon="11.40599004070637"><ele>190.0</ele><time>2026-04-26T13:11:55Z</time></trkpt><trkpt lat="43.94874603301965" lon="11.406127693622514"><ele>190.0</ele><time>2026-04-26T13:11:56Z</time></trkpt><trkpt lat="43.94862178518867" lon="11.406237268891116"><ele>190.0</ele><time>2026-04-26T13:11:57Z</time></trkpt><trkpt lat="43.94848769491481" lon="11.406367741505742"><ele>191.33333333333334</ele><time>2026-04-26T13:11:58Z</time></trkpt><trkpt lat="43.94834943405541" lon="11.40650502422821"><ele>192.66666666666669</ele><time>2026-04-26T13:11:59Z</time></trkpt><trkpt lat="43.948206114252756" lon="11.406642111990664"><ele>194.0</ele><time>2026-04-26T13:12:00Z</time></trkpt><trkpt lat="43.94806740525357" lon="11.406776362313815"><ele>194.0</ele><time>2026-04-26T13:12:01Z</time></trkpt><trkpt lat="43.94792327075186" lon="11.406913161323958"><ele>194.0</ele><time>2026-04-26T13:12:02Z</time></trkpt><trkpt lat="43.947777356911395" lon="11.407060203732131"><ele>194.0</ele><time>2026-04-26T13:12:03Z</time></trkpt><trkpt lat="43.947634550034785" lon="11.407205950025135"><ele>194.33333333333334</ele><time>2026-04-26T13:12:04Z</time></trkpt><trkpt lat="43.94749048132241" lon="11.407356729642638"><ele>194.66666666666669</ele><time>2026-04-26T13:12:05Z</time></trkpt><trkpt lat="43.94734158448194" lon="11.40750618491357"><ele>195.0</ele><time>2026-04-26T13:12:06Z</time></trkpt><trkpt lat="43.94719520191496" lon="11.407661060266216"><ele>195.0</ele><time>2026-04-26T13:12:07Z</time></trkpt><trkpt lat="43.947055818345845" lon="11.407834433154289"><ele>195.0</ele><time>2026-04-26T13:12:08Z</time></trkpt><trkpt lat="43.946924114891836" lon="11.4080284857023"><ele>195.0</ele><time>2026-04-26T13:12:09Z</time></trkpt><trkpt lat="43.946803173782655" lon="11.408238056965276"><ele>195.33333333333331</ele><time>2026-04-26T13:12:10Z</time></trkpt><trkpt lat="43.946685636456436" lon="11.408452081175586"><ele>195.66666666666666</ele><time>2026-04-26T13:12:11Z</time></trkpt><trkpt lat="43.946568500012766" lon="11.408663876816656"><ele>196.0</ele><time>2026-04-26T13:12:12Z</time></trkpt><trkpt lat="43.94646084868417" lon="11.40888814838097"><ele>196.0</ele><time>2026-04-26T13:12:13Z</time></trkpt><trkpt lat="43.94635748220001" lon="11.409114076078408"><ele>196.0</ele><time>2026-04-26T13:12:14Z</time></trkpt><trkpt lat="43.94626216978507" lon="11.409345549679564"><ele>196.0</ele><time>2026-04-26T13:12:15Z</time></trkpt><trkpt lat="43.9461713419445" lon="11.409580605298515"><ele>195.33333333333331</ele><time>2026-04-26T13:12:16Z</time></trkpt><trkpt lat="43.946084290699886" lon="11.409818487563866"><ele>194.66666666666669</ele><time>2026-04-26T13:12:17Z</time></trkpt><trkpt lat="43.94598189053641" lon="11.41005867053524"><ele>194.0</ele><time>2026-04-26T13:12:18Z</time></trkpt><trkpt lat="43.94588562664963" lon="11.410293822877964"><ele>193.33333333333334</ele><time>2026-04-26T13:12:19Z</time></trkpt><trkpt lat="43.94579095021277" lon="11.410530882132834"><ele>192.66666666666669</ele><time>2026-04-26T13:12:20Z</time></trkpt><trkpt lat="43.945696539958334" lon="11.410767019339916"><ele>192.0</ele><time>2026-04-26T13:12:21Z</time></trkpt><trkpt lat="43.94560157120572" lon="11.411003652180305"><ele>192.0</ele><time>2026-04-26T13:12:22Z</time></trkpt><trkpt lat="43.945503904211606" lon="11.411240573070259"><ele>192.0</ele><time>2026-04-26T13:12:23Z</time></trkpt><trkpt lat="43.94540832097071" lon="11.411474989422237"><ele>192.0</ele><time>2026-04-26T13:12:24Z</time></trkpt><trkpt lat="43.94531465292548" lon="11.411707094242578"><ele>192.33333333333331</ele><time>2026-04-26T13:12:25Z</time></trkpt><trkpt lat="43.94522215655525" lon="11.411939346823463"><ele>192.66666666666666</ele><time>2026-04-26T13:12:26Z</time></trkpt><trkpt lat="43.94512732938561" lon="11.412161771549387"><ele>193.0</ele><time>2026-04-26T13:12:27Z</time></trkpt><trkpt lat="43.94503998494729" lon="11.412379355113783"><ele>194.66666666666666</ele><time>2026-04-26T13:12:28Z</time></trkpt><trkpt lat="43.94495048743995" lon="11.412593942663081"><ele>196.33333333333331</ele><time>2026-04-26T13:12:29Z</time></trkpt><trkpt lat="43.94486311849087" lon="11.412807691986867"><ele>198.0</ele><time>2026-04-26T13:12:30Z</time></trkpt><trkpt lat="43.94478084496765" lon="11.41303135932481"><ele>198.66666666666669</ele><time>2026-04-26T13:12:31Z</time></trkpt><trkpt lat="43.94469202717266" lon="11.413246429977745"><ele>199.33333333333334</ele><time>2026-04-26T13:12:32Z</time></trkpt><trkpt lat="43.94462142533259" lon="11.413476052123325"><ele>200.0</ele><time>2026-04-26T13:12:33Z</time></trkpt><trkpt lat="43.94455691135342" lon="11.41368660914483"><ele>199.33333333333334</ele><time>2026-04-26T13:12:34Z</time></trkpt><trkpt lat="43.944512768663884" lon="11.413908136153397"><ele>198.66666666666669</ele><time>2026-04-26T13:12:35Z</time></trkpt><trkpt lat="43.944509129556785" lon="11.414153456973299"><ele>198.0</ele><time>2026-04-26T13:12:36Z</time></trkpt><trkpt lat="43.94452266535514" lon="11.414404355823958"><ele>198.66666666666669</ele><time>2026-04-26T13:12:37Z</time></trkpt><trkpt lat="43.94453039169766" lon="11.414662350246383"><ele>199.33333333333334</ele><time>2026-04-26T13:12:38Z</time></trkpt><trkpt lat="43.94453408107109" lon="11.41492398931414"><ele>200.0</ele><time>2026-04-26T13:12:39Z</time></trkpt><trkpt lat="43.94453660331401" lon="11.415185407745666"><ele>200.0</ele><time>2026-04-26T13:12:40Z</time></trkpt><trkpt lat="43.94454456699165" lon="11.415450101764094"><ele>200.0</ele><time>2026-04-26T13:12:41Z</time></trkpt><trkpt lat="43.94454798147897" lon="11.415710955084641"><ele>200.0</ele><time>2026-04-26T13:12:42Z</time></trkpt><trkpt lat="43.944547596461106" lon="11.415969683141125"><ele>199.33333333333334</ele><time>2026-04-26T13:12:43Z</time></trkpt><trkpt lat="43.944548985046424" lon="11.416229229687405"><ele>198.66666666666669</ele><time>2026-04-26T13:12:44Z</time></trkpt><trkpt lat="43.94453599001191" lon="11.416487997247797"><ele>198.0</ele><time>2026-04-26T13:12:45Z</time></trkpt><trkpt lat="43.944503350585144" lon="11.416741618182485"><ele>197.66666666666669</ele><time>2026-04-26T13:12:46Z</time></trkpt><trkpt lat="43.94444275713091" lon="11.416986355493245"><ele>197.33333333333334</ele><time>2026-04-26T13:12:47Z</time></trkpt><trkpt lat="43.944365469648716" lon="11.417215612947555"><ele>197.0</ele><time>2026-04-26T13:12:48Z</time></trkpt><trkpt lat="43.944278385445394" lon="11.41743828168559"><ele>196.66666666666669</ele><time>2026-04-26T13:12:49Z</time></trkpt><trkpt lat="43.94419059976226" lon="11.417654463544928"><ele>196.33333333333331</ele><time>2026-04-26T13:12:50Z</time></trkpt><trkpt lat="43.94409883831261" lon="11.417870083709913"><ele>196.0</ele><time>2026-04-26T13:12:51Z</time></trkpt><trkpt lat="43.944014477390894" lon="11.418083679569008"><ele>196.0</ele><time>2026-04-26T13:12:52Z</time></trkpt><trkpt lat="43.94393141799543" lon="11.418297593094332"><ele>196.0</ele><time>2026-04-26T13:12:53Z</time></trkpt><trkpt lat="43.94385328111765" lon="11.418501133257667"><ele>196.0</ele><time>2026-04-26T13:12:54Z</time></trkpt><trkpt lat="43.94377540470496" lon="11.41869788353072"><ele>196.0</ele><time>2026-04-26T13:12:55Z</time></trkpt><trkpt lat="43.943710445051494" lon="11.418901862503478"><ele>196.0</ele><time>2026-04-26T13:12:56Z</time></trkpt><trkpt lat="43.94365405543416" lon="11.419104122547983"><ele>196.0</ele><time>2026-04-26T13:12:57Z</time></trkpt><trkpt lat="43.94361424379198" lon="11.419330520231178"><ele>196.0</ele><time>2026-04-26T13:12:58Z</time></trkpt><trkpt lat="43.94357582522681" lon="11.419552079364058"><ele>196.0</ele><time>2026-04-26T13:12:59Z</time></trkpt><trkpt lat="43.943542219433105" lon="11.419774562448563"><ele>196.0</ele><time>2026-04-26T13:13:00Z</time></trkpt><trkpt lat="43.94351194045657" lon="11.419987544735863"><ele>196.0</ele><time>2026-04-26T13:13:01Z</time></trkpt><trkpt lat="43.94347815295871" lon="11.420190509585717"><ele>196.0</ele><time>2026-04-26T13:13:02Z</time></trkpt><trkpt lat="43.94346283328282" lon="11.42038485629202"><ele>196.0</ele><time>2026-04-26T13:13:03Z</time></trkpt><trkpt lat="43.943448209952756" lon="11.420569161138145"><ele>196.0</ele><time>2026-04-26T13:13:04Z</time></trkpt><trkpt lat="43.943435777291924" lon="11.420743076965131"><ele>196.25</ele><time>2026-04-26T13:13:05Z</time></trkpt><trkpt lat="43.943428549060854" lon="11.420910985327358"><ele>196.5</ele><time>2026-04-26T13:13:06Z</time></trkpt><trkpt lat="43.943422426688926" lon="11.42107087255541"><ele>196.75</ele><time>2026-04-26T13:13:07Z</time></trkpt><trkpt lat="43.94341585490931" lon="11.421222669594933"><ele>197.0</ele><time>2026-04-26T13:13:08Z</time></trkpt><trkpt lat="43.943408376950664" lon="11.421369861729845"><ele>197.0</ele><time>2026-04-26T13:13:09Z</time></trkpt><trkpt lat="43.94340278617858" lon="11.421514695840731"><ele>197.0</ele><time>2026-04-26T13:13:10Z</time></trkpt><trkpt lat="43.943397748428076" lon="11.421661085223203"><ele>197.0</ele><time>2026-04-26T13:13:11Z</time></trkpt><trkpt lat="43.94339294239722" lon="11.421803130807756"><ele>197.0</ele><time>2026-04-26T13:13:12Z</time></trkpt><trkpt lat="43.94338861447577" lon="11.42194742669725"><ele>197.0</ele><time>2026-04-26T13:13:13Z</time></trkpt><trkpt lat="43.94337891940803" lon="11.422105658593917"><ele>196.5</ele><time>2026-04-26T13:13:14Z</time></trkpt><trkpt lat="43.94336858882171" lon="11.422279751268583"><ele>196.0</ele><time>2026-04-26T13:13:15Z</time></trkpt><trkpt lat="43.943363194177564" lon="11.422464047351422"><ele>195.5</ele><time>2026-04-26T13:13:16Z</time></trkpt><trkpt lat="43.943356374087024" lon="11.422661769488222"><ele>195.0</ele><time>2026-04-26T13:13:17Z</time></trkpt><trkpt lat="43.94335120656425" lon="11.422873792872057"><ele>195.0</ele><time>2026-04-26T13:13:18Z</time></trkpt><trkpt lat="43.9433431182652" lon="11.423098116484141"><ele>195.0</ele><time>2026-04-26T13:13:19Z</time></trkpt><trkpt lat="43.943334694073386" lon="11.423331747999924"><ele>195.0</ele><time>2026-04-26T13:13:20Z</time></trkpt><trkpt lat="43.94332602902211" lon="11.423562358222862"><ele>195.0</ele><time>2026-04-26T13:13:21Z</time></trkpt><trkpt lat="43.943315349089104" lon="11.42380974214602"><ele>195.0</ele><time>2026-04-26T13:13:22Z</time></trkpt><trkpt lat="43.94330842032428" lon="11.424074313151374"><ele>195.0</ele><time>2026-04-26T13:13:23Z</time></trkpt><trkpt lat="43.94329625091549" lon="11.424367846772011"><ele>192.5</ele><time>2026-04-26T13:13:24Z</time></trkpt><trkpt lat="43.94327793289015" lon="11.424680012800277"><ele>190.0</ele><time>2026-04-26T13:13:25Z</time></trkpt><trkpt lat="43.94327032521419" lon="11.425008938821213"><ele>190.0</ele><time>2026-04-26T13:13:26Z</time></trkpt><trkpt lat="43.943258913590086" lon="11.42533550669396"><ele>190.0</ele><time>2026-04-26T13:13:27Z</time></trkpt><trkpt lat="43.94324690135875" lon="11.425668610604365"><ele>188.5</ele><time>2026-04-26T13:13:28Z</time></trkpt><trkpt lat="43.94324026217074" lon="11.425995190782968"><ele>187.0</ele><time>2026-04-26T13:13:29Z</time></trkpt><trkpt lat="43.94323107678967" lon="11.426311498962576"><ele>187.0</ele><time>2026-04-26T13:13:30Z</time></trkpt><trkpt lat="43.943217391762744" lon="11.426624743991196"><ele>187.0</ele><time>2026-04-26T13:13:31Z</time></trkpt><trkpt lat="43.94320753413892" lon="11.426927846787398"><ele>187.0</ele><time>2026-04-26T13:13:32Z</time></trkpt><trkpt lat="43.94320387424426" lon="11.42721245984451"><ele>186.66666666666669</ele><time>2026-04-26T13:13:33Z</time></trkpt><trkpt lat="43.943190771425286" lon="11.427522889070495"><ele>186.33333333333334</ele><time>2026-04-26T13:13:34Z</time></trkpt><trkpt lat="43.94317910294329" lon="11.427816806375501"><ele>186.0</ele><time>2026-04-26T13:13:35Z</time></trkpt><trkpt lat="43.94316648151699" lon="11.42811050465674"><ele>186.0</ele><time>2026-04-26T13:13:36Z</time></trkpt><trkpt lat="43.94313977711013" lon="11.42838708311742"><ele>186.0</ele><time>2026-04-26T13:13:37Z</time></trkpt><trkpt lat="43.94313576337572" lon="11.428693445163608"><ele>186.0</ele><time>2026-04-26T13:13:38Z</time></trkpt><trkpt lat="43.94312826254833" lon="11.428987141215401"><ele>186.0</ele><time>2026-04-26T13:13:39Z</time></trkpt><trkpt lat="43.943119245685835" lon="11.42926072518526"><ele>186.0</ele><time>2026-04-26T13:13:40Z</time></trkpt><trkpt lat="43.94311385784595" lon="11.42950992570036"><ele>186.0</ele><time>2026-04-26T13:13:41Z</time></trkpt><trkpt lat="43.943092156628175" lon="11.42972579649583"><ele>187.25</ele><time>2026-04-26T13:13:42Z</time></trkpt><trkpt lat="43.94301080107014" lon="11.429884339975565"><ele>188.5</ele><time>2026-04-26T13:13:43Z</time></trkpt><trkpt lat="43.94289067488393" lon="11.429958673074355"><ele>189.75</ele><time>2026-04-26T13:13:44Z</time></trkpt><trkpt lat="43.942762312131926" lon="11.430054391178869"><ele>191.0</ele><time>2026-04-26T13:13:45Z</time></trkpt><trkpt lat="43.94262191258387" lon="11.430157188783616"><ele>190.75</ele><time>2026-04-26T13:13:46Z</time></trkpt><trkpt lat="43.942486839758836" lon="11.430261924335172"><ele>190.5</ele><time>2026-04-26T13:13:47Z</time></trkpt><trkpt lat="43.942361193469345" lon="11.43036845075826"><ele>190.25</ele><time>2026-04-26T13:13:48Z</time></trkpt><trkpt lat="43.942260325393754" lon="11.430512850293516"><ele>190.0</ele><time>2026-04-26T13:13:49Z</time></trkpt><trkpt lat="43.94219121460737" lon="11.430706922332606"><ele>190.0</ele><time>2026-04-26T13:13:50Z</time></trkpt><trkpt lat="43.94214565134905" lon="11.4309253578448"><ele>190.0</ele><time>2026-04-26T13:13:51Z</time></trkpt><trkpt lat="43.94212236430702" lon="11.431153723833907"><ele>190.0</ele><time>2026-04-26T13:13:52Z</time></trkpt><trkpt lat="43.942124666318165" lon="11.431396460856977"><ele>190.66666666666669</ele><time>2026-04-26T13:13:53Z</time></trkpt><trkpt lat="43.94214263485586" lon="11.431641285078541"><ele>191.33333333333334</ele><time>2026-04-26T13:13:54Z</time></trkpt><trkpt lat="43.942155969581066" lon="11.43189847926305"><ele>192.0</ele><time>2026-04-26T13:13:55Z</time></trkpt><trkpt lat="43.9421445360626" lon="11.432159868481328"><ele>192.0</ele><time>2026-04-26T13:13:56Z</time></trkpt><trkpt lat="43.942109933215185" lon="11.432424849701082"><ele>192.0</ele><time>2026-04-26T13:13:57Z</time></trkpt><trkpt lat="43.942035412183984" lon="11.43268386865827"><ele>192.0</ele><time>2026-04-26T13:13:58Z</time></trkpt><trkpt lat="43.941979871550835" lon="11.432953699845196"><ele>191.66666666666666</ele><time>2026-04-26T13:13:59Z</time></trkpt><trkpt lat="43.94190656103119" lon="11.433210756921172"><ele>191.33333333333331</ele><time>2026-04-26T13:14:00Z</time></trkpt><trkpt lat="43.941845124512405" lon="11.43346935306112"><ele>191.0</ele><time>2026-04-26T13:14:01Z</time></trkpt><trkpt lat="43.94179292892315" lon="11.433731280924501"><ele>189.66666666666666</ele><time>2026-04-26T13:14:02Z</time></trkpt><trkpt lat="43.94175050669189" lon="11.433993578798587"><ele>188.33333333333334</ele><time>2026-04-26T13:14:03Z</time></trkpt><trkpt lat="43.94171676261399" lon="11.434255266641566"><ele>187.0</ele><time>2026-04-26T13:14:04Z</time></trkpt><trkpt lat="43.9416829299564" lon="11.434513909006599"><ele>188.0</ele><time>2026-04-26T13:14:05Z</time></trkpt><trkpt lat="43.94164782844405" lon="11.434768376217875"><ele>189.0</ele><time>2026-04-26T13:14:06Z</time></trkpt><trkpt lat="43.941606256874344" lon="11.435007097838016"><ele>190.0</ele><time>2026-04-26T13:14:07Z</time></trkpt><trkpt lat="43.941554281167626" lon="11.435235570298959"><ele>190.0</ele><time>2026-04-26T13:14:08Z</time></trkpt><trkpt lat="43.94148305636112" lon="11.43544647090308"><ele>190.0</ele><time>2026-04-26T13:14:09Z</time></trkpt><trkpt lat="43.941390239795396" lon="11.43565731400462"><ele>190.0</ele><time>2026-04-26T13:14:10Z</time></trkpt><trkpt lat="43.94128280388582" lon="11.435844775208825"><ele>190.33333333333334</ele><time>2026-04-26T13:14:11Z</time></trkpt><trkpt lat="43.94113411450689" lon="11.435992305299422"><ele>190.66666666666666</ele><time>2026-04-26T13:14:12Z</time></trkpt><trkpt lat="43.94101935870539" lon="11.436218425974081"><ele>191.0</ele><time>2026-04-26T13:14:13Z</time></trkpt><trkpt lat="43.940880872579726" lon="11.436397376008946"><ele>189.66666666666666</ele><time>2026-04-26T13:14:14Z</time></trkpt><trkpt lat="43.94069267645124" lon="11.436492048106382"><ele>188.33333333333334</ele><time>2026-04-26T13:14:15Z</time></trkpt><trkpt lat="43.940526782047506" lon="11.436634097187065"><ele>187.0</ele><time>2026-04-26T13:14:16Z</time></trkpt><trkpt lat="43.94037499229466" lon="11.436793063463023"><ele>187.0</ele><time>2026-04-26T13:14:17Z</time></trkpt><trkpt lat="43.94022620921531" lon="11.436943259391208"><ele>187.0</ele><time>2026-04-26T13:14:18Z</time></trkpt><trkpt lat="43.940074818134754" lon="11.43710723052273"><ele>187.0</ele><time>2026-04-26T13:14:19Z</time></trkpt><trkpt lat="43.939929322181996" lon="11.43728431466883"><ele>187.33333333333334</ele><time>2026-04-26T13:14:20Z</time></trkpt><trkpt lat="43.93980001454812" lon="11.43747464768445"><ele>187.66666666666666</ele><time>2026-04-26T13:14:21Z</time></trkpt><trkpt lat="43.93967431346627" lon="11.437666848469137"><ele>188.0</ele><time>2026-04-26T13:14:22Z</time></trkpt><trkpt lat="43.939551516657225" lon="11.437859181345665"><ele>186.33333333333331</ele><time>2026-04-26T13:14:23Z</time></trkpt><trkpt lat="43.9394290702259" lon="11.438063384423263"><ele>184.66666666666666</ele><time>2026-04-26T13:14:24Z</time></trkpt><trkpt lat="43.93931509433667" lon="11.43828614475464"><ele>183.0</ele><time>2026-04-26T13:14:25Z</time></trkpt><trkpt lat="43.9392116312694" lon="11.438532781564223"><ele>182.0</ele><time>2026-04-26T13:14:26Z</time></trkpt><trkpt lat="43.93911889059772" lon="11.438805429975599"><ele>181.0</ele><time>2026-04-26T13:14:27Z</time></trkpt><trkpt lat="43.939016016762146" lon="11.439098216119236"><ele>181.0</ele><time>2026-04-26T13:14:28Z</time></trkpt><trkpt lat="43.93888953044469" lon="11.439399631926932"><ele>181.0</ele><time>2026-04-26T13:14:29Z</time></trkpt><trkpt lat="43.93878607340619" lon="11.439720405691736"><ele>182.0</ele><time>2026-04-26T13:14:30Z</time></trkpt><trkpt lat="43.938672111504864" lon="11.440001558799196"><ele>183.0</ele><time>2026-04-26T13:14:31Z</time></trkpt><trkpt lat="43.938568570109936" lon="11.440267305676329"><ele>182.66666666666666</ele><time>2026-04-26T13:14:32Z</time></trkpt><trkpt lat="43.93847330652355" lon="11.440525846797701"><ele>182.33333333333331</ele><time>2026-04-26T13:14:33Z</time></trkpt><trkpt lat="43.938378077065416" lon="11.44077575880848"><ele>182.0</ele><time>2026-04-26T13:14:34Z</time></trkpt><trkpt lat="43.93828500891721" lon="11.441023212484954"><ele>182.0</ele><time>2026-04-26T13:14:35Z</time></trkpt><trkpt lat="43.93819561064662" lon="11.441266754270583"><ele>182.0</ele><time>2026-04-26T13:14:36Z</time></trkpt><trkpt lat="43.93810570540258" lon="11.441504586011172"><ele>182.0</ele><time>2026-04-26T13:14:37Z</time></trkpt><trkpt lat="43.93801720060287" lon="11.441738099070909"><ele>183.33333333333331</ele><time>2026-04-26T13:14:38Z</time></trkpt><trkpt lat="43.93792883219828" lon="11.441972930248527"><ele>184.66666666666666</ele><time>2026-04-26T13:14:39Z</time></trkpt><trkpt lat="43.9378375353129" lon="11.442205951673895"><ele>186.0</ele><time>2026-04-26T13:14:40Z</time></trkpt><trkpt lat="43.93775471858475" lon="11.442447703317256"><ele>186.0</ele><time>2026-04-26T13:14:41Z</time></trkpt><trkpt lat="43.93766934141373" lon="11.44267906801566"><ele>186.0</ele><time>2026-04-26T13:14:42Z</time></trkpt><trkpt lat="43.93758625628141" lon="11.442918195975883"><ele>186.0</ele><time>2026-04-26T13:14:43Z</time></trkpt><trkpt lat="43.9374968805888" lon="11.443149949758803"><ele>184.0</ele><time>2026-04-26T13:14:44Z</time></trkpt><trkpt lat="43.93740816304684" lon="11.44337948810608"><ele>182.0</ele><time>2026-04-26T13:14:45Z</time></trkpt><trkpt lat="43.937318398382075" lon="11.443607966885493"><ele>180.0</ele><time>2026-04-26T13:14:46Z</time></trkpt><trkpt lat="43.937230105381154" lon="11.4438327585412"><ele>180.0</ele><time>2026-04-26T13:14:47Z</time></trkpt><trkpt lat="43.93714167867255" lon="11.444059362439996"><ele>180.0</ele><time>2026-04-26T13:14:48Z</time></trkpt><trkpt lat="43.937055062592826" lon="11.444290474900148"><ele>180.0</ele><time>2026-04-26T13:14:49Z</time></trkpt><trkpt lat="43.93697165339097" lon="11.44451853187968"><ele>179.66666666666666</ele><time>2026-04-26T13:14:50Z</time></trkpt><trkpt lat="43.93688578246022" lon="11.444750695870702"><ele>179.33333333333331</ele><time>2026-04-26T13:14:51Z</time></trkpt><trkpt lat="43.93680345942012" lon="11.444976896385109"><ele>179.0</ele><time>2026-04-26T13:14:52Z</time></trkpt><trkpt lat="43.936719245615066" lon="11.445197121124155"><ele>179.0</ele><time>2026-04-26T13:14:53Z</time></trkpt><trkpt lat="43.93664124743469" lon="11.445419329306743"><ele>179.0</ele><time>2026-04-26T13:14:54Z</time></trkpt><trkpt lat="43.93655723400151" lon="11.445632660935736"><ele>179.0</ele><time>2026-04-26T13:14:55Z</time></trkpt><trkpt lat="43.93647886706444" lon="11.44585660017392"><ele>179.0</ele><time>2026-04-26T13:14:56Z</time></trkpt><trkpt lat="43.9363807416955" lon="11.446088140145312"><ele>179.0</ele><time>2026-04-26T13:14:57Z</time></trkpt><trkpt lat="43.93631197755206" lon="11.446267426453904"><ele>179.0</ele><time>2026-04-26T13:14:58Z</time></trkpt><trkpt lat="43.936234263043666" lon="11.446479269796997"><ele>179.33333333333331</ele><time>2026-04-26T13:14:59Z</time></trkpt><trkpt lat="43.93615513373368" lon="11.446683751668385"><ele>179.66666666666666</ele><time>2026-04-26T13:15:00Z</time></trkpt><trkpt lat="43.93607894544502" lon="11.446896038212493"><ele>180.0</ele><time>2026-04-26T13:15:01Z</time></trkpt><trkpt lat="43.93600477747857" lon="11.447101337149796"><ele>179.66666666666666</ele><time>2026-04-26T13:15:02Z</time></trkpt><trkpt lat="43.93593203930286" lon="11.447299766307987"><ele>179.33333333333331</ele><time>2026-04-26T13:15:03Z</time></trkpt><trkpt lat="43.93585304417496" lon="11.44749980049553"><ele>179.0</ele><time>2026-04-26T13:15:04Z</time></trkpt><trkpt lat="43.9357695398133" lon="11.447697703011782"><ele>179.0</ele><time>2026-04-26T13:15:05Z</time></trkpt><trkpt lat="43.9356785144718" lon="11.447895327628554"><ele>179.0</ele><time>2026-04-26T13:15:06Z</time></trkpt><trkpt lat="43.93558414116673" lon="11.448084937827913"><ele>179.0</ele><time>2026-04-26T13:15:07Z</time></trkpt><trkpt lat="43.93550347283498" lon="11.44824242894496"><ele>179.25</ele><time>2026-04-26T13:15:08Z</time></trkpt><trkpt lat="43.93542878829519" lon="11.448390570661276"><ele>179.5</ele><time>2026-04-26T13:15:09Z</time></trkpt><trkpt lat="43.93535159617629" lon="11.448532863042889"><ele>179.75</ele><time>2026-04-26T13:15:10Z</time></trkpt><trkpt lat="43.935267223487166" lon="11.448681884178367"><ele>180.0</ele><time>2026-04-26T13:15:11Z</time></trkpt><trkpt lat="43.935181673833675" lon="11.448838697573835"><ele>180.0</ele><time>2026-04-26T13:15:12Z</time></trkpt><trkpt lat="43.93509334729568" lon="11.44899873659044"><ele>180.0</ele><time>2026-04-26T13:15:13Z</time></trkpt><trkpt lat="43.93500073671312" lon="11.44916039983045"><ele>180.0</ele><time>2026-04-26T13:15:14Z</time></trkpt><trkpt lat="43.934912837073924" lon="11.44930661252938"><ele>180.0</ele><time>2026-04-26T13:15:15Z</time></trkpt><trkpt lat="43.934828823433534" lon="11.449444599341476"><ele>179.75</ele><time>2026-04-26T13:15:16Z</time></trkpt><trkpt lat="43.93475124446193" lon="11.449575422115455"><ele>179.5</ele><time>2026-04-26T13:15:17Z</time></trkpt><trkpt lat="43.93467858778611" lon="11.449707922846708"><ele>179.25</ele><time>2026-04-26T13:15:18Z</time></trkpt><trkpt lat="43.934608240919665" lon="11.4498391795657"><ele>179.0</ele><time>2026-04-26T13:15:19Z</time></trkpt><trkpt lat="43.93454541952223" lon="11.449959575087584"><ele>179.39999999999998</ele><time>2026-04-26T13:15:20Z</time></trkpt><trkpt lat="43.93448933028869" lon="11.450072875162844"><ele>179.8</ele><time>2026-04-26T13:15:20.999Z</time></trkpt><trkpt lat="43.93443428003535" lon="11.450192547619956"><ele>180.2</ele><time>2026-04-26T13:15:21.999Z</time></trkpt><trkpt lat="43.9343838201975" lon="11.45031401995022"><ele>180.60000000000002</ele><time>2026-04-26T13:15:22.999Z</time></trkpt><trkpt lat="43.934336706826215" lon="11.450445610052101"><ele>181.0</ele><time>2026-04-26T13:15:23.999Z</time></trkpt><trkpt lat="43.93428373514889" lon="11.45057513906602"><ele>180.60000000000002</ele><time>2026-04-26T13:15:24.999Z</time></trkpt><trkpt lat="43.93423374334853" lon="11.450706788031287"><ele>180.2</ele><time>2026-04-26T13:15:25.999Z</time></trkpt><trkpt lat="43.934193490657584" lon="11.450856534930079"><ele>179.8</ele><time>2026-04-26T13:15:26.999Z</time></trkpt><trkpt lat="43.934153201466174" lon="11.451000008459257"><ele>179.39999999999998</ele><time>2026-04-26T13:15:27.999Z</time></trkpt><trkpt lat="43.934123953673925" lon="11.451141078443172"><ele>179.0</ele><time>2026-04-26T13:15:28.999Z</time></trkpt><trkpt lat="43.93410347044284" lon="11.451274878109018"><ele>179.6</ele><time>2026-04-26T13:15:29.999Z</time></trkpt><trkpt lat="43.9340911673353" lon="11.451400136601569"><ele>180.2</ele><time>2026-04-26T13:15:30.999Z</time></trkpt><trkpt lat="43.9340835558222" lon="11.451513029620518"><ele>180.79999999999998</ele><time>2026-04-26T13:15:31.999Z</time></trkpt><trkpt lat="43.93408296543453" lon="11.45160638591704"><ele>181.39999999999998</ele><time>2026-04-26T13:15:32.999Z</time></trkpt><trkpt lat="43.93409035615789" lon="11.451760648566458"><ele>182.0</ele><time>2026-04-26T13:15:34.999Z</time></trkpt><trkpt lat="43.934090460434426" lon="11.451930004550169"><ele>182.0</ele><time>2026-04-26T13:15:36.999Z</time></trkpt><trkpt lat="43.93411917742498" lon="11.452019350705507"><ele>182.0</ele><time>2026-04-26T13:15:37.999Z</time></trkpt><trkpt lat="43.9341333547744" lon="11.452111431188994"><ele>182.0</ele><time>2026-04-26T13:15:38.999Z</time></trkpt><trkpt lat="43.93415417719573" lon="11.4521969696192"><ele>182.0</ele><time>2026-04-26T13:15:39.999Z</time></trkpt><trkpt lat="43.934166258037536" lon="11.452297388226212"><ele>182.0</ele><time>2026-04-26T13:15:40.999Z</time></trkpt><trkpt lat="43.934211273492316" lon="11.45238384783288"><ele>182.0</ele><time>2026-04-26T13:15:41.999Z</time></trkpt><trkpt lat="43.934227268731036" lon="11.452489333542538"><ele>182.0</ele><time>2026-04-26T13:15:42.999Z</time></trkpt><trkpt lat="43.93427609094143" lon="11.452572563111646"><ele>182.39999999999998</ele><time>2026-04-26T13:15:43.999Z</time></trkpt><trkpt lat="43.93431127414284" lon="11.452664720257545"><ele>182.79999999999998</ele><time>2026-04-26T13:15:44.999Z</time></trkpt><trkpt lat="43.93433040798369" lon="11.452759003672885"><ele>183.2</ele><time>2026-04-26T13:15:45.999Z</time></trkpt><trkpt lat="43.934399721164404" lon="11.452889082940008"><ele>183.6</ele><time>2026-04-26T13:15:47.999Z</time></trkpt><trkpt lat="43.934457837230006" lon="11.453040714514533"><ele>184.0</ele><time>2026-04-26T13:15:49.999Z</time></trkpt><trkpt lat="43.93448975892324" lon="11.453130376997528"><ele>184.0</ele><time>2026-04-26T13:15:50.999Z</time></trkpt><trkpt lat="43.934524260904524" lon="11.453239359768446"><ele>184.0</ele><time>2026-04-26T13:15:51.999Z</time></trkpt><trkpt lat="43.934556086253856" lon="11.45336244179394"><ele>184.0</ele><time>2026-04-26T13:15:52.999Z</time></trkpt><trkpt lat="43.93458566543412" lon="11.453490076145368"><ele>184.0</ele><time>2026-04-26T13:15:53.999Z</time></trkpt><trkpt lat="43.934586497354374" lon="11.453628258691072"><ele>184.0</ele><time>2026-04-26T13:15:54.999Z</time></trkpt><trkpt lat="43.93459628338169" lon="11.45377886054161"><ele>183.2</ele><time>2026-04-26T13:15:55.999Z</time></trkpt><trkpt lat="43.93459537402235" lon="11.453912943795629"><ele>182.39999999999998</ele><time>2026-04-26T13:15:56.999Z</time></trkpt><trkpt lat="43.934585694587796" lon="11.45403825696421"><ele>181.6</ele><time>2026-04-26T13:15:57.999Z</time></trkpt><trkpt lat="43.934565171086646" lon="11.454153377702713"><ele>180.8</ele><time>2026-04-26T13:15:58.999Z</time></trkpt><trkpt lat="43.93454095296192" lon="11.454274057435185"><ele>180.0</ele><time>2026-04-26T13:15:59.999Z</time></trkpt><trkpt lat="43.93451173674687" lon="11.454415071322572"><ele>180.0</ele><time>2026-04-26T13:16:00.999Z</time></trkpt><trkpt lat="43.934479450846645" lon="11.454568041194698"><ele>180.0</ele><time>2026-04-26T13:16:01.999Z</time></trkpt><trkpt lat="43.93446094926109" lon="11.454738472481305"><ele>180.0</ele><time>2026-04-26T13:16:02.999Z</time></trkpt><trkpt lat="43.93442354425633" lon="11.454908253110624"><ele>180.0</ele><time>2026-04-26T13:16:03.999Z</time></trkpt><trkpt lat="43.93438735761249" lon="11.455081235746421"><ele>179.75</ele><time>2026-04-26T13:16:04.999Z</time></trkpt><trkpt lat="43.934349571320574" lon="11.455253776522717"><ele>179.5</ele><time>2026-04-26T13:16:05.999Z</time></trkpt><trkpt lat="43.93431170630046" lon="11.455424190821313"><ele>179.25</ele><time>2026-04-26T13:16:06.999Z</time></trkpt><trkpt lat="43.93427354467479" lon="11.455590345501658"><ele>179.0</ele><time>2026-04-26T13:16:07.999Z</time></trkpt><trkpt lat="43.934236814836424" lon="11.455758069290438"><ele>179.0</ele><time>2026-04-26T13:16:08.999Z</time></trkpt><trkpt lat="43.93420322848743" lon="11.455933023625565"><ele>179.0</ele><time>2026-04-26T13:16:09.999Z</time></trkpt><trkpt lat="43.93416897367821" lon="11.456115155699322"><ele>179.0</ele><time>2026-04-26T13:16:10.999Z</time></trkpt><trkpt lat="43.93413777207739" lon="11.45629372239781"><ele>179.0</ele><time>2026-04-26T13:16:11.999Z</time></trkpt><trkpt lat="43.934096924163555" lon="11.456472677553151"><ele>179.25</ele><time>2026-04-26T13:16:12.999Z</time></trkpt><trkpt lat="43.93408291379968" lon="11.456657574056283"><ele>179.5</ele><time>2026-04-26T13:16:13.999Z</time></trkpt><trkpt lat="43.93405268986878" lon="11.456839517071128"><ele>179.75</ele><time>2026-04-26T13:16:14.999Z</time></trkpt><trkpt lat="43.93402826106571" lon="11.457024512637403"><ele>180.0</ele><time>2026-04-26T13:16:15.999Z</time></trkpt><trkpt lat="43.93400367544592" lon="11.457207500090485"><ele>180.25</ele><time>2026-04-26T13:16:16.999Z</time></trkpt><trkpt lat="43.9339667170371" lon="11.457384519019374"><ele>180.5</ele><time>2026-04-26T13:16:17.999Z</time></trkpt><trkpt lat="43.93393839038139" lon="11.457587336021145"><ele>180.75</ele><time>2026-04-26T13:16:18.999Z</time></trkpt><trkpt lat="43.93391900921337" lon="11.457733543978915"><ele>181.0</ele><time>2026-04-26T13:16:19.999Z</time></trkpt><trkpt lat="43.93389689376544" lon="11.457903580978947"><ele>181.20000000000002</ele><time>2026-04-26T13:16:20.999Z</time></trkpt><trkpt lat="43.9338959850511" lon="11.458069100611102"><ele>181.4</ele><time>2026-04-26T13:16:21.999Z</time></trkpt><trkpt lat="43.933870385520635" lon="11.458219407226801"><ele>181.6</ele><time>2026-04-26T13:16:22.999Z</time></trkpt><trkpt lat="43.933848753664634" lon="11.45836952054719"><ele>181.8</ele><time>2026-04-26T13:16:23.999Z</time></trkpt><trkpt lat="43.933830854563205" lon="11.458514528817728"><ele>182.0</ele><time>2026-04-26T13:16:24.999Z</time></trkpt><trkpt lat="43.933818216305056" lon="11.45865385819124"><ele>182.0</ele><time>2026-04-26T13:16:25.999Z</time></trkpt><trkpt lat="43.93380400600025" lon="11.458774492030896"><ele>182.0</ele><time>2026-04-26T13:16:26.999Z</time></trkpt><trkpt lat="43.9337926504184" lon="11.458888301138451"><ele>182.0</ele><time>2026-04-26T13:16:27.999Z</time></trkpt><trkpt lat="43.93377645588617" lon="11.458973605724"><ele>182.0</ele><time>2026-04-26T13:16:28.999Z</time></trkpt><trkpt lat="43.93374866127826" lon="11.45912099441265"><ele>182.0</ele><time>2026-04-26T13:16:30.999Z</time></trkpt><trkpt lat="43.93371471955046" lon="11.45920126365847"><ele>182.0</ele><time>2026-04-26T13:16:32.999Z</time></trkpt><trkpt lat="43.93367021429901" lon="11.459270943112315"><ele>182.39999999999998</ele><time>2026-04-26T13:16:34.999Z</time></trkpt><trkpt lat="43.93361173579558" lon="11.459412223136255"><ele>182.79999999999998</ele><time>2026-04-26T13:16:36.999Z</time></trkpt><trkpt lat="43.93356781312782" lon="11.459521520755606"><ele>183.2</ele><time>2026-04-26T13:16:37.999Z</time></trkpt><trkpt lat="43.93350015055552" lon="11.45961703623334"><ele>183.6</ele><time>2026-04-26T13:16:38.999Z</time></trkpt><trkpt lat="43.93342777226578" lon="11.459740127801203"><ele>184.0</ele><time>2026-04-26T13:16:39.999Z</time></trkpt><trkpt lat="43.93333798625517" lon="11.459888600744325"><ele>184.0</ele><time>2026-04-26T13:16:40.999Z</time></trkpt><trkpt lat="43.93324935563498" lon="11.460035163094469"><ele>184.0</ele><time>2026-04-26T13:16:41.999Z</time></trkpt><trkpt lat="43.93314349585836" lon="11.460208631107012"><ele>184.0</ele><time>2026-04-26T13:16:42.999Z</time></trkpt><trkpt lat="43.9330561172106" lon="11.46035023112016"><ele>184.0</ele><time>2026-04-26T13:16:43.999Z</time></trkpt><trkpt lat="43.93297682178652" lon="11.46050763007268"><ele>184.25</ele><time>2026-04-26T13:16:45Z</time></trkpt><trkpt lat="43.93288534262009" lon="11.460653654270432"><ele>184.5</ele><time>2026-04-26T13:16:46Z</time></trkpt><trkpt lat="43.93279478790616" lon="11.460806554214397"><ele>184.75</ele><time>2026-04-26T13:16:47Z</time></trkpt><trkpt lat="43.932699649134975" lon="11.460960569336319"><ele>185.0</ele><time>2026-04-26T13:16:48Z</time></trkpt><trkpt lat="43.93261590652833" lon="11.461126680944515"><ele>184.25</ele><time>2026-04-26T13:16:49Z</time></trkpt><trkpt lat="43.93253855343333" lon="11.461298786073318"><ele>183.5</ele><time>2026-04-26T13:16:50Z</time></trkpt><trkpt lat="43.93247064156739" lon="11.461475910013343"><ele>182.75</ele><time>2026-04-26T13:16:51Z</time></trkpt><trkpt lat="43.93241178862158" lon="11.461652771980026"><ele>182.0</ele><time>2026-04-26T13:16:52Z</time></trkpt><trkpt lat="43.93235768085748" lon="11.46183075805698"><ele>182.0</ele><time>2026-04-26T13:16:53Z</time></trkpt><trkpt lat="43.93230608238952" lon="11.462009213651022"><ele>182.0</ele><time>2026-04-26T13:16:54Z</time></trkpt><trkpt lat="43.9322525039902" lon="11.462196374537125"><ele>182.0</ele><time>2026-04-26T13:16:55Z</time></trkpt><trkpt lat="43.932199267225904" lon="11.462388003319067"><ele>182.0</ele><time>2026-04-26T13:16:56Z</time></trkpt><trkpt lat="43.932149217375766" lon="11.462580791835544"><ele>182.25</ele><time>2026-04-26T13:16:57Z</time></trkpt><trkpt lat="43.93209430396423" lon="11.46277473106381"><ele>182.5</ele><time>2026-04-26T13:16:58Z</time></trkpt><trkpt lat="43.93204025758076" lon="11.462964797980986"><ele>182.75</ele><time>2026-04-26T13:16:59Z</time></trkpt><trkpt lat="43.931991872419886" lon="11.46314942281736"><ele>183.0</ele><time>2026-04-26T13:17:00Z</time></trkpt><trkpt lat="43.93194143641618" lon="11.463328407806603"><ele>183.75</ele><time>2026-04-26T13:17:01Z</time></trkpt><trkpt lat="43.93189439193713" lon="11.463501984889076"><ele>184.5</ele><time>2026-04-26T13:17:02Z</time></trkpt><trkpt lat="43.931847669176626" lon="11.463670170240363"><ele>185.25</ele><time>2026-04-26T13:17:03Z</time></trkpt><trkpt lat="43.93178669334867" lon="11.463823369745768"><ele>186.0</ele><time>2026-04-26T13:17:04Z</time></trkpt><trkpt lat="43.93174169666918" lon="11.463978820045575"><ele>184.60000000000002</ele><time>2026-04-26T13:17:05Z</time></trkpt><trkpt lat="43.93170309914073" lon="11.464108886629786"><ele>183.2</ele><time>2026-04-26T13:17:06Z</time></trkpt><trkpt lat="43.931664280943" lon="11.464241026302037"><ele>181.8</ele><time>2026-04-26T13:17:07Z</time></trkpt><trkpt lat="43.931625954077376" lon="11.464361113061623"><ele>180.39999999999998</ele><time>2026-04-26T13:17:08Z</time></trkpt><trkpt lat="43.931577135156274" lon="11.46447515053608"><ele>179.0</ele><time>2026-04-26T13:17:09Z</time></trkpt><trkpt lat="43.93152905033271" lon="11.464604363499449"><ele>180.2</ele><time>2026-04-26T13:17:10Z</time></trkpt><trkpt lat="43.931457201203784" lon="11.464712176043621"><ele>181.39999999999998</ele><time>2026-04-26T13:17:11Z</time></trkpt><trkpt lat="43.93138218633548" lon="11.46481972866206"><ele>182.6</ele><time>2026-04-26T13:17:12Z</time></trkpt><trkpt lat="43.93130257766562" lon="11.464933483377212"><ele>183.8</ele><time>2026-04-26T13:17:13Z</time></trkpt><trkpt lat="43.93122120331711" lon="11.465050219129413"><ele>185.0</ele><time>2026-04-26T13:17:14Z</time></trkpt><trkpt lat="43.93113586211715" lon="11.465176050191872"><ele>185.0</ele><time>2026-04-26T13:17:15Z</time></trkpt><trkpt lat="43.93104612698551" lon="11.465305840284447"><ele>185.0</ele><time>2026-04-26T13:17:16Z</time></trkpt><trkpt lat="43.930954689714504" lon="11.465444115155444"><ele>185.0</ele><time>2026-04-26T13:17:17Z</time></trkpt><trkpt lat="43.93085206544968" lon="11.465565138244553"><ele>185.0</ele><time>2026-04-26T13:17:18Z</time></trkpt><trkpt lat="43.93076973500993" lon="11.465717516368477"><ele>184.33333333333331</ele><time>2026-04-26T13:17:19Z</time></trkpt><trkpt lat="43.93066882503888" lon="11.465849814384905"><ele>183.66666666666666</ele><time>2026-04-26T13:17:20Z</time></trkpt><trkpt lat="43.93060717352244" lon="11.466043910307178"><ele>183.0</ele><time>2026-04-26T13:17:21Z</time></trkpt><trkpt lat="43.93053081519091" lon="11.466237873472457"><ele>185.0</ele><time>2026-04-26T13:17:22Z</time></trkpt><trkpt lat="43.93046276235764" lon="11.466445487095164"><ele>187.0</ele><time>2026-04-26T13:17:23Z</time></trkpt><trkpt lat="43.93040780792892" lon="11.46666541774215"><ele>189.0</ele><time>2026-04-26T13:17:24Z</time></trkpt><trkpt lat="43.930353590613116" lon="11.466890366597244"><ele>190.33333333333331</ele><time>2026-04-26T13:17:25Z</time></trkpt><trkpt lat="43.93030516643141" lon="11.467119497923239"><ele>191.66666666666666</ele><time>2026-04-26T13:17:26Z</time></trkpt><trkpt lat="43.930270919868484" lon="11.467337790718352"><ele>193.0</ele><time>2026-04-26T13:17:27Z</time></trkpt><trkpt lat="43.930242346880064" lon="11.467548065166923"><ele>193.0</ele><time>2026-04-26T13:17:28Z</time></trkpt><trkpt lat="43.930228002597694" lon="11.46775883786505"><ele>193.0</ele><time>2026-04-26T13:17:29Z</time></trkpt><trkpt lat="43.930231800113205" lon="11.467976329233627"><ele>193.0</ele><time>2026-04-26T13:17:30Z</time></trkpt><trkpt lat="43.93025327588054" lon="11.468192178401306"><ele>191.0</ele><time>2026-04-26T13:17:31Z</time></trkpt><trkpt lat="43.93028815924356" lon="11.468412141894769"><ele>189.0</ele><time>2026-04-26T13:17:32Z</time></trkpt><trkpt lat="43.93033132819671" lon="11.468621136313612"><ele>187.0</ele><time>2026-04-26T13:17:33Z</time></trkpt><trkpt lat="43.93037849335169" lon="11.468826421880383"><ele>184.0</ele><time>2026-04-26T13:17:34Z</time></trkpt><trkpt lat="43.93043346666788" lon="11.469025045443493"><ele>181.0</ele><time>2026-04-26T13:17:35Z</time></trkpt><trkpt lat="43.930492402550925" lon="11.469214361130598"><ele>178.0</ele><time>2026-04-26T13:17:36Z</time></trkpt><trkpt lat="43.93056384295037" lon="11.469398919168558"><ele>178.0</ele><time>2026-04-26T13:17:37Z</time></trkpt><trkpt lat="43.93064303901069" lon="11.469576992809042"><ele>178.0</ele><time>2026-04-26T13:17:38Z</time></trkpt><trkpt lat="43.93072969822999" lon="11.469746140529416"><ele>178.0</ele><time>2026-04-26T13:17:39Z</time></trkpt><trkpt lat="43.9308234924379" lon="11.469906753434406"><ele>178.0</ele><time>2026-04-26T13:17:40Z</time></trkpt><trkpt lat="43.930929341999395" lon="11.470068364472413"><ele>177.66666666666669</ele><time>2026-04-26T13:17:41Z</time></trkpt><trkpt lat="43.9310443638884" lon="11.470211367342106"><ele>177.33333333333334</ele><time>2026-04-26T13:17:42Z</time></trkpt><trkpt lat="43.93118857761208" lon="11.470364107643103"><ele>177.0</ele><time>2026-04-26T13:17:43Z</time></trkpt><trkpt lat="43.93134233496119" lon="11.47051095199165"><ele>176.0</ele><time>2026-04-26T13:17:44Z</time></trkpt><trkpt lat="43.931499156832984" lon="11.47064311782902"><ele>175.0</ele><time>2026-04-26T13:17:45Z</time></trkpt><trkpt lat="43.93164908566021" lon="11.47076604883596"><ele>174.0</ele><time>2026-04-26T13:17:46Z</time></trkpt><trkpt lat="43.93179995712386" lon="11.470865714594236"><ele>174.0</ele><time>2026-04-26T13:17:47Z</time></trkpt><trkpt lat="43.93194006873775" lon="11.47097841098825"><ele>174.0</ele><time>2026-04-26T13:17:48Z</time></trkpt><trkpt lat="43.93207074779642" lon="11.471077752723906"><ele>174.0</ele><time>2026-04-26T13:17:49Z</time></trkpt><trkpt lat="43.9321913497697" lon="11.47114963570243"><ele>174.0</ele><time>2026-04-26T13:17:50Z</time></trkpt><trkpt lat="43.93231979932714" lon="11.471232202167464"><ele>173.75</ele><time>2026-04-26T13:17:51Z</time></trkpt><trkpt lat="43.932453958551534" lon="11.471304139824579"><ele>173.5</ele><time>2026-04-26T13:17:52Z</time></trkpt><trkpt lat="43.9325927715515" lon="11.471376762366521"><ele>173.25</ele><time>2026-04-26T13:17:53Z</time></trkpt><trkpt lat="43.93273530088677" lon="11.471450419481155"><ele>173.0</ele><time>2026-04-26T13:17:54Z</time></trkpt><trkpt lat="43.93287450838705" lon="11.4715181694505"><ele>173.0</ele><time>2026-04-26T13:17:55Z</time></trkpt><trkpt lat="43.93300705212626" lon="11.471580622281195"><ele>173.0</ele><time>2026-04-26T13:17:56Z</time></trkpt><trkpt lat="43.933128196260355" lon="11.471640692334116"><ele>173.0</ele><time>2026-04-26T13:17:57Z</time></trkpt><trkpt lat="43.933244193153406" lon="11.471698245224877"><ele>173.0</ele><time>2026-04-26T13:17:58Z</time></trkpt><trkpt lat="43.93335333568585" lon="11.471754887567997"><ele>173.8</ele><time>2026-04-26T13:17:59Z</time></trkpt><trkpt lat="43.93345602178142" lon="11.471810806033172"><ele>174.60000000000002</ele><time>2026-04-26T13:18:00Z</time></trkpt><trkpt lat="43.93354901973525" lon="11.471884679031405"><ele>175.39999999999998</ele><time>2026-04-26T13:18:01Z</time></trkpt><trkpt lat="43.93361975625418" lon="11.47200119117476"><ele>176.2</ele><time>2026-04-26T13:18:02Z</time></trkpt><trkpt lat="43.93364673296011" lon="11.47216458546093"><ele>177.0</ele><time>2026-04-26T13:18:03Z</time></trkpt><trkpt lat="43.933697581930396" lon="11.472323012980047"><ele>177.0</ele><time>2026-04-26T13:18:04Z</time></trkpt><trkpt lat="43.93373604778298" lon="11.472501060327962"><ele>177.0</ele><time>2026-04-26T13:18:05Z</time></trkpt><trkpt lat="43.933785502563616" lon="11.472686714592946"><ele>177.0</ele><time>2026-04-26T13:18:06Z</time></trkpt><trkpt lat="43.93382759000807" lon="11.472896399658305"><ele>177.0</ele><time>2026-04-26T13:18:07Z</time></trkpt><trkpt lat="43.93388368048113" lon="11.47312348976123"><ele>176.0</ele><time>2026-04-26T13:18:08Z</time></trkpt><trkpt lat="43.93394318969284" lon="11.473359184378715"><ele>175.0</ele><time>2026-04-26T13:18:09Z</time></trkpt><trkpt lat="43.934010433984824" lon="11.473574887033923"><ele>174.0</ele><time>2026-04-26T13:18:10Z</time></trkpt><trkpt lat="43.9340614311869" lon="11.473790423186403"><ele>173.33333333333334</ele><time>2026-04-26T13:18:11Z</time></trkpt><trkpt lat="43.93411460605066" lon="11.47399982697063"><ele>172.66666666666669</ele><time>2026-04-26T13:18:12Z</time></trkpt><trkpt lat="43.93416746721469" lon="11.474211091198256"><ele>172.0</ele><time>2026-04-26T13:18:13Z</time></trkpt><trkpt lat="43.93421602754521" lon="11.474418676897956"><ele>172.0</ele><time>2026-04-26T13:18:14Z</time></trkpt><trkpt lat="43.934256250229964" lon="11.474628070862174"><ele>172.0</ele><time>2026-04-26T13:18:15Z</time></trkpt><trkpt lat="43.9342879638439" lon="11.474840624453474"><ele>172.0</ele><time>2026-04-26T13:18:16Z</time></trkpt><trkpt lat="43.934315588344624" lon="11.475055724081033"><ele>172.0</ele><time>2026-04-26T13:18:17Z</time></trkpt><trkpt lat="43.93434177049371" lon="11.475270538965974"><ele>172.0</ele><time>2026-04-26T13:18:18Z</time></trkpt><trkpt lat="43.93436780314881" lon="11.47548527511662"><ele>172.0</ele><time>2026-04-26T13:18:19Z</time></trkpt><trkpt lat="43.93439283171073" lon="11.475700152982142"><ele>173.66666666666669</ele><time>2026-04-26T13:18:20Z</time></trkpt><trkpt lat="43.93442015204622" lon="11.475913933962872"><ele>175.33333333333334</ele><time>2026-04-26T13:18:21Z</time></trkpt><trkpt lat="43.93444822080484" lon="11.476126615290205"><ele>177.0</ele><time>2026-04-26T13:18:22Z</time></trkpt><trkpt lat="43.934476829157184" lon="11.47634065728814"><ele>177.0</ele><time>2026-04-26T13:18:23Z</time></trkpt><trkpt lat="43.934500925120815" lon="11.476555280489622"><ele>177.0</ele><time>2026-04-26T13:18:24Z</time></trkpt><trkpt lat="43.93452525623035" lon="11.476769004629924"><ele>177.0</ele><time>2026-04-26T13:18:25Z</time></trkpt><trkpt lat="43.93454928555251" lon="11.476981811611301"><ele>177.0</ele><time>2026-04-26T13:18:26Z</time></trkpt><trkpt lat="43.934573779398725" lon="11.477191806643415"><ele>177.0</ele><time>2026-04-26T13:18:27Z</time></trkpt><trkpt lat="43.93459066711395" lon="11.477395215382758"><ele>177.0</ele><time>2026-04-26T13:18:28Z</time></trkpt><trkpt lat="43.934592731969566" lon="11.47759993842073"><ele>177.0</ele><time>2026-04-26T13:18:29Z</time></trkpt><trkpt lat="43.93456651109522" lon="11.47780598173414"><ele>177.66666666666666</ele><time>2026-04-26T13:18:30Z</time></trkpt><trkpt lat="43.93451705951262" lon="11.478008560449432"><ele>178.33333333333331</ele><time>2026-04-26T13:18:31Z</time></trkpt><trkpt lat="43.934467376377036" lon="11.478212567148942"><ele>179.0</ele><time>2026-04-26T13:18:32Z</time></trkpt><trkpt lat="43.93442161111728" lon="11.478423501770937"><ele>179.0</ele><time>2026-04-26T13:18:33Z</time></trkpt><trkpt lat="43.93437565772229" lon="11.478639164178588"><ele>179.0</ele><time>2026-04-26T13:18:34Z</time></trkpt><trkpt lat="43.93432804860248" lon="11.47885921149237"><ele>179.0</ele><time>2026-04-26T13:18:35Z</time></trkpt><trkpt lat="43.934272627389326" lon="11.47908065367727"><ele>177.33333333333331</ele><time>2026-04-26T13:18:36Z</time></trkpt><trkpt lat="43.9342044150977" lon="11.479297785505914"><ele>175.66666666666666</ele><time>2026-04-26T13:18:37Z</time></trkpt><trkpt lat="43.9341260718739" lon="11.479504027694093"><ele>174.0</ele><time>2026-04-26T13:18:38Z</time></trkpt><trkpt lat="43.934051271536845" lon="11.479698752229556"><ele>174.0</ele><time>2026-04-26T13:18:39Z</time></trkpt><trkpt lat="43.933978884075614" lon="11.479886502904263"><ele>174.0</ele><time>2026-04-26T13:18:40Z</time></trkpt><trkpt lat="43.933909023264725" lon="11.48007104816736"><ele>174.0</ele><time>2026-04-26T13:18:41Z</time></trkpt><trkpt lat="43.93384133348556" lon="11.48024880135835"><ele>174.0</ele><time>2026-04-26T13:18:42Z</time></trkpt><trkpt lat="43.93377502681243" lon="11.480422328694319"><ele>174.5</ele><time>2026-04-26T13:18:43Z</time></trkpt><trkpt lat="43.933699181140966" lon="11.48058371492424"><ele>175.0</ele><time>2026-04-26T13:18:44Z</time></trkpt><trkpt lat="43.93360731128679" lon="11.48072772975543"><ele>175.5</ele><time>2026-04-26T13:18:45Z</time></trkpt><trkpt lat="43.933495308308196" lon="11.480855140829359"><ele>176.0</ele><time>2026-04-26T13:18:46Z</time></trkpt><trkpt lat="43.93337323511907" lon="11.480979855437939"><ele>175.66666666666666</ele><time>2026-04-26T13:18:47Z</time></trkpt><trkpt lat="43.9332476597973" lon="11.48110781944626"><ele>175.33333333333334</ele><time>2026-04-26T13:18:48Z</time></trkpt><trkpt lat="43.933117967841966" lon="11.481241348846604"><ele>175.0</ele><time>2026-04-26T13:18:49Z</time></trkpt><trkpt lat="43.93298642967317" lon="11.481379006326275"><ele>175.0</ele><time>2026-04-26T13:18:50Z</time></trkpt><trkpt lat="43.93285624624674" lon="11.481517253020336"><ele>175.0</ele><time>2026-04-26T13:18:51Z</time></trkpt><trkpt lat="43.93272726611035" lon="11.481662173461142"><ele>175.0</ele><time>2026-04-26T13:18:52Z</time></trkpt><trkpt lat="43.932603549405506" lon="11.481826575901502"><ele>174.33333333333334</ele><time>2026-04-26T13:18:53Z</time></trkpt><trkpt lat="43.9324700330819" lon="11.482006757245339"><ele>173.66666666666666</ele><time>2026-04-26T13:18:54Z</time></trkpt><trkpt lat="43.9323448870767" lon="11.48221594802618"><ele>173.0</ele><time>2026-04-26T13:18:55Z</time></trkpt><trkpt lat="43.9322163234486" lon="11.482434321655832"><ele>173.0</ele><time>2026-04-26T13:18:56Z</time></trkpt><trkpt lat="43.93210593062529" lon="11.482651495405076"><ele>173.0</ele><time>2026-04-26T13:18:57Z</time></trkpt><trkpt lat="43.9319888733508" lon="11.482839669393497"><ele>173.0</ele><time>2026-04-26T13:18:58Z</time></trkpt><trkpt lat="43.931883796595024" lon="11.483023307199433"><ele>173.25</ele><time>2026-04-26T13:18:59Z</time></trkpt><trkpt lat="43.93178578098664" lon="11.483194707710618"><ele>173.5</ele><time>2026-04-26T13:19:00Z</time></trkpt><trkpt lat="43.93169738935934" lon="11.483337236658413"><ele>173.75</ele><time>2026-04-26T13:19:01Z</time></trkpt><trkpt lat="43.9316116927286" lon="11.483473248367604"><ele>174.0</ele><time>2026-04-26T13:19:02Z</time></trkpt><trkpt lat="43.931530095066805" lon="11.483608751495245"><ele>173.5</ele><time>2026-04-26T13:19:03Z</time></trkpt><trkpt lat="43.931448197712" lon="11.483742815424788"><ele>173.0</ele><time>2026-04-26T13:19:04Z</time></trkpt><trkpt lat="43.93136843961247" lon="11.483873777582158"><ele>172.5</ele><time>2026-04-26T13:19:05Z</time></trkpt><trkpt lat="43.931291434750776" lon="11.484017541184063"><ele>172.0</ele><time>2026-04-26T13:19:06Z</time></trkpt><trkpt lat="43.931224894267615" lon="11.484181959107703"><ele>173.66666666666669</ele><time>2026-04-26T13:19:07Z</time></trkpt><trkpt lat="43.93117564990054" lon="11.48436979849535"><ele>175.33333333333334</ele><time>2026-04-26T13:19:08Z</time></trkpt><trkpt lat="43.931121473038715" lon="11.484586827438013"><ele>177.0</ele><time>2026-04-26T13:19:09Z</time></trkpt><trkpt lat="43.93106771008332" lon="11.484826312603097"><ele>177.0</ele><time>2026-04-26T13:19:10Z</time></trkpt><trkpt lat="43.93101717399856" lon="11.485049935371881"><ele>177.0</ele><time>2026-04-26T13:19:11Z</time></trkpt><trkpt lat="43.93096876453741" lon="11.48525183855772"><ele>177.0</ele><time>2026-04-26T13:19:12Z</time></trkpt><trkpt lat="43.930941899310575" lon="11.485434865351738"><ele>176.39999999999998</ele><time>2026-04-26T13:19:13Z</time></trkpt><trkpt lat="43.93090197118598" lon="11.485587805355967"><ele>175.79999999999998</ele><time>2026-04-26T13:19:14Z</time></trkpt><trkpt lat="43.93086436655982" lon="11.48573134313298"><ele>175.2</ele><time>2026-04-26T13:19:15Z</time></trkpt><trkpt lat="43.93083501451525" lon="11.485856314748775"><ele>174.6</ele><time>2026-04-26T13:19:16Z</time></trkpt><trkpt lat="43.93080884497615" lon="11.485956879293544"><ele>174.0</ele><time>2026-04-26T13:19:17Z</time></trkpt><trkpt lat="43.93077439177522" lon="11.486047429889364"><ele>174.0</ele><time>2026-04-26T13:19:18Z</time></trkpt><trkpt lat="43.93070053891527" lon="11.486100584575633"><ele>174.0</ele><time>2026-04-26T13:19:19Z</time></trkpt><trkpt lat="43.93061388256666" lon="11.48614906106033"><ele>174.0</ele><time>2026-04-26T13:19:20Z</time></trkpt><trkpt lat="43.930517591072636" lon="11.486187959791906"><ele>174.0</ele><time>2026-04-26T13:19:21Z</time></trkpt><trkpt lat="43.93042322022229" lon="11.486248598706622"><ele>174.0</ele><time>2026-04-26T13:19:22Z</time></trkpt><trkpt lat="43.93032117012864" lon="11.486289833986561"><ele>174.5</ele><time>2026-04-26T13:19:23Z</time></trkpt><trkpt lat="43.930225300559975" lon="11.486368670341008"><ele>175.0</ele><time>2026-04-26T13:19:24Z</time></trkpt><trkpt lat="43.93014385964149" lon="11.486483263290282"><ele>175.5</ele><time>2026-04-26T13:19:25Z</time></trkpt><trkpt lat="43.93008205153366" lon="11.486630171146125"><ele>176.0</ele><time>2026-04-26T13:19:26Z</time></trkpt><trkpt lat="43.930046486377336" lon="11.4868019433312"><ele>176.0</ele><time>2026-04-26T13:19:27Z</time></trkpt><trkpt lat="43.93003431034601" lon="11.486990756196041"><ele>176.0</ele><time>2026-04-26T13:19:28Z</time></trkpt><trkpt lat="43.93003078219516" lon="11.487177924647812"><ele>176.0</ele><time>2026-04-26T13:19:29Z</time></trkpt><trkpt lat="43.9300190165993" lon="11.487362765011277"><ele>176.0</ele><time>2026-04-26T13:19:30Z</time></trkpt><trkpt lat="43.93000964410158" lon="11.487544134943791"><ele>177.5</ele><time>2026-04-26T13:19:31Z</time></trkpt><trkpt lat="43.930003110861115" lon="11.487726286704767"><ele>179.0</ele><time>2026-04-26T13:19:32Z</time></trkpt><trkpt lat="43.9300079581623" lon="11.487908501261861"><ele>180.5</ele><time>2026-04-26T13:19:33Z</time></trkpt><trkpt lat="43.9299973971595" lon="11.488108815271316"><ele>182.0</ele><time>2026-04-26T13:19:34Z</time></trkpt><trkpt lat="43.93000758899315" lon="11.488299179915217"><ele>183.0</ele><time>2026-04-26T13:19:35Z</time></trkpt><trkpt lat="43.93003233473445" lon="11.488497054196642"><ele>184.0</ele><time>2026-04-26T13:19:36Z</time></trkpt><trkpt lat="43.93008600084002" lon="11.488711725234289"><ele>185.0</ele><time>2026-04-26T13:19:37Z</time></trkpt><trkpt lat="43.930123528516766" lon="11.488987450333248"><ele>189.0</ele><time>2026-04-26T13:19:38Z</time></trkpt><trkpt lat="43.93017594533352" lon="11.489251853765476"><ele>193.0</ele><time>2026-04-26T13:19:39Z</time></trkpt><trkpt lat="43.93022895727857" lon="11.489519060571983"><ele>197.0</ele><time>2026-04-26T13:19:40Z</time></trkpt><trkpt lat="43.93028375445627" lon="11.489794500773987"><ele>197.0</ele><time>2026-04-26T13:19:41Z</time></trkpt><trkpt lat="43.930339294694974" lon="11.490073676041485"><ele>197.0</ele><time>2026-04-26T13:19:42Z</time></trkpt><trkpt lat="43.93039130510497" lon="11.490335108273086"><ele>197.0</ele><time>2026-04-26T13:19:43Z</time></trkpt><trkpt lat="43.93043995163798" lon="11.49057972526115"><ele>194.33333333333334</ele><time>2026-04-26T13:19:44Z</time></trkpt><trkpt lat="43.93048454440434" lon="11.490810891820916"><ele>191.66666666666669</ele><time>2026-04-26T13:19:45Z</time></trkpt><trkpt lat="43.93052315357167" lon="11.491014848969916"><ele>189.0</ele><time>2026-04-26T13:19:46Z</time></trkpt><trkpt lat="43.93055484516711" lon="11.491193847139414"><ele>188.0</ele><time>2026-04-26T13:19:47Z</time></trkpt><trkpt lat="43.93058846325015" lon="11.491391507551814"><ele>187.0</ele><time>2026-04-26T13:19:48Z</time></trkpt><trkpt lat="43.93062899869005" lon="11.49162983914071"><ele>186.0</ele><time>2026-04-26T13:19:49Z</time></trkpt><trkpt lat="43.93067613279356" lon="11.491898361499807"><ele>184.33333333333334</ele><time>2026-04-26T13:19:50Z</time></trkpt><trkpt lat="43.93072726055699" lon="11.492160629824177"><ele>182.66666666666669</ele><time>2026-04-26T13:19:51Z</time></trkpt><trkpt lat="43.93075287998309" lon="11.492432712676797"><ele>181.0</ele><time>2026-04-26T13:19:52Z</time></trkpt><trkpt lat="43.930766989427156" lon="11.492702744230382"><ele>180.0</ele><time>2026-04-26T13:19:53Z</time></trkpt><trkpt lat="43.93076267294118" lon="11.492962649203463"><ele>179.0</ele><time>2026-04-26T13:19:54Z</time></trkpt><trkpt lat="43.93075967776018" lon="11.493219756383258"><ele>178.0</ele><time>2026-04-26T13:19:55Z</time></trkpt><trkpt lat="43.93075268742839" lon="11.493466334903255"><ele>178.0</ele><time>2026-04-26T13:19:56Z</time></trkpt><trkpt lat="43.93075499353341" lon="11.49371001894561"><ele>178.0</ele><time>2026-04-26T13:19:57Z</time></trkpt><trkpt lat="43.93077440369893" lon="11.493945718757042"><ele>178.0</ele><time>2026-04-26T13:19:58Z</time></trkpt><trkpt lat="43.93082451227972" lon="11.494162357116553"><ele>185.75</ele><time>2026-04-26T13:19:59Z</time></trkpt><trkpt lat="43.930895968896074" lon="11.494341177420427"><ele>193.5</ele><time>2026-04-26T13:20:00Z</time></trkpt><trkpt lat="43.930957156495964" lon="11.494507148234096"><ele>201.25</ele><time>2026-04-26T13:20:01Z</time></trkpt><trkpt lat="43.93097303625055" lon="11.494679721122605"><ele>209.0</ele><time>2026-04-26T13:20:02Z</time></trkpt><trkpt lat="43.930939488965585" lon="11.494867079276316"><ele>203.66666666666669</ele><time>2026-04-26T13:20:03Z</time></trkpt><trkpt lat="43.9308735234792" lon="11.49504850762664"><ele>198.33333333333331</ele><time>2026-04-26T13:20:04Z</time></trkpt><trkpt lat="43.930796853448896" lon="11.495232134989482"><ele>193.0</ele><time>2026-04-26T13:20:05Z</time></trkpt><trkpt lat="43.93073286673953" lon="11.495440065761786"><ele>193.0</ele><time>2026-04-26T13:20:06Z</time></trkpt><trkpt lat="43.93070452242813" lon="11.495685838436248"><ele>193.0</ele><time>2026-04-26T13:20:07Z</time></trkpt><trkpt lat="43.93069299831017" lon="11.495929892666677"><ele>193.0</ele><time>2026-04-26T13:20:08Z</time></trkpt><trkpt lat="43.93069464226648" lon="11.496166428208"><ele>194.0</ele><time>2026-04-26T13:20:09Z</time></trkpt><trkpt lat="43.93071170980885" lon="11.496393772590983"><ele>195.0</ele><time>2026-04-26T13:20:10Z</time></trkpt><trkpt lat="43.93073700967039" lon="11.49659981911571"><ele>196.0</ele><time>2026-04-26T13:20:11Z</time></trkpt><trkpt lat="43.930731838714266" lon="11.496776473891423"><ele>197.0</ele><time>2026-04-26T13:20:12Z</time></trkpt><trkpt lat="43.93073952986377" lon="11.496924103831793"><ele>197.0</ele><time>2026-04-26T13:20:13Z</time></trkpt><trkpt lat="43.93068104108937" lon="11.497047476786408"><ele>197.0</ele><time>2026-04-26T13:20:14Z</time></trkpt><trkpt lat="43.93056030875577" lon="11.49710554626099"><ele>197.0</ele><time>2026-04-26T13:20:15Z</time></trkpt><trkpt lat="43.930431485453326" lon="11.497178803429984"><ele>197.0</ele><time>2026-04-26T13:20:16Z</time></trkpt><trkpt lat="43.93030097644273" lon="11.497279478511729"><ele>195.33333333333334</ele><time>2026-04-26T13:20:17Z</time></trkpt><trkpt lat="43.93016062542952" lon="11.497376904260369"><ele>193.66666666666669</ele><time>2026-04-26T13:20:18Z</time></trkpt><trkpt lat="43.930020062077844" lon="11.497492917395485"><ele>192.0</ele><time>2026-04-26T13:20:19Z</time></trkpt><trkpt lat="43.92988191014533" lon="11.497627608837215"><ele>192.0</ele><time>2026-04-26T13:20:20Z</time></trkpt><trkpt lat="43.929751438027346" lon="11.497775902194803"><ele>192.0</ele><time>2026-04-26T13:20:21Z</time></trkpt><trkpt lat="43.92963928257548" lon="11.497938259177602"><ele>192.0</ele><time>2026-04-26T13:20:22Z</time></trkpt><trkpt lat="43.92953092558619" lon="11.498118163538384"><ele>192.33333333333331</ele><time>2026-04-26T13:20:23Z</time></trkpt><trkpt lat="43.92942481732498" lon="11.498307399994927"><ele>192.66666666666666</ele><time>2026-04-26T13:20:24Z</time></trkpt><trkpt lat="43.92931988542056" lon="11.498495902024946"><ele>193.0</ele><time>2026-04-26T13:20:25Z</time></trkpt><trkpt lat="43.92919756285712" lon="11.498651326123342"><ele>198.0</ele><time>2026-04-26T13:20:26Z</time></trkpt><trkpt lat="43.92908746321472" lon="11.498813029015926"><ele>203.0</ele><time>2026-04-26T13:20:27Z</time></trkpt><trkpt lat="43.929006924329094" lon="11.498984606224045"><ele>208.0</ele><time>2026-04-26T13:20:28Z</time></trkpt><trkpt lat="43.92891658737075" lon="11.499142965717317"><ele>208.0</ele><time>2026-04-26T13:20:29Z</time></trkpt><trkpt lat="43.92883137355851" lon="11.499303771306685"><ele>208.0</ele><time>2026-04-26T13:20:30Z</time></trkpt><trkpt lat="43.928730312075835" lon="11.499404863795885"><ele>208.0</ele><time>2026-04-26T13:20:31Z</time></trkpt><trkpt lat="43.92862592354613" lon="11.499451456791478"><ele>208.0</ele><time>2026-04-26T13:20:32Z</time></trkpt><trkpt lat="43.92852488473458" lon="11.49935753860645"><ele>208.0</ele><time>2026-04-26T13:20:33Z</time></trkpt><trkpt lat="43.928452506655006" lon="11.499241719929"><ele>208.0</ele><time>2026-04-26T13:20:34Z</time></trkpt><trkpt lat="43.92837625186183" lon="11.499117232253962"><ele>208.0</ele><time>2026-04-26T13:20:35Z</time></trkpt><trkpt lat="43.928266174657686" lon="11.499038289311862"><ele>208.0</ele><time>2026-04-26T13:20:36Z</time></trkpt><trkpt lat="43.92812476852404" lon="11.499042616533742"><ele>204.33333333333331</ele><time>2026-04-26T13:20:37Z</time></trkpt><trkpt lat="43.927976041158495" lon="11.499117131614044"><ele>200.66666666666669</ele><time>2026-04-26T13:20:38Z</time></trkpt><trkpt lat="43.92781056974926" lon="11.499224987548974"><ele>197.0</ele><time>2026-04-26T13:20:39Z</time></trkpt><trkpt lat="43.9276351612004" lon="11.499311306536928"><ele>198.33333333333334</ele><time>2026-04-26T13:20:40Z</time></trkpt><trkpt lat="43.92745869119335" lon="11.499406150987085"><ele>199.66666666666669</ele><time>2026-04-26T13:20:41Z</time></trkpt><trkpt lat="43.92729461968977" lon="11.49950417725683"><ele>201.0</ele><time>2026-04-26T13:20:42Z</time></trkpt><trkpt lat="43.92714793699322" lon="11.499643827071653"><ele>201.0</ele><time>2026-04-26T13:20:43Z</time></trkpt><trkpt lat="43.92701810403844" lon="11.499837761026171"><ele>201.0</ele><time>2026-04-26T13:20:44Z</time></trkpt><trkpt lat="43.92690222791254" lon="11.50005970877948"><ele>201.0</ele><time>2026-04-26T13:20:45Z</time></trkpt><trkpt lat="43.92677004493787" lon="11.500274307795843"><ele>197.33333333333334</ele><time>2026-04-26T13:20:46Z</time></trkpt><trkpt lat="43.926624449645246" lon="11.500461979385918"><ele>193.66666666666669</ele><time>2026-04-26T13:20:47Z</time></trkpt><trkpt lat="43.926467010100836" lon="11.500615800924738"><ele>190.0</ele><time>2026-04-26T13:20:48Z</time></trkpt><trkpt lat="43.926298228834526" lon="11.500716438810148"><ele>190.0</ele><time>2026-04-26T13:20:49Z</time></trkpt><trkpt lat="43.92612294042186" lon="11.5007682613142"><ele>190.0</ele><time>2026-04-26T13:20:50Z</time></trkpt><trkpt lat="43.92594346989476" lon="11.500782836744023"><ele>190.0</ele><time>2026-04-26T13:20:51Z</time></trkpt><trkpt lat="43.925766752080634" lon="11.500767792127249"><ele>188.66666666666669</ele><time>2026-04-26T13:20:52Z</time></trkpt><trkpt lat="43.92559628662576" lon="11.500724313980557"><ele>187.33333333333334</ele><time>2026-04-26T13:20:53Z</time></trkpt><trkpt lat="43.9254290679101" lon="11.5007006846932"><ele>186.0</ele><time>2026-04-26T13:20:54Z</time></trkpt><trkpt lat="43.925269997076136" lon="11.5006794004418"><ele>186.0</ele><time>2026-04-26T13:20:55Z</time></trkpt><trkpt lat="43.92512312352187" lon="11.500665627548695"><ele>186.0</ele><time>2026-04-26T13:20:56Z</time></trkpt><trkpt lat="43.92498882577009" lon="11.500658991491278"><ele>186.0</ele><time>2026-04-26T13:20:57Z</time></trkpt><trkpt lat="43.924854625760595" lon="11.5006804817944"><ele>186.0</ele><time>2026-04-26T13:20:58Z</time></trkpt><trkpt lat="43.92472068619404" lon="11.50066394256435"><ele>184.33333333333334</ele><time>2026-04-26T13:20:59Z</time></trkpt><trkpt lat="43.92458875654744" lon="11.500682311219004"><ele>182.66666666666669</ele><time>2026-04-26T13:21:00Z</time></trkpt><trkpt lat="43.924445879573774" lon="11.5007200949912"><ele>181.0</ele><time>2026-04-26T13:21:01Z</time></trkpt><trkpt lat="43.924278722538176" lon="11.500777074215954"><ele>179.33333333333334</ele><time>2026-04-26T13:21:02Z</time></trkpt><trkpt lat="43.92409638479137" lon="11.500873705752895"><ele>177.66666666666666</ele><time>2026-04-26T13:21:03Z</time></trkpt><trkpt lat="43.92392271154072" lon="11.501006903148735"><ele>176.0</ele><time>2026-04-26T13:21:04Z</time></trkpt><trkpt lat="43.92373616190773" lon="11.501101153227633"><ele>176.0</ele><time>2026-04-26T13:21:05Z</time></trkpt><trkpt lat="43.92353407799295" lon="11.50116636243997"><ele>176.0</ele><time>2026-04-26T13:21:06Z</time></trkpt><trkpt lat="43.92333060499816" lon="11.501197337564605"><ele>176.0</ele><time>2026-04-26T13:21:07Z</time></trkpt><trkpt lat="43.92313376445923" lon="11.501222336366396"><ele>176.0</ele><time>2026-04-26T13:21:08Z</time></trkpt><trkpt lat="43.92294032221252" lon="11.501259315171161"><ele>176.0</ele><time>2026-04-26T13:21:09Z</time></trkpt><trkpt lat="43.92274899933663" lon="11.50131125017434"><ele>176.0</ele><time>2026-04-26T13:21:10Z</time></trkpt><trkpt lat="43.92256316704082" lon="11.501389488063634"><ele>175.33333333333331</ele><time>2026-04-26T13:21:11Z</time></trkpt><trkpt lat="43.92237646516816" lon="11.501477543554884"><ele>174.66666666666666</ele><time>2026-04-26T13:21:12Z</time></trkpt><trkpt lat="43.92220085006985" lon="11.501583549439209"><ele>174.0</ele><time>2026-04-26T13:21:13Z</time></trkpt><trkpt lat="43.92202786001733" lon="11.501712921439175"><ele>174.0</ele><time>2026-04-26T13:21:14Z</time></trkpt><trkpt lat="43.92185491838057" lon="11.501842960109327"><ele>174.0</ele><time>2026-04-26T13:21:15Z</time></trkpt><trkpt lat="43.92168301010581" lon="11.501971568426141"><ele>174.0</ele><time>2026-04-26T13:21:16Z</time></trkpt><trkpt lat="43.921508031049036" lon="11.502097812189838"><ele>174.0</ele><time>2026-04-26T13:21:17Z</time></trkpt><trkpt lat="43.921334204440846" lon="11.50222587622336"><ele>174.0</ele><time>2026-04-26T13:21:18Z</time></trkpt><trkpt lat="43.92115811955808" lon="11.502352721204606"><ele>174.0</ele><time>2026-04-26T13:21:19Z</time></trkpt><trkpt lat="43.92097869729831" lon="11.502479042087502"><ele>172.66666666666666</ele><time>2026-04-26T13:21:20Z</time></trkpt><trkpt lat="43.920795228703305" lon="11.502603007319852"><ele>171.33333333333331</ele><time>2026-04-26T13:21:21Z</time></trkpt><trkpt lat="43.92061318762755" lon="11.502737010029799"><ele>170.0</ele><time>2026-04-26T13:21:22Z</time></trkpt><trkpt lat="43.92042952815916" lon="11.502872124289125"><ele>172.33333333333331</ele><time>2026-04-26T13:21:23Z</time></trkpt><trkpt lat="43.92024566842881" lon="11.503005603310669"><ele>174.66666666666666</ele><time>2026-04-26T13:21:24Z</time></trkpt><trkpt lat="43.9200591075767" lon="11.503135637315046"><ele>177.0</ele><time>2026-04-26T13:21:25Z</time></trkpt><trkpt lat="43.91987641898844" lon="11.503270988213757"><ele>177.0</ele><time>2026-04-26T13:21:26Z</time></trkpt><trkpt lat="43.91968773470635" lon="11.503396435689172"><ele>177.0</ele><time>2026-04-26T13:21:27Z</time></trkpt><trkpt lat="43.919489668446424" lon="11.503481745616277"><ele>177.0</ele><time>2026-04-26T13:21:28Z</time></trkpt><trkpt lat="43.91931000512515" lon="11.503617163992187"><ele>179.33333333333334</ele><time>2026-04-26T13:21:29Z</time></trkpt><trkpt lat="43.91912661321454" lon="11.50374023290647"><ele>181.66666666666669</ele><time>2026-04-26T13:21:30Z</time></trkpt><trkpt lat="43.91894112961836" lon="11.503874900859598"><ele>184.0</ele><time>2026-04-26T13:21:31Z</time></trkpt><trkpt lat="43.918754801069326" lon="11.50400726917145"><ele>184.0</ele><time>2026-04-26T13:21:32Z</time></trkpt><trkpt lat="43.91855146598102" lon="11.504067674514557"><ele>184.0</ele><time>2026-04-26T13:21:33Z</time></trkpt><trkpt lat="43.91834767936863" lon="11.504118368169545"><ele>184.0</ele><time>2026-04-26T13:21:34Z</time></trkpt><trkpt lat="43.9181407913673" lon="11.504154617016255"><ele>178.66666666666669</ele><time>2026-04-26T13:21:35Z</time></trkpt><trkpt lat="43.91793222249226" lon="11.50418704850407"><ele>173.33333333333334</ele><time>2026-04-26T13:21:36Z</time></trkpt><trkpt lat="43.917727420995284" lon="11.504240269232014"><ele>168.0</ele><time>2026-04-26T13:21:37Z</time></trkpt><trkpt lat="43.917519445514586" lon="11.504274185295033"><ele>167.0</ele><time>2026-04-26T13:21:38Z</time></trkpt><trkpt lat="43.91731286290422" lon="11.504306257253813"><ele>166.0</ele><time>2026-04-26T13:21:39Z</time></trkpt><trkpt lat="43.91710584875387" lon="11.504337102982795"><ele>165.0</ele><time>2026-04-26T13:21:40Z</time></trkpt><trkpt lat="43.91690007332784" lon="11.50437656054222"><ele>166.0</ele><time>2026-04-26T13:21:41Z</time></trkpt><trkpt lat="43.916696481475284" lon="11.504434001439057"><ele>167.0</ele><time>2026-04-26T13:21:42Z</time></trkpt><trkpt lat="43.916493859531684" lon="11.504511336834652"><ele>168.0</ele><time>2026-04-26T13:21:43Z</time></trkpt><trkpt lat="43.91628799941954" lon="11.504588932609785"><ele>171.0</ele><time>2026-04-26T13:21:44Z</time></trkpt><trkpt lat="43.91608066291264" lon="11.504660003011185"><ele>174.0</ele><time>2026-04-26T13:21:45Z</time></trkpt><trkpt lat="43.915871578594604" lon="11.504735415488636"><ele>177.0</ele><time>2026-04-26T13:21:46Z</time></trkpt><trkpt lat="43.91566094675699" lon="11.504814298806874"><ele>177.0</ele><time>2026-04-26T13:21:47Z</time></trkpt><trkpt lat="43.915449262468236" lon="11.504891418110603"><ele>177.0</ele><time>2026-04-26T13:21:48Z</time></trkpt><trkpt lat="43.91523806073522" lon="11.504967235181493"><ele>177.0</ele><time>2026-04-26T13:21:49Z</time></trkpt><trkpt lat="43.91502624685248" lon="11.505043761616976"><ele>173.33333333333334</ele><time>2026-04-26T13:21:50Z</time></trkpt><trkpt lat="43.9148166452122" lon="11.505119355827798"><ele>169.66666666666669</ele><time>2026-04-26T13:21:51Z</time></trkpt><trkpt lat="43.91460732656872" lon="11.505193702439994"><ele>166.0</ele><time>2026-04-26T13:21:52Z</time></trkpt><trkpt lat="43.91439733663681" lon="11.50526123145431"><ele>165.33333333333334</ele><time>2026-04-26T13:21:53Z</time></trkpt><trkpt lat="43.91418783474521" lon="11.505320851418952"><ele>164.66666666666666</ele><time>2026-04-26T13:21:54Z</time></trkpt><trkpt lat="43.91397872191368" lon="11.505372042168558"><ele>164.0</ele><time>2026-04-26T13:21:55Z</time></trkpt><trkpt lat="43.91377018746931" lon="11.505416962704839"><ele>164.66666666666666</ele><time>2026-04-26T13:21:56Z</time></trkpt><trkpt lat="43.913559386776434" lon="11.505461271498"><ele>165.33333333333334</ele><time>2026-04-26T13:21:57Z</time></trkpt><trkpt lat="43.913349090546205" lon="11.50551129641571"><ele>166.0</ele><time>2026-04-26T13:21:58Z</time></trkpt><trkpt lat="43.913135991533274" lon="11.505584788512943"><ele>166.0</ele><time>2026-04-26T13:21:59Z</time></trkpt><trkpt lat="43.912922321716216" lon="11.505686095460794"><ele>166.0</ele><time>2026-04-26T13:22:00Z</time></trkpt><trkpt lat="43.9127090672286" lon="11.505818314897759"><ele>162.5</ele><time>2026-04-26T13:22:01Z</time></trkpt><trkpt lat="43.912493089133875" lon="11.50597566167292"><ele>159.0</ele><time>2026-04-26T13:22:02Z</time></trkpt><trkpt lat="43.91228292174108" lon="11.506136147758014"><ele>160.5</ele><time>2026-04-26T13:22:03Z</time></trkpt><trkpt lat="43.912072216271774" lon="11.506314185913084"><ele>162.0</ele><time>2026-04-26T13:22:04Z</time></trkpt><trkpt lat="43.91187316797084" lon="11.506479026649004"><ele>161.0</ele><time>2026-04-26T13:22:04.999Z</time></trkpt><trkpt lat="43.91169028207006" lon="11.506635953556433"><ele>160.0</ele><time>2026-04-26T13:22:05.999Z</time></trkpt><trkpt lat="43.91151819761705" lon="11.506790255297396"><ele>159.0</ele><time>2026-04-26T13:22:06.999Z</time></trkpt><trkpt lat="43.91135760162818" lon="11.506943387291615"><ele>163.0</ele><time>2026-04-26T13:22:07.999Z</time></trkpt><trkpt lat="43.91120189168436" lon="11.50708993078362"><ele>167.0</ele><time>2026-04-26T13:22:08.999Z</time></trkpt><trkpt lat="43.91105339745948" lon="11.507218285064388"><ele>171.0</ele><time>2026-04-26T13:22:09.999Z</time></trkpt><trkpt lat="43.91088925257367" lon="11.507281228064105"><ele>173.66666666666666</ele><time>2026-04-26T13:22:10.999Z</time></trkpt><trkpt lat="43.91072315954632" lon="11.507300250940396"><ele>176.33333333333331</ele><time>2026-04-26T13:22:11.999Z</time></trkpt><trkpt lat="43.910606757569056" lon="11.507237642920272"><ele>179.0</ele><time>2026-04-26T13:22:12.999Z</time></trkpt><trkpt lat="43.91045383528588" lon="11.507181511542703"><ele>179.0</ele><time>2026-04-26T13:22:13.999Z</time></trkpt><trkpt lat="43.91028705290134" lon="11.50711856041225"><ele>179.0</ele><time>2026-04-26T13:22:14.999Z</time></trkpt><trkpt lat="43.91012614583112" lon="11.507054565087886"><ele>179.0</ele><time>2026-04-26T13:22:15.999Z</time></trkpt><trkpt lat="43.90995946172042" lon="11.506983080640415"><ele>174.33333333333331</ele><time>2026-04-26T13:22:16.999Z</time></trkpt><trkpt lat="43.90980153064837" lon="11.506896418716757"><ele>169.66666666666666</ele><time>2026-04-26T13:22:17.999Z</time></trkpt><trkpt lat="43.90964769492088" lon="11.506796576487332"><ele>165.0</ele><time>2026-04-26T13:22:18.999Z</time></trkpt><trkpt lat="43.90949721260163" lon="11.506684327086043"><ele>165.0</ele><time>2026-04-26T13:22:19.999Z</time></trkpt><trkpt lat="43.90936370494132" lon="11.506559683859177"><ele>165.0</ele><time>2026-04-26T13:22:20.999Z</time></trkpt><trkpt lat="43.909247691362005" lon="11.506432927390003"><ele>165.0</ele><time>2026-04-26T13:22:21.999Z</time></trkpt><trkpt lat="43.909130416138495" lon="11.506316661799609"><ele>163.25</ele><time>2026-04-26T13:22:22.999Z</time></trkpt><trkpt lat="43.90900006175065" lon="11.506226740290918"><ele>161.5</ele><time>2026-04-26T13:22:23.999Z</time></trkpt><trkpt lat="43.90886753353989" lon="11.506163847123872"><ele>159.75</ele><time>2026-04-26T13:22:24.999Z</time></trkpt><trkpt lat="43.908734021757155" lon="11.50614065876934"><ele>158.0</ele><time>2026-04-26T13:22:25.999Z</time></trkpt><trkpt lat="43.908590423951075" lon="11.50617468557739"><ele>164.33333333333331</ele><time>2026-04-26T13:22:26.999Z</time></trkpt><trkpt lat="43.90844892022804" lon="11.506257642092127"><ele>170.66666666666666</ele><time>2026-04-26T13:22:27.999Z</time></trkpt><trkpt lat="43.90830653571971" lon="11.50636173534695"><ele>177.0</ele><time>2026-04-26T13:22:28.999Z</time></trkpt><trkpt lat="43.9081541158066" lon="11.50641607220257"><ele>177.0</ele><time>2026-04-26T13:22:29.999Z</time></trkpt><trkpt lat="43.90799556713334" lon="11.506440148733308"><ele>177.0</ele><time>2026-04-26T13:22:30.999Z</time></trkpt><trkpt lat="43.907827799712756" lon="11.506421886897627"><ele>177.0</ele><time>2026-04-26T13:22:31.999Z</time></trkpt><trkpt lat="43.907650264757315" lon="11.506370509450184"><ele>179.33333333333334</ele><time>2026-04-26T13:22:32.999Z</time></trkpt><trkpt lat="43.90747437967369" lon="11.50629833471007"><ele>181.66666666666669</ele><time>2026-04-26T13:22:33.999Z</time></trkpt><trkpt lat="43.907286246097506" lon="11.50625750208347"><ele>184.0</ele><time>2026-04-26T13:22:34.999Z</time></trkpt><trkpt lat="43.90710625976395" lon="11.506165048641174"><ele>177.33333333333334</ele><time>2026-04-26T13:22:35.999Z</time></trkpt><trkpt lat="43.90692855008595" lon="11.506077496721803"><ele>170.66666666666666</ele><time>2026-04-26T13:22:36.999Z</time></trkpt><trkpt lat="43.90674950110434" lon="11.506011870498726"><ele>164.0</ele><time>2026-04-26T13:22:37.999Z</time></trkpt><trkpt lat="43.906571560266016" lon="11.505969428088465"><ele>164.0</ele><time>2026-04-26T13:22:38.999Z</time></trkpt><trkpt lat="43.90638566411173" lon="11.505965669394016"><ele>164.0</ele><time>2026-04-26T13:22:39.999Z</time></trkpt><trkpt lat="43.9061913618285" lon="11.505993692303695"><ele>164.0</ele><time>2026-04-26T13:22:40.999Z</time></trkpt><trkpt lat="43.90599291661392" lon="11.506041015104595"><ele>164.33333333333331</ele><time>2026-04-26T13:22:41.999Z</time></trkpt><trkpt lat="43.90579024239275" lon="11.506092594468802"><ele>164.66666666666666</ele><time>2026-04-26T13:22:42.999Z</time></trkpt><trkpt lat="43.90558228749366" lon="11.506134539643211"><ele>165.0</ele><time>2026-04-26T13:22:43.999Z</time></trkpt><trkpt lat="43.9053726579436" lon="11.506168779118685"><ele>165.0</ele><time>2026-04-26T13:22:44.999Z</time></trkpt><trkpt lat="43.90516169149914" lon="11.506208197436884"><ele>165.0</ele><time>2026-04-26T13:22:45.999Z</time></trkpt><trkpt lat="43.90494626882377" lon="11.506248328687667"><ele>165.0</ele><time>2026-04-26T13:22:46.999Z</time></trkpt><trkpt lat="43.90473331232148" lon="11.506283592310119"><ele>166.33333333333334</ele><time>2026-04-26T13:22:47.999Z</time></trkpt><trkpt lat="43.904527321573084" lon="11.50632160768133"><ele>167.66666666666669</ele><time>2026-04-26T13:22:48.999Z</time></trkpt><trkpt lat="43.9043232899167" lon="11.506356707994819"><ele>169.0</ele><time>2026-04-26T13:22:49.999Z</time></trkpt><trkpt lat="43.904124152477095" lon="11.506385536155866"><ele>169.0</ele><time>2026-04-26T13:22:50.999Z</time></trkpt><trkpt lat="43.90393806544401" lon="11.506409024779986"><ele>169.0</ele><time>2026-04-26T13:22:51.999Z</time></trkpt><trkpt lat="43.9037573823558" lon="11.506438753222918"><ele>169.0</ele><time>2026-04-26T13:22:52.999Z</time></trkpt><trkpt lat="43.903583876584605" lon="11.506479705144335"><ele>169.0</ele><time>2026-04-26T13:22:53.999Z</time></trkpt><trkpt lat="43.903426715824615" lon="11.506560394659735"><ele>169.0</ele><time>2026-04-26T13:22:54.999Z</time></trkpt><trkpt lat="43.90328839264859" lon="11.506688879051419"><ele>169.0</ele><time>2026-04-26T13:22:55.999Z</time></trkpt><trkpt lat="43.903167428914664" lon="11.506855963623119"><ele>167.33333333333334</ele><time>2026-04-26T13:22:56.999Z</time></trkpt><trkpt lat="43.90305900723095" lon="11.50705973400237"><ele>165.66666666666666</ele><time>2026-04-26T13:22:57.999Z</time></trkpt><trkpt lat="43.90295492588525" lon="11.507278564948702"><ele>164.0</ele><time>2026-04-26T13:22:58.999Z</time></trkpt><trkpt lat="43.902839607462376" lon="11.507499009561275"><ele>166.66666666666666</ele><time>2026-04-26T13:22:59.999Z</time></trkpt><trkpt lat="43.90271845129975" lon="11.507724668546999"><ele>169.33333333333334</ele><time>2026-04-26T13:23:00.999Z</time></trkpt><trkpt lat="43.90259543118199" lon="11.507945525615995"><ele>172.0</ele><time>2026-04-26T13:23:02Z</time></trkpt><trkpt lat="43.90247743910531" lon="11.508163961086915"><ele>172.0</ele><time>2026-04-26T13:23:03Z</time></trkpt><trkpt lat="43.90236035275526" lon="11.508381048833913"><ele>172.0</ele><time>2026-04-26T13:23:04Z</time></trkpt><trkpt lat="43.902244637008835" lon="11.508593051491689"><ele>172.0</ele><time>2026-04-26T13:23:05Z</time></trkpt><trkpt lat="43.90213238609329" lon="11.508801669694053"><ele>176.0</ele><time>2026-04-26T13:23:06Z</time></trkpt><trkpt lat="43.902024718731056" lon="11.50900092110609"><ele>180.0</ele><time>2026-04-26T13:23:07Z</time></trkpt><trkpt lat="43.90191737672065" lon="11.509193042896475"><ele>184.0</ele><time>2026-04-26T13:23:08Z</time></trkpt><trkpt lat="43.90181326018514" lon="11.509390006839219"><ele>180.0</ele><time>2026-04-26T13:23:09Z</time></trkpt><trkpt lat="43.90171155963874" lon="11.509578951478062"><ele>176.0</ele><time>2026-04-26T13:23:10Z</time></trkpt><trkpt lat="43.90160653403716" lon="11.509761104134897"><ele>172.0</ele><time>2026-04-26T13:23:11Z</time></trkpt><trkpt lat="43.90150530636598" lon="11.50994751510409"><ele>172.0</ele><time>2026-04-26T13:23:12Z</time></trkpt><trkpt lat="43.90140808010474" lon="11.510131711268533"><ele>172.0</ele><time>2026-04-26T13:23:13Z</time></trkpt><trkpt lat="43.90131179924526" lon="11.510312039312193"><ele>172.0</ele><time>2026-04-26T13:23:14Z</time></trkpt><trkpt lat="43.901216290811156" lon="11.51049110252535"><ele>173.33333333333334</ele><time>2026-04-26T13:23:15Z</time></trkpt><trkpt lat="43.90112091863085" lon="11.510667191050008"><ele>174.66666666666666</ele><time>2026-04-26T13:23:16Z</time></trkpt><trkpt lat="43.9010287586601" lon="11.510843061474997"><ele>176.0</ele><time>2026-04-26T13:23:17Z</time></trkpt><trkpt lat="43.900946865970084" lon="11.511023286551106"><ele>173.75</ele><time>2026-04-26T13:23:18Z</time></trkpt><trkpt lat="43.900865816209304" lon="11.511200249344974"><ele>171.5</ele><time>2026-04-26T13:23:19Z</time></trkpt><trkpt lat="43.90079758853846" lon="11.51138363412765"><ele>169.25</ele><time>2026-04-26T13:23:20Z</time></trkpt><trkpt lat="43.90073069957533" lon="11.511556581933847"><ele>167.0</ele><time>2026-04-26T13:23:21Z</time></trkpt><trkpt lat="43.9006667126852" lon="11.51172563748632"><ele>167.0</ele><time>2026-04-26T13:23:22Z</time></trkpt><trkpt lat="43.90060477882878" lon="11.511893361535996"><ele>167.0</ele><time>2026-04-26T13:23:23Z</time></trkpt><trkpt lat="43.90054447179836" lon="11.512055048792059"><ele>167.0</ele><time>2026-04-26T13:23:24Z</time></trkpt><trkpt lat="43.90048452678013" lon="11.512214983864931"><ele>167.0</ele><time>2026-04-26T13:23:25Z</time></trkpt><trkpt lat="43.90042820106898" lon="11.51238158029481"><ele>166.5</ele><time>2026-04-26T13:23:26Z</time></trkpt><trkpt lat="43.900378633058324" lon="11.512554430894246"><ele>166.0</ele><time>2026-04-26T13:23:27Z</time></trkpt><trkpt lat="43.900332321708106" lon="11.51273442324753"><ele>165.5</ele><time>2026-04-26T13:23:28Z</time></trkpt><trkpt lat="43.90028108849016" lon="11.5129150553789"><ele>165.0</ele><time>2026-04-26T13:23:29Z</time></trkpt><trkpt lat="43.90023079585316" lon="11.513100445556466"><ele>165.0</ele><time>2026-04-26T13:23:30Z</time></trkpt><trkpt lat="43.90018094304395" lon="11.51328877745317"><ele>165.0</ele><time>2026-04-26T13:23:31Z</time></trkpt><trkpt lat="43.90013091545964" lon="11.513479471684144"><ele>165.0</ele><time>2026-04-26T13:23:32Z</time></trkpt><trkpt lat="43.90007670607376" lon="11.513671383376993"><ele>165.0</ele><time>2026-04-26T13:23:33Z</time></trkpt><trkpt lat="43.90001587396371" lon="11.513861133929982"><ele>164.0</ele><time>2026-04-26T13:23:34Z</time></trkpt><trkpt lat="43.89994919908702" lon="11.514050558540674"><ele>163.0</ele><time>2026-04-26T13:23:35Z</time></trkpt><trkpt lat="43.899877740730524" lon="11.514240668466392"><ele>162.0</ele><time>2026-04-26T13:23:36Z</time></trkpt><trkpt lat="43.89980260150121" lon="11.514430176382916"><ele>162.33333333333334</ele><time>2026-04-26T13:23:37Z</time></trkpt><trkpt lat="43.899723977517695" lon="11.514619802009868"><ele>162.66666666666669</ele><time>2026-04-26T13:23:38Z</time></trkpt><trkpt lat="43.89964333908192" lon="11.514809917902497"><ele>163.0</ele><time>2026-04-26T13:23:39Z</time></trkpt><trkpt lat="43.899558949574114" lon="11.514999624067013"><ele>163.0</ele><time>2026-04-26T13:23:40Z</time></trkpt><trkpt lat="43.8994770594782" lon="11.515190873584451"><ele>163.0</ele><time>2026-04-26T13:23:41Z</time></trkpt><trkpt lat="43.89938799095358" lon="11.515374949522478"><ele>163.0</ele><time>2026-04-26T13:23:42Z</time></trkpt><trkpt lat="43.89930436360679" lon="11.515560181244743"><ele>161.66666666666669</ele><time>2026-04-26T13:23:43Z</time></trkpt><trkpt lat="43.89921788725267" lon="11.515740847031891"><ele>160.33333333333334</ele><time>2026-04-26T13:23:44Z</time></trkpt><trkpt lat="43.89912067547485" lon="11.515908143179429"><ele>159.0</ele><time>2026-04-26T13:23:45Z</time></trkpt><trkpt lat="43.8990057049761" lon="11.516052694749535"><ele>159.0</ele><time>2026-04-26T13:23:46Z</time></trkpt><trkpt lat="43.89887282224909" lon="11.516166412368294"><ele>159.0</ele><time>2026-04-26T13:23:47Z</time></trkpt><trkpt lat="43.89874077539341" lon="11.516269138189609"><ele>159.0</ele><time>2026-04-26T13:23:48Z</time></trkpt><trkpt lat="43.89861088727414" lon="11.516368561052122"><ele>159.25</ele><time>2026-04-26T13:23:49Z</time></trkpt><trkpt lat="43.898481768974406" lon="11.516458680969494"><ele>159.5</ele><time>2026-04-26T13:23:50Z</time></trkpt><trkpt lat="43.898350266238985" lon="11.516537705205055"><ele>159.75</ele><time>2026-04-26T13:23:51Z</time></trkpt><trkpt lat="43.89821523030819" lon="11.516610951038821"><ele>160.0</ele><time>2026-04-26T13:23:52Z</time></trkpt><trkpt lat="43.89808009735345" lon="11.516681232439034"><ele>160.0</ele><time>2026-04-26T13:23:53Z</time></trkpt><trkpt lat="43.89794733845721" lon="11.516755234781671"><ele>160.0</ele><time>2026-04-26T13:23:54Z</time></trkpt><trkpt lat="43.89781517847983" lon="11.516833969797961"><ele>160.0</ele><time>2026-04-26T13:23:55Z</time></trkpt><trkpt lat="43.89768488420437" lon="11.516917289674145"><ele>160.0</ele><time>2026-04-26T13:23:56Z</time></trkpt><trkpt lat="43.89755725393467" lon="11.517010250016337"><ele>160.25</ele><time>2026-04-26T13:23:57Z</time></trkpt><trkpt lat="43.89743363679877" lon="11.517110954033738"><ele>160.5</ele><time>2026-04-26T13:23:58Z</time></trkpt><trkpt lat="43.897309800706616" lon="11.517216849833316"><ele>160.75</ele><time>2026-04-26T13:23:59Z</time></trkpt><trkpt lat="43.89718667900848" lon="11.5173272955371"><ele>161.0</ele><time>2026-04-26T13:24:00Z</time></trkpt><trkpt lat="43.89706078722083" lon="11.517435423829946"><ele>161.0</ele><time>2026-04-26T13:24:01Z</time></trkpt><trkpt lat="43.8969352532597" lon="11.517543602025981"><ele>161.0</ele><time>2026-04-26T13:24:02Z</time></trkpt><trkpt lat="43.89680854758558" lon="11.51765243138554"><ele>161.0</ele><time>2026-04-26T13:24:03Z</time></trkpt><trkpt lat="43.896683005379934" lon="11.517761624224441"><ele>161.0</ele><time>2026-04-26T13:24:04Z</time></trkpt><trkpt lat="43.89655554476698" lon="11.517872068854311"><ele>161.0</ele><time>2026-04-26T13:24:05Z</time></trkpt><trkpt lat="43.89642844636884" lon="11.517981369437793"><ele>161.0</ele><time>2026-04-26T13:24:06Z</time></trkpt><trkpt lat="43.89630035644267" lon="11.518088160080614"><ele>161.0</ele><time>2026-04-26T13:24:07Z</time></trkpt><trkpt lat="43.896172870558395" lon="11.518195571020737"><ele>161.0</ele><time>2026-04-26T13:24:08Z</time></trkpt><trkpt lat="43.896042266229045" lon="11.518305286661345"><ele>159.66666666666666</ele><time>2026-04-26T13:24:09Z</time></trkpt><trkpt lat="43.89591408834375" lon="11.518417986390205"><ele>158.33333333333334</ele><time>2026-04-26T13:24:10Z</time></trkpt><trkpt lat="43.89578550397296" lon="11.518530271119081"><ele>157.0</ele><time>2026-04-26T13:24:11Z</time></trkpt><trkpt lat="43.89565697478761" lon="11.518640958272515"><ele>158.0</ele><time>2026-04-26T13:24:12Z</time></trkpt><trkpt lat="43.89552848521502" lon="11.518749888987882"><ele>159.0</ele><time>2026-04-26T13:24:13Z</time></trkpt><trkpt lat="43.895398642240664" lon="11.51885560604783"><ele>160.0</ele><time>2026-04-26T13:24:14Z</time></trkpt><trkpt lat="43.89527153927859" lon="11.518956037959716"><ele>161.0</ele><time>2026-04-26T13:24:15Z</time></trkpt><trkpt lat="43.895140564298835" lon="11.519045568209393"><ele>160.25</ele><time>2026-04-26T13:24:16Z</time></trkpt><trkpt lat="43.895017013904" lon="11.519144034178362"><ele>159.5</ele><time>2026-04-26T13:24:17Z</time></trkpt><trkpt lat="43.89488935858251" lon="11.5192321681984"><ele>158.75</ele><time>2026-04-26T13:24:18Z</time></trkpt><trkpt lat="43.89476388092685" lon="11.5193171664174"><ele>158.0</ele><time>2026-04-26T13:24:19Z</time></trkpt><trkpt lat="43.894639005745525" lon="11.519400704993503"><ele>158.0</ele><time>2026-04-26T13:24:20Z</time></trkpt><trkpt lat="43.89451650764671" lon="11.51947925557889"><ele>158.0</ele><time>2026-04-26T13:24:21Z</time></trkpt><trkpt lat="43.89439584875818" lon="11.519554902166094"><ele>158.0</ele><time>2026-04-26T13:24:22Z</time></trkpt><trkpt lat="43.894277748475766" lon="11.519632160084722"><ele>158.0</ele><time>2026-04-26T13:24:23Z</time></trkpt><trkpt lat="43.894161026676194" lon="11.519707746511266"><ele>158.5</ele><time>2026-04-26T13:24:24Z</time></trkpt><trkpt lat="43.89404562625594" lon="11.51978179092178"><ele>159.0</ele><time>2026-04-26T13:24:25Z</time></trkpt><trkpt lat="43.89393010782959" lon="11.519849629274137"><ele>159.5</ele><time>2026-04-26T13:24:26Z</time></trkpt><trkpt lat="43.89381240278048" lon="11.519925411856217"><ele>160.0</ele><time>2026-04-26T13:24:27Z</time></trkpt><trkpt lat="43.893695209893835" lon="11.519990594764094"><ele>160.0</ele><time>2026-04-26T13:24:28Z</time></trkpt><trkpt lat="43.893578503097736" lon="11.520059063980085"><ele>160.0</ele><time>2026-04-26T13:24:29Z</time></trkpt><trkpt lat="43.893458457878026" lon="11.520127354125464"><ele>160.0</ele><time>2026-04-26T13:24:30Z</time></trkpt><trkpt lat="43.89333833892634" lon="11.52019710627149"><ele>160.0</ele><time>2026-04-26T13:24:31Z</time></trkpt><trkpt lat="43.893216600443154" lon="11.520266801276327"><ele>159.5</ele><time>2026-04-26T13:24:32Z</time></trkpt><trkpt lat="43.89309327908304" lon="11.52033946890428"><ele>159.0</ele><time>2026-04-26T13:24:33Z</time></trkpt><trkpt lat="43.89297044880311" lon="11.520418103700045"><ele>158.5</ele><time>2026-04-26T13:24:34Z</time></trkpt><trkpt lat="43.8928474372821" lon="11.520498431667129"><ele>158.0</ele><time>2026-04-26T13:24:35Z</time></trkpt><trkpt lat="43.89272502031274" lon="11.520583306262196"><ele>158.75</ele><time>2026-04-26T13:24:36Z</time></trkpt><trkpt lat="43.89260789893439" lon="11.520672436526521"><ele>159.5</ele><time>2026-04-26T13:24:37Z</time></trkpt><trkpt lat="43.89249349400629" lon="11.520762077601146"><ele>160.25</ele><time>2026-04-26T13:24:38Z</time></trkpt><trkpt lat="43.89238028625508" lon="11.52085696139562"><ele>161.0</ele><time>2026-04-26T13:24:39Z</time></trkpt><trkpt lat="43.89226915959564" lon="11.520953400304442"><ele>161.0</ele><time>2026-04-26T13:24:40Z</time></trkpt><trkpt lat="43.89215757308466" lon="11.52104917814652"><ele>161.0</ele><time>2026-04-26T13:24:41Z</time></trkpt><trkpt lat="43.8920448475268" lon="11.521147714067855"><ele>161.0</ele><time>2026-04-26T13:24:42Z</time></trkpt><trkpt lat="43.891935349546934" lon="11.521248060042474"><ele>161.0</ele><time>2026-04-26T13:24:43Z</time></trkpt><trkpt lat="43.891827373907745" lon="11.521349673140127"><ele>161.0</ele><time>2026-04-26T13:24:44Z</time></trkpt><trkpt lat="43.891717040831296" lon="11.521449956601423"><ele>161.0</ele><time>2026-04-26T13:24:45Z</time></trkpt><trkpt lat="43.89160657334453" lon="11.521548892878133"><ele>161.0</ele><time>2026-04-26T13:24:46Z</time></trkpt><trkpt lat="43.89150337198677" lon="11.521648420466859"><ele>161.0</ele><time>2026-04-26T13:24:47Z</time></trkpt><trkpt lat="43.89140733400232" lon="11.521752044487457"><ele>161.0</ele><time>2026-04-26T13:24:48Z</time></trkpt><trkpt lat="43.891309056902514" lon="11.521845564089602"><ele>161.0</ele><time>2026-04-26T13:24:49Z</time></trkpt><trkpt lat="43.8912308491" lon="11.521973623026089"><ele>161.0</ele><time>2026-04-26T13:24:50Z</time></trkpt><trkpt lat="43.89116132791443" lon="11.522103835382007"><ele>161.0</ele><time>2026-04-26T13:24:51Z</time></trkpt><trkpt lat="43.89110441023503" lon="11.522240775133097"><ele>161.20000000000002</ele><time>2026-04-26T13:24:52Z</time></trkpt><trkpt lat="43.89105996801305" lon="11.52238044965437"><ele>161.4</ele><time>2026-04-26T13:24:53Z</time></trkpt><trkpt lat="43.89102201800852" lon="11.52251799438659"><ele>161.6</ele><time>2026-04-26T13:24:54Z</time></trkpt><trkpt lat="43.8909900658879" lon="11.52265169000455"><ele>161.8</ele><time>2026-04-26T13:24:55Z</time></trkpt><trkpt lat="43.890973206438346" lon="11.522765884427313"><ele>162.0</ele><time>2026-04-26T13:24:56Z</time></trkpt><trkpt lat="43.89095990608293" lon="11.52288001126236"><ele>162.16666666666666</ele><time>2026-04-26T13:24:57Z</time></trkpt><trkpt lat="43.89095361720895" lon="11.522978877414223"><ele>162.33333333333334</ele><time>2026-04-26T13:24:58Z</time></trkpt><trkpt lat="43.89095772467727" lon="11.523124518382321"><ele>162.5</ele><time>2026-04-26T13:25:00Z</time></trkpt><trkpt lat="43.890921511993454" lon="11.523228729625357"><ele>162.66666666666669</ele><time>2026-04-26T13:25:02Z</time></trkpt><trkpt lat="43.89085698129277" lon="11.523245115191163"><ele>162.83333333333334</ele><time>2026-04-26T13:25:03Z</time></trkpt><trkpt lat="43.89078253476152" lon="11.523243331913472"><ele>163.0</ele><time>2026-04-26T13:25:04Z</time></trkpt><trkpt lat="43.89069840221798" lon="11.523250215975054"><ele>162.4</ele><time>2026-04-26T13:25:05Z</time></trkpt><trkpt lat="43.8906046998768" lon="11.523260971929536"><ele>161.8</ele><time>2026-04-26T13:25:06Z</time></trkpt><trkpt lat="43.890509369848814" lon="11.523272069143015"><ele>161.2</ele><time>2026-04-26T13:25:07Z</time></trkpt><trkpt lat="43.89040790713409" lon="11.523296788386764"><ele>160.6</ele><time>2026-04-26T13:25:08Z</time></trkpt><trkpt lat="43.89030986764161" lon="11.523352561111006"><ele>160.0</ele><time>2026-04-26T13:25:09Z</time></trkpt><trkpt lat="43.890222795868496" lon="11.523447349700332"><ele>160.0</ele><time>2026-04-26T13:25:10Z</time></trkpt><trkpt lat="43.890143636922" lon="11.523568772363275"><ele>160.0</ele><time>2026-04-26T13:25:11Z</time></trkpt><trkpt lat="43.890061629827905" lon="11.523696195759394"><ele>160.0</ele><time>2026-04-26T13:25:12Z</time></trkpt><trkpt lat="43.88997892604031" lon="11.52382844316861"><ele>160.0</ele><time>2026-04-26T13:25:13Z</time></trkpt><trkpt lat="43.88989883291332" lon="11.523959183147438"><ele>158.5</ele><time>2026-04-26T13:25:14Z</time></trkpt><trkpt lat="43.88982059465714" lon="11.524078892180981"><ele>157.0</ele><time>2026-04-26T13:25:15Z</time></trkpt><trkpt lat="43.889738843001666" lon="11.524197644079354"><ele>155.5</ele><time>2026-04-26T13:25:16Z</time></trkpt><trkpt lat="43.8896492348972" lon="11.5243133960149"><ele>154.0</ele><time>2026-04-26T13:25:17Z</time></trkpt><trkpt lat="43.88955341146349" lon="11.524419599525674"><ele>154.0</ele><time>2026-04-26T13:25:18Z</time></trkpt><trkpt lat="43.889451359517935" lon="11.524512917811162"><ele>154.0</ele><time>2026-04-26T13:25:19Z</time></trkpt><trkpt lat="43.88934821320829" lon="11.524604390127273"><ele>154.0</ele><time>2026-04-26T13:25:20Z</time></trkpt><trkpt lat="43.889245259191284" lon="11.52469664926523"><ele>154.0</ele><time>2026-04-26T13:25:21Z</time></trkpt><trkpt lat="43.88914160405532" lon="11.524783597087387"><ele>153.5</ele><time>2026-04-26T13:25:22Z</time></trkpt><trkpt lat="43.88903494309434" lon="11.524866572523756"><ele>153.0</ele><time>2026-04-26T13:25:23Z</time></trkpt><trkpt lat="43.888921421360315" lon="11.524941626366797"><ele>152.5</ele><time>2026-04-26T13:25:24Z</time></trkpt><trkpt lat="43.88880910736029" lon="11.52500862702222"><ele>152.0</ele><time>2026-04-26T13:25:25Z</time></trkpt><trkpt lat="43.888692399654396" lon="11.52507007988419"><ele>152.0</ele><time>2026-04-26T13:25:26Z</time></trkpt><trkpt lat="43.88857495682852" lon="11.525130841652912"><ele>152.0</ele><time>2026-04-26T13:25:27Z</time></trkpt><trkpt lat="43.888455380410825" lon="11.525190989049419"><ele>152.0</ele><time>2026-04-26T13:25:28Z</time></trkpt><trkpt lat="43.88833454882792" lon="11.525253121600134"><ele>152.0</ele><time>2026-04-26T13:25:29Z</time></trkpt><trkpt lat="43.8882107683252" lon="11.525312456648432"><ele>151.25</ele><time>2026-04-26T13:25:30Z</time></trkpt><trkpt lat="43.88808352527583" lon="11.52536408087963"><ele>150.5</ele><time>2026-04-26T13:25:31Z</time></trkpt><trkpt lat="43.887951358122294" lon="11.525400979358096"><ele>149.75</ele><time>2026-04-26T13:25:32Z</time></trkpt><trkpt lat="43.88781397445053" lon="11.525402784085543"><ele>149.0</ele><time>2026-04-26T13:25:33Z</time></trkpt><trkpt lat="43.887679335541065" lon="11.525477243099672"><ele>151.25</ele><time>2026-04-26T13:25:34Z</time></trkpt><trkpt lat="43.887540879589686" lon="11.52550554977791"><ele>153.5</ele><time>2026-04-26T13:25:35Z</time></trkpt><trkpt lat="43.88740089990127" lon="11.525535279036403"><ele>155.75</ele><time>2026-04-26T13:25:36Z</time></trkpt><trkpt lat="43.887260970366455" lon="11.525562934699593"><ele>158.0</ele><time>2026-04-26T13:25:37Z</time></trkpt><trkpt lat="43.88712005748839" lon="11.525570756677885"><ele>158.0</ele><time>2026-04-26T13:25:38Z</time></trkpt><trkpt lat="43.88697865738082" lon="11.52559519925192"><ele>158.0</ele><time>2026-04-26T13:25:39Z</time></trkpt><trkpt lat="43.88684361246322" lon="11.525651786600358"><ele>158.0</ele><time>2026-04-26T13:25:40Z</time></trkpt><trkpt lat="43.8867028452365" lon="11.525686715021594"><ele>158.0</ele><time>2026-04-26T13:25:41Z</time></trkpt><trkpt lat="43.88656530431764" lon="11.525736354374775"><ele>158.25</ele><time>2026-04-26T13:25:42Z</time></trkpt><trkpt lat="43.88642855781252" lon="11.525785820982339"><ele>158.5</ele><time>2026-04-26T13:25:43Z</time></trkpt><trkpt lat="43.886286145074614" lon="11.525837330302274"><ele>158.75</ele><time>2026-04-26T13:25:44Z</time></trkpt><trkpt lat="43.886147190635" lon="11.52588788702161"><ele>159.0</ele><time>2026-04-26T13:25:45Z</time></trkpt><trkpt lat="43.886002493252164" lon="11.525949678485663"><ele>156.33333333333334</ele><time>2026-04-26T13:25:46Z</time></trkpt><trkpt lat="43.885856253361204" lon="11.526003895880196"><ele>153.66666666666669</ele><time>2026-04-26T13:25:47Z</time></trkpt><trkpt lat="43.88571029480519" lon="11.52606272108648"><ele>151.0</ele><time>2026-04-26T13:25:48Z</time></trkpt><trkpt lat="43.88555992416173" lon="11.52611936728398"><ele>151.0</ele><time>2026-04-26T13:25:49Z</time></trkpt><trkpt lat="43.885409608493596" lon="11.526177130607369"><ele>151.0</ele><time>2026-04-26T13:25:50Z</time></trkpt><trkpt lat="43.885259628381675" lon="11.526239573765421"><ele>151.0</ele><time>2026-04-26T13:25:51Z</time></trkpt><trkpt lat="43.88511291666456" lon="11.526302410581279"><ele>154.33333333333334</ele><time>2026-04-26T13:25:52Z</time></trkpt><trkpt lat="43.88496586902842" lon="11.526367720874138"><ele>157.66666666666666</ele><time>2026-04-26T13:25:53Z</time></trkpt><trkpt lat="43.88482124569266" lon="11.526427522988376"><ele>161.0</ele><time>2026-04-26T13:25:54Z</time></trkpt><trkpt lat="43.88467612361662" lon="11.526494050710095"><ele>161.0</ele><time>2026-04-26T13:25:55Z</time></trkpt><trkpt lat="43.88453201658255" lon="11.526575168894718"><ele>161.0</ele><time>2026-04-26T13:25:56Z</time></trkpt><trkpt lat="43.88439933176738" lon="11.526676358697806"><ele>161.0</ele><time>2026-04-26T13:25:57Z</time></trkpt><trkpt lat="43.88426784863191" lon="11.526779548796815"><ele>161.25</ele><time>2026-04-26T13:25:58Z</time></trkpt><trkpt lat="43.88414480523224" lon="11.526898906132674"><ele>161.5</ele><time>2026-04-26T13:25:59Z</time></trkpt><trkpt lat="43.884030916372" lon="11.52703227125974"><ele>161.75</ele><time>2026-04-26T13:26:00Z</time></trkpt><trkpt lat="43.88392219084267" lon="11.527167195055618"><ele>162.0</ele><time>2026-04-26T13:26:01Z</time></trkpt><trkpt lat="43.88382965763393" lon="11.527296756901976"><ele>162.0</ele><time>2026-04-26T13:26:02Z</time></trkpt><trkpt lat="43.88374867145806" lon="11.527418091249801"><ele>162.0</ele><time>2026-04-26T13:26:03Z</time></trkpt><trkpt lat="43.88367982889624" lon="11.527540434534671"><ele>162.0</ele><time>2026-04-26T13:26:04Z</time></trkpt><trkpt lat="43.88360824763928" lon="11.527659008688758"><ele>162.0</ele><time>2026-04-26T13:26:05Z</time></trkpt><trkpt lat="43.88353970558971" lon="11.52777525326473"><ele>162.0</ele><time>2026-04-26T13:26:06Z</time></trkpt><trkpt lat="43.88347062671347" lon="11.527883482003489"><ele>162.0</ele><time>2026-04-26T13:26:07Z</time></trkpt><trkpt lat="43.88340346720501" lon="11.527986681974397"><ele>162.0</ele><time>2026-04-26T13:26:08Z</time></trkpt><trkpt lat="43.88334168564222" lon="11.528089442765486"><ele>162.0</ele><time>2026-04-26T13:26:09Z</time></trkpt><trkpt lat="43.88327849942173" lon="11.528184751515548"><ele>162.0</ele><time>2026-04-26T13:26:10Z</time></trkpt><trkpt lat="43.88321005065326" lon="11.528278624815878"><ele>161.4</ele><time>2026-04-26T13:26:11Z</time></trkpt><trkpt lat="43.883135503506246" lon="11.528371380118937"><ele>160.79999999999998</ele><time>2026-04-26T13:26:12Z</time></trkpt><trkpt lat="43.88305254837578" lon="11.528455793810183"><ele>160.2</ele><time>2026-04-26T13:26:13Z</time></trkpt><trkpt lat="43.882965486028326" lon="11.528536957845684"><ele>159.6</ele><time>2026-04-26T13:26:14Z</time></trkpt><trkpt lat="43.88286991505133" lon="11.528603856152728"><ele>159.0</ele><time>2026-04-26T13:26:15Z</time></trkpt><trkpt lat="43.882771362431164" lon="11.52867023116652"><ele>160.25</ele><time>2026-04-26T13:26:16Z</time></trkpt><trkpt lat="43.8826658896914" lon="11.528733300358049"><ele>161.5</ele><time>2026-04-26T13:26:17Z</time></trkpt><trkpt lat="43.88255595727746" lon="11.528800312945892"><ele>162.75</ele><time>2026-04-26T13:26:18Z</time></trkpt><trkpt lat="43.88244049185438" lon="11.52886690294228"><ele>164.0</ele><time>2026-04-26T13:26:19Z</time></trkpt><trkpt lat="43.882317444038854" lon="11.528930780100168"><ele>164.0</ele><time>2026-04-26T13:26:20Z</time></trkpt><trkpt lat="43.8821861591473" lon="11.529000971635075"><ele>164.0</ele><time>2026-04-26T13:26:21Z</time></trkpt><trkpt lat="43.88204900027902" lon="11.529073453107308"><ele>164.0</ele><time>2026-04-26T13:26:22Z</time></trkpt><trkpt lat="43.88190943794292" lon="11.529142290114901"><ele>164.0</ele><time>2026-04-26T13:26:23Z</time></trkpt><trkpt lat="43.88176550800804" lon="11.529216359899209"><ele>162.33333333333331</ele><time>2026-04-26T13:26:24Z</time></trkpt><trkpt lat="43.881628007502805" lon="11.529288515734411"><ele>160.66666666666666</ele><time>2026-04-26T13:26:25Z</time></trkpt><trkpt lat="43.881476702834085" lon="11.529343859452785"><ele>159.0</ele><time>2026-04-26T13:26:26Z</time></trkpt><trkpt lat="43.88132097470046" lon="11.52941503369704"><ele>159.0</ele><time>2026-04-26T13:26:27Z</time></trkpt><trkpt lat="43.88115823826854" lon="11.529489411020386"><ele>159.0</ele><time>2026-04-26T13:26:28Z</time></trkpt><trkpt lat="43.88098325425928" lon="11.529548719950125"><ele>159.0</ele><time>2026-04-26T13:26:29Z</time></trkpt><trkpt lat="43.8808102968113" lon="11.529571806068546"><ele>163.33333333333334</ele><time>2026-04-26T13:26:30Z</time></trkpt><trkpt lat="43.88064352013489" lon="11.529583061248143"><ele>167.66666666666669</ele><time>2026-04-26T13:26:31Z</time></trkpt><trkpt lat="43.88048065456016" lon="11.52959021389304"><ele>172.0</ele><time>2026-04-26T13:26:32Z</time></trkpt><trkpt lat="43.88032587959902" lon="11.529564059617947"><ele>166.66666666666669</ele><time>2026-04-26T13:26:33Z</time></trkpt><trkpt lat="43.880169889598335" lon="11.529504979505488"><ele>161.33333333333334</ele><time>2026-04-26T13:26:34Z</time></trkpt><trkpt lat="43.88001668957812" lon="11.529406988339678"><ele>156.0</ele><time>2026-04-26T13:26:35Z</time></trkpt><trkpt lat="43.87985600339545" lon="11.5293111972597"><ele>155.66666666666666</ele><time>2026-04-26T13:26:36Z</time></trkpt><trkpt lat="43.879695670525166" lon="11.529243285827224"><ele>155.33333333333331</ele><time>2026-04-26T13:26:37Z</time></trkpt><trkpt lat="43.87954534823679" lon="11.529190523748346"><ele>155.0</ele><time>2026-04-26T13:26:38Z</time></trkpt><trkpt lat="43.87940324190412" lon="11.52918891801523"><ele>155.0</ele><time>2026-04-26T13:26:39Z</time></trkpt><trkpt lat="43.87927289596031" lon="11.529239103377517"><ele>155.0</ele><time>2026-04-26T13:26:40Z</time></trkpt><trkpt lat="43.879153960399556" lon="11.529337894599717"><ele>155.0</ele><time>2026-04-26T13:26:41Z</time></trkpt><trkpt lat="43.87901044539868" lon="11.529403857052674"><ele>155.0</ele><time>2026-04-26T13:26:42Z</time></trkpt><trkpt lat="43.878863209014305" lon="11.529478447198757"><ele>154.75</ele><time>2026-04-26T13:26:43Z</time></trkpt><trkpt lat="43.87872036455976" lon="11.529520003543478"><ele>154.5</ele><time>2026-04-26T13:26:44Z</time></trkpt><trkpt lat="43.878580161855" lon="11.529494508571853"><ele>154.25</ele><time>2026-04-26T13:26:45Z</time></trkpt><trkpt lat="43.878431805490926" lon="11.529436257555615"><ele>154.0</ele><time>2026-04-26T13:26:46Z</time></trkpt><trkpt lat="43.8782840598446" lon="11.529375294416905"><ele>153.66666666666669</ele><time>2026-04-26T13:26:47Z</time></trkpt><trkpt lat="43.8781269598201" lon="11.529351887209376"><ele>153.33333333333334</ele><time>2026-04-26T13:26:48Z</time></trkpt><trkpt lat="43.877959728494" lon="11.529358378476338"><ele>153.0</ele><time>2026-04-26T13:26:49Z</time></trkpt><trkpt lat="43.87778162310116" lon="11.529389502745081"><ele>152.0</ele><time>2026-04-26T13:26:50Z</time></trkpt><trkpt lat="43.87759316762882" lon="11.529427667315153"><ele>151.0</ele><time>2026-04-26T13:26:51Z</time></trkpt><trkpt lat="43.87739710960086" lon="11.52945065872894"><ele>150.0</ele><time>2026-04-26T13:26:52Z</time></trkpt><trkpt lat="43.877200157951044" lon="11.529478648295637"><ele>150.0</ele><time>2026-04-26T13:26:53Z</time></trkpt><trkpt lat="43.87701015345203" lon="11.529501901579247"><ele>150.0</ele><time>2026-04-26T13:26:54Z</time></trkpt><trkpt lat="43.87682829415794" lon="11.52953109297081"><ele>150.0</ele><time>2026-04-26T13:26:55Z</time></trkpt><trkpt lat="43.876652105874435" lon="11.529565971968731"><ele>152.66666666666666</ele><time>2026-04-26T13:26:56Z</time></trkpt><trkpt lat="43.87647860205739" lon="11.52961193382978"><ele>155.33333333333331</ele><time>2026-04-26T13:26:57Z</time></trkpt><trkpt lat="43.87630742190991" lon="11.529674182808993"><ele>158.0</ele><time>2026-04-26T13:26:58Z</time></trkpt><trkpt lat="43.876138398637295" lon="11.52973718656522"><ele>158.0</ele><time>2026-04-26T13:26:59Z</time></trkpt><trkpt lat="43.87597413137336" lon="11.52979704351347"><ele>158.0</ele><time>2026-04-26T13:27:00Z</time></trkpt><trkpt lat="43.875806419964036" lon="11.52985256195197"><ele>158.0</ele><time>2026-04-26T13:27:01Z</time></trkpt><trkpt lat="43.87563433597116" lon="11.5299062182462"><ele>156.0</ele><time>2026-04-26T13:27:02Z</time></trkpt><trkpt lat="43.87545775359651" lon="11.529941023117896"><ele>154.0</ele><time>2026-04-26T13:27:03Z</time></trkpt><trkpt lat="43.875258523766654" lon="11.529929550960459"><ele>152.0</ele><time>2026-04-26T13:27:04Z</time></trkpt><trkpt lat="43.875088122681696" lon="11.529960445728877"><ele>152.0</ele><time>2026-04-26T13:27:05Z</time></trkpt><trkpt lat="43.87490459850437" lon="11.52990305804825"><ele>152.0</ele><time>2026-04-26T13:27:06Z</time></trkpt><trkpt lat="43.87471904749523" lon="11.529845358235928"><ele>152.0</ele><time>2026-04-26T13:27:07Z</time></trkpt><trkpt lat="43.87452955946994" lon="11.52978517839103"><ele>152.0</ele><time>2026-04-26T13:27:08Z</time></trkpt><trkpt lat="43.87435741701914" lon="11.529657212206224"><ele>152.0</ele><time>2026-04-26T13:27:09Z</time></trkpt><trkpt lat="43.874183459277035" lon="11.529540276472238"><ele>152.0</ele><time>2026-04-26T13:27:10Z</time></trkpt><trkpt lat="43.874008047754806" lon="11.529443202865103"><ele>149.33333333333331</ele><time>2026-04-26T13:27:11Z</time></trkpt><trkpt lat="43.87384973331202" lon="11.529330405034486"><ele>146.66666666666666</ele><time>2026-04-26T13:27:12Z</time></trkpt><trkpt lat="43.87370446806949" lon="11.529229436872157"><ele>144.0</ele><time>2026-04-26T13:27:13Z</time></trkpt><trkpt lat="43.87356446661446" lon="11.52914582403253"><ele>145.0</ele><time>2026-04-26T13:27:14.001Z</time></trkpt><trkpt lat="43.873422926804444" lon="11.529101223887599"><ele>146.0</ele><time>2026-04-26T13:27:15.001Z</time></trkpt><trkpt lat="43.87326353396809" lon="11.529113515128369"><ele>147.0</ele><time>2026-04-26T13:27:16.001Z</time></trkpt><trkpt lat="43.87309007927233" lon="11.529170696757978"><ele>147.0</ele><time>2026-04-26T13:27:17.001Z</time></trkpt><trkpt lat="43.87290883622452" lon="11.529250816428437"><ele>147.0</ele><time>2026-04-26T13:27:18.001Z</time></trkpt><trkpt lat="43.87272651021707" lon="11.529332302693637"><ele>147.0</ele><time>2026-04-26T13:27:19.001Z</time></trkpt><trkpt lat="43.87254078174289" lon="11.529399799008868"><ele>146.66666666666666</ele><time>2026-04-26T13:27:20.001Z</time></trkpt><trkpt lat="43.872352653488775" lon="11.529466100657904"><ele>146.33333333333331</ele><time>2026-04-26T13:27:21.001Z</time></trkpt><trkpt lat="43.87216294263402" lon="11.529533165250928"><ele>146.0</ele><time>2026-04-26T13:27:22.001Z</time></trkpt><trkpt lat="43.87197121041829" lon="11.529604233595002"><ele>147.33333333333331</ele><time>2026-04-26T13:27:23.001Z</time></trkpt><trkpt lat="43.8717795440581" lon="11.529679322960174"><ele>148.66666666666666</ele><time>2026-04-26T13:27:24.001Z</time></trkpt><trkpt lat="43.8715886315293" lon="11.529757871234526"><ele>150.0</ele><time>2026-04-26T13:27:25.001Z</time></trkpt><trkpt lat="43.87139735835852" lon="11.529835536272675"><ele>150.0</ele><time>2026-04-26T13:27:26.001Z</time></trkpt><trkpt lat="43.87120701936929" lon="11.529912241596133"><ele>150.0</ele><time>2026-04-26T13:27:27.001Z</time></trkpt><trkpt lat="43.87102269124874" lon="11.529985890179411"><ele>150.0</ele><time>2026-04-26T13:27:28.001Z</time></trkpt><trkpt lat="43.87084709896164" lon="11.5300496673865"><ele>148.66666666666666</ele><time>2026-04-26T13:27:29.001Z</time></trkpt><trkpt lat="43.87068095235796" lon="11.530113294547958"><ele>147.33333333333331</ele><time>2026-04-26T13:27:30.001Z</time></trkpt><trkpt lat="43.87052197604425" lon="11.530177874498417"><ele>146.0</ele><time>2026-04-26T13:27:31.001Z</time></trkpt><trkpt lat="43.87036317054278" lon="11.5301925905669"><ele>146.0</ele><time>2026-04-26T13:27:32.001Z</time></trkpt><trkpt lat="43.870185491718175" lon="11.530187733545473"><ele>146.0</ele><time>2026-04-26T13:27:33.001Z</time></trkpt><trkpt lat="43.87001261801565" lon="11.530149871644888"><ele>146.0</ele><time>2026-04-26T13:27:34.001Z</time></trkpt><trkpt lat="43.86986430901838" lon="11.530029506718751"><ele>146.66666666666666</ele><time>2026-04-26T13:27:35.001Z</time></trkpt><trkpt lat="43.86972220863475" lon="11.52991169464811"><ele>147.33333333333334</ele><time>2026-04-26T13:27:36.001Z</time></trkpt><trkpt lat="43.869588324924194" lon="11.529808238177273"><ele>148.0</ele><time>2026-04-26T13:27:37.001Z</time></trkpt><trkpt lat="43.86947197647306" lon="11.529714022634137"><ele>148.0</ele><time>2026-04-26T13:27:38.001Z</time></trkpt><trkpt lat="43.86934639920482" lon="11.529661926001"><ele>148.0</ele><time>2026-04-26T13:27:39.001Z</time></trkpt><trkpt lat="43.86922014647599" lon="11.529678754004696"><ele>148.0</ele><time>2026-04-26T13:27:40Z</time></trkpt><trkpt lat="43.86907240046409" lon="11.529737522156369"><ele>148.0</ele><time>2026-04-26T13:27:41Z</time></trkpt><trkpt lat="43.86892169384505" lon="11.529812419753062"><ele>147.5</ele><time>2026-04-26T13:27:42Z</time></trkpt><trkpt lat="43.86877613625866" lon="11.529850652219155"><ele>147.0</ele><time>2026-04-26T13:27:43Z</time></trkpt><trkpt lat="43.86864360533151" lon="11.529920149557555"><ele>146.5</ele><time>2026-04-26T13:27:44Z</time></trkpt><trkpt lat="43.8685117262142" lon="11.529958254507813"><ele>146.0</ele><time>2026-04-26T13:27:45Z</time></trkpt><trkpt lat="43.8683977184114" lon="11.529995472593306"><ele>146.0</ele><time>2026-04-26T13:27:46Z</time></trkpt><trkpt lat="43.868294486252026" lon="11.530019558656745"><ele>146.0</ele><time>2026-04-26T13:27:47Z</time></trkpt><trkpt lat="43.86819643657576" lon="11.530029251252747"><ele>146.0</ele><time>2026-04-26T13:27:48Z</time></trkpt><trkpt lat="43.86809997216832" lon="11.530028376484417"><ele>146.0</ele><time>2026-04-26T13:27:49Z</time></trkpt><trkpt lat="43.86800324039594" lon="11.530020843469801"><ele>146.0</ele><time>2026-04-26T13:27:50Z</time></trkpt><trkpt lat="43.86789675421583" lon="11.530007900893107"><ele>146.0</ele><time>2026-04-26T13:27:51Z</time></trkpt><trkpt lat="43.867772861697446" lon="11.529998819272837"><ele>146.0</ele><time>2026-04-26T13:27:52Z</time></trkpt><trkpt lat="43.86763512893039" lon="11.529989757828282"><ele>146.0</ele><time>2026-04-26T13:27:53Z</time></trkpt><trkpt lat="43.86749221106056" lon="11.529983147474395"><ele>146.0</ele><time>2026-04-26T13:27:54Z</time></trkpt><trkpt lat="43.867344536010386" lon="11.529972778667734"><ele>144.66666666666666</ele><time>2026-04-26T13:27:55Z</time></trkpt><trkpt lat="43.86718588905294" lon="11.529957386343787"><ele>143.33333333333334</ele><time>2026-04-26T13:27:56Z</time></trkpt><trkpt lat="43.86702066049065" lon="11.529944681284896"><ele>142.0</ele><time>2026-04-26T13:27:57Z</time></trkpt><trkpt lat="43.8668578620868" lon="11.529941192865753"><ele>142.0</ele><time>2026-04-26T13:27:58Z</time></trkpt><trkpt lat="43.86669046445564" lon="11.529959467441738"><ele>142.0</ele><time>2026-04-26T13:27:59Z</time></trkpt><trkpt lat="43.86652255834077" lon="11.529995926855687"><ele>142.0</ele><time>2026-04-26T13:28:00Z</time></trkpt><trkpt lat="43.86635880878866" lon="11.530050426057898"><ele>142.0</ele><time>2026-04-26T13:28:01Z</time></trkpt><trkpt lat="43.86619815249959" lon="11.530114066856326"><ele>142.0</ele><time>2026-04-26T13:28:02Z</time></trkpt><trkpt lat="43.86603807384818" lon="11.530180101019516"><ele>142.0</ele><time>2026-04-26T13:28:03Z</time></trkpt><trkpt lat="43.86587862234113" lon="11.530248891566098"><ele>141.66666666666669</ele><time>2026-04-26T13:28:04Z</time></trkpt><trkpt lat="43.86571967894718" lon="11.530323740010024"><ele>141.33333333333334</ele><time>2026-04-26T13:28:05Z</time></trkpt><trkpt lat="43.86556886251853" lon="11.53039443342328"><ele>141.0</ele><time>2026-04-26T13:28:06Z</time></trkpt><trkpt lat="43.86542881000745" lon="11.530472667993989"><ele>141.0</ele><time>2026-04-26T13:28:07Z</time></trkpt><trkpt lat="43.86529262912532" lon="11.530542190161853"><ele>141.0</ele><time>2026-04-26T13:28:08Z</time></trkpt><trkpt lat="43.8651763626272" lon="11.53064201226122"><ele>141.0</ele><time>2026-04-26T13:28:09Z</time></trkpt><trkpt lat="43.86506534013917" lon="11.53072563714454"><ele>141.0</ele><time>2026-04-26T13:28:10Z</time></trkpt><trkpt lat="43.86495124749691" lon="11.530790536117053"><ele>141.0</ele><time>2026-04-26T13:28:11Z</time></trkpt><trkpt lat="43.86483194581207" lon="11.530828729907137"><ele>141.0</ele><time>2026-04-26T13:28:12Z</time></trkpt><trkpt lat="43.86470281496133" lon="11.530793860523797"><ele>141.0</ele><time>2026-04-26T13:28:13Z</time></trkpt><trkpt lat="43.864566304477854" lon="11.530793117374722"><ele>141.0</ele><time>2026-04-26T13:28:14Z</time></trkpt><trkpt lat="43.86442722291692" lon="11.530814808136796"><ele>141.0</ele><time>2026-04-26T13:28:15Z</time></trkpt><trkpt lat="43.86428852832486" lon="11.53081039445051"><ele>141.0</ele><time>2026-04-26T13:28:16Z</time></trkpt><trkpt lat="43.864144233507794" lon="11.530810881914205"><ele>141.0</ele><time>2026-04-26T13:28:17Z</time></trkpt><trkpt lat="43.864008031040534" lon="11.53082315045087"><ele>141.0</ele><time>2026-04-26T13:28:18Z</time></trkpt><trkpt lat="43.86387021637154" lon="11.530857185801857"><ele>140.75</ele><time>2026-04-26T13:28:19Z</time></trkpt><trkpt lat="43.86373164770118" lon="11.530912420988564"><ele>140.5</ele><time>2026-04-26T13:28:20Z</time></trkpt><trkpt lat="43.863600486068876" lon="11.530989822916892"><ele>140.25</ele><time>2026-04-26T13:28:21Z</time></trkpt><trkpt lat="43.863465670641865" lon="11.531043421913715"><ele>140.0</ele><time>2026-04-26T13:28:22Z</time></trkpt><trkpt lat="43.863326032361876" lon="11.531065992578911"><ele>140.0</ele><time>2026-04-26T13:28:23Z</time></trkpt><trkpt lat="43.86318199363617" lon="11.531090540094608"><ele>140.0</ele><time>2026-04-26T13:28:24Z</time></trkpt><trkpt lat="43.863044941772706" lon="11.53110708791224"><ele>140.0</ele><time>2026-04-26T13:28:25Z</time></trkpt><trkpt lat="43.86291359984901" lon="11.531114087827323"><ele>140.0</ele><time>2026-04-26T13:28:26Z</time></trkpt><trkpt lat="43.862781246038246" lon="11.531099887437646"><ele>140.0</ele><time>2026-04-26T13:28:27Z</time></trkpt><trkpt lat="43.862638905237866" lon="11.531104831600743"><ele>140.0</ele><time>2026-04-26T13:28:28Z</time></trkpt><trkpt lat="43.86250519372881" lon="11.531082434779561"><ele>140.0</ele><time>2026-04-26T13:28:29Z</time></trkpt><trkpt lat="43.86238186338673" lon="11.53106047526075"><ele>140.0</ele><time>2026-04-26T13:28:30Z</time></trkpt><trkpt lat="43.862264395463086" lon="11.531026584377498"><ele>140.25</ele><time>2026-04-26T13:28:31Z</time></trkpt><trkpt lat="43.862146014388834" lon="11.530963759485298"><ele>140.5</ele><time>2026-04-26T13:28:32Z</time></trkpt><trkpt lat="43.862029787277116" lon="11.530910938077447"><ele>140.75</ele><time>2026-04-26T13:28:33Z</time></trkpt><trkpt lat="43.86191831474741" lon="11.53085521332839"><ele>141.0</ele><time>2026-04-26T13:28:34Z</time></trkpt><trkpt lat="43.86182352067837" lon="11.530778990305809"><ele>140.75</ele><time>2026-04-26T13:28:35Z</time></trkpt><trkpt lat="43.86173659819222" lon="11.530680527750734"><ele>140.5</ele><time>2026-04-26T13:28:36Z</time></trkpt><trkpt lat="43.86164832360375" lon="11.530554700103522"><ele>140.25</ele><time>2026-04-26T13:28:37Z</time></trkpt><trkpt lat="43.861553561558765" lon="11.530424086741878"><ele>140.0</ele><time>2026-04-26T13:28:38Z</time></trkpt><trkpt lat="43.861427673577275" lon="11.530330822676053"><ele>140.0</ele><time>2026-04-26T13:28:39Z</time></trkpt><trkpt lat="43.8613331002879" lon="11.530194920593392"><ele>140.0</ele><time>2026-04-26T13:28:40Z</time></trkpt><trkpt lat="43.8612366572469" lon="11.53006705993607"><ele>140.0</ele><time>2026-04-26T13:28:41Z</time></trkpt><trkpt lat="43.86113718873034" lon="11.52994137792079"><ele>140.0</ele><time>2026-04-26T13:28:42Z</time></trkpt><trkpt lat="43.861067008583376" lon="11.529766272045377"><ele>140.0</ele><time>2026-04-26T13:28:43Z</time></trkpt><trkpt lat="43.86096140728149" lon="11.52963575945477"><ele>140.0</ele><time>2026-04-26T13:28:44Z</time></trkpt><trkpt lat="43.860845570479114" lon="11.529523845377476"><ele>140.0</ele><time>2026-04-26T13:28:45Z</time></trkpt><trkpt lat="43.860726711969214" lon="11.529421561506183"><ele>140.0</ele><time>2026-04-26T13:28:46Z</time></trkpt><trkpt lat="43.860608500677316" lon="11.529320165268008"><ele>139.5</ele><time>2026-04-26T13:28:47Z</time></trkpt><trkpt lat="43.860489368030414" lon="11.52921808967116"><ele>139.0</ele><time>2026-04-26T13:28:48Z</time></trkpt><trkpt lat="43.86036971660703" lon="11.529115569514437"><ele>138.5</ele><time>2026-04-26T13:28:49Z</time></trkpt><trkpt lat="43.86024446771766" lon="11.529032600519203"><ele>138.0</ele><time>2026-04-26T13:28:49.999Z</time></trkpt><trkpt lat="43.860128972794115" lon="11.528927770187355"><ele>138.25</ele><time>2026-04-26T13:28:50.999Z</time></trkpt><trkpt lat="43.86001842491348" lon="11.528827363460504"><ele>138.5</ele><time>2026-04-26T13:28:51.999Z</time></trkpt><trkpt lat="43.85991188426869" lon="11.528727812967754"><ele>138.75</ele><time>2026-04-26T13:28:52.999Z</time></trkpt><trkpt lat="43.85980126739253" lon="11.528635747235981"><ele>139.0</ele><time>2026-04-26T13:28:53.999Z</time></trkpt><trkpt lat="43.859693773217266" lon="11.528545506090587"><ele>139.0</ele><time>2026-04-26T13:28:54.999Z</time></trkpt><trkpt lat="43.859588217472464" lon="11.528448099760025"><ele>139.0</ele><time>2026-04-26T13:28:55.999Z</time></trkpt><trkpt lat="43.85949261984089" lon="11.528337488564581"><ele>139.0</ele><time>2026-04-26T13:28:56.999Z</time></trkpt><trkpt lat="43.859410739139776" lon="11.528213101992861"><ele>139.0</ele><time>2026-04-26T13:28:57.999Z</time></trkpt><trkpt lat="43.85934715276364" lon="11.52806663137982"><ele>139.25</ele><time>2026-04-26T13:28:58.999Z</time></trkpt><trkpt lat="43.859263882153556" lon="11.527941491641874"><ele>139.5</ele><time>2026-04-26T13:28:59.999Z</time></trkpt><trkpt lat="43.85917625427483" lon="11.527802627094733"><ele>139.75</ele><time>2026-04-26T13:29:00.999Z</time></trkpt><trkpt lat="43.85908497508593" lon="11.527657976142336"><ele>140.0</ele><time>2026-04-26T13:29:01.999Z</time></trkpt><trkpt lat="43.858993042075255" lon="11.52750904162844"><ele>139.25</ele><time>2026-04-26T13:29:02.999Z</time></trkpt><trkpt lat="43.85889876826353" lon="11.527355484237242"><ele>138.5</ele><time>2026-04-26T13:29:03.999Z</time></trkpt><trkpt lat="43.85880234915876" lon="11.527197171564264"><ele>137.75</ele><time>2026-04-26T13:29:04.999Z</time></trkpt><trkpt lat="43.8587051611387" lon="11.52703724995719"><ele>137.0</ele><time>2026-04-26T13:29:05.999Z</time></trkpt><trkpt lat="43.858605237451165" lon="11.526871619572917"><ele>137.0</ele><time>2026-04-26T13:29:06.999Z</time></trkpt><trkpt lat="43.858503355032234" lon="11.526702063955874"><ele>137.0</ele><time>2026-04-26T13:29:07.999Z</time></trkpt><trkpt lat="43.858382656072344" lon="11.526552437338802"><ele>137.0</ele><time>2026-04-26T13:29:08.999Z</time></trkpt><trkpt lat="43.8582785048448" lon="11.526379544775427"><ele>136.0</ele><time>2026-04-26T13:29:09.999Z</time></trkpt><trkpt lat="43.85817317110879" lon="11.526204003233877"><ele>135.0</ele><time>2026-04-26T13:29:10.999Z</time></trkpt><trkpt lat="43.85806749302212" lon="11.526024690383938"><ele>134.0</ele><time>2026-04-26T13:29:11.999Z</time></trkpt><trkpt lat="43.85796080744233" lon="11.525841904098304"><ele>134.0</ele><time>2026-04-26T13:29:12.999Z</time></trkpt><trkpt lat="43.857851978973585" lon="11.52565957383375"><ele>134.0</ele><time>2026-04-26T13:29:13.999Z</time></trkpt><trkpt lat="43.85774427925163" lon="11.52547938258982"><ele>134.0</ele><time>2026-04-26T13:29:14.999Z</time></trkpt><trkpt lat="43.85764014941742" lon="11.525298464711545"><ele>135.33333333333331</ele><time>2026-04-26T13:29:15.999Z</time></trkpt><trkpt lat="43.85753686623432" lon="11.525114827099632"><ele>136.66666666666666</ele><time>2026-04-26T13:29:16.999Z</time></trkpt><trkpt lat="43.85744150448185" lon="11.52492717872363"><ele>138.0</ele><time>2026-04-26T13:29:17.999Z</time></trkpt><trkpt lat="43.85734916609681" lon="11.524738293971609"><ele>137.33333333333334</ele><time>2026-04-26T13:29:18.999Z</time></trkpt><trkpt lat="43.857275753051205" lon="11.524541648539827"><ele>136.66666666666669</ele><time>2026-04-26T13:29:20Z</time></trkpt><trkpt lat="43.85720990630048" lon="11.52435990772745"><ele>136.0</ele><time>2026-04-26T13:29:21Z</time></trkpt><trkpt lat="43.8571610595738" lon="11.52415766797723"><ele>136.0</ele><time>2026-04-26T13:29:22Z</time></trkpt><trkpt lat="43.85712830150514" lon="11.523961253062447"><ele>136.0</ele><time>2026-04-26T13:29:23Z</time></trkpt><trkpt lat="43.85709609345475" lon="11.523758823177237"><ele>136.0</ele><time>2026-04-26T13:29:24Z</time></trkpt><trkpt lat="43.857059414853005" lon="11.523528380051516"><ele>135.66666666666669</ele><time>2026-04-26T13:29:25Z</time></trkpt><trkpt lat="43.85702399483185" lon="11.523306877931969"><ele>135.33333333333334</ele><time>2026-04-26T13:29:26Z</time></trkpt><trkpt lat="43.85698676265764" lon="11.523079680102654"><ele>135.0</ele><time>2026-04-26T13:29:27Z</time></trkpt><trkpt lat="43.85694882103418" lon="11.522848153182698"><ele>135.0</ele><time>2026-04-26T13:29:28Z</time></trkpt><trkpt lat="43.85691006039232" lon="11.522614250634126"><ele>135.0</ele><time>2026-04-26T13:29:29Z</time></trkpt><trkpt lat="43.85686960349894" lon="11.522372230913076"><ele>135.0</ele><time>2026-04-26T13:29:30Z</time></trkpt><trkpt lat="43.856828226320296" lon="11.522131804270792"><ele>135.0</ele><time>2026-04-26T13:29:31Z</time></trkpt><trkpt lat="43.856786846806415" lon="11.521891364052294"><ele>135.0</ele><time>2026-04-26T13:29:32Z</time></trkpt><trkpt lat="43.8567479941937" lon="11.521665606544913"><ele>135.0</ele><time>2026-04-26T13:29:33Z</time></trkpt><trkpt lat="43.85670731552" lon="11.521454071017946"><ele>134.75</ele><time>2026-04-26T13:29:34Z</time></trkpt><trkpt lat="43.856644199453854" lon="11.521284295228833"><ele>134.5</ele><time>2026-04-26T13:29:35Z</time></trkpt><trkpt lat="43.85659275972522" lon="11.521130104319187"><ele>134.25</ele><time>2026-04-26T13:29:36Z</time></trkpt><trkpt lat="43.85651404846013" lon="11.520993125729305"><ele>134.0</ele><time>2026-04-26T13:29:37Z</time></trkpt><trkpt lat="43.85640654916593" lon="11.520863013956195"><ele>134.0</ele><time>2026-04-26T13:29:38Z</time></trkpt><trkpt lat="43.856273420711425" lon="11.520753521427027"><ele>134.0</ele><time>2026-04-26T13:29:39Z</time></trkpt><trkpt lat="43.85612961749367" lon="11.520655412860405"><ele>134.0</ele><time>2026-04-26T13:29:40Z</time></trkpt><trkpt lat="43.85597256045639" lon="11.520559395829595"><ele>134.33333333333331</ele><time>2026-04-26T13:29:41Z</time></trkpt><trkpt lat="43.85581985482956" lon="11.520452844215528"><ele>134.66666666666666</ele><time>2026-04-26T13:29:42Z</time></trkpt><trkpt lat="43.85566672617673" lon="11.520339144445789"><ele>135.0</ele><time>2026-04-26T13:29:43Z</time></trkpt><trkpt lat="43.85551976464433" lon="11.520226784921114"><ele>135.0</ele><time>2026-04-26T13:29:44Z</time></trkpt><trkpt lat="43.855400328612596" lon="11.520089866255795"><ele>135.0</ele><time>2026-04-26T13:29:45Z</time></trkpt><trkpt lat="43.85530165639242" lon="11.519966787930235"><ele>135.0</ele><time>2026-04-26T13:29:46Z</time></trkpt><trkpt lat="43.85518962172475" lon="11.519823511656169"><ele>135.0</ele><time>2026-04-26T13:29:47Z</time></trkpt><trkpt lat="43.855074021872134" lon="11.519718105298526"><ele>134.75</ele><time>2026-04-26T13:29:48Z</time></trkpt><trkpt lat="43.85493192066702" lon="11.519670461289026"><ele>134.5</ele><time>2026-04-26T13:29:49Z</time></trkpt><trkpt lat="43.854787709576904" lon="11.519624665263025"><ele>134.25</ele><time>2026-04-26T13:29:50Z</time></trkpt><trkpt lat="43.85464235683982" lon="11.51958649117427"><ele>134.0</ele><time>2026-04-26T13:29:51Z</time></trkpt><trkpt lat="43.85450590184592" lon="11.519529821629533"><ele>134.0</ele><time>2026-04-26T13:29:52Z</time></trkpt><trkpt lat="43.85436115904232" lon="11.51948497936616"><ele>134.0</ele><time>2026-04-26T13:29:53Z</time></trkpt><trkpt lat="43.85422139405018" lon="11.519441367325655"><ele>134.0</ele><time>2026-04-26T13:29:54Z</time></trkpt><trkpt lat="43.854090074665976" lon="11.519396646698251"><ele>134.0</ele><time>2026-04-26T13:29:55Z</time></trkpt><trkpt lat="43.85397860157318" lon="11.519344331153976"><ele>134.25</ele><time>2026-04-26T13:29:56Z</time></trkpt><trkpt lat="43.853857476965835" lon="11.51926247158331"><ele>134.5</ele><time>2026-04-26T13:29:57Z</time></trkpt><trkpt lat="43.85373924118541" lon="11.519168717356258"><ele>134.75</ele><time>2026-04-26T13:29:58Z</time></trkpt><trkpt lat="43.85361457885095" lon="11.519064941682066"><ele>135.0</ele><time>2026-04-26T13:29:59Z</time></trkpt><trkpt lat="43.8535063709642" lon="11.518972864774716"><ele>134.75</ele><time>2026-04-26T13:30:00Z</time></trkpt><trkpt lat="43.85339800208399" lon="11.51888003090998"><ele>134.5</ele><time>2026-04-26T13:30:01Z</time></trkpt><trkpt lat="43.85328705297827" lon="11.518785873656302"><ele>134.25</ele><time>2026-04-26T13:30:02Z</time></trkpt><trkpt lat="43.8531723173656" lon="11.518690254328506"><ele>134.0</ele><time>2026-04-26T13:30:03Z</time></trkpt><trkpt lat="43.85305216233562" lon="11.51859399331594"><ele>134.0</ele><time>2026-04-26T13:30:04Z</time></trkpt><trkpt lat="43.85292925639285" lon="11.518498474850864"><ele>134.0</ele><time>2026-04-26T13:30:05Z</time></trkpt><trkpt lat="43.85280450866826" lon="11.518401068639514"><ele>134.0</ele><time>2026-04-26T13:30:06Z</time></trkpt><trkpt lat="43.852678872968596" lon="11.518301798690015"><ele>134.0</ele><time>2026-04-26T13:30:07Z</time></trkpt><trkpt lat="43.85255125231275" lon="11.518200961670022"><ele>134.0</ele><time>2026-04-26T13:30:08Z</time></trkpt><trkpt lat="43.85241986527935" lon="11.518097147186218"><ele>134.0</ele><time>2026-04-26T13:30:09Z</time></trkpt><trkpt lat="43.8522870278617" lon="11.517990012424447"><ele>134.0</ele><time>2026-04-26T13:30:10Z</time></trkpt><trkpt lat="43.85215721118008" lon="11.517872767309898"><ele>134.0</ele><time>2026-04-26T13:30:11Z</time></trkpt><trkpt lat="43.85203041584224" lon="11.517745287132888"><ele>134.0</ele><time>2026-04-26T13:30:12Z</time></trkpt><trkpt lat="43.85190306880532" lon="11.517603139052953"><ele>134.0</ele><time>2026-04-26T13:30:13Z</time></trkpt><trkpt lat="43.85179400834081" lon="11.517462740282449"><ele>134.0</ele><time>2026-04-26T13:30:14Z</time></trkpt><trkpt lat="43.85163320220256" lon="11.517324861067893"><ele>134.0</ele><time>2026-04-26T13:30:15Z</time></trkpt><trkpt lat="43.85150254435559" lon="11.517159589094325"><ele>134.0</ele><time>2026-04-26T13:30:16Z</time></trkpt><trkpt lat="43.8513380550978" lon="11.517042170141307"><ele>133.0</ele><time>2026-04-26T13:30:17Z</time></trkpt><trkpt lat="43.85117326241749" lon="11.516905570072836"><ele>132.0</ele><time>2026-04-26T13:30:18Z</time></trkpt><trkpt lat="43.850998078308024" lon="11.516771567370943"><ele>131.0</ele><time>2026-04-26T13:30:19Z</time></trkpt><trkpt lat="43.85081807859028" lon="11.516645349420118"><ele>130.66666666666666</ele><time>2026-04-26T13:30:20Z</time></trkpt><trkpt lat="43.850655083569386" lon="11.516497607064593"><ele>130.33333333333334</ele><time>2026-04-26T13:30:21Z</time></trkpt><trkpt lat="43.85049533416111" lon="11.516377283945209"><ele>130.0</ele><time>2026-04-26T13:30:22Z</time></trkpt><trkpt lat="43.850337964006066" lon="11.516257366255495"><ele>130.33333333333334</ele><time>2026-04-26T13:30:23Z</time></trkpt><trkpt lat="43.850192955619434" lon="11.516128864027031"><ele>130.66666666666666</ele><time>2026-04-26T13:30:24Z</time></trkpt><trkpt lat="43.85006179767345" lon="11.515984786458194"><ele>131.0</ele><time>2026-04-26T13:30:25Z</time></trkpt><trkpt lat="43.849967092111086" lon="11.515812517091618"><ele>132.0</ele><time>2026-04-26T13:30:26Z</time></trkpt><trkpt lat="43.84989871070619" lon="11.515615880440423"><ele>133.0</ele><time>2026-04-26T13:30:27Z</time></trkpt><trkpt lat="43.84983858945424" lon="11.515386040879903"><ele>134.0</ele><time>2026-04-26T13:30:28Z</time></trkpt><trkpt lat="43.84978489864753" lon="11.515147672574406"><ele>134.0</ele><time>2026-04-26T13:30:29Z</time></trkpt><trkpt lat="43.84973653415671" lon="11.5149162250875"><ele>134.0</ele><time>2026-04-26T13:30:30Z</time></trkpt><trkpt lat="43.84971588888426" lon="11.514696567085767"><ele>134.0</ele><time>2026-04-26T13:30:31Z</time></trkpt><trkpt lat="43.84972870241741" lon="11.51447704159765"><ele>133.33333333333331</ele><time>2026-04-26T13:30:32Z</time></trkpt><trkpt lat="43.84974929745153" lon="11.51423370016304"><ele>132.66666666666666</ele><time>2026-04-26T13:30:33Z</time></trkpt><trkpt lat="43.84977325244048" lon="11.513981772216933"><ele>132.0</ele><time>2026-04-26T13:30:34Z</time></trkpt><trkpt lat="43.84979988608377" lon="11.51373639950957"><ele>133.33333333333334</ele><time>2026-04-26T13:30:35Z</time></trkpt><trkpt lat="43.84983606050177" lon="11.513506497227542"><ele>134.66666666666669</ele><time>2026-04-26T13:30:36Z</time></trkpt><trkpt lat="43.849905760075146" lon="11.513295842955138"><ele>136.0</ele><time>2026-04-26T13:30:37Z</time></trkpt><trkpt lat="43.84999773647282" lon="11.513090839871692"><ele>138.66666666666669</ele><time>2026-04-26T13:30:38Z</time></trkpt><trkpt lat="43.85009280235776" lon="11.512871084548111"><ele>141.33333333333334</ele><time>2026-04-26T13:30:39Z</time></trkpt><trkpt lat="43.850163928313755" lon="11.512631060283931"><ele>144.0</ele><time>2026-04-26T13:30:40Z</time></trkpt><trkpt lat="43.850238131636836" lon="11.512389318146399"><ele>143.0</ele><time>2026-04-26T13:30:41Z</time></trkpt><trkpt lat="43.85029523103349" lon="11.512137778688292"><ele>142.0</ele><time>2026-04-26T13:30:42Z</time></trkpt><trkpt lat="43.850336393397946" lon="11.511877618974548"><ele>141.0</ele><time>2026-04-26T13:30:43Z</time></trkpt><trkpt lat="43.850361530634224" lon="11.511607697185278"><ele>141.0</ele><time>2026-04-26T13:30:44Z</time></trkpt><trkpt lat="43.85038563004079" lon="11.51133369959505"><ele>141.0</ele><time>2026-04-26T13:30:45Z</time></trkpt><trkpt lat="43.85041161384862" lon="11.511059248920095"><ele>141.0</ele><time>2026-04-26T13:30:46Z</time></trkpt><trkpt lat="43.85044044093022" lon="11.510801736237605"><ele>138.66666666666666</ele><time>2026-04-26T13:30:47Z</time></trkpt><trkpt lat="43.85046398682574" lon="11.510551184284605"><ele>136.33333333333331</ele><time>2026-04-26T13:30:48Z</time></trkpt><trkpt lat="43.850492064728236" lon="11.510323485605088"><ele>134.0</ele><time>2026-04-26T13:30:49Z</time></trkpt><trkpt lat="43.850512739755565" lon="11.510099993003756"><ele>133.33333333333331</ele><time>2026-04-26T13:30:50Z</time></trkpt><trkpt lat="43.850513681084266" lon="11.509868794966078"><ele>132.66666666666666</ele><time>2026-04-26T13:30:51Z</time></trkpt><trkpt lat="43.85048922027201" lon="11.509628130303309"><ele>132.0</ele><time>2026-04-26T13:30:52Z</time></trkpt><trkpt lat="43.85048308758313" lon="11.509389009129455"><ele>131.0</ele><time>2026-04-26T13:30:53Z</time></trkpt><trkpt lat="43.850462596344094" lon="11.509155698346195"><ele>130.0</ele><time>2026-04-26T13:30:54Z</time></trkpt><trkpt lat="43.85044363421782" lon="11.508930266048408"><ele>129.0</ele><time>2026-04-26T13:30:55Z</time></trkpt><trkpt lat="43.85042511104202" lon="11.508705989161564"><ele>128.66666666666666</ele><time>2026-04-26T13:30:56Z</time></trkpt><trkpt lat="43.85040519939647" lon="11.508464900928"><ele>128.33333333333331</ele><time>2026-04-26T13:30:57Z</time></trkpt><trkpt lat="43.85038372840153" lon="11.508202594265454"><ele>128.0</ele><time>2026-04-26T13:30:58Z</time></trkpt><trkpt lat="43.850360185996166" lon="11.507910022513155"><ele>127.66666666666666</ele><time>2026-04-26T13:30:59Z</time></trkpt><trkpt lat="43.850336060648814" lon="11.507613307166775"><ele>127.33333333333334</ele><time>2026-04-26T13:31:00Z</time></trkpt><trkpt lat="43.850296827531544" lon="11.507332752051372"><ele>127.0</ele><time>2026-04-26T13:31:01Z</time></trkpt><trkpt lat="43.85027941247469" lon="11.507058488994389"><ele>126.33333333333334</ele><time>2026-04-26T13:31:02Z</time></trkpt><trkpt lat="43.85025620449912" lon="11.506796061324946"><ele>125.66666666666666</ele><time>2026-04-26T13:31:03Z</time></trkpt><trkpt lat="43.85022124320973" lon="11.50653874629357"><ele>125.0</ele><time>2026-04-26T13:31:04Z</time></trkpt><trkpt lat="43.85016560887098" lon="11.506293114390227"><ele>126.66666666666666</ele><time>2026-04-26T13:31:05Z</time></trkpt><trkpt lat="43.8500728491059" lon="11.50605274421843"><ele>128.33333333333334</ele><time>2026-04-26T13:31:06Z</time></trkpt><trkpt lat="43.84997202880176" lon="11.505812652315916"><ele>130.0</ele><time>2026-04-26T13:31:07Z</time></trkpt><trkpt lat="43.84987827862511" lon="11.505564614420521"><ele>129.33333333333334</ele><time>2026-04-26T13:31:08Z</time></trkpt><trkpt lat="43.84978828221037" lon="11.505312484826517"><ele>128.66666666666666</ele><time>2026-04-26T13:31:09Z</time></trkpt><trkpt lat="43.849698091528786" lon="11.50506349860993"><ele>128.0</ele><time>2026-04-26T13:31:10Z</time></trkpt><trkpt lat="43.84961230315828" lon="11.504829016848774"><ele>128.0</ele><time>2026-04-26T13:31:11Z</time></trkpt><trkpt lat="43.84953378814829" lon="11.504607874198173"><ele>128.0</ele><time>2026-04-26T13:31:12Z</time></trkpt><trkpt lat="43.84945781080534" lon="11.504398666175314"><ele>128.0</ele><time>2026-04-26T13:31:12.999Z</time></trkpt><trkpt lat="43.84938469749857" lon="11.504198210395582"><ele>128.0</ele><time>2026-04-26T13:31:13.999Z</time></trkpt><trkpt lat="43.84930596044896" lon="11.504008530526733"><ele>128.0</ele><time>2026-04-26T13:31:14.999Z</time></trkpt><trkpt lat="43.84922071977545" lon="11.503834019213828"><ele>128.0</ele><time>2026-04-26T13:31:15.999Z</time></trkpt><trkpt lat="43.8491302453485" lon="11.50366572129979"><ele>129.0</ele><time>2026-04-26T13:31:16.999Z</time></trkpt><trkpt lat="43.84904182551637" lon="11.503501375987076"><ele>130.0</ele><time>2026-04-26T13:31:17.999Z</time></trkpt><trkpt lat="43.848954588339794" lon="11.503335362554303"><ele>131.0</ele><time>2026-04-26T13:31:18.999Z</time></trkpt><trkpt lat="43.84886749619679" lon="11.503171593186185"><ele>132.0</ele><time>2026-04-26T13:31:19.999Z</time></trkpt><trkpt lat="43.84878140246532" lon="11.503012482927915"><ele>131.25</ele><time>2026-04-26T13:31:20.999Z</time></trkpt><trkpt lat="43.84871489069586" lon="11.502846248896248"><ele>130.5</ele><time>2026-04-26T13:31:21.999Z</time></trkpt><trkpt lat="43.848626377773265" lon="11.502713695813421"><ele>129.75</ele><time>2026-04-26T13:31:22.999Z</time></trkpt><trkpt lat="43.8485540261533" lon="11.502571046606045"><ele>129.0</ele><time>2026-04-26T13:31:23.999Z</time></trkpt><trkpt lat="43.84848191630309" lon="11.502431760235018"><ele>130.0</ele><time>2026-04-26T13:31:24.999Z</time></trkpt><trkpt lat="43.84841293947737" lon="11.50229967613214"><ele>131.0</ele><time>2026-04-26T13:31:26Z</time></trkpt><trkpt lat="43.84834572409699" lon="11.502174727962874"><ele>132.0</ele><time>2026-04-26T13:31:27Z</time></trkpt><trkpt lat="43.84827946039435" lon="11.502058815409008"><ele>133.0</ele><time>2026-04-26T13:31:28Z</time></trkpt><trkpt lat="43.848209018771236" lon="11.501954117961304"><ele>134.0</ele><time>2026-04-26T13:31:29Z</time></trkpt><trkpt lat="43.84813237275715" lon="11.501853996316028"><ele>134.0</ele><time>2026-04-26T13:31:30Z</time></trkpt><trkpt lat="43.84804765078763" lon="11.501754480516265"><ele>134.0</ele><time>2026-04-26T13:31:31Z</time></trkpt><trkpt lat="43.84795812383183" lon="11.501657188308467"><ele>134.0</ele><time>2026-04-26T13:31:32Z</time></trkpt><trkpt lat="43.847867729459274" lon="11.50156025306541"><ele>134.0</ele><time>2026-04-26T13:31:33Z</time></trkpt><trkpt lat="43.847792094882294" lon="11.501447414277527"><ele>134.0</ele><time>2026-04-26T13:31:34Z</time></trkpt><trkpt lat="43.84769933745105" lon="11.501369660483196"><ele>134.0</ele><time>2026-04-26T13:31:35Z</time></trkpt><trkpt lat="43.8476245558937" lon="11.501259338612751"><ele>134.0</ele><time>2026-04-26T13:31:36Z</time></trkpt><trkpt lat="43.84752830608541" lon="11.501179698937376"><ele>134.0</ele><time>2026-04-26T13:31:37Z</time></trkpt><trkpt lat="43.847454183100645" lon="11.501065691270384"><ele>134.0</ele><time>2026-04-26T13:31:38Z</time></trkpt><trkpt lat="43.84736901628291" lon="11.500968729933197"><ele>134.25</ele><time>2026-04-26T13:31:39Z</time></trkpt><trkpt lat="43.847276544778765" lon="11.500863442361384"><ele>134.5</ele><time>2026-04-26T13:31:40Z</time></trkpt><trkpt lat="43.84717614033807" lon="11.500749390061385"><ele>134.75</ele><time>2026-04-26T13:31:41Z</time></trkpt><trkpt lat="43.84707173937556" lon="11.500630797982158"><ele>135.0</ele><time>2026-04-26T13:31:42Z</time></trkpt><trkpt lat="43.846962755202625" lon="11.500506999699047"><ele>135.25</ele><time>2026-04-26T13:31:43Z</time></trkpt><trkpt lat="43.84685024994521" lon="11.50037920171361"><ele>135.5</ele><time>2026-04-26T13:31:44Z</time></trkpt><trkpt lat="43.8467397522811" lon="11.500254245682726"><ele>135.75</ele><time>2026-04-26T13:31:45Z</time></trkpt><trkpt lat="43.846631043954936" lon="11.500131369852324"><ele>136.0</ele><time>2026-04-26T13:31:46Z</time></trkpt><trkpt lat="43.84652610079231" lon="11.500012749886013"><ele>136.0</ele><time>2026-04-26T13:31:47Z</time></trkpt><trkpt lat="43.846420715008186" lon="11.49989125157332"><ele>136.0</ele><time>2026-04-26T13:31:48Z</time></trkpt><trkpt lat="43.84631632383598" lon="11.499773409339332"><ele>136.0</ele><time>2026-04-26T13:31:49Z</time></trkpt><trkpt lat="43.84620511249755" lon="11.49966360959622"><ele>136.0</ele><time>2026-04-26T13:31:50Z</time></trkpt><trkpt lat="43.84608817848557" lon="11.499562115170008"><ele>135.5</ele><time>2026-04-26T13:31:51Z</time></trkpt><trkpt lat="43.84596745526472" lon="11.49947929304654"><ele>135.0</ele><time>2026-04-26T13:31:52Z</time></trkpt><trkpt lat="43.84584260153177" lon="11.499434338889829"><ele>134.5</ele><time>2026-04-26T13:31:53Z</time></trkpt><trkpt lat="43.84573179533375" lon="11.499354494400832"><ele>134.0</ele><time>2026-04-26T13:31:54Z</time></trkpt><trkpt lat="43.845603956561476" lon="11.499342148612799"><ele>134.0</ele><time>2026-04-26T13:31:55Z</time></trkpt><trkpt lat="43.84547757735603" lon="11.499326509018754"><ele>134.0</ele><time>2026-04-26T13:31:56Z</time></trkpt><trkpt lat="43.84535144138028" lon="11.499324580293386"><ele>134.0</ele><time>2026-04-26T13:31:57Z</time></trkpt><trkpt lat="43.84522837926858" lon="11.49933057206967"><ele>134.0</ele><time>2026-04-26T13:31:58Z</time></trkpt><trkpt lat="43.84510753881649" lon="11.499339576243134"><ele>134.5</ele><time>2026-04-26T13:31:59Z</time></trkpt><trkpt lat="43.84498923272164" lon="11.499349718871974"><ele>135.0</ele><time>2026-04-26T13:32:00Z</time></trkpt><trkpt lat="43.84487204048011" lon="11.499359793388793"><ele>135.5</ele><time>2026-04-26T13:32:01Z</time></trkpt><trkpt lat="43.84475321918896" lon="11.499365991192528"><ele>136.0</ele><time>2026-04-26T13:32:02Z</time></trkpt><trkpt lat="43.844634157039685" lon="11.499373664738735"><ele>136.0</ele><time>2026-04-26T13:32:03Z</time></trkpt><trkpt lat="43.84451337064757" lon="11.49938212896508"><ele>136.0</ele><time>2026-04-26T13:32:04Z</time></trkpt><trkpt lat="43.84439122818821" lon="11.499393458489056"><ele>136.0</ele><time>2026-04-26T13:32:05Z</time></trkpt><trkpt lat="43.84426859584561" lon="11.499399635094774"><ele>136.0</ele><time>2026-04-26T13:32:06Z</time></trkpt><trkpt lat="43.84414379937725" lon="11.499404922999853"><ele>135.5</ele><time>2026-04-26T13:32:07Z</time></trkpt><trkpt lat="43.84401857322018" lon="11.499413526551804"><ele>135.0</ele><time>2026-04-26T13:32:08Z</time></trkpt><trkpt lat="43.843891040577184" lon="11.499422477128288"><ele>134.5</ele><time>2026-04-26T13:32:09Z</time></trkpt><trkpt lat="43.843764454512886" lon="11.499432054332479"><ele>134.0</ele><time>2026-04-26T13:32:10Z</time></trkpt><trkpt lat="43.84363531406255" lon="11.499442813247875"><ele>134.0</ele><time>2026-04-26T13:32:11Z</time></trkpt><trkpt lat="43.843506868389504" lon="11.499452030126248"><ele>134.0</ele><time>2026-04-26T13:32:12Z</time></trkpt><trkpt lat="43.84337603527233" lon="11.49946002393405"><ele>134.0</ele><time>2026-04-26T13:32:13Z</time></trkpt><trkpt lat="43.84324251126928" lon="11.499465150991348"><ele>134.0</ele><time>2026-04-26T13:32:14Z</time></trkpt><trkpt lat="43.84310525750756" lon="11.499480070137574"><ele>134.25</ele><time>2026-04-26T13:32:15Z</time></trkpt><trkpt lat="43.84296445810046" lon="11.499489804294988"><ele>134.5</ele><time>2026-04-26T13:32:16Z</time></trkpt><trkpt lat="43.842823465992815" lon="11.499500454164256"><ele>134.75</ele><time>2026-04-26T13:32:17Z</time></trkpt><trkpt lat="43.8426856940147" lon="11.499504895800658"><ele>135.0</ele><time>2026-04-26T13:32:18Z</time></trkpt><trkpt lat="43.84254570303252" lon="11.499515806087587"><ele>135.25</ele><time>2026-04-26T13:32:19Z</time></trkpt><trkpt lat="43.84239867667312" lon="11.499526839783105"><ele>135.5</ele><time>2026-04-26T13:32:20Z</time></trkpt><trkpt lat="43.84225167449468" lon="11.499539443449335"><ele>135.75</ele><time>2026-04-26T13:32:21Z</time></trkpt><trkpt lat="43.842105321621915" lon="11.499568788683414"><ele>136.0</ele><time>2026-04-26T13:32:22Z</time></trkpt><trkpt lat="43.841956825725596" lon="11.499614166953153"><ele>138.0</ele><time>2026-04-26T13:32:23Z</time></trkpt><trkpt lat="43.84180760227199" lon="11.499662041877414"><ele>140.0</ele><time>2026-04-26T13:32:24Z</time></trkpt><trkpt lat="43.84166778581108" lon="11.499705629707377"><ele>142.0</ele><time>2026-04-26T13:32:25Z</time></trkpt><trkpt lat="43.84154099880483" lon="11.499742272153924"><ele>144.0</ele><time>2026-04-26T13:32:26Z</time></trkpt><trkpt lat="43.841425604708995" lon="11.49978650622824"><ele>144.0</ele><time>2026-04-26T13:32:27Z</time></trkpt><trkpt lat="43.8413123702056" lon="11.499862499635931"><ele>144.0</ele><time>2026-04-26T13:32:28Z</time></trkpt><trkpt lat="43.84120248635549" lon="11.499959555297155"><ele>144.0</ele><time>2026-04-26T13:32:29Z</time></trkpt><trkpt lat="43.84109494271718" lon="11.500064883422725"><ele>144.0</ele><time>2026-04-26T13:32:30Z</time></trkpt><trkpt lat="43.840986419320835" lon="11.500170807660568"><ele>143.0</ele><time>2026-04-26T13:32:31Z</time></trkpt><trkpt lat="43.84088130183288" lon="11.500276763778874"><ele>142.0</ele><time>2026-04-26T13:32:32Z</time></trkpt><trkpt lat="43.84077319803816" lon="11.50037979151416"><ele>141.0</ele><time>2026-04-26T13:32:33Z</time></trkpt><trkpt lat="43.84066415157524" lon="11.500477038593674"><ele>140.0</ele><time>2026-04-26T13:32:34Z</time></trkpt><trkpt lat="43.84055826260789" lon="11.500572319156275"><ele>141.25</ele><time>2026-04-26T13:32:35Z</time></trkpt><trkpt lat="43.840451177861524" lon="11.500660248464271"><ele>142.5</ele><time>2026-04-26T13:32:36Z</time></trkpt><trkpt lat="43.84033383563872" lon="11.500725585398554"><ele>143.75</ele><time>2026-04-26T13:32:37Z</time></trkpt><trkpt lat="43.84020734557234" lon="11.500773724080798"><ele>145.0</ele><time>2026-04-26T13:32:38Z</time></trkpt><trkpt lat="43.84007811867585" lon="11.500796849547283"><ele>145.0</ele><time>2026-04-26T13:32:39Z</time></trkpt><trkpt lat="43.839952841454846" lon="11.500797461121243"><ele>145.0</ele><time>2026-04-26T13:32:40Z</time></trkpt><trkpt lat="43.83983180130342" lon="11.500782986395777"><ele>145.0</ele><time>2026-04-26T13:32:41Z</time></trkpt><trkpt lat="43.83972383990786" lon="11.500735707848024"><ele>145.0</ele><time>2026-04-26T13:32:42Z</time></trkpt><trkpt lat="43.83963581831928" lon="11.50070966069486"><ele>145.0</ele><time>2026-04-26T13:32:43Z</time></trkpt><trkpt lat="43.83957178931072" lon="11.500690509161839"><ele>145.0</ele><time>2026-04-26T13:32:44Z</time></trkpt><trkpt lat="43.83950788191863" lon="11.500671393953414"><ele>145.0</ele><time>2026-04-26T13:32:46Z</time></trkpt><trkpt lat="43.839502319774404" lon="11.500821748398717"><ele>145.0</ele><time>2026-04-26T13:32:48Z</time></trkpt><trkpt lat="43.83949674808445" lon="11.500951137696948"><ele>145.0</ele><time>2026-04-26T13:32:50Z</time></trkpt><trkpt lat="43.83945919284783" lon="11.501092616889185"><ele>145.0</ele><time>2026-04-26T13:32:52Z</time></trkpt><trkpt lat="43.839470435501916" lon="11.501181216198875"><ele>145.8</ele><time>2026-04-26T13:32:59Z</time></trkpt><trkpt lat="43.839535327069" lon="11.501342455923679"><ele>146.6</ele><time>2026-04-26T13:33:02Z</time></trkpt><trkpt lat="43.839573132815474" lon="11.501428953557859"><ele>147.4</ele><time>2026-04-26T13:33:03Z</time></trkpt><trkpt lat="43.83960942176639" lon="11.501542633180698"><ele>148.2</ele><time>2026-04-26T13:33:04Z</time></trkpt><trkpt lat="43.839661797494514" lon="11.50165658255809"><ele>149.0</ele><time>2026-04-26T13:33:05Z</time></trkpt><trkpt lat="43.839725303137385" lon="11.501758013545171"><ele>149.0</ele><time>2026-04-26T13:33:06Z</time></trkpt><trkpt lat="43.83977305266883" lon="11.501897227037542"><ele>149.0</ele><time>2026-04-26T13:33:07Z</time></trkpt><trkpt lat="43.839825766382766" lon="11.502046057803819"><ele>149.0</ele><time>2026-04-26T13:33:08Z</time></trkpt><trkpt lat="43.839884476170056" lon="11.50218319726948"><ele>149.0</ele><time>2026-04-26T13:33:09Z</time></trkpt><trkpt lat="43.839957782402344" lon="11.50231323909257"><ele>150.2</ele><time>2026-04-26T13:33:10Z</time></trkpt><trkpt lat="43.840033989669365" lon="11.502437583662166"><ele>151.4</ele><time>2026-04-26T13:33:11Z</time></trkpt><trkpt lat="43.84009800503079" lon="11.502568528625845"><ele>152.6</ele><time>2026-04-26T13:33:12Z</time></trkpt><trkpt lat="43.840149992279365" lon="11.502690734246189"><ele>153.8</ele><time>2026-04-26T13:33:13Z</time></trkpt><trkpt lat="43.840178026528356" lon="11.50281040229708"><ele>155.0</ele><time>2026-04-26T13:33:14Z</time></trkpt><trkpt lat="43.84017737221722" lon="11.502932819422464"><ele>157.8</ele><time>2026-04-26T13:33:15Z</time></trkpt><trkpt lat="43.840146084648445" lon="11.503046346629631"><ele>160.6</ele><time>2026-04-26T13:33:16Z</time></trkpt><trkpt lat="43.840085016550624" lon="11.503149980708262"><ele>163.39999999999998</ele><time>2026-04-26T13:33:17Z</time></trkpt><trkpt lat="43.8400103962162" lon="11.50325485107607"><ele>166.2</ele><time>2026-04-26T13:33:18Z</time></trkpt><trkpt lat="43.839940953169" lon="11.503362432938616"><ele>169.0</ele><time>2026-04-26T13:33:19Z</time></trkpt><trkpt lat="43.839872632053584" lon="11.503470978342822"><ele>169.0</ele><time>2026-04-26T13:33:20Z</time></trkpt><trkpt lat="43.83980713079134" lon="11.503575558204938"><ele>169.0</ele><time>2026-04-26T13:33:21Z</time></trkpt><trkpt lat="43.83974491913254" lon="11.503665518535563"><ele>169.0</ele><time>2026-04-26T13:33:22Z</time></trkpt><trkpt lat="43.839706996147164" lon="11.503765580400692"><ele>169.0</ele><time>2026-04-26T13:33:23Z</time></trkpt><trkpt lat="43.839681392201" lon="11.503846163053575"><ele>169.0</ele><time>2026-04-26T13:33:24Z</time></trkpt><trkpt lat="43.83968262951525" lon="11.503940149024784"><ele>169.0</ele><time>2026-04-26T13:33:25Z</time></trkpt><trkpt lat="43.83972279188561" lon="11.504033523433753"><ele>169.79999999999998</ele><time>2026-04-26T13:33:26Z</time></trkpt><trkpt lat="43.83978946028749" lon="11.504079074019085"><ele>170.6</ele><time>2026-04-26T13:33:27Z</time></trkpt><trkpt lat="43.83986277232628" lon="11.504080794621409"><ele>171.4</ele><time>2026-04-26T13:33:28Z</time></trkpt><trkpt lat="43.839950105451315" lon="11.503973995980791"><ele>172.2</ele><time>2026-04-26T13:33:29Z</time></trkpt><trkpt lat="43.84002974212768" lon="11.503839760700053"><ele>173.0</ele><time>2026-04-26T13:33:30Z</time></trkpt><trkpt lat="43.8401342905486" lon="11.50370472353142"><ele>173.0</ele><time>2026-04-26T13:33:31Z</time></trkpt><trkpt lat="43.84021111841458" lon="11.50359804715832"><ele>173.0</ele><time>2026-04-26T13:33:32.001Z</time></trkpt><trkpt lat="43.84027980372158" lon="11.503508986730932"><ele>173.0</ele><time>2026-04-26T13:33:33.001Z</time></trkpt><trkpt lat="43.84033866794865" lon="11.503451517157291"><ele>173.0</ele><time>2026-04-26T13:33:34.001Z</time></trkpt><trkpt lat="43.840418695086264" lon="11.503493921419965"><ele>173.0</ele><time>2026-04-26T13:33:36.001Z</time></trkpt><trkpt lat="43.84036857469792" lon="11.503638706939096"><ele>173.0</ele><time>2026-04-26T13:33:38.001Z</time></trkpt><trkpt lat="43.84031692934897" lon="11.50371488872543"><ele>173.0</ele><time>2026-04-26T13:33:39.001Z</time></trkpt><trkpt lat="43.84024437338987" lon="11.503839585373466"><ele>173.0</ele><time>2026-04-26T13:33:40Z</time></trkpt><trkpt lat="43.840162294049605" lon="11.503986815448455"><ele>173.0</ele><time>2026-04-26T13:33:41Z</time></trkpt><trkpt lat="43.84009554061818" lon="11.504114482557064"><ele>173.0</ele><time>2026-04-26T13:33:42Z</time></trkpt><trkpt lat="43.84005152417462" lon="11.504222836470511"><ele>174.60000000000002</ele><time>2026-04-26T13:33:43Z</time></trkpt><trkpt lat="43.840037635860476" lon="11.50431488923338"><ele>176.20000000000002</ele><time>2026-04-26T13:33:44Z</time></trkpt><trkpt lat="43.84006888826007" lon="11.504407967403965"><ele>177.8</ele><time>2026-04-26T13:33:45Z</time></trkpt><trkpt lat="43.8401298859102" lon="11.50444588715621"><ele>179.4</ele><time>2026-04-26T13:33:46Z</time></trkpt><trkpt lat="43.84026167452233" lon="11.504343041316185"><ele>181.0</ele><time>2026-04-26T13:33:48Z</time></trkpt><trkpt lat="43.84032682723321" lon="11.504233180750395"><ele>182.8</ele><time>2026-04-26T13:33:49Z</time></trkpt><trkpt lat="43.84041719152524" lon="11.504128022915665"><ele>184.60000000000002</ele><time>2026-04-26T13:33:50Z</time></trkpt><trkpt lat="43.840496965827924" lon="11.504028935653936"><ele>186.4</ele><time>2026-04-26T13:33:51Z</time></trkpt><trkpt lat="43.84056794791654" lon="11.504009840734827"><ele>188.2</ele><time>2026-04-26T13:33:52Z</time></trkpt><trkpt lat="43.84066723138457" lon="11.504111659565693"><ele>190.0</ele><time>2026-04-26T13:33:54Z</time></trkpt><trkpt lat="43.84068517335015" lon="11.504263168786563"><ele>190.0</ele><time>2026-04-26T13:33:55Z</time></trkpt><trkpt lat="43.840686810109446" lon="11.504411741906715"><ele>190.0</ele><time>2026-04-26T13:33:56Z</time></trkpt><trkpt lat="43.84071052514428" lon="11.504572938085342"><ele>190.0</ele><time>2026-04-26T13:33:57Z</time></trkpt><trkpt lat="43.84072628789371" lon="11.504741482334005"><ele>190.0</ele><time>2026-04-26T13:33:58Z</time></trkpt><trkpt lat="43.8407341338249" lon="11.50490182552812"><ele>191.75</ele><time>2026-04-26T13:33:59Z</time></trkpt><trkpt lat="43.84072787922465" lon="11.5050647970604"><ele>193.5</ele><time>2026-04-26T13:34:00Z</time></trkpt><trkpt lat="43.840701991133294" lon="11.50522830113464"><ele>195.25</ele><time>2026-04-26T13:34:01Z</time></trkpt><trkpt lat="43.840656553297315" lon="11.50539686849915"><ele>197.0</ele><time>2026-04-26T13:34:02Z</time></trkpt><trkpt lat="43.84059612888033" lon="11.505569810674784"><ele>197.5</ele><time>2026-04-26T13:34:03Z</time></trkpt><trkpt lat="43.84053546296727" lon="11.505747897393668"><ele>198.0</ele><time>2026-04-26T13:34:04Z</time></trkpt><trkpt lat="43.840487922851736" lon="11.5059179687292"><ele>198.5</ele><time>2026-04-26T13:34:05Z</time></trkpt><trkpt lat="43.840453913141154" lon="11.506090357307611"><ele>199.0</ele><time>2026-04-26T13:34:06Z</time></trkpt><trkpt lat="43.840430482463084" lon="11.506266755751174"><ele>200.75</ele><time>2026-04-26T13:34:07Z</time></trkpt><trkpt lat="43.840439533809445" lon="11.50645518216905"><ele>202.5</ele><time>2026-04-26T13:34:08Z</time></trkpt><trkpt lat="43.840485797479424" lon="11.506649829208618"><ele>204.25</ele><time>2026-04-26T13:34:09Z</time></trkpt><trkpt lat="43.84054774852883" lon="11.506841150899588"><ele>206.0</ele><time>2026-04-26T13:34:10Z</time></trkpt><trkpt lat="43.840622775018915" lon="11.507027086827268"><ele>208.75</ele><time>2026-04-26T13:34:11Z</time></trkpt><trkpt lat="43.84066696740864" lon="11.507216313891556"><ele>211.5</ele><time>2026-04-26T13:34:12Z</time></trkpt><trkpt lat="43.84071174766533" lon="11.507386885398454"><ele>214.25</ele><time>2026-04-26T13:34:13Z</time></trkpt><trkpt lat="43.84074040183916" lon="11.507551362113512"><ele>217.0</ele><time>2026-04-26T13:34:14Z</time></trkpt><trkpt lat="43.84069642380744" lon="11.507727572489681"><ele>219.0</ele><time>2026-04-26T13:34:15Z</time></trkpt><trkpt lat="43.84068119061829" lon="11.50792869682038"><ele>221.0</ele><time>2026-04-26T13:34:16Z</time></trkpt><trkpt lat="43.840645074131494" lon="11.50812866984357"><ele>223.0</ele><time>2026-04-26T13:34:17Z</time></trkpt><trkpt lat="43.84061180062103" lon="11.508334876596683"><ele>225.0</ele><time>2026-04-26T13:34:18Z</time></trkpt><trkpt lat="43.840581903946884" lon="11.50854100026823"><ele>225.0</ele><time>2026-04-26T13:34:19Z</time></trkpt><trkpt lat="43.84055966843014" lon="11.508736215560479"><ele>225.0</ele><time>2026-04-26T13:34:20Z</time></trkpt><trkpt lat="43.840537022899404" lon="11.508903304078295"><ele>225.0</ele><time>2026-04-26T13:34:21Z</time></trkpt><trkpt lat="43.84052555023066" lon="11.509048108515008"><ele>225.0</ele><time>2026-04-26T13:34:22Z</time></trkpt><trkpt lat="43.840536260344486" lon="11.509180137939444"><ele>226.4</ele><time>2026-04-26T13:34:23Z</time></trkpt><trkpt lat="43.840589378018414" lon="11.509305201734565"><ele>227.8</ele><time>2026-04-26T13:34:24Z</time></trkpt><trkpt lat="43.84067523341824" lon="11.509413808189253"><ele>229.2</ele><time>2026-04-26T13:34:25Z</time></trkpt><trkpt lat="43.84076957499299" lon="11.509507593179947"><ele>230.6</ele><time>2026-04-26T13:34:26Z</time></trkpt><trkpt lat="43.84086275432069" lon="11.509571237846082"><ele>232.0</ele><time>2026-04-26T13:34:27Z</time></trkpt><trkpt lat="43.84095645143981" lon="11.50962010540132"><ele>233.75</ele><time>2026-04-26T13:34:28Z</time></trkpt><trkpt lat="43.84107133287771" lon="11.509610353581133"><ele>235.5</ele><time>2026-04-26T13:34:29Z</time></trkpt><trkpt lat="43.8412048625446" lon="11.509562342562093"><ele>237.25</ele><time>2026-04-26T13:34:30Z</time></trkpt><trkpt lat="43.84135516629537" lon="11.509526270606814"><ele>239.0</ele><time>2026-04-26T13:34:31Z</time></trkpt><trkpt lat="43.84149624986374" lon="11.509440439845713"><ele>239.0</ele><time>2026-04-26T13:34:32Z</time></trkpt><trkpt lat="43.841632982087205" lon="11.509393996622753"><ele>239.0</ele><time>2026-04-26T13:34:33Z</time></trkpt><trkpt lat="43.841756562536325" lon="11.509293712124277"><ele>239.0</ele><time>2026-04-26T13:34:34Z</time></trkpt><trkpt lat="43.841860717326306" lon="11.50913769371497"><ele>239.0</ele><time>2026-04-26T13:34:35Z</time></trkpt><trkpt lat="43.84196876402118" lon="11.508969322230096"><ele>243.0</ele><time>2026-04-26T13:34:36Z</time></trkpt><trkpt lat="43.842088640457035" lon="11.5088110999423"><ele>247.0</ele><time>2026-04-26T13:34:37Z</time></trkpt><trkpt lat="43.84219396791291" lon="11.508649578329692"><ele>251.0</ele><time>2026-04-26T13:34:38Z</time></trkpt><trkpt lat="43.842297368677315" lon="11.508493680469995"><ele>251.0</ele><time>2026-04-26T13:34:39Z</time></trkpt><trkpt lat="43.84238985263968" lon="11.5083542418314"><ele>251.0</ele><time>2026-04-26T13:34:40Z</time></trkpt><trkpt lat="43.84247347321978" lon="11.508227518601462"><ele>251.0</ele><time>2026-04-26T13:34:41Z</time></trkpt><trkpt lat="43.84254772695597" lon="11.508110696040136"><ele>251.0</ele><time>2026-04-26T13:34:42Z</time></trkpt><trkpt lat="43.842617096308416" lon="11.508006252138525"><ele>251.83333333333334</ele><time>2026-04-26T13:34:43Z</time></trkpt><trkpt lat="43.84268154031511" lon="11.50791466881866"><ele>252.66666666666669</ele><time>2026-04-26T13:34:44Z</time></trkpt><trkpt lat="43.84275172614438" lon="11.507880243071583"><ele>253.5</ele><time>2026-04-26T13:34:45Z</time></trkpt><trkpt lat="43.84281766798727" lon="11.507892046418158"><ele>254.33333333333331</ele><time>2026-04-26T13:34:46Z</time></trkpt><trkpt lat="43.84287485613792" lon="11.507950828528763"><ele>255.16666666666666</ele><time>2026-04-26T13:34:47Z</time></trkpt><trkpt lat="43.84293768495349" lon="11.508049061667986"><ele>256.0</ele><time>2026-04-26T13:34:48Z</time></trkpt><trkpt lat="43.843025235651915" lon="11.50813873220135"><ele>256.0</ele><time>2026-04-26T13:34:49Z</time></trkpt><trkpt lat="43.84309077004729" lon="11.50826481004782"><ele>256.0</ele><time>2026-04-26T13:34:50Z</time></trkpt><trkpt lat="43.84315402382177" lon="11.508365158723688"><ele>256.0</ele><time>2026-04-26T13:34:51Z</time></trkpt><trkpt lat="43.84319711740012" lon="11.508462038162849"><ele>256.0</ele><time>2026-04-26T13:34:52Z</time></trkpt><trkpt lat="43.843190169615326" lon="11.508598895794757"><ele>256.0</ele><time>2026-04-26T13:34:53Z</time></trkpt><trkpt lat="43.843136052190836" lon="11.508724279768069"><ele>257.25</ele><time>2026-04-26T13:34:54Z</time></trkpt><trkpt lat="43.843094182826725" lon="11.508859475037045"><ele>258.5</ele><time>2026-04-26T13:34:55Z</time></trkpt><trkpt lat="43.843034156560876" lon="11.508994977071744"><ele>259.75</ele><time>2026-04-26T13:34:56Z</time></trkpt><trkpt lat="43.842966715880955" lon="11.509155150129626"><ele>261.0</ele><time>2026-04-26T13:34:57Z</time></trkpt><trkpt lat="43.842887099002645" lon="11.509332215586573"><ele>261.0</ele><time>2026-04-26T13:34:58Z</time></trkpt><trkpt lat="43.84280420994833" lon="11.50951533485813"><ele>261.0</ele><time>2026-04-26T13:34:59Z</time></trkpt><trkpt lat="43.84272695701665" lon="11.509691654543802"><ele>261.0</ele><time>2026-04-26T13:35:00Z</time></trkpt><trkpt lat="43.84265199869234" lon="11.509857271151272"><ele>261.0</ele><time>2026-04-26T13:35:01Z</time></trkpt><trkpt lat="43.84256535841594" lon="11.510014220890275"><ele>263.5</ele><time>2026-04-26T13:35:02Z</time></trkpt><trkpt lat="43.84247387916934" lon="11.510159740602058"><ele>266.0</ele><time>2026-04-26T13:35:03Z</time></trkpt><trkpt lat="43.84237256795922" lon="11.510284693687446"><ele>268.5</ele><time>2026-04-26T13:35:04Z</time></trkpt><trkpt lat="43.842266690517654" lon="11.5103935777267"><ele>271.0</ele><time>2026-04-26T13:35:05Z</time></trkpt><trkpt lat="43.84216070085483" lon="11.510480010729824"><ele>273.40000000000003</ele><time>2026-04-26T13:35:06Z</time></trkpt><trkpt lat="43.842054575007616" lon="11.510549815824858"><ele>275.8</ele><time>2026-04-26T13:35:07Z</time></trkpt><trkpt lat="43.84196484093197" lon="11.51063599001323"><ele>278.20000000000005</ele><time>2026-04-26T13:35:08Z</time></trkpt><trkpt lat="43.84190278395561" lon="11.510748198347704"><ele>280.6</ele><time>2026-04-26T13:35:09Z</time></trkpt><trkpt lat="43.841862985277416" lon="11.510898716320318"><ele>283.0</ele><time>2026-04-26T13:35:10Z</time></trkpt><trkpt lat="43.8418272116478" lon="11.511064511721528"><ele>284.0</ele><time>2026-04-26T13:35:11Z</time></trkpt><trkpt lat="43.84178651812215" lon="11.511237709201389"><ele>285.0</ele><time>2026-04-26T13:35:12Z</time></trkpt><trkpt lat="43.84174551780792" lon="11.511414826062106"><ele>286.0</ele><time>2026-04-26T13:35:13Z</time></trkpt><trkpt lat="43.84170727440972" lon="11.511584501741023"><ele>287.0</ele><time>2026-04-26T13:35:14Z</time></trkpt><trkpt lat="43.84162818814118" lon="11.511727564128543"><ele>287.0</ele><time>2026-04-26T13:35:15Z</time></trkpt><trkpt lat="43.84153768439752" lon="11.51185795763119"><ele>287.0</ele><time>2026-04-26T13:35:16Z</time></trkpt><trkpt lat="43.84145568895146" lon="11.511978206922594"><ele>287.0</ele><time>2026-04-26T13:35:17Z</time></trkpt><trkpt lat="43.84138172766962" lon="11.512079014714399"><ele>287.0</ele><time>2026-04-26T13:35:18Z</time></trkpt><trkpt lat="43.84131677416703" lon="11.512176670051458"><ele>287.0</ele><time>2026-04-26T13:35:19Z</time></trkpt><trkpt lat="43.841262000858606" lon="11.512308941044703"><ele>289.33333333333337</ele><time>2026-04-26T13:35:21Z</time></trkpt><trkpt lat="43.84129978686021" lon="11.512382064153684"><ele>291.6666666666667</ele><time>2026-04-26T13:35:22Z</time></trkpt><trkpt lat="43.841391427300714" lon="11.51237861556439"><ele>294.0</ele><time>2026-04-26T13:35:23Z</time></trkpt><trkpt lat="43.84146665703922" lon="11.512325145254378"><ele>296.3333333333333</ele><time>2026-04-26T13:35:24Z</time></trkpt><trkpt lat="43.84154876410112" lon="11.512244305271345"><ele>298.66666666666663</ele><time>2026-04-26T13:35:25Z</time></trkpt><trkpt lat="43.841645957085504" lon="11.512186943235664"><ele>301.0</ele><time>2026-04-26T13:35:26Z</time></trkpt><trkpt lat="43.84173299981567" lon="11.512147228219842"><ele>300.2</ele><time>2026-04-26T13:35:27Z</time></trkpt><trkpt lat="43.84182672157037" lon="11.512166840446273"><ele>299.40000000000003</ele><time>2026-04-26T13:35:28Z</time></trkpt><trkpt lat="43.84191952589113" lon="11.51223104735101"><ele>298.6</ele><time>2026-04-26T13:35:29Z</time></trkpt><trkpt lat="43.841997554144584" lon="11.512326586879116"><ele>297.8</ele><time>2026-04-26T13:35:30Z</time></trkpt><trkpt lat="43.842075021836855" lon="11.51241987817371"><ele>297.0</ele><time>2026-04-26T13:35:31Z</time></trkpt><trkpt lat="43.84214395885631" lon="11.512535716747992"><ele>297.0</ele><time>2026-04-26T13:35:32Z</time></trkpt><trkpt lat="43.84218330389848" lon="11.512654704873638"><ele>297.0</ele><time>2026-04-26T13:35:33Z</time></trkpt><trkpt lat="43.84220296076374" lon="11.512765739429959"><ele>297.0</ele><time>2026-04-26T13:35:34Z</time></trkpt><trkpt lat="43.84212402002765" lon="11.51285384505011"><ele>297.0</ele><time>2026-04-26T13:35:34.999Z</time></trkpt><trkpt lat="43.842038055660176" lon="11.512926354498484"><ele>297.0</ele><time>2026-04-26T13:35:35.999Z</time></trkpt><trkpt lat="43.8419515638148" lon="11.513033252077454"><ele>297.2</ele><time>2026-04-26T13:35:36.999Z</time></trkpt><trkpt lat="43.84185905935799" lon="11.513140347546285"><ele>297.4</ele><time>2026-04-26T13:35:37.999Z</time></trkpt><trkpt lat="43.84177023748191" lon="11.513232184775994"><ele>297.6</ele><time>2026-04-26T13:35:38.999Z</time></trkpt><trkpt lat="43.841683717241125" lon="11.513285522843669"><ele>297.8</ele><time>2026-04-26T13:35:39.999Z</time></trkpt><trkpt lat="43.8415831076781" lon="11.513280050477071"><ele>298.0</ele><time>2026-04-26T13:35:40.999Z</time></trkpt><trkpt lat="43.841493286162795" lon="11.513193842602083"><ele>300.8</ele><time>2026-04-26T13:35:41.999Z</time></trkpt><trkpt lat="43.84137995058278" lon="11.513126328681915"><ele>303.6</ele><time>2026-04-26T13:35:42.999Z</time></trkpt><trkpt lat="43.84126867162291" lon="11.513088857920257"><ele>306.4</ele><time>2026-04-26T13:35:43.999Z</time></trkpt><trkpt lat="43.841175444413985" lon="11.513078933798585"><ele>309.2</ele><time>2026-04-26T13:35:44.999Z</time></trkpt><trkpt lat="43.8410983266381" lon="11.513127217265923"><ele>312.0</ele><time>2026-04-26T13:35:45.999Z</time></trkpt><trkpt lat="43.84103358854673" lon="11.513219476629844"><ele>312.0</ele><time>2026-04-26T13:35:46.999Z</time></trkpt><trkpt lat="43.84097511357391" lon="11.513354360424309"><ele>312.0</ele><time>2026-04-26T13:35:47.999Z</time></trkpt><trkpt lat="43.840906587612224" lon="11.5134961533022"><ele>312.0</ele><time>2026-04-26T13:35:48.999Z</time></trkpt><trkpt lat="43.84083231899615" lon="11.513638622527074"><ele>312.0</ele><time>2026-04-26T13:35:49.999Z</time></trkpt><trkpt lat="43.84076614504693" lon="11.513788962446103"><ele>314.25</ele><time>2026-04-26T13:35:50.999Z</time></trkpt><trkpt lat="43.840716243770885" lon="11.513963594742636"><ele>316.5</ele><time>2026-04-26T13:35:51.999Z</time></trkpt><trkpt lat="43.84069487401643" lon="11.514186615635955"><ele>318.75</ele><time>2026-04-26T13:35:52.999Z</time></trkpt><trkpt lat="43.84063006806343" lon="11.514358431159538"><ele>321.0</ele><time>2026-04-26T13:35:53.999Z</time></trkpt><trkpt lat="43.84055254087424" lon="11.514510179895915"><ele>321.0</ele><time>2026-04-26T13:35:54.999Z</time></trkpt><trkpt lat="43.84046383921342" lon="11.514612415309033"><ele>321.0</ele><time>2026-04-26T13:35:55.999Z</time></trkpt><trkpt lat="43.840355757081056" lon="11.514672687637585"><ele>321.0</ele><time>2026-04-26T13:35:56.999Z</time></trkpt><trkpt lat="43.84025622813555" lon="11.514762398366793"><ele>321.0</ele><time>2026-04-26T13:35:57.999Z</time></trkpt><trkpt lat="43.84017239439184" lon="11.514914828798833"><ele>322.25</ele><time>2026-04-26T13:35:58.999Z</time></trkpt><trkpt lat="43.84009503669545" lon="11.515091385355701"><ele>323.5</ele><time>2026-04-26T13:35:59.999Z</time></trkpt><trkpt lat="43.84001772492654" lon="11.51524673569115"><ele>324.75</ele><time>2026-04-26T13:36:00.999Z</time></trkpt><trkpt lat="43.839941057053494" lon="11.51538471870962"><ele>326.0</ele><time>2026-04-26T13:36:01.999Z</time></trkpt><trkpt lat="43.839876846852206" lon="11.515499072538486"><ele>327.4</ele><time>2026-04-26T13:36:02.999Z</time></trkpt><trkpt lat="43.83982916716283" lon="11.515611553341053"><ele>328.8</ele><time>2026-04-26T13:36:03.999Z</time></trkpt><trkpt lat="43.83981342495181" lon="11.515731408057743"><ele>330.2</ele><time>2026-04-26T13:36:04.999Z</time></trkpt><trkpt lat="43.83984266568496" lon="11.51585505733275"><ele>331.59999999999997</ele><time>2026-04-26T13:36:05.999Z</time></trkpt><trkpt lat="43.83989713843493" lon="11.515980034247203"><ele>333.0</ele><time>2026-04-26T13:36:06.999Z</time></trkpt><trkpt lat="43.83994683540317" lon="11.516127982622665"><ele>335.25</ele><time>2026-04-26T13:36:07.999Z</time></trkpt><trkpt lat="43.83997835090136" lon="11.516297590742264"><ele>337.5</ele><time>2026-04-26T13:36:08.999Z</time></trkpt><trkpt lat="43.83999820130777" lon="11.516460816067552"><ele>339.75</ele><time>2026-04-26T13:36:09.999Z</time></trkpt><trkpt lat="43.8400290017735" lon="11.516605377760541"><ele>342.0</ele><time>2026-04-26T13:36:10.999Z</time></trkpt><trkpt lat="43.84009578966886" lon="11.516733408652978"><ele>341.40000000000003</ele><time>2026-04-26T13:36:11.999Z</time></trkpt><trkpt lat="43.84019009838585" lon="11.516845673939313"><ele>340.8</ele><time>2026-04-26T13:36:12.999Z</time></trkpt><trkpt lat="43.840275128123764" lon="11.516960207009934"><ele>340.2</ele><time>2026-04-26T13:36:13.999Z</time></trkpt><trkpt lat="43.840351589178965" lon="11.517067138792637"><ele>339.6</ele><time>2026-04-26T13:36:14.999Z</time></trkpt><trkpt lat="43.84038307912513" lon="11.517190618186564"><ele>339.0</ele><time>2026-04-26T13:36:15.999Z</time></trkpt><trkpt lat="43.84040580244276" lon="11.517306459639162"><ele>341.0</ele><time>2026-04-26T13:36:16.999Z</time></trkpt><trkpt lat="43.840358299573055" lon="11.517406834498845"><ele>343.0</ele><time>2026-04-26T13:36:17.999Z</time></trkpt><trkpt lat="43.84029893331627" lon="11.51747339088082"><ele>345.0</ele><time>2026-04-26T13:36:18.999Z</time></trkpt><trkpt lat="43.84020654693239" lon="11.517439578613736"><ele>347.0</ele><time>2026-04-26T13:36:19.999Z</time></trkpt><trkpt lat="43.84010330522689" lon="11.51743030449162"><ele>349.0</ele><time>2026-04-26T13:36:20.999Z</time></trkpt><trkpt lat="43.83998189991807" lon="11.517439171867212"><ele>350.5</ele><time>2026-04-26T13:36:21.999Z</time></trkpt><trkpt lat="43.83985296477233" lon="11.517433654402172"><ele>352.0</ele><time>2026-04-26T13:36:22.999Z</time></trkpt><trkpt lat="43.83971704423927" lon="11.51742311241112"><ele>353.5</ele><time>2026-04-26T13:36:23.999Z</time></trkpt><trkpt lat="43.83958037629986" lon="11.517408624876026"><ele>355.0</ele><time>2026-04-26T13:36:24.999Z</time></trkpt><trkpt lat="43.83945299660488" lon="11.517395822726346"><ele>355.0</ele><time>2026-04-26T13:36:25.999Z</time></trkpt><trkpt lat="43.83932886590362" lon="11.517410543220679"><ele>355.0</ele><time>2026-04-26T13:36:26.999Z</time></trkpt><trkpt lat="43.83921408527652" lon="11.517456710387417"><ele>355.0</ele><time>2026-04-26T13:36:27.999Z</time></trkpt><trkpt lat="43.83911057352878" lon="11.517507008219281"><ele>355.0</ele><time>2026-04-26T13:36:28.999Z</time></trkpt><trkpt lat="43.83901848862589" lon="11.51759249931212"><ele>355.8</ele><time>2026-04-26T13:36:29.999Z</time></trkpt><trkpt lat="43.83893475976193" lon="11.517693757635255"><ele>356.6</ele><time>2026-04-26T13:36:30.999Z</time></trkpt><trkpt lat="43.83886564982653" lon="11.51781319407916"><ele>357.4</ele><time>2026-04-26T13:36:31.999Z</time></trkpt><trkpt lat="43.838784652532766" lon="11.517883253063543"><ele>358.2</ele><time>2026-04-26T13:36:32.999Z</time></trkpt><trkpt lat="43.83872361449207" lon="11.517945157723936"><ele>359.0</ele><time>2026-04-26T13:36:33.999Z</time></trkpt><trkpt lat="43.83864697459931" lon="11.517939324852561"><ele>359.0</ele><time>2026-04-26T13:36:34.999Z</time></trkpt><trkpt lat="43.83857160221892" lon="11.517883921734537"><ele>359.0</ele><time>2026-04-26T13:36:35.999Z</time></trkpt><trkpt lat="43.838512253412674" lon="11.517779267065245"><ele>359.0</ele><time>2026-04-26T13:36:36.999Z</time></trkpt><trkpt lat="43.838487449893364" lon="11.517628547608412"><ele>359.0</ele><time>2026-04-26T13:36:37.999Z</time></trkpt><trkpt lat="43.838451137879524" lon="11.517488420569874"><ele>359.0</ele><time>2026-04-26T13:36:38.999Z</time></trkpt><trkpt lat="43.83842027717915" lon="11.517326337020314"><ele>364.25</ele><time>2026-04-26T13:36:39.999Z</time></trkpt><trkpt lat="43.83839361304211" lon="11.517141690154054"><ele>369.5</ele><time>2026-04-26T13:36:40.999Z</time></trkpt><trkpt lat="43.838353471844265" lon="11.516962899968606"><ele>374.75</ele><time>2026-04-26T13:36:41.999Z</time></trkpt><trkpt lat="43.83833608460781" lon="11.516794877969788"><ele>380.0</ele><time>2026-04-26T13:36:42.999Z</time></trkpt><trkpt lat="43.83832011828299" lon="11.516638502497782"><ele>380.0</ele><time>2026-04-26T13:36:43.999Z</time></trkpt><trkpt lat="43.83830006835446" lon="11.516483046321525"><ele>380.0</ele><time>2026-04-26T13:36:44.999Z</time></trkpt><trkpt lat="43.83827641815885" lon="11.51634763785086"><ele>380.0</ele><time>2026-04-26T13:36:45.999Z</time></trkpt><trkpt lat="43.838245646248005" lon="11.51623833862657"><ele>380.0</ele><time>2026-04-26T13:36:46.999Z</time></trkpt><trkpt lat="43.838183222000794" lon="11.516146688641555"><ele>380.0</ele><time>2026-04-26T13:36:47.999Z</time></trkpt><trkpt lat="43.83809222509367" lon="11.516075164698517"><ele>379.25</ele><time>2026-04-26T13:36:48.999Z</time></trkpt><trkpt lat="43.83797968787121" lon="11.516035495503948"><ele>378.5</ele><time>2026-04-26T13:36:49.999Z</time></trkpt><trkpt lat="43.83785325277327" lon="11.5160415634921"><ele>377.75</ele><time>2026-04-26T13:36:50.999Z</time></trkpt><trkpt lat="43.8377180598465" lon="11.516079612110119"><ele>377.0</ele><time>2026-04-26T13:36:51.999Z</time></trkpt><trkpt lat="43.83756829509216" lon="11.516146914599222"><ele>377.0</ele><time>2026-04-26T13:36:52.999Z</time></trkpt><trkpt lat="43.83743378255033" lon="11.5162316219844"><ele>377.0</ele><time>2026-04-26T13:36:53.999Z</time></trkpt><trkpt lat="43.837312619613634" lon="11.51632526647876"><ele>377.0</ele><time>2026-04-26T13:36:54.999Z</time></trkpt><trkpt lat="43.83721285590284" lon="11.516440557167115"><ele>377.0</ele><time>2026-04-26T13:36:55.999Z</time></trkpt><trkpt lat="43.837127548831276" lon="11.516563093760002"><ele>380.5</ele><time>2026-04-26T13:36:56.999Z</time></trkpt><trkpt lat="43.83702403601362" lon="11.516647378707145"><ele>384.0</ele><time>2026-04-26T13:36:57.999Z</time></trkpt><trkpt lat="43.836895780713945" lon="11.516660282319478"><ele>387.5</ele><time>2026-04-26T13:36:58.999Z</time></trkpt><trkpt lat="43.83676420653734" lon="11.51669554844406"><ele>391.0</ele><time>2026-04-26T13:36:59.999Z</time></trkpt><trkpt lat="43.83663562255513" lon="11.516742346483529"><ele>391.0</ele><time>2026-04-26T13:37:00.999Z</time></trkpt><trkpt lat="43.836504882331084" lon="11.516779857463534"><ele>391.0</ele><time>2026-04-26T13:37:01.999Z</time></trkpt><trkpt lat="43.83638423213501" lon="11.516820588415275"><ele>391.0</ele><time>2026-04-26T13:37:02.999Z</time></trkpt><trkpt lat="43.83627023940696" lon="11.51680921443106"><ele>391.0</ele><time>2026-04-26T13:37:03.999Z</time></trkpt><trkpt lat="43.83617519198488" lon="11.516770158187757"><ele>391.0</ele><time>2026-04-26T13:37:04.999Z</time></trkpt><trkpt lat="43.83608302346997" lon="11.516706280748947"><ele>391.0</ele><time>2026-04-26T13:37:05.999Z</time></trkpt><trkpt lat="43.83597949890652" lon="11.516630908501082"><ele>391.0</ele><time>2026-04-26T13:37:06.999Z</time></trkpt><trkpt lat="43.835869638088646" lon="11.516557306439402"><ele>391.0</ele><time>2026-04-26T13:37:07.999Z</time></trkpt><trkpt lat="43.835747416387775" lon="11.516498599256924"><ele>393.25</ele><time>2026-04-26T13:37:08.999Z</time></trkpt><trkpt lat="43.835634469925" lon="11.516425592413468"><ele>395.5</ele><time>2026-04-26T13:37:09.999Z</time></trkpt><trkpt lat="43.835511939577515" lon="11.516364923912484"><ele>397.75</ele><time>2026-04-26T13:37:10.999Z</time></trkpt><trkpt lat="43.835375920467676" lon="11.516330084982144"><ele>400.0</ele><time>2026-04-26T13:37:11.999Z</time></trkpt><trkpt lat="43.83524540141616" lon="11.516282201464751"><ele>403.0</ele><time>2026-04-26T13:37:12.999Z</time></trkpt><trkpt lat="43.83510666338755" lon="11.51628499876872"><ele>406.0</ele><time>2026-04-26T13:37:13.999Z</time></trkpt><trkpt lat="43.83497466447711" lon="11.516276948222332"><ele>409.0</ele><time>2026-04-26T13:37:14.999Z</time></trkpt><trkpt lat="43.834848845390326" lon="11.516300869354845"><ele>412.0</ele><time>2026-04-26T13:37:15.999Z</time></trkpt><trkpt lat="43.83474886247957" lon="11.516367924606419"><ele>412.0</ele><time>2026-04-26T13:37:16.999Z</time></trkpt><trkpt lat="43.834643328300146" lon="11.516400138814525"><ele>412.0</ele><time>2026-04-26T13:37:17.999Z</time></trkpt><trkpt lat="43.83454672903662" lon="11.51643608490047"><ele>412.0</ele><time>2026-04-26T13:37:18.999Z</time></trkpt><trkpt lat="43.83445890798014" lon="11.516367107165191"><ele>412.0</ele><time>2026-04-26T13:37:19.999Z</time></trkpt><trkpt lat="43.834367019249925" lon="11.516283028070015"><ele>412.0</ele><time>2026-04-26T13:37:20.999Z</time></trkpt><trkpt lat="43.83427492166294" lon="11.51623634370153"><ele>412.75</ele><time>2026-04-26T13:37:21.999Z</time></trkpt><trkpt lat="43.834166090174534" lon="11.516271222041123"><ele>413.5</ele><time>2026-04-26T13:37:22.999Z</time></trkpt><trkpt lat="43.83405613219573" lon="11.516319469008371"><ele>414.25</ele><time>2026-04-26T13:37:23.999Z</time></trkpt><trkpt lat="43.833938619468434" lon="11.516362469833275"><ele>415.0</ele><time>2026-04-26T13:37:24.999Z</time></trkpt><trkpt lat="43.8338171059148" lon="11.516413713967518"><ele>415.0</ele><time>2026-04-26T13:37:25.999Z</time></trkpt><trkpt lat="43.83370163348726" lon="11.51647068194276"><ele>415.0</ele><time>2026-04-26T13:37:26.999Z</time></trkpt><trkpt lat="43.833607664060544" lon="11.516533604116796"><ele>415.0</ele><time>2026-04-26T13:37:27.999Z</time></trkpt><trkpt lat="43.83353404285153" lon="11.51660034223364"><ele>415.0</ele><time>2026-04-26T13:37:28.999Z</time></trkpt><trkpt lat="43.83347518807429" lon="11.516676432033641"><ele>415.0</ele><time>2026-04-26T13:37:29.999Z</time></trkpt><trkpt lat="43.83341354279559" lon="11.516756917819418"><ele>415.33333333333337</ele><time>2026-04-26T13:37:30.999Z</time></trkpt><trkpt lat="43.83333693842855" lon="11.516807688609314"><ele>415.6666666666667</ele><time>2026-04-26T13:37:31.999Z</time></trkpt><trkpt lat="43.83327332064057" lon="11.51685736699284"><ele>416.0</ele><time>2026-04-26T13:37:32.999Z</time></trkpt><trkpt lat="43.83320876429268" lon="11.516883594018367"><ele>416.33333333333337</ele><time>2026-04-26T13:37:33.999Z</time></trkpt><trkpt lat="43.83313393206466" lon="11.516843869328532"><ele>416.6666666666667</ele><time>2026-04-26T13:37:34.999Z</time></trkpt><trkpt lat="43.83306680899285" lon="11.516762161230949"><ele>417.0</ele><time>2026-04-26T13:37:35.999Z</time></trkpt><trkpt lat="43.83304504514277" lon="11.516634643973656"><ele>417.0</ele><time>2026-04-26T13:37:36.999Z</time></trkpt><trkpt lat="43.83304526767383" lon="11.516513536646913"><ele>417.0</ele><time>2026-04-26T13:37:37.999Z</time></trkpt><trkpt lat="43.833049573125614" lon="11.516384892816674"><ele>417.0</ele><time>2026-04-26T13:37:38.999Z</time></trkpt><trkpt lat="43.83302702522609" lon="11.51625951292302"><ele>417.0</ele><time>2026-04-26T13:37:39.999Z</time></trkpt><trkpt lat="43.832995083194746" lon="11.516139594983807"><ele>417.0</ele><time>2026-04-26T13:37:40.999Z</time></trkpt><trkpt lat="43.832926613914665" lon="11.516051016022487"><ele>416.0</ele><time>2026-04-26T13:37:41.999Z</time></trkpt><trkpt lat="43.832837856386575" lon="11.515991867787955"><ele>415.0</ele><time>2026-04-26T13:37:42.999Z</time></trkpt><trkpt lat="43.83274929449884" lon="11.515975461289397"><ele>414.0</ele><time>2026-04-26T13:37:43.999Z</time></trkpt><trkpt lat="43.83265408604212" lon="11.515952952602808"><ele>413.0</ele><time>2026-04-26T13:37:44.999Z</time></trkpt><trkpt lat="43.832556077562124" lon="11.515944620147534"><ele>412.0</ele><time>2026-04-26T13:37:45.999Z</time></trkpt><trkpt lat="43.83245753268797" lon="11.515902388009362"><ele>412.0</ele><time>2026-04-26T13:37:46.999Z</time></trkpt><trkpt lat="43.83235302636831" lon="11.515870120982205"><ele>412.0</ele><time>2026-04-26T13:37:47.999Z</time></trkpt><trkpt lat="43.832241755468026" lon="11.515853602476822"><ele>412.0</ele><time>2026-04-26T13:37:48.999Z</time></trkpt><trkpt lat="43.83213450512873" lon="11.515804346148247"><ele>412.0</ele><time>2026-04-26T13:37:49.999Z</time></trkpt><trkpt lat="43.83202905460268" lon="11.515754031007125"><ele>412.0</ele><time>2026-04-26T13:37:50.999Z</time></trkpt><trkpt lat="43.83193269800784" lon="11.515671635254767"><ele>412.0</ele><time>2026-04-26T13:37:51.999Z</time></trkpt><trkpt lat="43.83182539999689" lon="11.515640938970586"><ele>412.0</ele><time>2026-04-26T13:37:52.999Z</time></trkpt><trkpt lat="43.8317244805848" lon="11.515609478090772"><ele>412.0</ele><time>2026-04-26T13:37:53.999Z</time></trkpt><trkpt lat="43.83162632616184" lon="11.51562284015285"><ele>412.0</ele><time>2026-04-26T13:37:54.999Z</time></trkpt><trkpt lat="43.83153699173408" lon="11.515681013029068"><ele>412.0</ele><time>2026-04-26T13:37:55.999Z</time></trkpt><trkpt lat="43.831444800036614" lon="11.515737054657945"><ele>413.6</ele><time>2026-04-26T13:37:56.999Z</time></trkpt><trkpt lat="43.83134529756677" lon="11.515712050008592"><ele>415.20000000000005</ele><time>2026-04-26T13:37:57.999Z</time></trkpt><trkpt lat="43.831261059612984" lon="11.515650717179021"><ele>416.8</ele><time>2026-04-26T13:37:58.999Z</time></trkpt><trkpt lat="43.83116083706614" lon="11.515582266529732"><ele>418.4</ele><time>2026-04-26T13:37:59.999Z</time></trkpt><trkpt lat="43.83105417501279" lon="11.51553213167535"><ele>420.0</ele><time>2026-04-26T13:38:01Z</time></trkpt><trkpt lat="43.83095434634561" lon="11.51545982312014"><ele>420.4</ele><time>2026-04-26T13:38:02Z</time></trkpt><trkpt lat="43.83085270901239" lon="11.5153980050097"><ele>420.8</ele><time>2026-04-26T13:38:03Z</time></trkpt><trkpt lat="43.83075789281385" lon="11.515325558801134"><ele>421.20000000000005</ele><time>2026-04-26T13:38:04Z</time></trkpt><trkpt lat="43.830661344850036" lon="11.5152796729422"><ele>421.6</ele><time>2026-04-26T13:38:05Z</time></trkpt><trkpt lat="43.83056832387156" lon="11.515237953382837"><ele>422.0</ele><time>2026-04-26T13:38:06Z</time></trkpt><trkpt lat="43.8304764504066" lon="11.515233211293102"><ele>422.0</ele><time>2026-04-26T13:38:07Z</time></trkpt><trkpt lat="43.83039266141674" lon="11.5152809614367"><ele>422.0</ele><time>2026-04-26T13:38:08Z</time></trkpt><trkpt lat="43.8303312966491" lon="11.515377484593294"><ele>422.0</ele><time>2026-04-26T13:38:09Z</time></trkpt><trkpt lat="43.83028613270467" lon="11.515498432551746"><ele>422.0</ele><time>2026-04-26T13:38:10Z</time></trkpt><trkpt lat="43.83024440726937" lon="11.515629454525737"><ele>422.0</ele><time>2026-04-26T13:38:11Z</time></trkpt><trkpt lat="43.83020365611687" lon="11.515761880649567"><ele>422.8333333333333</ele><time>2026-04-26T13:38:12Z</time></trkpt><trkpt lat="43.8301689014717" lon="11.515886046405496"><ele>423.66666666666663</ele><time>2026-04-26T13:38:13Z</time></trkpt><trkpt lat="43.83012235226257" lon="11.5159811341402"><ele>424.5</ele><time>2026-04-26T13:38:14Z</time></trkpt><trkpt lat="43.830094794534496" lon="11.516060175679286"><ele>425.33333333333337</ele><time>2026-04-26T13:38:15Z</time></trkpt><trkpt lat="43.83006448000202" lon="11.51614712447173"><ele>426.1666666666667</ele><time>2026-04-26T13:38:18Z</time></trkpt><trkpt lat="43.83005491657658" lon="11.516271267349842"><ele>427.0</ele><time>2026-04-26T13:43:51.999Z</time></trkpt><trkpt lat="43.829977427964465" lon="11.516402231586126"><ele>431.20000000000005</ele><time>2026-04-26T13:43:53.999Z</time></trkpt><trkpt lat="43.82992489599106" lon="11.516480174008343"><ele>435.40000000000003</ele><time>2026-04-26T13:43:54.999Z</time></trkpt><trkpt lat="43.82985694576999" lon="11.516564373453917"><ele>439.59999999999997</ele><time>2026-04-26T13:43:55.999Z</time></trkpt><trkpt lat="43.82978717640774" lon="11.516649705679441"><ele>443.79999999999995</ele><time>2026-04-26T13:43:56.999Z</time></trkpt><trkpt lat="43.82971782389438" lon="11.516736591031739"><ele>448.0</ele><time>2026-04-26T13:43:57.999Z</time></trkpt><trkpt lat="43.829645679409055" lon="11.516836792524485"><ele>448.0</ele><time>2026-04-26T13:43:58.999Z</time></trkpt><trkpt lat="43.82956869075208" lon="11.51693360224625"><ele>447.99999999999994</ele><time>2026-04-26T13:43:59.999Z</time></trkpt><trkpt lat="43.829494412645516" lon="11.517029711446671"><ele>447.99999999999994</ele><time>2026-04-26T13:44:00.999Z</time></trkpt><trkpt lat="43.82943259385962" lon="11.517128044011374"><ele>448.0</ele><time>2026-04-26T13:44:01.999Z</time></trkpt><trkpt lat="43.82940361413769" lon="11.517247025411105"><ele>448.0</ele><time>2026-04-26T13:44:02.999Z</time></trkpt><trkpt lat="43.82940037065883" lon="11.517369088250065"><ele>450.0</ele><time>2026-04-26T13:44:03.999Z</time></trkpt><trkpt lat="43.82941144751531" lon="11.517477295942356"><ele>451.99999999999994</ele><time>2026-04-26T13:44:04.999Z</time></trkpt><trkpt lat="43.829458878436185" lon="11.517585148197576"><ele>453.99999999999994</ele><time>2026-04-26T13:44:05.999Z</time></trkpt><trkpt lat="43.82953291672149" lon="11.517671571628796"><ele>456.0</ele><time>2026-04-26T13:44:06.999Z</time></trkpt><trkpt lat="43.829616962579266" lon="11.517737237937558"><ele>458.0</ele><time>2026-04-26T13:44:07.999Z</time></trkpt><trkpt lat="43.82970238057657" lon="11.517791969321213"><ele>457.99999999999994</ele><time>2026-04-26T13:44:08.999Z</time></trkpt><trkpt lat="43.829774522477926" lon="11.517877284967076"><ele>458.0</ele><time>2026-04-26T13:44:09.999Z</time></trkpt><trkpt lat="43.829860691662326" lon="11.517930313073972"><ele>458.0</ele><time>2026-04-26T13:44:10.999Z</time></trkpt><trkpt lat="43.82991672019645" lon="11.51800426013877"><ele>458.0</ele><time>2026-04-26T13:44:11.999Z</time></trkpt><trkpt lat="43.82994737439544" lon="11.51808827423413"><ele>457.99999999999994</ele><time>2026-04-26T13:44:12.999Z</time></trkpt><trkpt lat="43.82996716058624" lon="11.518192002338292"><ele>458.0</ele><time>2026-04-26T13:44:13.999Z</time></trkpt><trkpt lat="43.82996396462878" lon="11.518280053810747"><ele>458.2</ele><time>2026-04-26T13:44:14.999Z</time></trkpt><trkpt lat="43.82994896988077" lon="11.518427828525619"><ele>458.4</ele><time>2026-04-26T13:44:16.999Z</time></trkpt><trkpt lat="43.829942247477184" lon="11.51853528532377"><ele>458.59999999999997</ele><time>2026-04-26T13:44:18.999Z</time></trkpt><trkpt lat="43.829943699888204" lon="11.518638312431083"><ele>458.79999999999995</ele><time>2026-04-26T13:44:31.999Z</time></trkpt><trkpt lat="43.82995121805769" lon="11.518800299752739"><ele>459.0</ele><time>2026-04-26T13:44:33.999Z</time></trkpt><trkpt lat="43.82993676371059" lon="11.518902984177275"><ele>459.6666666666667</ele><time>2026-04-26T13:44:34.999Z</time></trkpt><trkpt lat="43.82989399360996" lon="11.518990829692783"><ele>460.33333333333337</ele><time>2026-04-26T13:44:35.999Z</time></trkpt><trkpt lat="43.82982300951833" lon="11.519048786814812"><ele>461.0</ele><time>2026-04-26T13:44:36.999Z</time></trkpt><trkpt lat="43.82974322060817" lon="11.519081630614073"><ele>461.6666666666667</ele><time>2026-04-26T13:44:37.999Z</time></trkpt><trkpt lat="43.82966538170157" lon="11.519130127492485"><ele>462.33333333333337</ele><time>2026-04-26T13:44:38.999Z</time></trkpt><trkpt lat="43.82959497443691" lon="11.519210588767283"><ele>463.0</ele><time>2026-04-26T13:44:39.999Z</time></trkpt><trkpt lat="43.82953554471995" lon="11.519317727884733"><ele>463.0</ele><time>2026-04-26T13:44:40.999Z</time></trkpt><trkpt lat="43.82949952682059" lon="11.519446010024769"><ele>462.99999999999994</ele><time>2026-04-26T13:44:41.999Z</time></trkpt><trkpt lat="43.82948642221945" lon="11.519591025532023"><ele>462.99999999999994</ele><time>2026-04-26T13:44:42.999Z</time></trkpt><trkpt lat="43.829491536768614" lon="11.51974711338053"><ele>463.0</ele><time>2026-04-26T13:44:43.999Z</time></trkpt><trkpt lat="43.8295094123258" lon="11.519897802433169"><ele>463.0</ele><time>2026-04-26T13:44:44.999Z</time></trkpt><trkpt lat="43.829536860599944" lon="11.520050725441417"><ele>464.5</ele><time>2026-04-26T13:44:45.999Z</time></trkpt><trkpt lat="43.82956673728517" lon="11.520211714956197"><ele>466.0</ele><time>2026-04-26T13:44:46.999Z</time></trkpt><trkpt lat="43.82959575068006" lon="11.520381684467878"><ele>467.5</ele><time>2026-04-26T13:44:47.999Z</time></trkpt><trkpt lat="43.829634367721006" lon="11.520556183655653"><ele>469.0</ele><time>2026-04-26T13:44:48.999Z</time></trkpt><trkpt lat="43.82970471043649" lon="11.520700088842478"><ele>469.0</ele><time>2026-04-26T13:44:49.999Z</time></trkpt><trkpt lat="43.82978926057272" lon="11.520852354187948"><ele>469.0</ele><time>2026-04-26T13:44:50.999Z</time></trkpt><trkpt lat="43.82987280710656" lon="11.520982222935153"><ele>469.0</ele><time>2026-04-26T13:44:51.999Z</time></trkpt><trkpt lat="43.82994704630028" lon="11.521100257270437"><ele>469.0</ele><time>2026-04-26T13:44:52.999Z</time></trkpt><trkpt lat="43.82999009259075" lon="11.521229567039272"><ele>468.0</ele><time>2026-04-26T13:44:53.999Z</time></trkpt><trkpt lat="43.830024443032336" lon="11.521337871280716"><ele>467.0</ele><time>2026-04-26T13:44:54.999Z</time></trkpt><trkpt lat="43.82998702758526" lon="11.521449713151775"><ele>466.0</ele><time>2026-04-26T13:44:55.999Z</time></trkpt><trkpt lat="43.82992841969105" lon="11.521555163654691"><ele>465.0</ele><time>2026-04-26T13:44:56.999Z</time></trkpt><trkpt lat="43.829874351019264" lon="11.521694529164147"><ele>464.0</ele><time>2026-04-26T13:44:57.999Z</time></trkpt><trkpt lat="43.82984537892398" lon="11.521825851180083"><ele>464.0</ele><time>2026-04-26T13:44:58.999Z</time></trkpt><trkpt lat="43.829872777413264" lon="11.521959764531562"><ele>464.0</ele><time>2026-04-26T13:44:59.999Z</time></trkpt><trkpt lat="43.82991772048707" lon="11.522087145287943"><ele>464.0</ele><time>2026-04-26T13:45:00.999Z</time></trkpt><trkpt lat="43.829984614313055" lon="11.522213196340081"><ele>464.0</ele><time>2026-04-26T13:45:01.999Z</time></trkpt><trkpt lat="43.83005974413004" lon="11.522342167473147"><ele>464.0</ele><time>2026-04-26T13:45:02.999Z</time></trkpt><trkpt lat="43.83013286202017" lon="11.522471059542593"><ele>465.25</ele><time>2026-04-26T13:45:03.999Z</time></trkpt><trkpt lat="43.83020773170244" lon="11.522604949652282"><ele>466.5</ele><time>2026-04-26T13:45:04.999Z</time></trkpt><trkpt lat="43.8302910598343" lon="11.522737754357282"><ele>467.75</ele><time>2026-04-26T13:45:05.999Z</time></trkpt><trkpt lat="43.830399221699224" lon="11.522836807007744"><ele>469.0</ele><time>2026-04-26T13:45:06.999Z</time></trkpt><trkpt lat="43.8305261619802" lon="11.522928017960133"><ele>469.0</ele><time>2026-04-26T13:45:07.999Z</time></trkpt><trkpt lat="43.83065459430974" lon="11.523007886525505"><ele>469.0</ele><time>2026-04-26T13:45:08.999Z</time></trkpt><trkpt lat="43.83078706766066" lon="11.523097818790676"><ele>469.0</ele><time>2026-04-26T13:45:09.999Z</time></trkpt><trkpt lat="43.830914054666216" lon="11.523188446994672"><ele>469.0</ele><time>2026-04-26T13:45:10.999Z</time></trkpt><trkpt lat="43.83102799509178" lon="11.523266320522856"><ele>474.0</ele><time>2026-04-26T13:45:11.999Z</time></trkpt><trkpt lat="43.831112453881666" lon="11.523344138546463"><ele>479.0</ele><time>2026-04-26T13:45:12.999Z</time></trkpt><trkpt lat="43.83116890981701" lon="11.523452664048605"><ele>484.0</ele><time>2026-04-26T13:45:13.999Z</time></trkpt><trkpt lat="43.8311899391421" lon="11.52357657782017"><ele>489.0</ele><time>2026-04-26T13:45:14.999Z</time></trkpt><trkpt lat="43.83115435627399" lon="11.523705746864525"><ele>494.0</ele><time>2026-04-26T13:45:15.999Z</time></trkpt><trkpt lat="43.8311006281124" lon="11.523822979954529"><ele>494.0</ele><time>2026-04-26T13:45:16.999Z</time></trkpt><trkpt lat="43.831026219994136" lon="11.523943880340477"><ele>494.0</ele><time>2026-04-26T13:45:17.999Z</time></trkpt><trkpt lat="43.830952551578065" lon="11.524094535391251"><ele>494.0</ele><time>2026-04-26T13:45:18.999Z</time></trkpt><trkpt lat="43.830860988521685" lon="11.524244616129579"><ele>494.0</ele><time>2026-04-26T13:45:19.999Z</time></trkpt><trkpt lat="43.83076264205396" lon="11.524420333513984"><ele>491.0</ele><time>2026-04-26T13:45:20.999Z</time></trkpt><trkpt lat="43.83066385253961" lon="11.524601710577414"><ele>488.0</ele><time>2026-04-26T13:45:21.999Z</time></trkpt><trkpt lat="43.83056782694064" lon="11.524775094315846"><ele>485.0</ele><time>2026-04-26T13:45:22.999Z</time></trkpt><trkpt lat="43.83046957758231" lon="11.524946732569527"><ele>485.0</ele><time>2026-04-26T13:45:23.999Z</time></trkpt><trkpt lat="43.83036982529305" lon="11.525109474326657"><ele>485.0</ele><time>2026-04-26T13:45:24.999Z</time></trkpt><trkpt lat="43.83026717548363" lon="11.52524082132532"><ele>485.0</ele><time>2026-04-26T13:45:25.999Z</time></trkpt><trkpt lat="43.830199093223364" lon="11.525416245134796"><ele>485.0</ele><time>2026-04-26T13:45:26.999Z</time></trkpt><trkpt lat="43.830128616916696" lon="11.525576295155696"><ele>481.5</ele><time>2026-04-26T13:45:27.999Z</time></trkpt><trkpt lat="43.830082189651435" lon="11.525748903757222"><ele>478.0</ele><time>2026-04-26T13:45:28.999Z</time></trkpt><trkpt lat="43.830022092913055" lon="11.525904761330134"><ele>474.5</ele><time>2026-04-26T13:45:29.999Z</time></trkpt><trkpt lat="43.829986964626976" lon="11.526053798764055"><ele>471.0</ele><time>2026-04-26T13:45:30.999Z</time></trkpt><trkpt lat="43.829956208149" lon="11.526185463036775"><ele>471.6</ele><time>2026-04-26T13:45:31.999Z</time></trkpt><trkpt lat="43.82994275580789" lon="11.526311597600623"><ele>472.20000000000005</ele><time>2026-04-26T13:45:32.999Z</time></trkpt><trkpt lat="43.82997190452943" lon="11.526418219423872"><ele>472.79999999999995</ele><time>2026-04-26T13:45:33.999Z</time></trkpt><trkpt lat="43.83002425194663" lon="11.526529567016928"><ele>473.4</ele><time>2026-04-26T13:45:34.999Z</time></trkpt><trkpt lat="43.83009561795096" lon="11.526644542043325"><ele>474.0</ele><time>2026-04-26T13:45:35.999Z</time></trkpt><trkpt lat="43.83015847694989" lon="11.526772923512366"><ele>480.0</ele><time>2026-04-26T13:45:36.999Z</time></trkpt><trkpt lat="43.83021137455571" lon="11.526927008923801"><ele>486.0</ele><time>2026-04-26T13:45:37.999Z</time></trkpt><trkpt lat="43.8302230820759" lon="11.527107919134611"><ele>492.0</ele><time>2026-04-26T13:45:38.999Z</time></trkpt><trkpt lat="43.83025848574647" lon="11.527294272899521"><ele>498.0</ele><time>2026-04-26T13:45:39.999Z</time></trkpt><trkpt lat="43.83027837222255" lon="11.527486047356529"><ele>498.0</ele><time>2026-04-26T13:45:40.999Z</time></trkpt><trkpt lat="43.83030084669721" lon="11.527672053519844"><ele>498.0</ele><time>2026-04-26T13:45:41.999Z</time></trkpt><trkpt lat="43.830325329717205" lon="11.527858711832256"><ele>498.0</ele><time>2026-04-26T13:45:42.999Z</time></trkpt><trkpt lat="43.83032673547934" lon="11.528052904462836"><ele>498.0</ele><time>2026-04-26T13:45:43.999Z</time></trkpt><trkpt lat="43.830322858680255" lon="11.528243954534128"><ele>498.25</ele><time>2026-04-26T13:45:44.999Z</time></trkpt><trkpt lat="43.830331367792404" lon="11.528436245079982"><ele>498.5</ele><time>2026-04-26T13:45:45.999Z</time></trkpt><trkpt lat="43.8303201725725" lon="11.528615566014246"><ele>498.75</ele><time>2026-04-26T13:45:46.999Z</time></trkpt><trkpt lat="43.83030947997891" lon="11.528782489047739"><ele>499.0</ele><time>2026-04-26T13:45:47.999Z</time></trkpt><trkpt lat="43.830278313569224" lon="11.528933171469202"><ele>499.0</ele><time>2026-04-26T13:45:48.999Z</time></trkpt><trkpt lat="43.83024599391743" lon="11.529082764867185"><ele>499.0</ele><time>2026-04-26T13:45:49.999Z</time></trkpt><trkpt lat="43.83014983719799" lon="11.529183505985229"><ele>499.0</ele><time>2026-04-26T13:45:50.999Z</time></trkpt><trkpt lat="43.83004421260181" lon="11.529236235308497"><ele>499.0</ele><time>2026-04-26T13:45:51.999Z</time></trkpt><trkpt lat="43.82993614406368" lon="11.529293220712926"><ele>498.2</ele><time>2026-04-26T13:45:52.999Z</time></trkpt><trkpt lat="43.82983785888055" lon="11.52936428053637"><ele>497.4</ele><time>2026-04-26T13:45:53.999Z</time></trkpt><trkpt lat="43.82974704510385" lon="11.529415128050536"><ele>496.6</ele><time>2026-04-26T13:45:54.999Z</time></trkpt><trkpt lat="43.82967073099717" lon="11.529482499923407"><ele>495.8</ele><time>2026-04-26T13:45:55.999Z</time></trkpt><trkpt lat="43.82961398987918" lon="11.529585479988958"><ele>495.0</ele><time>2026-04-26T13:45:56.999Z</time></trkpt><trkpt lat="43.82957071454101" lon="11.52971809174285"><ele>495.0</ele><time>2026-04-26T13:45:57.999Z</time></trkpt><trkpt lat="43.82952990634447" lon="11.529870326749307"><ele>495.0</ele><time>2026-04-26T13:45:58.999Z</time></trkpt><trkpt lat="43.82949075741616" lon="11.530032889842067"><ele>495.0</ele><time>2026-04-26T13:45:59.999Z</time></trkpt><trkpt lat="43.8294523436012" lon="11.530193515271856"><ele>495.0</ele><time>2026-04-26T13:46:00.999Z</time></trkpt><trkpt lat="43.82940950819013" lon="11.530340006085328"><ele>495.75</ele><time>2026-04-26T13:46:01.999Z</time></trkpt><trkpt lat="43.82937191909273" lon="11.53048344190758"><ele>496.5</ele><time>2026-04-26T13:46:02.999Z</time></trkpt><trkpt lat="43.829335247715974" lon="11.530628387465491"><ele>497.25</ele><time>2026-04-26T13:46:03.999Z</time></trkpt><trkpt lat="43.82935914948561" lon="11.530792480237437"><ele>498.0</ele><time>2026-04-26T13:46:04.999Z</time></trkpt><trkpt lat="43.82937557342263" lon="11.530957551256508"><ele>498.0</ele><time>2026-04-26T13:46:05.999Z</time></trkpt><trkpt lat="43.829376903216456" lon="11.531128792935615"><ele>498.0</ele><time>2026-04-26T13:46:06.999Z</time></trkpt><trkpt lat="43.8293696838682" lon="11.531291553814105"><ele>498.0</ele><time>2026-04-26T13:46:07.999Z</time></trkpt><trkpt lat="43.829340990874336" lon="11.531441892899904"><ele>498.0</ele><time>2026-04-26T13:46:08.999Z</time></trkpt><trkpt lat="43.82929292677829" lon="11.531580996311975"><ele>496.75</ele><time>2026-04-26T13:46:09.999Z</time></trkpt><trkpt lat="43.82923888663563" lon="11.5317351249193"><ele>495.5</ele><time>2026-04-26T13:46:10.999Z</time></trkpt><trkpt lat="43.82918091685309" lon="11.531899404488383"><ele>494.25</ele><time>2026-04-26T13:46:11.999Z</time></trkpt><trkpt lat="43.829116984785344" lon="11.532074077770375"><ele>493.0</ele><time>2026-04-26T13:46:12.999Z</time></trkpt><trkpt lat="43.82905728270806" lon="11.532263122783332"><ele>493.0</ele><time>2026-04-26T13:46:13.999Z</time></trkpt><trkpt lat="43.828990385550256" lon="11.532454401522743"><ele>493.0</ele><time>2026-04-26T13:46:14.999Z</time></trkpt><trkpt lat="43.828904009450255" lon="11.532631182958012"><ele>493.0</ele><time>2026-04-26T13:46:15.999Z</time></trkpt><trkpt lat="43.828835991690525" lon="11.532806692474667"><ele>493.0</ele><time>2026-04-26T13:46:16.999Z</time></trkpt><trkpt lat="43.828786301283955" lon="11.532978956279177"><ele>492.99999999999994</ele><time>2026-04-26T13:46:17.999Z</time></trkpt><trkpt lat="43.828727233636165" lon="11.53312200159066"><ele>492.99999999999994</ele><time>2026-04-26T13:46:18.999Z</time></trkpt><trkpt lat="43.828683651979105" lon="11.533257471410497"><ele>493.0</ele><time>2026-04-26T13:46:19.999Z</time></trkpt><trkpt lat="43.82864998131427" lon="11.533368379123738"><ele>493.0</ele><time>2026-04-26T13:46:20.999Z</time></trkpt><trkpt lat="43.82866795094271" lon="11.53348329232531"><ele>493.0</ele><time>2026-04-26T13:46:21.999Z</time></trkpt><trkpt lat="43.82874460627589" lon="11.533589338717322"><ele>492.99999999999994</ele><time>2026-04-26T13:46:22.999Z</time></trkpt><trkpt lat="43.828807859947275" lon="11.53369228763153"><ele>492.99999999999994</ele><time>2026-04-26T13:46:23.999Z</time></trkpt><trkpt lat="43.82883492676544" lon="11.53382635324041"><ele>493.0</ele><time>2026-04-26T13:46:24.999Z</time></trkpt><trkpt lat="43.82887335904422" lon="11.533948596654493"><ele>493.0</ele><time>2026-04-26T13:46:25.999Z</time></trkpt><trkpt lat="43.82889874783249" lon="11.534052138469843"><ele>494.0</ele><time>2026-04-26T13:46:27Z</time></trkpt><trkpt lat="43.8289150011613" lon="11.534150813532106"><ele>494.99999999999994</ele><time>2026-04-26T13:46:28Z</time></trkpt><trkpt lat="43.82884928354717" lon="11.53424514452482"><ele>495.99999999999994</ele><time>2026-04-26T13:46:29Z</time></trkpt><trkpt lat="43.82880175337176" lon="11.534379662081687"><ele>497.0</ele><time>2026-04-26T13:46:30Z</time></trkpt><trkpt lat="43.82874937047954" lon="11.53453597783596"><ele>498.0</ele><time>2026-04-26T13:46:31Z</time></trkpt><trkpt lat="43.82869639735084" lon="11.534711902403142"><ele>500.5</ele><time>2026-04-26T13:46:32Z</time></trkpt><trkpt lat="43.82862984434477" lon="11.53487875574271"><ele>503.0</ele><time>2026-04-26T13:46:33Z</time></trkpt><trkpt lat="43.82856200325182" lon="11.535036798972326"><ele>505.5</ele><time>2026-04-26T13:46:34Z</time></trkpt><trkpt lat="43.828497609717594" lon="11.535187785266467"><ele>508.0</ele><time>2026-04-26T13:46:35Z</time></trkpt><trkpt lat="43.82843668763863" lon="11.535331737302203"><ele>506.2</ele><time>2026-04-26T13:46:36Z</time></trkpt><trkpt lat="43.82838513399455" lon="11.535464698929529"><ele>504.4</ele><time>2026-04-26T13:46:37Z</time></trkpt><trkpt lat="43.82833629442876" lon="11.535581454448755"><ele>502.59999999999997</ele><time>2026-04-26T13:46:38Z</time></trkpt><trkpt lat="43.82828542001083" lon="11.535674763302385"><ele>500.79999999999995</ele><time>2026-04-26T13:46:39Z</time></trkpt><trkpt lat="43.828215572505954" lon="11.535724148040494"><ele>499.0</ele><time>2026-04-26T13:46:40Z</time></trkpt><trkpt lat="43.82812781881845" lon="11.535687731929793"><ele>499.0</ele><time>2026-04-26T13:46:41Z</time></trkpt><trkpt lat="43.82802468901888" lon="11.535703382525748"><ele>499.0</ele><time>2026-04-26T13:46:42Z</time></trkpt><trkpt lat="43.82792468145184" lon="11.535695388401225"><ele>499.0</ele><time>2026-04-26T13:46:43Z</time></trkpt><trkpt lat="43.8278262325051" lon="11.535725458847196"><ele>499.0</ele><time>2026-04-26T13:46:44Z</time></trkpt><trkpt lat="43.8277442337772" lon="11.535811295828774"><ele>499.0</ele><time>2026-04-26T13:46:45Z</time></trkpt><trkpt lat="43.827669784395304" lon="11.535922497256227"><ele>499.0</ele><time>2026-04-26T13:46:46Z</time></trkpt><trkpt lat="43.82759730217421" lon="11.536051135964499"><ele>499.0</ele><time>2026-04-26T13:46:47Z</time></trkpt><trkpt lat="43.82751313843836" lon="11.536178144972084"><ele>499.0</ele><time>2026-04-26T13:46:48Z</time></trkpt><trkpt lat="43.82741084754936" lon="11.536331868613335"><ele>499.0</ele><time>2026-04-26T13:46:49Z</time></trkpt><trkpt lat="43.827291176074134" lon="11.536503727187101"><ele>499.0</ele><time>2026-04-26T13:46:50Z</time></trkpt><trkpt lat="43.82716619481547" lon="11.536660306770104"><ele>499.0</ele><time>2026-04-26T13:46:51Z</time></trkpt><trkpt lat="43.82704997212877" lon="11.53681605027683"><ele>499.0</ele><time>2026-04-26T13:46:52Z</time></trkpt><trkpt lat="43.82694062659632" lon="11.536975685366768"><ele>497.33333333333337</ele><time>2026-04-26T13:46:53Z</time></trkpt><trkpt lat="43.82683716483592" lon="11.537135704862823"><ele>495.66666666666663</ele><time>2026-04-26T13:46:54Z</time></trkpt><trkpt lat="43.82673464709753" lon="11.537290489634833"><ele>494.0</ele><time>2026-04-26T13:46:55Z</time></trkpt><trkpt lat="43.8266376923714" lon="11.537438068880368"><ele>494.0</ele><time>2026-04-26T13:46:56Z</time></trkpt><trkpt lat="43.82655193341847" lon="11.537577285866643"><ele>494.0</ele><time>2026-04-26T13:46:57Z</time></trkpt><trkpt lat="43.82646916099219" lon="11.537707416129571"><ele>494.0</ele><time>2026-04-26T13:46:58Z</time></trkpt><trkpt lat="43.82639948806987" lon="11.537820730114005"><ele>494.0</ele><time>2026-04-26T13:46:59Z</time></trkpt><trkpt lat="43.826345572109524" lon="11.537916211578766"><ele>497.6</ele><time>2026-04-26T13:47:00Z</time></trkpt><trkpt lat="43.82629973566336" lon="11.538008110327615"><ele>501.2</ele><time>2026-04-26T13:47:01Z</time></trkpt><trkpt lat="43.82625502075277" lon="11.538109661531985"><ele>504.80000000000007</ele><time>2026-04-26T13:47:02Z</time></trkpt><trkpt lat="43.82620517117937" lon="11.538226719153641"><ele>508.40000000000003</ele><time>2026-04-26T13:47:03Z</time></trkpt><trkpt lat="43.826148656297306" lon="11.538356632281891"><ele>512.0</ele><time>2026-04-26T13:47:04Z</time></trkpt><trkpt lat="43.826089744276075" lon="11.53849194349069"><ele>512.0</ele><time>2026-04-26T13:47:05Z</time></trkpt><trkpt lat="43.826028698782494" lon="11.53862082234655"><ele>512.0</ele><time>2026-04-26T13:47:06Z</time></trkpt><trkpt lat="43.82597035958343" lon="11.538739741466914"><ele>512.0</ele><time>2026-04-26T13:47:07Z</time></trkpt><trkpt lat="43.82591703028759" lon="11.538867820307708"><ele>512.0</ele><time>2026-04-26T13:47:08Z</time></trkpt><trkpt lat="43.8258715281989" lon="11.539000714943429"><ele>512.0</ele><time>2026-04-26T13:47:09Z</time></trkpt><trkpt lat="43.82584506784193" lon="11.53914460102108"><ele>512.6</ele><time>2026-04-26T13:47:10Z</time></trkpt><trkpt lat="43.82580116422263" lon="11.539272830428432"><ele>513.2</ele><time>2026-04-26T13:47:11Z</time></trkpt><trkpt lat="43.82576677651748" lon="11.53939428804618"><ele>513.8</ele><time>2026-04-26T13:47:12Z</time></trkpt><trkpt lat="43.82571429161177" lon="11.539484040613015"><ele>514.4</ele><time>2026-04-26T13:47:13Z</time></trkpt><trkpt lat="43.825608524559556" lon="11.539494512001701"><ele>515.0</ele><time>2026-04-26T13:47:14Z</time></trkpt><trkpt lat="43.82552947287125" lon="11.53957874137221"><ele>515.0</ele><time>2026-04-26T13:47:15Z</time></trkpt><trkpt lat="43.825451871530376" lon="11.539687260015661"><ele>515.0</ele><time>2026-04-26T13:47:16Z</time></trkpt><trkpt lat="43.825381942900684" lon="11.539833804832712"><ele>515.0</ele><time>2026-04-26T13:47:17Z</time></trkpt><trkpt lat="43.8253080288895" lon="11.539997046713994"><ele>515.0</ele><time>2026-04-26T13:47:18Z</time></trkpt><trkpt lat="43.82520983124892" lon="11.540155603207603"><ele>513.75</ele><time>2026-04-26T13:47:19Z</time></trkpt><trkpt lat="43.82512089875825" lon="11.540323588530303"><ele>512.5</ele><time>2026-04-26T13:47:20Z</time></trkpt><trkpt lat="43.825049919378586" lon="11.54050729139476"><ele>511.25</ele><time>2026-04-26T13:47:21Z</time></trkpt><trkpt lat="43.82498127911071" lon="11.540685306577497"><ele>510.0</ele><time>2026-04-26T13:47:22Z</time></trkpt><trkpt lat="43.82488700978776" lon="11.54084259137627"><ele>510.0</ele><time>2026-04-26T13:47:23Z</time></trkpt><trkpt lat="43.8248126559434" lon="11.541016672906391"><ele>510.0</ele><time>2026-04-26T13:47:24Z</time></trkpt><trkpt lat="43.82472734875554" lon="11.541169071007255"><ele>510.0</ele><time>2026-04-26T13:47:25Z</time></trkpt><trkpt lat="43.82462783326841" lon="11.541290191761226"><ele>510.0</ele><time>2026-04-26T13:47:26Z</time></trkpt><trkpt lat="43.824523248522596" lon="11.541403927259116"><ele>509.5</ele><time>2026-04-26T13:47:27Z</time></trkpt><trkpt lat="43.8244053355586" lon="11.541514361987465"><ele>509.0</ele><time>2026-04-26T13:47:28Z</time></trkpt><trkpt lat="43.82428290976569" lon="11.541629159455253"><ele>508.5</ele><time>2026-04-26T13:47:29Z</time></trkpt><trkpt lat="43.824158633652424" lon="11.541742418424457"><ele>508.0</ele><time>2026-04-26T13:47:30Z</time></trkpt><trkpt lat="43.82403146137039" lon="11.541858162929804"><ele>508.0</ele><time>2026-04-26T13:47:31Z</time></trkpt><trkpt lat="43.823903666260605" lon="11.541974473955753"><ele>508.0</ele><time>2026-04-26T13:47:32Z</time></trkpt><trkpt lat="43.823777880401565" lon="11.542088956706023"><ele>508.0</ele><time>2026-04-26T13:47:33Z</time></trkpt><trkpt lat="43.82366214068323" lon="11.542218530942813"><ele>508.75</ele><time>2026-04-26T13:47:34Z</time></trkpt><trkpt lat="43.82354053458497" lon="11.542330322763894"><ele>509.5</ele><time>2026-04-26T13:47:35Z</time></trkpt><trkpt lat="43.82341950923872" lon="11.542440966495512"><ele>510.25</ele><time>2026-04-26T13:47:36Z</time></trkpt><trkpt lat="43.823303715142835" lon="11.54256489391214"><ele>511.0</ele><time>2026-04-26T13:47:37Z</time></trkpt><trkpt lat="43.82319823400241" lon="11.542726924791143"><ele>515.3333333333334</ele><time>2026-04-26T13:47:38Z</time></trkpt><trkpt lat="43.823099725747745" lon="11.542914160431131"><ele>519.6666666666666</ele><time>2026-04-26T13:47:39Z</time></trkpt><trkpt lat="43.82297731970958" lon="11.543080756460874"><ele>524.0</ele><time>2026-04-26T13:47:40Z</time></trkpt><trkpt lat="43.822861486031684" lon="11.543237982675006"><ele>524.0</ele><time>2026-04-26T13:47:41Z</time></trkpt><trkpt lat="43.82273852727789" lon="11.543377638936207"><ele>524.0</ele><time>2026-04-26T13:47:42Z</time></trkpt><trkpt lat="43.82261186652085" lon="11.543516331267533"><ele>524.0</ele><time>2026-04-26T13:47:43Z</time></trkpt><trkpt lat="43.822484269178666" lon="11.543656071201555"><ele>523.3333333333333</ele><time>2026-04-26T13:47:44Z</time></trkpt><trkpt lat="43.82236919108218" lon="11.543812443239487"><ele>522.6666666666666</ele><time>2026-04-26T13:47:45Z</time></trkpt><trkpt lat="43.82225377679563" lon="11.543951120848385"><ele>522.0</ele><time>2026-04-26T13:47:46Z</time></trkpt><trkpt lat="43.82214342105019" lon="11.544087626614226"><ele>522.0</ele><time>2026-04-26T13:47:47Z</time></trkpt><trkpt lat="43.82204237324693" lon="11.544232053593543"><ele>522.0</ele><time>2026-04-26T13:47:48Z</time></trkpt><trkpt lat="43.82193870597212" lon="11.544380333943822"><ele>522.0</ele><time>2026-04-26T13:47:49Z</time></trkpt><trkpt lat="43.821839251522846" lon="11.544531564368619"><ele>522.0</ele><time>2026-04-26T13:47:50Z</time></trkpt><trkpt lat="43.821741917347474" lon="11.544681899694552"><ele>522.0</ele><time>2026-04-26T13:47:51Z</time></trkpt><trkpt lat="43.821643060380346" lon="11.544833655049985"><ele>522.0</ele><time>2026-04-26T13:47:52Z</time></trkpt><trkpt lat="43.82155684466402" lon="11.54500070007181"><ele>522.0</ele><time>2026-04-26T13:47:53Z</time></trkpt><trkpt lat="43.82147190141504" lon="11.545169119794464"><ele>522.0</ele><time>2026-04-26T13:47:54Z</time></trkpt><trkpt lat="43.82138738884996" lon="11.545340076558565"><ele>527.0</ele><time>2026-04-26T13:47:55Z</time></trkpt><trkpt lat="43.82130104413545" lon="11.545507692812293"><ele>532.0</ele><time>2026-04-26T13:47:56Z</time></trkpt><trkpt lat="43.82121232862045" lon="11.545677340334434"><ele>537.0</ele><time>2026-04-26T13:47:57Z</time></trkpt><trkpt lat="43.821123739695004" lon="11.545849723835016"><ele>537.0</ele><time>2026-04-26T13:47:58Z</time></trkpt><trkpt lat="43.82103431664644" lon="11.546018859763228"><ele>537.0</ele><time>2026-04-26T13:47:59Z</time></trkpt><trkpt lat="43.8209491014731" lon="11.546191393988767"><ele>537.0</ele><time>2026-04-26T13:48:00Z</time></trkpt><trkpt lat="43.82085143510591" lon="11.546346570737354"><ele>537.5</ele><time>2026-04-26T13:48:01Z</time></trkpt><trkpt lat="43.82077359799151" lon="11.546497468649886"><ele>538.0</ele><time>2026-04-26T13:48:02Z</time></trkpt><trkpt lat="43.820697525562736" lon="11.546636671154335"><ele>538.5</ele><time>2026-04-26T13:48:03Z</time></trkpt><trkpt lat="43.8206354537369" lon="11.546761845965518"><ele>539.0</ele><time>2026-04-26T13:48:04Z</time></trkpt><trkpt lat="43.82053957421774" lon="11.54681008328788"><ele>539.0</ele><time>2026-04-26T13:48:05Z</time></trkpt><trkpt lat="43.820449834679565" lon="11.546808769445539"><ele>539.0</ele><time>2026-04-26T13:48:06Z</time></trkpt><trkpt lat="43.820357295906106" lon="11.546771143059349"><ele>539.0</ele><time>2026-04-26T13:48:07Z</time></trkpt><trkpt lat="43.820249362183056" lon="11.54673280047717"><ele>539.0</ele><time>2026-04-26T13:48:08Z</time></trkpt><trkpt lat="43.82012839919049" lon="11.54669174647428"><ele>539.0</ele><time>2026-04-26T13:48:09Z</time></trkpt><trkpt lat="43.820000634594095" lon="11.546669426154166"><ele>538.25</ele><time>2026-04-26T13:48:10Z</time></trkpt><trkpt lat="43.81987741922476" lon="11.546607443591085"><ele>537.5</ele><time>2026-04-26T13:48:11Z</time></trkpt><trkpt lat="43.81974959525046" lon="11.546561003050734"><ele>536.75</ele><time>2026-04-26T13:48:12Z</time></trkpt><trkpt lat="43.81961923106675" lon="11.546519151172019"><ele>536.0</ele><time>2026-04-26T13:48:13Z</time></trkpt><trkpt lat="43.819493026650825" lon="11.546504080820684"><ele>536.0</ele><time>2026-04-26T13:48:14Z</time></trkpt><trkpt lat="43.81936954469553" lon="11.546461019333202"><ele>536.0</ele><time>2026-04-26T13:48:15Z</time></trkpt><trkpt lat="43.81924048739553" lon="11.546449242610171"><ele>536.0</ele><time>2026-04-26T13:48:16Z</time></trkpt><trkpt lat="43.81911025794499" lon="11.546439014599626"><ele>536.0</ele><time>2026-04-26T13:48:17Z</time></trkpt><trkpt lat="43.81898227187923" lon="11.546424158248096"><ele>535.25</ele><time>2026-04-26T13:48:18Z</time></trkpt><trkpt lat="43.81886498071395" lon="11.54639790362976"><ele>534.5</ele><time>2026-04-26T13:48:19Z</time></trkpt><trkpt lat="43.81876250092939" lon="11.54633382978606"><ele>533.75</ele><time>2026-04-26T13:48:20Z</time></trkpt><trkpt lat="43.818682528271076" lon="11.546213589814132"><ele>533.0</ele><time>2026-04-26T13:48:21Z</time></trkpt><trkpt lat="43.818629493329645" lon="11.546070870327839"><ele>533.0</ele><time>2026-04-26T13:48:22Z</time></trkpt><trkpt lat="43.818568807870065" lon="11.545919834461692"><ele>533.0</ele><time>2026-04-26T13:48:23Z</time></trkpt><trkpt lat="43.818512643800204" lon="11.545759797275569"><ele>533.0</ele><time>2026-04-26T13:48:24Z</time></trkpt><trkpt lat="43.81846119110789" lon="11.545587322517807"><ele>533.0</ele><time>2026-04-26T13:48:25Z</time></trkpt><trkpt lat="43.81841184883154" lon="11.545410588939347"><ele>534.8</ele><time>2026-04-26T13:48:26Z</time></trkpt><trkpt lat="43.818365543508406" lon="11.545253184226778"><ele>536.5999999999999</ele><time>2026-04-26T13:48:27Z</time></trkpt><trkpt lat="43.81832409187048" lon="11.545121226184278"><ele>538.4000000000001</ele><time>2026-04-26T13:48:28Z</time></trkpt><trkpt lat="43.81828223289615" lon="11.54500883550854"><ele>540.2</ele><time>2026-04-26T13:48:29Z</time></trkpt><trkpt lat="43.818237895818484" lon="11.544920502110175"><ele>542.0</ele><time>2026-04-26T13:48:30Z</time></trkpt><trkpt lat="43.818155007838" lon="11.54488497604284"><ele>542.0</ele><time>2026-04-26T13:48:31Z</time></trkpt><trkpt lat="43.818075233088344" lon="11.544889909619585"><ele>542.0</ele><time>2026-04-26T13:48:32Z</time></trkpt><trkpt lat="43.81800452890956" lon="11.544959332681488"><ele>542.0</ele><time>2026-04-26T13:48:33Z</time></trkpt><trkpt lat="43.817961722052075" lon="11.54507943208386"><ele>542.0</ele><time>2026-04-26T13:48:34Z</time></trkpt><trkpt lat="43.8179338105812" lon="11.545214526915634"><ele>542.0</ele><time>2026-04-26T13:48:35Z</time></trkpt><trkpt lat="43.81790200645962" lon="11.545349567680322"><ele>542.4</ele><time>2026-04-26T13:48:36Z</time></trkpt><trkpt lat="43.81787242762932" lon="11.545499406463822"><ele>542.8000000000001</ele><time>2026-04-26T13:48:37Z</time></trkpt><trkpt lat="43.817852459870224" lon="11.545645386038824"><ele>543.2</ele><time>2026-04-26T13:48:38Z</time></trkpt><trkpt lat="43.817838157588504" lon="11.545794614090362"><ele>543.6</ele><time>2026-04-26T13:48:39Z</time></trkpt><trkpt lat="43.81786080996747" lon="11.54595639331555"><ele>544.0</ele><time>2026-04-26T13:48:40Z</time></trkpt><trkpt lat="43.81792139257339" lon="11.546103319029122"><ele>546.0</ele><time>2026-04-26T13:48:41Z</time></trkpt><trkpt lat="43.817972861866494" lon="11.54626173045816"><ele>548.0</ele><time>2026-04-26T13:48:42Z</time></trkpt><trkpt lat="43.818030562258286" lon="11.54641199608782"><ele>550.0</ele><time>2026-04-26T13:48:43Z</time></trkpt><trkpt lat="43.81809460670593" lon="11.546558938940333"><ele>552.0</ele><time>2026-04-26T13:48:44Z</time></trkpt><trkpt lat="43.81815312676973" lon="11.546709713143803"><ele>552.0</ele><time>2026-04-26T13:48:45Z</time></trkpt><trkpt lat="43.81821104501966" lon="11.546861725717214"><ele>552.0</ele><time>2026-04-26T13:48:46Z</time></trkpt><trkpt lat="43.818257443504315" lon="11.547014183762954"><ele>552.0</ele><time>2026-04-26T13:48:47Z</time></trkpt><trkpt lat="43.818275002044444" lon="11.547160382196926"><ele>552.0</ele><time>2026-04-26T13:48:48Z</time></trkpt><trkpt lat="43.81825900878727" lon="11.547303210942863"><ele>554.2</ele><time>2026-04-26T13:48:49Z</time></trkpt><trkpt lat="43.81820548741757" lon="11.547428605926882"><ele>556.4000000000001</ele><time>2026-04-26T13:48:50Z</time></trkpt><trkpt lat="43.81815678363353" lon="11.547561214099824"><ele>558.5999999999999</ele><time>2026-04-26T13:48:51Z</time></trkpt><trkpt lat="43.81807984238889" lon="11.547674701703285"><ele>560.8</ele><time>2026-04-26T13:48:52Z</time></trkpt><trkpt lat="43.81798474614445" lon="11.547735636136721"><ele>563.0</ele><time>2026-04-26T13:48:53Z</time></trkpt><trkpt lat="43.8178759616657" lon="11.547803058497676"><ele>563.0</ele><time>2026-04-26T13:48:54Z</time></trkpt><trkpt lat="43.81780237711987" lon="11.547768127430778"><ele>563.0</ele><time>2026-04-26T13:48:56Z</time></trkpt><trkpt lat="43.81774280321258" lon="11.547690579827043"><ele>563.0</ele><time>2026-04-26T13:48:57Z</time></trkpt><trkpt lat="43.817661790805204" lon="11.547618554559744"><ele>563.0</ele><time>2026-04-26T13:48:58Z</time></trkpt><trkpt lat="43.817567258777274" lon="11.547581965232887"><ele>563.0</ele><time>2026-04-26T13:48:59Z</time></trkpt><trkpt lat="43.81748358936832" lon="11.5475167631444"><ele>563.6</ele><time>2026-04-26T13:49:00Z</time></trkpt><trkpt lat="43.817399168686336" lon="11.54745493133309"><ele>564.1999999999999</ele><time>2026-04-26T13:49:01Z</time></trkpt><trkpt lat="43.81731446772131" lon="11.547411426294552"><ele>564.8</ele><time>2026-04-26T13:49:02Z</time></trkpt><trkpt lat="43.81722352296747" lon="11.54738669621288"><ele>565.4</ele><time>2026-04-26T13:49:02.999Z</time></trkpt><trkpt lat="43.81713473426285" lon="11.547379000109036"><ele>566.0</ele><time>2026-04-26T13:49:03.999Z</time></trkpt><trkpt lat="43.81704417577503" lon="11.547422220780323"><ele>566.0</ele><time>2026-04-26T13:49:04.999Z</time></trkpt><trkpt lat="43.81696737280369" lon="11.54749962754369"><ele>566.0</ele><time>2026-04-26T13:49:05.999Z</time></trkpt><trkpt lat="43.8168950835715" lon="11.547591961836481"><ele>566.0</ele><time>2026-04-26T13:49:06.999Z</time></trkpt><trkpt lat="43.8168170140885" lon="11.547675288789314"><ele>566.0</ele><time>2026-04-26T13:49:07.999Z</time></trkpt><trkpt lat="43.81673922610801" lon="11.547753823633963"><ele>566.0</ele><time>2026-04-26T13:49:08.999Z</time></trkpt><trkpt lat="43.81666298102995" lon="11.547832965374187"><ele>568.6</ele><time>2026-04-26T13:49:09.999Z</time></trkpt><trkpt lat="43.81658259189853" lon="11.54790953369577"><ele>571.2</ele><time>2026-04-26T13:49:10.999Z</time></trkpt><trkpt lat="43.81650691272449" lon="11.54799074230469"><ele>573.8</ele><time>2026-04-26T13:49:11.999Z</time></trkpt><trkpt lat="43.81645145371668" lon="11.548103567705892"><ele>576.4</ele><time>2026-04-26T13:49:12.999Z</time></trkpt><trkpt lat="43.816416345790024" lon="11.548236458125062"><ele>579.0</ele><time>2026-04-26T13:49:13.999Z</time></trkpt><trkpt lat="43.81640093716463" lon="11.548370615082884"><ele>579.0</ele><time>2026-04-26T13:49:14.999Z</time></trkpt><trkpt lat="43.8163785220879" lon="11.54848289128541"><ele>579.0</ele><time>2026-04-26T13:49:15.999Z</time></trkpt><trkpt lat="43.81629883091793" lon="11.548551609366957"><ele>579.0</ele><time>2026-04-26T13:49:16.999Z</time></trkpt><trkpt lat="43.816221171964784" lon="11.54861598036024"><ele>579.0</ele><time>2026-04-26T13:49:17.999Z</time></trkpt><trkpt lat="43.81614807490968" lon="11.548685993258701"><ele>579.0</ele><time>2026-04-26T13:49:18.999Z</time></trkpt><trkpt lat="43.81607096097592" lon="11.5487515856562"><ele>579.0</ele><time>2026-04-26T13:49:19.999Z</time></trkpt><trkpt lat="43.816007170327545" lon="11.548843417806332"><ele>579.2</ele><time>2026-04-26T13:49:20.999Z</time></trkpt><trkpt lat="43.815957176206965" lon="11.548955083349146"><ele>579.4</ele><time>2026-04-26T13:49:21.999Z</time></trkpt><trkpt lat="43.81590176275488" lon="11.549062546925233"><ele>579.6</ele><time>2026-04-26T13:49:22.999Z</time></trkpt><trkpt lat="43.81582912955531" lon="11.549154766826256"><ele>579.8</ele><time>2026-04-26T13:49:23.999Z</time></trkpt><trkpt lat="43.81577496741643" lon="11.549277081000929"><ele>580.0</ele><time>2026-04-26T13:49:24.999Z</time></trkpt><trkpt lat="43.8157023240277" lon="11.549385808405871"><ele>580.0</ele><time>2026-04-26T13:49:25.999Z</time></trkpt><trkpt lat="43.815631367099016" lon="11.549501535641129"><ele>580.0</ele><time>2026-04-26T13:49:26.999Z</time></trkpt><trkpt lat="43.815557369621445" lon="11.54961155795652"><ele>580.0</ele><time>2026-04-26T13:49:27.999Z</time></trkpt><trkpt lat="43.81549480413752" lon="11.54970405594498"><ele>580.0</ele><time>2026-04-26T13:49:28.999Z</time></trkpt><trkpt lat="43.81544700522257" lon="11.549771381729284"><ele>580.0</ele><time>2026-04-26T13:49:29.999Z</time></trkpt><trkpt lat="43.815392457875745" lon="11.549842653711448"><ele>580.1666666666667</ele><time>2026-04-26T13:49:31.999Z</time></trkpt><trkpt lat="43.815330434199346" lon="11.54993390620128"><ele>580.3333333333334</ele><time>2026-04-26T13:51:14Z</time></trkpt><trkpt lat="43.815249622602735" lon="11.55005863940163"><ele>580.5</ele><time>2026-04-26T13:51:16Z</time></trkpt><trkpt lat="43.815200744396975" lon="11.550133415289537"><ele>580.6666666666666</ele><time>2026-04-26T13:51:17Z</time></trkpt><trkpt lat="43.8151502993443" lon="11.550208592828904"><ele>580.8333333333333</ele><time>2026-04-26T13:51:18Z</time></trkpt><trkpt lat="43.815098117700785" lon="11.550286358486533"><ele>581.0</ele><time>2026-04-26T13:51:19Z</time></trkpt><trkpt lat="43.81504504719194" lon="11.550364467772262"><ele>582.1666666666666</ele><time>2026-04-26T13:51:20Z</time></trkpt><trkpt lat="43.814997531885915" lon="11.550436112715206"><ele>583.3333333333333</ele><time>2026-04-26T13:51:21Z</time></trkpt><trkpt lat="43.814957788855224" lon="11.55050809012784"><ele>584.5</ele><time>2026-04-26T13:51:22Z</time></trkpt><trkpt lat="43.814936255298285" lon="11.550593494191315"><ele>585.6666666666666</ele><time>2026-04-26T13:51:23Z</time></trkpt><trkpt lat="43.8149069322982" lon="11.55076382096387"><ele>586.8333333333334</ele><time>2026-04-26T13:51:25Z</time></trkpt><trkpt lat="43.81490053734964" lon="11.550857806781007"><ele>588.0</ele><time>2026-04-26T13:51:26Z</time></trkpt><trkpt lat="43.814868849665004" lon="11.55094865155546"><ele>588.0</ele><time>2026-04-26T13:51:27Z</time></trkpt><trkpt lat="43.81485362987287" lon="11.551041784066067"><ele>588.0</ele><time>2026-04-26T13:51:28Z</time></trkpt><trkpt lat="43.81484595788657" lon="11.551145972122425"><ele>588.0</ele><time>2026-04-26T13:51:29Z</time></trkpt><trkpt lat="43.814819063233024" lon="11.551247557943437"><ele>588.0</ele><time>2026-04-26T13:51:30Z</time></trkpt><trkpt lat="43.81479721385822" lon="11.551337814379558"><ele>588.0</ele><time>2026-04-26T13:51:31Z</time></trkpt><trkpt lat="43.81476312031619" lon="11.551419406554151"><ele>588.0</ele><time>2026-04-26T13:51:32Z</time></trkpt><trkpt lat="43.8147557868459" lon="11.551519972814257"><ele>588.0</ele><time>2026-04-26T13:51:33Z</time></trkpt><trkpt lat="43.81469519331089" lon="11.55156310386641"><ele>587.6666666666666</ele><time>2026-04-26T13:51:34Z</time></trkpt><trkpt lat="43.814623999685466" lon="11.551590168070387"><ele>587.3333333333334</ele><time>2026-04-26T13:51:35Z</time></trkpt><trkpt lat="43.81454524627481" lon="11.551594707101705"><ele>587.0</ele><time>2026-04-26T13:51:36Z</time></trkpt><trkpt lat="43.81446343890683" lon="11.551513462575425"><ele>586.6666666666667</ele><time>2026-04-26T13:51:37Z</time></trkpt><trkpt lat="43.814386079238005" lon="11.551506974497613"><ele>586.3333333333334</ele><time>2026-04-26T13:51:38Z</time></trkpt><trkpt lat="43.814323995507735" lon="11.551565704755705"><ele>586.0</ele><time>2026-04-26T13:51:39Z</time></trkpt><trkpt lat="43.814245606104976" lon="11.551688773823091"><ele>586.0</ele><time>2026-04-26T13:51:41Z</time></trkpt><trkpt lat="43.81419552773554" lon="11.55181722518727"><ele>586.0</ele><time>2026-04-26T13:51:43Z</time></trkpt><trkpt lat="43.81414245185197" lon="11.55193207776797"><ele>586.0</ele><time>2026-04-26T13:51:45Z</time></trkpt><trkpt lat="43.81408000838537" lon="11.552050259079056"><ele>586.0</ele><time>2026-04-26T13:51:47Z</time></trkpt><trkpt lat="43.81402188941166" lon="11.552160980331863"><ele>586.0</ele><time>2026-04-26T13:51:49Z</time></trkpt><trkpt lat="43.81395942515331" lon="11.55228623646908"><ele>588.6</ele><time>2026-04-26T13:51:51Z</time></trkpt><trkpt lat="43.81386813849136" lon="11.552430097117373"><ele>591.2</ele><time>2026-04-26T13:51:53Z</time></trkpt><trkpt lat="43.813789952803596" lon="11.552501210544987"><ele>593.8</ele><time>2026-04-26T13:51:54Z</time></trkpt><trkpt lat="43.81371438790231" lon="11.55257720055456"><ele>596.4</ele><time>2026-04-26T13:51:55Z</time></trkpt><trkpt lat="43.813629432872354" lon="11.552650191626068"><ele>599.0</ele><time>2026-04-26T13:51:56Z</time></trkpt><trkpt lat="43.81353809798504" lon="11.552728760710485"><ele>598.0</ele><time>2026-04-26T13:51:57Z</time></trkpt><trkpt lat="43.81344826837485" lon="11.552824012364676"><ele>597.0</ele><time>2026-04-26T13:51:58Z</time></trkpt><trkpt lat="43.813346597535244" lon="11.552901577234351"><ele>596.0</ele><time>2026-04-26T13:51:59Z</time></trkpt><trkpt lat="43.81323615517442" lon="11.552969343943548"><ele>595.0</ele><time>2026-04-26T13:52:00Z</time></trkpt><trkpt lat="43.81312311864001" lon="11.553025727261899"><ele>595.0</ele><time>2026-04-26T13:52:01Z</time></trkpt><trkpt lat="43.813024817894906" lon="11.553058092194917"><ele>595.0</ele><time>2026-04-26T13:52:02Z</time></trkpt><trkpt lat="43.81293404488687" lon="11.553089349736142"><ele>595.0</ele><time>2026-04-26T13:52:03Z</time></trkpt><trkpt lat="43.812852473726444" lon="11.553121962678429"><ele>595.0</ele><time>2026-04-26T13:52:04Z</time></trkpt><trkpt lat="43.81276964866551" lon="11.5531750884702"><ele>595.0</ele><time>2026-04-26T13:52:05Z</time></trkpt><trkpt lat="43.81269493780086" lon="11.553259147524559"><ele>595.8</ele><time>2026-04-26T13:52:06Z</time></trkpt><trkpt lat="43.81263197401383" lon="11.553365598787277"><ele>596.6</ele><time>2026-04-26T13:52:07Z</time></trkpt><trkpt lat="43.812572253321584" lon="11.553480397894042"><ele>597.4</ele><time>2026-04-26T13:52:08Z</time></trkpt><trkpt lat="43.81251176096605" lon="11.553592163962742"><ele>598.2</ele><time>2026-04-26T13:52:09Z</time></trkpt><trkpt lat="43.812451202579396" lon="11.553704759752707"><ele>599.0</ele><time>2026-04-26T13:52:10Z</time></trkpt><trkpt lat="43.812395750561876" lon="11.553818777890443"><ele>599.0</ele><time>2026-04-26T13:52:11Z</time></trkpt><trkpt lat="43.812338326179486" lon="11.553933511389934"><ele>599.0</ele><time>2026-04-26T13:52:12Z</time></trkpt><trkpt lat="43.812288182774104" lon="11.554048616061374"><ele>599.0</ele><time>2026-04-26T13:52:13Z</time></trkpt><trkpt lat="43.812230022390594" lon="11.554147542515786"><ele>599.0</ele><time>2026-04-26T13:52:14Z</time></trkpt><trkpt lat="43.81214522163548" lon="11.554198445520084"><ele>599.0</ele><time>2026-04-26T13:52:15Z</time></trkpt><trkpt lat="43.81205512232886" lon="11.554243426307195"><ele>599.0</ele><time>2026-04-26T13:52:16Z</time></trkpt><trkpt lat="43.81196037857433" lon="11.554295919966949"><ele>599.0</ele><time>2026-04-26T13:52:17Z</time></trkpt><trkpt lat="43.81186094836704" lon="11.554345953552483"><ele>599.0</ele><time>2026-04-26T13:52:18Z</time></trkpt><trkpt lat="43.811764492201405" lon="11.554380522406078"><ele>599.0</ele><time>2026-04-26T13:52:19Z</time></trkpt><trkpt lat="43.8116776982396" lon="11.554383412592154"><ele>599.0</ele><time>2026-04-26T13:52:20Z</time></trkpt><trkpt lat="43.81159841850492" lon="11.554352299880327"><ele>598.8</ele><time>2026-04-26T13:52:21Z</time></trkpt><trkpt lat="43.81153315759035" lon="11.554271511782146"><ele>598.5999999999999</ele><time>2026-04-26T13:52:22Z</time></trkpt><trkpt lat="43.81146041172182" lon="11.554190978270798"><ele>598.4</ele><time>2026-04-26T13:52:23Z</time></trkpt><trkpt lat="43.81139365416986" lon="11.554139146938258"><ele>598.1999999999999</ele><time>2026-04-26T13:52:24Z</time></trkpt><trkpt lat="43.81130076184888" lon="11.554046055307392"><ele>598.0</ele><time>2026-04-26T13:52:24.999Z</time></trkpt><trkpt lat="43.81121611565786" lon="11.553946361098747"><ele>598.0</ele><time>2026-04-26T13:52:25.999Z</time></trkpt><trkpt lat="43.81111298031097" lon="11.553901597872573"><ele>598.0</ele><time>2026-04-26T13:52:26.999Z</time></trkpt><trkpt lat="43.81101242143622" lon="11.553850718967546"><ele>598.0</ele><time>2026-04-26T13:52:27.999Z</time></trkpt><trkpt lat="43.8109180975161" lon="11.553806456306312"><ele>598.0</ele><time>2026-04-26T13:52:28.999Z</time></trkpt><trkpt lat="43.81083360281586" lon="11.55377032495651"><ele>598.0</ele><time>2026-04-26T13:52:30Z</time></trkpt><trkpt lat="43.810754729684085" lon="11.553743299502043"><ele>598.8</ele><time>2026-04-26T13:52:30.999Z</time></trkpt><trkpt lat="43.81066899839631" lon="11.55371089440796"><ele>599.5999999999999</ele><time>2026-04-26T13:52:31.999Z</time></trkpt><trkpt lat="43.810570461376805" lon="11.553687531428464"><ele>600.4000000000001</ele><time>2026-04-26T13:52:32.999Z</time></trkpt><trkpt lat="43.81046427378349" lon="11.553669920599988"><ele>601.2</ele><time>2026-04-26T13:52:33.999Z</time></trkpt><trkpt lat="43.810363281656734" lon="11.55366303229707"><ele>602.0</ele><time>2026-04-26T13:52:34.999Z</time></trkpt><trkpt lat="43.810267173146464" lon="11.55367391402696"><ele>602.0</ele><time>2026-04-26T13:52:35.999Z</time></trkpt><trkpt lat="43.81017280926938" lon="11.553712786392525"><ele>602.0</ele><time>2026-04-26T13:52:36.999Z</time></trkpt><trkpt lat="43.81007789343037" lon="11.553784369487008"><ele>602.0</ele><time>2026-04-26T13:52:38Z</time></trkpt><trkpt lat="43.80999251210779" lon="11.553885779682963"><ele>602.0</ele><time>2026-04-26T13:52:39Z</time></trkpt><trkpt lat="43.80991281950801" lon="11.553998472143956"><ele>602.0</ele><time>2026-04-26T13:52:40Z</time></trkpt><trkpt lat="43.809836973201186" lon="11.554123231660002"><ele>602.0</ele><time>2026-04-26T13:52:41Z</time></trkpt><trkpt lat="43.80974292541526" lon="11.554245550016413"><ele>602.0</ele><time>2026-04-26T13:52:42Z</time></trkpt><trkpt lat="43.80965208730777" lon="11.554392623050834"><ele>602.0</ele><time>2026-04-26T13:52:43Z</time></trkpt><trkpt lat="43.809560516530446" lon="11.554546241001129"><ele>602.0</ele><time>2026-04-26T13:52:44Z</time></trkpt><trkpt lat="43.80948062622596" lon="11.554726837161782"><ele>602.6666666666666</ele><time>2026-04-26T13:52:45Z</time></trkpt><trkpt lat="43.80938828653285" lon="11.55490430877816"><ele>603.3333333333334</ele><time>2026-04-26T13:52:46Z</time></trkpt><trkpt lat="43.8092852269181" lon="11.555070945353364"><ele>604.0</ele><time>2026-04-26T13:52:47Z</time></trkpt><trkpt lat="43.809199987618285" lon="11.555236251111046"><ele>610.0</ele><time>2026-04-26T13:52:48Z</time></trkpt><trkpt lat="43.80911686758433" lon="11.555396799683887"><ele>616.0</ele><time>2026-04-26T13:52:49Z</time></trkpt><trkpt lat="43.80902903941337" lon="11.555541699091659"><ele>622.0</ele><time>2026-04-26T13:52:50Z</time></trkpt><trkpt lat="43.80893636058409" lon="11.55566712297125"><ele>628.0</ele><time>2026-04-26T13:52:51Z</time></trkpt><trkpt lat="43.80881748653701" lon="11.555744859773617"><ele>628.0</ele><time>2026-04-26T13:52:52Z</time></trkpt><trkpt lat="43.80868174279252" lon="11.555762390879796"><ele>628.0</ele><time>2026-04-26T13:52:53Z</time></trkpt><trkpt lat="43.80853413104418" lon="11.555796133184527"><ele>628.0</ele><time>2026-04-26T13:52:54Z</time></trkpt><trkpt lat="43.80839124820918" lon="11.555877376228224"><ele>628.0</ele><time>2026-04-26T13:52:55Z</time></trkpt><trkpt lat="43.80824466931157" lon="11.555957675425647"><ele>621.6666666666667</ele><time>2026-04-26T13:52:56Z</time></trkpt><trkpt lat="43.80809147822061" lon="11.556010633440719"><ele>615.3333333333334</ele><time>2026-04-26T13:52:57Z</time></trkpt><trkpt lat="43.80793323115097" lon="11.556080842013117"><ele>609.0</ele><time>2026-04-26T13:52:58Z</time></trkpt><trkpt lat="43.807780164420706" lon="11.5561393462223"><ele>607.0</ele><time>2026-04-26T13:52:59Z</time></trkpt><trkpt lat="43.80763110554376" lon="11.556187245221597"><ele>605.0</ele><time>2026-04-26T13:53:00Z</time></trkpt><trkpt lat="43.8074849186107" lon="11.556213107559529"><ele>603.0</ele><time>2026-04-26T13:53:01Z</time></trkpt><trkpt lat="43.8073491021072" lon="11.556232109763274"><ele>601.0</ele><time>2026-04-26T13:53:02Z</time></trkpt><trkpt lat="43.80722428458273" lon="11.556269646753256"><ele>604.5</ele><time>2026-04-26T13:53:03Z</time></trkpt><trkpt lat="43.80712128451508" lon="11.556289223256153"><ele>608.0</ele><time>2026-04-26T13:53:04Z</time></trkpt><trkpt lat="43.807044565397455" lon="11.556341047235986"><ele>611.5</ele><time>2026-04-26T13:53:05Z</time></trkpt><trkpt lat="43.80699005849223" lon="11.556430406136398"><ele>615.0</ele><time>2026-04-26T13:53:06Z</time></trkpt><trkpt lat="43.8069704193699" lon="11.556542667846825"><ele>618.5</ele><time>2026-04-26T13:53:07Z</time></trkpt><trkpt lat="43.80697451626779" lon="11.556652441242887"><ele>622.0</ele><time>2026-04-26T13:53:08Z</time></trkpt><trkpt lat="43.80699066821199" lon="11.55676428616168"><ele>622.0</ele><time>2026-04-26T13:53:09Z</time></trkpt><trkpt lat="43.807019349944696" lon="11.556888763925443"><ele>622.0</ele><time>2026-04-26T13:53:10Z</time></trkpt><trkpt lat="43.80704934687296" lon="11.557025405124232"><ele>622.0</ele><time>2026-04-26T13:53:11Z</time></trkpt><trkpt lat="43.80707871163544" lon="11.55715510135134"><ele>622.0</ele><time>2026-04-26T13:53:12Z</time></trkpt><trkpt lat="43.80709389513113" lon="11.557269817883013"><ele>622.0</ele><time>2026-04-26T13:53:13Z</time></trkpt><trkpt lat="43.80711159058857" lon="11.557358785767015"><ele>622.0</ele><time>2026-04-26T13:53:14Z</time></trkpt><trkpt lat="43.80705108684775" lon="11.557499373806168"><ele>624.8000000000001</ele><time>2026-04-26T13:53:16Z</time></trkpt><trkpt lat="43.80697982444083" lon="11.557509685557884"><ele>627.6</ele><time>2026-04-26T13:53:17Z</time></trkpt><trkpt lat="43.80690892733496" lon="11.557446559009078"><ele>630.4000000000001</ele><time>2026-04-26T13:53:18Z</time></trkpt><trkpt lat="43.80684803728124" lon="11.557363627723372"><ele>633.2</ele><time>2026-04-26T13:53:19Z</time></trkpt><trkpt lat="43.806767447530405" lon="11.557278256488578"><ele>636.0</ele><time>2026-04-26T13:53:20Z</time></trkpt><trkpt lat="43.80667238072208" lon="11.557199970667043"><ele>636.0</ele><time>2026-04-26T13:53:21Z</time></trkpt><trkpt lat="43.80658397803071" lon="11.557094412792017"><ele>636.0</ele><time>2026-04-26T13:53:22Z</time></trkpt><trkpt lat="43.80648786602832" lon="11.557010149955488"><ele>636.0</ele><time>2026-04-26T13:53:23Z</time></trkpt><trkpt lat="43.806392092916354" lon="11.556916846803897"><ele>636.0</ele><time>2026-04-26T13:53:24Z</time></trkpt><trkpt lat="43.80629235478145" lon="11.556819887897769"><ele>631.25</ele><time>2026-04-26T13:53:25Z</time></trkpt><trkpt lat="43.806195673321504" lon="11.556725900841716"><ele>626.5</ele><time>2026-04-26T13:53:26Z</time></trkpt><trkpt lat="43.806101309952524" lon="11.55663774595238"><ele>621.75</ele><time>2026-04-26T13:53:27Z</time></trkpt><trkpt lat="43.80600014090233" lon="11.556556364077952"><ele>617.0</ele><time>2026-04-26T13:53:28Z</time></trkpt><trkpt lat="43.80590064574197" lon="11.556486827063633"><ele>617.0</ele><time>2026-04-26T13:53:29Z</time></trkpt><trkpt lat="43.805794613700826" lon="11.556454379379657"><ele>617.0</ele><time>2026-04-26T13:53:30Z</time></trkpt><trkpt lat="43.805688288293865" lon="11.556438198737329"><ele>617.0</ele><time>2026-04-26T13:53:31Z</time></trkpt><trkpt lat="43.805582731305336" lon="11.556430756782007"><ele>617.0</ele><time>2026-04-26T13:53:32Z</time></trkpt><trkpt lat="43.80547652481008" lon="11.556425897922194"><ele>617.0</ele><time>2026-04-26T13:53:33Z</time></trkpt><trkpt lat="43.805367379298914" lon="11.556420745256032"><ele>617.0</ele><time>2026-04-26T13:53:34Z</time></trkpt><trkpt lat="43.80525982563119" lon="11.556418769588387"><ele>617.0</ele><time>2026-04-26T13:53:35Z</time></trkpt><trkpt lat="43.80514935611012" lon="11.556437077187658"><ele>617.0</ele><time>2026-04-26T13:53:36Z</time></trkpt><trkpt lat="43.805034635964574" lon="11.55642469712865"><ele>617.0</ele><time>2026-04-26T13:53:37Z</time></trkpt><trkpt lat="43.80491952004776" lon="11.55642665008694"><ele>617.0</ele><time>2026-04-26T13:53:38Z</time></trkpt><trkpt lat="43.804799692581454" lon="11.556434539426878"><ele>616.5</ele><time>2026-04-26T13:53:39Z</time></trkpt><trkpt lat="43.804677947518705" lon="11.556432497852343"><ele>616.0</ele><time>2026-04-26T13:53:40Z</time></trkpt><trkpt lat="43.804547039245485" lon="11.556416426845617"><ele>615.5</ele><time>2026-04-26T13:53:41Z</time></trkpt><trkpt lat="43.80443535323748" lon="11.556456212552805"><ele>615.0</ele><time>2026-04-26T13:53:42Z</time></trkpt><trkpt lat="43.80433101740989" lon="11.556472423917088"><ele>614.6</ele><time>2026-04-26T13:53:43Z</time></trkpt><trkpt lat="43.804229691637" lon="11.556509504894787"><ele>614.2</ele><time>2026-04-26T13:53:44Z</time></trkpt><trkpt lat="43.80412618785389" lon="11.556542924503988"><ele>613.8</ele><time>2026-04-26T13:53:45Z</time></trkpt><trkpt lat="43.80402050308536" lon="11.556578543286745"><ele>613.4</ele><time>2026-04-26T13:53:46Z</time></trkpt><trkpt lat="43.80391461953413" lon="11.556612359996842"><ele>613.0</ele><time>2026-04-26T13:53:47Z</time></trkpt><trkpt lat="43.803812327268794" lon="11.55664215643232"><ele>613.0</ele><time>2026-04-26T13:53:48Z</time></trkpt><trkpt lat="43.80371864606651" lon="11.556689540495237"><ele>613.0</ele><time>2026-04-26T13:53:49Z</time></trkpt><trkpt lat="43.80362929231239" lon="11.556741138338932"><ele>613.0</ele><time>2026-04-26T13:53:50Z</time></trkpt><trkpt lat="43.80355071370128" lon="11.556810243081355"><ele>613.0</ele><time>2026-04-26T13:53:51Z</time></trkpt><trkpt lat="43.803476732830816" lon="11.556889921837048"><ele>613.0</ele><time>2026-04-26T13:53:52Z</time></trkpt><trkpt lat="43.80340842490325" lon="11.556981564505556"><ele>613.5</ele><time>2026-04-26T13:53:53Z</time></trkpt><trkpt lat="43.80334198813012" lon="11.557067527415855"><ele>614.0</ele><time>2026-04-26T13:53:54Z</time></trkpt><trkpt lat="43.80327659299284" lon="11.557153850350954"><ele>614.5</ele><time>2026-04-26T13:53:55Z</time></trkpt><trkpt lat="43.80321505157805" lon="11.55723981852614"><ele>615.0</ele><time>2026-04-26T13:53:56Z</time></trkpt><trkpt lat="43.803153900694944" lon="11.557326168702433"><ele>615.5</ele><time>2026-04-26T13:53:57Z</time></trkpt><trkpt lat="43.80308869490198" lon="11.557412368934326"><ele>616.0</ele><time>2026-04-26T13:53:58Z</time></trkpt><trkpt lat="43.803021029248086" lon="11.55750045464265"><ele>616.0</ele><time>2026-04-26T13:53:59Z</time></trkpt><trkpt lat="43.802952290672934" lon="11.557587497347654"><ele>616.0</ele><time>2026-04-26T13:54:00Z</time></trkpt><trkpt lat="43.80288386759345" lon="11.557671707104678"><ele>616.0</ele><time>2026-04-26T13:54:01Z</time></trkpt><trkpt lat="43.80281580812843" lon="11.557754567391429"><ele>616.0</ele><time>2026-04-26T13:54:02Z</time></trkpt><trkpt lat="43.80275703113078" lon="11.55783786976369"><ele>616.0</ele><time>2026-04-26T13:54:03Z</time></trkpt><trkpt lat="43.802698449314605" lon="11.557913464633799"><ele>616.0</ele><time>2026-04-26T13:54:04Z</time></trkpt><trkpt lat="43.80264401398831" lon="11.55798355582487"><ele>614.3333333333334</ele><time>2026-04-26T13:54:05Z</time></trkpt><trkpt lat="43.80259129576397" lon="11.558047747964523"><ele>612.6666666666667</ele><time>2026-04-26T13:54:06Z</time></trkpt><trkpt lat="43.80254454833742" lon="11.558107963607146"><ele>611.0</ele><time>2026-04-26T13:54:07Z</time></trkpt><trkpt lat="43.80245000128693" lon="11.55822868837796"><ele>609.3333333333334</ele><time>2026-04-26T13:54:09Z</time></trkpt><trkpt lat="43.802398235444485" lon="11.55829716623375"><ele>607.6666666666666</ele><time>2026-04-26T13:54:10Z</time></trkpt><trkpt lat="43.80234335648819" lon="11.558370992223637"><ele>606.0</ele><time>2026-04-26T13:54:11Z</time></trkpt><trkpt lat="43.80229426459067" lon="11.55844902795272"><ele>606.0</ele><time>2026-04-26T13:54:12Z</time></trkpt><trkpt lat="43.802241714844456" lon="11.558521415615996"><ele>606.0</ele><time>2026-04-26T13:54:13Z</time></trkpt><trkpt lat="43.802190314762896" lon="11.558599346854848"><ele>606.0</ele><time>2026-04-26T13:54:14Z</time></trkpt><trkpt lat="43.80213876248046" lon="11.558682567695351"><ele>606.0</ele><time>2026-04-26T13:54:15Z</time></trkpt><trkpt lat="43.80208627818414" lon="11.558770669251647"><ele>606.0</ele><time>2026-04-26T13:54:16Z</time></trkpt><trkpt lat="43.802033032751545" lon="11.558860798085401"><ele>606.0</ele><time>2026-04-26T13:54:17Z</time></trkpt><trkpt lat="43.80197615938942" lon="11.558957567445594"><ele>607.5</ele><time>2026-04-26T13:54:18Z</time></trkpt><trkpt lat="43.80192008503633" lon="11.559051788456145"><ele>609.0</ele><time>2026-04-26T13:54:19Z</time></trkpt><trkpt lat="43.80186623406383" lon="11.559142199344386"><ele>610.5</ele><time>2026-04-26T13:54:20Z</time></trkpt><trkpt lat="43.80181247923661" lon="11.559225737111989"><ele>612.0</ele><time>2026-04-26T13:54:21Z</time></trkpt><trkpt lat="43.80176444921495" lon="11.559304706664292"><ele>613.5</ele><time>2026-04-26T13:54:22Z</time></trkpt><trkpt lat="43.80172383111706" lon="11.559375765118952"><ele>615.0</ele><time>2026-04-26T13:54:23Z</time></trkpt><trkpt lat="43.80163953343664" lon="11.55942904615549"><ele>610.8333333333334</ele><time>2026-04-26T13:54:25Z</time></trkpt><trkpt lat="43.80159385207608" lon="11.55930321119444"><ele>606.6666666666666</ele><time>2026-04-26T13:54:27Z</time></trkpt><trkpt lat="43.8015648902289" lon="11.559218228595515"><ele>602.5</ele><time>2026-04-26T13:54:28Z</time></trkpt><trkpt lat="43.80153614962325" lon="11.559127109764864"><ele>598.3333333333333</ele><time>2026-04-26T13:54:29Z</time></trkpt><trkpt lat="43.80150252906486" lon="11.559020737220527"><ele>594.1666666666666</ele><time>2026-04-26T13:54:30Z</time></trkpt><trkpt lat="43.80146271363146" lon="11.558903192139411"><ele>590.0</ele><time>2026-04-26T13:54:31Z</time></trkpt><trkpt lat="43.80141095117345" lon="11.558771355036724"><ele>588.0</ele><time>2026-04-26T13:54:32Z</time></trkpt><trkpt lat="43.801350723417094" lon="11.558635992760982"><ele>586.0</ele><time>2026-04-26T13:54:33Z</time></trkpt><trkpt lat="43.80128320998787" lon="11.558501037973095"><ele>584.0</ele><time>2026-04-26T13:54:34Z</time></trkpt><trkpt lat="43.80121595049878" lon="11.558366004718204"><ele>582.0</ele><time>2026-04-26T13:54:35Z</time></trkpt><trkpt lat="43.80115091482236" lon="11.55822334841507"><ele>582.0</ele><time>2026-04-26T13:54:36Z</time></trkpt><trkpt lat="43.80108971491332" lon="11.558072074406311"><ele>582.0</ele><time>2026-04-26T13:54:37Z</time></trkpt><trkpt lat="43.80102483029783" lon="11.557905086351187"><ele>582.0</ele><time>2026-04-26T13:54:38Z</time></trkpt><trkpt lat="43.80095450610519" lon="11.557728679921189"><ele>582.0</ele><time>2026-04-26T13:54:39Z</time></trkpt><trkpt lat="43.80087921518073" lon="11.557557509655325"><ele>583.0</ele><time>2026-04-26T13:54:40Z</time></trkpt><trkpt lat="43.80079905933178" lon="11.557404314427686"><ele>584.0</ele><time>2026-04-26T13:54:42Z</time></trkpt><trkpt lat="43.800754954528976" lon="11.557288151054333"><ele>585.0</ele><time>2026-04-26T13:54:43Z</time></trkpt><trkpt lat="43.80070847837147" lon="11.557168918244798"><ele>586.0</ele><time>2026-04-26T13:54:44Z</time></trkpt><trkpt lat="43.800667540091496" lon="11.55702575004102"><ele>587.0</ele><time>2026-04-26T13:54:45Z</time></trkpt><trkpt lat="43.800655974892464" lon="11.55684782472259"><ele>587.0</ele><time>2026-04-26T13:54:46Z</time></trkpt><trkpt lat="43.800651197279194" lon="11.5566568592943"><ele>587.0</ele><time>2026-04-26T13:54:47Z</time></trkpt><trkpt lat="43.800662947179475" lon="11.556464486342962"><ele>587.0</ele><time>2026-04-26T13:54:48Z</time></trkpt><trkpt lat="43.80067565906826" lon="11.556258049528887"><ele>587.0</ele><time>2026-04-26T13:54:49Z</time></trkpt><trkpt lat="43.80068652031809" lon="11.556041720887004"><ele>586.6666666666666</ele><time>2026-04-26T13:54:50Z</time></trkpt><trkpt lat="43.80068226924256" lon="11.555815116872763"><ele>586.3333333333334</ele><time>2026-04-26T13:54:51Z</time></trkpt><trkpt lat="43.80069837127718" lon="11.555586119758669"><ele>586.0</ele><time>2026-04-26T13:54:52Z</time></trkpt><trkpt lat="43.800703794314444" lon="11.555353759223378"><ele>586.0</ele><time>2026-04-26T13:54:53Z</time></trkpt><trkpt lat="43.80070829694617" lon="11.555119722189643"><ele>586.0</ele><time>2026-04-26T13:54:54Z</time></trkpt><trkpt lat="43.80069875738338" lon="11.554896037843626"><ele>586.0</ele><time>2026-04-26T13:54:55Z</time></trkpt><trkpt lat="43.80068689306604" lon="11.55469593222913"><ele>585.25</ele><time>2026-04-26T13:54:56Z</time></trkpt><trkpt lat="43.800673923458156" lon="11.554521437462974"><ele>584.5</ele><time>2026-04-26T13:54:57Z</time></trkpt><trkpt lat="43.80065803665142" lon="11.55436333847313"><ele>583.75</ele><time>2026-04-26T13:54:58Z</time></trkpt><trkpt lat="43.80063000448543" lon="11.554216157205863"><ele>583.0</ele><time>2026-04-26T13:54:59Z</time></trkpt><trkpt lat="43.80058580115465" lon="11.554085553962045"><ele>583.0</ele><time>2026-04-26T13:55:00Z</time></trkpt><trkpt lat="43.80051074099563" lon="11.553983255098723"><ele>583.0</ele><time>2026-04-26T13:55:01Z</time></trkpt><trkpt lat="43.800415236730785" lon="11.553905268159998"><ele>583.0</ele><time>2026-04-26T13:55:02Z</time></trkpt><trkpt lat="43.80028094412557" lon="11.553858639307403"><ele>583.0</ele><time>2026-04-26T13:55:03Z</time></trkpt><trkpt lat="43.8001827848615" lon="11.553758051370023"><ele>587.0</ele><time>2026-04-26T13:55:04Z</time></trkpt><trkpt lat="43.800103251442906" lon="11.553637097261577"><ele>591.0</ele><time>2026-04-26T13:55:05Z</time></trkpt><trkpt lat="43.800026242917184" lon="11.553510536790755"><ele>595.0</ele><time>2026-04-26T13:55:06Z</time></trkpt><trkpt lat="43.799983409263945" lon="11.553375691408815"><ele>599.0</ele><time>2026-04-26T13:55:07Z</time></trkpt><trkpt lat="43.79998569272276" lon="11.553237270234568"><ele>603.0</ele><time>2026-04-26T13:55:08Z</time></trkpt><trkpt lat="43.80000099776937" lon="11.553085205005946"><ele>603.0</ele><time>2026-04-26T13:55:09Z</time></trkpt><trkpt lat="43.800041437211405" lon="11.552931134339588"><ele>603.0</ele><time>2026-04-26T13:55:10Z</time></trkpt><trkpt lat="43.80009664394914" lon="11.552766176227145"><ele>603.0</ele><time>2026-04-26T13:55:11Z</time></trkpt><trkpt lat="43.80015544440734" lon="11.5525974086941"><ele>603.0</ele><time>2026-04-26T13:55:12Z</time></trkpt><trkpt lat="43.80020186624312" lon="11.552411373529116"><ele>603.25</ele><time>2026-04-26T13:55:13Z</time></trkpt><trkpt lat="43.80028012101734" lon="11.552239864399898"><ele>603.5</ele><time>2026-04-26T13:55:14Z</time></trkpt><trkpt lat="43.80034279092699" lon="11.552049359195719"><ele>603.75</ele><time>2026-04-26T13:55:15Z</time></trkpt><trkpt lat="43.80044675428607" lon="11.551906599160457"><ele>604.0</ele><time>2026-04-26T13:55:16Z</time></trkpt><trkpt lat="43.80054824994368" lon="11.551783361948024"><ele>604.0</ele><time>2026-04-26T13:55:17Z</time></trkpt><trkpt lat="43.800641280857214" lon="11.551653992523269"><ele>604.0</ele><time>2026-04-26T13:55:18Z</time></trkpt><trkpt lat="43.800738113827535" lon="11.55154138157145"><ele>604.0</ele><time>2026-04-26T13:55:19Z</time></trkpt><trkpt lat="43.80082365592388" lon="11.55141717221206"><ele>604.0</ele><time>2026-04-26T13:55:20Z</time></trkpt><trkpt lat="43.80087666897653" lon="11.551265649017123"><ele>606.0</ele><time>2026-04-26T13:55:21Z</time></trkpt><trkpt lat="43.8009045279754" lon="11.55110089890149"><ele>608.0</ele><time>2026-04-26T13:55:22Z</time></trkpt><trkpt lat="43.80090515603652" lon="11.550938945793622"><ele>610.0</ele><time>2026-04-26T13:55:23Z</time></trkpt><trkpt lat="43.80087322637549" lon="11.5507796633876"><ele>612.0</ele><time>2026-04-26T13:55:24Z</time></trkpt><trkpt lat="43.80081839545251" lon="11.55062058648438"><ele>612.0</ele><time>2026-04-26T13:55:25Z</time></trkpt><trkpt lat="43.80075324974499" lon="11.550453582492842"><ele>612.0</ele><time>2026-04-26T13:55:26Z</time></trkpt><trkpt lat="43.80071147162883" lon="11.550267593604334"><ele>612.0</ele><time>2026-04-26T13:55:27Z</time></trkpt><trkpt lat="43.80064148550429" lon="11.550093272508276"><ele>612.0</ele><time>2026-04-26T13:55:28Z</time></trkpt><trkpt lat="43.80058526430655" lon="11.549906555305547"><ele>612.25</ele><time>2026-04-26T13:55:29Z</time></trkpt><trkpt lat="43.800527711216354" lon="11.549729109152551"><ele>612.5</ele><time>2026-04-26T13:55:30Z</time></trkpt><trkpt lat="43.80047526773566" lon="11.549560492042843"><ele>612.75</ele><time>2026-04-26T13:55:31Z</time></trkpt><trkpt lat="43.80039857891633" lon="11.54942177902707"><ele>613.0</ele><time>2026-04-26T13:55:32Z</time></trkpt><trkpt lat="43.800309227182524" lon="11.549306294769993"><ele>611.25</ele><time>2026-04-26T13:55:33Z</time></trkpt><trkpt lat="43.800201043342774" lon="11.54921896682042"><ele>609.5</ele><time>2026-04-26T13:55:34Z</time></trkpt><trkpt lat="43.8000791685159" lon="11.549158251682204"><ele>607.75</ele><time>2026-04-26T13:55:35Z</time></trkpt><trkpt lat="43.79995251345304" lon="11.549108459053295"><ele>606.0</ele><time>2026-04-26T13:55:36Z</time></trkpt><trkpt lat="43.799828696197714" lon="11.549061309639669"><ele>611.75</ele><time>2026-04-26T13:55:37Z</time></trkpt><trkpt lat="43.79970041460435" lon="11.549014370838298"><ele>617.5</ele><time>2026-04-26T13:55:38Z</time></trkpt><trkpt lat="43.79957614671847" lon="11.548945916213263"><ele>623.25</ele><time>2026-04-26T13:55:39Z</time></trkpt><trkpt lat="43.799448443902556" lon="11.548892944758308"><ele>629.0</ele><time>2026-04-26T13:55:40Z</time></trkpt><trkpt lat="43.799321146878" lon="11.548863326314963"><ele>631.25</ele><time>2026-04-26T13:55:41Z</time></trkpt><trkpt lat="43.79919903177544" lon="11.548812703625481"><ele>633.5</ele><time>2026-04-26T13:55:42Z</time></trkpt><trkpt lat="43.79908497993893" lon="11.548742087928147"><ele>635.75</ele><time>2026-04-26T13:55:43Z</time></trkpt><trkpt lat="43.79898027519418" lon="11.548680633548459"><ele>638.0</ele><time>2026-04-26T13:55:44Z</time></trkpt><trkpt lat="43.79888579939041" lon="11.548589323033278"><ele>638.0</ele><time>2026-04-26T13:55:45Z</time></trkpt><trkpt lat="43.79880425167955" lon="11.548486046384193"><ele>638.0</ele><time>2026-04-26T13:55:46Z</time></trkpt><trkpt lat="43.79878009816255" lon="11.548332814169674"><ele>638.0</ele><time>2026-04-26T13:55:46.999Z</time></trkpt><trkpt lat="43.79878182062557" lon="11.5481739381118"><ele>638.0</ele><time>2026-04-26T13:55:47.999Z</time></trkpt><trkpt lat="43.79879581013284" lon="11.548016468435826"><ele>639.0</ele><time>2026-04-26T13:55:48.999Z</time></trkpt><trkpt lat="43.798803027107624" lon="11.547834046913799"><ele>640.0</ele><time>2026-04-26T13:55:49.999Z</time></trkpt><trkpt lat="43.79882981161759" lon="11.547654661563962"><ele>641.0</ele><time>2026-04-26T13:55:50.999Z</time></trkpt><trkpt lat="43.798853121814915" lon="11.547476847923889"><ele>642.0</ele><time>2026-04-26T13:55:51.999Z</time></trkpt><trkpt lat="43.79887129123851" lon="11.54730343676285"><ele>642.0</ele><time>2026-04-26T13:55:52.999Z</time></trkpt><trkpt lat="43.798879617858134" lon="11.547131028462925"><ele>642.0</ele><time>2026-04-26T13:55:53.999Z</time></trkpt><trkpt lat="43.798852780313524" lon="11.546955068013432"><ele>642.0</ele><time>2026-04-26T13:55:54.999Z</time></trkpt><trkpt lat="43.79880289655448" lon="11.546789296789171"><ele>642.0</ele><time>2026-04-26T13:55:55.999Z</time></trkpt><trkpt lat="43.798733657005194" lon="11.546634510543015"><ele>643.25</ele><time>2026-04-26T13:55:56.999Z</time></trkpt><trkpt lat="43.79864407111022" lon="11.54649453573827"><ele>644.5</ele><time>2026-04-26T13:55:57.999Z</time></trkpt><trkpt lat="43.798535803089145" lon="11.546371584223612"><ele>645.75</ele><time>2026-04-26T13:55:58.999Z</time></trkpt><trkpt lat="43.79842895474826" lon="11.546244020485263"><ele>647.0</ele><time>2026-04-26T13:55:59.999Z</time></trkpt><trkpt lat="43.79834507747649" lon="11.546092337184964"><ele>651.25</ele><time>2026-04-26T13:56:00.999Z</time></trkpt><trkpt lat="43.798264559097326" lon="11.545945984465"><ele>655.5</ele><time>2026-04-26T13:56:01.999Z</time></trkpt><trkpt lat="43.79820536888723" lon="11.545779297888991"><ele>659.75</ele><time>2026-04-26T13:56:02.999Z</time></trkpt><trkpt lat="43.79815405608827" lon="11.545600764317198"><ele>664.0</ele><time>2026-04-26T13:56:03.999Z</time></trkpt><trkpt lat="43.79810426733727" lon="11.545412162436373"><ele>662.3333333333334</ele><time>2026-04-26T13:56:04.999Z</time></trkpt><trkpt lat="43.79805992128143" lon="11.545219159110333"><ele>660.6666666666666</ele><time>2026-04-26T13:56:05.999Z</time></trkpt><trkpt lat="43.79802488317783" lon="11.545016002420427"><ele>659.0</ele><time>2026-04-26T13:56:06.999Z</time></trkpt><trkpt lat="43.79801542419037" lon="11.544802886236342"><ele>659.0</ele><time>2026-04-26T13:56:07.999Z</time></trkpt><trkpt lat="43.79802974003945" lon="11.544583572074531"><ele>659.0</ele><time>2026-04-26T13:56:08.999Z</time></trkpt><trkpt lat="43.79805680184197" lon="11.54435745516695"><ele>659.0</ele><time>2026-04-26T13:56:09.999Z</time></trkpt><trkpt lat="43.79807546143287" lon="11.544144314600693"><ele>658.25</ele><time>2026-04-26T13:56:10.999Z</time></trkpt><trkpt lat="43.79809448335976" lon="11.54393655831254"><ele>657.5</ele><time>2026-04-26T13:56:11.999Z</time></trkpt><trkpt lat="43.798084191285525" lon="11.543738610478462"><ele>656.75</ele><time>2026-04-26T13:56:12.999Z</time></trkpt><trkpt lat="43.79804470720106" lon="11.543539051595053"><ele>656.0</ele><time>2026-04-26T13:56:13.999Z</time></trkpt><trkpt lat="43.79798320011945" lon="11.5433452812019"><ele>654.6666666666666</ele><time>2026-04-26T13:56:14.999Z</time></trkpt><trkpt lat="43.79789547961742" lon="11.543166529253293"><ele>653.3333333333334</ele><time>2026-04-26T13:56:15.999Z</time></trkpt><trkpt lat="43.797769933450354" lon="11.542984394204648"><ele>652.0</ele><time>2026-04-26T13:56:16.999Z</time></trkpt><trkpt lat="43.797637334913674" lon="11.542805494776353"><ele>652.0</ele><time>2026-04-26T13:56:17.999Z</time></trkpt><trkpt lat="43.79771138671269" lon="11.542579678698333"><ele>652.0</ele><time>2026-04-26T13:56:18.999Z</time></trkpt><trkpt lat="43.797698080890505" lon="11.542357612615397"><ele>652.0</ele><time>2026-04-26T13:56:19.999Z</time></trkpt><trkpt lat="43.797655829421814" lon="11.54214873563245"><ele>660.75</ele><time>2026-04-26T13:56:20.999Z</time></trkpt><trkpt lat="43.79761424038944" lon="11.54194302919854"><ele>669.5</ele><time>2026-04-26T13:56:21.999Z</time></trkpt><trkpt lat="43.79758121410528" lon="11.541751998548198"><ele>678.25</ele><time>2026-04-26T13:56:22.999Z</time></trkpt><trkpt lat="43.797573948644995" lon="11.54157159130132"><ele>687.0</ele><time>2026-04-26T13:56:23.999Z</time></trkpt><trkpt lat="43.797592165258216" lon="11.541387786068062"><ele>687.0</ele><time>2026-04-26T13:56:24.999Z</time></trkpt><trkpt lat="43.79764885661802" lon="11.541233650103345"><ele>687.0</ele><time>2026-04-26T13:56:25.999Z</time></trkpt><trkpt lat="43.797719446874886" lon="11.541058949528924"><ele>687.0</ele><time>2026-04-26T13:56:26.999Z</time></trkpt><trkpt lat="43.79778976897796" lon="11.540885777084403"><ele>687.0</ele><time>2026-04-26T13:56:27.999Z</time></trkpt><trkpt lat="43.797857364709294" lon="11.540712427119322"><ele>684.2</ele><time>2026-04-26T13:56:28.999Z</time></trkpt><trkpt lat="43.79791930621393" lon="11.540549092920061"><ele>681.4000000000001</ele><time>2026-04-26T13:56:29.999Z</time></trkpt><trkpt lat="43.79795330391706" lon="11.540402347400084"><ele>678.5999999999999</ele><time>2026-04-26T13:56:30.999Z</time></trkpt><trkpt lat="43.79797613123677" lon="11.540271376952607"><ele>675.8</ele><time>2026-04-26T13:56:31.999Z</time></trkpt><trkpt lat="43.797954815481695" lon="11.540136012002833"><ele>673.0</ele><time>2026-04-26T13:56:32.999Z</time></trkpt><trkpt lat="43.79789195365651" lon="11.540004138695206"><ele>673.0</ele><time>2026-04-26T13:56:33.999Z</time></trkpt><trkpt lat="43.79781380983062" lon="11.539876684245689"><ele>673.0</ele><time>2026-04-26T13:56:34.999Z</time></trkpt><trkpt lat="43.797726266850276" lon="11.539751098650626"><ele>673.0</ele><time>2026-04-26T13:56:35.999Z</time></trkpt><trkpt lat="43.79763987077365" lon="11.539622126139493"><ele>673.0</ele><time>2026-04-26T13:56:37Z</time></trkpt><trkpt lat="43.79755423814609" lon="11.53949484267792"><ele>678.0</ele><time>2026-04-26T13:56:38Z</time></trkpt><trkpt lat="43.797461230276426" lon="11.539379307820601"><ele>683.0</ele><time>2026-04-26T13:56:39Z</time></trkpt><trkpt lat="43.79734369508368" lon="11.53928143026135"><ele>688.0</ele><time>2026-04-26T13:56:40Z</time></trkpt><trkpt lat="43.797201293188984" lon="11.539214264528509"><ele>693.0</ele><time>2026-04-26T13:56:41Z</time></trkpt><trkpt lat="43.79705205387656" lon="11.5391713155687"><ele>693.0</ele><time>2026-04-26T13:56:42Z</time></trkpt><trkpt lat="43.79691194259051" lon="11.539097089140233"><ele>693.0</ele><time>2026-04-26T13:56:43Z</time></trkpt><trkpt lat="43.796783648528454" lon="11.53900228952831"><ele>693.0</ele><time>2026-04-26T13:56:44Z</time></trkpt><trkpt lat="43.79666549502976" lon="11.53887271240526"><ele>693.0</ele><time>2026-04-26T13:56:45Z</time></trkpt><trkpt lat="43.79655096422573" lon="11.538713733398945"><ele>695.0</ele><time>2026-04-26T13:56:46Z</time></trkpt><trkpt lat="43.79643193564866" lon="11.53855588901561"><ele>697.0</ele><time>2026-04-26T13:56:47Z</time></trkpt><trkpt lat="43.7963184878488" lon="11.538398416661977"><ele>699.0</ele><time>2026-04-26T13:56:48Z</time></trkpt><trkpt lat="43.79621375541262" lon="11.538235221494368"><ele>699.0</ele><time>2026-04-26T13:56:49Z</time></trkpt><trkpt lat="43.79612796684689" lon="11.538063141795114"><ele>699.0</ele><time>2026-04-26T13:56:50Z</time></trkpt><trkpt lat="43.796063146443466" lon="11.537871112019394"><ele>699.0</ele><time>2026-04-26T13:56:51Z</time></trkpt><trkpt lat="43.796015397644304" lon="11.537668198046035"><ele>706.0</ele><time>2026-04-26T13:56:52Z</time></trkpt><trkpt lat="43.79598981215582" lon="11.537452086165219"><ele>713.0</ele><time>2026-04-26T13:56:53Z</time></trkpt><trkpt lat="43.795992764082584" lon="11.537240703477654"><ele>720.0</ele><time>2026-04-26T13:56:54Z</time></trkpt><trkpt lat="43.7960006564872" lon="11.537024432075011"><ele>720.25</ele><time>2026-04-26T13:56:55Z</time></trkpt><trkpt lat="43.79600804560321" lon="11.536827671184177"><ele>720.5</ele><time>2026-04-26T13:56:56Z</time></trkpt><trkpt lat="43.796000858967915" lon="11.536651696503862"><ele>720.75</ele><time>2026-04-26T13:56:57Z</time></trkpt><trkpt lat="43.796025687043766" lon="11.536505269972384"><ele>721.0</ele><time>2026-04-26T13:56:58Z</time></trkpt><trkpt lat="43.79601283633266" lon="11.536367210969505"><ele>721.8</ele><time>2026-04-26T13:56:59Z</time></trkpt><trkpt lat="43.79602173485535" lon="11.536248352988112"><ele>722.5999999999999</ele><time>2026-04-26T13:57:00Z</time></trkpt><trkpt lat="43.795960833360134" lon="11.536145547928731"><ele>723.4</ele><time>2026-04-26T13:57:01Z</time></trkpt><trkpt lat="43.79590611239048" lon="11.536051402660066"><ele>724.2</ele><time>2026-04-26T13:57:02Z</time></trkpt><trkpt lat="43.79578718110704" lon="11.536044537436476"><ele>725.0</ele><time>2026-04-26T13:57:03Z</time></trkpt><trkpt lat="43.795685914192" lon="11.536079075882112"><ele>725.0</ele><time>2026-04-26T13:57:04Z</time></trkpt><trkpt lat="43.795618229266445" lon="11.536175320316433"><ele>725.0</ele><time>2026-04-26T13:57:05Z</time></trkpt><trkpt lat="43.795591886295796" lon="11.536296150883015"><ele>725.0</ele><time>2026-04-26T13:57:06Z</time></trkpt><trkpt lat="43.795596146448894" lon="11.53643887707704"><ele>725.0</ele><time>2026-04-26T13:57:07Z</time></trkpt><trkpt lat="43.79559454055385" lon="11.536593464570776"><ele>725.0</ele><time>2026-04-26T13:57:08Z</time></trkpt><trkpt lat="43.79558140782634" lon="11.53676336500982"><ele>723.6666666666666</ele><time>2026-04-26T13:57:09Z</time></trkpt><trkpt lat="43.795569496876645" lon="11.536962877102633"><ele>722.3333333333334</ele><time>2026-04-26T13:57:10Z</time></trkpt><trkpt lat="43.79555269704913" lon="11.537190209801357"><ele>721.0</ele><time>2026-04-26T13:57:11Z</time></trkpt><trkpt lat="43.79553035589888" lon="11.537409272832194"><ele>720.75</ele><time>2026-04-26T13:57:12Z</time></trkpt><trkpt lat="43.795518256369206" lon="11.53760595337202"><ele>720.5</ele><time>2026-04-26T13:57:13Z</time></trkpt><trkpt lat="43.795510221577075" lon="11.537797122936844"><ele>720.25</ele><time>2026-04-26T13:57:14Z</time></trkpt><trkpt lat="43.79550272842833" lon="11.5379876369065"><ele>720.0</ele><time>2026-04-26T13:57:15Z</time></trkpt><trkpt lat="43.79550172790055" lon="11.538178487429658"><ele>719.5</ele><time>2026-04-26T13:57:16Z</time></trkpt><trkpt lat="43.79550827565955" lon="11.538365485319966"><ele>719.0</ele><time>2026-04-26T13:57:17Z</time></trkpt><trkpt lat="43.79553031385592" lon="11.538549006463063"><ele>718.5</ele><time>2026-04-26T13:57:18Z</time></trkpt><trkpt lat="43.79556404671585" lon="11.53872679381114"><ele>718.0</ele><time>2026-04-26T13:57:19Z</time></trkpt><trkpt lat="43.79560037625393" lon="11.538902136266621"><ele>720.0</ele><time>2026-04-26T13:57:20Z</time></trkpt><trkpt lat="43.79562946082213" lon="11.539074782470008"><ele>722.0</ele><time>2026-04-26T13:57:21Z</time></trkpt><trkpt lat="43.79566674366511" lon="11.53923839685622"><ele>724.0</ele><time>2026-04-26T13:57:22Z</time></trkpt><trkpt lat="43.79569451256868" lon="11.539391641336657"><ele>726.0</ele><time>2026-04-26T13:57:23Z</time></trkpt><trkpt lat="43.79569719927216" lon="11.539531050400493"><ele>727.3333333333334</ele><time>2026-04-26T13:57:24Z</time></trkpt><trkpt lat="43.79566453697637" lon="11.539656577446186"><ele>728.6666666666666</ele><time>2026-04-26T13:57:25Z</time></trkpt><trkpt lat="43.79559613185581" lon="11.539754049156237"><ele>730.0</ele><time>2026-04-26T13:57:26Z</time></trkpt><trkpt lat="43.7955010143515" lon="11.539771257745999"><ele>731.3333333333333</ele><time>2026-04-26T13:57:27Z</time></trkpt><trkpt lat="43.79543072484474" lon="11.539795219097487"><ele>732.6666666666666</ele><time>2026-04-26T13:57:28Z</time></trkpt><trkpt lat="43.795352464664006" lon="11.53978573586964"><ele>734.0</ele><time>2026-04-26T13:57:30Z</time></trkpt><trkpt lat="43.79532147468745" lon="11.539986542609423"><ele>734.0</ele><time>2026-04-26T13:57:40Z</time></trkpt><trkpt lat="43.79532458728985" lon="11.54012150044284"><ele>734.0</ele><time>2026-04-26T13:57:41Z</time></trkpt><trkpt lat="43.79530900792592" lon="11.54025544961063"><ele>734.0</ele><time>2026-04-26T13:57:42Z</time></trkpt><trkpt lat="43.79529809856346" lon="11.540402092871554"><ele>734.0</ele><time>2026-04-26T13:57:43Z</time></trkpt><trkpt lat="43.7952755243165" lon="11.540571628608959"><ele>734.0</ele><time>2026-04-26T13:57:44Z</time></trkpt><trkpt lat="43.79525748196831" lon="11.540750781542654"><ele>735.5</ele><time>2026-04-26T13:57:45Z</time></trkpt><trkpt lat="43.79524246125382" lon="11.54092659156581"><ele>737.0</ele><time>2026-04-26T13:57:46Z</time></trkpt><trkpt lat="43.79523546913699" lon="11.54110944719446"><ele>738.5</ele><time>2026-04-26T13:57:47Z</time></trkpt><trkpt lat="43.7952374715788" lon="11.541299511596554"><ele>740.0</ele><time>2026-04-26T13:57:48Z</time></trkpt><trkpt lat="43.795252874150385" lon="11.541492245473105"><ele>741.5</ele><time>2026-04-26T13:57:49Z</time></trkpt><trkpt lat="43.795279400667575" lon="11.541679756040047"><ele>743.0</ele><time>2026-04-26T13:57:50Z</time></trkpt><trkpt lat="43.79530809621275" lon="11.541864939057161"><ele>744.5</ele><time>2026-04-26T13:57:51Z</time></trkpt><trkpt lat="43.79533303125201" lon="11.54205600122797"><ele>746.0</ele><time>2026-04-26T13:57:52Z</time></trkpt><trkpt lat="43.79535887179188" lon="11.54224611929562"><ele>746.5</ele><time>2026-04-26T13:57:53Z</time></trkpt><trkpt lat="43.795374305776015" lon="11.54243283053661"><ele>747.0</ele><time>2026-04-26T13:57:54Z</time></trkpt><trkpt lat="43.795374853342665" lon="11.542626047530403"><ele>747.5</ele><time>2026-04-26T13:57:55Z</time></trkpt><trkpt lat="43.79535367123841" lon="11.542831405533763"><ele>748.0</ele><time>2026-04-26T13:57:56Z</time></trkpt><trkpt lat="43.79531550972594" lon="11.543046538925125"><ele>746.3333333333334</ele><time>2026-04-26T13:57:57Z</time></trkpt><trkpt lat="43.7952722574496" lon="11.54327421504227"><ele>744.6666666666666</ele><time>2026-04-26T13:57:58Z</time></trkpt><trkpt lat="43.79523218613994" lon="11.543514937810285"><ele>743.0</ele><time>2026-04-26T13:57:59Z</time></trkpt><trkpt lat="43.79518748949599" lon="11.543768005313472"><ele>752.6666666666666</ele><time>2026-04-26T13:58:00Z</time></trkpt><trkpt lat="43.7951517093821" lon="11.544016430123778"><ele>762.3333333333333</ele><time>2026-04-26T13:58:01Z</time></trkpt><trkpt lat="43.795115107635866" lon="11.544255291956068"><ele>772.0</ele><time>2026-04-26T13:58:02Z</time></trkpt><trkpt lat="43.79508438710246" lon="11.54449564856932"><ele>771.3333333333333</ele><time>2026-04-26T13:58:03Z</time></trkpt><trkpt lat="43.79505041903385" lon="11.544737280058424"><ele>770.6666666666667</ele><time>2026-04-26T13:58:04Z</time></trkpt><trkpt lat="43.79498068281189" lon="11.5449639916366"><ele>770.0</ele><time>2026-04-26T13:58:05Z</time></trkpt><trkpt lat="43.79490107868941" lon="11.545195619984355"><ele>768.6666666666667</ele><time>2026-04-26T13:58:06Z</time></trkpt><trkpt lat="43.79483890906651" lon="11.545435181889534"><ele>767.3333333333334</ele><time>2026-04-26T13:58:07Z</time></trkpt><trkpt lat="43.79477366145487" lon="11.545664298847052"><ele>766.0</ele><time>2026-04-26T13:58:08Z</time></trkpt><trkpt lat="43.79471796062889" lon="11.545903716015811"><ele>766.0</ele><time>2026-04-26T13:58:09Z</time></trkpt><trkpt lat="43.79468554192018" lon="11.546147855123305"><ele>766.0</ele><time>2026-04-26T13:58:10Z</time></trkpt><trkpt lat="43.794671508699416" lon="11.546385465938476"><ele>766.0</ele><time>2026-04-26T13:58:11Z</time></trkpt><trkpt lat="43.79467007810965" lon="11.546603435206581"><ele>765.75</ele><time>2026-04-26T13:58:12Z</time></trkpt><trkpt lat="43.794689165793955" lon="11.546793747908213"><ele>765.5</ele><time>2026-04-26T13:58:13Z</time></trkpt><trkpt lat="43.794704829035076" lon="11.546971410569583"><ele>765.25</ele><time>2026-04-26T13:58:14Z</time></trkpt><trkpt lat="43.79468258854104" lon="11.547138154506616"><ele>765.0</ele><time>2026-04-26T13:58:15Z</time></trkpt><trkpt lat="43.79460994490433" lon="11.547277816081534"><ele>765.0</ele><time>2026-04-26T13:58:16Z</time></trkpt><trkpt lat="43.79449160199849" lon="11.547355846475787"><ele>765.0</ele><time>2026-04-26T13:58:17Z</time></trkpt><trkpt lat="43.79436296878089" lon="11.547389058279963"><ele>765.0</ele><time>2026-04-26T13:58:18Z</time></trkpt><trkpt lat="43.79422038132195" lon="11.547392675175473"><ele>765.0</ele><time>2026-04-26T13:58:19Z</time></trkpt><trkpt lat="43.794063891144475" lon="11.547411773530373"><ele>770.0</ele><time>2026-04-26T13:58:20Z</time></trkpt><trkpt lat="43.793896721662364" lon="11.547408216827233"><ele>775.0</ele><time>2026-04-26T13:58:21Z</time></trkpt><trkpt lat="43.793727708950435" lon="11.547411596029912"><ele>780.0</ele><time>2026-04-26T13:58:22Z</time></trkpt><trkpt lat="43.793563209047186" lon="11.5474342286297"><ele>782.5</ele><time>2026-04-26T13:58:23Z</time></trkpt><trkpt lat="43.79341327514425" lon="11.547477193920002"><ele>785.0</ele><time>2026-04-26T13:58:24Z</time></trkpt><trkpt lat="43.79327402748619" lon="11.547560660492058"><ele>787.5</ele><time>2026-04-26T13:58:25Z</time></trkpt><trkpt lat="43.79316660884951" lon="11.54768892258138"><ele>790.0</ele><time>2026-04-26T13:58:26Z</time></trkpt><trkpt lat="43.79307613801038" lon="11.547858770751205"><ele>785.6666666666666</ele><time>2026-04-26T13:58:27Z</time></trkpt><trkpt lat="43.79301955823865" lon="11.548066949015427"><ele>781.3333333333333</ele><time>2026-04-26T13:58:28Z</time></trkpt><trkpt lat="43.79299222821255" lon="11.548303513614078"><ele>777.0</ele><time>2026-04-26T13:58:29Z</time></trkpt><trkpt lat="43.79298560295378" lon="11.54855396737226"><ele>777.0</ele><time>2026-04-26T13:58:30Z</time></trkpt><trkpt lat="43.792982641764034" lon="11.54881022190751"><ele>777.0</ele><time>2026-04-26T13:58:31Z</time></trkpt><trkpt lat="43.79296442601927" lon="11.549071121911474"><ele>777.0</ele><time>2026-04-26T13:58:32Z</time></trkpt><trkpt lat="43.792953686955784" lon="11.54933985110192"><ele>778.0</ele><time>2026-04-26T13:58:33Z</time></trkpt><trkpt lat="43.79294346137018" lon="11.549606572087846"><ele>779.0</ele><time>2026-04-26T13:58:34Z</time></trkpt><trkpt lat="43.792929551984635" lon="11.549865942094835"><ele>780.0</ele><time>2026-04-26T13:58:35Z</time></trkpt><trkpt lat="43.79291717267189" lon="11.550124249420467"><ele>782.3333333333333</ele><time>2026-04-26T13:58:36Z</time></trkpt><trkpt lat="43.79291219394059" lon="11.550383461464076"><ele>784.6666666666666</ele><time>2026-04-26T13:58:37Z</time></trkpt><trkpt lat="43.79292039752734" lon="11.550647512494585"><ele>787.0</ele><time>2026-04-26T13:58:38Z</time></trkpt><trkpt lat="43.79294248159293" lon="11.550919019012154"><ele>787.0</ele><time>2026-04-26T13:58:39Z</time></trkpt><trkpt lat="43.79296912055455" lon="11.551195944426187"><ele>787.0</ele><time>2026-04-26T13:58:40Z</time></trkpt><trkpt lat="43.79299769482866" lon="11.551473421200773"><ele>787.0</ele><time>2026-04-26T13:58:41Z</time></trkpt><trkpt lat="43.79302497733416" lon="11.551748957766433"><ele>788.3333333333333</ele><time>2026-04-26T13:58:42Z</time></trkpt><trkpt lat="43.79305337853019" lon="11.552019240747574"><ele>789.6666666666667</ele><time>2026-04-26T13:58:43.001Z</time></trkpt><trkpt lat="43.793083105175256" lon="11.552280508559287"><ele>791.0</ele><time>2026-04-26T13:58:44.001Z</time></trkpt><trkpt lat="43.79311219505848" lon="11.55251897402348"><ele>793.25</ele><time>2026-04-26T13:58:45.001Z</time></trkpt><trkpt lat="43.793126351172454" lon="11.552737056329924"><ele>795.5</ele><time>2026-04-26T13:58:46.001Z</time></trkpt><trkpt lat="43.79310338736852" lon="11.552935964276731"><ele>797.75</ele><time>2026-04-26T13:58:47.001Z</time></trkpt><trkpt lat="43.79303008261717" lon="11.553082194024478"><ele>800.0</ele><time>2026-04-26T13:58:48.001Z</time></trkpt><trkpt lat="43.7929293208104" lon="11.553228491495132"><ele>800.6666666666667</ele><time>2026-04-26T13:58:49.001Z</time></trkpt><trkpt lat="43.79282737391866" lon="11.553406152260562"><ele>801.3333333333333</ele><time>2026-04-26T13:58:50.001Z</time></trkpt><trkpt lat="43.79271687471448" lon="11.553584546692132"><ele>802.0</ele><time>2026-04-26T13:58:51.001Z</time></trkpt><trkpt lat="43.79259777235109" lon="11.553771097789825"><ele>804.3333333333333</ele><time>2026-04-26T13:58:52.001Z</time></trkpt><trkpt lat="43.79248815249439" lon="11.55397102667488"><ele>806.6666666666667</ele><time>2026-04-26T13:58:53.001Z</time></trkpt><trkpt lat="43.79238199844291" lon="11.554170481775975"><ele>809.0</ele><time>2026-04-26T13:58:54.001Z</time></trkpt><trkpt lat="43.79227868233711" lon="11.554363406286928"><ele>809.0</ele><time>2026-04-26T13:58:55.001Z</time></trkpt><trkpt lat="43.79215643148987" lon="11.554517639182182"><ele>809.0</ele><time>2026-04-26T13:58:56.001Z</time></trkpt><trkpt lat="43.79203332178001" lon="11.554646429048605"><ele>809.0</ele><time>2026-04-26T13:58:57.001Z</time></trkpt><trkpt lat="43.791919699508725" lon="11.5547763406183"><ele>812.25</ele><time>2026-04-26T13:58:58.001Z</time></trkpt><trkpt lat="43.79180431727109" lon="11.554860120318946"><ele>815.5</ele><time>2026-04-26T13:58:59.001Z</time></trkpt><trkpt lat="43.79170208818989" lon="11.55500399204012"><ele>818.75</ele><time>2026-04-26T13:59:00.001Z</time></trkpt><trkpt lat="43.79163853417583" lon="11.555168188055967"><ele>822.0</ele><time>2026-04-26T13:59:01.001Z</time></trkpt><trkpt lat="43.791619308585986" lon="11.555355456197233"><ele>824.6666666666667</ele><time>2026-04-26T13:59:02.001Z</time></trkpt><trkpt lat="43.791663339612874" lon="11.555546637303696"><ele>827.3333333333334</ele><time>2026-04-26T13:59:03.001Z</time></trkpt><trkpt lat="43.7917467405451" lon="11.555722143583884"><ele>830.0</ele><time>2026-04-26T13:59:04.001Z</time></trkpt><trkpt lat="43.79185038350612" lon="11.555880622043073"><ele>823.25</ele><time>2026-04-26T13:59:05.001Z</time></trkpt><trkpt lat="43.79196780795368" lon="11.55600788020931"><ele>816.5</ele><time>2026-04-26T13:59:06.001Z</time></trkpt><trkpt lat="43.79206382183613" lon="11.556115035790222"><ele>809.75</ele><time>2026-04-26T13:59:07.001Z</time></trkpt><trkpt lat="43.79210974178243" lon="11.556242676494007"><ele>803.0</ele><time>2026-04-26T13:59:08.001Z</time></trkpt><trkpt lat="43.79212922553241" lon="11.556413543255887"><ele>803.0</ele><time>2026-04-26T13:59:09.001Z</time></trkpt><trkpt lat="43.792092831962876" lon="11.556594397674917"><ele>803.0</ele><time>2026-04-26T13:59:10.001Z</time></trkpt><trkpt lat="43.79207018903211" lon="11.556735838429894"><ele>803.0</ele><time>2026-04-26T13:59:11.001Z</time></trkpt><trkpt lat="43.79199718270635" lon="11.556842895097015"><ele>803.0</ele><time>2026-04-26T13:59:12.001Z</time></trkpt><trkpt lat="43.791912688535795" lon="11.55693909403697"><ele>809.0</ele><time>2026-04-26T13:59:13.001Z</time></trkpt><trkpt lat="43.791820169039546" lon="11.556990830034461"><ele>815.0</ele><time>2026-04-26T13:59:14.001Z</time></trkpt><trkpt lat="43.79172947432232" lon="11.557104885070961"><ele>821.0</ele><time>2026-04-26T13:59:15.001Z</time></trkpt><trkpt lat="43.79166527429719" lon="11.557221371057606"><ele>827.0</ele><time>2026-04-26T13:59:16.001Z</time></trkpt><trkpt lat="43.79165913252173" lon="11.557374787225736"><ele>833.0</ele><time>2026-04-26T13:59:17.001Z</time></trkpt><trkpt lat="43.79168729469114" lon="11.557539085412424"><ele>833.0</ele><time>2026-04-26T13:59:18.001Z</time></trkpt><trkpt lat="43.79172644734207" lon="11.557709578412606"><ele>833.0</ele><time>2026-04-26T13:59:19.001Z</time></trkpt><trkpt lat="43.79169855724167" lon="11.55786198114198"><ele>833.0</ele><time>2026-04-26T13:59:20.001Z</time></trkpt><trkpt lat="43.79162599485009" lon="11.557978949864392"><ele>833.0</ele><time>2026-04-26T13:59:21.001Z</time></trkpt><trkpt lat="43.79152527045363" lon="11.558061831680796"><ele>830.0</ele><time>2026-04-26T13:59:22.001Z</time></trkpt><trkpt lat="43.79140812647708" lon="11.558163213005626"><ele>827.0</ele><time>2026-04-26T13:59:23.001Z</time></trkpt><trkpt lat="43.79127434525166" lon="11.558268246209025"><ele>824.0</ele><time>2026-04-26T13:59:24.001Z</time></trkpt><trkpt lat="43.79114086798698" lon="11.558395600424694"><ele>827.0</ele><time>2026-04-26T13:59:25.001Z</time></trkpt><trkpt lat="43.79099432254117" lon="11.55850126797809"><ele>830.0</ele><time>2026-04-26T13:59:26.001Z</time></trkpt><trkpt lat="43.79085478097661" lon="11.55862539693294"><ele>833.0</ele><time>2026-04-26T13:59:27.001Z</time></trkpt><trkpt lat="43.79074549991352" lon="11.558792748158032"><ele>833.0</ele><time>2026-04-26T13:59:28.001Z</time></trkpt><trkpt lat="43.79065471663524" lon="11.558969939781012"><ele>833.0</ele><time>2026-04-26T13:59:29.001Z</time></trkpt><trkpt lat="43.79058082172267" lon="11.559166803266569"><ele>833.0</ele><time>2026-04-26T13:59:30.001Z</time></trkpt><trkpt lat="43.790520113421344" lon="11.559384999930472"><ele>834.6666666666667</ele><time>2026-04-26T13:59:31.001Z</time></trkpt><trkpt lat="43.790480296578636" lon="11.559630771206248"><ele>836.3333333333333</ele><time>2026-04-26T13:59:32.001Z</time></trkpt><trkpt lat="43.79045269700398" lon="11.559875517814644"><ele>838.0</ele><time>2026-04-26T13:59:33.001Z</time></trkpt><trkpt lat="43.79042629082578" lon="11.56011447937387"><ele>838.0</ele><time>2026-04-26T13:59:34.001Z</time></trkpt><trkpt lat="43.790385331160515" lon="11.560346652535413"><ele>838.0</ele><time>2026-04-26T13:59:35.001Z</time></trkpt><trkpt lat="43.79032759232627" lon="11.560549025749376"><ele>838.0</ele><time>2026-04-26T13:59:36.001Z</time></trkpt><trkpt lat="43.79025231048301" lon="11.560740126475965"><ele>836.6666666666666</ele><time>2026-04-26T13:59:37.001Z</time></trkpt><trkpt lat="43.79017314672112" lon="11.560923420571784"><ele>835.3333333333333</ele><time>2026-04-26T13:59:38.001Z</time></trkpt><trkpt lat="43.790099737887864" lon="11.561111220488375"><ele>834.0</ele><time>2026-04-26T13:59:39.001Z</time></trkpt><trkpt lat="43.79004901737974" lon="11.561316164553123"><ele>834.0</ele><time>2026-04-26T13:59:40.001Z</time></trkpt><trkpt lat="43.790015007192544" lon="11.561529500974355"><ele>834.0</ele><time>2026-04-26T13:59:41.001Z</time></trkpt><trkpt lat="43.7899993152984" lon="11.561736845930326"><ele>834.0</ele><time>2026-04-26T13:59:42Z</time></trkpt><trkpt lat="43.790000702752536" lon="11.561939394004815"><ele>833.0</ele><time>2026-04-26T13:59:43Z</time></trkpt><trkpt lat="43.79003178156566" lon="11.562142192964044"><ele>832.0</ele><time>2026-04-26T13:59:44Z</time></trkpt><trkpt lat="43.79008112143046" lon="11.56235895441292"><ele>831.0</ele><time>2026-04-26T13:59:45Z</time></trkpt><trkpt lat="43.79011016878003" lon="11.562574221903489"><ele>831.0</ele><time>2026-04-26T13:59:46Z</time></trkpt><trkpt lat="43.790136637875946" lon="11.562801985772595"><ele>831.0</ele><time>2026-04-26T13:59:47Z</time></trkpt><trkpt lat="43.79015795149962" lon="11.563030375701702"><ele>831.0</ele><time>2026-04-26T13:59:48Z</time></trkpt><trkpt lat="43.7901666356753" lon="11.563259094436606"><ele>831.0</ele><time>2026-04-26T13:59:49Z</time></trkpt><trkpt lat="43.79015450549553" lon="11.56349395887334"><ele>831.0</ele><time>2026-04-26T13:59:50Z</time></trkpt><trkpt lat="43.79012767399973" lon="11.56373034278568"><ele>831.0</ele><time>2026-04-26T13:59:51Z</time></trkpt><trkpt lat="43.79009216621116" lon="11.563964701722961"><ele>832.3333333333333</ele><time>2026-04-26T13:59:52Z</time></trkpt><trkpt lat="43.79004421101378" lon="11.564198606534813"><ele>833.6666666666666</ele><time>2026-04-26T13:59:53Z</time></trkpt><trkpt lat="43.789996687197686" lon="11.564416115145171"><ele>835.0</ele><time>2026-04-26T13:59:54Z</time></trkpt><trkpt lat="43.78995563977331" lon="11.56461419755718"><ele>837.25</ele><time>2026-04-26T13:59:55Z</time></trkpt><trkpt lat="43.78992329377665" lon="11.564799083076299"><ele>839.5</ele><time>2026-04-26T13:59:56Z</time></trkpt><trkpt lat="43.7898862354646" lon="11.5649724474017"><ele>841.75</ele><time>2026-04-26T13:59:57Z</time></trkpt><trkpt lat="43.7898508839413" lon="11.565132589278061"><ele>844.0</ele><time>2026-04-26T13:59:58Z</time></trkpt><trkpt lat="43.789814223554686" lon="11.565278831606461"><ele>849.0</ele><time>2026-04-26T13:59:59Z</time></trkpt><trkpt lat="43.78975098415833" lon="11.565409959827821"><ele>854.0</ele><time>2026-04-26T14:00:00Z</time></trkpt><trkpt lat="43.789639648709425" lon="11.565486252428586"><ele>859.0</ele><time>2026-04-26T14:00:01Z</time></trkpt><trkpt lat="43.789549006701186" lon="11.565590290964359"><ele>864.0</ele><time>2026-04-26T14:00:02Z</time></trkpt><trkpt lat="43.78947023487041" lon="11.565704024234485"><ele>864.0</ele><time>2026-04-26T14:00:03Z</time></trkpt><trkpt lat="43.78938573080418" lon="11.56579727755155"><ele>864.0000000000001</ele><time>2026-04-26T14:00:04Z</time></trkpt><trkpt lat="43.78930975561685" lon="11.56588953448422"><ele>864.0000000000001</ele><time>2026-04-26T14:00:05Z</time></trkpt><trkpt lat="43.78923258738732" lon="11.565981610817456"><ele>864.0</ele><time>2026-04-26T14:00:06Z</time></trkpt><trkpt lat="43.7891541323623" lon="11.566093719528245"><ele>864.0</ele><time>2026-04-26T14:00:07Z</time></trkpt><trkpt lat="43.78907463630869" lon="11.566219119266645"><ele>863.25</ele><time>2026-04-26T14:00:08Z</time></trkpt><trkpt lat="43.78900640859936" lon="11.566358599203763"><ele>862.5</ele><time>2026-04-26T14:00:09Z</time></trkpt><trkpt lat="43.78894934822748" lon="11.566505264801581"><ele>861.75</ele><time>2026-04-26T14:00:10Z</time></trkpt><trkpt lat="43.78890355677707" lon="11.566651996289478"><ele>861.0</ele><time>2026-04-26T14:00:11Z</time></trkpt><trkpt lat="43.78885785098084" lon="11.56679652143366"><ele>861.0</ele><time>2026-04-26T14:00:12Z</time></trkpt><trkpt lat="43.788805081627444" lon="11.566939118131728"><ele>861.0</ele><time>2026-04-26T14:00:13Z</time></trkpt><trkpt lat="43.78874788318384" lon="11.567082340752124"><ele>861.0</ele><time>2026-04-26T14:00:14Z</time></trkpt><trkpt lat="43.7886815896638" lon="11.567209403391056"><ele>861.0</ele><time>2026-04-26T14:00:15Z</time></trkpt><trkpt lat="43.78860338232762" lon="11.56731449299835"><ele>859.1999999999999</ele><time>2026-04-26T14:00:16Z</time></trkpt><trkpt lat="43.78852657620392" lon="11.567408882096018"><ele>857.3999999999999</ele><time>2026-04-26T14:00:17Z</time></trkpt><trkpt lat="43.78845595829535" lon="11.567512543885417"><ele>855.6</ele><time>2026-04-26T14:00:18Z</time></trkpt><trkpt lat="43.78838512886908" lon="11.567613598440643"><ele>853.8</ele><time>2026-04-26T14:00:19Z</time></trkpt><trkpt lat="43.788311110918286" lon="11.567712519945161"><ele>852.0</ele><time>2026-04-26T14:00:20Z</time></trkpt><trkpt lat="43.78824954091099" lon="11.567814461673212"><ele>855.0</ele><time>2026-04-26T14:00:21Z</time></trkpt><trkpt lat="43.788204639681204" lon="11.567933076434457"><ele>858.0</ele><time>2026-04-26T14:00:22Z</time></trkpt><trkpt lat="43.78818710783943" lon="11.568063651390453"><ele>861.0</ele><time>2026-04-26T14:00:23Z</time></trkpt><trkpt lat="43.78820935021462" lon="11.568227671126014"><ele>864.0</ele><time>2026-04-26T14:00:24Z</time></trkpt><trkpt lat="43.78820239642034" lon="11.568414229117804"><ele>867.0</ele><time>2026-04-26T14:00:25Z</time></trkpt><trkpt lat="43.78820244239988" lon="11.568604929730512"><ele>869.5</ele><time>2026-04-26T14:00:26Z</time></trkpt><trkpt lat="43.78819352717787" lon="11.568761266038768"><ele>872.0</ele><time>2026-04-26T14:00:27Z</time></trkpt><trkpt lat="43.78817612785987" lon="11.568904604534993"><ele>874.5</ele><time>2026-04-26T14:00:28Z</time></trkpt><trkpt lat="43.78814968945807" lon="11.569067263669343"><ele>877.0</ele><time>2026-04-26T14:00:29Z</time></trkpt><trkpt lat="43.78812238719476" lon="11.569234743034896"><ele>877.0</ele><time>2026-04-26T14:00:30Z</time></trkpt><trkpt lat="43.788098581948056" lon="11.569393444714455"><ele>877.0</ele><time>2026-04-26T14:00:31Z</time></trkpt><trkpt lat="43.78807587367733" lon="11.569539638981205"><ele>877.0</ele><time>2026-04-26T14:00:32Z</time></trkpt><trkpt lat="43.78806951291754" lon="11.569682996331204"><ele>877.0</ele><time>2026-04-26T14:00:33Z</time></trkpt><trkpt lat="43.788045493203754" lon="11.569809717874817"><ele>877.0</ele><time>2026-04-26T14:00:34Z</time></trkpt><trkpt lat="43.78801934578839" lon="11.569929700621842"><ele>879.2</ele><time>2026-04-26T14:00:35Z</time></trkpt><trkpt lat="43.78800225589297" lon="11.570048752095593"><ele>881.4000000000001</ele><time>2026-04-26T14:00:36Z</time></trkpt><trkpt lat="43.787969167648946" lon="11.570163809850259"><ele>883.5999999999999</ele><time>2026-04-26T14:00:37Z</time></trkpt><trkpt lat="43.787903624329175" lon="11.570256892093544"><ele>885.8</ele><time>2026-04-26T14:00:38Z</time></trkpt><trkpt lat="43.787829298260455" lon="11.570337105554811"><ele>888.0</ele><time>2026-04-26T14:00:39Z</time></trkpt><trkpt lat="43.787762464272305" lon="11.570450603821913"><ele>889.5</ele><time>2026-04-26T14:00:40Z</time></trkpt><trkpt lat="43.7876773159882" lon="11.570557369029224"><ele>891.0</ele><time>2026-04-26T14:00:41Z</time></trkpt><trkpt lat="43.78759962141993" lon="11.570686188418831"><ele>892.5</ele><time>2026-04-26T14:00:42Z</time></trkpt><trkpt lat="43.78754210914017" lon="11.570829238738813"><ele>894.0</ele><time>2026-04-26T14:00:43Z</time></trkpt><trkpt lat="43.787498694702734" lon="11.570974915552505"><ele>891.8000000000001</ele><time>2026-04-26T14:00:44Z</time></trkpt><trkpt lat="43.78746490739926" lon="11.57109853225476"><ele>889.6000000000001</ele><time>2026-04-26T14:00:45Z</time></trkpt><trkpt lat="43.78742983808055" lon="11.57122767707848"><ele>887.4</ele><time>2026-04-26T14:00:46Z</time></trkpt><trkpt lat="43.78738508434698" lon="11.571376666362537"><ele>885.2</ele><time>2026-04-26T14:00:47Z</time></trkpt><trkpt lat="43.78734556568606" lon="11.571552714865842"><ele>883.0</ele><time>2026-04-26T14:00:48Z</time></trkpt><trkpt lat="43.78731065698721" lon="11.571744058280776"><ele>883.0</ele><time>2026-04-26T14:00:49.002Z</time></trkpt><trkpt lat="43.787277623163014" lon="11.571902124979305"><ele>883.0</ele><time>2026-04-26T14:00:50.002Z</time></trkpt><trkpt lat="43.78725489312146" lon="11.572038470370522"><ele>883.0</ele><time>2026-04-26T14:00:51.002Z</time></trkpt><trkpt lat="43.787236207875054" lon="11.572161431673043"><ele>883.0</ele><time>2026-04-26T14:00:52.002Z</time></trkpt><trkpt lat="43.78721905782595" lon="11.572278999647509"><ele>883.0</ele><time>2026-04-26T14:00:53.002Z</time></trkpt><trkpt lat="43.78721038218612" lon="11.572410256291676"><ele>884.5</ele><time>2026-04-26T14:00:54.001Z</time></trkpt><trkpt lat="43.787177431615035" lon="11.572562454284734"><ele>886.0</ele><time>2026-04-26T14:00:55.001Z</time></trkpt><trkpt lat="43.787156425912464" lon="11.57272550536442"><ele>887.5</ele><time>2026-04-26T14:00:56.001Z</time></trkpt><trkpt lat="43.78712924515079" lon="11.572871530278455"><ele>889.0</ele><time>2026-04-26T14:00:57.001Z</time></trkpt><trkpt lat="43.78710394100348" lon="11.573017703450095"><ele>889.2</ele><time>2026-04-26T14:00:58.001Z</time></trkpt><trkpt lat="43.78702287651425" lon="11.573124359460634"><ele>889.4000000000001</ele><time>2026-04-26T14:00:59.001Z</time></trkpt><trkpt lat="43.78695072677645" lon="11.573219878015863"><ele>889.6</ele><time>2026-04-26T14:01:00.001Z</time></trkpt><trkpt lat="43.7868966643412" lon="11.573323081649878"><ele>889.8</ele><time>2026-04-26T14:01:01.001Z</time></trkpt><trkpt lat="43.78681020881825" lon="11.573402162895308"><ele>890.0</ele><time>2026-04-26T14:01:02.001Z</time></trkpt><trkpt lat="43.78672405817202" lon="11.573521638169986"><ele>890.0</ele><time>2026-04-26T14:01:03.001Z</time></trkpt><trkpt lat="43.786634260142044" lon="11.573664407666698"><ele>890.0</ele><time>2026-04-26T14:01:04.001Z</time></trkpt><trkpt lat="43.78655736074065" lon="11.57382008949026"><ele>890.0</ele><time>2026-04-26T14:01:05.001Z</time></trkpt><trkpt lat="43.78649237651133" lon="11.573959237340228"><ele>890.0</ele><time>2026-04-26T14:01:06.001Z</time></trkpt><trkpt lat="43.78643569280086" lon="11.574086635311783"><ele>891.8333333333334</ele><time>2026-04-26T14:01:07.001Z</time></trkpt><trkpt lat="43.78638259653155" lon="11.574203710856093"><ele>893.6666666666667</ele><time>2026-04-26T14:01:08.001Z</time></trkpt><trkpt lat="43.78634754638201" lon="11.574321814718989"><ele>895.5</ele><time>2026-04-26T14:01:09.001Z</time></trkpt><trkpt lat="43.786290855176844" lon="11.574402825815527"><ele>897.3333333333333</ele><time>2026-04-26T14:01:10.001Z</time></trkpt><trkpt lat="43.78624773198355" lon="11.574492503723611"><ele>899.1666666666666</ele><time>2026-04-26T14:01:11.001Z</time></trkpt><trkpt lat="43.78619606040597" lon="11.57458249570224"><ele>901.0</ele><time>2026-04-26T14:01:12.001Z</time></trkpt><trkpt lat="43.7861383808674" lon="11.57465949991816"><ele>901.6666666666666</ele><time>2026-04-26T14:01:13.001Z</time></trkpt><trkpt lat="43.786077633975154" lon="11.57473197799155"><ele>902.3333333333333</ele><time>2026-04-26T14:01:14.001Z</time></trkpt><trkpt lat="43.78601464816459" lon="11.574795977273512"><ele>903.0</ele><time>2026-04-26T14:01:15.001Z</time></trkpt><trkpt lat="43.785949769467294" lon="11.574858520968789"><ele>903.6666666666667</ele><time>2026-04-26T14:01:16.001Z</time></trkpt><trkpt lat="43.78589558160391" lon="11.574938193667927"><ele>904.3333333333334</ele><time>2026-04-26T14:01:17.001Z</time></trkpt><trkpt lat="43.78582188762467" lon="11.57498417808909"><ele>905.0</ele><time>2026-04-26T14:01:18.001Z</time></trkpt><trkpt lat="43.7857589081833" lon="11.57506053316934"><ele>905.0000000000001</ele><time>2026-04-26T14:01:19.001Z</time></trkpt><trkpt lat="43.78571203829695" lon="11.57516269720712"><ele>905.0</ele><time>2026-04-26T14:01:20.001Z</time></trkpt><trkpt lat="43.785660919633905" lon="11.575258233571354"><ele>905.0</ele><time>2026-04-26T14:01:21.001Z</time></trkpt><trkpt lat="43.785617112698205" lon="11.575354804940186"><ele>905.0</ele><time>2026-04-26T14:01:22.001Z</time></trkpt><trkpt lat="43.785577341595896" lon="11.575452867957283"><ele>905.0000000000001</ele><time>2026-04-26T14:01:23.001Z</time></trkpt><trkpt lat="43.785536642296464" lon="11.575544806875348"><ele>905.0</ele><time>2026-04-26T14:01:24.001Z</time></trkpt><trkpt lat="43.785499707708645" lon="11.575643532672796"><ele>907.1666666666667</ele><time>2026-04-26T14:01:25.001Z</time></trkpt><trkpt lat="43.785465107883844" lon="11.575742940953418"><ele>909.3333333333334</ele><time>2026-04-26T14:01:26.001Z</time></trkpt><trkpt lat="43.78543872505774" lon="11.575844759703264"><ele>911.5</ele><time>2026-04-26T14:01:27.001Z</time></trkpt><trkpt lat="43.785423591514615" lon="11.575953466403973"><ele>913.6666666666667</ele><time>2026-04-26T14:01:28.001Z</time></trkpt><trkpt lat="43.785419480205654" lon="11.57606471623716"><ele>915.8333333333334</ele><time>2026-04-26T14:01:29.001Z</time></trkpt><trkpt lat="43.78541738111943" lon="11.576177270275037"><ele>918.0</ele><time>2026-04-26T14:01:30.001Z</time></trkpt><trkpt lat="43.785414357768786" lon="11.576289092902666"><ele>919.3333333333334</ele><time>2026-04-26T14:01:31.001Z</time></trkpt><trkpt lat="43.78540227337322" lon="11.576409393068946"><ele>920.6666666666667</ele><time>2026-04-26T14:01:32.001Z</time></trkpt><trkpt lat="43.785384743018334" lon="11.576530789149642"><ele>922.0</ele><time>2026-04-26T14:01:33.001Z</time></trkpt><trkpt lat="43.785360512697935" lon="11.576652666146682"><ele>923.3333333333334</ele><time>2026-04-26T14:01:34.001Z</time></trkpt><trkpt lat="43.78533376677674" lon="11.576766736244956"><ele>924.6666666666667</ele><time>2026-04-26T14:01:35.001Z</time></trkpt><trkpt lat="43.78530633901474" lon="11.576874938285258"><ele>926.0</ele><time>2026-04-26T14:01:36.001Z</time></trkpt><trkpt lat="43.7852741455193" lon="11.576980853387253"><ele>925.6666666666667</ele><time>2026-04-26T14:01:37.001Z</time></trkpt><trkpt lat="43.78524397988442" lon="11.577087794984106"><ele>925.3333333333334</ele><time>2026-04-26T14:01:38.001Z</time></trkpt><trkpt lat="43.7852149429322" lon="11.577196667252709"><ele>925.0</ele><time>2026-04-26T14:01:39.001Z</time></trkpt><trkpt lat="43.78518369846028" lon="11.577305516123747"><ele>924.6666666666667</ele><time>2026-04-26T14:01:40.001Z</time></trkpt><trkpt lat="43.78515873681414" lon="11.577408635034425"><ele>924.3333333333334</ele><time>2026-04-26T14:01:41.001Z</time></trkpt><trkpt lat="43.785137487604864" lon="11.57751637353721"><ele>924.0</ele><time>2026-04-26T14:01:42.001Z</time></trkpt><trkpt lat="43.7851100830362" lon="11.57761925754965"><ele>924.0</ele><time>2026-04-26T14:01:43.001Z</time></trkpt><trkpt lat="43.78508571863391" lon="11.577720403038116"><ele>924.0</ele><time>2026-04-26T14:01:44.001Z</time></trkpt><trkpt lat="43.78507008248632" lon="11.577825778377463"><ele>924.0</ele><time>2026-04-26T14:01:45.001Z</time></trkpt><trkpt lat="43.785048941157825" lon="11.577931313794357"><ele>924.0</ele><time>2026-04-26T14:01:46.001Z</time></trkpt><trkpt lat="43.7850309513674" lon="11.578028822263722"><ele>924.0</ele><time>2026-04-26T14:01:47.001Z</time></trkpt><trkpt lat="43.78500387700855" lon="11.578125033760422"><ele>924.0</ele><time>2026-04-26T14:01:48.001Z</time></trkpt><trkpt lat="43.784959560690844" lon="11.578215580960139"><ele>926.8333333333334</ele><time>2026-04-26T14:01:49.001Z</time></trkpt><trkpt lat="43.78490400463137" lon="11.578298063729056"><ele>929.6666666666667</ele><time>2026-04-26T14:01:50.001Z</time></trkpt><trkpt lat="43.784833752000594" lon="11.578370800360583"><ele>932.5</ele><time>2026-04-26T14:01:51.001Z</time></trkpt><trkpt lat="43.784757783726" lon="11.578425676522386"><ele>935.3333333333334</ele><time>2026-04-26T14:01:52.001Z</time></trkpt><trkpt lat="43.784677627590774" lon="11.578462026166553"><ele>938.1666666666667</ele><time>2026-04-26T14:01:53.001Z</time></trkpt><trkpt lat="43.784594925313016" lon="11.578492553180036"><ele>941.0</ele><time>2026-04-26T14:01:54.001Z</time></trkpt><trkpt lat="43.7845107685859" lon="11.578517339294638"><ele>941.0000000000001</ele><time>2026-04-26T14:01:55.001Z</time></trkpt><trkpt lat="43.784426467902904" lon="11.57853808855413"><ele>941.0</ele><time>2026-04-26T14:01:56.001Z</time></trkpt><trkpt lat="43.78434317636041" lon="11.578567297096336"><ele>941.0</ele><time>2026-04-26T14:01:57.001Z</time></trkpt><trkpt lat="43.78426293688343" lon="11.578611438089627"><ele>941.0</ele><time>2026-04-26T14:01:58.001Z</time></trkpt><trkpt lat="43.78418768478757" lon="11.578667753021525"><ele>941.0000000000001</ele><time>2026-04-26T14:01:59.001Z</time></trkpt><trkpt lat="43.78411782254997" lon="11.578736609808146"><ele>941.0</ele><time>2026-04-26T14:02:00.001Z</time></trkpt><trkpt lat="43.78405191928457" lon="11.578809476235183"><ele>942.2857142857142</ele><time>2026-04-26T14:02:01.001Z</time></trkpt><trkpt lat="43.78399372186686" lon="11.578890205125079"><ele>943.5714285714286</ele><time>2026-04-26T14:02:02.001Z</time></trkpt><trkpt lat="43.78395073832182" lon="11.578976822902275"><ele>944.8571428571429</ele><time>2026-04-26T14:02:03.001Z</time></trkpt><trkpt lat="43.78392248426201" lon="11.579058322768311"><ele>946.1428571428571</ele><time>2026-04-26T14:02:04.001Z</time></trkpt><trkpt lat="43.78389766347152" lon="11.579139627585857"><ele>947.4285714285716</ele><time>2026-04-26T14:02:05.001Z</time></trkpt><trkpt lat="43.7838780306798" lon="11.57922541646708"><ele>948.7142857142858</ele><time>2026-04-26T14:02:06.001Z</time></trkpt><trkpt lat="43.783858845827716" lon="11.57931119786241"><ele>950.0</ele><time>2026-04-26T14:02:07.001Z</time></trkpt><trkpt lat="43.78383470558094" lon="11.579394037759332"><ele>950.0</ele><time>2026-04-26T14:02:08.001Z</time></trkpt><trkpt lat="43.78379257334259" lon="11.579463894203446"><ele>950.0000000000001</ele><time>2026-04-26T14:02:09.001Z</time></trkpt><trkpt lat="43.783738179087656" lon="11.579517919862317"><ele>950.0</ele><time>2026-04-26T14:02:10.001Z</time></trkpt><trkpt lat="43.783676218164395" lon="11.579556368482429"><ele>950.0</ele><time>2026-04-26T14:02:11.001Z</time></trkpt><trkpt lat="43.78360849545613" lon="11.579589971483758"><ele>950.0000000000001</ele><time>2026-04-26T14:02:12.001Z</time></trkpt><trkpt lat="43.78353527409799" lon="11.579629672184428"><ele>950.0</ele><time>2026-04-26T14:02:13.001Z</time></trkpt><trkpt lat="43.78346401064922" lon="11.579668313801996"><ele>950.0</ele><time>2026-04-26T14:02:14.001Z</time></trkpt><trkpt lat="43.78339688629897" lon="11.579707803906349"><ele>951.2857142857143</ele><time>2026-04-26T14:02:15.001Z</time></trkpt><trkpt lat="43.783331362690774" lon="11.579746095097429"><ele>952.5714285714287</ele><time>2026-04-26T14:02:16.001Z</time></trkpt><trkpt lat="43.78326673792777" lon="11.57978897860209"><ele>953.8571428571429</ele><time>2026-04-26T14:02:17.001Z</time></trkpt><trkpt lat="43.78320353843979" lon="11.579834407358844"><ele>955.1428571428571</ele><time>2026-04-26T14:02:18.001Z</time></trkpt><trkpt lat="43.783143085382065" lon="11.579876643199954"><ele>956.4285714285714</ele><time>2026-04-26T14:02:19.001Z</time></trkpt><trkpt lat="43.78308515187205" lon="11.579925549970737"><ele>957.7142857142858</ele><time>2026-04-26T14:02:20.001Z</time></trkpt><trkpt lat="43.78303228525393" lon="11.579988881905445"><ele>959.0</ele><time>2026-04-26T14:02:21Z</time></trkpt><trkpt lat="43.78298365820363" lon="11.58006386101305"><ele>959.0</ele><time>2026-04-26T14:02:22Z</time></trkpt><trkpt lat="43.78293792827517" lon="11.580143891911781"><ele>959.0</ele><time>2026-04-26T14:02:23Z</time></trkpt><trkpt lat="43.78290302077428" lon="11.580233619270905"><ele>959.0</ele><time>2026-04-26T14:02:24Z</time></trkpt><trkpt lat="43.78287082653146" lon="11.580322521882998"><ele>959.0</ele><time>2026-04-26T14:02:25Z</time></trkpt><trkpt lat="43.78284908090554" lon="11.580418509936866"><ele>959.0</ele><time>2026-04-26T14:02:26Z</time></trkpt><trkpt lat="43.782826167567684" lon="11.580513531567789"><ele>959.0</ele><time>2026-04-26T14:02:27Z</time></trkpt><trkpt lat="43.78280091350621" lon="11.580611348414198"><ele>959.0</ele><time>2026-04-26T14:02:28Z</time></trkpt><trkpt lat="43.78276664513541" lon="11.580715521299396"><ele>958.6666666666667</ele><time>2026-04-26T14:02:29Z</time></trkpt><trkpt lat="43.782718275445546" lon="11.580807725116093"><ele>958.3333333333334</ele><time>2026-04-26T14:02:30Z</time></trkpt><trkpt lat="43.78266808910126" lon="11.580898570311707"><ele>958.0</ele><time>2026-04-26T14:02:31Z</time></trkpt><trkpt lat="43.78261545722946" lon="11.580987051118885"><ele>957.6666666666667</ele><time>2026-04-26T14:02:32Z</time></trkpt><trkpt lat="43.782562307113565" lon="11.581073389729335"><ele>957.3333333333334</ele><time>2026-04-26T14:02:33Z</time></trkpt><trkpt lat="43.78251060604003" lon="11.581158453645257"><ele>957.0</ele><time>2026-04-26T14:02:33.999Z</time></trkpt><trkpt lat="43.782462435268286" lon="11.581245422724924"><ele>960.6666666666666</ele><time>2026-04-26T14:02:34.999Z</time></trkpt><trkpt lat="43.7824143496602" lon="11.581329066056021"><ele>964.3333333333333</ele><time>2026-04-26T14:02:35.999Z</time></trkpt><trkpt lat="43.78236317337115" lon="11.581414856041238"><ele>968.0</ele><time>2026-04-26T14:02:36.999Z</time></trkpt><trkpt lat="43.78230331656821" lon="11.581502474668808"><ele>971.6666666666666</ele><time>2026-04-26T14:02:37.999Z</time></trkpt><trkpt lat="43.78223417040411" lon="11.581574479319016"><ele>975.3333333333333</ele><time>2026-04-26T14:02:38.999Z</time></trkpt><trkpt lat="43.782164340051224" lon="11.581635275579705"><ele>979.0</ele><time>2026-04-26T14:02:39.999Z</time></trkpt><trkpt lat="43.782094837280674" lon="11.581685898341297"><ele>978.9999999999999</ele><time>2026-04-26T14:02:40.999Z</time></trkpt><trkpt lat="43.78202570644397" lon="11.581734139966866"><ele>979.0</ele><time>2026-04-26T14:02:41.999Z</time></trkpt><trkpt lat="43.78195566621868" lon="11.581780518209913"><ele>979.0</ele><time>2026-04-26T14:02:42.999Z</time></trkpt><trkpt lat="43.78187986979614" lon="11.581824645859543"><ele>979.0</ele><time>2026-04-26T14:02:43.999Z</time></trkpt><trkpt lat="43.78180058863924" lon="11.581862440773595"><ele>978.9999999999999</ele><time>2026-04-26T14:02:44.999Z</time></trkpt><trkpt lat="43.78172557444526" lon="11.581891074123131"><ele>979.0</ele><time>2026-04-26T14:02:45.999Z</time></trkpt><trkpt lat="43.78165807217898" lon="11.581909039738953"><ele>980.6666666666666</ele><time>2026-04-26T14:02:46.999Z</time></trkpt><trkpt lat="43.78159290321027" lon="11.58192549428355"><ele>982.3333333333333</ele><time>2026-04-26T14:02:47.999Z</time></trkpt><trkpt lat="43.78152961316458" lon="11.581949239837822"><ele>984.0</ele><time>2026-04-26T14:02:48.999Z</time></trkpt><trkpt lat="43.78147476335259" lon="11.581993562018736"><ele>985.6666666666667</ele><time>2026-04-26T14:02:49.999Z</time></trkpt><trkpt lat="43.78138913503078" lon="11.582121241350736"><ele>987.3333333333334</ele><time>2026-04-26T14:02:51.999Z</time></trkpt><trkpt lat="43.78136315800596" lon="11.582214680853069"><ele>989.0</ele><time>2026-04-26T14:02:52.999Z</time></trkpt><trkpt lat="43.781339819115885" lon="11.582315467577587"><ele>989.0000000000001</ele><time>2026-04-26T14:02:53.999Z</time></trkpt><trkpt lat="43.781326600902325" lon="11.582491992877362"><ele>989.0</ele><time>2026-04-26T14:02:56.001Z</time></trkpt><trkpt lat="43.78132079154328" lon="11.58258602544997"><ele>989.0</ele><time>2026-04-26T14:02:57.001Z</time></trkpt><trkpt lat="43.78131619894038" lon="11.58267697135349"><ele>989.0</ele><time>2026-04-26T14:02:58.001Z</time></trkpt><trkpt lat="43.78131334876134" lon="11.582767151505273"><ele>989.0000000000001</ele><time>2026-04-26T14:02:59.001Z</time></trkpt><trkpt lat="43.781308644495134" lon="11.582855015528734"><ele>989.0</ele><time>2026-04-26T14:03:00.001Z</time></trkpt><trkpt lat="43.78129812757854" lon="11.583026802651004"><ele>991.2</ele><time>2026-04-26T14:03:02.001Z</time></trkpt><trkpt lat="43.78127374754667" lon="11.583186950446512"><ele>993.4000000000001</ele><time>2026-04-26T14:03:04.001Z</time></trkpt><trkpt lat="43.78127682945676" lon="11.583311924834245"><ele>995.6</ele><time>2026-04-26T14:03:06Z</time></trkpt><trkpt lat="43.78123106438455" lon="11.583416203970074"><ele>997.8</ele><time>2026-04-26T14:03:08Z</time></trkpt><trkpt lat="43.78117165602903" lon="11.58347686046313"><ele>1000.0</ele><time>2026-04-26T14:03:10Z</time></trkpt><trkpt lat="43.781088436184014" lon="11.583508501332554"><ele>999.0</ele><time>2026-04-26T14:03:12Z</time></trkpt><trkpt lat="43.780987783971206" lon="11.583531605460605"><ele>998.0</ele><time>2026-04-26T14:03:14Z</time></trkpt><trkpt lat="43.78090560044869" lon="11.583589049420938"><ele>997.0</ele><time>2026-04-26T14:03:16Z</time></trkpt><trkpt lat="43.78085389179218" lon="11.583698229016655"><ele>996.0</ele><time>2026-04-26T14:03:18Z</time></trkpt><trkpt lat="43.78083548359456" lon="11.583828805321504"><ele>995.0</ele><time>2026-04-26T14:03:20Z</time></trkpt><trkpt lat="43.78083211073583" lon="11.583966465086004"><ele>995.0000000000001</ele><time>2026-04-26T14:03:22Z</time></trkpt><trkpt lat="43.78082990152148" lon="11.584134427592694"><ele>995.0</ele><time>2026-04-26T14:03:24Z</time></trkpt><trkpt lat="43.78081095281158" lon="11.5842235767477"><ele>995.0</ele><time>2026-04-26T14:03:25Z</time></trkpt><trkpt lat="43.78078484474724" lon="11.584309357516021"><ele>995.0</ele><time>2026-04-26T14:03:26Z</time></trkpt><trkpt lat="43.78073770399464" lon="11.584388423750221"><ele>995.0000000000001</ele><time>2026-04-26T14:03:27Z</time></trkpt><trkpt lat="43.78065217341335" lon="11.584461913570756"><ele>995.0</ele><time>2026-04-26T14:03:28Z</time></trkpt><trkpt lat="43.78056796905075" lon="11.584576243262953"><ele>998.25</ele><time>2026-04-26T14:03:29Z</time></trkpt><trkpt lat="43.7804655600536" lon="11.584681418390472"><ele>1001.5</ele><time>2026-04-26T14:03:30Z</time></trkpt><trkpt lat="43.78034858288597" lon="11.58481026164169"><ele>1004.75</ele><time>2026-04-26T14:03:31Z</time></trkpt><trkpt lat="43.78023595043494" lon="11.584940845589681"><ele>1008.0</ele><time>2026-04-26T14:03:32Z</time></trkpt><trkpt lat="43.78013081068946" lon="11.585092243938917"><ele>1008.5</ele><time>2026-04-26T14:03:33Z</time></trkpt><trkpt lat="43.78008743164691" lon="11.585267645739918"><ele>1009.0</ele><time>2026-04-26T14:03:34Z</time></trkpt><trkpt lat="43.77997217262733" lon="11.585386942729826"><ele>1009.5</ele><time>2026-04-26T14:03:35Z</time></trkpt><trkpt lat="43.77985191152797" lon="11.585467628825858"><ele>1010.0</ele><time>2026-04-26T14:03:36Z</time></trkpt><trkpt lat="43.77972262233722" lon="11.585515891299433"><ele>1011.6</ele><time>2026-04-26T14:03:37Z</time></trkpt><trkpt lat="43.77961762620333" lon="11.585590719334302"><ele>1013.2</ele><time>2026-04-26T14:03:38Z</time></trkpt><trkpt lat="43.7795480459837" lon="11.585694394406726"><ele>1014.8</ele><time>2026-04-26T14:03:39Z</time></trkpt><trkpt lat="43.77952187823749" lon="11.585833313692223"><ele>1016.4</ele><time>2026-04-26T14:03:40Z</time></trkpt><trkpt lat="43.77954147523718" lon="11.5859895048419"><ele>1018.0</ele><time>2026-04-26T14:03:41Z</time></trkpt><trkpt lat="43.77954960263295" lon="11.586151751291103"><ele>1017.75</ele><time>2026-04-26T14:03:42Z</time></trkpt><trkpt lat="43.77949919632062" lon="11.586303607495058"><ele>1017.5</ele><time>2026-04-26T14:03:43Z</time></trkpt><trkpt lat="43.77940674403412" lon="11.58644139568521"><ele>1017.25</ele><time>2026-04-26T14:03:44Z</time></trkpt><trkpt lat="43.779293330122464" lon="11.58655820744808"><ele>1017.0</ele><time>2026-04-26T14:03:45Z</time></trkpt><trkpt lat="43.779181632800466" lon="11.586683581522012"><ele>1016.0</ele><time>2026-04-26T14:03:46Z</time></trkpt><trkpt lat="43.77907452491136" lon="11.586850217856611"><ele>1015.0</ele><time>2026-04-26T14:03:47Z</time></trkpt><trkpt lat="43.77898684145625" lon="11.587038376395066"><ele>1014.0</ele><time>2026-04-26T14:03:48Z</time></trkpt><trkpt lat="43.778926552424025" lon="11.587253947145088"><ele>1014.0</ele><time>2026-04-26T14:03:49Z</time></trkpt><trkpt lat="43.77889336109165" lon="11.587476568583137"><ele>1014.0</ele><time>2026-04-26T14:03:50Z</time></trkpt><trkpt lat="43.77888935814848" lon="11.58771762491813"><ele>1014.0</ele><time>2026-04-26T14:03:51Z</time></trkpt><trkpt lat="43.77890116658316" lon="11.587958199014873"><ele>1012.6666666666667</ele><time>2026-04-26T14:03:52Z</time></trkpt><trkpt lat="43.77892064020277" lon="11.588199020143385"><ele>1011.3333333333334</ele><time>2026-04-26T14:03:53Z</time></trkpt><trkpt lat="43.7789359377446" lon="11.588440997136093"><ele>1010.0</ele><time>2026-04-26T14:03:54Z</time></trkpt><trkpt lat="43.77891583260718" lon="11.58869034080778"><ele>1008.3333333333334</ele><time>2026-04-26T14:03:55Z</time></trkpt><trkpt lat="43.77886277835456" lon="11.58893725744991"><ele>1006.6666666666667</ele><time>2026-04-26T14:03:56Z</time></trkpt><trkpt lat="43.778793107281714" lon="11.589158193232619"><ele>1005.0</ele><time>2026-04-26T14:03:57Z</time></trkpt><trkpt lat="43.77870580884904" lon="11.589355415935094"><ele>1003.3333333333333</ele><time>2026-04-26T14:03:58Z</time></trkpt><trkpt lat="43.778597570098164" lon="11.589518451452383"><ele>1001.6666666666666</ele><time>2026-04-26T14:03:59Z</time></trkpt><trkpt lat="43.77847066315943" lon="11.589641789490296"><ele>1000.0</ele><time>2026-04-26T14:04:00Z</time></trkpt><trkpt lat="43.77834051341229" lon="11.589760774457803"><ele>1005.25</ele><time>2026-04-26T14:04:01Z</time></trkpt><trkpt lat="43.778251581336626" lon="11.589923185815401"><ele>1010.5</ele><time>2026-04-26T14:04:02Z</time></trkpt><trkpt lat="43.778197687094504" lon="11.590112278239305"><ele>1015.75</ele><time>2026-04-26T14:04:03Z</time></trkpt><trkpt lat="43.77817250621931" lon="11.590305845992694"><ele>1021.0</ele><time>2026-04-26T14:04:04Z</time></trkpt><trkpt lat="43.77817392332401" lon="11.59052378775368"><ele>1021.0</ele><time>2026-04-26T14:04:05Z</time></trkpt><trkpt lat="43.778230612877195" lon="11.590758318082662"><ele>1021.0</ele><time>2026-04-26T14:04:06Z</time></trkpt><trkpt lat="43.778285251797584" lon="11.590984024986438"><ele>1021.0</ele><time>2026-04-26T14:04:07Z</time></trkpt><trkpt lat="43.778319961496365" lon="11.591221843576813"><ele>1021.0</ele><time>2026-04-26T14:04:08Z</time></trkpt><trkpt lat="43.77834199749606" lon="11.591457382569603"><ele>1021.0</ele><time>2026-04-26T14:04:09Z</time></trkpt><trkpt lat="43.778321494264866" lon="11.591683266956162"><ele>1021.0</ele><time>2026-04-26T14:04:10Z</time></trkpt><trkpt lat="43.7782688787908" lon="11.591896263196888"><ele>1021.75</ele><time>2026-04-26T14:04:11Z</time></trkpt><trkpt lat="43.77820153008051" lon="11.592089959858157"><ele>1022.5</ele><time>2026-04-26T14:04:12Z</time></trkpt><trkpt lat="43.77815154586848" lon="11.592263051667233"><ele>1023.25</ele><time>2026-04-26T14:04:13Z</time></trkpt><trkpt lat="43.77813826705508" lon="11.592425691135995"><ele>1024.0</ele><time>2026-04-26T14:04:14Z</time></trkpt><trkpt lat="43.7781692644027" lon="11.592569936648623"><ele>1024.0</ele><time>2026-04-26T14:04:15Z</time></trkpt><trkpt lat="43.778246640177" lon="11.592677765167142"><ele>1024.0</ele><time>2026-04-26T14:04:16Z</time></trkpt><trkpt lat="43.77835712058581" lon="11.592714205336662"><ele>1024.0</ele><time>2026-04-26T14:04:17Z</time></trkpt><trkpt lat="43.77848111312668" lon="11.592676874121674"><ele>1024.0</ele><time>2026-04-26T14:04:18Z</time></trkpt><trkpt lat="43.778605991264136" lon="11.592589260903996"><ele>1023.5</ele><time>2026-04-26T14:04:19Z</time></trkpt><trkpt lat="43.77873166777261" lon="11.592492822668783"><ele>1023.0</ele><time>2026-04-26T14:04:20Z</time></trkpt><trkpt lat="43.77886419223352" lon="11.592422044470824"><ele>1022.5</ele><time>2026-04-26T14:04:21Z</time></trkpt><trkpt lat="43.779002990365335" lon="11.592384312252216"><ele>1022.0</ele><time>2026-04-26T14:04:22Z</time></trkpt><trkpt lat="43.77914754354678" lon="11.59241445336748"><ele>1022.0</ele><time>2026-04-26T14:04:23Z</time></trkpt><trkpt lat="43.77929273133718" lon="11.592456327669154"><ele>1022.0</ele><time>2026-04-26T14:04:24Z</time></trkpt><trkpt lat="43.77942454459216" lon="11.592515656000147"><ele>1022.0</ele><time>2026-04-26T14:04:25Z</time></trkpt><trkpt lat="43.779536025479715" lon="11.592639766525984"><ele>1022.0</ele><time>2026-04-26T14:04:26Z</time></trkpt><trkpt lat="43.77959492808179" lon="11.59282149722683"><ele>1021.0</ele><time>2026-04-26T14:04:27Z</time></trkpt><trkpt lat="43.77963632402547" lon="11.59301268107065"><ele>1020.0</ele><time>2026-04-26T14:04:28Z</time></trkpt><trkpt lat="43.77964859840232" lon="11.593225640691578"><ele>1019.0</ele><time>2026-04-26T14:04:29Z</time></trkpt><trkpt lat="43.77961301433624" lon="11.59344162704041"><ele>1019.0</ele><time>2026-04-26T14:04:30Z</time></trkpt><trkpt lat="43.77958300646276" lon="11.593661633247981"><ele>1019.0</ele><time>2026-04-26T14:04:31Z</time></trkpt><trkpt lat="43.77957804534816" lon="11.593890198606132"><ele>1019.0</ele><time>2026-04-26T14:04:32Z</time></trkpt><trkpt lat="43.77959462993341" lon="11.594128937151972"><ele>1018.6666666666667</ele><time>2026-04-26T14:04:33Z</time></trkpt><trkpt lat="43.7796250674604" lon="11.594359253652316"><ele>1018.3333333333333</ele><time>2026-04-26T14:04:34Z</time></trkpt><trkpt lat="43.779654239262825" lon="11.594578574695698"><ele>1018.0</ele><time>2026-04-26T14:04:35Z</time></trkpt><trkpt lat="43.77968179543748" lon="11.594790485670117"><ele>1018.0</ele><time>2026-04-26T14:04:36Z</time></trkpt><trkpt lat="43.77971723599484" lon="11.594993737710666"><ele>1018.0</ele><time>2026-04-26T14:04:37Z</time></trkpt><trkpt lat="43.77978957071754" lon="11.595185373077728"><ele>1018.0</ele><time>2026-04-26T14:04:38Z</time></trkpt><trkpt lat="43.779887104344795" lon="11.59534901927364"><ele>1017.75</ele><time>2026-04-26T14:04:39Z</time></trkpt><trkpt lat="43.78000311237428" lon="11.595471841093632"><ele>1017.5</ele><time>2026-04-26T14:04:40Z</time></trkpt><trkpt lat="43.780119577888875" lon="11.595571986629638"><ele>1017.25</ele><time>2026-04-26T14:04:41Z</time></trkpt><trkpt lat="43.7802240823801" lon="11.595665897866418"><ele>1017.0</ele><time>2026-04-26T14:04:42Z</time></trkpt><trkpt lat="43.780317492128" lon="11.595762018353273"><ele>1017.0</ele><time>2026-04-26T14:04:43Z</time></trkpt><trkpt lat="43.780405184150474" lon="11.595850457312334"><ele>1017.0</ele><time>2026-04-26T14:04:44Z</time></trkpt><trkpt lat="43.78047780280037" lon="11.595931957292162"><ele>1017.0</ele><time>2026-04-26T14:04:45Z</time></trkpt><trkpt lat="43.78053782023825" lon="11.596031939836795"><ele>1017.0</ele><time>2026-04-26T14:04:46Z</time></trkpt><trkpt lat="43.780611852137774" lon="11.596123337944157"><ele>1017.0</ele><time>2026-04-26T14:04:47Z</time></trkpt><trkpt lat="43.780696239532254" lon="11.59621511960799"><ele>1018.25</ele><time>2026-04-26T14:04:48Z</time></trkpt><trkpt lat="43.780786257453826" lon="11.596313151989321"><ele>1019.5</ele><time>2026-04-26T14:04:49Z</time></trkpt><trkpt lat="43.78089256099368" lon="11.596390635573194"><ele>1020.75</ele><time>2026-04-26T14:04:50Z</time></trkpt><trkpt lat="43.78098537204808" lon="11.596483463070701"><ele>1022.0</ele><time>2026-04-26T14:04:51Z</time></trkpt><trkpt lat="43.78106300412635" lon="11.59659265117677"><ele>1022.0</ele><time>2026-04-26T14:04:52Z</time></trkpt><trkpt lat="43.78110966460844" lon="11.596733098612289"><ele>1022.0</ele><time>2026-04-26T14:04:53Z</time></trkpt><trkpt lat="43.78118192486186" lon="11.596855427208064"><ele>1022.0</ele><time>2026-04-26T14:04:54Z</time></trkpt><trkpt lat="43.78124336231947" lon="11.596986096281015"><ele>1022.0</ele><time>2026-04-26T14:04:55Z</time></trkpt><trkpt lat="43.781315112317934" lon="11.59711355925607"><ele>1022.75</ele><time>2026-04-26T14:04:56Z</time></trkpt><trkpt lat="43.781392896506304" lon="11.597237614697658"><ele>1023.5</ele><time>2026-04-26T14:04:57Z</time></trkpt><trkpt lat="43.78148888420659" lon="11.597353799682136"><ele>1024.25</ele><time>2026-04-26T14:04:58Z</time></trkpt><trkpt lat="43.781589804665096" lon="11.597460431880336"><ele>1025.0</ele><time>2026-04-26T14:04:59Z</time></trkpt><trkpt lat="43.781708253658984" lon="11.597548358512885"><ele>1025.0</ele><time>2026-04-26T14:05:00Z</time></trkpt><trkpt lat="43.781831016832285" lon="11.59763047512994"><ele>1025.0</ele><time>2026-04-26T14:05:01.001Z</time></trkpt><trkpt lat="43.781953205668984" lon="11.597715623904234"><ele>1025.0</ele><time>2026-04-26T14:05:02.001Z</time></trkpt><trkpt lat="43.78207877752" lon="11.597794575089027"><ele>1025.0</ele><time>2026-04-26T14:05:03.001Z</time></trkpt><trkpt lat="43.782205943874004" lon="11.597875643409061"><ele>1028.25</ele><time>2026-04-26T14:05:04.001Z</time></trkpt><trkpt lat="43.78233196211055" lon="11.597968600912395"><ele>1031.5</ele><time>2026-04-26T14:05:05.001Z</time></trkpt><trkpt lat="43.7824573463535" lon="11.598077430649873"><ele>1034.75</ele><time>2026-04-26T14:05:06.001Z</time></trkpt><trkpt lat="43.78257151430435" lon="11.59821355788962"><ele>1038.0</ele><time>2026-04-26T14:05:07.001Z</time></trkpt><trkpt lat="43.78264523223549" lon="11.59840256760793"><ele>1041.25</ele><time>2026-04-26T14:05:08.001Z</time></trkpt><trkpt lat="43.78272612661257" lon="11.598587475266806"><ele>1044.5</ele><time>2026-04-26T14:05:09.001Z</time></trkpt><trkpt lat="43.78279862054327" lon="11.598765813510438"><ele>1047.75</ele><time>2026-04-26T14:05:10.001Z</time></trkpt><trkpt lat="43.78284658980938" lon="11.598954244675358"><ele>1051.0</ele><time>2026-04-26T14:05:11.001Z</time></trkpt><trkpt lat="43.78288538218765" lon="11.599160531641349"><ele>1051.0</ele><time>2026-04-26T14:05:12.001Z</time></trkpt><trkpt lat="43.78289043845056" lon="11.599377510069289"><ele>1051.0</ele><time>2026-04-26T14:05:13.001Z</time></trkpt><trkpt lat="43.782919883563764" lon="11.599597773311865"><ele>1051.0</ele><time>2026-04-26T14:05:14.001Z</time></trkpt><trkpt lat="43.78292812369211" lon="11.59982528871401"><ele>1052.6666666666665</ele><time>2026-04-26T14:05:15.001Z</time></trkpt><trkpt lat="43.782941763904205" lon="11.600063128458968"><ele>1054.3333333333333</ele><time>2026-04-26T14:05:16.001Z</time></trkpt><trkpt lat="43.78295766722604" lon="11.600303179834793"><ele>1056.0</ele><time>2026-04-26T14:05:17.001Z</time></trkpt><trkpt lat="43.78297094210064" lon="11.60054315655661"><ele>1059.3333333333333</ele><time>2026-04-26T14:05:18.001Z</time></trkpt><trkpt lat="43.78296724263599" lon="11.600776643977474"><ele>1062.6666666666665</ele><time>2026-04-26T14:05:19Z</time></trkpt><trkpt lat="43.78294644660165" lon="11.600998468034103"><ele>1066.0</ele><time>2026-04-26T14:05:20Z</time></trkpt><trkpt lat="43.7829191522901" lon="11.601197703514575"><ele>1066.5</ele><time>2026-04-26T14:05:21Z</time></trkpt><trkpt lat="43.78290007394874" lon="11.601376720625431"><ele>1067.0</ele><time>2026-04-26T14:05:22Z</time></trkpt><trkpt lat="43.782904219520056" lon="11.601553428090728"><ele>1067.5</ele><time>2026-04-26T14:05:23Z</time></trkpt><trkpt lat="43.78294712411402" lon="11.601730706744641"><ele>1068.0</ele><time>2026-04-26T14:05:24Z</time></trkpt><trkpt lat="43.78302306321587" lon="11.601887862044348"><ele>1070.0</ele><time>2026-04-26T14:05:25Z</time></trkpt><trkpt lat="43.78312695423877" lon="11.602016748423631"><ele>1072.0</ele><time>2026-04-26T14:05:26Z</time></trkpt><trkpt lat="43.78325406327533" lon="11.602108920231139"><ele>1074.0</ele><time>2026-04-26T14:05:27Z</time></trkpt><trkpt lat="43.78339633542767" lon="11.602162736610907"><ele>1076.0</ele><time>2026-04-26T14:05:28Z</time></trkpt><trkpt lat="43.78352505333507" lon="11.602256982123052"><ele>1076.0</ele><time>2026-04-26T14:05:29Z</time></trkpt><trkpt lat="43.78360066410688" lon="11.60246024125862"><ele>1076.0</ele><time>2026-04-26T14:05:30Z</time></trkpt><trkpt lat="43.78370326570384" lon="11.602654654400586"><ele>1076.0</ele><time>2026-04-26T14:05:31Z</time></trkpt><trkpt lat="43.7838178976323" lon="11.602843770147361"><ele>1071.3333333333335</ele><time>2026-04-26T14:05:32Z</time></trkpt><trkpt lat="43.78391704067337" lon="11.603037178531446"><ele>1066.6666666666667</ele><time>2026-04-26T14:05:33Z</time></trkpt><trkpt lat="43.78401438924551" lon="11.60322137315929"><ele>1062.0</ele><time>2026-04-26T14:05:34Z</time></trkpt><trkpt lat="43.78410902203558" lon="11.603399666983956"><ele>1062.0</ele><time>2026-04-26T14:05:35Z</time></trkpt><trkpt lat="43.78420053210579" lon="11.603572469449883"><ele>1062.0</ele><time>2026-04-26T14:05:36Z</time></trkpt><trkpt lat="43.78427081046415" lon="11.603712837090264"><ele>1062.0</ele><time>2026-04-26T14:05:37Z</time></trkpt><trkpt lat="43.7843715071666" lon="11.603885927214508"><ele>1062.0</ele><time>2026-04-26T14:05:38Z</time></trkpt><trkpt lat="43.78447621785332" lon="11.603985942895758"><ele>1060.25</ele><time>2026-04-26T14:05:39Z</time></trkpt><trkpt lat="43.784607963847236" lon="11.604033948737692"><ele>1058.5</ele><time>2026-04-26T14:05:40Z</time></trkpt><trkpt lat="43.78475690991388" lon="11.604040028293035"><ele>1056.75</ele><time>2026-04-26T14:05:41Z</time></trkpt><trkpt lat="43.78491267633723" lon="11.604072054126327"><ele>1055.0</ele><time>2026-04-26T14:05:42Z</time></trkpt><trkpt lat="43.78506372757224" lon="11.6041116100127"><ele>1056.5</ele><time>2026-04-26T14:05:43Z</time></trkpt><trkpt lat="43.785207388727144" lon="11.60416942920737"><ele>1058.0</ele><time>2026-04-26T14:05:44Z</time></trkpt><trkpt lat="43.785340778513515" lon="11.604240948778381"><ele>1059.5</ele><time>2026-04-26T14:05:45Z</time></trkpt><trkpt lat="43.78545044855372" lon="11.604319407507806"><ele>1061.0</ele><time>2026-04-26T14:05:46Z</time></trkpt><trkpt lat="43.78551667578517" lon="11.60442989908492"><ele>1059.5</ele><time>2026-04-26T14:05:47Z</time></trkpt><trkpt lat="43.785553760958194" lon="11.604579555878137"><ele>1058.0</ele><time>2026-04-26T14:05:48Z</time></trkpt><trkpt lat="43.785521604677484" lon="11.604769963754892"><ele>1056.5</ele><time>2026-04-26T14:05:49Z</time></trkpt><trkpt lat="43.78544179606357" lon="11.6049429712884"><ele>1055.0</ele><time>2026-04-26T14:05:50Z</time></trkpt><trkpt lat="43.785330719826646" lon="11.605106716112525"><ele>1055.0</ele><time>2026-04-26T14:05:51Z</time></trkpt><trkpt lat="43.78523400879829" lon="11.605304757091867"><ele>1055.0</ele><time>2026-04-26T14:05:52Z</time></trkpt><trkpt lat="43.78515032069269" lon="11.605520516695794"><ele>1055.0</ele><time>2026-04-26T14:05:53Z</time></trkpt><trkpt lat="43.78505962249216" lon="11.605729426311813"><ele>1050.6666666666667</ele><time>2026-04-26T14:05:54Z</time></trkpt><trkpt lat="43.78496897525947" lon="11.60593258776731"><ele>1046.3333333333333</ele><time>2026-04-26T14:05:55Z</time></trkpt><trkpt lat="43.78488204812173" lon="11.606131064197909"><ele>1042.0</ele><time>2026-04-26T14:05:56Z</time></trkpt><trkpt lat="43.784806578823414" lon="11.606342103423582"><ele>1042.0</ele><time>2026-04-26T14:05:57Z</time></trkpt><trkpt lat="43.78475803763729" lon="11.60657652032288"><ele>1042.0</ele><time>2026-04-26T14:05:58Z</time></trkpt><trkpt lat="43.78475234280464" lon="11.60682621904281"><ele>1042.0</ele><time>2026-04-26T14:05:59Z</time></trkpt><trkpt lat="43.78479952081366" lon="11.607100245670825"><ele>1040.0</ele><time>2026-04-26T14:06:00Z</time></trkpt><trkpt lat="43.784838647858926" lon="11.607358654210712"><ele>1038.0</ele><time>2026-04-26T14:06:01Z</time></trkpt><trkpt lat="43.78487328742781" lon="11.6076196318265"><ele>1036.0</ele><time>2026-04-26T14:06:02Z</time></trkpt><trkpt lat="43.78489634819834" lon="11.607881353518737"><ele>1035.3333333333333</ele><time>2026-04-26T14:06:03Z</time></trkpt><trkpt lat="43.78496453406714" lon="11.608185577584083"><ele>1034.6666666666667</ele><time>2026-04-26T14:06:04Z</time></trkpt><trkpt lat="43.78501496357725" lon="11.608479991637994"><ele>1034.0</ele><time>2026-04-26T14:06:05Z</time></trkpt><trkpt lat="43.785067370045745" lon="11.608777117059654"><ele>1034.0</ele><time>2026-04-26T14:06:06Z</time></trkpt><trkpt lat="43.78511907337836" lon="11.609073982217812"><ele>1034.0</ele><time>2026-04-26T14:06:07Z</time></trkpt><trkpt lat="43.78516608562729" lon="11.609360080176982"><ele>1034.0</ele><time>2026-04-26T14:06:08Z</time></trkpt><trkpt lat="43.78521218414281" lon="11.609636562579855"><ele>1030.3333333333335</ele><time>2026-04-26T14:06:09Z</time></trkpt><trkpt lat="43.7852555136416" lon="11.609894006056091"><ele>1026.6666666666667</ele><time>2026-04-26T14:06:10Z</time></trkpt><trkpt lat="43.78529506755524" lon="11.610131346978266"><ele>1023.0</ele><time>2026-04-26T14:06:11Z</time></trkpt><trkpt lat="43.785338141440015" lon="11.610362561374114"><ele>1022.6666666666667</ele><time>2026-04-26T14:06:12Z</time></trkpt><trkpt lat="43.785400429187796" lon="11.610626359697326"><ele>1022.3333333333334</ele><time>2026-04-26T14:06:13Z</time></trkpt><trkpt lat="43.785472739447776" lon="11.610802986301046"><ele>1022.0</ele><time>2026-04-26T14:06:14Z</time></trkpt><trkpt lat="43.78553173357198" lon="11.610977661669967"><ele>1022.0</ele><time>2026-04-26T14:06:15Z</time></trkpt><trkpt lat="43.78557878504769" lon="11.611137444311868"><ele>1022.0</ele><time>2026-04-26T14:06:16Z</time></trkpt><trkpt lat="43.785760654933355" lon="11.611410717677547"><ele>1022.0</ele><time>2026-04-26T14:06:17Z</time></trkpt><trkpt lat="43.7858419825358" lon="11.611592799797782"><ele>1021.6666666666667</ele><time>2026-04-26T14:06:18Z</time></trkpt><trkpt lat="43.785907417956615" lon="11.611792970230638"><ele>1021.3333333333333</ele><time>2026-04-26T14:06:19Z</time></trkpt><trkpt lat="43.785906796355796" lon="11.612019110374462"><ele>1021.0</ele><time>2026-04-26T14:06:20Z</time></trkpt><trkpt lat="43.78591307337987" lon="11.612258067302092"><ele>1021.0</ele><time>2026-04-26T14:06:21Z</time></trkpt><trkpt lat="43.785950719248405" lon="11.612484884896507"><ele>1021.0</ele><time>2026-04-26T14:06:22Z</time></trkpt><trkpt lat="43.785989719629804" lon="11.61269049447823"><ele>1021.0</ele><time>2026-04-26T14:06:23Z</time></trkpt><trkpt lat="43.78603132745518" lon="11.612875381491484"><ele>1018.5</ele><time>2026-04-26T14:06:24Z</time></trkpt><trkpt lat="43.78604435349242" lon="11.613042492398511"><ele>1016.0</ele><time>2026-04-26T14:06:25Z</time></trkpt><trkpt lat="43.78597358402695" lon="11.613169059639981"><ele>1013.5</ele><time>2026-04-26T14:06:26Z</time></trkpt><trkpt lat="43.78588453573652" lon="11.613246596315138"><ele>1011.0</ele><time>2026-04-26T14:06:27Z</time></trkpt><trkpt lat="43.785768602505705" lon="11.613282508262053"><ele>1011.0</ele><time>2026-04-26T14:06:28Z</time></trkpt><trkpt lat="43.785637035126385" lon="11.613324697347226"><ele>1011.0</ele><time>2026-04-26T14:06:29Z</time></trkpt><trkpt lat="43.78550807688458" lon="11.61337658990687"><ele>1011.0</ele><time>2026-04-26T14:06:30Z</time></trkpt><trkpt lat="43.785390535874484" lon="11.613448185739145"><ele>1011.0</ele><time>2026-04-26T14:06:31Z</time></trkpt><trkpt lat="43.785273317883046" lon="11.613514705757543"><ele>1009.0</ele><time>2026-04-26T14:06:32Z</time></trkpt><trkpt lat="43.78517427061047" lon="11.61361267742159"><ele>1007.0</ele><time>2026-04-26T14:06:33Z</time></trkpt><trkpt lat="43.78509949764923" lon="11.613758076496136"><ele>1005.0</ele><time>2026-04-26T14:06:34Z</time></trkpt><trkpt lat="43.78505889457324" lon="11.613914697067559"><ele>1003.0</ele><time>2026-04-26T14:06:35Z</time></trkpt><trkpt lat="43.78504371477202" lon="11.614100038249976"><ele>1000.3333333333333</ele><time>2026-04-26T14:06:36Z</time></trkpt><trkpt lat="43.785027378249275" lon="11.614298435682386"><ele>997.6666666666667</ele><time>2026-04-26T14:06:37Z</time></trkpt><trkpt lat="43.7850033692147" lon="11.614512265174666"><ele>995.0</ele><time>2026-04-26T14:06:38Z</time></trkpt><trkpt lat="43.78497292546377" lon="11.614749074535572"><ele>994.0</ele><time>2026-04-26T14:06:39Z</time></trkpt><trkpt lat="43.784934245382296" lon="11.614959462342929"><ele>993.0</ele><time>2026-04-26T14:06:40Z</time></trkpt><trkpt lat="43.784890511734766" lon="11.615166496792305"><ele>992.0</ele><time>2026-04-26T14:06:41Z</time></trkpt><trkpt lat="43.784835154387416" lon="11.615360132179763"><ele>992.0</ele><time>2026-04-26T14:06:42Z</time></trkpt><trkpt lat="43.78476414701456" lon="11.615533040512496"><ele>992.0</ele><time>2026-04-26T14:06:43Z</time></trkpt><trkpt lat="43.78466745109679" lon="11.615686638382824"><ele>992.0</ele><time>2026-04-26T14:06:44Z</time></trkpt><trkpt lat="43.78455747412345" lon="11.615822150274807"><ele>992.0</ele><time>2026-04-26T14:06:45Z</time></trkpt><trkpt lat="43.78444880305751" lon="11.615957910933792"><ele>992.0</ele><time>2026-04-26T14:06:46Z</time></trkpt><trkpt lat="43.78435696238378" lon="11.616107637169632"><ele>992.0</ele><time>2026-04-26T14:06:47Z</time></trkpt><trkpt lat="43.78429122044691" lon="11.616283071465823"><ele>992.0</ele><time>2026-04-26T14:06:48Z</time></trkpt><trkpt lat="43.78425351475235" lon="11.616482462846259"><ele>992.0</ele><time>2026-04-26T14:06:49Z</time></trkpt><trkpt lat="43.78424654424022" lon="11.616708143880494"><ele>988.6666666666667</ele><time>2026-04-26T14:06:50Z</time></trkpt><trkpt lat="43.78425881680571" lon="11.616942302413403"><ele>985.3333333333333</ele><time>2026-04-26T14:06:51Z</time></trkpt><trkpt lat="43.784282820365824" lon="11.61718391625788"><ele>982.0</ele><time>2026-04-26T14:06:52Z</time></trkpt><trkpt lat="43.78430433990229" lon="11.617429330840826"><ele>979.6666666666666</ele><time>2026-04-26T14:06:53Z</time></trkpt><trkpt lat="43.78431166921858" lon="11.617676318140362"><ele>977.3333333333333</ele><time>2026-04-26T14:06:54Z</time></trkpt><trkpt lat="43.784305373243775" lon="11.617917773992566"><ele>975.0</ele><time>2026-04-26T14:06:55Z</time></trkpt><trkpt lat="43.78429695058444" lon="11.618151492056027"><ele>973.5</ele><time>2026-04-26T14:06:56Z</time></trkpt><trkpt lat="43.78428979935376" lon="11.61837005139889"><ele>972.0</ele><time>2026-04-26T14:06:57Z</time></trkpt><trkpt lat="43.78427723950912" lon="11.61857335895012"><ele>970.5</ele><time>2026-04-26T14:06:58Z</time></trkpt><trkpt lat="43.784260775979746" lon="11.618748478735109"><ele>969.0</ele><time>2026-04-26T14:06:59Z</time></trkpt><trkpt lat="43.78423845984555" lon="11.618901437769475"><ele>968.6</ele><time>2026-04-26T14:07:00Z</time></trkpt><trkpt lat="43.78423135322393" lon="11.619042446650683"><ele>968.2</ele><time>2026-04-26T14:07:01Z</time></trkpt><trkpt lat="43.7842522663344" lon="11.619178420844605"><ele>967.8000000000001</ele><time>2026-04-26T14:07:02Z</time></trkpt><trkpt lat="43.784303163146475" lon="11.619316332345228"><ele>967.4000000000001</ele><time>2026-04-26T14:07:03Z</time></trkpt><trkpt lat="43.7843822106181" lon="11.619443059475559"><ele>967.0</ele><time>2026-04-26T14:07:04Z</time></trkpt><trkpt lat="43.784484712111606" lon="11.619537546122832"><ele>963.0</ele><time>2026-04-26T14:07:05Z</time></trkpt><trkpt lat="43.78458936971106" lon="11.619617406123288"><ele>959.0</ele><time>2026-04-26T14:07:06Z</time></trkpt><trkpt lat="43.78469566570657" lon="11.61968592164757"><ele>955.0</ele><time>2026-04-26T14:07:07.001Z</time></trkpt><trkpt lat="43.78480226458116" lon="11.619736220419565"><ele>951.0</ele><time>2026-04-26T14:07:08.001Z</time></trkpt><trkpt lat="43.78491416232044" lon="11.619749646121571"><ele>951.0</ele><time>2026-04-26T14:07:09.001Z</time></trkpt><trkpt lat="43.78503412607626" lon="11.619712451800334"><ele>951.0</ele><time>2026-04-26T14:07:10.001Z</time></trkpt><trkpt lat="43.78514775904259" lon="11.619654677739636"><ele>951.0</ele><time>2026-04-26T14:07:11.001Z</time></trkpt><trkpt lat="43.78524743285681" lon="11.619582702942106"><ele>951.0</ele><time>2026-04-26T14:07:12.001Z</time></trkpt><trkpt lat="43.785348417577644" lon="11.619527356562026"><ele>950.0</ele><time>2026-04-26T14:07:13.001Z</time></trkpt><trkpt lat="43.78546674563887" lon="11.619528872786827"><ele>949.0</ele><time>2026-04-26T14:07:14.001Z</time></trkpt><trkpt lat="43.78558677155539" lon="11.619609177638674"><ele>948.0</ele><time>2026-04-26T14:07:15.001Z</time></trkpt><trkpt lat="43.7857215967229" lon="11.619704122860474"><ele>947.0</ele><time>2026-04-26T14:07:16.001Z</time></trkpt><trkpt lat="43.785860485663235" lon="11.619804017950909"><ele>947.0</ele><time>2026-04-26T14:07:17.001Z</time></trkpt><trkpt lat="43.78599232498001" lon="11.619878952454165"><ele>947.0</ele><time>2026-04-26T14:07:18.001Z</time></trkpt><trkpt lat="43.78611872104743" lon="11.619979013302778"><ele>947.0</ele><time>2026-04-26T14:07:19.001Z</time></trkpt><trkpt lat="43.786252095852106" lon="11.62008246539358"><ele>947.0</ele><time>2026-04-26T14:07:20.001Z</time></trkpt><trkpt lat="43.786391971751634" lon="11.620196142528803"><ele>944.0</ele><time>2026-04-26T14:07:21.001Z</time></trkpt><trkpt lat="43.786522842250434" lon="11.620332982564518"><ele>941.0</ele><time>2026-04-26T14:07:22.001Z</time></trkpt><trkpt lat="43.78663155857801" lon="11.620498024986022"><ele>938.0</ele><time>2026-04-26T14:07:23.001Z</time></trkpt><trkpt lat="43.7867600037864" lon="11.620648693659902"><ele>939.3333333333334</ele><time>2026-04-26T14:07:24.001Z</time></trkpt><trkpt lat="43.78687384844661" lon="11.6208188563854"><ele>940.6666666666667</ele><time>2026-04-26T14:07:25.001Z</time></trkpt><trkpt lat="43.786988375529006" lon="11.620980564827716"><ele>942.0</ele><time>2026-04-26T14:07:26.001Z</time></trkpt><trkpt lat="43.78710085874652" lon="11.621138609421136"><ele>940.0</ele><time>2026-04-26T14:07:27.001Z</time></trkpt><trkpt lat="43.78721066832257" lon="11.621292004122852"><ele>938.0</ele><time>2026-04-26T14:07:28.001Z</time></trkpt><trkpt lat="43.78731966761751" lon="11.621442259126425"><ele>936.0</ele><time>2026-04-26T14:07:29Z</time></trkpt><trkpt lat="43.787429163244276" lon="11.621591947067794"><ele>936.0</ele><time>2026-04-26T14:07:30Z</time></trkpt><trkpt lat="43.78753342287587" lon="11.62174211273516"><ele>936.0</ele><time>2026-04-26T14:07:31Z</time></trkpt><trkpt lat="43.78763831567412" lon="11.621893121846696"><ele>936.0</ele><time>2026-04-26T14:07:32Z</time></trkpt><trkpt lat="43.78774520660746" lon="11.622043586398638"><ele>933.6666666666667</ele><time>2026-04-26T14:07:33Z</time></trkpt><trkpt lat="43.78785569283915" lon="11.622196285348569"><ele>931.3333333333334</ele><time>2026-04-26T14:07:34Z</time></trkpt><trkpt lat="43.7879578703611" lon="11.622360760590764"><ele>929.0</ele><time>2026-04-26T14:07:35Z</time></trkpt><trkpt lat="43.7880509041566" lon="11.622529264081797"><ele>929.0</ele><time>2026-04-26T14:07:36Z</time></trkpt><trkpt lat="43.78813109410826" lon="11.622707665493392"><ele>929.0</ele><time>2026-04-26T14:07:37Z</time></trkpt><trkpt lat="43.788182766062604" lon="11.622912755044936"><ele>929.0</ele><time>2026-04-26T14:07:38Z</time></trkpt><trkpt lat="43.7882556608479" lon="11.62309750393651"><ele>929.0</ele><time>2026-04-26T14:07:39Z</time></trkpt><trkpt lat="43.788309820120574" lon="11.623286627925435"><ele>929.0</ele><time>2026-04-26T14:07:40Z</time></trkpt><trkpt lat="43.788359195834495" lon="11.623462908998478"><ele>929.0</ele><time>2026-04-26T14:07:41Z</time></trkpt><trkpt lat="43.78839128121558" lon="11.623628547028904"><ele>929.0</ele><time>2026-04-26T14:07:42Z</time></trkpt><trkpt lat="43.788389721343734" lon="11.623789800645556"><ele>932.25</ele><time>2026-04-26T14:07:43Z</time></trkpt><trkpt lat="43.78835386140337" lon="11.623948029897633"><ele>935.5</ele><time>2026-04-26T14:07:44Z</time></trkpt><trkpt lat="43.78828084649893" lon="11.624082766811986"><ele>938.75</ele><time>2026-04-26T14:07:45Z</time></trkpt><trkpt lat="43.78818241919181" lon="11.624178040389841"><ele>942.0</ele><time>2026-04-26T14:07:46Z</time></trkpt><trkpt lat="43.788055224455256" lon="11.624190325492952"><ele>942.0</ele><time>2026-04-26T14:07:47Z</time></trkpt><trkpt lat="43.78795112507855" lon="11.624265254609258"><ele>942.0</ele><time>2026-04-26T14:07:48Z</time></trkpt><trkpt lat="43.787835743331904" lon="11.624315318164314"><ele>942.0</ele><time>2026-04-26T14:07:49Z</time></trkpt><trkpt lat="43.78771801277325" lon="11.624372004061376"><ele>942.0</ele><time>2026-04-26T14:07:50Z</time></trkpt><trkpt lat="43.787604140192094" lon="11.624428954003447"><ele>943.8</ele><time>2026-04-26T14:07:51Z</time></trkpt><trkpt lat="43.7875006289904" lon="11.624479810945042"><ele>945.6</ele><time>2026-04-26T14:07:52Z</time></trkpt><trkpt lat="43.78739491315568" lon="11.624533068372681"><ele>947.3999999999999</ele><time>2026-04-26T14:07:53Z</time></trkpt><trkpt lat="43.78730028253175" lon="11.624596219736505"><ele>949.1999999999999</ele><time>2026-04-26T14:07:54Z</time></trkpt><trkpt lat="43.78721757212203" lon="11.624674510192316"><ele>951.0</ele><time>2026-04-26T14:07:55Z</time></trkpt><trkpt lat="43.78714688402581" lon="11.624772630438535"><ele>951.0</ele><time>2026-04-26T14:07:56Z</time></trkpt><trkpt lat="43.78708656064333" lon="11.624891877057687"><ele>950.9999999999999</ele><time>2026-04-26T14:07:57Z</time></trkpt><trkpt lat="43.78703287078451" lon="11.62501591033463"><ele>950.9999999999999</ele><time>2026-04-26T14:07:58Z</time></trkpt><trkpt lat="43.7869829484097" lon="11.625138161248106"><ele>951.0</ele><time>2026-04-26T14:07:59Z</time></trkpt><trkpt lat="43.786950108807055" lon="11.625271257892773"><ele>951.0</ele><time>2026-04-26T14:08:00Z</time></trkpt><trkpt lat="43.78695082156272" lon="11.625422507870686"><ele>953.75</ele><time>2026-04-26T14:08:01Z</time></trkpt><trkpt lat="43.78697461380708" lon="11.625587676961581"><ele>956.5</ele><time>2026-04-26T14:08:02Z</time></trkpt><trkpt lat="43.78701873262292" lon="11.625746901297228"><ele>959.25</ele><time>2026-04-26T14:08:03Z</time></trkpt><trkpt lat="43.78707050560376" lon="11.625904379973045"><ele>962.0</ele><time>2026-04-26T14:08:04Z</time></trkpt><trkpt lat="43.787155081621954" lon="11.626071901200465"><ele>962.3333333333334</ele><time>2026-04-26T14:08:05Z</time></trkpt><trkpt lat="43.787257711895464" lon="11.626267411049195"><ele>962.6666666666667</ele><time>2026-04-26T14:08:06Z</time></trkpt><trkpt lat="43.787401907953324" lon="11.62646249911969"><ele>963.0</ele><time>2026-04-26T14:08:07Z</time></trkpt><trkpt lat="43.78755402622604" lon="11.626636680555302"><ele>963.0</ele><time>2026-04-26T14:08:08Z</time></trkpt><trkpt lat="43.78766205036299" lon="11.626835436990094"><ele>963.0</ele><time>2026-04-26T14:08:09Z</time></trkpt><trkpt lat="43.78774629207985" lon="11.62704257597168"><ele>963.0</ele><time>2026-04-26T14:08:10Z</time></trkpt><trkpt lat="43.787833148505214" lon="11.627235382040768"><ele>968.0</ele><time>2026-04-26T14:08:11Z</time></trkpt><trkpt lat="43.78793772748427" lon="11.62738386392"><ele>973.0</ele><time>2026-04-26T14:08:12Z</time></trkpt><trkpt lat="43.78802691685171" lon="11.62751183886985"><ele>978.0</ele><time>2026-04-26T14:08:13Z</time></trkpt><trkpt lat="43.78807491968102" lon="11.627659389640971"><ele>983.0</ele><time>2026-04-26T14:08:14Z</time></trkpt><trkpt lat="43.78806460662007" lon="11.627815342535916"><ele>982.0</ele><time>2026-04-26T14:08:15Z</time></trkpt><trkpt lat="43.78800344018231" lon="11.627935725331959"><ele>981.0</ele><time>2026-04-26T14:08:16Z</time></trkpt><trkpt lat="43.787889975414984" lon="11.627961873675845"><ele>980.0</ele><time>2026-04-26T14:08:17Z</time></trkpt><trkpt lat="43.7877711177508" lon="11.628003978127937"><ele>979.0</ele><time>2026-04-26T14:08:18Z</time></trkpt><trkpt lat="43.78763792484747" lon="11.628043126150802"><ele>979.0</ele><time>2026-04-26T14:08:19Z</time></trkpt><trkpt lat="43.787519217989235" lon="11.628136409329885"><ele>979.0</ele><time>2026-04-26T14:08:20Z</time></trkpt><trkpt lat="43.78742750795512" lon="11.628271792252283"><ele>979.0</ele><time>2026-04-26T14:08:21Z</time></trkpt><trkpt lat="43.787374165449336" lon="11.62842491560283"><ele>979.0</ele><time>2026-04-26T14:08:22Z</time></trkpt><trkpt lat="43.787370787299" lon="11.628566823452434"><ele>977.5</ele><time>2026-04-26T14:08:23Z</time></trkpt><trkpt lat="43.78742132832297" lon="11.628709055824055"><ele>976.0</ele><time>2026-04-26T14:08:24Z</time></trkpt><trkpt lat="43.78752700277771" lon="11.628835548889578"><ele>974.5</ele><time>2026-04-26T14:08:25Z</time></trkpt><trkpt lat="43.78765433421304" lon="11.628931965777143"><ele>973.0</ele><time>2026-04-26T14:08:26Z</time></trkpt><trkpt lat="43.7877392474564" lon="11.629056784947533"><ele>973.75</ele><time>2026-04-26T14:08:27Z</time></trkpt><trkpt lat="43.787808330589456" lon="11.62919093682432"><ele>974.5</ele><time>2026-04-26T14:08:28Z</time></trkpt><trkpt lat="43.78778505209656" lon="11.629377956746238"><ele>975.25</ele><time>2026-04-26T14:08:29Z</time></trkpt><trkpt lat="43.787707006297964" lon="11.62953564566624"><ele>976.0</ele><time>2026-04-26T14:08:30Z</time></trkpt><trkpt lat="43.78759542477665" lon="11.629661709216693"><ele>976.0</ele><time>2026-04-26T14:08:31Z</time></trkpt><trkpt lat="43.787483751708" lon="11.629807112567567"><ele>976.0</ele><time>2026-04-26T14:08:32Z</time></trkpt><trkpt lat="43.78737607519223" lon="11.62994352637924"><ele>976.0</ele><time>2026-04-26T14:08:33Z</time></trkpt><trkpt lat="43.787307916976545" lon="11.63012977456538"><ele>975.25</ele><time>2026-04-26T14:08:34Z</time></trkpt><trkpt lat="43.78725382023501" lon="11.630341702753165"><ele>974.5</ele><time>2026-04-26T14:08:35Z</time></trkpt><trkpt lat="43.78723899037236" lon="11.630548371208372"><ele>973.75</ele><time>2026-04-26T14:08:36Z</time></trkpt><trkpt lat="43.7872400068937" lon="11.630716581986833"><ele>973.0</ele><time>2026-04-26T14:08:37Z</time></trkpt><trkpt lat="43.78730089097536" lon="11.630877730404166"><ele>973.0</ele><time>2026-04-26T14:08:38Z</time></trkpt><trkpt lat="43.787409513403325" lon="11.631022976933531"><ele>973.0</ele><time>2026-04-26T14:08:39Z</time></trkpt><trkpt lat="43.78753966451675" lon="11.631151324413318"><ele>973.0</ele><time>2026-04-26T14:08:40Z</time></trkpt><trkpt lat="43.78768229060343" lon="11.631275498321452"><ele>970.0</ele><time>2026-04-26T14:08:41Z</time></trkpt><trkpt lat="43.787830119330934" lon="11.631378155513913"><ele>967.0</ele><time>2026-04-26T14:08:42Z</time></trkpt><trkpt lat="43.78797290895323" lon="11.631452308472419"><ele>964.0</ele><time>2026-04-26T14:08:43Z</time></trkpt><trkpt lat="43.78809156352211" lon="11.63155122406423"><ele>964.0</ele><time>2026-04-26T14:08:44Z</time></trkpt><trkpt lat="43.788159263871805" lon="11.631717513951324"><ele>964.0</ele><time>2026-04-26T14:08:45Z</time></trkpt><trkpt lat="43.788207089858304" lon="11.631901191882898"><ele>964.0</ele><time>2026-04-26T14:08:46Z</time></trkpt><trkpt lat="43.788252028321416" lon="11.632110685438724"><ele>964.0</ele><time>2026-04-26T14:08:47Z</time></trkpt><trkpt lat="43.78828101171191" lon="11.632345078520919"><ele>963.0</ele><time>2026-04-26T14:08:48Z</time></trkpt><trkpt lat="43.78831911002318" lon="11.632599454970553"><ele>962.0</ele><time>2026-04-26T14:08:49Z</time></trkpt><trkpt lat="43.78833201163798" lon="11.632869464159512"><ele>961.0</ele><time>2026-04-26T14:08:50Z</time></trkpt><trkpt lat="43.788370706454025" lon="11.63312699793878"><ele>959.0</ele><time>2026-04-26T14:08:51Z</time></trkpt><trkpt lat="43.78839167539799" lon="11.633384329690424"><ele>957.0</ele><time>2026-04-26T14:08:52Z</time></trkpt><trkpt lat="43.78841655556721" lon="11.633641308584437"><ele>955.0</ele><time>2026-04-26T14:08:53Z</time></trkpt><trkpt lat="43.78843737135165" lon="11.633899800907606"><ele>955.0</ele><time>2026-04-26T14:08:54Z</time></trkpt><trkpt lat="43.78841070115292" lon="11.634141028889767"><ele>955.0</ele><time>2026-04-26T14:08:55Z</time></trkpt><trkpt lat="43.78832609624962" lon="11.634348133502499"><ele>955.0</ele><time>2026-04-26T14:08:56Z</time></trkpt><trkpt lat="43.788216353673675" lon="11.634540885308533"><ele>957.3333333333333</ele><time>2026-04-26T14:08:57Z</time></trkpt><trkpt lat="43.78810174084453" lon="11.634728050926288"><ele>959.6666666666667</ele><time>2026-04-26T14:08:58Z</time></trkpt><trkpt lat="43.78800447871898" lon="11.634928923445658"><ele>962.0</ele><time>2026-04-26T14:08:59Z</time></trkpt><trkpt lat="43.78792583855357" lon="11.635143648242245"><ele>964.3333333333334</ele><time>2026-04-26T14:09:00Z</time></trkpt><trkpt lat="43.78788045353165" lon="11.635384788601764"><ele>966.6666666666667</ele><time>2026-04-26T14:09:01Z</time></trkpt><trkpt lat="43.787860381672274" lon="11.635623703853968"><ele>969.0</ele><time>2026-04-26T14:09:02Z</time></trkpt><trkpt lat="43.78786868226905" lon="11.635867546591303"><ele>969.0</ele><time>2026-04-26T14:09:03Z</time></trkpt><trkpt lat="43.78790908813987" lon="11.63611864309082"><ele>969.0</ele><time>2026-04-26T14:09:04Z</time></trkpt><trkpt lat="43.78794449626308" lon="11.63637436534059"><ele>969.0</ele><time>2026-04-26T14:09:05Z</time></trkpt><trkpt lat="43.7879425298454" lon="11.636639664253812"><ele>969.6666666666667</ele><time>2026-04-26T14:09:06Z</time></trkpt><trkpt lat="43.787944246977474" lon="11.636907413297001"><ele>970.3333333333334</ele><time>2026-04-26T14:09:07Z</time></trkpt><trkpt lat="43.78793091545436" lon="11.637197437876885"><ele>971.0</ele><time>2026-04-26T14:09:08Z</time></trkpt><trkpt lat="43.78792514560203" lon="11.637487043444658"><ele>969.3333333333334</ele><time>2026-04-26T14:09:09Z</time></trkpt><trkpt lat="43.78793730700899" lon="11.63776564527012"><ele>967.6666666666667</ele><time>2026-04-26T14:09:10Z</time></trkpt><trkpt lat="43.78796007179783" lon="11.638034985160083"><ele>966.0</ele><time>2026-04-26T14:09:11Z</time></trkpt><trkpt lat="43.78797404983538" lon="11.638306052407371"><ele>963.6666666666667</ele><time>2026-04-26T14:09:12Z</time></trkpt><trkpt lat="43.78794370631831" lon="11.638582360169313"><ele>961.3333333333334</ele><time>2026-04-26T14:09:13.001Z</time></trkpt><trkpt lat="43.78788823939229" lon="11.63885108837066"><ele>959.0</ele><time>2026-04-26T14:09:14.001Z</time></trkpt><trkpt lat="43.787833190847195" lon="11.639089938967754"><ele>958.0</ele><time>2026-04-26T14:09:15.001Z</time></trkpt><trkpt lat="43.78776871865009" lon="11.639272060362005"><ele>957.0</ele><time>2026-04-26T14:09:16.001Z</time></trkpt><trkpt lat="43.787676202402714" lon="11.63939703788164"><ele>956.0</ele><time>2026-04-26T14:09:17.001Z</time></trkpt><trkpt lat="43.78755274422664" lon="11.639461961487262"><ele>955.0</ele><time>2026-04-26T14:09:18.001Z</time></trkpt><trkpt lat="43.7874092334653" lon="11.639512873950425"><ele>957.5</ele><time>2026-04-26T14:09:19.001Z</time></trkpt><trkpt lat="43.78726160355838" lon="11.639568997720273"><ele>960.0</ele><time>2026-04-26T14:09:20Z</time></trkpt><trkpt lat="43.78713502397509" lon="11.63964519544008"><ele>962.5</ele><time>2026-04-26T14:09:21Z</time></trkpt><trkpt lat="43.787017345604454" lon="11.63969116407349"><ele>965.0</ele><time>2026-04-26T14:09:22Z</time></trkpt><trkpt lat="43.786926494106346" lon="11.639782984808836"><ele>965.0</ele><time>2026-04-26T14:09:23Z</time></trkpt><trkpt lat="43.78687700106077" lon="11.639923354118055"><ele>965.0</ele><time>2026-04-26T14:09:24Z</time></trkpt><trkpt lat="43.78687561458611" lon="11.640093236295309"><ele>965.0</ele><time>2026-04-26T14:09:25Z</time></trkpt><trkpt lat="43.78692572963072" lon="11.640257514940652"><ele>965.0</ele><time>2026-04-26T14:09:26Z</time></trkpt><trkpt lat="43.78702407648547" lon="11.640414039348165"><ele>965.3333333333334</ele><time>2026-04-26T14:09:27Z</time></trkpt><trkpt lat="43.78713416586433" lon="11.640566967821107"><ele>965.6666666666667</ele><time>2026-04-26T14:09:28Z</time></trkpt><trkpt lat="43.78722505246983" lon="11.640758893722412"><ele>966.0</ele><time>2026-04-26T14:09:29Z</time></trkpt><trkpt lat="43.7872635417029" lon="11.640958904764961"><ele>964.75</ele><time>2026-04-26T14:09:30Z</time></trkpt><trkpt lat="43.7872568930031" lon="11.64114187226237"><ele>963.5</ele><time>2026-04-26T14:09:31Z</time></trkpt><trkpt lat="43.787211805253975" lon="11.641328737082844"><ele>962.25</ele><time>2026-04-26T14:09:32Z</time></trkpt><trkpt lat="43.787160840308985" lon="11.641542519618266"><ele>961.0</ele><time>2026-04-26T14:09:33Z</time></trkpt><trkpt lat="43.78711679318293" lon="11.64177146517453"><ele>960.3333333333333</ele><time>2026-04-26T14:09:34Z</time></trkpt><trkpt lat="43.787058247579715" lon="11.642012909996396"><ele>959.6666666666667</ele><time>2026-04-26T14:09:35Z</time></trkpt><trkpt lat="43.78700835653277" lon="11.642264478416681"><ele>959.0</ele><time>2026-04-26T14:09:36Z</time></trkpt><trkpt lat="43.78697347136746" lon="11.642520376622768"><ele>960.3333333333334</ele><time>2026-04-26T14:09:37Z</time></trkpt><trkpt lat="43.78697284307708" lon="11.642808251002165"><ele>961.6666666666667</ele><time>2026-04-26T14:09:38Z</time></trkpt><trkpt lat="43.78698109958362" lon="11.643078436881412"><ele>963.0</ele><time>2026-04-26T14:09:39Z</time></trkpt><trkpt lat="43.7869931517592" lon="11.643340201203484"><ele>963.0</ele><time>2026-04-26T14:09:40Z</time></trkpt><trkpt lat="43.787034834387846" lon="11.643582845474956"><ele>963.0</ele><time>2026-04-26T14:09:41Z</time></trkpt><trkpt lat="43.78712282643208" lon="11.643805678432198"><ele>963.0</ele><time>2026-04-26T14:09:42Z</time></trkpt><trkpt lat="43.787235505911745" lon="11.644016639294966"><ele>962.3333333333333</ele><time>2026-04-26T14:09:43Z</time></trkpt><trkpt lat="43.78734739002841" lon="11.644218237640395"><ele>961.6666666666666</ele><time>2026-04-26T14:09:44Z</time></trkpt><trkpt lat="43.787416230957945" lon="11.644436083685664"><ele>961.0</ele><time>2026-04-26T14:09:45Z</time></trkpt><trkpt lat="43.787454497194226" lon="11.64464002263865"><ele>959.6666666666666</ele><time>2026-04-26T14:09:46Z</time></trkpt><trkpt lat="43.787449605453844" lon="11.644849606215748"><ele>958.3333333333333</ele><time>2026-04-26T14:09:47Z</time></trkpt><trkpt lat="43.78740553644004" lon="11.645066742683628"><ele>957.0</ele><time>2026-04-26T14:09:47.999Z</time></trkpt><trkpt lat="43.787320382463164" lon="11.645291704855104"><ele>958.6666666666667</ele><time>2026-04-26T14:09:48.999Z</time></trkpt><trkpt lat="43.787230971863856" lon="11.645530325609844"><ele>960.3333333333334</ele><time>2026-04-26T14:09:49.999Z</time></trkpt><trkpt lat="43.78715252720341" lon="11.645780117226076"><ele>962.0</ele><time>2026-04-26T14:09:50.999Z</time></trkpt><trkpt lat="43.7870662681843" lon="11.646019310802536"><ele>963.0</ele><time>2026-04-26T14:09:51.999Z</time></trkpt><trkpt lat="43.786985552225204" lon="11.646275465657567"><ele>964.0</ele><time>2026-04-26T14:09:52.999Z</time></trkpt><trkpt lat="43.786906132238606" lon="11.646531101531213"><ele>965.0</ele><time>2026-04-26T14:09:53.999Z</time></trkpt><trkpt lat="43.78682768831562" lon="11.646784364999602"><ele>959.0</ele><time>2026-04-26T14:09:54.999Z</time></trkpt><trkpt lat="43.786752022023194" lon="11.6470226383855"><ele>953.0</ele><time>2026-04-26T14:09:55.999Z</time></trkpt><trkpt lat="43.78668028920808" lon="11.647259757681132"><ele>947.0</ele><time>2026-04-26T14:09:56.999Z</time></trkpt><trkpt lat="43.786604542786705" lon="11.647486704157075"><ele>947.0</ele><time>2026-04-26T14:09:57.999Z</time></trkpt><trkpt lat="43.78654222848778" lon="11.647712063167747"><ele>947.0</ele><time>2026-04-26T14:09:58.999Z</time></trkpt><trkpt lat="43.786510709446965" lon="11.647940302592405"><ele>947.0</ele><time>2026-04-26T14:09:59.999Z</time></trkpt><trkpt lat="43.786509480140815" lon="11.648182353911897"><ele>947.3333333333334</ele><time>2026-04-26T14:10:00.999Z</time></trkpt><trkpt lat="43.786527928871955" lon="11.648426683448712"><ele>947.6666666666667</ele><time>2026-04-26T14:10:01.999Z</time></trkpt><trkpt lat="43.786562331873995" lon="11.64866758327136"><ele>948.0</ele><time>2026-04-26T14:10:02.999Z</time></trkpt><trkpt lat="43.78658255649889" lon="11.64891441429862"><ele>949.0</ele><time>2026-04-26T14:10:03.999Z</time></trkpt><trkpt lat="43.7865637337024" lon="11.649162402569933"><ele>950.0</ele><time>2026-04-26T14:10:04.999Z</time></trkpt><trkpt lat="43.78653027341204" lon="11.649402056666943"><ele>951.0</ele><time>2026-04-26T14:10:05.999Z</time></trkpt><trkpt lat="43.786489377425085" lon="11.649635218885766"><ele>952.6666666666667</ele><time>2026-04-26T14:10:06.999Z</time></trkpt><trkpt lat="43.78639336356796" lon="11.6498328433105"><ele>954.3333333333334</ele><time>2026-04-26T14:10:07.999Z</time></trkpt><trkpt lat="43.786276458988496" lon="11.649986777814723"><ele>956.0</ele><time>2026-04-26T14:10:08.999Z</time></trkpt><trkpt lat="43.78614810645713" lon="11.650109962073223"><ele>956.0</ele><time>2026-04-26T14:10:09.999Z</time></trkpt><trkpt lat="43.78601555637919" lon="11.650235897129265"><ele>956.0</ele><time>2026-04-26T14:10:10.999Z</time></trkpt><trkpt lat="43.78586573595799" lon="11.650342844658402"><ele>956.0</ele><time>2026-04-26T14:10:11.999Z</time></trkpt><trkpt lat="43.78572318211358" lon="11.650459621295246"><ele>956.0</ele><time>2026-04-26T14:10:12.999Z</time></trkpt><trkpt lat="43.785574888820236" lon="11.650519590269425"><ele>956.0</ele><time>2026-04-26T14:10:13.999Z</time></trkpt><trkpt lat="43.78543103389122" lon="11.650536707405553"><ele>956.0</ele><time>2026-04-26T14:10:14.999Z</time></trkpt><trkpt lat="43.78528203222715" lon="11.650535930311339"><ele>956.0</ele><time>2026-04-26T14:10:15.999Z</time></trkpt><trkpt lat="43.785129336040356" lon="11.650484339960412"><ele>955.6666666666667</ele><time>2026-04-26T14:10:16.999Z</time></trkpt><trkpt lat="43.78497879941392" lon="11.650411215022851"><ele>955.3333333333333</ele><time>2026-04-26T14:10:17.999Z</time></trkpt><trkpt lat="43.78481807932027" lon="11.650325838260832"><ele>955.0</ele><time>2026-04-26T14:10:18.999Z</time></trkpt><trkpt lat="43.78464933643973" lon="11.650228676237017"><ele>955.0</ele><time>2026-04-26T14:10:19.999Z</time></trkpt><trkpt lat="43.784474642565975" lon="11.65013325022707"><ele>955.0</ele><time>2026-04-26T14:10:20.999Z</time></trkpt><trkpt lat="43.784300375228895" lon="11.650026835909555"><ele>955.0</ele><time>2026-04-26T14:10:21.999Z</time></trkpt><trkpt lat="43.784124135211435" lon="11.649921522953102"><ele>955.0</ele><time>2026-04-26T14:10:22.999Z</time></trkpt><trkpt lat="43.78394378890134" lon="11.649825022540547"><ele>955.0</ele><time>2026-04-26T14:10:23.999Z</time></trkpt><trkpt lat="43.783777115462556" lon="11.649737485791244"><ele>955.0</ele><time>2026-04-26T14:10:24.999Z</time></trkpt><trkpt lat="43.78361718042419" lon="11.649683040257507"><ele>956.0</ele><time>2026-04-26T14:10:25.999Z</time></trkpt><trkpt lat="43.783451513694494" lon="11.649670083221077"><ele>957.0</ele><time>2026-04-26T14:10:26.999Z</time></trkpt><trkpt lat="43.783275506160194" lon="11.649692734268942"><ele>958.0</ele><time>2026-04-26T14:10:27.999Z</time></trkpt><trkpt lat="43.783098763278836" lon="11.649717766664075"><ele>958.0</ele><time>2026-04-26T14:10:28.999Z</time></trkpt><trkpt lat="43.78293176132031" lon="11.649746290163462"><ele>958.0</ele><time>2026-04-26T14:10:29.999Z</time></trkpt><trkpt lat="43.782766197336244" lon="11.649795892763752"><ele>958.0</ele><time>2026-04-26T14:10:30.999Z</time></trkpt><trkpt lat="43.782608067365125" lon="11.64989398325922"><ele>962.0</ele><time>2026-04-26T14:10:31.999Z</time></trkpt><trkpt lat="43.782452580435425" lon="11.650028181453456"><ele>966.0</ele><time>2026-04-26T14:10:32.999Z</time></trkpt><trkpt lat="43.78230447871813" lon="11.65018654143137"><ele>970.0</ele><time>2026-04-26T14:10:33.999Z</time></trkpt><trkpt lat="43.782145202120574" lon="11.650337169402361"><ele>970.0</ele><time>2026-04-26T14:10:34.999Z</time></trkpt><trkpt lat="43.78197562372555" lon="11.650474440543418"><ele>970.0</ele><time>2026-04-26T14:10:35.999Z</time></trkpt><trkpt lat="43.78180561273195" lon="11.65058413963996"><ele>970.0</ele><time>2026-04-26T14:10:36.999Z</time></trkpt><trkpt lat="43.78164547128249" lon="11.65068955520394"><ele>962.0</ele><time>2026-04-26T14:10:37.999Z</time></trkpt><trkpt lat="43.78150176366712" lon="11.650816983293316"><ele>954.0</ele><time>2026-04-26T14:10:38.999Z</time></trkpt><trkpt lat="43.78138765114228" lon="11.65096407350979"><ele>946.0</ele><time>2026-04-26T14:10:39.999Z</time></trkpt><trkpt lat="43.78130000919538" lon="11.65112095123994"><ele>950.0</ele><time>2026-04-26T14:10:40.999Z</time></trkpt><trkpt lat="43.78124900883103" lon="11.651305194631442"><ele>954.0</ele><time>2026-04-26T14:10:41.999Z</time></trkpt><trkpt lat="43.78122885682661" lon="11.651525853455597"><ele>958.0</ele><time>2026-04-26T14:10:42.999Z</time></trkpt><trkpt lat="43.78121816996292" lon="11.651768172892163"><ele>957.6666666666666</ele><time>2026-04-26T14:10:43.999Z</time></trkpt><trkpt lat="43.781196451338296" lon="11.652012623258186"><ele>957.3333333333333</ele><time>2026-04-26T14:10:44.999Z</time></trkpt><trkpt lat="43.78117405700483" lon="11.652242890304013"><ele>957.0</ele><time>2026-04-26T14:10:45.999Z</time></trkpt><trkpt lat="43.78115649172598" lon="11.652453122313345"><ele>957.0</ele><time>2026-04-26T14:10:46.999Z</time></trkpt><trkpt lat="43.7811631748932" lon="11.652647621884332"><ele>957.0</ele><time>2026-04-26T14:10:47.999Z</time></trkpt><trkpt lat="43.78119974857429" lon="11.65283758361843"><ele>957.0</ele><time>2026-04-26T14:10:48.999Z</time></trkpt><trkpt lat="43.781275562570336" lon="11.653017957016875"><ele>957.0</ele><time>2026-04-26T14:10:49.999Z</time></trkpt><trkpt lat="43.78135359846685" lon="11.653196634664074"><ele>955.6666666666667</ele><time>2026-04-26T14:10:50.999Z</time></trkpt><trkpt lat="43.78138025593246" lon="11.653384982531142"><ele>954.3333333333334</ele><time>2026-04-26T14:10:51.999Z</time></trkpt><trkpt lat="43.7813831915446" lon="11.653606194249441"><ele>953.0</ele><time>2026-04-26T14:10:52.999Z</time></trkpt><trkpt lat="43.781398257305206" lon="11.653862297867764"><ele>949.0</ele><time>2026-04-26T14:10:53.999Z</time></trkpt><trkpt lat="43.78145610393129" lon="11.654074740554242"><ele>945.0</ele><time>2026-04-26T14:10:54.999Z</time></trkpt><trkpt lat="43.781541248928875" lon="11.654250804014218"><ele>941.0</ele><time>2026-04-26T14:10:55.999Z</time></trkpt><trkpt lat="43.781653006406835" lon="11.654414447722816"><ele>943.6666666666667</ele><time>2026-04-26T14:10:56.999Z</time></trkpt><trkpt lat="43.78178030450465" lon="11.654570546820642"><ele>946.3333333333333</ele><time>2026-04-26T14:10:57.999Z</time></trkpt><trkpt lat="43.78191272221111" lon="11.654728159732977"><ele>949.0</ele><time>2026-04-26T14:10:58.999Z</time></trkpt><trkpt lat="43.78204579524445" lon="11.654888478131388"><ele>949.0</ele><time>2026-04-26T14:10:59.999Z</time></trkpt><trkpt lat="43.782178033662724" lon="11.655051774894456"><ele>949.0</ele><time>2026-04-26T14:11:00.999Z</time></trkpt><trkpt lat="43.78229348873016" lon="11.655216743085484"><ele>949.0</ele><time>2026-04-26T14:11:01.999Z</time></trkpt><trkpt lat="43.782390117593444" lon="11.655395951147081"><ele>946.6666666666666</ele><time>2026-04-26T14:11:02.999Z</time></trkpt><trkpt lat="43.782455659157975" lon="11.655605811613167"><ele>944.3333333333333</ele><time>2026-04-26T14:11:03.999Z</time></trkpt><trkpt lat="43.782487275339655" lon="11.65583963318184"><ele>942.0</ele><time>2026-04-26T14:11:04.999Z</time></trkpt><trkpt lat="43.78245620844899" lon="11.6560799146603"><ele>943.0</ele><time>2026-04-26T14:11:05.999Z</time></trkpt><trkpt lat="43.78242273768682" lon="11.656319790516019"><ele>944.0</ele><time>2026-04-26T14:11:06.999Z</time></trkpt><trkpt lat="43.782348569919776" lon="11.656552991133472"><ele>945.0</ele><time>2026-04-26T14:11:07.999Z</time></trkpt><trkpt lat="43.78220149312724" lon="11.656701404011176"><ele>945.0</ele><time>2026-04-26T14:11:08.999Z</time></trkpt><trkpt lat="43.78204998719229" lon="11.656848784475269"><ele>945.0</ele><time>2026-04-26T14:11:09.999Z</time></trkpt><trkpt lat="43.78189571565128" lon="11.656993945678261"><ele>945.0</ele><time>2026-04-26T14:11:10.999Z</time></trkpt><trkpt lat="43.781744402898816" lon="11.657115336201521"><ele>944.6666666666667</ele><time>2026-04-26T14:11:11.999Z</time></trkpt><trkpt lat="43.781611075404946" lon="11.65724692792967"><ele>944.3333333333334</ele><time>2026-04-26T14:11:12.999Z</time></trkpt><trkpt lat="43.78150406620901" lon="11.657395289709562"><ele>944.0</ele><time>2026-04-26T14:11:13.999Z</time></trkpt><trkpt lat="43.78143642451" lon="11.657575678647863"><ele>946.6666666666667</ele><time>2026-04-26T14:11:14.999Z</time></trkpt><trkpt lat="43.78140857509317" lon="11.657790994839345"><ele>949.3333333333333</ele><time>2026-04-26T14:11:15.999Z</time></trkpt><trkpt lat="43.78140464479962" lon="11.65802357929894"><ele>952.0</ele><time>2026-04-26T14:11:16.999Z</time></trkpt><trkpt lat="43.78141366221898" lon="11.65826399827669"><ele>952.0</ele><time>2026-04-26T14:11:17.999Z</time></trkpt><trkpt lat="43.78142361901358" lon="11.658503989937833"><ele>952.0</ele><time>2026-04-26T14:11:19Z</time></trkpt><trkpt lat="43.78143314163348" lon="11.658745480770607"><ele>952.0</ele><time>2026-04-26T14:11:20Z</time></trkpt><trkpt lat="43.78143868373831" lon="11.658982346911424"><ele>951.3333333333333</ele><time>2026-04-26T14:11:21Z</time></trkpt><trkpt lat="43.7814447897028" lon="11.659207758991558"><ele>950.6666666666667</ele><time>2026-04-26T14:11:22Z</time></trkpt><trkpt lat="43.78145827758275" lon="11.659423272353"><ele>950.0</ele><time>2026-04-26T14:11:23Z</time></trkpt><trkpt lat="43.78148522967913" lon="11.659633970454164"><ele>949.0</ele><time>2026-04-26T14:11:24Z</time></trkpt><trkpt lat="43.78152916343499" lon="11.659837405742229"><ele>948.0</ele><time>2026-04-26T14:11:25Z</time></trkpt><trkpt lat="43.781573725610144" lon="11.660037131226296"><ele>947.0</ele><time>2026-04-26T14:11:26Z</time></trkpt><trkpt lat="43.78159634252774" lon="11.660232612110178"><ele>946.0</ele><time>2026-04-26T14:11:27Z</time></trkpt><trkpt lat="43.7815840326521" lon="11.660434922228545"><ele>945.0</ele><time>2026-04-26T14:11:28Z</time></trkpt><trkpt lat="43.781514987529675" lon="11.660614095285517"><ele>944.0</ele><time>2026-04-26T14:11:29Z</time></trkpt><trkpt lat="43.78146054288228" lon="11.66078698628068"><ele>943.0</ele><time>2026-04-26T14:11:30Z</time></trkpt><trkpt lat="43.781397433634744" lon="11.660933061467746"><ele>942.0</ele><time>2026-04-26T14:11:31Z</time></trkpt><trkpt lat="43.78136366986692" lon="11.661078318613468"><ele>940.75</ele><time>2026-04-26T14:11:32Z</time></trkpt><trkpt lat="43.78135847505684" lon="11.661232610001992"><ele>939.5</ele><time>2026-04-26T14:11:33Z</time></trkpt><trkpt lat="43.781388750754694" lon="11.66138970606741"><ele>938.25</ele><time>2026-04-26T14:11:34Z</time></trkpt><trkpt lat="43.781451833748385" lon="11.661552445623538"><ele>937.0</ele><time>2026-04-26T14:11:35Z</time></trkpt><trkpt lat="43.781517613165505" lon="11.661724776092436"><ele>937.0</ele><time>2026-04-26T14:11:36Z</time></trkpt><trkpt lat="43.78157060011149" lon="11.661916668373493"><ele>937.0</ele><time>2026-04-26T14:11:37Z</time></trkpt><trkpt lat="43.781617873549756" lon="11.662110575034657"><ele>937.0</ele><time>2026-04-26T14:11:38Z</time></trkpt><trkpt lat="43.78165774927193" lon="11.662303113180618"><ele>937.0</ele><time>2026-04-26T14:11:39Z</time></trkpt><trkpt lat="43.781691756285" lon="11.662495028568262"><ele>935.25</ele><time>2026-04-26T14:11:40Z</time></trkpt><trkpt lat="43.78172089872665" lon="11.662686500874559"><ele>933.5</ele><time>2026-04-26T14:11:41Z</time></trkpt><trkpt lat="43.78174250723801" lon="11.662879619975827"><ele>931.75</ele><time>2026-04-26T14:11:42Z</time></trkpt><trkpt lat="43.781744694109975" lon="11.663076688610984"><ele>930.0</ele><time>2026-04-26T14:11:43Z</time></trkpt><trkpt lat="43.781733208338736" lon="11.663271533582583"><ele>929.3333333333333</ele><time>2026-04-26T14:11:44Z</time></trkpt><trkpt lat="43.7817094348467" lon="11.663469040338846"><ele>928.6666666666666</ele><time>2026-04-26T14:11:45Z</time></trkpt><trkpt lat="43.781637919579154" lon="11.663651827014903"><ele>928.0</ele><time>2026-04-26T14:11:46Z</time></trkpt><trkpt lat="43.781551975632965" lon="11.663838811015912"><ele>928.0</ele><time>2026-04-26T14:11:47Z</time></trkpt><trkpt lat="43.78147478068872" lon="11.664047893082735"><ele>928.0</ele><time>2026-04-26T14:11:48Z</time></trkpt><trkpt lat="43.78137963480426" lon="11.664243158973823"><ele>928.0</ele><time>2026-04-26T14:11:49Z</time></trkpt><trkpt lat="43.78129223177003" lon="11.66444512410684"><ele>928.6666666666666</ele><time>2026-04-26T14:11:50Z</time></trkpt><trkpt lat="43.78120153630216" lon="11.664644516678354"><ele>929.3333333333333</ele><time>2026-04-26T14:11:51Z</time></trkpt><trkpt lat="43.781111276499786" lon="11.664846180768363"><ele>930.0</ele><time>2026-04-26T14:11:52Z</time></trkpt><trkpt lat="43.781027450845556" lon="11.665042072506939"><ele>923.5</ele><time>2026-04-26T14:11:53Z</time></trkpt><trkpt lat="43.780945802638065" lon="11.66522068392384"><ele>917.0</ele><time>2026-04-26T14:11:54Z</time></trkpt><trkpt lat="43.780874410882326" lon="11.665394987506073"><ele>910.5</ele><time>2026-04-26T14:11:55Z</time></trkpt><trkpt lat="43.78082150504292" lon="11.665584794927904"><ele>904.0</ele><time>2026-04-26T14:11:56Z</time></trkpt><trkpt lat="43.78079814824229" lon="11.665793209703057"><ele>903.5</ele><time>2026-04-26T14:11:57Z</time></trkpt><trkpt lat="43.78080158146222" lon="11.666008713433843"><ele>903.0</ele><time>2026-04-26T14:11:58Z</time></trkpt><trkpt lat="43.78079919063729" lon="11.666210126699628"><ele>902.5</ele><time>2026-04-26T14:11:59Z</time></trkpt><trkpt lat="43.78078961991478" lon="11.666397520794552"><ele>902.0</ele><time>2026-04-26T14:12:00Z</time></trkpt><trkpt lat="43.78077764955021" lon="11.666576437712303"><ele>900.75</ele><time>2026-04-26T14:12:01Z</time></trkpt><trkpt lat="43.7807853644452" lon="11.66674879660222"><ele>899.5</ele><time>2026-04-26T14:12:02Z</time></trkpt><trkpt lat="43.78083912022401" lon="11.666913577449884"><ele>898.25</ele><time>2026-04-26T14:12:03Z</time></trkpt><trkpt lat="43.78092375803613" lon="11.667072597501635"><ele>897.0</ele><time>2026-04-26T14:12:04Z</time></trkpt><trkpt lat="43.78101881678198" lon="11.66722147622309"><ele>899.5</ele><time>2026-04-26T14:12:05Z</time></trkpt><trkpt lat="43.78110458555282" lon="11.667374614504327"><ele>902.0</ele><time>2026-04-26T14:12:06Z</time></trkpt><trkpt lat="43.78117796284921" lon="11.667530248844296"><ele>904.5</ele><time>2026-04-26T14:12:07Z</time></trkpt><trkpt lat="43.78120961425978" lon="11.667708115034966"><ele>907.0</ele><time>2026-04-26T14:12:08Z</time></trkpt><trkpt lat="43.78121978617213" lon="11.667904676046346"><ele>907.0</ele><time>2026-04-26T14:12:09Z</time></trkpt><trkpt lat="43.7812297099991" lon="11.668112082519286"><ele>907.0</ele><time>2026-04-26T14:12:10Z</time></trkpt><trkpt lat="43.78121225049301" lon="11.668321655919627"><ele>907.0</ele><time>2026-04-26T14:12:11Z</time></trkpt><trkpt lat="43.781200137445914" lon="11.668534377153561"><ele>904.6666666666666</ele><time>2026-04-26T14:12:12Z</time></trkpt><trkpt lat="43.78119489524463" lon="11.668748645858319"><ele>902.3333333333333</ele><time>2026-04-26T14:12:13Z</time></trkpt><trkpt lat="43.78122982023555" lon="11.668961970309145"><ele>900.0</ele><time>2026-04-26T14:12:14Z</time></trkpt><trkpt lat="43.7813005921997" lon="11.669161419081949"><ele>900.0</ele><time>2026-04-26T14:12:15Z</time></trkpt><trkpt lat="43.78137063069567" lon="11.66934469310329"><ele>900.0</ele><time>2026-04-26T14:12:16Z</time></trkpt><trkpt lat="43.7814248151371" lon="11.669539838039393"><ele>900.0</ele><time>2026-04-26T14:12:17Z</time></trkpt><trkpt lat="43.78145721526138" lon="11.66975429867745"><ele>895.0</ele><time>2026-04-26T14:12:18Z</time></trkpt><trkpt lat="43.781464755138835" lon="11.669992309710365"><ele>890.0</ele><time>2026-04-26T14:12:18.999Z</time></trkpt><trkpt lat="43.78142873522012" lon="11.670239676271638"><ele>885.0</ele><time>2026-04-26T14:12:19.999Z</time></trkpt><trkpt lat="43.78137551039176" lon="11.6704913629956"><ele>884.0</ele><time>2026-04-26T14:12:20.999Z</time></trkpt><trkpt lat="43.781337500310286" lon="11.670743952264061"><ele>883.0</ele><time>2026-04-26T14:12:21.999Z</time></trkpt><trkpt lat="43.78128832609118" lon="11.670981618684221"><ele>882.0</ele><time>2026-04-26T14:12:22.999Z</time></trkpt><trkpt lat="43.78124190723307" lon="11.67122083318594"><ele>882.0</ele><time>2026-04-26T14:12:23.999Z</time></trkpt><trkpt lat="43.781165485835984" lon="11.671452056177165"><ele>882.0</ele><time>2026-04-26T14:12:24.999Z</time></trkpt><trkpt lat="43.7810748048733" lon="11.671678637626442"><ele>882.0</ele><time>2026-04-26T14:12:25.999Z</time></trkpt><trkpt lat="43.780986185476465" lon="11.671901167452383"><ele>874.3333333333333</ele><time>2026-04-26T14:12:26.999Z</time></trkpt><trkpt lat="43.78089497056707" lon="11.672116217332967"><ele>866.6666666666666</ele><time>2026-04-26T14:12:27.999Z</time></trkpt><trkpt lat="43.780800165834414" lon="11.672322808853808"><ele>859.0</ele><time>2026-04-26T14:12:28.999Z</time></trkpt><trkpt lat="43.78070583981061" lon="11.672519113684837"><ele>859.0</ele><time>2026-04-26T14:12:29.999Z</time></trkpt><trkpt lat="43.78061005312194" lon="11.672707393476019"><ele>859.0</ele><time>2026-04-26T14:12:30.999Z</time></trkpt><trkpt lat="43.78052570392877" lon="11.672880655988704"><ele>859.0</ele><time>2026-04-26T14:12:31.999Z</time></trkpt><trkpt lat="43.78044110268367" lon="11.673030917714053"><ele>860.25</ele><time>2026-04-26T14:12:32.999Z</time></trkpt><trkpt lat="43.780335043786955" lon="11.673124003024212"><ele>861.5</ele><time>2026-04-26T14:12:33.999Z</time></trkpt><trkpt lat="43.78021880772007" lon="11.67318512041418"><ele>862.75</ele><time>2026-04-26T14:12:34.999Z</time></trkpt><trkpt lat="43.780107293275556" lon="11.673238438649895"><ele>864.0</ele><time>2026-04-26T14:12:35.999Z</time></trkpt><trkpt lat="43.77999788890609" lon="11.673264218005992"><ele>861.0</ele><time>2026-04-26T14:12:36.999Z</time></trkpt><trkpt lat="43.77990764811894" lon="11.673330454786553"><ele>858.0000000000001</ele><time>2026-04-26T14:12:37.999Z</time></trkpt><trkpt lat="43.7798357588235" lon="11.673439308381123"><ele>855.0</ele><time>2026-04-26T14:12:38.999Z</time></trkpt><trkpt lat="43.77979117450584" lon="11.673589236107258"><ele>852.0</ele><time>2026-04-26T14:12:39.999Z</time></trkpt><trkpt lat="43.77978943031804" lon="11.673758934965138"><ele>849.0</ele><time>2026-04-26T14:12:40.999Z</time></trkpt><trkpt lat="43.77981640423784" lon="11.673932324656095"><ele>848.25</ele><time>2026-04-26T14:12:41.999Z</time></trkpt><trkpt lat="43.77983558221588" lon="11.67411087903901"><ele>847.5</ele><time>2026-04-26T14:12:42.999Z</time></trkpt><trkpt lat="43.779821892658475" lon="11.674303879839213"><ele>846.75</ele><time>2026-04-26T14:12:43.999Z</time></trkpt><trkpt lat="43.779788112952836" lon="11.67450287174419"><ele>846.0</ele><time>2026-04-26T14:12:44.999Z</time></trkpt><trkpt lat="43.77972973247135" lon="11.674700442057468"><ele>844.6666666666667</ele><time>2026-04-26T14:12:45.999Z</time></trkpt><trkpt lat="43.77967391044241" lon="11.674898012683721"><ele>843.3333333333334</ele><time>2026-04-26T14:12:46.999Z</time></trkpt><trkpt lat="43.77964137662426" lon="11.67510715059403"><ele>842.0</ele><time>2026-04-26T14:12:47.999Z</time></trkpt><trkpt lat="43.77960821599334" lon="11.675325453400271"><ele>841.3333333333334</ele><time>2026-04-26T14:12:48.999Z</time></trkpt><trkpt lat="43.77957001377957" lon="11.675571623616513"><ele>840.6666666666667</ele><time>2026-04-26T14:12:49.999Z</time></trkpt><trkpt lat="43.7795473618415" lon="11.675852083581223"><ele>840.0</ele><time>2026-04-26T14:12:50.999Z</time></trkpt><trkpt lat="43.77950296301672" lon="11.676159200055498"><ele>838.5</ele><time>2026-04-26T14:12:51.999Z</time></trkpt><trkpt lat="43.77945640749458" lon="11.676477524212558"><ele>837.0</ele><time>2026-04-26T14:12:52.999Z</time></trkpt><trkpt lat="43.77939486634599" lon="11.676774773221858"><ele>829.6666666666667</ele><time>2026-04-26T14:12:53.999Z</time></trkpt><trkpt lat="43.77934324813239" lon="11.677056503610324"><ele>822.3333333333334</ele><time>2026-04-26T14:12:54.999Z</time></trkpt><trkpt lat="43.779278115070774" lon="11.677311195305322"><ele>815.0</ele><time>2026-04-26T14:12:55.999Z</time></trkpt><trkpt lat="43.779220218427554" lon="11.677570570592513"><ele>815.6666666666667</ele><time>2026-04-26T14:12:56.999Z</time></trkpt><trkpt lat="43.779171911635046" lon="11.67781377037964"><ele>816.3333333333333</ele><time>2026-04-26T14:12:57.999Z</time></trkpt><trkpt lat="43.779127826843634" lon="11.678029241928032"><ele>817.0</ele><time>2026-04-26T14:12:58.999Z</time></trkpt><trkpt lat="43.77907245009617" lon="11.67822208237237"><ele>817.0</ele><time>2026-04-26T14:12:59.999Z</time></trkpt><trkpt lat="43.778988279685606" lon="11.678374771643972"><ele>817.0</ele><time>2026-04-26T14:13:00.999Z</time></trkpt><trkpt lat="43.77887028060005" lon="11.678484094009308"><ele>817.0</ele><time>2026-04-26T14:13:01.999Z</time></trkpt><trkpt lat="43.7787124233763" lon="11.678486865236897"><ele>817.0</ele><time>2026-04-26T14:13:02.999Z</time></trkpt><trkpt lat="43.778541436056706" lon="11.678518116647703"><ele>814.0</ele><time>2026-04-26T14:13:03.999Z</time></trkpt><trkpt lat="43.77838736676753" lon="11.678555212704522"><ele>811.0</ele><time>2026-04-26T14:13:04.999Z</time></trkpt><trkpt lat="43.778250587477324" lon="11.678581400872503"><ele>808.0</ele><time>2026-04-26T14:13:05.999Z</time></trkpt><trkpt lat="43.77813154807311" lon="11.678617821001973"><ele>805.0</ele><time>2026-04-26T14:13:06.999Z</time></trkpt><trkpt lat="43.77802400027361" lon="11.678671474092242"><ele>805.0</ele><time>2026-04-26T14:13:07.999Z</time></trkpt><trkpt lat="43.77793781114885" lon="11.678765112606943"><ele>805.0</ele><time>2026-04-26T14:13:08.999Z</time></trkpt><trkpt lat="43.777868263913206" lon="11.678905879314733"><ele>805.0</ele><time>2026-04-26T14:13:09.999Z</time></trkpt><trkpt lat="43.77783027557012" lon="11.679094259602383"><ele>805.0</ele><time>2026-04-26T14:13:10.999Z</time></trkpt><trkpt lat="43.77779997391245" lon="11.679294343287717"><ele>804.0</ele><time>2026-04-26T14:13:11.999Z</time></trkpt><trkpt lat="43.77778089604764" lon="11.679512907044739"><ele>803.0</ele><time>2026-04-26T14:13:12.999Z</time></trkpt><trkpt lat="43.777770126727226" lon="11.679733588289361"><ele>802.0</ele><time>2026-04-26T14:13:13.999Z</time></trkpt><trkpt lat="43.77777612178784" lon="11.679957102753544"><ele>802.0</ele><time>2026-04-26T14:13:14.999Z</time></trkpt><trkpt lat="43.777796616769024" lon="11.680177591550567"><ele>802.0</ele><time>2026-04-26T14:13:15.999Z</time></trkpt><trkpt lat="43.77783331897523" lon="11.680396212638044"><ele>802.0</ele><time>2026-04-26T14:13:16.999Z</time></trkpt><trkpt lat="43.777870444066" lon="11.680615441871733"><ele>798.0</ele><time>2026-04-26T14:13:17.999Z</time></trkpt><trkpt lat="43.7778992101765" lon="11.68082780171761"><ele>794.0</ele><time>2026-04-26T14:13:18.999Z</time></trkpt><trkpt lat="43.77792581440163" lon="11.681037516305356"><ele>790.0</ele><time>2026-04-26T14:13:19.999Z</time></trkpt><trkpt lat="43.77794986751581" lon="11.681247307071555"><ele>788.25</ele><time>2026-04-26T14:13:20.999Z</time></trkpt><trkpt lat="43.777974792910506" lon="11.681453485941368"><ele>786.5</ele><time>2026-04-26T14:13:21.999Z</time></trkpt><trkpt lat="43.77799744592896" lon="11.681656584216002"><ele>784.75</ele><time>2026-04-26T14:13:22.999Z</time></trkpt><trkpt lat="43.778014572539" lon="11.681856257601872"><ele>783.0</ele><time>2026-04-26T14:13:24Z</time></trkpt><trkpt lat="43.77800996529981" lon="11.68206335385754"><ele>783.0</ele><time>2026-04-26T14:13:25Z</time></trkpt><trkpt lat="43.777964260786675" lon="11.682269537243975"><ele>783.0</ele><time>2026-04-26T14:13:26Z</time></trkpt><trkpt lat="43.77790945085905" lon="11.68249461332095"><ele>783.0</ele><time>2026-04-26T14:13:27Z</time></trkpt><trkpt lat="43.77780516543937" lon="11.682693656167114"><ele>784.0</ele><time>2026-04-26T14:13:28Z</time></trkpt><trkpt lat="43.77770496715414" lon="11.682897051518198"><ele>785.0</ele><time>2026-04-26T14:13:29Z</time></trkpt><trkpt lat="43.77761682254425" lon="11.683098512854594"><ele>786.0</ele><time>2026-04-26T14:13:30Z</time></trkpt><trkpt lat="43.777523649174256" lon="11.68326941671514"><ele>782.5</ele><time>2026-04-26T14:13:31Z</time></trkpt><trkpt lat="43.77744512811736" lon="11.683441171012605"><ele>779.0</ele><time>2026-04-26T14:13:32Z</time></trkpt><trkpt lat="43.777379010509165" lon="11.68361299933349"><ele>775.5</ele><time>2026-04-26T14:13:33Z</time></trkpt><trkpt lat="43.77733134833665" lon="11.68379699703047"><ele>772.0</ele><time>2026-04-26T14:13:34Z</time></trkpt><trkpt lat="43.7772870899973" lon="11.683968706808187"><ele>772.0</ele><time>2026-04-26T14:13:35Z</time></trkpt><trkpt lat="43.777216108725824" lon="11.684129092832617"><ele>772.0</ele><time>2026-04-26T14:13:36Z</time></trkpt><trkpt lat="43.77710776585425" lon="11.684245066048868"><ele>772.0</ele><time>2026-04-26T14:13:37Z</time></trkpt><trkpt lat="43.77701818188919" lon="11.684373740521583"><ele>772.0</ele><time>2026-04-26T14:13:38Z</time></trkpt><trkpt lat="43.77693352299541" lon="11.684486407404723"><ele>772.5</ele><time>2026-04-26T14:13:39Z</time></trkpt><trkpt lat="43.7768670756944" lon="11.684624639296409"><ele>773.0</ele><time>2026-04-26T14:13:40Z</time></trkpt><trkpt lat="43.77681266613542" lon="11.684779705486259"><ele>773.5</ele><time>2026-04-26T14:13:41Z</time></trkpt><trkpt lat="43.776754356212926" lon="11.684925312338262"><ele>774.0</ele><time>2026-04-26T14:13:42Z</time></trkpt><trkpt lat="43.77669079073693" lon="11.685058700449558"><ele>770.0</ele><time>2026-04-26T14:13:43Z</time></trkpt><trkpt lat="43.77661694539276" lon="11.68518062829634"><ele>766.0</ele><time>2026-04-26T14:13:44Z</time></trkpt><trkpt lat="43.77652055212855" lon="11.685284263256797"><ele>762.0</ele><time>2026-04-26T14:13:45Z</time></trkpt><trkpt lat="43.77639755929388" lon="11.685366598316774"><ele>758.0</ele><time>2026-04-26T14:13:46Z</time></trkpt><trkpt lat="43.77625472147101" lon="11.685435843064498"><ele>758.0</ele><time>2026-04-26T14:13:47Z</time></trkpt><trkpt lat="43.77610190611096" lon="11.685493005011994"><ele>758.0</ele><time>2026-04-26T14:13:48Z</time></trkpt><trkpt lat="43.775958018153645" lon="11.685545414793848"><ele>758.0</ele><time>2026-04-26T14:13:49Z</time></trkpt><trkpt lat="43.77581376966485" lon="11.685620404813742"><ele>754.75</ele><time>2026-04-26T14:13:50Z</time></trkpt><trkpt lat="43.7756758484245" lon="11.685714353858856"><ele>751.5</ele><time>2026-04-26T14:13:51Z</time></trkpt><trkpt lat="43.775556404880746" lon="11.68583400831168"><ele>748.25</ele><time>2026-04-26T14:13:52Z</time></trkpt><trkpt lat="43.77544747343974" lon="11.685961424967248"><ele>745.0</ele><time>2026-04-26T14:13:53Z</time></trkpt><trkpt lat="43.775324714189935" lon="11.686045972141725"><ele>747.5</ele><time>2026-04-26T14:13:54Z</time></trkpt><trkpt lat="43.775220908798026" lon="11.686156959417575"><ele>750.0</ele><time>2026-04-26T14:13:55Z</time></trkpt><trkpt lat="43.775116686092545" lon="11.686262518214887"><ele>752.5</ele><time>2026-04-26T14:13:56Z</time></trkpt><trkpt lat="43.77502711551586" lon="11.686373936404882"><ele>755.0</ele><time>2026-04-26T14:13:57Z</time></trkpt><trkpt lat="43.774963020369846" lon="11.686517131100606"><ele>749.5</ele><time>2026-04-26T14:13:58Z</time></trkpt><trkpt lat="43.77494596669562" lon="11.68669360197801"><ele>744.0</ele><time>2026-04-26T14:13:59Z</time></trkpt><trkpt lat="43.774969266247524" lon="11.686881277815173"><ele>738.5</ele><time>2026-04-26T14:14:00Z</time></trkpt><trkpt lat="43.775015901642945" lon="11.687056694125584"><ele>733.0</ele><time>2026-04-26T14:14:01Z</time></trkpt><trkpt lat="43.775027012191075" lon="11.687226606439502"><ele>733.0</ele><time>2026-04-26T14:14:02Z</time></trkpt><trkpt lat="43.77496107745733" lon="11.68739951844821"><ele>733.0</ele><time>2026-04-26T14:14:03Z</time></trkpt><trkpt lat="43.77487116090466" lon="11.687551332562666"><ele>733.0</ele><time>2026-04-26T14:14:04Z</time></trkpt><trkpt lat="43.77479037643826" lon="11.687707144901083"><ele>733.0</ele><time>2026-04-26T14:14:05Z</time></trkpt><trkpt lat="43.77473013458681" lon="11.687864842382242"><ele>734.0</ele><time>2026-04-26T14:14:06Z</time></trkpt><trkpt lat="43.77467612421289" lon="11.688035607879678"><ele>735.0</ele><time>2026-04-26T14:14:07Z</time></trkpt><trkpt lat="43.77464436881713" lon="11.688215559755482"><ele>736.0</ele><time>2026-04-26T14:14:08Z</time></trkpt><trkpt lat="43.77463732626236" lon="11.688407433592767"><ele>737.0</ele><time>2026-04-26T14:14:09Z</time></trkpt><trkpt lat="43.77465754265192" lon="11.688625240307701"><ele>737.0</ele><time>2026-04-26T14:14:10Z</time></trkpt><trkpt lat="43.77469110966641" lon="11.688867161858582"><ele>737.0</ele><time>2026-04-26T14:14:11Z</time></trkpt><trkpt lat="43.77468170658298" lon="11.68912615283711"><ele>737.0</ele><time>2026-04-26T14:14:12Z</time></trkpt><trkpt lat="43.77468045471558" lon="11.689373374535833"><ele>733.0</ele><time>2026-04-26T14:14:13Z</time></trkpt><trkpt lat="43.77468692801944" lon="11.689612556084278"><ele>729.0</ele><time>2026-04-26T14:14:14Z</time></trkpt><trkpt lat="43.77467770689363" lon="11.689847692666863"><ele>725.0</ele><time>2026-04-26T14:14:15Z</time></trkpt><trkpt lat="43.77467753096652" lon="11.690020578323738"><ele>725.0</ele><time>2026-04-26T14:14:16Z</time></trkpt><trkpt lat="43.774688115605294" lon="11.690216180587838"><ele>725.0</ele><time>2026-04-26T14:14:17Z</time></trkpt><trkpt lat="43.77470395776247" lon="11.690413869482132"><ele>725.0</ele><time>2026-04-26T14:14:18Z</time></trkpt><trkpt lat="43.77473343850169" lon="11.690609131926832"><ele>725.0</ele><time>2026-04-26T14:14:19Z</time></trkpt><trkpt lat="43.7747734115112" lon="11.690800176543155"><ele>723.0</ele><time>2026-04-26T14:14:20Z</time></trkpt><trkpt lat="43.77480900960032" lon="11.690974605883282"><ele>721.0</ele><time>2026-04-26T14:14:21Z</time></trkpt><trkpt lat="43.774844042559366" lon="11.691142165540393"><ele>719.0</ele><time>2026-04-26T14:14:22Z</time></trkpt><trkpt lat="43.774871189527325" lon="11.691291197912141"><ele>717.0</ele><time>2026-04-26T14:14:23Z</time></trkpt><trkpt lat="43.77490243062731" lon="11.691420779417564"><ele>715.0</ele><time>2026-04-26T14:14:24Z</time></trkpt><trkpt lat="43.774959820875516" lon="11.691529975438023"><ele>713.0</ele><time>2026-04-26T14:14:25Z</time></trkpt><trkpt lat="43.7750431037153" lon="11.691601853632175"><ele>711.0</ele><time>2026-04-26T14:14:26Z</time></trkpt><trkpt lat="43.775150041561766" lon="11.691615517755759"><ele>709.0</ele><time>2026-04-26T14:14:27Z</time></trkpt><trkpt lat="43.7752554757233" lon="11.691580841002782"><ele>707.0</ele><time>2026-04-26T14:14:28Z</time></trkpt><trkpt lat="43.7753539094263" lon="11.69149908453884"><ele>707.0</ele><time>2026-04-26T14:14:29Z</time></trkpt><trkpt lat="43.77544393587701" lon="11.69138797734371"><ele>707.0</ele><time>2026-04-26T14:14:30Z</time></trkpt><trkpt lat="43.77552555050835" lon="11.691300320926233"><ele>707.0</ele><time>2026-04-26T14:14:31Z</time></trkpt><trkpt lat="43.77561744134895" lon="11.691277072596707"><ele>707.0</ele><time>2026-04-26T14:14:32Z</time></trkpt><trkpt lat="43.775700348599266" lon="11.691353577209215"><ele>707.0</ele><time>2026-04-26T14:14:33Z</time></trkpt><trkpt lat="43.77576051766898" lon="11.691453375581"><ele>707.0</ele><time>2026-04-26T14:14:34Z</time></trkpt><trkpt lat="43.775828291882625" lon="11.691564524513844"><ele>707.0</ele><time>2026-04-26T14:14:35Z</time></trkpt><trkpt lat="43.775908152970004" lon="11.691667923219999"><ele>707.0</ele><time>2026-04-26T14:14:36Z</time></trkpt><trkpt lat="43.77599117464558" lon="11.691769714110452"><ele>707.0</ele><time>2026-04-26T14:14:37Z</time></trkpt><trkpt lat="43.77608375434809" lon="11.691855926159684"><ele>707.0</ele><time>2026-04-26T14:14:38Z</time></trkpt><trkpt lat="43.77617810475493" lon="11.691921571386434"><ele>707.2</ele><time>2026-04-26T14:14:39Z</time></trkpt><trkpt lat="43.77627038539892" lon="11.691977409530246"><ele>707.4000000000001</ele><time>2026-04-26T14:14:40Z</time></trkpt><trkpt lat="43.77634924936581" lon="11.692063965757631"><ele>707.5999999999999</ele><time>2026-04-26T14:14:41Z</time></trkpt><trkpt lat="43.77639571931445" lon="11.69219714840824"><ele>707.8</ele><time>2026-04-26T14:14:42Z</time></trkpt><trkpt lat="43.776365151357304" lon="11.692339921568301"><ele>708.0</ele><time>2026-04-26T14:14:43Z</time></trkpt><trkpt lat="43.77636129999192" lon="11.692468678678791"><ele>708.0</ele><time>2026-04-26T14:14:44Z</time></trkpt><trkpt lat="43.77634147082007" lon="11.692599926732425"><ele>708.0</ele><time>2026-04-26T14:14:45Z</time></trkpt><trkpt lat="43.77627778576379" lon="11.692714425579739"><ele>708.0</ele><time>2026-04-26T14:14:46Z</time></trkpt><trkpt lat="43.77620419357974" lon="11.692850999088392"><ele>708.0</ele><time>2026-04-26T14:14:47Z</time></trkpt><trkpt lat="43.77612217579888" lon="11.693017513330032"><ele>707.0</ele><time>2026-04-26T14:14:48Z</time></trkpt><trkpt lat="43.776034917915815" lon="11.693163270401424"><ele>706.0</ele><time>2026-04-26T14:14:49Z</time></trkpt><trkpt lat="43.77594573768621" lon="11.693303385132928"><ele>705.0</ele><time>2026-04-26T14:14:50Z</time></trkpt><trkpt lat="43.77585579028182" lon="11.693443487487258"><ele>704.0</ele><time>2026-04-26T14:14:51Z</time></trkpt><trkpt lat="43.775786178105115" lon="11.693623869074663"><ele>702.25</ele><time>2026-04-26T14:14:52Z</time></trkpt><trkpt lat="43.77573184708486" lon="11.693815682930204"><ele>700.5</ele><time>2026-04-26T14:14:53Z</time></trkpt><trkpt lat="43.77565741501409" lon="11.69393028262032"><ele>698.75</ele><time>2026-04-26T14:14:53.999Z</time></trkpt><trkpt lat="43.77561349029957" lon="11.69410507760586"><ele>697.0</ele><time>2026-04-26T14:14:54.999Z</time></trkpt><trkpt lat="43.77558362046668" lon="11.694295285917429"><ele>695.5</ele><time>2026-04-26T14:14:55.999Z</time></trkpt><trkpt lat="43.775562721962146" lon="11.694491581296647"><ele>694.0</ele><time>2026-04-26T14:14:56.999Z</time></trkpt><trkpt lat="43.77555500282747" lon="11.69469688226037"><ele>692.5</ele><time>2026-04-26T14:14:57.999Z</time></trkpt><trkpt lat="43.77556794574887" lon="11.694910714742667"><ele>691.0</ele><time>2026-04-26T14:14:58.999Z</time></trkpt><trkpt lat="43.77560382677153" lon="11.695119038023474"><ele>689.75</ele><time>2026-04-26T14:14:59.999Z</time></trkpt><trkpt lat="43.77565811036348" lon="11.695310384624682"><ele>688.5</ele><time>2026-04-26T14:15:00.999Z</time></trkpt><trkpt lat="43.77572448400161" lon="11.69547456901551"><ele>687.25</ele><time>2026-04-26T14:15:01.999Z</time></trkpt><trkpt lat="43.7757872990688" lon="11.695633349312304"><ele>686.0</ele><time>2026-04-26T14:15:02.999Z</time></trkpt><trkpt lat="43.77579673591891" lon="11.695818104370632"><ele>686.0</ele><time>2026-04-26T14:15:03.999Z</time></trkpt><trkpt lat="43.7758155841387" lon="11.696002321991543"><ele>686.0</ele><time>2026-04-26T14:15:04.999Z</time></trkpt><trkpt lat="43.775843941248226" lon="11.696192966747379"><ele>686.0</ele><time>2026-04-26T14:15:05.999Z</time></trkpt><trkpt lat="43.77584972814868" lon="11.696387470609952"><ele>686.0</ele><time>2026-04-26T14:15:06.999Z</time></trkpt><trkpt lat="43.77583819805583" lon="11.696571564450998"><ele>683.75</ele><time>2026-04-26T14:15:07.999Z</time></trkpt><trkpt lat="43.7757922256045" lon="11.696730354598797"><ele>681.5</ele><time>2026-04-26T14:15:08.999Z</time></trkpt><trkpt lat="43.77569991919781" lon="11.696848285847523"><ele>679.25</ele><time>2026-04-26T14:15:09.999Z</time></trkpt><trkpt lat="43.77560126967484" lon="11.696944061050072"><ele>677.0</ele><time>2026-04-26T14:15:10.999Z</time></trkpt><trkpt lat="43.775483975658354" lon="11.696985718171163"><ele>674.75</ele><time>2026-04-26T14:15:11.999Z</time></trkpt><trkpt lat="43.77536828268588" lon="11.697057907244039"><ele>672.5</ele><time>2026-04-26T14:15:12.999Z</time></trkpt><trkpt lat="43.77525814070662" lon="11.69713119568502"><ele>670.25</ele><time>2026-04-26T14:15:13.999Z</time></trkpt><trkpt lat="43.77516696769845" lon="11.69723778268782"><ele>668.0</ele><time>2026-04-26T14:15:14.999Z</time></trkpt><trkpt lat="43.77508409502633" lon="11.697354088783827"><ele>668.0</ele><time>2026-04-26T14:15:15.999Z</time></trkpt><trkpt lat="43.774980784333735" lon="11.697417939448865"><ele>668.0</ele><time>2026-04-26T14:15:16.999Z</time></trkpt><trkpt lat="43.77486985026649" lon="11.69745093866743"><ele>668.0</ele><time>2026-04-26T14:15:17.999Z</time></trkpt><trkpt lat="43.774753787101076" lon="11.697447209574038"><ele>668.0</ele><time>2026-04-26T14:15:18.999Z</time></trkpt><trkpt lat="43.7746386080346" lon="11.697426245796729"><ele>668.0</ele><time>2026-04-26T14:15:19.999Z</time></trkpt><trkpt lat="43.77455476139703" lon="11.697302657032866"><ele>668.0</ele><time>2026-04-26T14:15:20.999Z</time></trkpt><trkpt lat="43.77447238458649" lon="11.697183540827732"><ele>668.0</ele><time>2026-04-26T14:15:21.999Z</time></trkpt><trkpt lat="43.77440148213102" lon="11.69704230552195"><ele>668.0</ele><time>2026-04-26T14:15:22.999Z</time></trkpt><trkpt lat="43.77432634248175" lon="11.696899252593106"><ele>665.25</ele><time>2026-04-26T14:15:23.999Z</time></trkpt><trkpt lat="43.77430684563314" lon="11.696724987500767"><ele>662.5</ele><time>2026-04-26T14:15:24.999Z</time></trkpt><trkpt lat="43.77431532565824" lon="11.696550201261488"><ele>659.75</ele><time>2026-04-26T14:15:25.999Z</time></trkpt><trkpt lat="43.77432621103215" lon="11.696343072861987"><ele>657.0</ele><time>2026-04-26T14:15:26.999Z</time></trkpt><trkpt lat="43.77433981214327" lon="11.696128330655728"><ele>657.3333333333334</ele><time>2026-04-26T14:15:27.999Z</time></trkpt><trkpt lat="43.77435438311992" lon="11.695907359940986"><ele>657.6666666666667</ele><time>2026-04-26T14:15:28.999Z</time></trkpt><trkpt lat="43.77436874033131" lon="11.695691547605566"><ele>658.0</ele><time>2026-04-26T14:15:30Z</time></trkpt><trkpt lat="43.774382335300714" lon="11.695485046183896"><ele>665.0</ele><time>2026-04-26T14:15:31Z</time></trkpt><trkpt lat="43.774398044714154" lon="11.69528272979954"><ele>672.0</ele><time>2026-04-26T14:15:32Z</time></trkpt><trkpt lat="43.77442255686833" lon="11.69507998487516"><ele>679.0</ele><time>2026-04-26T14:15:33Z</time></trkpt><trkpt lat="43.77445369558153" lon="11.694882446275907"><ele>686.0</ele><time>2026-04-26T14:15:34Z</time></trkpt><trkpt lat="43.774486780010385" lon="11.694698983678743"><ele>686.0</ele><time>2026-04-26T14:15:35Z</time></trkpt><trkpt lat="43.7745083569873" lon="11.694526248889233"><ele>686.0</ele><time>2026-04-26T14:15:36Z</time></trkpt><trkpt lat="43.774555477444245" lon="11.694371437873725"><ele>686.0</ele><time>2026-04-26T14:15:37Z</time></trkpt><trkpt lat="43.774611559524914" lon="11.694243858506594"><ele>686.0</ele><time>2026-04-26T14:15:38Z</time></trkpt><trkpt lat="43.77461020587537" lon="11.694114375907521"><ele>686.0</ele><time>2026-04-26T14:15:39Z</time></trkpt><trkpt lat="43.774598733006485" lon="11.693999651452389"><ele>684.8</ele><time>2026-04-26T14:15:40Z</time></trkpt><trkpt lat="43.77450838274087" lon="11.693933178570877"><ele>683.5999999999999</ele><time>2026-04-26T14:15:41Z</time></trkpt><trkpt lat="43.774422261981705" lon="11.693906356481607"><ele>682.4</ele><time>2026-04-26T14:15:42Z</time></trkpt><trkpt lat="43.77433216898754" lon="11.693954133815039"><ele>681.2</ele><time>2026-04-26T14:15:43Z</time></trkpt><trkpt lat="43.77426192588295" lon="11.694076773689822"><ele>680.0</ele><time>2026-04-26T14:15:44Z</time></trkpt><trkpt lat="43.77421558277372" lon="11.694231523036024"><ele>677.5</ele><time>2026-04-26T14:15:45Z</time></trkpt><trkpt lat="43.77415934219305" lon="11.694401106644941"><ele>675.0</ele><time>2026-04-26T14:15:46Z</time></trkpt><trkpt lat="43.774094641292436" lon="11.694570401582071"><ele>672.5</ele><time>2026-04-26T14:15:47Z</time></trkpt><trkpt lat="43.774025674101566" lon="11.694740981445337"><ele>670.0</ele><time>2026-04-26T14:15:48Z</time></trkpt><trkpt lat="43.773947783080665" lon="11.694904660462324"><ele>668.2</ele><time>2026-04-26T14:15:49Z</time></trkpt><trkpt lat="43.77385033070597" lon="11.695025239342277"><ele>666.4</ele><time>2026-04-26T14:15:50Z</time></trkpt><trkpt lat="43.77376102331645" lon="11.695134368170017"><ele>664.5999999999999</ele><time>2026-04-26T14:15:51Z</time></trkpt><trkpt lat="43.773688476267665" lon="11.695245910473947"><ele>662.8</ele><time>2026-04-26T14:15:52Z</time></trkpt><trkpt lat="43.77361247366329" lon="11.695311335089945"><ele>661.0</ele><time>2026-04-26T14:15:53Z</time></trkpt><trkpt lat="43.773539921289945" lon="11.695334235780592"><ele>658.1999999999999</ele><time>2026-04-26T14:15:54Z</time></trkpt><trkpt lat="43.77347028683882" lon="11.695297227024605"><ele>655.4</ele><time>2026-04-26T14:15:55Z</time></trkpt><trkpt lat="43.77341581516234" lon="11.695209203748934"><ele>652.6</ele><time>2026-04-26T14:15:56Z</time></trkpt><trkpt lat="43.773416376355044" lon="11.695060412180055"><ele>649.8</ele><time>2026-04-26T14:15:57Z</time></trkpt><trkpt lat="43.773409994534575" lon="11.694909073098202"><ele>647.0</ele><time>2026-04-26T14:15:58Z</time></trkpt><trkpt lat="43.773378340858066" lon="11.694756405913052"><ele>647.0</ele><time>2026-04-26T14:15:59Z</time></trkpt><trkpt lat="43.773312755832606" lon="11.69462501702713"><ele>647.0</ele><time>2026-04-26T14:16:00Z</time></trkpt><trkpt lat="43.773238398255366" lon="11.69451220987387"><ele>647.0</ele><time>2026-04-26T14:16:01Z</time></trkpt><trkpt lat="43.77314176238936" lon="11.694442264235757"><ele>647.0</ele><time>2026-04-26T14:16:02Z</time></trkpt><trkpt lat="43.77302429565544" lon="11.69441891325433"><ele>644.6</ele><time>2026-04-26T14:16:03Z</time></trkpt><trkpt lat="43.77291057985362" lon="11.69439207668335"><ele>642.2</ele><time>2026-04-26T14:16:04Z</time></trkpt><trkpt lat="43.77280140479994" lon="11.694366210347194"><ele>639.8</ele><time>2026-04-26T14:16:05Z</time></trkpt><trkpt lat="43.77270787998661" lon="11.694332139796462"><ele>637.4</ele><time>2026-04-26T14:16:05.999Z</time></trkpt><trkpt lat="43.77262956080328" lon="11.694270159119156"><ele>635.0</ele><time>2026-04-26T14:16:06.999Z</time></trkpt><trkpt lat="43.77256767411045" lon="11.694175327090855"><ele>635.0</ele><time>2026-04-26T14:16:07.999Z</time></trkpt><trkpt lat="43.77253173466211" lon="11.694054162648058"><ele>635.0</ele><time>2026-04-26T14:16:08.999Z</time></trkpt><trkpt lat="43.77254720302513" lon="11.69392292506496"><ele>635.0</ele><time>2026-04-26T14:16:09.999Z</time></trkpt><trkpt lat="43.77256590719893" lon="11.69378060623523"><ele>635.0</ele><time>2026-04-26T14:16:10.999Z</time></trkpt><trkpt lat="43.77258297454323" lon="11.69363849694748"><ele>635.0</ele><time>2026-04-26T14:16:11.999Z</time></trkpt><trkpt lat="43.77258150316365" lon="11.693496561019098"><ele>634.8</ele><time>2026-04-26T14:16:12.999Z</time></trkpt><trkpt lat="43.77258469924768" lon="11.693368474891367"><ele>634.6</ele><time>2026-04-26T14:16:13.999Z</time></trkpt><trkpt lat="43.77255394514464" lon="11.693259299293391"><ele>634.4</ele><time>2026-04-26T14:16:14.999Z</time></trkpt><trkpt lat="43.77248421310592" lon="11.693178833876377"><ele>634.2</ele><time>2026-04-26T14:16:15.999Z</time></trkpt><trkpt lat="43.77239138781378" lon="11.693145238216017"><ele>634.0</ele><time>2026-04-26T14:16:16.999Z</time></trkpt><trkpt lat="43.77229438989749" lon="11.693172639919108"><ele>634.0</ele><time>2026-04-26T14:16:17.999Z</time></trkpt><trkpt lat="43.77220992694392" lon="11.693259818139005"><ele>634.0</ele><time>2026-04-26T14:16:18.999Z</time></trkpt><trkpt lat="43.77215267040056" lon="11.69339559146982"><ele>634.0</ele><time>2026-04-26T14:16:19.999Z</time></trkpt><trkpt lat="43.77212235424198" lon="11.69357489797317"><ele>634.0</ele><time>2026-04-26T14:16:20.999Z</time></trkpt><trkpt lat="43.77208223559457" lon="11.693767850552002"><ele>634.3333333333334</ele><time>2026-04-26T14:16:21.999Z</time></trkpt><trkpt lat="43.77200121286259" lon="11.693948584089187"><ele>634.6666666666666</ele><time>2026-04-26T14:16:22.999Z</time></trkpt><trkpt lat="43.77188895049453" lon="11.694107699657927"><ele>635.0</ele><time>2026-04-26T14:16:23.999Z</time></trkpt><trkpt lat="43.771777986113136" lon="11.694245435758358"><ele>631.5</ele><time>2026-04-26T14:16:24.999Z</time></trkpt><trkpt lat="43.77166502534158" lon="11.694348778366496"><ele>628.0</ele><time>2026-04-26T14:16:25.999Z</time></trkpt><trkpt lat="43.771563841248025" lon="11.694455948002648"><ele>624.5</ele><time>2026-04-26T14:16:26.999Z</time></trkpt><trkpt lat="43.77147734195994" lon="11.694567842011722"><ele>621.0</ele><time>2026-04-26T14:16:27.999Z</time></trkpt><trkpt lat="43.77139175477874" lon="11.694653279793835"><ele>620.8</ele><time>2026-04-26T14:16:28.999Z</time></trkpt><trkpt lat="43.771334274414414" lon="11.69475577439185"><ele>620.6</ele><time>2026-04-26T14:16:29.999Z</time></trkpt><trkpt lat="43.77130328304345" lon="11.694889014824383"><ele>620.4</ele><time>2026-04-26T14:16:30.999Z</time></trkpt><trkpt lat="43.771287195247716" lon="11.69504456843745"><ele>620.2</ele><time>2026-04-26T14:16:31.999Z</time></trkpt><trkpt lat="43.771275731081765" lon="11.695213068181099"><ele>620.0</ele><time>2026-04-26T14:16:32.999Z</time></trkpt><trkpt lat="43.77125346825986" lon="11.695391010725514"><ele>619.5</ele><time>2026-04-26T14:16:33.999Z</time></trkpt><trkpt lat="43.771216959034305" lon="11.695576911572077"><ele>619.0</ele><time>2026-04-26T14:16:34.999Z</time></trkpt><trkpt lat="43.77116658328672" lon="11.695759690966426"><ele>618.5</ele><time>2026-04-26T14:16:35.999Z</time></trkpt><trkpt lat="43.77111250092003" lon="11.69594480446488"><ele>618.0</ele><time>2026-04-26T14:16:36.999Z</time></trkpt><trkpt lat="43.7710657731073" lon="11.696126608179272"><ele>615.25</ele><time>2026-04-26T14:16:37.999Z</time></trkpt><trkpt lat="43.77102555967744" lon="11.696299890042946"><ele>612.5</ele><time>2026-04-26T14:16:38.999Z</time></trkpt><trkpt lat="43.77098616655784" lon="11.696452546711308"><ele>609.75</ele><time>2026-04-26T14:16:39.999Z</time></trkpt><trkpt lat="43.770955567886595" lon="11.696588721166028"><ele>607.0</ele><time>2026-04-26T14:16:40.999Z</time></trkpt><trkpt lat="43.77094702937005" lon="11.696733408549997"><ele>604.5</ele><time>2026-04-26T14:16:41.999Z</time></trkpt><trkpt lat="43.77096381722721" lon="11.696889351371565"><ele>602.0</ele><time>2026-04-26T14:16:42.999Z</time></trkpt><trkpt lat="43.77099679198239" lon="11.697046085801821"><ele>599.5</ele><time>2026-04-26T14:16:43.999Z</time></trkpt><trkpt lat="43.77102863936732" lon="11.697203390663853"><ele>597.0</ele><time>2026-04-26T14:16:44.999Z</time></trkpt><trkpt lat="43.77105458905955" lon="11.69736642105649"><ele>597.0</ele><time>2026-04-26T14:16:45.999Z</time></trkpt><trkpt lat="43.77106596502101" lon="11.697537254805221"><ele>597.0</ele><time>2026-04-26T14:16:46.999Z</time></trkpt><trkpt lat="43.77105663808912" lon="11.697711517288763"><ele>597.0</ele><time>2026-04-26T14:16:47.999Z</time></trkpt><trkpt lat="43.77102248607397" lon="11.697879946798722"><ele>597.0</ele><time>2026-04-26T14:16:48.999Z</time></trkpt><trkpt lat="43.77097238236485" lon="11.698031573941511"><ele>595.2</ele><time>2026-04-26T14:16:49.999Z</time></trkpt><trkpt lat="43.770913635686554" lon="11.69814593196763"><ele>593.4000000000001</ele><time>2026-04-26T14:16:50.999Z</time></trkpt><trkpt lat="43.770849657015866" lon="11.698241255734859"><ele>591.5999999999999</ele><time>2026-04-26T14:16:51.999Z</time></trkpt><trkpt lat="43.77078751686857" lon="11.698316563481672"><ele>589.8</ele><time>2026-04-26T14:16:52.999Z</time></trkpt><trkpt lat="43.77072199136584" lon="11.698393524467585"><ele>588.0</ele><time>2026-04-26T14:16:53.999Z</time></trkpt><trkpt lat="43.7706492805447" lon="11.698476813433553"><ele>588.0</ele><time>2026-04-26T14:16:54.999Z</time></trkpt><trkpt lat="43.77056644572853" lon="11.698575111111213"><ele>588.0</ele><time>2026-04-26T14:16:55.999Z</time></trkpt><trkpt lat="43.770466518015965" lon="11.698684590569908"><ele>588.0</ele><time>2026-04-26T14:16:56.999Z</time></trkpt><trkpt lat="43.770356778500805" lon="11.698806789497354"><ele>588.0</ele><time>2026-04-26T14:16:57.999Z</time></trkpt><trkpt lat="43.77024129801856" lon="11.698943211014079"><ele>585.0</ele><time>2026-04-26T14:16:58.999Z</time></trkpt><trkpt lat="43.77013492729297" lon="11.699104167711166"><ele>582.0</ele><time>2026-04-26T14:16:59.999Z</time></trkpt><trkpt lat="43.77004283509845" lon="11.699301170914262"><ele>579.0</ele><time>2026-04-26T14:17:00.999Z</time></trkpt><trkpt lat="43.769965336122254" lon="11.699504986396352"><ele>576.6666666666666</ele><time>2026-04-26T14:17:01.999Z</time></trkpt><trkpt lat="43.769898342766616" lon="11.699705060845412"><ele>574.3333333333333</ele><time>2026-04-26T14:17:02.999Z</time></trkpt><trkpt lat="43.76983348293999" lon="11.699903185685903"><ele>572.0</ele><time>2026-04-26T14:17:03.999Z</time></trkpt><trkpt lat="43.76977053089481" lon="11.700098053380167"><ele>569.0</ele><time>2026-04-26T14:17:04.999Z</time></trkpt><trkpt lat="43.76970408738799" lon="11.700286947724603"><ele>566.0</ele><time>2026-04-26T14:17:05.999Z</time></trkpt><trkpt lat="43.76961225365519" lon="11.70046872182356"><ele>563.0</ele><time>2026-04-26T14:17:06.999Z</time></trkpt><trkpt lat="43.76949477161604" lon="11.700645019575619"><ele>562.3333333333333</ele><time>2026-04-26T14:17:07.999Z</time></trkpt><trkpt lat="43.76935761351222" lon="11.70082563217512"><ele>561.6666666666666</ele><time>2026-04-26T14:17:08.999Z</time></trkpt><trkpt lat="43.76920862994767" lon="11.701006492046545"><ele>561.0</ele><time>2026-04-26T14:17:09.999Z</time></trkpt><trkpt lat="43.769056743855074" lon="11.70119375336691"><ele>561.0</ele><time>2026-04-26T14:17:10.999Z</time></trkpt><trkpt lat="43.76889703529473" lon="11.701390610046317"><ele>561.0</ele><time>2026-04-26T14:17:11.999Z</time></trkpt><trkpt lat="43.76873112604623" lon="11.701586900123537"><ele>561.0</ele><time>2026-04-26T14:17:12.999Z</time></trkpt><trkpt lat="43.76856283182103" lon="11.701777283905503"><ele>562.0</ele><time>2026-04-26T14:17:13.999Z</time></trkpt><trkpt lat="43.76840295234274" lon="11.701962737936526"><ele>563.0</ele><time>2026-04-26T14:17:14.999Z</time></trkpt><trkpt lat="43.7682481151328" lon="11.702141136677046"><ele>564.0</ele><time>2026-04-26T14:17:15.999Z</time></trkpt><trkpt lat="43.76809369975137" lon="11.702311508800532"><ele>564.0</ele><time>2026-04-26T14:17:16.999Z</time></trkpt><trkpt lat="43.76794337771857" lon="11.702480347019717"><ele>564.0</ele><time>2026-04-26T14:17:17.999Z</time></trkpt><trkpt lat="43.76779473711342" lon="11.702648629811184"><ele>564.0</ele><time>2026-04-26T14:17:18.999Z</time></trkpt><trkpt lat="43.76763362408739" lon="11.702805792484927"><ele>562.3333333333334</ele><time>2026-04-26T14:17:19.999Z</time></trkpt><trkpt lat="43.767452369392096" lon="11.702922005295145"><ele>560.6666666666667</ele><time>2026-04-26T14:17:20.999Z</time></trkpt><trkpt lat="43.767262672243355" lon="11.702989659352495"><ele>559.0</ele><time>2026-04-26T14:17:21.999Z</time></trkpt><trkpt lat="43.76707183811601" lon="11.703007064040932"><ele>559.0</ele><time>2026-04-26T14:17:22.999Z</time></trkpt><trkpt lat="43.766890842885076" lon="11.702979038005921"><ele>559.0</ele><time>2026-04-26T14:17:23.999Z</time></trkpt><trkpt lat="43.76672431565845" lon="11.702918519239368"><ele>559.0</ele><time>2026-04-26T14:17:24.998Z</time></trkpt><trkpt lat="43.766579235717614" lon="11.702807492631177"><ele>559.0</ele><time>2026-04-26T14:17:25.998Z</time></trkpt><trkpt lat="43.766440473819024" lon="11.70275900684821"><ele>559.0</ele><time>2026-04-26T14:17:26.998Z</time></trkpt><trkpt lat="43.76631565710236" lon="11.702746432224167"><ele>559.0</ele><time>2026-04-26T14:17:27.998Z</time></trkpt><trkpt lat="43.76619545328041" lon="11.702790085325079"><ele>559.0</ele><time>2026-04-26T14:17:28.998Z</time></trkpt><trkpt lat="43.766083682375395" lon="11.702886881362291"><ele>556.75</ele><time>2026-04-26T14:17:29.998Z</time></trkpt><trkpt lat="43.76599397327935" lon="11.703028304124878"><ele>554.5</ele><time>2026-04-26T14:17:30.998Z</time></trkpt><trkpt lat="43.765936062592154" lon="11.703202210962505"><ele>552.25</ele><time>2026-04-26T14:17:31.998Z</time></trkpt><trkpt lat="43.76590947539724" lon="11.703397302413038"><ele>550.0</ele><time>2026-04-26T14:17:32.998Z</time></trkpt><trkpt lat="43.76591059426436" lon="11.70360884214412"><ele>548.6666666666667</ele><time>2026-04-26T14:17:33.998Z</time></trkpt><trkpt lat="43.76591496744223" lon="11.703832445154225"><ele>547.3333333333334</ele><time>2026-04-26T14:17:34.998Z</time></trkpt><trkpt lat="43.765887152973356" lon="11.704058218222803"><ele>546.0</ele><time>2026-04-26T14:17:35.999Z</time></trkpt><trkpt lat="43.76580435827226" lon="11.704274810259376"><ele>546.0</ele><time>2026-04-26T14:17:36.999Z</time></trkpt><trkpt lat="43.76570187015283" lon="11.704495124514946"><ele>546.0</ele><time>2026-04-26T14:17:37.999Z</time></trkpt><trkpt lat="43.76557011354221" lon="11.70471104502782"><ele>546.0</ele><time>2026-04-26T14:17:38.999Z</time></trkpt><trkpt lat="43.765414910946895" lon="11.704925642800386"><ele>546.0</ele><time>2026-04-26T14:17:39.999Z</time></trkpt><trkpt lat="43.7652540483615" lon="11.705143992310456"><ele>546.0</ele><time>2026-04-26T14:17:40.999Z</time></trkpt><trkpt lat="43.765072262377416" lon="11.705320425326576"><ele>546.0</ele><time>2026-04-26T14:17:41.999Z</time></trkpt><trkpt lat="43.76488597147121" lon="11.705476187743775"><ele>544.0</ele><time>2026-04-26T14:17:43Z</time></trkpt><trkpt lat="43.764704402909224" lon="11.705621203803036"><ele>542.0</ele><time>2026-04-26T14:17:44Z</time></trkpt><trkpt lat="43.76452953459852" lon="11.705767098076105"><ele>540.0</ele><time>2026-04-26T14:17:45Z</time></trkpt><trkpt lat="43.764360959075546" lon="11.705912721617642"><ele>539.0</ele><time>2026-04-26T14:17:46Z</time></trkpt><trkpt lat="43.76419766554751" lon="11.706053697056342"><ele>538.0</ele><time>2026-04-26T14:17:47Z</time></trkpt><trkpt lat="43.76403706119391" lon="11.706187751591116"><ele>537.0</ele><time>2026-04-26T14:17:48Z</time></trkpt><trkpt lat="43.76387846270658" lon="11.706313944691475"><ele>537.0</ele><time>2026-04-26T14:17:49Z</time></trkpt><trkpt lat="43.76371945347586" lon="11.706449511413803"><ele>537.0</ele><time>2026-04-26T14:17:50Z</time></trkpt><trkpt lat="43.76356573354786" lon="11.706609991527955"><ele>537.0</ele><time>2026-04-26T14:17:51Z</time></trkpt><trkpt lat="43.76342288874675" lon="11.70679690958348"><ele>534.6666666666666</ele><time>2026-04-26T14:17:52Z</time></trkpt><trkpt lat="43.7632861942506" lon="11.706998821791906"><ele>532.3333333333333</ele><time>2026-04-26T14:17:53Z</time></trkpt><trkpt lat="43.76314619479112" lon="11.707206055789687"><ele>530.0</ele><time>2026-04-26T14:17:54Z</time></trkpt><trkpt lat="43.76301243700366" lon="11.707401031263478"><ele>530.0</ele><time>2026-04-26T14:17:55Z</time></trkpt><trkpt lat="43.76288750467493" lon="11.707581726519356"><ele>530.0</ele><time>2026-04-26T14:17:56Z</time></trkpt><trkpt lat="43.7627823016786" lon="11.707745551308737"><ele>530.0</ele><time>2026-04-26T14:17:57Z</time></trkpt><trkpt lat="43.76269485251388" lon="11.707932201737876"><ele>526.3333333333333</ele><time>2026-04-26T14:17:58Z</time></trkpt><trkpt lat="43.76262494520846" lon="11.708154768584958"><ele>522.6666666666666</ele><time>2026-04-26T14:17:59Z</time></trkpt><trkpt lat="43.762565359911015" lon="11.708390228929614"><ele>519.0</ele><time>2026-04-26T14:18:00Z</time></trkpt><trkpt lat="43.762494917553" lon="11.708599767007707"><ele>518.3333333333334</ele><time>2026-04-26T14:18:01Z</time></trkpt><trkpt lat="43.762410340238375" lon="11.708779098119827"><ele>517.6666666666667</ele><time>2026-04-26T14:18:02Z</time></trkpt><trkpt lat="43.762303596699844" lon="11.708916722783446"><ele>517.0</ele><time>2026-04-26T14:18:03Z</time></trkpt><trkpt lat="43.76216966977071" lon="11.709012364183428"><ele>517.0</ele><time>2026-04-26T14:18:03.999Z</time></trkpt><trkpt lat="43.76201927586729" lon="11.709038393589099"><ele>517.0</ele><time>2026-04-26T14:18:04.999Z</time></trkpt><trkpt lat="43.76186537404248" lon="11.70910175541914"><ele>517.0</ele><time>2026-04-26T14:18:05.999Z</time></trkpt><trkpt lat="43.761688102209696" lon="11.70913846951977"><ele>515.0</ele><time>2026-04-26T14:18:06.999Z</time></trkpt><trkpt lat="43.76150570129647" lon="11.709179739581337"><ele>513.0</ele><time>2026-04-26T14:18:07.999Z</time></trkpt><trkpt lat="43.76132754599288" lon="11.709228143314972"><ele>511.0</ele><time>2026-04-26T14:18:08.999Z</time></trkpt><trkpt lat="43.761153461200756" lon="11.709296458252593"><ele>509.6666666666667</ele><time>2026-04-26T14:18:09.999Z</time></trkpt><trkpt lat="43.76097758597537" lon="11.709395032542675"><ele>508.33333333333337</ele><time>2026-04-26T14:18:10.999Z</time></trkpt><trkpt lat="43.76080409980962" lon="11.709508329810028"><ele>507.0</ele><time>2026-04-26T14:18:11.999Z</time></trkpt><trkpt lat="43.76063906308496" lon="11.709615659881226"><ele>507.0</ele><time>2026-04-26T14:18:12.999Z</time></trkpt><trkpt lat="43.760499176974335" lon="11.709710064250435"><ele>507.0</ele><time>2026-04-26T14:18:13.999Z</time></trkpt><trkpt lat="43.76037297854587" lon="11.709830070134991"><ele>507.0</ele><time>2026-04-26T14:18:14.999Z</time></trkpt><trkpt lat="43.76025404256038" lon="11.709993785837096"><ele>503.66666666666663</ele><time>2026-04-26T14:18:15.999Z</time></trkpt><trkpt lat="43.76013062703912" lon="11.710170441567747"><ele>500.3333333333333</ele><time>2026-04-26T14:18:16.999Z</time></trkpt><trkpt lat="43.76001598978036" lon="11.710359468199218"><ele>497.0</ele><time>2026-04-26T14:18:17.999Z</time></trkpt><trkpt lat="43.759921339879305" lon="11.710571865449998"><ele>497.0</ele><time>2026-04-26T14:18:18.999Z</time></trkpt><trkpt lat="43.75983798853912" lon="11.71080188590792"><ele>497.0</ele><time>2026-04-26T14:18:19.999Z</time></trkpt><trkpt lat="43.7597553005246" lon="11.711036056976493"><ele>497.0</ele><time>2026-04-26T14:18:20.999Z</time></trkpt><trkpt lat="43.75967144009193" lon="11.711264485923392"><ele>498.3333333333333</ele><time>2026-04-26T14:18:21.999Z</time></trkpt><trkpt lat="43.75958977390776" lon="11.711493445637366"><ele>499.66666666666663</ele><time>2026-04-26T14:18:22.999Z</time></trkpt><trkpt lat="43.75951579530957" lon="11.711726579715982"><ele>501.0</ele><time>2026-04-26T14:18:23.999Z</time></trkpt><trkpt lat="43.75944985124099" lon="11.71196519351163"><ele>502.33333333333337</ele><time>2026-04-26T14:18:24.999Z</time></trkpt><trkpt lat="43.75938929304425" lon="11.712207975399771"><ele>503.6666666666667</ele><time>2026-04-26T14:18:25.999Z</time></trkpt><trkpt lat="43.75933124569103" lon="11.712449246714081"><ele>505.0</ele><time>2026-04-26T14:18:26.999Z</time></trkpt><trkpt lat="43.75927679706891" lon="11.712677806633458"><ele>501.6666666666667</ele><time>2026-04-26T14:18:27.999Z</time></trkpt><trkpt lat="43.75921514832038" lon="11.712892352275187"><ele>498.33333333333337</ele><time>2026-04-26T14:18:28.999Z</time></trkpt><trkpt lat="43.7591275466397" lon="11.713076603292402"><ele>495.0</ele><time>2026-04-26T14:18:29.999Z</time></trkpt><trkpt lat="43.759016190547236" lon="11.71323304012677"><ele>495.0</ele><time>2026-04-26T14:18:30.999Z</time></trkpt><trkpt lat="43.75890048445595" lon="11.713371091013679"><ele>495.0</ele><time>2026-04-26T14:18:31.999Z</time></trkpt><trkpt lat="43.75881238403859" lon="11.713515030609772"><ele>495.0</ele><time>2026-04-26T14:18:32.999Z</time></trkpt><trkpt lat="43.75874469185041" lon="11.713680312890508"><ele>495.0</ele><time>2026-04-26T14:18:33.999Z</time></trkpt><trkpt lat="43.75870717721354" lon="11.713890734839465"><ele>497.33333333333337</ele><time>2026-04-26T14:18:34.999Z</time></trkpt><trkpt lat="43.758683385862234" lon="11.71412717292212"><ele>499.6666666666667</ele><time>2026-04-26T14:18:35.999Z</time></trkpt><trkpt lat="43.75864231288374" lon="11.714357066494491"><ele>502.0</ele><time>2026-04-26T14:18:36.999Z</time></trkpt><trkpt lat="43.75860566718877" lon="11.714579593563908"><ele>502.0</ele><time>2026-04-26T14:18:37.999Z</time></trkpt><trkpt lat="43.758600354937045" lon="11.71479448269426"><ele>502.0</ele><time>2026-04-26T14:18:38.999Z</time></trkpt><trkpt lat="43.75863638873141" lon="11.715027522441872"><ele>502.0</ele><time>2026-04-26T14:18:39.999Z</time></trkpt><trkpt lat="43.75868765694011" lon="11.715253184506244"><ele>501.5</ele><time>2026-04-26T14:18:40.999Z</time></trkpt><trkpt lat="43.758721406252064" lon="11.71546190579432"><ele>501.0</ele><time>2026-04-26T14:18:41.999Z</time></trkpt><trkpt lat="43.75872514250329" lon="11.71566368059375"><ele>500.5</ele><time>2026-04-26T14:18:42.999Z</time></trkpt><trkpt lat="43.758668126263636" lon="11.715850735640593"><ele>500.0</ele><time>2026-04-26T14:18:43.999Z</time></trkpt><trkpt lat="43.75858958302145" lon="11.71604101484422"><ele>496.0</ele><time>2026-04-26T14:18:44.999Z</time></trkpt><trkpt lat="43.75849292892062" lon="11.716238735614612"><ele>492.0</ele><time>2026-04-26T14:18:45.999Z</time></trkpt><trkpt lat="43.75836213444336" lon="11.716422838866622"><ele>488.0</ele><time>2026-04-26T14:18:46.999Z</time></trkpt><trkpt lat="43.75822841454628" lon="11.716598675424194"><ele>488.0</ele><time>2026-04-26T14:18:47.999Z</time></trkpt><trkpt lat="43.75810549612828" lon="11.716775891534114"><ele>488.0</ele><time>2026-04-26T14:18:48.999Z</time></trkpt><trkpt lat="43.757942826924626" lon="11.716891814020013"><ele>488.0</ele><time>2026-04-26T14:18:49.999Z</time></trkpt><trkpt lat="43.75776842700213" lon="11.716973697465159"><ele>485.0</ele><time>2026-04-26T14:18:50.999Z</time></trkpt><trkpt lat="43.75760305394248" lon="11.717083970042314"><ele>482.0</ele><time>2026-04-26T14:18:51.999Z</time></trkpt><trkpt lat="43.7574547532875" lon="11.717201911628534"><ele>479.0</ele><time>2026-04-26T14:18:52.999Z</time></trkpt><trkpt lat="43.75731397249455" lon="11.71730511368382"><ele>479.0</ele><time>2026-04-26T14:18:53.999Z</time></trkpt><trkpt lat="43.757157635089705" lon="11.717354382243832"><ele>479.0</ele><time>2026-04-26T14:18:54.999Z</time></trkpt><trkpt lat="43.756996024099166" lon="11.717359428258153"><ele>479.0</ele><time>2026-04-26T14:18:55.999Z</time></trkpt><trkpt lat="43.75681794948995" lon="11.717343594304808"><ele>475.3333333333333</ele><time>2026-04-26T14:18:56.999Z</time></trkpt><trkpt lat="43.75663712249352" lon="11.717358328968611"><ele>471.66666666666663</ele><time>2026-04-26T14:18:57.999Z</time></trkpt><trkpt lat="43.75645397884997" lon="11.717384770486522"><ele>468.0</ele><time>2026-04-26T14:18:58.999Z</time></trkpt><trkpt lat="43.75625917351771" lon="11.717462621879518"><ele>468.0</ele><time>2026-04-26T14:18:59.999Z</time></trkpt><trkpt lat="43.75606748588076" lon="11.717565655188478"><ele>468.0</ele><time>2026-04-26T14:19:00.999Z</time></trkpt><trkpt lat="43.75589153301575" lon="11.7176722387621"><ele>468.0</ele><time>2026-04-26T14:19:01.999Z</time></trkpt><trkpt lat="43.7557408876041" lon="11.717806769624387"><ele>466.5</ele><time>2026-04-26T14:19:02.999Z</time></trkpt><trkpt lat="43.75562101281917" lon="11.717956655804175"><ele>465.0</ele><time>2026-04-26T14:19:03.999Z</time></trkpt><trkpt lat="43.75552615729007" lon="11.718107182875963"><ele>463.5</ele><time>2026-04-26T14:19:04.999Z</time></trkpt><trkpt lat="43.75547309361284" lon="11.71828211850004"><ele>462.0</ele><time>2026-04-26T14:19:05.999Z</time></trkpt><trkpt lat="43.755453383639534" lon="11.718492901880678"><ele>461.66666666666663</ele><time>2026-04-26T14:19:06.999Z</time></trkpt><trkpt lat="43.7554198337028" lon="11.718711802784826"><ele>461.3333333333333</ele><time>2026-04-26T14:19:07.999Z</time></trkpt><trkpt lat="43.75531671630907" lon="11.718907038875127"><ele>461.0</ele><time>2026-04-26T14:19:08.999Z</time></trkpt><trkpt lat="43.75519231186127" lon="11.719104263199434"><ele>458.0</ele><time>2026-04-26T14:19:09.999Z</time></trkpt><trkpt lat="43.75507821718915" lon="11.719296640356566"><ele>455.0</ele><time>2026-04-26T14:19:10.999Z</time></trkpt><trkpt lat="43.75495369218224" lon="11.71947197969743"><ele>452.0</ele><time>2026-04-26T14:19:11.999Z</time></trkpt><trkpt lat="43.75481892714115" lon="11.719596082159802"><ele>452.0</ele><time>2026-04-26T14:19:12.999Z</time></trkpt><trkpt lat="43.75468212191541" lon="11.719694958142528"><ele>452.0</ele><time>2026-04-26T14:19:13.999Z</time></trkpt><trkpt lat="43.75453131972848" lon="11.719738332767657"><ele>452.0</ele><time>2026-04-26T14:19:14.999Z</time></trkpt><trkpt lat="43.754380467012766" lon="11.719777105137194"><ele>450.0</ele><time>2026-04-26T14:19:15.999Z</time></trkpt><trkpt lat="43.754231742151426" lon="11.719829998699392"><ele>448.0</ele><time>2026-04-26T14:19:16.999Z</time></trkpt><trkpt lat="43.754091893037035" lon="11.719856898483002"><ele>446.0</ele><time>2026-04-26T14:19:17.999Z</time></trkpt><trkpt lat="43.75397287707713" lon="11.719888739415365"><ele>444.0</ele><time>2026-04-26T14:19:18.999Z</time></trkpt><trkpt lat="43.75385759645342" lon="11.719942589712712"><ele>444.0</ele><time>2026-04-26T14:19:19.999Z</time></trkpt><trkpt lat="43.753754248748535" lon="11.72004457489074"><ele>444.0</ele><time>2026-04-26T14:19:20.999Z</time></trkpt><trkpt lat="43.75367061276626" lon="11.720187331320675"><ele>444.0</ele><time>2026-04-26T14:19:21.999Z</time></trkpt><trkpt lat="43.753611258152134" lon="11.720357949249049"><ele>444.0</ele><time>2026-04-26T14:19:22.999Z</time></trkpt><trkpt lat="43.75356822226006" lon="11.72054163573742"><ele>442.25</ele><time>2026-04-26T14:19:23.999Z</time></trkpt><trkpt lat="43.75352087593563" lon="11.720730444505726"><ele>440.5</ele><time>2026-04-26T14:19:24.999Z</time></trkpt><trkpt lat="43.75346167443128" lon="11.720917010372922"><ele>438.75</ele><time>2026-04-26T14:19:25.999Z</time></trkpt><trkpt lat="43.75336589621949" lon="11.721071226746059"><ele>437.0</ele><time>2026-04-26T14:19:26.999Z</time></trkpt><trkpt lat="43.75325833434983" lon="11.721210894928562"><ele>437.0</ele><time>2026-04-26T14:19:27.999Z</time></trkpt><trkpt lat="43.75314076514238" lon="11.721315154574931"><ele>437.0</ele><time>2026-04-26T14:19:28.999Z</time></trkpt><trkpt lat="43.753022577333624" lon="11.72139849092731"><ele>437.0</ele><time>2026-04-26T14:19:29.999Z</time></trkpt><trkpt lat="43.75292285971803" lon="11.721484694490398"><ele>437.0</ele><time>2026-04-26T14:19:30.999Z</time></trkpt><trkpt lat="43.75283299216348" lon="11.721569164813696"><ele>437.0</ele><time>2026-04-26T14:19:31.999Z</time></trkpt><trkpt lat="43.75277476962756" lon="11.72171183812048"><ele>437.0</ele><time>2026-04-26T14:19:32.999Z</time></trkpt><trkpt lat="43.752738669315924" lon="11.721882062654503"><ele>437.0</ele><time>2026-04-26T14:19:33.999Z</time></trkpt><trkpt lat="43.752706520354366" lon="11.722056001716144"><ele>437.0</ele><time>2026-04-26T14:19:34.999Z</time></trkpt><trkpt lat="43.7526710598676" lon="11.722226538736308"><ele>433.75</ele><time>2026-04-26T14:19:35.999Z</time></trkpt><trkpt lat="43.75262969316815" lon="11.72239104470903"><ele>430.5</ele><time>2026-04-26T14:19:36.999Z</time></trkpt><trkpt lat="43.752578917672984" lon="11.722544316248479"><ele>427.25</ele><time>2026-04-26T14:19:37.999Z</time></trkpt><trkpt lat="43.75250852848858" lon="11.722675322492424"><ele>424.0</ele><time>2026-04-26T14:19:38.999Z</time></trkpt><trkpt lat="43.752415742572154" lon="11.722781452730974"><ele>423.0</ele><time>2026-04-26T14:19:39.999Z</time></trkpt><trkpt lat="43.75231425941192" lon="11.72286182209595"><ele>422.0</ele><time>2026-04-26T14:19:40.999Z</time></trkpt><trkpt lat="43.75221247197095" lon="11.722925467311121"><ele>421.0</ele><time>2026-04-26T14:19:42Z</time></trkpt><trkpt lat="43.75211701858285" lon="11.72299097582751"><ele>420.0</ele><time>2026-04-26T14:19:43Z</time></trkpt><trkpt lat="43.75202419010436" lon="11.72305575692327"><ele>419.0</ele><time>2026-04-26T14:19:44Z</time></trkpt><trkpt lat="43.75192872090395" lon="11.723116211396814"><ele>420.2</ele><time>2026-04-26T14:19:45Z</time></trkpt><trkpt lat="43.75183213831909" lon="11.723176134532155"><ele>421.4</ele><time>2026-04-26T14:19:46Z</time></trkpt><trkpt lat="43.75173662963908" lon="11.723236215490719"><ele>422.6</ele><time>2026-04-26T14:19:47Z</time></trkpt><trkpt lat="43.75164102924686" lon="11.72329997008688"><ele>423.8</ele><time>2026-04-26T14:19:48Z</time></trkpt><trkpt lat="43.75154640259194" lon="11.723363038221091"><ele>425.0</ele><time>2026-04-26T14:19:49Z</time></trkpt><trkpt lat="43.75145198417914" lon="11.72342594832732"><ele>425.0</ele><time>2026-04-26T14:19:50Z</time></trkpt><trkpt lat="43.75135965345029" lon="11.723489299160795"><ele>425.0</ele><time>2026-04-26T14:19:51Z</time></trkpt><trkpt lat="43.75126749766646" lon="11.72355222360177"><ele>425.0</ele><time>2026-04-26T14:19:52Z</time></trkpt><trkpt lat="43.75117393887763" lon="11.723617265245704"><ele>425.0</ele><time>2026-04-26T14:19:53Z</time></trkpt><trkpt lat="43.75108525074982" lon="11.723692936620505"><ele>425.0</ele><time>2026-04-26T14:19:54Z</time></trkpt><trkpt lat="43.7509898235594" lon="11.72376006190718"><ele>425.4</ele><time>2026-04-26T14:19:55Z</time></trkpt><trkpt lat="43.75089488914322" lon="11.72382403307176"><ele>425.8</ele><time>2026-04-26T14:19:56Z</time></trkpt><trkpt lat="43.750802193467" lon="11.723890134178948"><ele>426.20000000000005</ele><time>2026-04-26T14:19:57Z</time></trkpt><trkpt lat="43.75071111520223" lon="11.72396272729986"><ele>426.6</ele><time>2026-04-26T14:19:58Z</time></trkpt><trkpt lat="43.750620294806545" lon="11.724038680351104"><ele>427.0</ele><time>2026-04-26T14:19:59Z</time></trkpt><trkpt lat="43.75052867991335" lon="11.72410538875504"><ele>427.0</ele><time>2026-04-26T14:20:00Z</time></trkpt><trkpt lat="43.75044557191246" lon="11.724175957338556"><ele>427.00000000000006</ele><time>2026-04-26T14:20:01Z</time></trkpt><trkpt lat="43.75036696939493" lon="11.724245459098352"><ele>427.00000000000006</ele><time>2026-04-26T14:20:02Z</time></trkpt><trkpt lat="43.75027970636423" lon="11.724294519596572"><ele>427.0</ele><time>2026-04-26T14:20:03Z</time></trkpt><trkpt lat="43.75020229857278" lon="11.724360662851844"><ele>427.0</ele><time>2026-04-26T14:20:04Z</time></trkpt><trkpt lat="43.75012603856962" lon="11.72442654786722"><ele>426.33333333333337</ele><time>2026-04-26T14:20:05Z</time></trkpt><trkpt lat="43.75005255414834" lon="11.724484576868115"><ele>425.6666666666667</ele><time>2026-04-26T14:20:06Z</time></trkpt><trkpt lat="43.74997740154349" lon="11.724555501789869"><ele>425.0</ele><time>2026-04-26T14:20:07Z</time></trkpt><trkpt lat="43.74991002996866" lon="11.72463359098214"><ele>424.33333333333337</ele><time>2026-04-26T14:20:08Z</time></trkpt><trkpt lat="43.74984144216202" lon="11.724715144718253"><ele>423.6666666666667</ele><time>2026-04-26T14:20:09Z</time></trkpt><trkpt lat="43.74977122069174" lon="11.72480296104308"><ele>423.0</ele><time>2026-04-26T14:20:10Z</time></trkpt><trkpt lat="43.749705828010036" lon="11.724887916042956"><ele>423.0</ele><time>2026-04-26T14:20:11Z</time></trkpt><trkpt lat="43.74964191060088" lon="11.72497095510215"><ele>423.0</ele><time>2026-04-26T14:20:12Z</time></trkpt><trkpt lat="43.749575256014175" lon="11.725064112167665"><ele>423.0</ele><time>2026-04-26T14:20:13Z</time></trkpt><trkpt lat="43.74950845498457" lon="11.72515563310911"><ele>423.0</ele><time>2026-04-26T14:20:14Z</time></trkpt><trkpt lat="43.74944244772049" lon="11.72524007475619"><ele>423.0</ele><time>2026-04-26T14:20:15Z</time></trkpt><trkpt lat="43.74937173496613" lon="11.725324367845841"><ele>422.3333333333333</ele><time>2026-04-26T14:20:16Z</time></trkpt><trkpt lat="43.74932188201679" lon="11.725393757505598"><ele>421.66666666666663</ele><time>2026-04-26T14:20:17Z</time></trkpt><trkpt lat="43.7492652086739" lon="11.725472640237626"><ele>421.0</ele><time>2026-04-26T14:20:18Z</time></trkpt><trkpt lat="43.7491946326598" lon="11.72557084520027"><ele>420.3333333333333</ele><time>2026-04-26T14:20:19Z</time></trkpt><trkpt lat="43.74912480708084" lon="11.725667067331157"><ele>419.66666666666663</ele><time>2026-04-26T14:20:20Z</time></trkpt><trkpt lat="43.74905589236466" lon="11.725762034354979"><ele>419.0</ele><time>2026-04-26T14:20:21Z</time></trkpt><trkpt lat="43.7490020261038" lon="11.725866507815695"><ele>419.0</ele><time>2026-04-26T14:20:22Z</time></trkpt><trkpt lat="43.74892777929513" lon="11.725932536140183"><ele>419.0</ele><time>2026-04-26T14:20:23Z</time></trkpt><trkpt lat="43.74883353360967" lon="11.725962672596532"><ele>419.0</ele><time>2026-04-26T14:20:24Z</time></trkpt><trkpt lat="43.74872136753436" lon="11.725914333891641"><ele>419.0</ele><time>2026-04-26T14:20:25Z</time></trkpt><trkpt lat="43.74859763907646" lon="11.725921890337643"><ele>419.0</ele><time>2026-04-26T14:20:26Z</time></trkpt><trkpt lat="43.748463823673234" lon="11.725937716376137"><ele>419.25</ele><time>2026-04-26T14:20:27Z</time></trkpt><trkpt lat="43.74833480256463" lon="11.72600434680281"><ele>419.5</ele><time>2026-04-26T14:20:28Z</time></trkpt><trkpt lat="43.748209043387774" lon="11.726108358598104"><ele>419.75</ele><time>2026-04-26T14:20:29Z</time></trkpt><trkpt lat="43.74808531440638" lon="11.726222920380929"><ele>420.0</ele><time>2026-04-26T14:20:30Z</time></trkpt><trkpt lat="43.747959844866024" lon="11.726317213624862"><ele>420.0</ele><time>2026-04-26T14:20:31Z</time></trkpt><trkpt lat="43.74782603221057" lon="11.726384054826623"><ele>420.0</ele><time>2026-04-26T14:20:32Z</time></trkpt><trkpt lat="43.74768251705575" lon="11.726390270335258"><ele>420.0</ele><time>2026-04-26T14:20:33Z</time></trkpt><trkpt lat="43.74754176015472" lon="11.726402549168624"><ele>420.0</ele><time>2026-04-26T14:20:34Z</time></trkpt><trkpt lat="43.74740470512975" lon="11.726439662616187"><ele>418.5</ele><time>2026-04-26T14:20:35Z</time></trkpt><trkpt lat="43.7472781933741" lon="11.7264871183301"><ele>417.0</ele><time>2026-04-26T14:20:36Z</time></trkpt><trkpt lat="43.74716275819755" lon="11.726580501268359"><ele>415.5</ele><time>2026-04-26T14:20:37Z</time></trkpt><trkpt lat="43.7470562842363" lon="11.726705511398348"><ele>414.0</ele><time>2026-04-26T14:20:38Z</time></trkpt><trkpt lat="43.74696220877111" lon="11.726856105053532"><ele>411.33333333333337</ele><time>2026-04-26T14:20:39Z</time></trkpt><trkpt lat="43.74687240034006" lon="11.727034342888365"><ele>408.6666666666667</ele><time>2026-04-26T14:20:40Z</time></trkpt><trkpt lat="43.74677382292867" lon="11.727225983075012"><ele>406.0</ele><time>2026-04-26T14:20:41Z</time></trkpt><trkpt lat="43.74666938985368" lon="11.727427159037576"><ele>406.0</ele><time>2026-04-26T14:20:42Z</time></trkpt><trkpt lat="43.74656004332031" lon="11.727630177485166"><ele>406.0</ele><time>2026-04-26T14:20:43Z</time></trkpt><trkpt lat="43.74644663043824" lon="11.727836631902104"><ele>406.0</ele><time>2026-04-26T14:20:44Z</time></trkpt><trkpt lat="43.74632724507395" lon="11.728041619241415"><ele>406.33333333333337</ele><time>2026-04-26T14:20:45Z</time></trkpt><trkpt lat="43.74620056688473" lon="11.728239549426942"><ele>406.66666666666663</ele><time>2026-04-26T14:20:46Z</time></trkpt><trkpt lat="43.74606682570899" lon="11.728431701202583"><ele>407.0</ele><time>2026-04-26T14:20:47Z</time></trkpt><trkpt lat="43.74592582905579" lon="11.728605191972774"><ele>404.3333333333333</ele><time>2026-04-26T14:20:48Z</time></trkpt><trkpt lat="43.7457830116526" lon="11.728759246699155"><ele>401.66666666666663</ele><time>2026-04-26T14:20:49Z</time></trkpt><trkpt lat="43.74564766844301" lon="11.728901766374655"><ele>399.0</ele><time>2026-04-26T14:20:50Z</time></trkpt><trkpt lat="43.74552655839028" lon="11.729054112438831"><ele>399.0</ele><time>2026-04-26T14:20:51Z</time></trkpt><trkpt lat="43.74542152397514" lon="11.729226854727354"><ele>399.0</ele><time>2026-04-26T14:20:52Z</time></trkpt><trkpt lat="43.745334411205775" lon="11.729424588604434"><ele>399.0</ele><time>2026-04-26T14:20:53Z</time></trkpt><trkpt lat="43.74526812337899" lon="11.729643793293718"><ele>400.0</ele><time>2026-04-26T14:20:54Z</time></trkpt><trkpt lat="43.74521545297159" lon="11.729876749906543"><ele>401.0</ele><time>2026-04-26T14:20:55Z</time></trkpt><trkpt lat="43.7451658925439" lon="11.730117615882522"><ele>402.0</ele><time>2026-04-26T14:20:55.999Z</time></trkpt><trkpt lat="43.74511099767548" lon="11.730351356467468"><ele>397.0</ele><time>2026-04-26T14:20:56.999Z</time></trkpt><trkpt lat="43.74505934466545" lon="11.730586286689753"><ele>392.0</ele><time>2026-04-26T14:20:57.999Z</time></trkpt><trkpt lat="43.745006838776455" lon="11.73082191441717"><ele>387.0</ele><time>2026-04-26T14:20:58.999Z</time></trkpt><trkpt lat="43.74494468208903" lon="11.73105543137147"><ele>388.33333333333337</ele><time>2026-04-26T14:20:59.999Z</time></trkpt><trkpt lat="43.74487110050458" lon="11.73128337488398"><ele>389.6666666666667</ele><time>2026-04-26T14:21:00.999Z</time></trkpt><trkpt lat="43.74478149968818" lon="11.731504070074866"><ele>391.0</ele><time>2026-04-26T14:21:01.999Z</time></trkpt><trkpt lat="43.7446803618185" lon="11.731717535838023"><ele>391.33333333333337</ele><time>2026-04-26T14:21:02.999Z</time></trkpt><trkpt lat="43.74457499790967" lon="11.731931434907088"><ele>391.66666666666663</ele><time>2026-04-26T14:21:03.999Z</time></trkpt><trkpt lat="43.744471421750895" lon="11.732148951359076"><ele>392.0</ele><time>2026-04-26T14:21:04.999Z</time></trkpt><trkpt lat="43.74437476913176" lon="11.73237229846041"><ele>387.3333333333333</ele><time>2026-04-26T14:21:05.999Z</time></trkpt><trkpt lat="43.74428161081137" lon="11.732596806004423"><ele>382.66666666666663</ele><time>2026-04-26T14:21:06.999Z</time></trkpt><trkpt lat="43.744194304464116" lon="11.732820639762199"><ele>378.0</ele><time>2026-04-26T14:21:07.999Z</time></trkpt><trkpt lat="43.74411152217094" lon="11.733046138846287"><ele>378.0</ele><time>2026-04-26T14:21:08.999Z</time></trkpt><trkpt lat="43.74403123193943" lon="11.733270196736235"><ele>378.0</ele><time>2026-04-26T14:21:09.999Z</time></trkpt><trkpt lat="43.7439560332369" lon="11.733496725804116"><ele>378.0</ele><time>2026-04-26T14:21:10.999Z</time></trkpt><trkpt lat="43.74388135415543" lon="11.733719250351154"><ele>377.0</ele><time>2026-04-26T14:21:11.999Z</time></trkpt><trkpt lat="43.74380961911483" lon="11.733941005580485"><ele>376.0</ele><time>2026-04-26T14:21:12.999Z</time></trkpt><trkpt lat="43.743734620591894" lon="11.734158204660115"><ele>375.0</ele><time>2026-04-26T14:21:13.999Z</time></trkpt><trkpt lat="43.74365082367793" lon="11.734359601928757"><ele>373.3333333333333</ele><time>2026-04-26T14:21:14.999Z</time></trkpt><trkpt lat="43.74356109765782" lon="11.734562213480638"><ele>371.66666666666663</ele><time>2026-04-26T14:21:15.999Z</time></trkpt><trkpt lat="43.743476933931525" lon="11.734761891571472"><ele>370.0</ele><time>2026-04-26T14:21:16.999Z</time></trkpt><trkpt lat="43.74339200717152" lon="11.734956775461415"><ele>368.66666666666663</ele><time>2026-04-26T14:21:17.999Z</time></trkpt><trkpt lat="43.74330543242991" lon="11.735140200213388"><ele>367.3333333333333</ele><time>2026-04-26T14:21:18.999Z</time></trkpt><trkpt lat="43.743226657593674" lon="11.735323284616504"><ele>366.0</ele><time>2026-04-26T14:21:19.999Z</time></trkpt><trkpt lat="43.74316424601956" lon="11.735511729435185"><ele>365.0</ele><time>2026-04-26T14:21:20.999Z</time></trkpt><trkpt lat="43.7431273425193" lon="11.735713941976734"><ele>364.0</ele><time>2026-04-26T14:21:21.999Z</time></trkpt><trkpt lat="43.743121939771335" lon="11.735923300272118"><ele>363.0</ele><time>2026-04-26T14:21:22.999Z</time></trkpt><trkpt lat="43.743138500952355" lon="11.736134793187873"><ele>361.0</ele><time>2026-04-26T14:21:23.999Z</time></trkpt><trkpt lat="43.74314932087829" lon="11.73634659536168"><ele>359.0</ele><time>2026-04-26T14:21:24.999Z</time></trkpt><trkpt lat="43.74313430384482" lon="11.73656133505071"><ele>357.0</ele><time>2026-04-26T14:21:25.999Z</time></trkpt><trkpt lat="43.74309819118869" lon="11.736770736981827"><ele>356.0</ele><time>2026-04-26T14:21:26.999Z</time></trkpt><trkpt lat="43.7430274058346" lon="11.736971202685202"><ele>355.0</ele><time>2026-04-26T14:21:27.999Z</time></trkpt><trkpt lat="43.74292762705128" lon="11.737157633705413"><ele>354.0</ele><time>2026-04-26T14:21:28.999Z</time></trkpt><trkpt lat="43.74280779149903" lon="11.737327797460264"><ele>353.6666666666667</ele><time>2026-04-26T14:21:29.999Z</time></trkpt><trkpt lat="43.7426574639984" lon="11.737467796817405"><ele>353.33333333333337</ele><time>2026-04-26T14:21:30.999Z</time></trkpt><trkpt lat="43.74249901331426" lon="11.737622291883183"><ele>353.0</ele><time>2026-04-26T14:21:31.999Z</time></trkpt><trkpt lat="43.7423465208288" lon="11.737802245459642"><ele>353.0</ele><time>2026-04-26T14:21:32.999Z</time></trkpt><trkpt lat="43.742180578251244" lon="11.73796102100168"><ele>353.0</ele><time>2026-04-26T14:21:33.999Z</time></trkpt><trkpt lat="43.7420142431986" lon="11.738131041628428"><ele>353.0</ele><time>2026-04-26T14:21:34.999Z</time></trkpt><trkpt lat="43.74184795087872" lon="11.738300864989675"><ele>353.0</ele><time>2026-04-26T14:21:35.999Z</time></trkpt><trkpt lat="43.74167972799372" lon="11.738472302532292"><ele>353.0</ele><time>2026-04-26T14:21:36.999Z</time></trkpt><trkpt lat="43.74151184815479" lon="11.738644708137997"><ele>353.0</ele><time>2026-04-26T14:21:37.999Z</time></trkpt><trkpt lat="43.74134267669553" lon="11.738815814631579"><ele>353.33333333333337</ele><time>2026-04-26T14:21:38.999Z</time></trkpt><trkpt lat="43.74118075699836" lon="11.738977928015014"><ele>353.6666666666667</ele><time>2026-04-26T14:21:39.999Z</time></trkpt><trkpt lat="43.741028475377846" lon="11.739129898663855"><ele>354.0</ele><time>2026-04-26T14:21:40.999Z</time></trkpt><trkpt lat="43.740885048876365" lon="11.739266588842483"><ele>353.25</ele><time>2026-04-26T14:21:41.999Z</time></trkpt><trkpt lat="43.740757661694865" lon="11.739401045317967"><ele>352.5</ele><time>2026-04-26T14:21:42.999Z</time></trkpt><trkpt lat="43.74064701493124" lon="11.739533136773113"><ele>351.75</ele><time>2026-04-26T14:21:43.999Z</time></trkpt><trkpt lat="43.74055913951202" lon="11.739677501409194"><ele>351.0</ele><time>2026-04-26T14:21:44.999Z</time></trkpt><trkpt lat="43.74050523503413" lon="11.739831415311652"><ele>351.0</ele><time>2026-04-26T14:21:45.999Z</time></trkpt><trkpt lat="43.740487760117155" lon="11.739983662458481"><ele>351.0</ele><time>2026-04-26T14:21:46.999Z</time></trkpt><trkpt lat="43.740503901011685" lon="11.740138780814117"><ele>351.0</ele><time>2026-04-26T14:21:48Z</time></trkpt><trkpt lat="43.74053866538688" lon="11.7402983205562"><ele>351.0</ele><time>2026-04-26T14:21:49Z</time></trkpt><trkpt lat="43.74057080518886" lon="11.740469217722419"><ele>351.0</ele><time>2026-04-26T14:21:50Z</time></trkpt><trkpt lat="43.74059747954499" lon="11.740633732630883"><ele>351.0</ele><time>2026-04-26T14:21:51Z</time></trkpt><trkpt lat="43.74061305621063" lon="11.740800639531319"><ele>351.0</ele><time>2026-04-26T14:21:52Z</time></trkpt><trkpt lat="43.74060934144079" lon="11.740966979619992"><ele>351.0</ele><time>2026-04-26T14:21:53Z</time></trkpt><trkpt lat="43.74057580612603" lon="11.741155021848401"><ele>351.3333333333333</ele><time>2026-04-26T14:21:54Z</time></trkpt><trkpt lat="43.74052051468819" lon="11.741359718409589"><ele>351.66666666666663</ele><time>2026-04-26T14:21:55Z</time></trkpt><trkpt lat="43.74045349138303" lon="11.74158103898016"><ele>352.0</ele><time>2026-04-26T14:21:56Z</time></trkpt><trkpt lat="43.74038612683186" lon="11.741808450491142"><ele>352.3333333333333</ele><time>2026-04-26T14:21:57Z</time></trkpt><trkpt lat="43.74031510606359" lon="11.742039681855799"><ele>352.6666666666667</ele><time>2026-04-26T14:21:58Z</time></trkpt><trkpt lat="43.74024304049922" lon="11.742280678362746"><ele>353.0</ele><time>2026-04-26T14:21:59Z</time></trkpt><trkpt lat="43.74016593498471" lon="11.742541103054286"><ele>353.0</ele><time>2026-04-26T14:22:00Z</time></trkpt><trkpt lat="43.74008838706136" lon="11.742809124917208"><ele>353.0</ele><time>2026-04-26T14:22:01Z</time></trkpt><trkpt lat="43.74000920365465" lon="11.743070125019315"><ele>353.0</ele><time>2026-04-26T14:22:02Z</time></trkpt><trkpt lat="43.7399312820964" lon="11.74333817206642"><ele>353.33333333333337</ele><time>2026-04-26T14:22:03Z</time></trkpt><trkpt lat="43.73985017116078" lon="11.74361239189803"><ele>353.6666666666667</ele><time>2026-04-26T14:22:04Z</time></trkpt><trkpt lat="43.739767600703104" lon="11.743892698631642"><ele>354.0</ele><time>2026-04-26T14:22:05Z</time></trkpt><trkpt lat="43.73968450451674" lon="11.7441800353366"><ele>354.5</ele><time>2026-04-26T14:22:06Z</time></trkpt><trkpt lat="43.739596818569005" lon="11.744473854973487"><ele>355.0</ele><time>2026-04-26T14:22:07Z</time></trkpt><trkpt lat="43.73950517811577" lon="11.74477908411549"><ele>355.0</ele><time>2026-04-26T14:22:08Z</time></trkpt><trkpt lat="43.73940947186597" lon="11.745099482014979"><ele>355.0</ele><time>2026-04-26T14:22:09Z</time></trkpt><trkpt lat="43.73930889500321" lon="11.745438086060597"><ele>355.0</ele><time>2026-04-26T14:22:10Z</time></trkpt><trkpt lat="43.739205931110014" lon="11.745793577284374"><ele>355.0</ele><time>2026-04-26T14:22:11Z</time></trkpt><trkpt lat="43.7391041962522" lon="11.746131750907212"><ele>355.0</ele><time>2026-04-26T14:22:12Z</time></trkpt><trkpt lat="43.73900738826384" lon="11.746456928462619"><ele>355.0</ele><time>2026-04-26T14:22:13Z</time></trkpt><trkpt lat="43.73891518848467" lon="11.746767773493456"><ele>354.5</ele><time>2026-04-26T14:22:14Z</time></trkpt><trkpt lat="43.73882505667365" lon="11.747077070464087"><ele>354.0</ele><time>2026-04-26T14:22:15Z</time></trkpt><trkpt lat="43.73873396738545" lon="11.74738572172641"><ele>354.0</ele><time>2026-04-26T14:22:16Z</time></trkpt><trkpt lat="43.73864191155001" lon="11.747694147101098"><ele>354.0</ele><time>2026-04-26T14:22:17Z</time></trkpt><trkpt lat="43.738553466967915" lon="11.747997459798563"><ele>354.0</ele><time>2026-04-26T14:22:18Z</time></trkpt><trkpt lat="43.73847073436224" lon="11.748284524859683"><ele>354.0</ele><time>2026-04-26T14:22:19Z</time></trkpt><trkpt lat="43.73839074240208" lon="11.748555123661378"><ele>354.0</ele><time>2026-04-26T14:22:20Z</time></trkpt><trkpt lat="43.73831612452032" lon="11.748815254063391"><ele>354.0</ele><time>2026-04-26T14:22:21Z</time></trkpt><trkpt lat="43.738244803318125" lon="11.74906187888958"><ele>354.0</ele><time>2026-04-26T14:22:22Z</time></trkpt><trkpt lat="43.73817301161263" lon="11.749297319831246"><ele>354.0</ele><time>2026-04-26T14:22:23Z</time></trkpt><trkpt lat="43.7381095151567" lon="11.749527973570745"><ele>355.0</ele><time>2026-04-26T14:22:24Z</time></trkpt><trkpt lat="43.738056186052496" lon="11.749755721124622"><ele>356.0</ele><time>2026-04-26T14:22:25Z</time></trkpt><trkpt lat="43.73801226816488" lon="11.749981241577556"><ele>357.0</ele><time>2026-04-26T14:22:26Z</time></trkpt><trkpt lat="43.73797322867222" lon="11.750201178329089"><ele>358.0</ele><time>2026-04-26T14:22:27Z</time></trkpt><trkpt lat="43.73793030958783" lon="11.750418223642798"><ele>359.0</ele><time>2026-04-26T14:22:28Z</time></trkpt><trkpt lat="43.73788430875975" lon="11.75064072768881"><ele>360.0</ele><time>2026-04-26T14:22:29Z</time></trkpt><trkpt lat="43.73784106955942" lon="11.750857407982165"><ele>359.5</ele><time>2026-04-26T14:22:30Z</time></trkpt><trkpt lat="43.73780247488281" lon="11.751068488523915"><ele>359.0</ele><time>2026-04-26T14:22:31Z</time></trkpt><trkpt lat="43.737766186626374" lon="11.751263381409347"><ele>358.5</ele><time>2026-04-26T14:22:32Z</time></trkpt><trkpt lat="43.737733809569015" lon="11.751429272240351"><ele>358.0</ele><time>2026-04-26T14:22:33Z</time></trkpt><trkpt lat="43.737708041845444" lon="11.751570909293106"><ele>357.8333333333333</ele><time>2026-04-26T14:22:34Z</time></trkpt><trkpt lat="43.737685335718055" lon="11.751696263819051"><ele>357.66666666666663</ele><time>2026-04-26T14:22:35Z</time></trkpt><trkpt lat="43.737661497899744" lon="11.75181527079805"><ele>357.5</ele><time>2026-04-26T14:22:36Z</time></trkpt><trkpt lat="43.73764351931911" lon="11.75192685100985"><ele>357.3333333333333</ele><time>2026-04-26T14:22:37Z</time></trkpt><trkpt lat="43.737638501257386" lon="11.752038003407431"><ele>357.1666666666667</ele><time>2026-04-26T14:22:38Z</time></trkpt><trkpt lat="43.737652369265334" lon="11.752145768633655"><ele>357.0</ele><time>2026-04-26T14:22:39Z</time></trkpt><trkpt lat="43.737683513508145" lon="11.75224296590358"><ele>357.0</ele><time>2026-04-26T14:22:40Z</time></trkpt><trkpt lat="43.73771613173804" lon="11.752322842337803"><ele>357.0</ele><time>2026-04-26T14:22:41Z</time></trkpt><trkpt lat="43.737762001458485" lon="11.752461527500477"><ele>357.0</ele><time>2026-04-26T14:22:43Z</time></trkpt><trkpt lat="43.73779035149781" lon="11.752610739041977"><ele>357.0</ele><time>2026-04-26T14:22:45Z</time></trkpt><trkpt lat="43.73778850580656" lon="11.752703495562248"><ele>357.0</ele><time>2026-04-26T14:22:46Z</time></trkpt><trkpt lat="43.73777022090863" lon="11.752815379958882"><ele>357.0</ele><time>2026-04-26T14:22:47Z</time></trkpt><trkpt lat="43.73776747088145" lon="11.752959231688388"><ele>356.0</ele><time>2026-04-26T14:22:48Z</time></trkpt><trkpt lat="43.73766079630321" lon="11.753093679647106"><ele>355.0</ele><time>2026-04-26T14:22:49Z</time></trkpt><trkpt lat="43.737542964274205" lon="11.753234803777325"><ele>354.0</ele><time>2026-04-26T14:22:50Z</time></trkpt><trkpt lat="43.73741397965342" lon="11.753406966400403"><ele>355.6666666666667</ele><time>2026-04-26T14:22:50.999Z</time></trkpt><trkpt lat="43.73730775876931" lon="11.753596534759769"><ele>357.33333333333337</ele><time>2026-04-26T14:22:51.999Z</time></trkpt><trkpt lat="43.73719007797193" lon="11.753757895177486"><ele>359.0</ele><time>2026-04-26T14:22:52.999Z</time></trkpt><trkpt lat="43.737051035135" lon="11.753951010178895"><ele>359.0</ele><time>2026-04-26T14:22:53.999Z</time></trkpt><trkpt lat="43.73689343262375" lon="11.754142843935563"><ele>359.0</ele><time>2026-04-26T14:22:54.999Z</time></trkpt><trkpt lat="43.73675180158582" lon="11.754328030169937"><ele>359.0</ele><time>2026-04-26T14:22:55.999Z</time></trkpt><trkpt lat="43.73659870113299" lon="11.754491153124405"><ele>358.33333333333337</ele><time>2026-04-26T14:22:56.999Z</time></trkpt><trkpt lat="43.73645865726399" lon="11.754666181273148"><ele>357.6666666666667</ele><time>2026-04-26T14:22:57.999Z</time></trkpt><trkpt lat="43.736327142499036" lon="11.754836886494044"><ele>357.0</ele><time>2026-04-26T14:22:58.999Z</time></trkpt><trkpt lat="43.73620375040199" lon="11.75502336133551"><ele>357.0</ele><time>2026-04-26T14:22:59.999Z</time></trkpt><trkpt lat="43.73610045090652" lon="11.755241136351163"><ele>357.0</ele><time>2026-04-26T14:23:00.999Z</time></trkpt><trkpt lat="43.73600742333656" lon="11.755474938603196"><ele>357.0</ele><time>2026-04-26T14:23:01.999Z</time></trkpt><trkpt lat="43.735906261381196" lon="11.755696561431957"><ele>357.0</ele><time>2026-04-26T14:23:02.999Z</time></trkpt><trkpt lat="43.73579033847954" lon="11.755903314544483"><ele>357.0</ele><time>2026-04-26T14:23:03.999Z</time></trkpt><trkpt lat="43.73566221628122" lon="11.756094597861404"><ele>357.0</ele><time>2026-04-26T14:23:04.999Z</time></trkpt><trkpt lat="43.73553350993126" lon="11.75627222053557"><ele>357.0</ele><time>2026-04-26T14:23:05.999Z</time></trkpt><trkpt lat="43.73541042993039" lon="11.756453003307717"><ele>357.0</ele><time>2026-04-26T14:23:06.999Z</time></trkpt><trkpt lat="43.73529881768028" lon="11.756638194148215"><ele>357.0</ele><time>2026-04-26T14:23:07.999Z</time></trkpt><trkpt lat="43.735203277483954" lon="11.756843729735353"><ele>357.3333333333333</ele><time>2026-04-26T14:23:08.999Z</time></trkpt><trkpt lat="43.735119979524654" lon="11.757063211310632"><ele>357.66666666666663</ele><time>2026-04-26T14:23:09.999Z</time></trkpt><trkpt lat="43.73504308177448" lon="11.757261356515288"><ele>358.0</ele><time>2026-04-26T14:23:10.999Z</time></trkpt><trkpt lat="43.73495353761141" lon="11.757449563391628"><ele>358.0</ele><time>2026-04-26T14:23:11.999Z</time></trkpt><trkpt lat="43.73484755301635" lon="11.757617646343988"><ele>358.0</ele><time>2026-04-26T14:23:12.999Z</time></trkpt><trkpt lat="43.73473492720737" lon="11.757770847202607"><ele>358.0</ele><time>2026-04-26T14:23:13.999Z</time></trkpt><trkpt lat="43.7346287001359" lon="11.757931657302304"><ele>357.0</ele><time>2026-04-26T14:23:14.999Z</time></trkpt><trkpt lat="43.73452952790617" lon="11.758112567035646"><ele>356.0</ele><time>2026-04-26T14:23:15.999Z</time></trkpt><trkpt lat="43.734442865241604" lon="11.758310775818574"><ele>355.0</ele><time>2026-04-26T14:23:16.999Z</time></trkpt><trkpt lat="43.73436386207861" lon="11.758520822045753"><ele>353.3333333333333</ele><time>2026-04-26T14:23:17.999Z</time></trkpt><trkpt lat="43.73428974563389" lon="11.758732705336076"><ele>351.6666666666667</ele><time>2026-04-26T14:23:18.999Z</time></trkpt><trkpt lat="43.734222303456" lon="11.758949176092854"><ele>350.0</ele><time>2026-04-26T14:23:19.999Z</time></trkpt><trkpt lat="43.73415713553973" lon="11.759168615352545"><ele>350.0</ele><time>2026-04-26T14:23:20.999Z</time></trkpt><trkpt lat="43.734095340832226" lon="11.759392946294133"><ele>350.0</ele><time>2026-04-26T14:23:21.999Z</time></trkpt><trkpt lat="43.734035216767424" lon="11.75961961323564"><ele>350.0</ele><time>2026-04-26T14:23:22.999Z</time></trkpt><trkpt lat="43.733969030378866" lon="11.759843811900154"><ele>350.0</ele><time>2026-04-26T14:23:23.999Z</time></trkpt><trkpt lat="43.733869306178335" lon="11.760044432599681"><ele>350.0</ele><time>2026-04-26T14:23:24.999Z</time></trkpt><trkpt lat="43.733740151576185" lon="11.760212536883872"><ele>350.0</ele><time>2026-04-26T14:23:25.999Z</time></trkpt><trkpt lat="43.733629746311834" lon="11.760404675212012"><ele>349.0</ele><time>2026-04-26T14:23:26.999Z</time></trkpt><trkpt lat="43.73351772212056" lon="11.760596014191897"><ele>348.0</ele><time>2026-04-26T14:23:27.999Z</time></trkpt><trkpt lat="43.73346482693111" lon="11.760821249874901"><ele>347.0</ele><time>2026-04-26T14:23:28.999Z</time></trkpt><trkpt lat="43.733359017841195" lon="11.761011681869782"><ele>347.33333333333337</ele><time>2026-04-26T14:23:29.999Z</time></trkpt><trkpt lat="43.733262809381536" lon="11.761191760790647"><ele>347.6666666666667</ele><time>2026-04-26T14:23:30.999Z</time></trkpt><trkpt lat="43.73317792718199" lon="11.76137606628635"><ele>348.0</ele><time>2026-04-26T14:23:31.999Z</time></trkpt><trkpt lat="43.733103674265216" lon="11.761567867034609"><ele>348.0</ele><time>2026-04-26T14:23:32.999Z</time></trkpt><trkpt lat="43.7330409733221" lon="11.761768428079186"><ele>348.0</ele><time>2026-04-26T14:23:33.999Z</time></trkpt><trkpt lat="43.73298694638902" lon="11.761980540245036"><ele>348.0</ele><time>2026-04-26T14:23:34.999Z</time></trkpt><trkpt lat="43.732935150222616" lon="11.762194828702704"><ele>348.3333333333333</ele><time>2026-04-26T14:23:35.999Z</time></trkpt><trkpt lat="43.73288419304605" lon="11.762411295753774"><ele>348.66666666666663</ele><time>2026-04-26T14:23:36.999Z</time></trkpt><trkpt lat="43.73283505136857" lon="11.762631934588835"><ele>349.0</ele><time>2026-04-26T14:23:37.999Z</time></trkpt><trkpt lat="43.73276590035139" lon="11.762847739942655"><ele>347.3333333333333</ele><time>2026-04-26T14:23:38.999Z</time></trkpt><trkpt lat="43.73272259884444" lon="11.763075763370244"><ele>345.6666666666667</ele><time>2026-04-26T14:23:39.999Z</time></trkpt><trkpt lat="43.73266586673096" lon="11.763299534047844"><ele>344.0</ele><time>2026-04-26T14:23:40.999Z</time></trkpt><trkpt lat="43.73260233916751" lon="11.763517692614045"><ele>344.33333333333337</ele><time>2026-04-26T14:23:41.999Z</time></trkpt><trkpt lat="43.73254517717886" lon="11.763742723345949"><ele>344.6666666666667</ele><time>2026-04-26T14:23:42.999Z</time></trkpt><trkpt lat="43.73248898773279" lon="11.763967066103119"><ele>345.0</ele><time>2026-04-26T14:23:43.999Z</time></trkpt><trkpt lat="43.73243196171565" lon="11.764190212480502"><ele>345.0</ele><time>2026-04-26T14:23:44.999Z</time></trkpt><trkpt lat="43.732375567706036" lon="11.76441157063293"><ele>345.0</ele><time>2026-04-26T14:23:45.999Z</time></trkpt><trkpt lat="43.732324817913145" lon="11.764631933887065"><ele>345.0</ele><time>2026-04-26T14:23:46.999Z</time></trkpt><trkpt lat="43.73226669160517" lon="11.764846610727892"><ele>345.0</ele><time>2026-04-26T14:23:47.999Z</time></trkpt><trkpt lat="43.732217391366014" lon="11.765052044200509"><ele>345.0</ele><time>2026-04-26T14:23:48.999Z</time></trkpt><trkpt lat="43.73217372340129" lon="11.765248134169768"><ele>345.0</ele><time>2026-04-26T14:23:49.999Z</time></trkpt><trkpt lat="43.73212819372272" lon="11.765430970023809"><ele>345.0</ele><time>2026-04-26T14:23:50.999Z</time></trkpt><trkpt lat="43.73207879468125" lon="11.765613032087883"><ele>345.0</ele><time>2026-04-26T14:23:51.999Z</time></trkpt><trkpt lat="43.73203049488695" lon="11.765791157698791"><ele>345.0</ele><time>2026-04-26T14:23:52.999Z</time></trkpt><trkpt lat="43.731989347710055" lon="11.76596705091054"><ele>345.0</ele><time>2026-04-26T14:23:53.999Z</time></trkpt><trkpt lat="43.73195046350266" lon="11.766131183108524"><ele>345.0</ele><time>2026-04-26T14:23:54.999Z</time></trkpt><trkpt lat="43.73190245874119" lon="11.766284458203168"><ele>345.25</ele><time>2026-04-26T14:23:55.999Z</time></trkpt><trkpt lat="43.73182364406551" lon="11.766413100468801"><ele>345.5</ele><time>2026-04-26T14:23:56.999Z</time></trkpt><trkpt lat="43.73169675966229" lon="11.766486725160542"><ele>345.75</ele><time>2026-04-26T14:23:57.999Z</time></trkpt><trkpt lat="43.73158645130334" lon="11.766601128287597"><ele>346.0</ele><time>2026-04-26T14:23:58.999Z</time></trkpt><trkpt lat="43.73146880343123" lon="11.766678443728532"><ele>346.0</ele><time>2026-04-26T14:23:59.999Z</time></trkpt><trkpt lat="43.731356274732896" lon="11.766765987010864"><ele>346.0</ele><time>2026-04-26T14:24:00.999Z</time></trkpt><trkpt lat="43.73124226826977" lon="11.766850778595764"><ele>346.0</ele><time>2026-04-26T14:24:01.999Z</time></trkpt><trkpt lat="43.731125607561225" lon="11.766933869008428"><ele>346.0</ele><time>2026-04-26T14:24:02.999Z</time></trkpt><trkpt lat="43.7310151210791" lon="11.767018372985165"><ele>345.8</ele><time>2026-04-26T14:24:03.999Z</time></trkpt><trkpt lat="43.7309063650448" lon="11.767095818349585"><ele>345.6</ele><time>2026-04-26T14:24:04.999Z</time></trkpt><trkpt lat="43.730804719344135" lon="11.767170162731489"><ele>345.4</ele><time>2026-04-26T14:24:05.999Z</time></trkpt><trkpt lat="43.730713746619365" lon="11.76723271547983"><ele>345.2</ele><time>2026-04-26T14:24:06.999Z</time></trkpt><trkpt lat="43.73063098898362" lon="11.767293924187257"><ele>345.0</ele><time>2026-04-26T14:24:07.999Z</time></trkpt><trkpt lat="43.73055163547687" lon="11.767348324617716"><ele>345.0</ele><time>2026-04-26T14:24:08.999Z</time></trkpt><trkpt lat="43.73046846102125" lon="11.767414749822827"><ele>345.0</ele><time>2026-04-26T14:24:09.999Z</time></trkpt><trkpt lat="43.730369136973806" lon="11.767474691319023"><ele>345.0</ele><time>2026-04-26T14:24:10.999Z</time></trkpt><trkpt lat="43.73026447679711" lon="11.767543171823993"><ele>345.0</ele><time>2026-04-26T14:24:11.999Z</time></trkpt><trkpt lat="43.73015559957795" lon="11.767622560663803"><ele>345.0</ele><time>2026-04-26T14:24:12.999Z</time></trkpt><trkpt lat="43.730040079394634" lon="11.767706239038668"><ele>345.0</ele><time>2026-04-26T14:24:13.999Z</time></trkpt><trkpt lat="43.72992361117728" lon="11.767788320350673"><ele>345.0</ele><time>2026-04-26T14:24:14.999Z</time></trkpt><trkpt lat="43.72980835977559" lon="11.767869018084951"><ele>345.0</ele><time>2026-04-26T14:24:15.999Z</time></trkpt><trkpt lat="43.729699766775106" lon="11.767950064884"><ele>345.0</ele><time>2026-04-26T14:24:16.999Z</time></trkpt><trkpt lat="43.729591123784424" lon="11.76802897694164"><ele>345.0</ele><time>2026-04-26T14:24:17.999Z</time></trkpt><trkpt lat="43.729486502824464" lon="11.768098188792319"><ele>345.0</ele><time>2026-04-26T14:24:18.999Z</time></trkpt><trkpt lat="43.72939156767016" lon="11.768170607921814"><ele>345.0</ele><time>2026-04-26T14:24:19.999Z</time></trkpt><trkpt lat="43.729301530711034" lon="11.768232703714471"><ele>345.0</ele><time>2026-04-26T14:24:20.999Z</time></trkpt><trkpt lat="43.72921071633287" lon="11.768292054016287"><ele>345.0</ele><time>2026-04-26T14:24:21.999Z</time></trkpt><trkpt lat="43.72911745873462" lon="11.768355357826596"><ele>344.8</ele><time>2026-04-26T14:24:22.999Z</time></trkpt><trkpt lat="43.72902161612501" lon="11.768423611964531"><ele>344.6</ele><time>2026-04-26T14:24:23.999Z</time></trkpt><trkpt lat="43.72892205982949" lon="11.768491226779279"><ele>344.4</ele><time>2026-04-26T14:24:24.999Z</time></trkpt><trkpt lat="43.728820922849444" lon="11.768561083895143"><ele>344.2</ele><time>2026-04-26T14:24:25.999Z</time></trkpt><trkpt lat="43.728725837826545" lon="11.768632979822263"><ele>344.0</ele><time>2026-04-26T14:24:26.999Z</time></trkpt><trkpt lat="43.728635947800406" lon="11.768699204276157"><ele>344.0</ele><time>2026-04-26T14:24:27.999Z</time></trkpt><trkpt lat="43.72855260593753" lon="11.76876542799487"><ele>344.0</ele><time>2026-04-26T14:24:28.999Z</time></trkpt><trkpt lat="43.728477671071246" lon="11.768842096152472"><ele>344.0</ele><time>2026-04-26T14:24:29.999Z</time></trkpt><trkpt lat="43.7284075087441" lon="11.768946282493046"><ele>344.0</ele><time>2026-04-26T14:24:30.999Z</time></trkpt><trkpt lat="43.72832891361266" lon="11.769085647142024"><ele>344.0</ele><time>2026-04-26T14:24:31.999Z</time></trkpt><trkpt lat="43.728244994816556" lon="11.769214565584614"><ele>347.0</ele><time>2026-04-26T14:24:32.999Z</time></trkpt><trkpt lat="43.72813957342366" lon="11.769396012347826"><ele>350.0</ele><time>2026-04-26T14:24:33.999Z</time></trkpt><trkpt lat="43.728042504429396" lon="11.769563803655597"><ele>353.0</ele><time>2026-04-26T14:24:34.999Z</time></trkpt><trkpt lat="43.72794425528978" lon="11.769714437771347"><ele>353.0</ele><time>2026-04-26T14:24:35.999Z</time></trkpt><trkpt lat="43.727848020378204" lon="11.769873871187466"><ele>353.0</ele><time>2026-04-26T14:24:36.999Z</time></trkpt><trkpt lat="43.72775136444674" lon="11.77004289512524"><ele>353.0</ele><time>2026-04-26T14:24:37.999Z</time></trkpt><trkpt lat="43.727653132680956" lon="11.770215372064873"><ele>350.0</ele><time>2026-04-26T14:24:38.999Z</time></trkpt><trkpt lat="43.72755551117915" lon="11.770387850325854"><ele>347.0</ele><time>2026-04-26T14:24:39.999Z</time></trkpt><trkpt lat="43.727462070469244" lon="11.77056480036689"><ele>344.0</ele><time>2026-04-26T14:24:40.999Z</time></trkpt><trkpt lat="43.72737839472515" lon="11.770748252000338"><ele>344.0</ele><time>2026-04-26T14:24:41.999Z</time></trkpt><trkpt lat="43.72730910567891" lon="11.770940045460055"><ele>344.0</ele><time>2026-04-26T14:24:42.999Z</time></trkpt><trkpt lat="43.727251350026066" lon="11.771133322971345"><ele>344.0</ele><time>2026-04-26T14:24:43.999Z</time></trkpt><trkpt lat="43.727201297727625" lon="11.771323159732466"><ele>343.75</ele><time>2026-04-26T14:24:44.999Z</time></trkpt><trkpt lat="43.72715085469058" lon="11.77150710091122"><ele>343.5</ele><time>2026-04-26T14:24:45.999Z</time></trkpt><trkpt lat="43.72710474008345" lon="11.77168115833638"><ele>343.25</ele><time>2026-04-26T14:24:46.999Z</time></trkpt><trkpt lat="43.727063122796295" lon="11.77184037024915"><ele>343.0</ele><time>2026-04-26T14:24:47.999Z</time></trkpt><trkpt lat="43.72702043525741" lon="11.771980973076937"><ele>343.0</ele><time>2026-04-26T14:24:48.999Z</time></trkpt><trkpt lat="43.726985707126964" lon="11.772103984941806"><ele>343.0</ele><time>2026-04-26T14:24:49.999Z</time></trkpt><trkpt lat="43.726960123283405" lon="11.77219844021861"><ele>343.0</ele><time>2026-04-26T14:24:50.999Z</time></trkpt><trkpt lat="43.72690636515054" lon="11.772326472380428"><ele>343.0</ele><time>2026-04-26T14:24:52.999Z</time></trkpt><trkpt lat="43.726817057848336" lon="11.772424188431202"><ele>343.0</ele><time>2026-04-26T14:24:54.999Z</time></trkpt><trkpt lat="43.726782086609255" lon="11.772508196332133"><ele>342.5</ele><time>2026-04-26T14:24:55.999Z</time></trkpt><trkpt lat="43.72676497333318" lon="11.772617438285891"><ele>342.0</ele><time>2026-04-26T14:24:56.999Z</time></trkpt><trkpt lat="43.726768501456405" lon="11.77273191252108"><ele>341.5</ele><time>2026-04-26T14:24:57.999Z</time></trkpt><trkpt lat="43.726791390419294" lon="11.772839261916362"><ele>341.0</ele><time>2026-04-26T14:24:58.999Z</time></trkpt><trkpt lat="43.72674688010083" lon="11.772953577256795"><ele>340.5</ele><time>2026-04-26T14:24:59.999Z</time></trkpt><trkpt lat="43.72670649784753" lon="11.773063666328495"><ele>340.0</ele><time>2026-04-26T14:25:00.999Z</time></trkpt><trkpt lat="43.72666232753613" lon="11.773183000520715"><ele>340.0</ele><time>2026-04-26T14:25:01.999Z</time></trkpt><trkpt lat="43.72661156308706" lon="11.773306725836296"><ele>340.0</ele><time>2026-04-26T14:25:02.999Z</time></trkpt><trkpt lat="43.72655275240064" lon="11.77343548376168"><ele>340.0</ele><time>2026-04-26T14:25:03.999Z</time></trkpt><trkpt lat="43.72648179304674" lon="11.773565990377337"><ele>340.0</ele><time>2026-04-26T14:25:04.999Z</time></trkpt><trkpt lat="43.72641184375682" lon="11.773701304691892"><ele>342.25</ele><time>2026-04-26T14:25:05.999Z</time></trkpt><trkpt lat="43.726342917920114" lon="11.773839251894636"><ele>344.5</ele><time>2026-04-26T14:25:06.999Z</time></trkpt><trkpt lat="43.72627059473831" lon="11.773973793544084"><ele>346.75</ele><time>2026-04-26T14:25:07.999Z</time></trkpt><trkpt lat="43.72619462589145" lon="11.77410480493236"><ele>349.0</ele><time>2026-04-26T14:25:08.999Z</time></trkpt><trkpt lat="43.726111617246055" lon="11.774236036225807"><ele>347.25</ele><time>2026-04-26T14:25:09.999Z</time></trkpt><trkpt lat="43.72601876223192" lon="11.774362293211258"><ele>345.5</ele><time>2026-04-26T14:25:10.999Z</time></trkpt><trkpt lat="43.72591274605675" lon="11.774476899667983"><ele>343.75</ele><time>2026-04-26T14:25:11.999Z</time></trkpt><trkpt lat="43.7257951588126" lon="11.77457136780756"><ele>342.0</ele><time>2026-04-26T14:25:12.999Z</time></trkpt><trkpt lat="43.72567213880132" lon="11.774643379156501"><ele>342.0</ele><time>2026-04-26T14:25:13.999Z</time></trkpt><trkpt lat="43.725547931762584" lon="11.774698151777283"><ele>342.0</ele><time>2026-04-26T14:25:14.999Z</time></trkpt><trkpt lat="43.725422425093534" lon="11.77475096829226"><ele>342.0</ele><time>2026-04-26T14:25:15.999Z</time></trkpt><trkpt lat="43.7252971103161" lon="11.774801570124538"><ele>342.0</ele><time>2026-04-26T14:25:16.999Z</time></trkpt><trkpt lat="43.72517040177647" lon="11.774855493121363"><ele>342.0</ele><time>2026-04-26T14:25:17.999Z</time></trkpt><trkpt lat="43.72504187473944" lon="11.774908737150675"><ele>342.0</ele><time>2026-04-26T14:25:18.999Z</time></trkpt><trkpt lat="43.72491805701732" lon="11.774950498919292"><ele>342.0</ele><time>2026-04-26T14:25:19.999Z</time></trkpt><trkpt lat="43.72480282827357" lon="11.774986357644451"><ele>342.0</ele><time>2026-04-26T14:25:20.999Z</time></trkpt><trkpt lat="43.7247030148218" lon="11.7750173445237"><ele>342.0</ele><time>2026-04-26T14:25:21.999Z</time></trkpt><trkpt lat="43.72462152932885" lon="11.775030786114403"><ele>342.0</ele><time>2026-04-26T14:25:22.999Z</time></trkpt><trkpt lat="43.72454628438875" lon="11.775001441985584"><ele>342.0</ele><time>2026-04-26T14:25:23.999Z</time></trkpt><trkpt lat="43.7245163082535" lon="11.774785917618907"><ele>342.0</ele><time>2026-04-26T14:25:25.999Z</time></trkpt><trkpt lat="43.72446966370462" lon="11.774686431460536"><ele>342.0</ele><time>2026-04-26T14:25:27.999Z</time></trkpt><trkpt lat="43.72430832992585" lon="11.77479603554201"><ele>342.0</ele><time>2026-04-26T14:25:28.999Z</time></trkpt><trkpt lat="43.72424025367788" lon="11.77485093968419"><ele>342.0</ele><time>2026-04-26T14:25:30.999Z</time></trkpt><trkpt lat="43.724168419524716" lon="11.77491781516962"><ele>342.0</ele><time>2026-04-26T14:31:08Z</time></trkpt><trkpt lat="43.724167601362424" lon="11.775048468010898"><ele>342.0</ele><time>2026-04-26T14:31:10Z</time></trkpt><trkpt lat="43.7241589219679" lon="11.775144415280497"><ele>342.0</ele><time>2026-04-26T14:31:11.999Z</time></trkpt><trkpt lat="43.7240949411809" lon="11.775213786222084"><ele>342.0</ele><time>2026-04-26T14:31:13.999Z</time></trkpt><trkpt lat="43.7240180016241" lon="11.775239177423975"><ele>342.0</ele><time>2026-04-26T14:31:14.999Z</time></trkpt><trkpt lat="43.723917080889045" lon="11.775266461459733"><ele>342.0</ele><time>2026-04-26T14:31:15.999Z</time></trkpt><trkpt lat="43.723808692698334" lon="11.775303872632028"><ele>342.0</ele><time>2026-04-26T14:31:16.999Z</time></trkpt><trkpt lat="43.72368518657987" lon="11.775346325791803"><ele>342.0</ele><time>2026-04-26T14:31:17.999Z</time></trkpt><trkpt lat="43.723545089827205" lon="11.775393915031144"><ele>341.3333333333333</ele><time>2026-04-26T14:31:18.999Z</time></trkpt><trkpt lat="43.72340385373909" lon="11.775442887916054"><ele>340.66666666666663</ele><time>2026-04-26T14:31:19.999Z</time></trkpt><trkpt lat="43.72325287589239" lon="11.775504282049202"><ele>340.0</ele><time>2026-04-26T14:31:20.999Z</time></trkpt><trkpt lat="43.72309365403938" lon="11.775564757761131"><ele>340.0</ele><time>2026-04-26T14:31:21.999Z</time></trkpt><trkpt lat="43.722931256573624" lon="11.775632039982096"><ele>340.0</ele><time>2026-04-26T14:31:22.999Z</time></trkpt><trkpt lat="43.72276809283479" lon="11.775726022016372"><ele>340.0</ele><time>2026-04-26T14:31:23.999Z</time></trkpt><trkpt lat="43.722611892428624" lon="11.775850503897262"><ele>339.66666666666663</ele><time>2026-04-26T14:31:24.999Z</time></trkpt><trkpt lat="43.7224563251908" lon="11.776004165634728"><ele>339.3333333333333</ele><time>2026-04-26T14:31:25.999Z</time></trkpt><trkpt lat="43.72230369714579" lon="11.776159179898661"><ele>339.0</ele><time>2026-04-26T14:31:26.999Z</time></trkpt><trkpt lat="43.72215653765612" lon="11.776351246875427"><ele>339.0</ele><time>2026-04-26T14:31:27.999Z</time></trkpt><trkpt lat="43.722027508779234" lon="11.776560896789762"><ele>339.0</ele><time>2026-04-26T14:31:28.999Z</time></trkpt><trkpt lat="43.7219115059593" lon="11.776783813162941"><ele>339.0</ele><time>2026-04-26T14:31:29.999Z</time></trkpt><trkpt lat="43.72181459462193" lon="11.777012392020296"><ele>337.3333333333333</ele><time>2026-04-26T14:31:30.999Z</time></trkpt><trkpt lat="43.72173248538053" lon="11.77724708295683"><ele>335.66666666666663</ele><time>2026-04-26T14:31:31.999Z</time></trkpt><trkpt lat="43.7216558896621" lon="11.777482506741611"><ele>334.0</ele><time>2026-04-26T14:31:32.999Z</time></trkpt><trkpt lat="43.721577141181115" lon="11.777709214884595"><ele>334.0</ele><time>2026-04-26T14:31:33.999Z</time></trkpt><trkpt lat="43.72148699785565" lon="11.777923141001132"><ele>334.0</ele><time>2026-04-26T14:31:34.999Z</time></trkpt><trkpt lat="43.72138455532808" lon="11.778122343003503"><ele>334.0</ele><time>2026-04-26T14:31:35.999Z</time></trkpt><trkpt lat="43.721268089636354" lon="11.778310007892031"><ele>334.0</ele><time>2026-04-26T14:31:36.999Z</time></trkpt><trkpt lat="43.72113880534126" lon="11.77848739418753"><ele>334.0</ele><time>2026-04-26T14:31:37.999Z</time></trkpt><trkpt lat="43.720996790170275" lon="11.778651567039148"><ele>334.0</ele><time>2026-04-26T14:31:38.999Z</time></trkpt><trkpt lat="43.72084307582922" lon="11.778803381170517"><ele>334.0</ele><time>2026-04-26T14:31:39.999Z</time></trkpt><trkpt lat="43.720675502484106" lon="11.778951344230299"><ele>334.0</ele><time>2026-04-26T14:31:40.999Z</time></trkpt><trkpt lat="43.72049735847189" lon="11.779102370425047"><ele>334.0</ele><time>2026-04-26T14:31:41.999Z</time></trkpt><trkpt lat="43.720303853329526" lon="11.779255553378675"><ele>334.0</ele><time>2026-04-26T14:31:42.999Z</time></trkpt><trkpt lat="43.720102009488535" lon="11.77941123107757"><ele>334.0</ele><time>2026-04-26T14:31:43.999Z</time></trkpt><trkpt lat="43.71988692284538" lon="11.779567709856162"><ele>334.0</ele><time>2026-04-26T14:31:44.999Z</time></trkpt><trkpt lat="43.71966708921989" lon="11.779740234136034"><ele>334.0</ele><time>2026-04-26T14:31:45.999Z</time></trkpt><trkpt lat="43.71944062608909" lon="11.779922340212586"><ele>333.5</ele><time>2026-04-26T14:31:46.999Z</time></trkpt><trkpt lat="43.71921569267058" lon="11.780099240293614"><ele>333.0</ele><time>2026-04-26T14:31:47.999Z</time></trkpt><trkpt lat="43.71899259221984" lon="11.78027119806976"><ele>333.0</ele><time>2026-04-26T14:31:48.999Z</time></trkpt><trkpt lat="43.71877791734321" lon="11.780439208484129"><ele>333.0</ele><time>2026-04-26T14:31:49.999Z</time></trkpt><trkpt lat="43.71858773384625" lon="11.780594271659243"><ele>332.6666666666667</ele><time>2026-04-26T14:31:50.999Z</time></trkpt><trkpt lat="43.718408251965286" lon="11.780739906039472"><ele>332.33333333333337</ele><time>2026-04-26T14:31:51.999Z</time></trkpt><trkpt lat="43.71823327713408" lon="11.780884740302803"><ele>332.0</ele><time>2026-04-26T14:31:52.999Z</time></trkpt><trkpt lat="43.71805276326249" lon="11.78103097526382"><ele>332.0</ele><time>2026-04-26T14:31:53.999Z</time></trkpt><trkpt lat="43.71785152675284" lon="11.781187607860247"><ele>332.0</ele><time>2026-04-26T14:31:54.999Z</time></trkpt><trkpt lat="43.717640021357575" lon="11.78134523502333"><ele>332.0</ele><time>2026-04-26T14:31:55.999Z</time></trkpt><trkpt lat="43.717427275865056" lon="11.78150827271693"><ele>332.0</ele><time>2026-04-26T14:31:56.999Z</time></trkpt><trkpt lat="43.717215972384125" lon="11.781682704789613"><ele>332.5</ele><time>2026-04-26T14:31:57.999Z</time></trkpt><trkpt lat="43.7170001917059" lon="11.781853628533762"><ele>333.0</ele><time>2026-04-26T14:31:58.999Z</time></trkpt><trkpt lat="43.716793863717115" lon="11.782038481396693"><ele>332.0</ele><time>2026-04-26T14:31:59.999Z</time></trkpt><trkpt lat="43.71656654363658" lon="11.782192168415447"><ele>331.0</ele><time>2026-04-26T14:32:00.999Z</time></trkpt><trkpt lat="43.71634370272122" lon="11.782363488702524"><ele>331.0</ele><time>2026-04-26T14:32:01.999Z</time></trkpt><trkpt lat="43.716121241730306" lon="11.782530817653294"><ele>331.0</ele><time>2026-04-26T14:32:02.999Z</time></trkpt><trkpt lat="43.71589534766636" lon="11.782696584527645"><ele>332.0</ele><time>2026-04-26T14:32:03.999Z</time></trkpt><trkpt lat="43.715681364682496" lon="11.782845184844867"><ele>333.0</ele><time>2026-04-26T14:32:04.999Z</time></trkpt><trkpt lat="43.71542182093579" lon="11.783028985959948"><ele>332.5</ele><time>2026-04-26T14:32:05.999Z</time></trkpt><trkpt lat="43.71519612910031" lon="11.783175275846249"><ele>332.0</ele><time>2026-04-26T14:32:06.999Z</time></trkpt><trkpt lat="43.71496842607512" lon="11.783309426165154"><ele>332.0</ele><time>2026-04-26T14:32:07.999Z</time></trkpt><trkpt lat="43.71474042338022" lon="11.783435665673265"><ele>332.0</ele><time>2026-04-26T14:32:08.999Z</time></trkpt><trkpt lat="43.71451336607234" lon="11.783560096358919"><ele>333.0</ele><time>2026-04-26T14:32:09.999Z</time></trkpt><trkpt lat="43.7142851372534" lon="11.783685545554684"><ele>334.0</ele><time>2026-04-26T14:32:10.999Z</time></trkpt><trkpt lat="43.71405803169627" lon="11.783807336641416"><ele>334.0</ele><time>2026-04-26T14:32:11.999Z</time></trkpt><trkpt lat="43.71383162812252" lon="11.783930027859244"><ele>334.0</ele><time>2026-04-26T14:32:12.999Z</time></trkpt><trkpt lat="43.71360416194324" lon="11.7840487186515"><ele>333.0</ele><time>2026-04-26T14:32:13.999Z</time></trkpt><trkpt lat="43.713380003333754" lon="11.784168569475048"><ele>332.0</ele><time>2026-04-26T14:32:14.999Z</time></trkpt><trkpt lat="43.71315671960596" lon="11.784292387578253"><ele>333.5</ele><time>2026-04-26T14:32:15.999Z</time></trkpt><trkpt lat="43.712935270165374" lon="11.784407436983887"><ele>335.0</ele><time>2026-04-26T14:32:16.999Z</time></trkpt><trkpt lat="43.71271204989572" lon="11.78453097617897"><ele>335.0</ele><time>2026-04-26T14:32:18Z</time></trkpt><trkpt lat="43.71249013190037" lon="11.784660129910662"><ele>335.0</ele><time>2026-04-26T14:32:19Z</time></trkpt><trkpt lat="43.712268000933065" lon="11.784787523277792"><ele>335.0</ele><time>2026-04-26T14:32:20Z</time></trkpt><trkpt lat="43.71204360132921" lon="11.78491150022385"><ele>335.0</ele><time>2026-04-26T14:32:21Z</time></trkpt><trkpt lat="43.71182007263911" lon="11.785037222088864"><ele>336.0</ele><time>2026-04-26T14:32:22Z</time></trkpt><trkpt lat="43.71160020305525" lon="11.785171534113513"><ele>337.0</ele><time>2026-04-26T14:32:23Z</time></trkpt><trkpt lat="43.71138901026131" lon="11.785331605472182"><ele>337.0</ele><time>2026-04-26T14:32:24Z</time></trkpt><trkpt lat="43.711185645424045" lon="11.78551786620369"><ele>337.0</ele><time>2026-04-26T14:32:25Z</time></trkpt><trkpt lat="43.71099272817096" lon="11.785722715271387"><ele>337.5</ele><time>2026-04-26T14:32:26Z</time></trkpt><trkpt lat="43.710807598240365" lon="11.785940674310636"><ele>338.0</ele><time>2026-04-26T14:32:27Z</time></trkpt><trkpt lat="43.710638292491424" lon="11.78619282920901"><ele>338.0</ele><time>2026-04-26T14:32:28Z</time></trkpt><trkpt lat="43.71047663056168" lon="11.786453479483136"><ele>338.0</ele><time>2026-04-26T14:32:29Z</time></trkpt><trkpt lat="43.71032393200902" lon="11.786727183169317"><ele>336.5</ele><time>2026-04-26T14:32:30Z</time></trkpt><trkpt lat="43.71017359314972" lon="11.787005614215083"><ele>335.0</ele><time>2026-04-26T14:32:31Z</time></trkpt><trkpt lat="43.710025737988424" lon="11.787284073497686"><ele>335.0</ele><time>2026-04-26T14:32:32Z</time></trkpt><trkpt lat="43.70987743328539" lon="11.787561394541365"><ele>335.0</ele><time>2026-04-26T14:32:33Z</time></trkpt><trkpt lat="43.70972417189744" lon="11.787835726389984"><ele>336.0</ele><time>2026-04-26T14:32:34Z</time></trkpt><trkpt lat="43.709567965491054" lon="11.788105472770887"><ele>337.0</ele><time>2026-04-26T14:32:35Z</time></trkpt><trkpt lat="43.709407777249545" lon="11.78836815543049"><ele>336.0</ele><time>2026-04-26T14:32:36Z</time></trkpt><trkpt lat="43.709238362424884" lon="11.788620591811197"><ele>335.0</ele><time>2026-04-26T14:32:37Z</time></trkpt><trkpt lat="43.70905671297694" lon="11.788856625867737"><ele>335.0</ele><time>2026-04-26T14:32:38Z</time></trkpt><trkpt lat="43.70886347691705" lon="11.789075469364255"><ele>335.0</ele><time>2026-04-26T14:32:39Z</time></trkpt><trkpt lat="43.70865929829079" lon="11.789274323755446"><ele>334.5</ele><time>2026-04-26T14:32:40Z</time></trkpt><trkpt lat="43.70844862371763" lon="11.789452748082326"><ele>334.0</ele><time>2026-04-26T14:32:41Z</time></trkpt><trkpt lat="43.70823351719108" lon="11.789617336201266"><ele>334.0</ele><time>2026-04-26T14:32:42Z</time></trkpt><trkpt lat="43.70802178950861" lon="11.789777969723964"><ele>334.0</ele><time>2026-04-26T14:32:43Z</time></trkpt><trkpt lat="43.70781407272351" lon="11.789945991305665"><ele>334.0</ele><time>2026-04-26T14:32:44Z</time></trkpt><trkpt lat="43.70761015464577" lon="11.790119039509188"><ele>334.0</ele><time>2026-04-26T14:32:45Z</time></trkpt><trkpt lat="43.70740974310008" lon="11.790293652162102"><ele>334.0</ele><time>2026-04-26T14:32:46Z</time></trkpt><trkpt lat="43.70721591300189" lon="11.790470871646361"><ele>334.0</ele><time>2026-04-26T14:32:47Z</time></trkpt><trkpt lat="43.70702809712854" lon="11.790632785334012"><ele>334.66666666666663</ele><time>2026-04-26T14:32:48Z</time></trkpt><trkpt lat="43.70684998468296" lon="11.79079025598515"><ele>335.3333333333333</ele><time>2026-04-26T14:32:49Z</time></trkpt><trkpt lat="43.70668111787983" lon="11.790941802825186"><ele>336.0</ele><time>2026-04-26T14:32:50Z</time></trkpt><trkpt lat="43.70651314092873" lon="11.791092151734025"><ele>336.0</ele><time>2026-04-26T14:32:51Z</time></trkpt><trkpt lat="43.70634405972529" lon="11.791251022268689"><ele>336.0</ele><time>2026-04-26T14:32:52Z</time></trkpt><trkpt lat="43.706169926095725" lon="11.791421647738753"><ele>336.0</ele><time>2026-04-26T14:32:53Z</time></trkpt><trkpt lat="43.70598407382002" lon="11.79158905570379"><ele>335.5</ele><time>2026-04-26T14:32:54Z</time></trkpt><trkpt lat="43.70578926664362" lon="11.791752240670105"><ele>335.0</ele><time>2026-04-26T14:32:55Z</time></trkpt><trkpt lat="43.70558798958394" lon="11.791924003999624"><ele>335.0</ele><time>2026-04-26T14:32:56Z</time></trkpt><trkpt lat="43.705379738053885" lon="11.792105397785251"><ele>335.0</ele><time>2026-04-26T14:32:57Z</time></trkpt><trkpt lat="43.705163255003484" lon="11.792290371985926"><ele>333.0</ele><time>2026-04-26T14:32:58Z</time></trkpt><trkpt lat="43.70494369796487" lon="11.792461494562327"><ele>331.0</ele><time>2026-04-26T14:32:59Z</time></trkpt><trkpt lat="43.70471810473985" lon="11.792608860082732"><ele>330.5</ele><time>2026-04-26T14:33:00Z</time></trkpt><trkpt lat="43.70448774236514" lon="11.79273863268606"><ele>330.0</ele><time>2026-04-26T14:33:01Z</time></trkpt><trkpt lat="43.704251768985316" lon="11.792848809388202"><ele>330.0</ele><time>2026-04-26T14:33:02Z</time></trkpt><trkpt lat="43.704011992568084" lon="11.792941175758916"><ele>330.0</ele><time>2026-04-26T14:33:03Z</time></trkpt><trkpt lat="43.703771014760505" lon="11.793025916626322"><ele>328.0</ele><time>2026-04-26T14:33:04Z</time></trkpt><trkpt lat="43.7035289342463" lon="11.793110846057813"><ele>326.0</ele><time>2026-04-26T14:33:05Z</time></trkpt><trkpt lat="43.703288103055215" lon="11.793200873542986"><ele>326.0</ele><time>2026-04-26T14:33:06Z</time></trkpt><trkpt lat="43.70304708819053" lon="11.793294422643308"><ele>326.0</ele><time>2026-04-26T14:33:07Z</time></trkpt><trkpt lat="43.70280541212904" lon="11.793387541329432"><ele>326.5</ele><time>2026-04-26T14:33:08Z</time></trkpt><trkpt lat="43.70256647622147" lon="11.793482991841337"><ele>327.0</ele><time>2026-04-26T14:33:09Z</time></trkpt><trkpt lat="43.702332201791315" lon="11.793590447981082"><ele>327.0</ele><time>2026-04-26T14:33:10Z</time></trkpt><trkpt lat="43.70210339162918" lon="11.793725468732175"><ele>327.0</ele><time>2026-04-26T14:33:11Z</time></trkpt><trkpt lat="43.701882768328176" lon="11.793878831894697"><ele>325.5</ele><time>2026-04-26T14:33:12Z</time></trkpt><trkpt lat="43.70166969016116" lon="11.794048027449852"><ele>324.0</ele><time>2026-04-26T14:33:13Z</time></trkpt><trkpt lat="43.70146577349607" lon="11.7942381501264"><ele>324.0</ele><time>2026-04-26T14:33:14Z</time></trkpt><trkpt lat="43.70126997843463" lon="11.794452273591649"><ele>324.0</ele><time>2026-04-26T14:33:15Z</time></trkpt><trkpt lat="43.70108538225654" lon="11.794685880006858"><ele>324.0</ele><time>2026-04-26T14:33:16Z</time></trkpt><trkpt lat="43.70090779035115" lon="11.79493791339204"><ele>324.0</ele><time>2026-04-26T14:33:17Z</time></trkpt><trkpt lat="43.700731608790086" lon="11.79519939746812"><ele>324.5</ele><time>2026-04-26T14:33:18Z</time></trkpt><trkpt lat="43.700539878861356" lon="11.795440214564284"><ele>325.0</ele><time>2026-04-26T14:33:19Z</time></trkpt><trkpt lat="43.70037789711276" lon="11.795728205028912"><ele>324.5</ele><time>2026-04-26T14:33:20Z</time></trkpt><trkpt lat="43.70019815882522" lon="11.795994923075302"><ele>324.0</ele><time>2026-04-26T14:33:21Z</time></trkpt><trkpt lat="43.700016904970106" lon="11.796263064936097"><ele>323.5</ele><time>2026-04-26T14:33:22Z</time></trkpt><trkpt lat="43.699831930787305" lon="11.796530867884002"><ele>323.0</ele><time>2026-04-26T14:33:23Z</time></trkpt><trkpt lat="43.69964671739082" lon="11.79680045006793"><ele>323.5</ele><time>2026-04-26T14:33:24Z</time></trkpt><trkpt lat="43.699461091929386" lon="11.797067741539033"><ele>324.0</ele><time>2026-04-26T14:33:25Z</time></trkpt><trkpt lat="43.69927390767917" lon="11.797325298863068"><ele>324.5</ele><time>2026-04-26T14:33:26Z</time></trkpt><trkpt lat="43.699084426371044" lon="11.79756822974283"><ele>325.0</ele><time>2026-04-26T14:33:27Z</time></trkpt><trkpt lat="43.69889430865258" lon="11.797788446573941"><ele>324.5</ele><time>2026-04-26T14:33:28Z</time></trkpt><trkpt lat="43.69870768061745" lon="11.797983071375164"><ele>324.0</ele><time>2026-04-26T14:33:29Z</time></trkpt><trkpt lat="43.69852352499547" lon="11.798155007565011"><ele>324.0</ele><time>2026-04-26T14:33:30Z</time></trkpt><trkpt lat="43.69834322370542" lon="11.798309584212838"><ele>324.0</ele><time>2026-04-26T14:33:31Z</time></trkpt><trkpt lat="43.69816819819469" lon="11.798449840618215"><ele>324.0</ele><time>2026-04-26T14:33:32Z</time></trkpt><trkpt lat="43.69799597290259" lon="11.798581455072673"><ele>324.0</ele><time>2026-04-26T14:33:33Z</time></trkpt><trkpt lat="43.697827785329174" lon="11.798706234693473"><ele>324.0</ele><time>2026-04-26T14:33:34Z</time></trkpt><trkpt lat="43.69766212364507" lon="11.79882674945735"><ele>324.0</ele><time>2026-04-26T14:33:35Z</time></trkpt><trkpt lat="43.6975028532717" lon="11.798943911041048"><ele>324.0</ele><time>2026-04-26T14:33:36Z</time></trkpt><trkpt lat="43.697349291885764" lon="11.799056016946297"><ele>324.0</ele><time>2026-04-26T14:33:37Z</time></trkpt><trkpt lat="43.69720386466916" lon="11.799170526505486"><ele>324.0</ele><time>2026-04-26T14:33:38Z</time></trkpt><trkpt lat="43.69706861444772" lon="11.799279077188954"><ele>324.0</ele><time>2026-04-26T14:33:39Z</time></trkpt><trkpt lat="43.69694359030543" lon="11.79937114582836"><ele>324.0</ele><time>2026-04-26T14:33:40Z</time></trkpt><trkpt lat="43.69682165231496" lon="11.799449792484886"><ele>324.0</ele><time>2026-04-26T14:33:41Z</time></trkpt><trkpt lat="43.696715176263645" lon="11.799519113433977"><ele>324.0</ele><time>2026-04-26T14:33:42Z</time></trkpt><trkpt lat="43.69661977159527" lon="11.79957946243054"><ele>323.8333333333333</ele><time>2026-04-26T14:33:43Z</time></trkpt><trkpt lat="43.696539256989105" lon="11.799633866351698"><ele>323.6666666666667</ele><time>2026-04-26T14:33:44Z</time></trkpt><trkpt lat="43.69646086749785" lon="11.799668495145971"><ele>323.5</ele><time>2026-04-26T14:33:45Z</time></trkpt><trkpt lat="43.69638214920233" lon="11.79968069487013"><ele>323.33333333333337</ele><time>2026-04-26T14:33:46Z</time></trkpt><trkpt lat="43.69630213609334" lon="11.799678621628384"><ele>323.1666666666667</ele><time>2026-04-26T14:33:47Z</time></trkpt><trkpt lat="43.69621629060858" lon="11.799669443336056"><ele>323.0</ele><time>2026-04-26T14:33:48Z</time></trkpt><trkpt lat="43.696124329827015" lon="11.799678072644907"><ele>323.0</ele><time>2026-04-26T14:33:49Z</time></trkpt><trkpt lat="43.69603967097352" lon="11.79972386424085"><ele>323.0</ele><time>2026-04-26T14:33:50Z</time></trkpt><trkpt lat="43.69597474469215" lon="11.79980020408024"><ele>323.0</ele><time>2026-04-26T14:33:51Z</time></trkpt><trkpt lat="43.69593024692608" lon="11.79989811016081"><ele>323.0</ele><time>2026-04-26T14:33:52Z</time></trkpt><trkpt lat="43.69590130760637" lon="11.800019525519971"><ele>323.0</ele><time>2026-04-26T14:33:53Z</time></trkpt><trkpt lat="43.69588228377435" lon="11.800158880294365"><ele>323.25</ele><time>2026-04-26T14:33:54Z</time></trkpt><trkpt lat="43.69584532998244" lon="11.80031098741952"><ele>323.5</ele><time>2026-04-26T14:33:55Z</time></trkpt><trkpt lat="43.69576961987455" lon="11.80047468993877"><ele>323.75</ele><time>2026-04-26T14:33:56Z</time></trkpt><trkpt lat="43.69568837897424" lon="11.800625300279934"><ele>324.0</ele><time>2026-04-26T14:33:57Z</time></trkpt><trkpt lat="43.69557946648284" lon="11.800769822991215"><ele>324.0</ele><time>2026-04-26T14:33:58Z</time></trkpt><trkpt lat="43.695477885194606" lon="11.800910157004513"><ele>324.0</ele><time>2026-04-26T14:33:59Z</time></trkpt><trkpt lat="43.695371588386024" lon="11.801059768062848"><ele>324.0</ele><time>2026-04-26T14:34:00Z</time></trkpt><trkpt lat="43.6952576075181" lon="11.801214991936812"><ele>324.6666666666667</ele><time>2026-04-26T14:34:00.999Z</time></trkpt><trkpt lat="43.69513863919627" lon="11.801378343023158"><ele>325.33333333333337</ele><time>2026-04-26T14:34:01.999Z</time></trkpt><trkpt lat="43.69501466675267" lon="11.801552074026025"><ele>326.0</ele><time>2026-04-26T14:34:02.999Z</time></trkpt><trkpt lat="43.69488597883233" lon="11.801723775706042"><ele>325.33333333333337</ele><time>2026-04-26T14:34:03.999Z</time></trkpt><trkpt lat="43.69475202604464" lon="11.80190331962065"><ele>324.6666666666667</ele><time>2026-04-26T14:34:04.999Z</time></trkpt><trkpt lat="43.69460900938457" lon="11.802092925134366"><ele>324.0</ele><time>2026-04-26T14:34:05.999Z</time></trkpt><trkpt lat="43.694452076730904" lon="11.802273264292824"><ele>323.6666666666667</ele><time>2026-04-26T14:34:06.999Z</time></trkpt><trkpt lat="43.694283173053634" lon="11.802441594023534"><ele>323.33333333333337</ele><time>2026-04-26T14:34:07.999Z</time></trkpt><trkpt lat="43.69409668077755" lon="11.802620529026765"><ele>323.0</ele><time>2026-04-26T14:34:08.999Z</time></trkpt><trkpt lat="43.69389620756669" lon="11.802810424461999"><ele>323.0</ele><time>2026-04-26T14:34:09.999Z</time></trkpt><trkpt lat="43.693702406546656" lon="11.80298002132792"><ele>323.0</ele><time>2026-04-26T14:34:10.999Z</time></trkpt><trkpt lat="43.69352643993959" lon="11.803138690017667"><ele>323.0</ele><time>2026-04-26T14:34:11.999Z</time></trkpt><trkpt lat="43.69336258901033" lon="11.803293310617576"><ele>323.0</ele><time>2026-04-26T14:34:12.999Z</time></trkpt><trkpt lat="43.6932109977799" lon="11.803449437016871"><ele>323.0</ele><time>2026-04-26T14:34:13.999Z</time></trkpt><trkpt lat="43.693072423960956" lon="11.803605990997355"><ele>323.0</ele><time>2026-04-26T14:34:14.999Z</time></trkpt><trkpt lat="43.6929458594859" lon="11.803765920641974"><ele>323.0</ele><time>2026-04-26T14:34:15.999Z</time></trkpt><trkpt lat="43.69282781266148" lon="11.803927600630969"><ele>323.0</ele><time>2026-04-26T14:34:16.999Z</time></trkpt><trkpt lat="43.69271311074111" lon="11.804096730752761"><ele>323.0</ele><time>2026-04-26T14:34:17.999Z</time></trkpt><trkpt lat="43.69260102252846" lon="11.804299117155137"><ele>323.33333333333337</ele><time>2026-04-26T14:34:18.999Z</time></trkpt><trkpt lat="43.69248017512397" lon="11.80451355083082"><ele>323.6666666666667</ele><time>2026-04-26T14:34:19.999Z</time></trkpt><trkpt lat="43.692359061349045" lon="11.804745257611769"><ele>324.0</ele><time>2026-04-26T14:34:20.999Z</time></trkpt><trkpt lat="43.69224054269991" lon="11.804995102011576"><ele>323.5</ele><time>2026-04-26T14:34:21.999Z</time></trkpt><trkpt lat="43.69213016142004" lon="11.805265082705896"><ele>323.0</ele><time>2026-04-26T14:34:22.999Z</time></trkpt><trkpt lat="43.69203091298911" lon="11.805545352363486"><ele>323.0</ele><time>2026-04-26T14:34:24Z</time></trkpt><trkpt lat="43.691944297710826" lon="11.805834258815144"><ele>323.0</ele><time>2026-04-26T14:34:25Z</time></trkpt><trkpt lat="43.69187027278623" lon="11.806135773953034"><ele>322.0</ele><time>2026-04-26T14:34:26Z</time></trkpt><trkpt lat="43.691804239764174" lon="11.806440558716492"><ele>321.0</ele><time>2026-04-26T14:34:27Z</time></trkpt><trkpt lat="43.691745866477945" lon="11.806746879158709"><ele>321.0</ele><time>2026-04-26T14:34:28Z</time></trkpt><trkpt lat="43.69169170872647" lon="11.80705577366699"><ele>321.0</ele><time>2026-04-26T14:34:29Z</time></trkpt><trkpt lat="43.691637893755484" lon="11.80736184033465"><ele>321.5</ele><time>2026-04-26T14:34:30Z</time></trkpt><trkpt lat="43.691583355860956" lon="11.807665888022514"><ele>322.0</ele><time>2026-04-26T14:34:31Z</time></trkpt><trkpt lat="43.69152749316232" lon="11.807967472047876"><ele>322.0</ele><time>2026-04-26T14:34:32Z</time></trkpt><trkpt lat="43.69146984130469" lon="11.808265237486223"><ele>322.0</ele><time>2026-04-26T14:34:33Z</time></trkpt><trkpt lat="43.6914119062254" lon="11.808561405525685"><ele>322.0</ele><time>2026-04-26T14:34:34Z</time></trkpt><trkpt lat="43.691352575142474" lon="11.808856522632654"><ele>322.0</ele><time>2026-04-26T14:34:35Z</time></trkpt><trkpt lat="43.69128573284894" lon="11.80914720628705"><ele>322.0</ele><time>2026-04-26T14:34:36Z</time></trkpt><trkpt lat="43.69120717860569" lon="11.809433205074674"><ele>322.0</ele><time>2026-04-26T14:34:37Z</time></trkpt><trkpt lat="43.69111732693028" lon="11.809711422707304"><ele>321.66666666666663</ele><time>2026-04-26T14:34:38Z</time></trkpt><trkpt lat="43.691014783578076" lon="11.80998209249345"><ele>321.3333333333333</ele><time>2026-04-26T14:34:39Z</time></trkpt><trkpt lat="43.69090235819262" lon="11.810244189842404"><ele>321.0</ele><time>2026-04-26T14:34:40Z</time></trkpt><trkpt lat="43.69077728843623" lon="11.810499339145004"><ele>321.0</ele><time>2026-04-26T14:34:41Z</time></trkpt><trkpt lat="43.69064547573483" lon="11.810749884224434"><ele>321.0</ele><time>2026-04-26T14:34:42Z</time></trkpt><trkpt lat="43.69050223609423" lon="11.810993329826937"><ele>322.5</ele><time>2026-04-26T14:34:43Z</time></trkpt><trkpt lat="43.69035208510539" lon="11.81122708233203"><ele>324.0</ele><time>2026-04-26T14:34:44Z</time></trkpt><trkpt lat="43.69019772896333" lon="11.811455675553935"><ele>322.0</ele><time>2026-04-26T14:34:45Z</time></trkpt><trkpt lat="43.69004646888023" lon="11.811692399118744"><ele>320.0</ele><time>2026-04-26T14:34:46Z</time></trkpt><trkpt lat="43.689901463961235" lon="11.811935028355986"><ele>320.0</ele><time>2026-04-26T14:34:47Z</time></trkpt><trkpt lat="43.68976676662928" lon="11.812184771310102"><ele>320.0</ele><time>2026-04-26T14:34:48Z</time></trkpt><trkpt lat="43.689647388817704" lon="11.812450391809326"><ele>319.5</ele><time>2026-04-26T14:34:49Z</time></trkpt><trkpt lat="43.68954346082826" lon="11.812726444013878"><ele>319.0</ele><time>2026-04-26T14:34:50Z</time></trkpt><trkpt lat="43.689455463325366" lon="11.813014586845215"><ele>318.66666666666663</ele><time>2026-04-26T14:34:51Z</time></trkpt><trkpt lat="43.68938496013819" lon="11.81331102829366"><ele>318.3333333333333</ele><time>2026-04-26T14:34:52Z</time></trkpt><trkpt lat="43.68932802451803" lon="11.813610149997285"><ele>318.0</ele><time>2026-04-26T14:34:53Z</time></trkpt><trkpt lat="43.68929099833088" lon="11.813916500641284"><ele>319.0</ele><time>2026-04-26T14:34:54Z</time></trkpt><trkpt lat="43.689272214460466" lon="11.81422536177343"><ele>320.0</ele><time>2026-04-26T14:34:55Z</time></trkpt><trkpt lat="43.689272615326324" lon="11.814537821444583"><ele>320.5</ele><time>2026-04-26T14:34:56Z</time></trkpt><trkpt lat="43.68928825719362" lon="11.814851130115398"><ele>321.0</ele><time>2026-04-26T14:34:57Z</time></trkpt><trkpt lat="43.68931966819452" lon="11.81516021399743"><ele>319.5</ele><time>2026-04-26T14:34:58Z</time></trkpt><trkpt lat="43.689365041251975" lon="11.815471376350164"><ele>318.0</ele><time>2026-04-26T14:34:59Z</time></trkpt><trkpt lat="43.68942400598408" lon="11.815779927695456"><ele>319.0</ele><time>2026-04-26T14:35:00Z</time></trkpt><trkpt lat="43.68948920414782" lon="11.816092443692675"><ele>320.0</ele><time>2026-04-26T14:35:01Z</time></trkpt><trkpt lat="43.689549180024954" lon="11.816412404472477"><ele>320.0</ele><time>2026-04-26T14:35:02Z</time></trkpt><trkpt lat="43.68961284505521" lon="11.816727582372511"><ele>320.0</ele><time>2026-04-26T14:35:03Z</time></trkpt><trkpt lat="43.68967390722565" lon="11.817044423739283"><ele>319.5</ele><time>2026-04-26T14:35:04Z</time></trkpt><trkpt lat="43.68973428404163" lon="11.817351376271318"><ele>319.0</ele><time>2026-04-26T14:35:05Z</time></trkpt><trkpt lat="43.68979241644974" lon="11.81764931829029"><ele>318.66666666666663</ele><time>2026-04-26T14:35:06Z</time></trkpt><trkpt lat="43.68985027572446" lon="11.817935401696133"><ele>318.3333333333333</ele><time>2026-04-26T14:35:07Z</time></trkpt><trkpt lat="43.68990415628451" lon="11.818211099472888"><ele>318.0</ele><time>2026-04-26T14:35:08Z</time></trkpt><trkpt lat="43.68995916840423" lon="11.818465392245821"><ele>318.3333333333333</ele><time>2026-04-26T14:35:09Z</time></trkpt><trkpt lat="43.69003355695063" lon="11.818690676651123"><ele>318.66666666666663</ele><time>2026-04-26T14:35:10Z</time></trkpt><trkpt lat="43.6901196956785" lon="11.818886848008963"><ele>319.0</ele><time>2026-04-26T14:35:11Z</time></trkpt><trkpt lat="43.69019251381377" lon="11.81907159408937"><ele>319.0</ele><time>2026-04-26T14:35:12Z</time></trkpt><trkpt lat="43.69025359234519" lon="11.819251540432573"><ele>319.0</ele><time>2026-04-26T14:35:13Z</time></trkpt><trkpt lat="43.690308402135834" lon="11.819427762100975"><ele>319.0</ele><time>2026-04-26T14:35:14Z</time></trkpt><trkpt lat="43.69036338352434" lon="11.819591669268041"><ele>319.0</ele><time>2026-04-26T14:35:15Z</time></trkpt><trkpt lat="43.690434068045576" lon="11.819736741928244"><ele>323.75</ele><time>2026-04-26T14:35:16Z</time></trkpt><trkpt lat="43.690537050242376" lon="11.819873741372978"><ele>328.5</ele><time>2026-04-26T14:35:17Z</time></trkpt><trkpt lat="43.69058377182962" lon="11.819995745625016"><ele>333.25</ele><time>2026-04-26T14:35:18Z</time></trkpt><trkpt lat="43.690630132160294" lon="11.820122529495833"><ele>338.0</ele><time>2026-04-26T14:35:19Z</time></trkpt><trkpt lat="43.69058073488946" lon="11.820327153078988"><ele>343.0</ele><time>2026-04-26T14:35:20Z</time></trkpt><trkpt lat="43.69057989976333" lon="11.820513561553126"><ele>348.0</ele><time>2026-04-26T14:35:21Z</time></trkpt><trkpt lat="43.69051516257729" lon="11.82070897325704"><ele>353.0</ele><time>2026-04-26T14:35:22Z</time></trkpt><trkpt lat="43.69041968408961" lon="11.820919626313716"><ele>358.0</ele><time>2026-04-26T14:35:23Z</time></trkpt><trkpt lat="43.69029608546307" lon="11.821134277928751"><ele>363.0</ele><time>2026-04-26T14:35:24Z</time></trkpt><trkpt lat="43.69016492132772" lon="11.821324043715173"><ele>368.0</ele><time>2026-04-26T14:35:25Z</time></trkpt><trkpt lat="43.69003895839963" lon="11.821506855153277"><ele>362.0</ele><time>2026-04-26T14:35:26Z</time></trkpt><trkpt lat="43.689913329293326" lon="11.821687783608168"><ele>356.0</ele><time>2026-04-26T14:35:27Z</time></trkpt><trkpt lat="43.68981366711135" lon="11.821882695794704"><ele>350.0</ele><time>2026-04-26T14:35:28Z</time></trkpt><trkpt lat="43.689694581941644" lon="11.822069179691317"><ele>350.0</ele><time>2026-04-26T14:35:29Z</time></trkpt><trkpt lat="43.68957501130609" lon="11.82225369214074"><ele>350.0</ele><time>2026-04-26T14:35:30Z</time></trkpt><trkpt lat="43.689457768677045" lon="11.822439972023307"><ele>350.0</ele><time>2026-04-26T14:35:31Z</time></trkpt><trkpt lat="43.68933110139916" lon="11.822613261075341"><ele>344.0</ele><time>2026-04-26T14:35:32Z</time></trkpt><trkpt lat="43.68921027037607" lon="11.822804180683741"><ele>338.0</ele><time>2026-04-26T14:35:33Z</time></trkpt><trkpt lat="43.68908628741717" lon="11.823001542999831"><ele>332.0</ele><time>2026-04-26T14:35:34Z</time></trkpt><trkpt lat="43.68898065812792" lon="11.823202898456941"><ele>332.0</ele><time>2026-04-26T14:35:35Z</time></trkpt><trkpt lat="43.68886180883372" lon="11.823388548979294"><ele>332.0</ele><time>2026-04-26T14:35:36Z</time></trkpt><trkpt lat="43.688741152201445" lon="11.823575081181085"><ele>332.0</ele><time>2026-04-26T14:35:37Z</time></trkpt><trkpt lat="43.688623344191164" lon="11.823760803144856"><ele>329.33333333333337</ele><time>2026-04-26T14:35:38Z</time></trkpt><trkpt lat="43.68850798618316" lon="11.823946023389574"><ele>326.6666666666667</ele><time>2026-04-26T14:35:39Z</time></trkpt><trkpt lat="43.68839803642697" lon="11.82412382253678"><ele>324.0</ele><time>2026-04-26T14:35:40Z</time></trkpt><trkpt lat="43.68829020850298" lon="11.824297300908121"><ele>324.6666666666667</ele><time>2026-04-26T14:35:41Z</time></trkpt><trkpt lat="43.68818930078659" lon="11.82446590465491"><ele>325.33333333333337</ele><time>2026-04-26T14:35:42Z</time></trkpt><trkpt lat="43.68808451997399" lon="11.824628838267389"><ele>326.0</ele><time>2026-04-26T14:35:43Z</time></trkpt><trkpt lat="43.68798562466152" lon="11.824786725307664"><ele>326.0</ele><time>2026-04-26T14:35:44Z</time></trkpt><trkpt lat="43.68788869973636" lon="11.824933458731918"><ele>326.0</ele><time>2026-04-26T14:35:45Z</time></trkpt><trkpt lat="43.68779902081599" lon="11.825083026492475"><ele>326.0</ele><time>2026-04-26T14:35:46Z</time></trkpt><trkpt lat="43.68770454149238" lon="11.825212792880523"><ele>326.0</ele><time>2026-04-26T14:35:47Z</time></trkpt><trkpt lat="43.68761323473442" lon="11.825313237026364"><ele>324.5</ele><time>2026-04-26T14:35:48Z</time></trkpt><trkpt lat="43.68751174516869" lon="11.82538641084574"><ele>323.0</ele><time>2026-04-26T14:35:49Z</time></trkpt><trkpt lat="43.68741049401546" lon="11.82542185005963"><ele>321.5</ele><time>2026-04-26T14:35:50Z</time></trkpt><trkpt lat="43.68725954829358" lon="11.825439019037033"><ele>320.0</ele><time>2026-04-26T14:35:51Z</time></trkpt><trkpt lat="43.68708517746413" lon="11.825469695342075"><ele>320.0</ele><time>2026-04-26T14:35:52Z</time></trkpt><trkpt lat="43.686963652867206" lon="11.825530472469636"><ele>320.0</ele><time>2026-04-26T14:35:53Z</time></trkpt><trkpt lat="43.68683396061678" lon="11.825568208594683"><ele>320.0</ele><time>2026-04-26T14:35:54Z</time></trkpt><trkpt lat="43.686973373024685" lon="11.825900931010583"><ele>320.33333333333337</ele><time>2026-04-26T14:35:55Z</time></trkpt><trkpt lat="43.68682704595686" lon="11.825961206039768"><ele>320.6666666666667</ele><time>2026-04-26T14:35:56Z</time></trkpt><trkpt lat="43.686670671774415" lon="11.82599840822314"><ele>321.0</ele><time>2026-04-26T14:35:57Z</time></trkpt><trkpt lat="43.68649822161451" lon="11.826053620456925"><ele>325.6666666666667</ele><time>2026-04-26T14:35:58Z</time></trkpt><trkpt lat="43.68630978357109" lon="11.82610918485092"><ele>330.33333333333337</ele><time>2026-04-26T14:35:58.999Z</time></trkpt><trkpt lat="43.68612311985825" lon="11.826164255371314"><ele>335.0</ele><time>2026-04-26T14:35:59.999Z</time></trkpt><trkpt lat="43.685941701767284" lon="11.826222736772634"><ele>335.0</ele><time>2026-04-26T14:36:00.999Z</time></trkpt><trkpt lat="43.685758850132906" lon="11.826286127366899"><ele>335.0</ele><time>2026-04-26T14:36:01.999Z</time></trkpt><trkpt lat="43.68557424093656" lon="11.826340863157697"><ele>335.0</ele><time>2026-04-26T14:36:02.999Z</time></trkpt><trkpt lat="43.68538556209774" lon="11.826374379547495"><ele>332.0</ele><time>2026-04-26T14:36:03.999Z</time></trkpt><trkpt lat="43.68520635307576" lon="11.82640295860317"><ele>329.0</ele><time>2026-04-26T14:36:04.999Z</time></trkpt><trkpt lat="43.68503328642758" lon="11.826450691429253"><ele>326.0</ele><time>2026-04-26T14:36:05.999Z</time></trkpt><trkpt lat="43.68486105490228" lon="11.826514325973896"><ele>326.0</ele><time>2026-04-26T14:36:06.999Z</time></trkpt><trkpt lat="43.68469080791406" lon="11.826603918052465"><ele>326.0</ele><time>2026-04-26T14:36:07.999Z</time></trkpt><trkpt lat="43.684524308317194" lon="11.826710623845834"><ele>326.0</ele><time>2026-04-26T14:36:08.999Z</time></trkpt><trkpt lat="43.684357718516395" lon="11.826824856664961"><ele>325.6666666666667</ele><time>2026-04-26T14:36:09.999Z</time></trkpt><trkpt lat="43.68419418155759" lon="11.826927079706017"><ele>325.3333333333333</ele><time>2026-04-26T14:36:10.999Z</time></trkpt><trkpt lat="43.68403189605377" lon="11.827015887859366"><ele>325.0</ele><time>2026-04-26T14:36:11.999Z</time></trkpt><trkpt lat="43.683881778186155" lon="11.827109236754964"><ele>325.0</ele><time>2026-04-26T14:36:12.999Z</time></trkpt><trkpt lat="43.68374549161223" lon="11.827200996904525"><ele>325.0</ele><time>2026-04-26T14:36:13.999Z</time></trkpt><trkpt lat="43.6836246439691" lon="11.827291844282955"><ele>325.0</ele><time>2026-04-26T14:36:14.999Z</time></trkpt><trkpt lat="43.68351520493379" lon="11.82739329308728"><ele>325.0</ele><time>2026-04-26T14:36:15.999Z</time></trkpt><trkpt lat="43.683410849123" lon="11.827494496264638"><ele>325.75</ele><time>2026-04-26T14:36:16.999Z</time></trkpt><trkpt lat="43.683310043012874" lon="11.82760414547875"><ele>326.5</ele><time>2026-04-26T14:36:17.999Z</time></trkpt><trkpt lat="43.68321886276207" lon="11.827705313502085"><ele>327.25</ele><time>2026-04-26T14:36:18.999Z</time></trkpt><trkpt lat="43.68313837915914" lon="11.827807877495554"><ele>328.0</ele><time>2026-04-26T14:36:19.999Z</time></trkpt><trkpt lat="43.68306394992708" lon="11.827909199383512"><ele>328.0</ele><time>2026-04-26T14:36:20.998Z</time></trkpt><trkpt lat="43.68298353828157" lon="11.828012930149125"><ele>328.0</ele><time>2026-04-26T14:36:21.998Z</time></trkpt><trkpt lat="43.68290873793659" lon="11.828121621936653"><ele>328.0</ele><time>2026-04-26T14:36:22.998Z</time></trkpt><trkpt lat="43.68282958776466" lon="11.828235052729864"><ele>328.0</ele><time>2026-04-26T14:36:23.998Z</time></trkpt><trkpt lat="43.682754179781135" lon="11.828360603167262"><ele>327.59999999999997</ele><time>2026-04-26T14:36:24.998Z</time></trkpt><trkpt lat="43.68269019157764" lon="11.828474828397871"><ele>327.2</ele><time>2026-04-26T14:36:25.998Z</time></trkpt><trkpt lat="43.682636231354586" lon="11.828586376827685"><ele>326.8</ele><time>2026-04-26T14:36:26.998Z</time></trkpt><trkpt lat="43.682582891408025" lon="11.828693597188076"><ele>326.4</ele><time>2026-04-26T14:36:27.998Z</time></trkpt><trkpt lat="43.682530320919554" lon="11.82879448981458"><ele>326.0</ele><time>2026-04-26T14:36:28.998Z</time></trkpt><trkpt lat="43.68246985460453" lon="11.828902976070639"><ele>326.0</ele><time>2026-04-26T14:36:29.999Z</time></trkpt><trkpt lat="43.682406072743234" lon="11.829014809555703"><ele>326.0</ele><time>2026-04-26T14:36:30.999Z</time></trkpt><trkpt lat="43.68233118178288" lon="11.829120268029957"><ele>326.0</ele><time>2026-04-26T14:36:31.999Z</time></trkpt><trkpt lat="43.68223751979108" lon="11.829221250752843"><ele>326.0</ele><time>2026-04-26T14:36:32.999Z</time></trkpt><trkpt lat="43.682131016352265" lon="11.829300769436733"><ele>326.25</ele><time>2026-04-26T14:36:33.999Z</time></trkpt><trkpt lat="43.682021783830024" lon="11.829364354100177"><ele>326.5</ele><time>2026-04-26T14:36:34.999Z</time></trkpt><trkpt lat="43.6819150717907" lon="11.829425117123613"><ele>326.75</ele><time>2026-04-26T14:36:35.999Z</time></trkpt><trkpt lat="43.68180373546046" lon="11.829487972477281"><ele>327.0</ele><time>2026-04-26T14:36:36.999Z</time></trkpt><trkpt lat="43.68169600082697" lon="11.82954767983061"><ele>325.5</ele><time>2026-04-26T14:36:37.999Z</time></trkpt><trkpt lat="43.681586825838565" lon="11.829608405885015"><ele>324.0</ele><time>2026-04-26T14:36:38.999Z</time></trkpt><trkpt lat="43.68147838655932" lon="11.829673579495827"><ele>322.5</ele><time>2026-04-26T14:36:39.999Z</time></trkpt><trkpt lat="43.68137124424423" lon="11.829739251202202"><ele>321.0</ele><time>2026-04-26T14:36:40.999Z</time></trkpt><trkpt lat="43.68126162487193" lon="11.829802295486997"><ele>321.0</ele><time>2026-04-26T14:36:41.999Z</time></trkpt><trkpt lat="43.68115285828556" lon="11.829867086501714"><ele>321.0</ele><time>2026-04-26T14:36:42.999Z</time></trkpt><trkpt lat="43.681043162115145" lon="11.829932180358686"><ele>321.0</ele><time>2026-04-26T14:36:43.999Z</time></trkpt><trkpt lat="43.68093135229494" lon="11.829995191611067"><ele>321.0</ele><time>2026-04-26T14:36:44.999Z</time></trkpt><trkpt lat="43.68081781434196" lon="11.830061541705728"><ele>321.0</ele><time>2026-04-26T14:36:45.999Z</time></trkpt><trkpt lat="43.68070472815167" lon="11.830130175260274"><ele>321.0</ele><time>2026-04-26T14:36:46.999Z</time></trkpt><trkpt lat="43.68058953453238" lon="11.830198312148477"><ele>321.0</ele><time>2026-04-26T14:36:47.999Z</time></trkpt><trkpt lat="43.680470128129535" lon="11.830269166820694"><ele>321.0</ele><time>2026-04-26T14:36:48.999Z</time></trkpt><trkpt lat="43.6803490941902" lon="11.830340288527173"><ele>320.75</ele><time>2026-04-26T14:36:49.999Z</time></trkpt><trkpt lat="43.68022612363316" lon="11.830421823433223"><ele>320.5</ele><time>2026-04-26T14:36:50.999Z</time></trkpt><trkpt lat="43.68009322231688" lon="11.830483894447271"><ele>320.25</ele><time>2026-04-26T14:36:51.999Z</time></trkpt><trkpt lat="43.67996298670374" lon="11.830560938328173"><ele>320.0</ele><time>2026-04-26T14:36:52.999Z</time></trkpt><trkpt lat="43.67986022332392" lon="11.830640420747812"><ele>320.0</ele><time>2026-04-26T14:36:53.999Z</time></trkpt><trkpt lat="43.679734946015024" lon="11.830710452782284"><ele>320.0</ele><time>2026-04-26T14:36:54.999Z</time></trkpt><trkpt lat="43.67961691153856" lon="11.830779474616442"><ele>320.0</ele><time>2026-04-26T14:36:55.999Z</time></trkpt><trkpt lat="43.67951166394746" lon="11.830835926612455"><ele>320.0</ele><time>2026-04-26T14:36:56.999Z</time></trkpt><trkpt lat="43.679404804873414" lon="11.830851548024425"><ele>321.4</ele><time>2026-04-26T14:36:57.999Z</time></trkpt><trkpt lat="43.679298120871366" lon="11.830863748655275"><ele>322.8</ele><time>2026-04-26T14:36:58.999Z</time></trkpt><trkpt lat="43.67918834953418" lon="11.83085856694478"><ele>324.20000000000005</ele><time>2026-04-26T14:36:59.999Z</time></trkpt><trkpt lat="43.679084331714364" lon="11.830835717130764"><ele>325.6</ele><time>2026-04-26T14:37:00.999Z</time></trkpt><trkpt lat="43.678972474872225" lon="11.830792983426178"><ele>327.0</ele><time>2026-04-26T14:37:01.999Z</time></trkpt><trkpt lat="43.678861252137345" lon="11.830738695066854"><ele>327.0</ele><time>2026-04-26T14:37:02.999Z</time></trkpt><trkpt lat="43.678746990204125" lon="11.830671661477925"><ele>327.0</ele><time>2026-04-26T14:37:03.999Z</time></trkpt><trkpt lat="43.67863374385351" lon="11.830606190936109"><ele>327.0</ele><time>2026-04-26T14:37:04.999Z</time></trkpt><trkpt lat="43.67852310669307" lon="11.830542228820649"><ele>327.0</ele><time>2026-04-26T14:37:05.999Z</time></trkpt><trkpt lat="43.6784117631186" lon="11.830479659830717"><ele>329.25</ele><time>2026-04-26T14:37:06.999Z</time></trkpt><trkpt lat="43.67829711789697" lon="11.830442485322797"><ele>331.5</ele><time>2026-04-26T14:37:07.999Z</time></trkpt><trkpt lat="43.678185730549835" lon="11.83038638472119"><ele>333.75</ele><time>2026-04-26T14:37:08.999Z</time></trkpt><trkpt lat="43.67808233982513" lon="11.830333098473494"><ele>336.0</ele><time>2026-04-26T14:37:09.999Z</time></trkpt><trkpt lat="43.67797666566396" lon="11.830309200900409"><ele>336.0</ele><time>2026-04-26T14:37:10.999Z</time></trkpt><trkpt lat="43.67786400881304" lon="11.830308903663685"><ele>336.0</ele><time>2026-04-26T14:37:11.999Z</time></trkpt><trkpt lat="43.677750139360626" lon="11.830333343509553"><ele>336.0</ele><time>2026-04-26T14:37:12.999Z</time></trkpt><trkpt lat="43.67763441481156" lon="11.830394438666845"><ele>336.0</ele><time>2026-04-26T14:37:13.999Z</time></trkpt><trkpt lat="43.67752539816914" lon="11.830473240487953"><ele>336.25</ele><time>2026-04-26T14:37:14.999Z</time></trkpt><trkpt lat="43.67742789319547" lon="11.830576679342057"><ele>336.5</ele><time>2026-04-26T14:37:15.999Z</time></trkpt><trkpt lat="43.67731243984347" lon="11.830672874990473"><ele>336.75</ele><time>2026-04-26T14:37:16.999Z</time></trkpt><trkpt lat="43.67719846196175" lon="11.830783533715374"><ele>337.0</ele><time>2026-04-26T14:37:17.999Z</time></trkpt><trkpt lat="43.67708587046375" lon="11.830901888517536"><ele>337.0</ele><time>2026-04-26T14:37:18.999Z</time></trkpt><trkpt lat="43.676968199477685" lon="11.831008836631701"><ele>337.0</ele><time>2026-04-26T14:37:19.999Z</time></trkpt><trkpt lat="43.676849398879185" lon="11.83111941914523"><ele>337.0</ele><time>2026-04-26T14:37:20.999Z</time></trkpt><trkpt lat="43.67674275208597" lon="11.831219075470733"><ele>337.0</ele><time>2026-04-26T14:37:21.999Z</time></trkpt><trkpt lat="43.6766313889998" lon="11.831330851740484"><ele>335.3333333333333</ele><time>2026-04-26T14:37:22.999Z</time></trkpt><trkpt lat="43.67649611564903" lon="11.831441195662483"><ele>333.6666666666667</ele><time>2026-04-26T14:37:23.999Z</time></trkpt><trkpt lat="43.67635572739628" lon="11.831574514642474"><ele>332.0</ele><time>2026-04-26T14:37:24.999Z</time></trkpt><trkpt lat="43.676205715157224" lon="11.831716973042575"><ele>331.6666666666667</ele><time>2026-04-26T14:37:25.999Z</time></trkpt><trkpt lat="43.67606001818107" lon="11.831855333488825"><ele>331.3333333333333</ele><time>2026-04-26T14:37:26.999Z</time></trkpt><trkpt lat="43.675927773254564" lon="11.831980919287568"><ele>331.0</ele><time>2026-04-26T14:37:27.999Z</time></trkpt><trkpt lat="43.67580905187975" lon="11.832113678361665"><ele>331.0</ele><time>2026-04-26T14:37:28.999Z</time></trkpt><trkpt lat="43.675681129814095" lon="11.832231329005472"><ele>331.0</ele><time>2026-04-26T14:37:29.999Z</time></trkpt><trkpt lat="43.675550800560735" lon="11.83234564031436"><ele>331.0</ele><time>2026-04-26T14:37:30.999Z</time></trkpt><trkpt lat="43.67542255437105" lon="11.832466785603934"><ele>331.0</ele><time>2026-04-26T14:37:31.999Z</time></trkpt><trkpt lat="43.675294606066885" lon="11.832594185913457"><ele>331.0</ele><time>2026-04-26T14:37:32.999Z</time></trkpt><trkpt lat="43.675158565086555" lon="11.832736343019269"><ele>331.0</ele><time>2026-04-26T14:37:33.999Z</time></trkpt><trkpt lat="43.674991774507454" lon="11.832868745123896"><ele>330.66666666666663</ele><time>2026-04-26T14:37:34.999Z</time></trkpt><trkpt lat="43.674826141585676" lon="11.833025920833881"><ele>330.3333333333333</ele><time>2026-04-26T14:37:35.999Z</time></trkpt><trkpt lat="43.67466263277115" lon="11.83318108077658"><ele>330.0</ele><time>2026-04-26T14:37:36.999Z</time></trkpt><trkpt lat="43.67450681591065" lon="11.833342907886653"><ele>329.3333333333333</ele><time>2026-04-26T14:37:37.999Z</time></trkpt><trkpt lat="43.67434095326734" lon="11.833488497966936"><ele>328.66666666666663</ele><time>2026-04-26T14:37:38.999Z</time></trkpt><trkpt lat="43.67418524838533" lon="11.833630767349035"><ele>328.0</ele><time>2026-04-26T14:37:39.999Z</time></trkpt><trkpt lat="43.6740274242677" lon="11.833768306334623"><ele>328.0</ele><time>2026-04-26T14:37:40.999Z</time></trkpt><trkpt lat="43.6738644124883" lon="11.83390430311054"><ele>328.0</ele><time>2026-04-26T14:37:41.999Z</time></trkpt><trkpt lat="43.673700133394" lon="11.834041663984472"><ele>328.0</ele><time>2026-04-26T14:37:42.999Z</time></trkpt><trkpt lat="43.67353734906002" lon="11.834187063796316"><ele>328.3333333333333</ele><time>2026-04-26T14:37:43.999Z</time></trkpt><trkpt lat="43.673374558294206" lon="11.834333876348703"><ele>328.6666666666667</ele><time>2026-04-26T14:37:44.999Z</time></trkpt><trkpt lat="43.67320877916498" lon="11.83448519160525"><ele>329.0</ele><time>2026-04-26T14:37:45.999Z</time></trkpt><trkpt lat="43.67304726241657" lon="11.834652338465338"><ele>329.0</ele><time>2026-04-26T14:37:46.999Z</time></trkpt><trkpt lat="43.67288967303676" lon="11.834833149381074"><ele>329.0</ele><time>2026-04-26T14:37:47.999Z</time></trkpt><trkpt lat="43.67273962348942" lon="11.835028539641335"><ele>329.0</ele><time>2026-04-26T14:37:48.999Z</time></trkpt><trkpt lat="43.67259807993407" lon="11.835240070361674"><ele>327.33333333333337</ele><time>2026-04-26T14:37:49.999Z</time></trkpt><trkpt lat="43.6724625853145" lon="11.835462709993658"><ele>325.6666666666667</ele><time>2026-04-26T14:37:50.999Z</time></trkpt><trkpt lat="43.67233405558947" lon="11.83569522542567"><ele>324.0</ele><time>2026-04-26T14:37:51.999Z</time></trkpt><trkpt lat="43.672209529875936" lon="11.83593649786988"><ele>323.0</ele><time>2026-04-26T14:37:52.999Z</time></trkpt><trkpt lat="43.67208415622663" lon="11.836177287474868"><ele>322.0</ele><time>2026-04-26T14:37:53.999Z</time></trkpt><trkpt lat="43.671957943403925" lon="11.836419945962554"><ele>321.0</ele><time>2026-04-26T14:37:54.999Z</time></trkpt><trkpt lat="43.671832221406056" lon="11.83665769310206"><ele>323.6666666666667</ele><time>2026-04-26T14:37:55.999Z</time></trkpt><trkpt lat="43.671705666924176" lon="11.836899547246588"><ele>326.33333333333337</ele><time>2026-04-26T14:37:56.999Z</time></trkpt><trkpt lat="43.67158237314618" lon="11.837137498310993"><ele>329.0</ele><time>2026-04-26T14:37:57.999Z</time></trkpt><trkpt lat="43.67146220251992" lon="11.837369748798002"><ele>329.0</ele><time>2026-04-26T14:37:58.999Z</time></trkpt><trkpt lat="43.6713401709702" lon="11.8375848913152"><ele>329.0</ele><time>2026-04-26T14:37:59.999Z</time></trkpt><trkpt lat="43.67118913295023" lon="11.837767057597148"><ele>329.0</ele><time>2026-04-26T14:38:00.999Z</time></trkpt><trkpt lat="43.67100363262813" lon="11.837889938708926"><ele>332.33333333333337</ele><time>2026-04-26T14:38:01.999Z</time></trkpt><trkpt lat="43.670810242966425" lon="11.838005031718469"><ele>335.6666666666667</ele><time>2026-04-26T14:38:02.999Z</time></trkpt><trkpt lat="43.67061704259242" lon="11.838136261269222"><ele>339.0</ele><time>2026-04-26T14:38:03.999Z</time></trkpt><trkpt lat="43.67041469220146" lon="11.838241731946574"><ele>341.3333333333333</ele><time>2026-04-26T14:38:04.999Z</time></trkpt><trkpt lat="43.6702107471216" lon="11.838356369863785"><ele>343.66666666666663</ele><time>2026-04-26T14:38:05.999Z</time></trkpt><trkpt lat="43.67000529538744" lon="11.838475507835962"><ele>346.0</ele><time>2026-04-26T14:38:06.999Z</time></trkpt><trkpt lat="43.669798878621386" lon="11.838595141723822"><ele>346.0</ele><time>2026-04-26T14:38:07.999Z</time></trkpt><trkpt lat="43.669593548160805" lon="11.838712733072054"><ele>346.0</ele><time>2026-04-26T14:38:08.999Z</time></trkpt><trkpt lat="43.66938865522593" lon="11.838831868913655"><ele>346.0</ele><time>2026-04-26T14:38:09.999Z</time></trkpt><trkpt lat="43.66918492157505" lon="11.838955260945625"><ele>340.0</ele><time>2026-04-26T14:38:10.999Z</time></trkpt><trkpt lat="43.66897679349208" lon="11.839078653057184"><ele>334.0</ele><time>2026-04-26T14:38:11.999Z</time></trkpt><trkpt lat="43.668768309918356" lon="11.83920016798737"><ele>343.0</ele><time>2026-04-26T14:38:12.999Z</time></trkpt><trkpt lat="43.668558097449626" lon="11.839321601257016"><ele>352.0</ele><time>2026-04-26T14:38:13.999Z</time></trkpt><trkpt lat="43.66835185485363" lon="11.83945044413866"><ele>352.0</ele><time>2026-04-26T14:38:14.999Z</time></trkpt><trkpt lat="43.66815442032781" lon="11.83959125745908"><ele>352.0</ele><time>2026-04-26T14:38:15.999Z</time></trkpt><trkpt lat="43.6679637685568" lon="11.839743589125789"><ele>352.0</ele><time>2026-04-26T14:38:16.999Z</time></trkpt><trkpt lat="43.66778173056126" lon="11.839895774387474"><ele>356.66666666666663</ele><time>2026-04-26T14:38:17.999Z</time></trkpt><trkpt lat="43.667606723354645" lon="11.84004572809453"><ele>361.3333333333333</ele><time>2026-04-26T14:38:18.999Z</time></trkpt><trkpt lat="43.66743619431799" lon="11.840198092610962"><ele>366.0</ele><time>2026-04-26T14:38:19.999Z</time></trkpt><trkpt lat="43.66726266851673" lon="11.840335164653009"><ele>366.0</ele><time>2026-04-26T14:38:20.999Z</time></trkpt><trkpt lat="43.66707713858739" lon="11.840433086578733"><ele>366.0</ele><time>2026-04-26T14:38:21.999Z</time></trkpt><trkpt lat="43.66687884113664" lon="11.840488097258262"><ele>366.0</ele><time>2026-04-26T14:38:22.999Z</time></trkpt><trkpt lat="43.666674453962955" lon="11.840480100738311"><ele>362.0</ele><time>2026-04-26T14:38:23.999Z</time></trkpt><trkpt lat="43.666469969325" lon="11.84048518102963"><ele>358.0</ele><time>2026-04-26T14:38:24.999Z</time></trkpt><trkpt lat="43.66626575129259" lon="11.840456215345668"><ele>354.0</ele><time>2026-04-26T14:38:25.999Z</time></trkpt><trkpt lat="43.666060163259694" lon="11.840425604263974"><ele>352.6666666666667</ele><time>2026-04-26T14:38:26.999Z</time></trkpt><trkpt lat="43.66585905730228" lon="11.840406350170513"><ele>351.33333333333337</ele><time>2026-04-26T14:38:27.999Z</time></trkpt><trkpt lat="43.66567139217231" lon="11.840394723924264"><ele>350.0</ele><time>2026-04-26T14:38:28.999Z</time></trkpt><trkpt lat="43.66549531035154" lon="11.84040640031613"><ele>350.0</ele><time>2026-04-26T14:38:29.999Z</time></trkpt><trkpt lat="43.66532904672338" lon="11.84046163452282"><ele>350.0</ele><time>2026-04-26T14:38:30.999Z</time></trkpt><trkpt lat="43.66516462022039" lon="11.840571395950343"><ele>350.0</ele><time>2026-04-26T14:38:31.999Z</time></trkpt><trkpt lat="43.66500154435452" lon="11.840696563942451"><ele>346.33333333333337</ele><time>2026-04-26T14:38:32.999Z</time></trkpt><trkpt lat="43.66481956317529" lon="11.840761775342132"><ele>342.6666666666667</ele><time>2026-04-26T14:38:33.999Z</time></trkpt><trkpt lat="43.66461816710956" lon="11.840760878407334"><ele>339.0</ele><time>2026-04-26T14:38:34.999Z</time></trkpt><trkpt lat="43.66441084871153" lon="11.840732241789917"><ele>338.6666666666667</ele><time>2026-04-26T14:38:35.999Z</time></trkpt><trkpt lat="43.66419966215828" lon="11.840705399640736"><ele>338.33333333333337</ele><time>2026-04-26T14:38:36.999Z</time></trkpt><trkpt lat="43.663984638761484" lon="11.840682999637982"><ele>338.0</ele><time>2026-04-26T14:38:37.999Z</time></trkpt><trkpt lat="43.66376526004164" lon="11.840662121244668"><ele>336.33333333333337</ele><time>2026-04-26T14:38:38.999Z</time></trkpt><trkpt lat="43.66354585051707" lon="11.840640187138849"><ele>334.6666666666667</ele><time>2026-04-26T14:38:39.999Z</time></trkpt><trkpt lat="43.66332382480179" lon="11.840617307204608"><ele>333.0</ele><time>2026-04-26T14:38:40.999Z</time></trkpt><trkpt lat="43.66310147960192" lon="11.840593854174463"><ele>333.0</ele><time>2026-04-26T14:38:41.999Z</time></trkpt><trkpt lat="43.662877814151095" lon="11.840570142472945"><ele>333.0</ele><time>2026-04-26T14:38:42.999Z</time></trkpt><trkpt lat="43.662654660462906" lon="11.840551204850438"><ele>333.0</ele><time>2026-04-26T14:38:43.999Z</time></trkpt><trkpt lat="43.662436005059874" lon="11.840532855061493"><ele>333.3333333333333</ele><time>2026-04-26T14:38:44.999Z</time></trkpt><trkpt lat="43.6622185053491" lon="11.840500522161774"><ele>333.66666666666663</ele><time>2026-04-26T14:38:45.999Z</time></trkpt><trkpt lat="43.662004918602676" lon="11.840451976458116"><ele>334.0</ele><time>2026-04-26T14:38:46.999Z</time></trkpt><trkpt lat="43.66179594333738" lon="11.840386495003825"><ele>333.0</ele><time>2026-04-26T14:38:47.999Z</time></trkpt><trkpt lat="43.66159752322114" lon="11.840301707542128"><ele>332.0</ele><time>2026-04-26T14:38:48.999Z</time></trkpt><trkpt lat="43.661407999087594" lon="11.840199049848062"><ele>331.0</ele><time>2026-04-26T14:38:49.999Z</time></trkpt><trkpt lat="43.66122343125998" lon="11.840083875649503"><ele>325.0</ele><time>2026-04-26T14:38:50.999Z</time></trkpt><trkpt lat="43.66104404205949" lon="11.83995490474518"><ele>319.0</ele><time>2026-04-26T14:38:51.999Z</time></trkpt><trkpt lat="43.66086719070905" lon="11.839817992640363"><ele>313.0</ele><time>2026-04-26T14:38:52.999Z</time></trkpt><trkpt lat="43.66069104245997" lon="11.839682547831778"><ele>313.0</ele><time>2026-04-26T14:38:53.999Z</time></trkpt><trkpt lat="43.66051293690581" lon="11.839565957649997"><ele>313.0</ele><time>2026-04-26T14:38:54.999Z</time></trkpt><trkpt lat="43.66033006114708" lon="11.839475085915437"><ele>313.0</ele><time>2026-04-26T14:38:55.999Z</time></trkpt><trkpt lat="43.660142595898" lon="11.839405557920523"><ele>315.66666666666663</ele><time>2026-04-26T14:38:56.999Z</time></trkpt><trkpt lat="43.65995227736895" lon="11.83935473559903"><ele>318.3333333333333</ele><time>2026-04-26T14:38:57.999Z</time></trkpt><trkpt lat="43.659762284261134" lon="11.839317930346887"><ele>321.0</ele><time>2026-04-26T14:38:58.999Z</time></trkpt><trkpt lat="43.65956864728129" lon="11.839301500215825"><ele>321.3333333333333</ele><time>2026-04-26T14:38:59.999Z</time></trkpt><trkpt lat="43.65937303845809" lon="11.83930093747133"><ele>321.66666666666663</ele><time>2026-04-26T14:39:00.999Z</time></trkpt><trkpt lat="43.65917876287863" lon="11.839319695149127"><ele>322.0</ele><time>2026-04-26T14:39:01.999Z</time></trkpt><trkpt lat="43.658995188387074" lon="11.8393519841041"><ele>322.0</ele><time>2026-04-26T14:39:02.999Z</time></trkpt><trkpt lat="43.658827666820876" lon="11.839388290008811"><ele>322.0</ele><time>2026-04-26T14:39:03.999Z</time></trkpt><trkpt lat="43.65866304748575" lon="11.839410888031978"><ele>322.0</ele><time>2026-04-26T14:39:04.999Z</time></trkpt><trkpt lat="43.65850404193528" lon="11.839426931281526"><ele>321.5</ele><time>2026-04-26T14:39:05.999Z</time></trkpt><trkpt lat="43.65835121879031" lon="11.839407004493383"><ele>321.0</ele><time>2026-04-26T14:39:06.999Z</time></trkpt><trkpt lat="43.658204797062645" lon="11.839396544458634"><ele>320.5</ele><time>2026-04-26T14:39:07.999Z</time></trkpt><trkpt lat="43.65806729634759" lon="11.839375802213594"><ele>320.0</ele><time>2026-04-26T14:39:08.999Z</time></trkpt><trkpt lat="43.65793693902153" lon="11.839350640855718"><ele>320.0</ele><time>2026-04-26T14:39:09.999Z</time></trkpt><trkpt lat="43.657816670253766" lon="11.83932693515428"><ele>320.0</ele><time>2026-04-26T14:39:10.999Z</time></trkpt><trkpt lat="43.65770871419636" lon="11.839327276729117"><ele>320.0</ele><time>2026-04-26T14:39:11.999Z</time></trkpt><trkpt lat="43.657607345935546" lon="11.839303369125002"><ele>320.0</ele><time>2026-04-26T14:39:12.999Z</time></trkpt><trkpt lat="43.65750816461618" lon="11.839281981863355"><ele>320.0</ele><time>2026-04-26T14:39:13.999Z</time></trkpt><trkpt lat="43.657409237033136" lon="11.839264361328109"><ele>318.0</ele><time>2026-04-26T14:39:14.999Z</time></trkpt><trkpt lat="43.657308313575" lon="11.839244938252984"><ele>316.0</ele><time>2026-04-26T14:39:15.999Z</time></trkpt><trkpt lat="43.65720889583327" lon="11.83922548084271"><ele>314.0</ele><time>2026-04-26T14:39:16.999Z</time></trkpt><trkpt lat="43.65710592064747" lon="11.839207213042041"><ele>312.0</ele><time>2026-04-26T14:39:17.999Z</time></trkpt><trkpt lat="43.65699877419711" lon="11.839185488476195"><ele>310.0</ele><time>2026-04-26T14:39:18.999Z</time></trkpt><trkpt lat="43.656866993705584" lon="11.839135372679296"><ele>310.0</ele><time>2026-04-26T14:39:19.999Z</time></trkpt><trkpt lat="43.65676998898033" lon="11.83911454984862"><ele>310.0</ele><time>2026-04-26T14:39:20.999Z</time></trkpt><trkpt lat="43.656647189445444" lon="11.83910224523915"><ele>310.0</ele><time>2026-04-26T14:39:21.999Z</time></trkpt><trkpt lat="43.65652136805276" lon="11.839056542609866"><ele>310.0</ele><time>2026-04-26T14:39:22.999Z</time></trkpt><trkpt lat="43.65639459341483" lon="11.8389887072699"><ele>310.0</ele><time>2026-04-26T14:39:23.999Z</time></trkpt><trkpt lat="43.65627184089803" lon="11.838892722042207"><ele>310.0</ele><time>2026-04-26T14:39:24.999Z</time></trkpt><trkpt lat="43.6561450525193" lon="11.838811404205426"><ele>310.0</ele><time>2026-04-26T14:39:25.999Z</time></trkpt><trkpt lat="43.656018827991204" lon="11.838728406925249"><ele>310.0</ele><time>2026-04-26T14:39:26.999Z</time></trkpt><trkpt lat="43.655893333466" lon="11.838645889539752"><ele>310.25</ele><time>2026-04-26T14:39:27.999Z</time></trkpt><trkpt lat="43.655775099422975" lon="11.838568146396836"><ele>310.5</ele><time>2026-04-26T14:39:28.999Z</time></trkpt><trkpt lat="43.6556565782395" lon="11.83848929643529"><ele>310.75</ele><time>2026-04-26T14:39:29.999Z</time></trkpt><trkpt lat="43.655536987777914" lon="11.838434135400693"><ele>311.0</ele><time>2026-04-26T14:39:30.999Z</time></trkpt><trkpt lat="43.65544084493461" lon="11.838344703272089"><ele>309.5</ele><time>2026-04-26T14:39:31.999Z</time></trkpt><trkpt lat="43.65533271383405" lon="11.838225576385632"><ele>308.0</ele><time>2026-04-26T14:39:32.999Z</time></trkpt><trkpt lat="43.65523221276091" lon="11.838135365603753"><ele>306.5</ele><time>2026-04-26T14:39:33.999Z</time></trkpt><trkpt lat="43.65513845258003" lon="11.838027390559876"><ele>305.0</ele><time>2026-04-26T14:39:34.999Z</time></trkpt><trkpt lat="43.655005839998225" lon="11.838067819098365"><ele>305.0</ele><time>2026-04-26T14:39:35.999Z</time></trkpt><trkpt lat="43.65490329826182" lon="11.838003510432971"><ele>305.0</ele><time>2026-04-26T14:39:36.999Z</time></trkpt><trkpt lat="43.6548057035662" lon="11.837927191616881"><ele>305.0</ele><time>2026-04-26T14:39:37.999Z</time></trkpt><trkpt lat="43.654717805027985" lon="11.83786155922407"><ele>305.0</ele><time>2026-04-26T14:39:38.999Z</time></trkpt><trkpt lat="43.65464523765067" lon="11.837804701522991"><ele>305.0</ele><time>2026-04-26T14:39:39.999Z</time></trkpt><trkpt lat="43.65457634020965" lon="11.83774673263922"><ele>305.0</ele><time>2026-04-26T14:39:40.999Z</time></trkpt><trkpt lat="43.65450744442564" lon="11.837683620322993"><ele>305.0</ele><time>2026-04-26T14:39:41.999Z</time></trkpt><trkpt lat="43.65443968492246" lon="11.837592939739299"><ele>305.0</ele><time>2026-04-26T14:39:42.999Z</time></trkpt><trkpt lat="43.654354813315244" lon="11.837511888543835"><ele>305.0</ele><time>2026-04-26T14:39:43.999Z</time></trkpt><trkpt lat="43.65426041817252" lon="11.837445531458979"><ele>305.0</ele><time>2026-04-26T14:39:44.999Z</time></trkpt><trkpt lat="43.654167653154296" lon="11.837355796122266"><ele>305.0</ele><time>2026-04-26T14:39:45.999Z</time></trkpt><trkpt lat="43.65407728563084" lon="11.837260880645884"><ele>305.0</ele><time>2026-04-26T14:39:46.999Z</time></trkpt><trkpt lat="43.653982238211846" lon="11.837176152380724"><ele>305.0</ele><time>2026-04-26T14:39:47.999Z</time></trkpt><trkpt lat="43.653887003246574" lon="11.837084510443347"><ele>305.0</ele><time>2026-04-26T14:39:48.999Z</time></trkpt><trkpt lat="43.65378624370546" lon="11.836991783372667"><ele>305.0</ele><time>2026-04-26T14:39:49.999Z</time></trkpt><trkpt lat="43.65368811418056" lon="11.836893025855638"><ele>305.0</ele><time>2026-04-26T14:39:50.999Z</time></trkpt><trkpt lat="43.653589677482046" lon="11.83679465668518"><ele>305.0</ele><time>2026-04-26T14:39:51.999Z</time></trkpt><trkpt lat="43.65349588626805" lon="11.83670669155109"><ele>305.0</ele><time>2026-04-26T14:39:52.999Z</time></trkpt><trkpt lat="43.653396381239105" lon="11.836615820803358"><ele>305.0</ele><time>2026-04-26T14:39:53.999Z</time></trkpt><trkpt lat="43.65330157571935" lon="11.8365259521319"><ele>305.0</ele><time>2026-04-26T14:39:54.999Z</time></trkpt><trkpt lat="43.65319899210511" lon="11.836426076295743"><ele>305.0</ele><time>2026-04-26T14:39:55.999Z</time></trkpt><trkpt lat="43.65309346689772" lon="11.836325949173117"><ele>305.0</ele><time>2026-04-26T14:39:56.999Z</time></trkpt><trkpt lat="43.6529867238952" lon="11.836224444703616"><ele>305.0</ele><time>2026-04-26T14:39:57.999Z</time></trkpt><trkpt lat="43.65288672556492" lon="11.836128741448192"><ele>305.0</ele><time>2026-04-26T14:39:58.999Z</time></trkpt><trkpt lat="43.65278613526978" lon="11.836037441425416"><ele>305.0</ele><time>2026-04-26T14:39:59.999Z</time></trkpt><trkpt lat="43.6526900884575" lon="11.835951925148212"><ele>305.0</ele><time>2026-04-26T14:40:00.999Z</time></trkpt><trkpt lat="43.65259445584902" lon="11.83587872322389"><ele>305.5</ele><time>2026-04-26T14:40:01.999Z</time></trkpt><trkpt lat="43.65250230276033" lon="11.835814606200495"><ele>306.0</ele><time>2026-04-26T14:40:02.999Z</time></trkpt><trkpt lat="43.65241655426414" lon="11.835760573406054"><ele>306.5</ele><time>2026-04-26T14:40:03.999Z</time></trkpt><trkpt lat="43.65233619437007" lon="11.835713404729164"><ele>307.0</ele><time>2026-04-26T14:40:04.999Z</time></trkpt><trkpt lat="43.652259929033896" lon="11.835673923218147"><ele>307.5</ele><time>2026-04-26T14:40:05.999Z</time></trkpt><trkpt lat="43.65218944031098" lon="11.835644980042774"><ele>308.0</ele><time>2026-04-26T14:40:06.999Z</time></trkpt><trkpt lat="43.652126021558736" lon="11.835616060243515"><ele>308.0</ele><time>2026-04-26T14:40:07.999Z</time></trkpt><trkpt lat="43.65201293714692" lon="11.835559537836923"><ele>308.0</ele><time>2026-04-26T14:40:09.999Z</time></trkpt><trkpt lat="43.65192216171331" lon="11.835513712028195"><ele>308.0</ele><time>2026-04-26T14:40:11.999Z</time></trkpt><trkpt lat="43.651840841443864" lon="11.835449732656302"><ele>308.0</ele><time>2026-04-26T14:40:13.999Z</time></trkpt><trkpt lat="43.651773696629874" lon="11.835419157455862"><ele>308.0</ele><time>2026-04-26T14:40:14.999Z</time></trkpt><trkpt lat="43.6516727266653" lon="11.83538558711984"><ele>307.5</ele><time>2026-04-26T14:40:15.999Z</time></trkpt><trkpt lat="43.65155934354028" lon="11.835343672004303"><ele>307.0</ele><time>2026-04-26T14:40:16.999Z</time></trkpt><trkpt lat="43.65143973573128" lon="11.835289784112648"><ele>306.5</ele><time>2026-04-26T14:40:17.999Z</time></trkpt><trkpt lat="43.65131616841684" lon="11.835228601003337"><ele>306.0</ele><time>2026-04-26T14:40:18.999Z</time></trkpt><trkpt lat="43.65119474732117" lon="11.835168144029312"><ele>305.25</ele><time>2026-04-26T14:40:19.999Z</time></trkpt><trkpt lat="43.65107655865399" lon="11.835120025366916"><ele>304.5</ele><time>2026-04-26T14:40:20.999Z</time></trkpt><trkpt lat="43.650962664988725" lon="11.835067702711788"><ele>303.75</ele><time>2026-04-26T14:40:21.999Z</time></trkpt><trkpt lat="43.650851771024946" lon="11.835019734766586"><ele>303.0</ele><time>2026-04-26T14:40:22.999Z</time></trkpt><trkpt lat="43.65073771763078" lon="11.834970499576228"><ele>303.0</ele><time>2026-04-26T14:40:23.999Z</time></trkpt><trkpt lat="43.65062347132002" lon="11.8349175185119"><ele>303.0</ele><time>2026-04-26T14:40:24.999Z</time></trkpt><trkpt lat="43.65051200655513" lon="11.83486969256032"><ele>303.0</ele><time>2026-04-26T14:40:25.999Z</time></trkpt><trkpt lat="43.6504017876952" lon="11.83482102133047"><ele>303.0</ele><time>2026-04-26T14:40:26.999Z</time></trkpt><trkpt lat="43.65028575580937" lon="11.834767304437305"><ele>303.25</ele><time>2026-04-26T14:40:27.999Z</time></trkpt><trkpt lat="43.65016627251271" lon="11.834719240197762"><ele>303.5</ele><time>2026-04-26T14:40:28.999Z</time></trkpt><trkpt lat="43.6500342620948" lon="11.834682948304732"><ele>303.75</ele><time>2026-04-26T14:40:29.999Z</time></trkpt><trkpt lat="43.649897183258766" lon="11.83466653932291"><ele>304.0</ele><time>2026-04-26T14:40:30.999Z</time></trkpt><trkpt lat="43.649751202957994" lon="11.834642016124231"><ele>304.0</ele><time>2026-04-26T14:40:31.999Z</time></trkpt><trkpt lat="43.6495842537282" lon="11.834649826038774"><ele>304.0</ele><time>2026-04-26T14:40:32.999Z</time></trkpt><trkpt lat="43.64940844834837" lon="11.834664668340936"><ele>304.0</ele><time>2026-04-26T14:40:33.999Z</time></trkpt><trkpt lat="43.64924062676514" lon="11.834680807305622"><ele>304.0</ele><time>2026-04-26T14:40:34.999Z</time></trkpt><trkpt lat="43.64906916305928" lon="11.834699707595643"><ele>304.0</ele><time>2026-04-26T14:40:35.999Z</time></trkpt><trkpt lat="43.64889490988436" lon="11.834720477157662"><ele>304.0</ele><time>2026-04-26T14:40:36.999Z</time></trkpt><trkpt lat="43.648722081466865" lon="11.83474219497983"><ele>304.0</ele><time>2026-04-26T14:40:37.999Z</time></trkpt><trkpt lat="43.64855522218296" lon="11.834784955112971"><ele>304.0</ele><time>2026-04-26T14:40:38.999Z</time></trkpt><trkpt lat="43.64839124500828" lon="11.834799499363763"><ele>304.0</ele><time>2026-04-26T14:40:39.999Z</time></trkpt><trkpt lat="43.648228853167915" lon="11.834820531487843"><ele>304.0</ele><time>2026-04-26T14:40:40.999Z</time></trkpt><trkpt lat="43.64806710624625" lon="11.834838881226416"><ele>304.0</ele><time>2026-04-26T14:40:42Z</time></trkpt><trkpt lat="43.64790678128261" lon="11.834854048224916"><ele>304.0</ele><time>2026-04-26T14:40:43Z</time></trkpt><trkpt lat="43.64774802312614" lon="11.834870226696887"><ele>303.3333333333333</ele><time>2026-04-26T14:40:44Z</time></trkpt><trkpt lat="43.64759120292732" lon="11.83486456011436"><ele>302.6666666666667</ele><time>2026-04-26T14:40:45Z</time></trkpt><trkpt lat="43.64743578480771" lon="11.834879219312409"><ele>302.0</ele><time>2026-04-26T14:40:46Z</time></trkpt><trkpt lat="43.64728061921643" lon="11.834893854696093"><ele>302.0</ele><time>2026-04-26T14:40:47Z</time></trkpt><trkpt lat="43.6471274462833" lon="11.83490830213024"><ele>302.0</ele><time>2026-04-26T14:40:48Z</time></trkpt><trkpt lat="43.64697188623229" lon="11.834931621721111"><ele>302.0</ele><time>2026-04-26T14:40:48.999Z</time></trkpt><trkpt lat="43.64682591234137" lon="11.834936332415932"><ele>301.5</ele><time>2026-04-26T14:40:49.999Z</time></trkpt><trkpt lat="43.646683499667795" lon="11.834949362821185"><ele>301.0</ele><time>2026-04-26T14:40:50.999Z</time></trkpt><trkpt lat="43.64655140800786" lon="11.834961448869858"><ele>300.5</ele><time>2026-04-26T14:40:52Z</time></trkpt><trkpt lat="43.646418945032444" lon="11.834973568917043"><ele>300.0</ele><time>2026-04-26T14:40:53Z</time></trkpt><trkpt lat="43.646281888805966" lon="11.834985759488085"><ele>300.0</ele><time>2026-04-26T14:40:54Z</time></trkpt><trkpt lat="43.64614445865093" lon="11.834997926427851"><ele>300.0</ele><time>2026-04-26T14:40:55Z</time></trkpt><trkpt lat="43.64600981209647" lon="11.835009576696516"><ele>300.0</ele><time>2026-04-26T14:40:56Z</time></trkpt><trkpt lat="43.64588206790601" lon="11.835020410905349"><ele>300.0</ele><time>2026-04-26T14:40:57Z</time></trkpt><trkpt lat="43.6457580757386" lon="11.835030926867908"><ele>301.0</ele><time>2026-04-26T14:40:58Z</time></trkpt><trkpt lat="43.64562748321481" lon="11.835042002856094"><ele>302.0</ele><time>2026-04-26T14:40:59Z</time></trkpt><trkpt lat="43.645499358142835" lon="11.835053037717623"><ele>303.0</ele><time>2026-04-26T14:41:00Z</time></trkpt><trkpt lat="43.64537133374796" lon="11.83506402143875"><ele>304.0</ele><time>2026-04-26T14:41:01Z</time></trkpt><trkpt lat="43.645248978495616" lon="11.835074518771647"><ele>304.0</ele><time>2026-04-26T14:41:02Z</time></trkpt><trkpt lat="43.64513523056191" lon="11.835084277658886"><ele>304.0</ele><time>2026-04-26T14:41:03Z</time></trkpt><trkpt lat="43.645022039534354" lon="11.83509398894223"><ele>304.0</ele><time>2026-04-26T14:41:04Z</time></trkpt><trkpt lat="43.64491818053749" lon="11.835103742654043"><ele>304.0</ele><time>2026-04-26T14:41:05Z</time></trkpt><trkpt lat="43.644804284399456" lon="11.83511318286454"><ele>304.0</ele><time>2026-04-26T14:41:06Z</time></trkpt><trkpt lat="43.64469732249187" lon="11.83512317019114"><ele>304.0</ele><time>2026-04-26T14:41:07Z</time></trkpt><trkpt lat="43.64458214287379" lon="11.83513392481216"><ele>304.0</ele><time>2026-04-26T14:41:08Z</time></trkpt><trkpt lat="43.64446462537387" lon="11.835145416824991"><ele>304.0</ele><time>2026-04-26T14:41:09Z</time></trkpt><trkpt lat="43.64434997314602" lon="11.835183359015149"><ele>304.0</ele><time>2026-04-26T14:41:10Z</time></trkpt><trkpt lat="43.64423331372342" lon="11.835179383798653"><ele>305.0</ele><time>2026-04-26T14:41:11Z</time></trkpt><trkpt lat="43.64411482816373" lon="11.835202456957473"><ele>306.0</ele><time>2026-04-26T14:41:12Z</time></trkpt><trkpt lat="43.64399474089534" lon="11.835239660530302"><ele>307.0</ele><time>2026-04-26T14:41:13Z</time></trkpt><trkpt lat="43.64387861304142" lon="11.835288597813904"><ele>308.0</ele><time>2026-04-26T14:41:14Z</time></trkpt><trkpt lat="43.64377029789137" lon="11.835369461996676"><ele>308.0</ele><time>2026-04-26T14:41:15Z</time></trkpt><trkpt lat="43.64365831022124" lon="11.835427111583424"><ele>308.0</ele><time>2026-04-26T14:41:16Z</time></trkpt><trkpt lat="43.64354470216713" lon="11.835489755988702"><ele>308.0</ele><time>2026-04-26T14:41:17Z</time></trkpt><trkpt lat="43.64342534905764" lon="11.835557076820317"><ele>308.0</ele><time>2026-04-26T14:41:18Z</time></trkpt><trkpt lat="43.643302555620195" lon="11.835628552468028"><ele>306.6666666666667</ele><time>2026-04-26T14:41:19Z</time></trkpt><trkpt lat="43.64317197858556" lon="11.83570523513557"><ele>305.3333333333333</ele><time>2026-04-26T14:41:20Z</time></trkpt><trkpt lat="43.6430282165228" lon="11.835765133951982"><ele>304.0</ele><time>2026-04-26T14:41:21Z</time></trkpt><trkpt lat="43.64287980534593" lon="11.83585064999516"><ele>304.3333333333333</ele><time>2026-04-26T14:41:22Z</time></trkpt><trkpt lat="43.64272214766984" lon="11.835947597668607"><ele>304.6666666666667</ele><time>2026-04-26T14:41:23Z</time></trkpt><trkpt lat="43.64256142098851" lon="11.836056174535258"><ele>305.0</ele><time>2026-04-26T14:41:24Z</time></trkpt><trkpt lat="43.6423948703115" lon="11.836178398381275"><ele>305.0</ele><time>2026-04-26T14:41:25Z</time></trkpt><trkpt lat="43.64222604469502" lon="11.836303325033194"><ele>305.0</ele><time>2026-04-26T14:41:26Z</time></trkpt><trkpt lat="43.642056477167394" lon="11.836427387737466"><ele>305.0</ele><time>2026-04-26T14:41:27Z</time></trkpt><trkpt lat="43.64189020571707" lon="11.836548391220951"><ele>305.33333333333337</ele><time>2026-04-26T14:41:28Z</time></trkpt><trkpt lat="43.64172793381674" lon="11.836666885310265"><ele>305.6666666666667</ele><time>2026-04-26T14:41:29Z</time></trkpt><trkpt lat="43.64157839166304" lon="11.836799192149472"><ele>306.0</ele><time>2026-04-26T14:41:30Z</time></trkpt><trkpt lat="43.64142067082623" lon="11.836904028171338"><ele>306.0</ele><time>2026-04-26T14:41:31Z</time></trkpt><trkpt lat="43.641264357878605" lon="11.837008784311244"><ele>306.0</ele><time>2026-04-26T14:41:32Z</time></trkpt><trkpt lat="43.6411133592068" lon="11.837107258304004"><ele>306.0</ele><time>2026-04-26T14:41:33Z</time></trkpt><trkpt lat="43.64096198342441" lon="11.837189993226318"><ele>304.6666666666667</ele><time>2026-04-26T14:41:34Z</time></trkpt><trkpt lat="43.64081399733159" lon="11.837265271775268"><ele>303.33333333333337</ele><time>2026-04-26T14:41:35Z</time></trkpt><trkpt lat="43.64067232344233" lon="11.837332779751216"><ele>302.0</ele><time>2026-04-26T14:41:36Z</time></trkpt><trkpt lat="43.64053502940174" lon="11.837393184770745"><ele>302.0</ele><time>2026-04-26T14:41:37Z</time></trkpt><trkpt lat="43.6404010211955" lon="11.837454729867922"><ele>302.0</ele><time>2026-04-26T14:41:38Z</time></trkpt><trkpt lat="43.64026849055417" lon="11.837513749575914"><ele>302.0</ele><time>2026-04-26T14:41:39Z</time></trkpt><trkpt lat="43.64013530870826" lon="11.837570172505718"><ele>302.0</ele><time>2026-04-26T14:41:40Z</time></trkpt><trkpt lat="43.63999800287166" lon="11.837634677952062"><ele>302.0</ele><time>2026-04-26T14:41:41Z</time></trkpt><trkpt lat="43.63985605058881" lon="11.837699500313363"><ele>302.0</ele><time>2026-04-26T14:41:42Z</time></trkpt><trkpt lat="43.639708350796425" lon="11.837765880946979"><ele>302.0</ele><time>2026-04-26T14:41:43Z</time></trkpt><trkpt lat="43.639557169560995" lon="11.837836966882461"><ele>301.33333333333337</ele><time>2026-04-26T14:41:44Z</time></trkpt><trkpt lat="43.63939851966138" lon="11.837909993159462"><ele>300.6666666666667</ele><time>2026-04-26T14:41:45Z</time></trkpt><trkpt lat="43.63923259737369" lon="11.837985647463364"><ele>300.0</ele><time>2026-04-26T14:41:46Z</time></trkpt><trkpt lat="43.63906494071724" lon="11.8380664939219"><ele>300.0</ele><time>2026-04-26T14:41:47Z</time></trkpt><trkpt lat="43.63888235595849" lon="11.838146272186728"><ele>300.0</ele><time>2026-04-26T14:41:48Z</time></trkpt><trkpt lat="43.638690285285186" lon="11.838236412007028"><ele>300.0</ele><time>2026-04-26T14:41:49Z</time></trkpt><trkpt lat="43.638489149625464" lon="11.838305731445299"><ele>299.5</ele><time>2026-04-26T14:41:50Z</time></trkpt><trkpt lat="43.638277812509315" lon="11.838401399376687"><ele>299.0</ele><time>2026-04-26T14:41:51Z</time></trkpt><trkpt lat="43.63805654810757" lon="11.838502107829225"><ele>302.5</ele><time>2026-04-26T14:41:52Z</time></trkpt><trkpt lat="43.63783241872443" lon="11.838605791072935"><ele>306.0</ele><time>2026-04-26T14:41:53Z</time></trkpt><trkpt lat="43.637614166700125" lon="11.838715518992085"><ele>306.0</ele><time>2026-04-26T14:41:54Z</time></trkpt><trkpt lat="43.63741006309667" lon="11.838844840589148"><ele>306.0</ele><time>2026-04-26T14:41:55Z</time></trkpt><trkpt lat="43.63720488159273" lon="11.838954820845814"><ele>306.0</ele><time>2026-04-26T14:41:56Z</time></trkpt><trkpt lat="43.63700324775182" lon="11.83906457129416"><ele>305.0</ele><time>2026-04-26T14:41:57Z</time></trkpt><trkpt lat="43.63680059854757" lon="11.83915467022614"><ele>304.0</ele><time>2026-04-26T14:41:58Z</time></trkpt><trkpt lat="43.63659500247162" lon="11.839220370769828"><ele>303.0</ele><time>2026-04-26T14:41:59Z</time></trkpt><trkpt lat="43.63638689663203" lon="11.839280304200958"><ele>306.6666666666667</ele><time>2026-04-26T14:42:00Z</time></trkpt><trkpt lat="43.63617808352295" lon="11.839341559032803"><ele>310.33333333333337</ele><time>2026-04-26T14:42:01Z</time></trkpt><trkpt lat="43.63597115043364" lon="11.839416483161413"><ele>314.0</ele><time>2026-04-26T14:42:02Z</time></trkpt><trkpt lat="43.63576770596428" lon="11.839518849839036"><ele>314.0</ele><time>2026-04-26T14:42:03Z</time></trkpt><trkpt lat="43.63556921251813" lon="11.839640151956642"><ele>314.0</ele><time>2026-04-26T14:42:04Z</time></trkpt><trkpt lat="43.6353801281543" lon="11.83978196622398"><ele>314.0</ele><time>2026-04-26T14:42:05Z</time></trkpt><trkpt lat="43.63520080476408" lon="11.839940899437728"><ele>314.0</ele><time>2026-04-26T14:42:06Z</time></trkpt><trkpt lat="43.635033490815765" lon="11.84012458012616"><ele>314.0</ele><time>2026-04-26T14:42:07Z</time></trkpt><trkpt lat="43.63487518595921" lon="11.840318274156914"><ele>314.0</ele><time>2026-04-26T14:42:08Z</time></trkpt><trkpt lat="43.63472920730343" lon="11.840519860874025"><ele>314.0</ele><time>2026-04-26T14:42:09Z</time></trkpt><trkpt lat="43.6345875809443" lon="11.840726585058935"><ele>314.0</ele><time>2026-04-26T14:42:10Z</time></trkpt><trkpt lat="43.63444674523816" lon="11.840928165877372"><ele>314.0</ele><time>2026-04-26T14:42:11Z</time></trkpt><trkpt lat="43.63430652343086" lon="11.84112692552948"><ele>312.0</ele><time>2026-04-26T14:42:12Z</time></trkpt><trkpt lat="43.63416828821764" lon="11.841323430586826"><ele>310.0</ele><time>2026-04-26T14:42:13Z</time></trkpt><trkpt lat="43.63403742535101" lon="11.841528318952887"><ele>308.0</ele><time>2026-04-26T14:42:14Z</time></trkpt><trkpt lat="43.63392882551517" lon="11.841758985513447"><ele>311.33333333333337</ele><time>2026-04-26T14:42:15Z</time></trkpt><trkpt lat="43.63384056187908" lon="11.842010495983143"><ele>314.6666666666667</ele><time>2026-04-26T14:42:16Z</time></trkpt><trkpt lat="43.633755988643166" lon="11.842271044783912"><ele>318.0</ele><time>2026-04-26T14:42:17Z</time></trkpt><trkpt lat="43.63366472646344" lon="11.84253196521832"><ele>311.3333333333333</ele><time>2026-04-26T14:42:18Z</time></trkpt><trkpt lat="43.63356583340003" lon="11.842791140267998"><ele>304.66666666666663</ele><time>2026-04-26T14:42:19Z</time></trkpt><trkpt lat="43.63346972397273" lon="11.843051372156188"><ele>298.0</ele><time>2026-04-26T14:42:20Z</time></trkpt><trkpt lat="43.63337543008333" lon="11.843317204768432"><ele>298.0</ele><time>2026-04-26T14:42:21Z</time></trkpt><trkpt lat="43.63327810419277" lon="11.84358271613634"><ele>298.0</ele><time>2026-04-26T14:42:22Z</time></trkpt><trkpt lat="43.633179224426144" lon="11.843852027245422"><ele>298.0</ele><time>2026-04-26T14:42:23Z</time></trkpt><trkpt lat="43.63308301191994" lon="11.844118683526323"><ele>299.3333333333333</ele><time>2026-04-26T14:42:24Z</time></trkpt><trkpt lat="43.632996286988934" lon="11.844386235680167"><ele>300.6666666666667</ele><time>2026-04-26T14:42:25Z</time></trkpt><trkpt lat="43.63293457961945" lon="11.844644089065199"><ele>302.0</ele><time>2026-04-26T14:42:26Z</time></trkpt><trkpt lat="43.6329063335124" lon="11.844902182129012"><ele>302.33333333333337</ele><time>2026-04-26T14:42:27Z</time></trkpt><trkpt lat="43.63290597630464" lon="11.845172268311417"><ele>302.6666666666667</ele><time>2026-04-26T14:42:28Z</time></trkpt><trkpt lat="43.63292616839245" lon="11.84545664872392"><ele>303.0</ele><time>2026-04-26T14:42:29Z</time></trkpt><trkpt lat="43.632965716874885" lon="11.845743483210308"><ele>302.6666666666667</ele><time>2026-04-26T14:42:30Z</time></trkpt><trkpt lat="43.63301529437376" lon="11.846036579887938"><ele>302.33333333333337</ele><time>2026-04-26T14:42:31Z</time></trkpt><trkpt lat="43.63306838006821" lon="11.846332084907408"><ele>302.0</ele><time>2026-04-26T14:42:32Z</time></trkpt><trkpt lat="43.63311713627769" lon="11.846631492853438"><ele>301.6666666666667</ele><time>2026-04-26T14:42:33Z</time></trkpt><trkpt lat="43.63316518625153" lon="11.84693580635183"><ele>301.3333333333333</ele><time>2026-04-26T14:42:34Z</time></trkpt><trkpt lat="43.63321317175603" lon="11.847235026127409"><ele>301.0</ele><time>2026-04-26T14:42:35Z</time></trkpt><trkpt lat="43.633263476470816" lon="11.84753405606699"><ele>300.0</ele><time>2026-04-26T14:42:36Z</time></trkpt><trkpt lat="43.63331220303049" lon="11.847849115074945"><ele>299.0</ele><time>2026-04-26T14:42:37Z</time></trkpt><trkpt lat="43.63335704141312" lon="11.848172367755758"><ele>297.5</ele><time>2026-04-26T14:42:38Z</time></trkpt><trkpt lat="43.633399184006905" lon="11.848500192334289"><ele>296.0</ele><time>2026-04-26T14:42:39Z</time></trkpt><trkpt lat="43.633439482544986" lon="11.848829433033764"><ele>296.0</ele><time>2026-04-26T14:42:40Z</time></trkpt><trkpt lat="43.6335072537963" lon="11.849121555121584"><ele>296.0</ele><time>2026-04-26T14:42:41Z</time></trkpt><trkpt lat="43.6335560253698" lon="11.849389175584943"><ele>296.0</ele><time>2026-04-26T14:42:42Z</time></trkpt><trkpt lat="43.63361310979029" lon="11.849678069904684"><ele>303.5</ele><time>2026-04-26T14:42:43Z</time></trkpt><trkpt lat="43.63366540437434" lon="11.849980937683307"><ele>311.0</ele><time>2026-04-26T14:42:44Z</time></trkpt><trkpt lat="43.63370724078826" lon="11.850289966650852"><ele>311.0</ele><time>2026-04-26T14:42:45Z</time></trkpt><trkpt lat="43.63373395389474" lon="11.850599871920654"><ele>311.0</ele><time>2026-04-26T14:42:46Z</time></trkpt><trkpt lat="43.63374870314726" lon="11.850915439764199"><ele>311.0</ele><time>2026-04-26T14:42:47Z</time></trkpt><trkpt lat="43.633743020043006" lon="11.851229303547823"><ele>311.0</ele><time>2026-04-26T14:42:48Z</time></trkpt><trkpt lat="43.633722780999385" lon="11.851546459175403"><ele>313.0</ele><time>2026-04-26T14:42:49Z</time></trkpt><trkpt lat="43.633670729268125" lon="11.851855366015071"><ele>315.0</ele><time>2026-04-26T14:42:50Z</time></trkpt><trkpt lat="43.63361462146224" lon="11.852158896306573"><ele>309.5</ele><time>2026-04-26T14:42:51Z</time></trkpt><trkpt lat="43.6335445068662" lon="11.852460383455451"><ele>304.0</ele><time>2026-04-26T14:42:52Z</time></trkpt><trkpt lat="43.63345557416779" lon="11.85275067047421"><ele>304.0</ele><time>2026-04-26T14:42:53Z</time></trkpt><trkpt lat="43.63336253227865" lon="11.853041840359985"><ele>304.0</ele><time>2026-04-26T14:42:54Z</time></trkpt><trkpt lat="43.63323925040883" lon="11.853312035760428"><ele>309.5</ele><time>2026-04-26T14:42:55Z</time></trkpt><trkpt lat="43.63309992280615" lon="11.853569238316387"><ele>315.0</ele><time>2026-04-26T14:42:56Z</time></trkpt><trkpt lat="43.63294936962567" lon="11.853808551901672"><ele>308.0</ele><time>2026-04-26T14:42:57Z</time></trkpt><trkpt lat="43.63279057999664" lon="11.85403231634385"><ele>301.0</ele><time>2026-04-26T14:42:58Z</time></trkpt><trkpt lat="43.63261831590156" lon="11.854248413393812"><ele>303.5</ele><time>2026-04-26T14:42:59Z</time></trkpt><trkpt lat="43.63243574839888" lon="11.854444069102366"><ele>306.0</ele><time>2026-04-26T14:43:00Z</time></trkpt><trkpt lat="43.6322415871804" lon="11.85461634740775"><ele>306.0</ele><time>2026-04-26T14:43:01Z</time></trkpt><trkpt lat="43.63204054159211" lon="11.854768316748732"><ele>306.0</ele><time>2026-04-26T14:43:02Z</time></trkpt><trkpt lat="43.63183307620082" lon="11.854898779511586"><ele>302.0</ele><time>2026-04-26T14:43:03Z</time></trkpt><trkpt lat="43.63161911183511" lon="11.855004946018358"><ele>298.0</ele><time>2026-04-26T14:43:04Z</time></trkpt><trkpt lat="43.63140151406098" lon="11.855091680149146"><ele>303.3333333333333</ele><time>2026-04-26T14:43:05Z</time></trkpt><trkpt lat="43.631181498178286" lon="11.85515984525071"><ele>308.6666666666667</ele><time>2026-04-26T14:43:05.999Z</time></trkpt><trkpt lat="43.63096216712139" lon="11.855209872735836"><ele>314.0</ele><time>2026-04-26T14:43:06.999Z</time></trkpt><trkpt lat="43.63074076970056" lon="11.85525230627847"><ele>314.0</ele><time>2026-04-26T14:43:07.999Z</time></trkpt><trkpt lat="43.63052151617327" lon="11.855297444673033"><ele>314.0</ele><time>2026-04-26T14:43:08.999Z</time></trkpt><trkpt lat="43.63030312653501" lon="11.855345989638181"><ele>314.0</ele><time>2026-04-26T14:43:09.999Z</time></trkpt><trkpt lat="43.63008482884297" lon="11.85537714612872"><ele>315.33333333333337</ele><time>2026-04-26T14:43:10.999Z</time></trkpt><trkpt lat="43.62986592549795" lon="11.855373269231148"><ele>316.6666666666667</ele><time>2026-04-26T14:43:11.999Z</time></trkpt><trkpt lat="43.629647826677015" lon="11.855318229412426"><ele>318.0</ele><time>2026-04-26T14:43:12.999Z</time></trkpt><trkpt lat="43.629433788005315" lon="11.855246473064557"><ele>318.0</ele><time>2026-04-26T14:43:13.999Z</time></trkpt><trkpt lat="43.62922065007589" lon="11.855169133831472"><ele>318.0</ele><time>2026-04-26T14:43:14.999Z</time></trkpt><trkpt lat="43.62900979586447" lon="11.855090947048565"><ele>318.0</ele><time>2026-04-26T14:43:15.999Z</time></trkpt><trkpt lat="43.62880904422772" lon="11.855009581558365"><ele>313.0</ele><time>2026-04-26T14:43:16.999Z</time></trkpt><trkpt lat="43.62863658436961" lon="11.854879892332471"><ele>308.0</ele><time>2026-04-26T14:43:17.999Z</time></trkpt><trkpt lat="43.62847718476784" lon="11.85471043021514"><ele>303.0</ele><time>2026-04-26T14:43:18.999Z</time></trkpt><trkpt lat="43.62832732591175" lon="11.854504691053148"><ele>300.3333333333333</ele><time>2026-04-26T14:43:19.999Z</time></trkpt><trkpt lat="43.628176295030336" lon="11.854281653183818"><ele>297.66666666666663</ele><time>2026-04-26T14:43:20.999Z</time></trkpt><trkpt lat="43.62802392146788" lon="11.854060579592963"><ele>295.0</ele><time>2026-04-26T14:43:21.999Z</time></trkpt><trkpt lat="43.62787141737089" lon="11.853839941531996"><ele>295.66666666666663</ele><time>2026-04-26T14:43:22.999Z</time></trkpt><trkpt lat="43.62770430185378" lon="11.853636946538742"><ele>296.3333333333333</ele><time>2026-04-26T14:43:23.999Z</time></trkpt><trkpt lat="43.62755253291058" lon="11.853416062998363"><ele>297.0</ele><time>2026-04-26T14:43:24.999Z</time></trkpt><trkpt lat="43.62740005638067" lon="11.853197603598149"><ele>297.0</ele><time>2026-04-26T14:43:25.999Z</time></trkpt><trkpt lat="43.627241093141166" lon="11.852995077762676"><ele>297.0</ele><time>2026-04-26T14:43:26.999Z</time></trkpt><trkpt lat="43.62708381328744" lon="11.852787055268937"><ele>297.0</ele><time>2026-04-26T14:43:27.999Z</time></trkpt><trkpt lat="43.626900098602526" lon="11.852616490008222"><ele>298.0</ele><time>2026-04-26T14:43:28.999Z</time></trkpt><trkpt lat="43.62670373883682" lon="11.85246228252911"><ele>299.0</ele><time>2026-04-26T14:43:29.999Z</time></trkpt><trkpt lat="43.62649048079026" lon="11.852343420631772"><ele>299.0</ele><time>2026-04-26T14:43:30.999Z</time></trkpt><trkpt lat="43.62628385546523" lon="11.852199329025034"><ele>299.0</ele><time>2026-04-26T14:43:31.999Z</time></trkpt><trkpt lat="43.62606273203468" lon="11.852091610572714"><ele>305.5</ele><time>2026-04-26T14:43:32.999Z</time></trkpt><trkpt lat="43.62584051881956" lon="11.851986907435105"><ele>312.0</ele><time>2026-04-26T14:43:33.999Z</time></trkpt><trkpt lat="43.62561754712133" lon="11.851882037731695"><ele>304.5</ele><time>2026-04-26T14:43:34.999Z</time></trkpt><trkpt lat="43.62538656780947" lon="11.8517646418889"><ele>297.0</ele><time>2026-04-26T14:43:35.999Z</time></trkpt><trkpt lat="43.625166028648174" lon="11.85161155785515"><ele>297.0</ele><time>2026-04-26T14:43:36.999Z</time></trkpt><trkpt lat="43.62494892743812" lon="11.851583291512759"><ele>297.0</ele><time>2026-04-26T14:43:37.999Z</time></trkpt><trkpt lat="43.62472705616565" lon="11.851489015128026"><ele>297.0</ele><time>2026-04-26T14:43:38.999Z</time></trkpt><trkpt lat="43.62450286855864" lon="11.851435612278777"><ele>297.0</ele><time>2026-04-26T14:43:39.999Z</time></trkpt><trkpt lat="43.6242748202783" lon="11.85138276700329"><ele>298.5</ele><time>2026-04-26T14:43:40.999Z</time></trkpt><trkpt lat="43.624044724894496" lon="11.851351362092256"><ele>300.0</ele><time>2026-04-26T14:43:41.999Z</time></trkpt><trkpt lat="43.62381493882219" lon="11.851341871851384"><ele>298.5</ele><time>2026-04-26T14:43:42.999Z</time></trkpt><trkpt lat="43.62358819068474" lon="11.851335219859564"><ele>297.0</ele><time>2026-04-26T14:43:43.999Z</time></trkpt><trkpt lat="43.62335921336447" lon="11.851344894934213"><ele>297.0</ele><time>2026-04-26T14:43:44.999Z</time></trkpt><trkpt lat="43.623131143024196" lon="11.851376165336148"><ele>297.0</ele><time>2026-04-26T14:43:45.999Z</time></trkpt><trkpt lat="43.6229061108376" lon="11.851435722100483"><ele>295.0</ele><time>2026-04-26T14:43:46.999Z</time></trkpt><trkpt lat="43.62268565066266" lon="11.851509949448218"><ele>293.0</ele><time>2026-04-26T14:43:47.999Z</time></trkpt><trkpt lat="43.62246853823865" lon="11.851608357825384"><ele>293.0</ele><time>2026-04-26T14:43:48.999Z</time></trkpt><trkpt lat="43.62225800396159" lon="11.85172698998041"><ele>293.0</ele><time>2026-04-26T14:43:49.999Z</time></trkpt><trkpt lat="43.622051675117525" lon="11.851864335937265"><ele>291.5</ele><time>2026-04-26T14:43:50.999Z</time></trkpt><trkpt lat="43.62185028897199" lon="11.852022227773398"><ele>290.0</ele><time>2026-04-26T14:43:51.999Z</time></trkpt><trkpt lat="43.62165719025525" lon="11.852194980976673"><ele>290.0</ele><time>2026-04-26T14:43:52.999Z</time></trkpt><trkpt lat="43.62147180809909" lon="11.852387342781624"><ele>290.0</ele><time>2026-04-26T14:43:53.999Z</time></trkpt><trkpt lat="43.62129230289254" lon="11.85259338528655"><ele>288.5</ele><time>2026-04-26T14:43:54.999Z</time></trkpt><trkpt lat="43.62112400275852" lon="11.85281831279637"><ele>287.0</ele><time>2026-04-26T14:43:55.999Z</time></trkpt><trkpt lat="43.62096534464343" lon="11.853058873279783"><ele>287.0</ele><time>2026-04-26T14:43:56.999Z</time></trkpt><trkpt lat="43.620817949138576" lon="11.853308984253927"><ele>287.0</ele><time>2026-04-26T14:43:57.999Z</time></trkpt><trkpt lat="43.62067750384491" lon="11.853568991163156"><ele>288.0</ele><time>2026-04-26T14:43:58.999Z</time></trkpt><trkpt lat="43.62055555333058" lon="11.853864953441251"><ele>289.0</ele><time>2026-04-26T14:43:59.999Z</time></trkpt><trkpt lat="43.620422676149076" lon="11.854129060962672"><ele>288.0</ele><time>2026-04-26T14:44:00.999Z</time></trkpt><trkpt lat="43.62028800198695" lon="11.854386663197593"><ele>287.0</ele><time>2026-04-26T14:44:01.999Z</time></trkpt><trkpt lat="43.6201448383874" lon="11.854619891445175"><ele>287.0</ele><time>2026-04-26T14:44:02.999Z</time></trkpt><trkpt lat="43.620013660064814" lon="11.854924114136468"><ele>287.0</ele><time>2026-04-26T14:44:03.999Z</time></trkpt><trkpt lat="43.619882587943195" lon="11.855193481611545"><ele>289.5</ele><time>2026-04-26T14:44:04.999Z</time></trkpt><trkpt lat="43.61974814022382" lon="11.855457902269091"><ele>292.0</ele><time>2026-04-26T14:44:05.999Z</time></trkpt><trkpt lat="43.61961261999551" lon="11.855723606414767"><ele>289.5</ele><time>2026-04-26T14:44:06.999Z</time></trkpt><trkpt lat="43.61948218717448" lon="11.855978152077235"><ele>287.0</ele><time>2026-04-26T14:44:07.999Z</time></trkpt><trkpt lat="43.619352307591235" lon="11.856247381300843"><ele>287.0</ele><time>2026-04-26T14:44:08.999Z</time></trkpt><trkpt lat="43.619221959706834" lon="11.856520604435504"><ele>287.0</ele><time>2026-04-26T14:44:09.999Z</time></trkpt><trkpt lat="43.61909090243433" lon="11.85678192245005"><ele>288.5</ele><time>2026-04-26T14:44:10.999Z</time></trkpt><trkpt lat="43.61896070233962" lon="11.857058040319338"><ele>290.0</ele><time>2026-04-26T14:44:11.999Z</time></trkpt><trkpt lat="43.61881681536223" lon="11.85731694686294"><ele>290.0</ele><time>2026-04-26T14:44:12.999Z</time></trkpt><trkpt lat="43.618685253125484" lon="11.857577472826762"><ele>290.0</ele><time>2026-04-26T14:44:13.999Z</time></trkpt><trkpt lat="43.618554108074335" lon="11.857838352374522"><ele>288.0</ele><time>2026-04-26T14:44:14.999Z</time></trkpt><trkpt lat="43.61842450626916" lon="11.85809979079549"><ele>286.0</ele><time>2026-04-26T14:44:15.999Z</time></trkpt><trkpt lat="43.618296382966896" lon="11.85835520882876"><ele>288.66666666666663</ele><time>2026-04-26T14:44:16.999Z</time></trkpt><trkpt lat="43.618173045570764" lon="11.85860257853643"><ele>291.3333333333333</ele><time>2026-04-26T14:44:17.999Z</time></trkpt><trkpt lat="43.61805277359626" lon="11.858845266345417"><ele>294.0</ele><time>2026-04-26T14:44:18.999Z</time></trkpt><trkpt lat="43.61793184460582" lon="11.859088231021444"><ele>292.0</ele><time>2026-04-26T14:44:19.999Z</time></trkpt><trkpt lat="43.61781259098265" lon="11.859325718007593"><ele>290.0</ele><time>2026-04-26T14:44:20.999Z</time></trkpt><trkpt lat="43.617697068781126" lon="11.859562233676275"><ele>288.0</ele><time>2026-04-26T14:44:21.999Z</time></trkpt><trkpt lat="43.61758377498778" lon="11.859795308221258"><ele>288.0</ele><time>2026-04-26T14:44:22.999Z</time></trkpt><trkpt lat="43.617474079470924" lon="11.860024006975475"><ele>288.0</ele><time>2026-04-26T14:44:23.999Z</time></trkpt><trkpt lat="43.61736589173234" lon="11.860251324722864"><ele>288.0</ele><time>2026-04-26T14:44:24.999Z</time></trkpt><trkpt lat="43.61725808714795" lon="11.86048071336473"><ele>288.0</ele><time>2026-04-26T14:44:25.999Z</time></trkpt><trkpt lat="43.61715124808005" lon="11.86071128251593"><ele>288.0</ele><time>2026-04-26T14:44:26.999Z</time></trkpt><trkpt lat="43.61704982207373" lon="11.860941352249181"><ele>288.0</ele><time>2026-04-26T14:44:27.999Z</time></trkpt><trkpt lat="43.61695214963411" lon="11.861164822266316"><ele>288.0</ele><time>2026-04-26T14:44:28.999Z</time></trkpt><trkpt lat="43.61685396068212" lon="11.861385299527587"><ele>288.0</ele><time>2026-04-26T14:44:29.999Z</time></trkpt><trkpt lat="43.61675915330778" lon="11.861603459647167"><ele>288.0</ele><time>2026-04-26T14:44:30.999Z</time></trkpt><trkpt lat="43.616667256503035" lon="11.861817344586454"><ele>290.6666666666667</ele><time>2026-04-26T14:44:31.999Z</time></trkpt><trkpt lat="43.616578570457264" lon="11.862026380768635"><ele>293.33333333333337</ele><time>2026-04-26T14:44:32.999Z</time></trkpt><trkpt lat="43.61649386492745" lon="11.862228219757698"><ele>296.0</ele><time>2026-04-26T14:44:33.999Z</time></trkpt><trkpt lat="43.61640193816024" lon="11.862426464525464"><ele>295.6666666666667</ele><time>2026-04-26T14:44:34.999Z</time></trkpt><trkpt lat="43.61632728323461" lon="11.862636198147209"><ele>295.3333333333333</ele><time>2026-04-26T14:44:35.999Z</time></trkpt><trkpt lat="43.61623741834671" lon="11.862830807580245"><ele>295.0</ele><time>2026-04-26T14:44:36.999Z</time></trkpt><trkpt lat="43.616147527488735" lon="11.863028772173823"><ele>295.0</ele><time>2026-04-26T14:44:37.999Z</time></trkpt><trkpt lat="43.6160567627794" lon="11.863217397322794"><ele>295.0</ele><time>2026-04-26T14:44:38.999Z</time></trkpt><trkpt lat="43.61595993793508" lon="11.863404182015799"><ele>295.0</ele><time>2026-04-26T14:44:39.999Z</time></trkpt><trkpt lat="43.61586345459537" lon="11.86359009054399"><ele>298.3333333333333</ele><time>2026-04-26T14:44:40.999Z</time></trkpt><trkpt lat="43.615752941692634" lon="11.863752202519562"><ele>301.6666666666667</ele><time>2026-04-26T14:44:41.999Z</time></trkpt><trkpt lat="43.61564194560188" lon="11.86391905707144"><ele>305.0</ele><time>2026-04-26T14:44:42.999Z</time></trkpt><trkpt lat="43.61552110989021" lon="11.86407516970643"><ele>305.0</ele><time>2026-04-26T14:44:43.999Z</time></trkpt><trkpt lat="43.615394769806265" lon="11.864223415767977"><ele>305.0</ele><time>2026-04-26T14:44:44.999Z</time></trkpt><trkpt lat="43.61526022614695" lon="11.86436059669533"><ele>305.0</ele><time>2026-04-26T14:44:45.999Z</time></trkpt><trkpt lat="43.61512242526201" lon="11.864487723476696"><ele>302.0</ele><time>2026-04-26T14:44:46.999Z</time></trkpt><trkpt lat="43.61497699042576" lon="11.864610251591527"><ele>299.0</ele><time>2026-04-26T14:44:47.999Z</time></trkpt><trkpt lat="43.61482545167738" lon="11.864722754785673"><ele>296.0</ele><time>2026-04-26T14:44:48.999Z</time></trkpt><trkpt lat="43.61466638774073" lon="11.86482162268731"><ele>296.0</ele><time>2026-04-26T14:44:49.999Z</time></trkpt><trkpt lat="43.614504351712675" lon="11.864909164670443"><ele>296.0</ele><time>2026-04-26T14:44:50.999Z</time></trkpt><trkpt lat="43.61433786951422" lon="11.86498559187101"><ele>296.0</ele><time>2026-04-26T14:44:51.999Z</time></trkpt><trkpt lat="43.61416669496979" lon="11.865049575594401"><ele>294.0</ele><time>2026-04-26T14:44:53Z</time></trkpt><trkpt lat="43.613994299265215" lon="11.865090624476357"><ele>292.0</ele><time>2026-04-26T14:44:54Z</time></trkpt><trkpt lat="43.61381339996997" lon="11.865076271579492"><ele>290.0</ele><time>2026-04-26T14:44:55Z</time></trkpt><trkpt lat="43.61363124053536" lon="11.865039854541878"><ele>292.0</ele><time>2026-04-26T14:44:56Z</time></trkpt><trkpt lat="43.61345591413746" lon="11.865188113139675"><ele>294.0</ele><time>2026-04-26T14:44:57Z</time></trkpt><trkpt lat="43.613270748403515" lon="11.86518151402736"><ele>296.0</ele><time>2026-04-26T14:44:58Z</time></trkpt><trkpt lat="43.613089344030236" lon="11.8651655656976"><ele>296.0</ele><time>2026-04-26T14:44:59Z</time></trkpt><trkpt lat="43.61290261092485" lon="11.865137953443737"><ele>296.0</ele><time>2026-04-26T14:45:00Z</time></trkpt><trkpt lat="43.61271192975524" lon="11.865114710555027"><ele>296.0</ele><time>2026-04-26T14:45:01Z</time></trkpt><trkpt lat="43.61251556780302" lon="11.865091107898694"><ele>293.33333333333337</ele><time>2026-04-26T14:45:02Z</time></trkpt><trkpt lat="43.61231443583633" lon="11.865065605199158"><ele>290.6666666666667</ele><time>2026-04-26T14:45:03Z</time></trkpt><trkpt lat="43.61211035503596" lon="11.865039380938073"><ele>288.0</ele><time>2026-04-26T14:45:04Z</time></trkpt><trkpt lat="43.61190332527405" lon="11.865015004686555"><ele>287.0</ele><time>2026-04-26T14:45:05Z</time></trkpt><trkpt lat="43.61169507410805" lon="11.864988492601247"><ele>286.0</ele><time>2026-04-26T14:45:06Z</time></trkpt><trkpt lat="43.61148352654497" lon="11.86496336690032"><ele>285.0</ele><time>2026-04-26T14:45:07Z</time></trkpt><trkpt lat="43.611272831801585" lon="11.864942377111104"><ele>285.0</ele><time>2026-04-26T14:45:08Z</time></trkpt><trkpt lat="43.61106118011518" lon="11.864918625490356"><ele>285.0</ele><time>2026-04-26T14:45:09Z</time></trkpt><trkpt lat="43.610851560010964" lon="11.864895984304258"><ele>285.0</ele><time>2026-04-26T14:45:10Z</time></trkpt><trkpt lat="43.61063757504477" lon="11.864869851482252"><ele>285.0</ele><time>2026-04-26T14:45:11Z</time></trkpt><trkpt lat="43.6104213974487" lon="11.86484358764913"><ele>285.0</ele><time>2026-04-26T14:45:12Z</time></trkpt><trkpt lat="43.61020478206494" lon="11.864815131351309"><ele>285.0</ele><time>2026-04-26T14:45:13Z</time></trkpt><trkpt lat="43.60998636663023" lon="11.864787844779398"><ele>284.5</ele><time>2026-04-26T14:45:14Z</time></trkpt><trkpt lat="43.609760115575774" lon="11.864761328400467"><ele>284.0</ele><time>2026-04-26T14:45:15Z</time></trkpt><trkpt lat="43.6095337884183" lon="11.864732632035864"><ele>284.5</ele><time>2026-04-26T14:45:16Z</time></trkpt><trkpt lat="43.60930395238368" lon="11.864704807808028"><ele>285.0</ele><time>2026-04-26T14:45:17Z</time></trkpt><trkpt lat="43.60906947815545" lon="11.864670793355275"><ele>285.0</ele><time>2026-04-26T14:45:18Z</time></trkpt><trkpt lat="43.60882807563622" lon="11.864643472136821"><ele>285.0</ele><time>2026-04-26T14:45:19Z</time></trkpt><trkpt lat="43.6085808257607" lon="11.864609981039443"><ele>288.5</ele><time>2026-04-26T14:45:20Z</time></trkpt><trkpt lat="43.60835665831192" lon="11.864596488646578"><ele>292.0</ele><time>2026-04-26T14:45:21Z</time></trkpt><trkpt lat="43.60812032393448" lon="11.864584868415758"><ele>292.0</ele><time>2026-04-26T14:45:22Z</time></trkpt><trkpt lat="43.60788556431666" lon="11.864596474231691"><ele>292.0</ele><time>2026-04-26T14:45:23Z</time></trkpt><trkpt lat="43.60764802469935" lon="11.864621122036034"><ele>291.0</ele><time>2026-04-26T14:45:24Z</time></trkpt><trkpt lat="43.60741437416959" lon="11.864663777856324"><ele>290.0</ele><time>2026-04-26T14:45:25Z</time></trkpt><trkpt lat="43.60716970110039" lon="11.864691466908962"><ele>289.33333333333337</ele><time>2026-04-26T14:45:26Z</time></trkpt><trkpt lat="43.60696459772141" lon="11.864793582622736"><ele>288.6666666666667</ele><time>2026-04-26T14:45:27Z</time></trkpt><trkpt lat="43.606760276925414" lon="11.8648614629839"><ele>288.0</ele><time>2026-04-26T14:45:28Z</time></trkpt><trkpt lat="43.606556162171145" lon="11.864926950637264"><ele>288.0</ele><time>2026-04-26T14:45:29Z</time></trkpt><trkpt lat="43.60636049151749" lon="11.864990044465488"><ele>288.0</ele><time>2026-04-26T14:45:30Z</time></trkpt><trkpt lat="43.60616968198529" lon="11.865054108724761"><ele>288.0</ele><time>2026-04-26T14:45:31Z</time></trkpt><trkpt lat="43.605977291246624" lon="11.865116216496011"><ele>293.3333333333333</ele><time>2026-04-26T14:45:32Z</time></trkpt><trkpt lat="43.60578776328598" lon="11.865176505805406"><ele>298.66666666666663</ele><time>2026-04-26T14:45:33Z</time></trkpt><trkpt lat="43.605608136249764" lon="11.865226814139628"><ele>304.0</ele><time>2026-04-26T14:45:34Z</time></trkpt><trkpt lat="43.60545074937213" lon="11.865270193813643"><ele>301.59999999999997</ele><time>2026-04-26T14:45:35Z</time></trkpt><trkpt lat="43.60531169827984" lon="11.86530813437438"><ele>299.2</ele><time>2026-04-26T14:45:36Z</time></trkpt><trkpt lat="43.60519206023655" lon="11.865337776280509"><ele>296.79999999999995</ele><time>2026-04-26T14:45:37Z</time></trkpt><trkpt lat="43.60510102181307" lon="11.865378073924374"><ele>294.4</ele><time>2026-04-26T14:45:38Z</time></trkpt><trkpt lat="43.60502879513965" lon="11.865409470186643"><ele>292.0</ele><time>2026-04-26T14:45:39Z</time></trkpt><trkpt lat="43.60494193461842" lon="11.86544781442807"><ele>292.0</ele><time>2026-04-26T14:45:41Z</time></trkpt><trkpt lat="43.60487430312977" lon="11.865468745323192"><ele>292.0</ele><time>2026-04-26T14:47:14Z</time></trkpt><trkpt lat="43.60474773197548" lon="11.865530087770923"><ele>292.0</ele><time>2026-04-26T14:47:16Z</time></trkpt><trkpt lat="43.60464650146742" lon="11.865579927660418"><ele>292.0</ele><time>2026-04-26T14:47:17Z</time></trkpt><trkpt lat="43.60453289280268" lon="11.865635593392634"><ele>292.0</ele><time>2026-04-26T14:47:18Z</time></trkpt><trkpt lat="43.60439297865059" lon="11.865702806203075"><ele>290.0</ele><time>2026-04-26T14:47:19Z</time></trkpt><trkpt lat="43.6042553252549" lon="11.865786721067058"><ele>288.0</ele><time>2026-04-26T14:47:20Z</time></trkpt><trkpt lat="43.6041019428599" lon="11.865838678325117"><ele>286.0</ele><time>2026-04-26T14:47:21Z</time></trkpt><trkpt lat="43.603926078870025" lon="11.865903031151472"><ele>286.0</ele><time>2026-04-26T14:47:22Z</time></trkpt><trkpt lat="43.60374930964598" lon="11.865933198319071"><ele>286.0</ele><time>2026-04-26T14:47:23Z</time></trkpt><trkpt lat="43.60356641513923" lon="11.865956336614667"><ele>286.0</ele><time>2026-04-26T14:47:24Z</time></trkpt><trkpt lat="43.603371587306164" lon="11.865982880673165"><ele>290.66666666666663</ele><time>2026-04-26T14:47:25Z</time></trkpt><trkpt lat="43.60317981906134" lon="11.866008520013217"><ele>295.3333333333333</ele><time>2026-04-26T14:47:26Z</time></trkpt><trkpt lat="43.6029947621475" lon="11.866042961433521"><ele>300.0</ele><time>2026-04-26T14:47:27Z</time></trkpt><trkpt lat="43.602815221887916" lon="11.866083619614423"><ele>300.0</ele><time>2026-04-26T14:47:28Z</time></trkpt><trkpt lat="43.60264321863445" lon="11.866137738520615"><ele>300.0</ele><time>2026-04-26T14:47:29Z</time></trkpt><trkpt lat="43.60247262369841" lon="11.866196006067193"><ele>300.0</ele><time>2026-04-26T14:47:30Z</time></trkpt><trkpt lat="43.602305363726664" lon="11.866251059283753"><ele>300.0</ele><time>2026-04-26T14:47:31Z</time></trkpt><trkpt lat="43.6021481494135" lon="11.86631885699016"><ele>300.0</ele><time>2026-04-26T14:47:32Z</time></trkpt><trkpt lat="43.60200575627765" lon="11.86640486736697"><ele>300.0</ele><time>2026-04-26T14:47:33Z</time></trkpt><trkpt lat="43.601814873004976" lon="11.86648990252307"><ele>300.0</ele><time>2026-04-26T14:47:34Z</time></trkpt><trkpt lat="43.60165458179696" lon="11.866612959000856"><ele>300.0</ele><time>2026-04-26T14:47:35Z</time></trkpt><trkpt lat="43.6014869994994" lon="11.866740564633366"><ele>300.0</ele><time>2026-04-26T14:47:36Z</time></trkpt><trkpt lat="43.60131818512189" lon="11.866868733354973"><ele>298.3333333333333</ele><time>2026-04-26T14:47:37Z</time></trkpt><trkpt lat="43.60113996658271" lon="11.866997898501056"><ele>296.66666666666663</ele><time>2026-04-26T14:47:38Z</time></trkpt><trkpt lat="43.600957649944974" lon="11.867128328419152"><ele>295.0</ele><time>2026-04-26T14:47:39Z</time></trkpt><trkpt lat="43.60077782852037" lon="11.867267809482504"><ele>295.0</ele><time>2026-04-26T14:47:40Z</time></trkpt><trkpt lat="43.60060369818382" lon="11.867430117493772"><ele>295.0</ele><time>2026-04-26T14:47:41Z</time></trkpt><trkpt lat="43.60043822856691" lon="11.86762524786349"><ele>295.0</ele><time>2026-04-26T14:47:42Z</time></trkpt><trkpt lat="43.60028909754518" lon="11.867852279363918"><ele>293.3333333333333</ele><time>2026-04-26T14:47:43Z</time></trkpt><trkpt lat="43.600156134571634" lon="11.868070358562075"><ele>291.6666666666667</ele><time>2026-04-26T14:47:44Z</time></trkpt><trkpt lat="43.600023123660065" lon="11.868267390629523"><ele>290.0</ele><time>2026-04-26T14:47:45Z</time></trkpt><trkpt lat="43.59989644043834" lon="11.868457665330224"><ele>289.0</ele><time>2026-04-26T14:47:46Z</time></trkpt><trkpt lat="43.599785426682686" lon="11.868653548015793"><ele>288.0</ele><time>2026-04-26T14:47:47Z</time></trkpt><trkpt lat="43.59969969307607" lon="11.868876058974118"><ele>287.0</ele><time>2026-04-26T14:47:48Z</time></trkpt><trkpt lat="43.5996563451611" lon="11.869126630588836"><ele>286.33333333333337</ele><time>2026-04-26T14:47:49Z</time></trkpt><trkpt lat="43.59964895194404" lon="11.869414064245353"><ele>285.6666666666667</ele><time>2026-04-26T14:47:50Z</time></trkpt><trkpt lat="43.599645904108016" lon="11.869722701726173"><ele>285.0</ele><time>2026-04-26T14:47:51Z</time></trkpt><trkpt lat="43.59963021257969" lon="11.870045420856126"><ele>289.0</ele><time>2026-04-26T14:47:52Z</time></trkpt><trkpt lat="43.59960933571041" lon="11.870383634730235"><ele>293.0</ele><time>2026-04-26T14:47:53Z</time></trkpt><trkpt lat="43.59958254720016" lon="11.870735423427373"><ele>296.0</ele><time>2026-04-26T14:47:54Z</time></trkpt><trkpt lat="43.59955134557081" lon="11.871094653100739"><ele>299.0</ele><time>2026-04-26T14:47:55Z</time></trkpt><trkpt lat="43.59951869806309" lon="11.871446685863049"><ele>287.5</ele><time>2026-04-26T14:47:56Z</time></trkpt><trkpt lat="43.5994609955172" lon="11.87180122918094"><ele>276.0</ele><time>2026-04-26T14:47:57Z</time></trkpt><trkpt lat="43.599397359113404" lon="11.872136981979123"><ele>276.0</ele><time>2026-04-26T14:47:58Z</time></trkpt><trkpt lat="43.59932674892566" lon="11.872459295030572"><ele>276.0</ele><time>2026-04-26T14:47:59Z</time></trkpt><trkpt lat="43.59926134606867" lon="11.872776982856031"><ele>279.5</ele><time>2026-04-26T14:48:00Z</time></trkpt><trkpt lat="43.59920290590808" lon="11.873090480436426"><ele>283.0</ele><time>2026-04-26T14:48:01Z</time></trkpt><trkpt lat="43.59914455569084" lon="11.873407602125582"><ele>289.0</ele><time>2026-04-26T14:48:02Z</time></trkpt><trkpt lat="43.59908010236001" lon="11.87372769355752"><ele>295.0</ele><time>2026-04-26T14:48:03Z</time></trkpt><trkpt lat="43.599001101884255" lon="11.874042372997812"><ele>300.5</ele><time>2026-04-26T14:48:04Z</time></trkpt><trkpt lat="43.59891210990794" lon="11.87434837849471"><ele>306.0</ele><time>2026-04-26T14:48:05Z</time></trkpt><trkpt lat="43.59882456155349" lon="11.874642566927491"><ele>306.0</ele><time>2026-04-26T14:48:06Z</time></trkpt><trkpt lat="43.5987420053545" lon="11.874925033191746"><ele>306.0</ele><time>2026-04-26T14:48:07Z</time></trkpt><trkpt lat="43.59865632160257" lon="11.875204492401355"><ele>306.0</ele><time>2026-04-26T14:48:08Z</time></trkpt><trkpt lat="43.5985382896995" lon="11.875460558476615"><ele>305.6666666666667</ele><time>2026-04-26T14:48:09Z</time></trkpt><trkpt lat="43.59842405422896" lon="11.87571918305102"><ele>305.33333333333337</ele><time>2026-04-26T14:48:10Z</time></trkpt><trkpt lat="43.59832533898291" lon="11.87597377038515"><ele>305.0</ele><time>2026-04-26T14:48:11Z</time></trkpt><trkpt lat="43.59820962890233" lon="11.876194528466508"><ele>305.0</ele><time>2026-04-26T14:48:12Z</time></trkpt><trkpt lat="43.59808444157904" lon="11.876395740732068"><ele>305.0</ele><time>2026-04-26T14:48:13Z</time></trkpt><trkpt lat="43.59794534648019" lon="11.87657814613998"><ele>305.0</ele><time>2026-04-26T14:48:14Z</time></trkpt><trkpt lat="43.59780392753476" lon="11.876764033697885"><ele>300.33333333333337</ele><time>2026-04-26T14:48:15Z</time></trkpt><trkpt lat="43.597668811936664" lon="11.876974787773307"><ele>295.6666666666667</ele><time>2026-04-26T14:48:16Z</time></trkpt><trkpt lat="43.59754392526757" lon="11.877206664997175"><ele>291.0</ele><time>2026-04-26T14:48:17Z</time></trkpt><trkpt lat="43.59741713285241" lon="11.877445996961685"><ele>289.6666666666667</ele><time>2026-04-26T14:48:18Z</time></trkpt><trkpt lat="43.59728982226016" lon="11.877679283023967"><ele>288.33333333333337</ele><time>2026-04-26T14:48:19Z</time></trkpt><trkpt lat="43.59715589152561" lon="11.877906451529556"><ele>287.0</ele><time>2026-04-26T14:48:20Z</time></trkpt><trkpt lat="43.59699087763018" lon="11.878081778952938"><ele>287.0</ele><time>2026-04-26T14:48:21Z</time></trkpt><trkpt lat="43.59681553252615" lon="11.87823929572508"><ele>287.0</ele><time>2026-04-26T14:48:22Z</time></trkpt><trkpt lat="43.596626421909264" lon="11.878395161134772"><ele>287.0</ele><time>2026-04-26T14:48:23Z</time></trkpt><trkpt lat="43.596433793098534" lon="11.878555369860106"><ele>289.5</ele><time>2026-04-26T14:48:24Z</time></trkpt><trkpt lat="43.59622402421357" lon="11.878676638996273"><ele>292.0</ele><time>2026-04-26T14:48:25Z</time></trkpt><trkpt lat="43.59600562005826" lon="11.878763684706355"><ele>292.0</ele><time>2026-04-26T14:48:26Z</time></trkpt><trkpt lat="43.59578395455009" lon="11.878845000572966"><ele>292.0</ele><time>2026-04-26T14:48:27Z</time></trkpt><trkpt lat="43.595556732431206" lon="11.878922219212708"><ele>287.5</ele><time>2026-04-26T14:48:28Z</time></trkpt><trkpt lat="43.59533655965349" lon="11.879015309967384"><ele>283.0</ele><time>2026-04-26T14:48:29Z</time></trkpt><trkpt lat="43.595110863711874" lon="11.879078482607078"><ele>283.0</ele><time>2026-04-26T14:48:30Z</time></trkpt><trkpt lat="43.59488328019293" lon="11.879098998937579"><ele>283.0</ele><time>2026-04-26T14:48:31Z</time></trkpt><trkpt lat="43.594659235486574" lon="11.879163686160979"><ele>281.0</ele><time>2026-04-26T14:48:32Z</time></trkpt><trkpt lat="43.59443300564939" lon="11.879201188252473"><ele>279.0</ele><time>2026-04-26T14:48:33Z</time></trkpt><trkpt lat="43.594220776440686" lon="11.8792341052324"><ele>277.0</ele><time>2026-04-26T14:48:34Z</time></trkpt><trkpt lat="43.59401500285085" lon="11.879248193322214"><ele>277.0</ele><time>2026-04-26T14:48:35Z</time></trkpt><trkpt lat="43.59383575731618" lon="11.879162776869437"><ele>277.0</ele><time>2026-04-26T14:48:36Z</time></trkpt><trkpt lat="43.59365755538167" lon="11.879071341259412"><ele>277.0</ele><time>2026-04-26T14:48:37Z</time></trkpt><trkpt lat="43.59347571829589" lon="11.878974364837948"><ele>277.0</ele><time>2026-04-26T14:48:38Z</time></trkpt><trkpt lat="43.59328172502857" lon="11.878871459110018"><ele>277.0</ele><time>2026-04-26T14:48:39Z</time></trkpt><trkpt lat="43.59307702110151" lon="11.878771869608675"><ele>277.0</ele><time>2026-04-26T14:48:40Z</time></trkpt><trkpt lat="43.59286452022513" lon="11.878674121021838"><ele>279.0</ele><time>2026-04-26T14:48:41Z</time></trkpt><trkpt lat="43.592645454233825" lon="11.878604406928286"><ele>281.0</ele><time>2026-04-26T14:48:42Z</time></trkpt><trkpt lat="43.59243016956505" lon="11.878507581826547"><ele>276.5</ele><time>2026-04-26T14:48:43Z</time></trkpt><trkpt lat="43.5922252452669" lon="11.87836591796433"><ele>272.0</ele><time>2026-04-26T14:48:44Z</time></trkpt><trkpt lat="43.59200945951392" lon="11.878233978108536"><ele>272.0</ele><time>2026-04-26T14:48:45Z</time></trkpt><trkpt lat="43.59179540916113" lon="11.87810013078185"><ele>272.0</ele><time>2026-04-26T14:48:46Z</time></trkpt><trkpt lat="43.59157014716315" lon="11.877979409793026"><ele>272.0</ele><time>2026-04-26T14:48:47Z</time></trkpt><trkpt lat="43.591345325560745" lon="11.877836219802303"><ele>272.0</ele><time>2026-04-26T14:48:48Z</time></trkpt><trkpt lat="43.59112135318593" lon="11.877694223443019"><ele>271.0</ele><time>2026-04-26T14:48:49Z</time></trkpt><trkpt lat="43.59088925567675" lon="11.877559953671492"><ele>270.0</ele><time>2026-04-26T14:48:50Z</time></trkpt><trkpt lat="43.590660343822634" lon="11.87741726619287"><ele>270.0</ele><time>2026-04-26T14:48:51Z</time></trkpt><trkpt lat="43.59041519125027" lon="11.877335009280001"><ele>270.0</ele><time>2026-04-26T14:48:52Z</time></trkpt><trkpt lat="43.59017443347698" lon="11.877245535519233"><ele>271.5</ele><time>2026-04-26T14:48:53Z</time></trkpt><trkpt lat="43.58994498298096" lon="11.877137456211182"><ele>273.0</ele><time>2026-04-26T14:48:54Z</time></trkpt><trkpt lat="43.589724888355796" lon="11.877050361875469"><ele>273.0</ele><time>2026-04-26T14:48:55Z</time></trkpt><trkpt lat="43.5895178549833" lon="11.876970392796808"><ele>273.0</ele><time>2026-04-26T14:48:56Z</time></trkpt><trkpt lat="43.589329465238954" lon="11.876829208807825"><ele>273.0</ele><time>2026-04-26T14:48:57Z</time></trkpt><trkpt lat="43.58917503513118" lon="11.876604154342784"><ele>275.0</ele><time>2026-04-26T14:48:58Z</time></trkpt><trkpt lat="43.588984477258435" lon="11.876411913131266"><ele>277.0</ele><time>2026-04-26T14:48:59Z</time></trkpt><trkpt lat="43.58880776507996" lon="11.876204781237828"><ele>276.5</ele><time>2026-04-26T14:49:00Z</time></trkpt><trkpt lat="43.58862085007898" lon="11.876017705678745"><ele>276.0</ele><time>2026-04-26T14:49:01Z</time></trkpt><trkpt lat="43.58844190431888" lon="11.87581814134045"><ele>276.0</ele><time>2026-04-26T14:49:02Z</time></trkpt><trkpt lat="43.58824083395262" lon="11.875656766526728"><ele>276.0</ele><time>2026-04-26T14:49:03Z</time></trkpt><trkpt lat="43.58802605223767" lon="11.875535156442663"><ele>277.5</ele><time>2026-04-26T14:49:04.001Z</time></trkpt><trkpt lat="43.58780821865086" lon="11.87542019789957"><ele>279.0</ele><time>2026-04-26T14:49:05.001Z</time></trkpt><trkpt lat="43.58758574165862" lon="11.875323758007072"><ele>279.0</ele><time>2026-04-26T14:49:06.001Z</time></trkpt><trkpt lat="43.5873667466466" lon="11.875227473519484"><ele>279.0</ele><time>2026-04-26T14:49:07.001Z</time></trkpt><trkpt lat="43.58715496024868" lon="11.875119619485865"><ele>277.0</ele><time>2026-04-26T14:49:08.001Z</time></trkpt><trkpt lat="43.586959969982075" lon="11.875006931278014"><ele>275.0</ele><time>2026-04-26T14:49:09.001Z</time></trkpt><trkpt lat="43.58677152375793" lon="11.874891150883435"><ele>273.0</ele><time>2026-04-26T14:49:10.001Z</time></trkpt><trkpt lat="43.58657969018904" lon="11.874777438396189"><ele>273.0</ele><time>2026-04-26T14:49:11.001Z</time></trkpt><trkpt lat="43.58638516065526" lon="11.874664121462057"><ele>273.0</ele><time>2026-04-26T14:49:12.001Z</time></trkpt><trkpt lat="43.58619012892459" lon="11.874551945922896"><ele>273.0</ele><time>2026-04-26T14:49:13.001Z</time></trkpt><trkpt lat="43.58599399926608" lon="11.874438113732264"><ele>272.6666666666667</ele><time>2026-04-26T14:49:14.001Z</time></trkpt><trkpt lat="43.58580714132838" lon="11.874305254544554"><ele>272.33333333333337</ele><time>2026-04-26T14:49:15.001Z</time></trkpt><trkpt lat="43.58561356508564" lon="11.874191382138326"><ele>272.0</ele><time>2026-04-26T14:49:16.001Z</time></trkpt><trkpt lat="43.58541161257704" lon="11.874096282722325"><ele>272.0</ele><time>2026-04-26T14:49:17.001Z</time></trkpt><trkpt lat="43.58521661117989" lon="11.873982134203597"><ele>272.0</ele><time>2026-04-26T14:49:18.001Z</time></trkpt><trkpt lat="43.58502306489358" lon="11.873870341694492"><ele>272.0</ele><time>2026-04-26T14:49:19.001Z</time></trkpt><trkpt lat="43.58482631695967" lon="11.873765367144877"><ele>272.0</ele><time>2026-04-26T14:49:20.001Z</time></trkpt><trkpt lat="43.584627539409134" lon="11.873674947587007"><ele>272.0</ele><time>2026-04-26T14:49:21.001Z</time></trkpt><trkpt lat="43.58443672709423" lon="11.87360226444095"><ele>272.0</ele><time>2026-04-26T14:49:22.001Z</time></trkpt><trkpt lat="43.58426146841836" lon="11.873538467750251"><ele>272.0</ele><time>2026-04-26T14:49:23.001Z</time></trkpt><trkpt lat="43.5841101618826" lon="11.87345858891642"><ele>272.0</ele><time>2026-04-26T14:49:24.001Z</time></trkpt><trkpt lat="43.58396127936216" lon="11.87340029136345"><ele>272.0</ele><time>2026-04-26T14:49:25.001Z</time></trkpt><trkpt lat="43.583811356922865" lon="11.873342208620167"><ele>272.6666666666667</ele><time>2026-04-26T14:49:26.001Z</time></trkpt><trkpt lat="43.58366274716371" lon="11.873286080070358"><ele>273.3333333333333</ele><time>2026-04-26T14:49:27.001Z</time></trkpt><trkpt lat="43.58350851419288" lon="11.873228377704676"><ele>274.0</ele><time>2026-04-26T14:49:28.001Z</time></trkpt><trkpt lat="43.5833512756254" lon="11.873169929544757"><ele>274.0</ele><time>2026-04-26T14:49:29.001Z</time></trkpt><trkpt lat="43.58318792812601" lon="11.873109125370393"><ele>274.0</ele><time>2026-04-26T14:49:30.001Z</time></trkpt><trkpt lat="43.58301822840222" lon="11.873069681406985"><ele>274.0</ele><time>2026-04-26T14:49:31.001Z</time></trkpt><trkpt lat="43.58284807952533" lon="11.87298271199584"><ele>274.0</ele><time>2026-04-26T14:49:32.001Z</time></trkpt><trkpt lat="43.58267224227732" lon="11.872917305060865"><ele>274.0</ele><time>2026-04-26T14:49:33.001Z</time></trkpt><trkpt lat="43.5824877027902" lon="11.872848661068426"><ele>274.0</ele><time>2026-04-26T14:49:34.001Z</time></trkpt><trkpt lat="43.58230019594952" lon="11.87280136011107"><ele>274.0</ele><time>2026-04-26T14:49:35.001Z</time></trkpt><trkpt lat="43.58211644883677" lon="11.872731918161843"><ele>274.0</ele><time>2026-04-26T14:49:36.001Z</time></trkpt><trkpt lat="43.581933289068026" lon="11.87266398574715"><ele>274.0</ele><time>2026-04-26T14:49:37.001Z</time></trkpt><trkpt lat="43.58176030859246" lon="11.87257423371989"><ele>273.66666666666663</ele><time>2026-04-26T14:49:38.001Z</time></trkpt><trkpt lat="43.58158300238713" lon="11.872528150760647"><ele>273.3333333333333</ele><time>2026-04-26T14:49:39.001Z</time></trkpt><trkpt lat="43.581410983986395" lon="11.872459159622366"><ele>273.0</ele><time>2026-04-26T14:49:40.001Z</time></trkpt><trkpt lat="43.58123725128962" lon="11.872393674070537"><ele>272.6666666666667</ele><time>2026-04-26T14:49:41.001Z</time></trkpt><trkpt lat="43.581060104736615" lon="11.872327776818432"><ele>272.33333333333337</ele><time>2026-04-26T14:49:42.001Z</time></trkpt><trkpt lat="43.5808834129549" lon="11.872258875377792"><ele>272.0</ele><time>2026-04-26T14:49:43Z</time></trkpt><trkpt lat="43.58070563515183" lon="11.87218913068953"><ele>272.0</ele><time>2026-04-26T14:49:44Z</time></trkpt><trkpt lat="43.58052827758101" lon="11.872123007747454"><ele>272.0</ele><time>2026-04-26T14:49:45Z</time></trkpt><trkpt lat="43.58035571126227" lon="11.872036577851617"><ele>272.0</ele><time>2026-04-26T14:49:46Z</time></trkpt><trkpt lat="43.580179273199114" lon="11.871970476775594"><ele>271.6666666666667</ele><time>2026-04-26T14:49:47Z</time></trkpt><trkpt lat="43.57999856229061" lon="11.871927353951717"><ele>271.3333333333333</ele><time>2026-04-26T14:49:48Z</time></trkpt><trkpt lat="43.57982609047304" lon="11.87186415764829"><ele>271.0</ele><time>2026-04-26T14:49:49Z</time></trkpt><trkpt lat="43.579663300882714" lon="11.871808674417473"><ele>271.0</ele><time>2026-04-26T14:49:49.999Z</time></trkpt><trkpt lat="43.579506844126286" lon="11.871744022379485"><ele>271.0</ele><time>2026-04-26T14:49:50.999Z</time></trkpt><trkpt lat="43.57935270001476" lon="11.871682288561338"><ele>271.0</ele><time>2026-04-26T14:49:51.999Z</time></trkpt><trkpt lat="43.57919457710737" lon="11.871634038837438"><ele>271.0</ele><time>2026-04-26T14:49:52.999Z</time></trkpt><trkpt lat="43.579034005314234" lon="11.871596249788556"><ele>271.0</ele><time>2026-04-26T14:49:53.999Z</time></trkpt><trkpt lat="43.57887642757303" lon="11.871572822977148"><ele>271.0</ele><time>2026-04-26T14:49:54.999Z</time></trkpt><trkpt lat="43.57872617747792" lon="11.871568407045505"><ele>271.3333333333333</ele><time>2026-04-26T14:49:55.999Z</time></trkpt><trkpt lat="43.578576249894525" lon="11.871577787676554"><ele>271.6666666666667</ele><time>2026-04-26T14:49:56.999Z</time></trkpt><trkpt lat="43.57841991844187" lon="11.87159346008432"><ele>272.0</ele><time>2026-04-26T14:49:57.999Z</time></trkpt><trkpt lat="43.57826564151729" lon="11.871614006216895"><ele>272.0</ele><time>2026-04-26T14:49:58.999Z</time></trkpt><trkpt lat="43.57811929899967" lon="11.871642197142528"><ele>272.0</ele><time>2026-04-26T14:49:59.999Z</time></trkpt><trkpt lat="43.57797299388032" lon="11.871677696594944"><ele>272.0</ele><time>2026-04-26T14:50:00.999Z</time></trkpt><trkpt lat="43.57782452105481" lon="11.871712493202407"><ele>272.0</ele><time>2026-04-26T14:50:01.999Z</time></trkpt><trkpt lat="43.577669911562495" lon="11.87175007071937"><ele>272.6666666666667</ele><time>2026-04-26T14:50:02.999Z</time></trkpt><trkpt lat="43.577511484214746" lon="11.871788581123702"><ele>273.3333333333333</ele><time>2026-04-26T14:50:03.999Z</time></trkpt><trkpt lat="43.57734937777413" lon="11.871829029424289"><ele>274.0</ele><time>2026-04-26T14:50:04.999Z</time></trkpt><trkpt lat="43.57718175953023" lon="11.871863260563176"><ele>274.0</ele><time>2026-04-26T14:50:05.999Z</time></trkpt><trkpt lat="43.577015975666264" lon="11.871908187244065"><ele>274.0</ele><time>2026-04-26T14:50:06.999Z</time></trkpt><trkpt lat="43.57684397849324" lon="11.871947756934304"><ele>274.0</ele><time>2026-04-26T14:50:07.999Z</time></trkpt><trkpt lat="43.57667331245582" lon="11.87199085411144"><ele>274.0</ele><time>2026-04-26T14:50:08.999Z</time></trkpt><trkpt lat="43.57649552636465" lon="11.872013090953965"><ele>274.0</ele><time>2026-04-26T14:50:09.999Z</time></trkpt><trkpt lat="43.57632290921536" lon="11.872053971484327"><ele>274.0</ele><time>2026-04-26T14:50:10.999Z</time></trkpt><trkpt lat="43.57614811045508" lon="11.872122762851841"><ele>273.3333333333333</ele><time>2026-04-26T14:50:11.999Z</time></trkpt><trkpt lat="43.575970116343576" lon="11.87215824669053"><ele>272.6666666666667</ele><time>2026-04-26T14:50:12.999Z</time></trkpt><trkpt lat="43.575796246316315" lon="11.87219931157598"><ele>272.0</ele><time>2026-04-26T14:50:13.999Z</time></trkpt><trkpt lat="43.575627299481475" lon="11.872235268488758"><ele>272.0</ele><time>2026-04-26T14:50:14.999Z</time></trkpt><trkpt lat="43.57545926463412" lon="11.872280118312993"><ele>272.0</ele><time>2026-04-26T14:50:15.999Z</time></trkpt><trkpt lat="43.57529273395924" lon="11.872317180777499"><ele>272.0</ele><time>2026-04-26T14:50:16.999Z</time></trkpt><trkpt lat="43.575123079333885" lon="11.872353037726732"><ele>272.0</ele><time>2026-04-26T14:50:17.999Z</time></trkpt><trkpt lat="43.574957603530706" lon="11.872378373935453"><ele>272.0</ele><time>2026-04-26T14:50:18.999Z</time></trkpt><trkpt lat="43.57479166059465" lon="11.872392272663658"><ele>272.0</ele><time>2026-04-26T14:50:19.999Z</time></trkpt><trkpt lat="43.57462711900548" lon="11.872384300700794"><ele>272.0</ele><time>2026-04-26T14:50:20.999Z</time></trkpt><trkpt lat="43.57445934413465" lon="11.872356546599024"><ele>272.0</ele><time>2026-04-26T14:50:21.999Z</time></trkpt><trkpt lat="43.57428865228535" lon="11.872313550040781"><ele>272.0</ele><time>2026-04-26T14:50:22.999Z</time></trkpt><trkpt lat="43.574114081967984" lon="11.872263557810406"><ele>272.0</ele><time>2026-04-26T14:50:23.999Z</time></trkpt><trkpt lat="43.57393899360462" lon="11.872196486404478"><ele>272.0</ele><time>2026-04-26T14:50:24.999Z</time></trkpt><trkpt lat="43.57378057260679" lon="11.872094450345433"><ele>272.0</ele><time>2026-04-26T14:50:25.999Z</time></trkpt><trkpt lat="43.57363150628299" lon="11.872001512796393"><ele>272.33333333333337</ele><time>2026-04-26T14:50:26.999Z</time></trkpt><trkpt lat="43.573487191095516" lon="11.871897937138725"><ele>272.6666666666667</ele><time>2026-04-26T14:50:27.999Z</time></trkpt><trkpt lat="43.57335096571615" lon="11.871786582005326"><ele>273.0</ele><time>2026-04-26T14:50:28.999Z</time></trkpt><trkpt lat="43.57321750848615" lon="11.871670358849508"><ele>272.25</ele><time>2026-04-26T14:50:29.999Z</time></trkpt><trkpt lat="43.57308593978059" lon="11.871581726503296"><ele>271.5</ele><time>2026-04-26T14:50:30.999Z</time></trkpt><trkpt lat="43.5729771604307" lon="11.871480910808188"><ele>270.75</ele><time>2026-04-26T14:50:31.999Z</time></trkpt><trkpt lat="43.57287463687005" lon="11.871381067038877"><ele>270.0</ele><time>2026-04-26T14:50:32.999Z</time></trkpt><trkpt lat="43.57277082009565" lon="11.871293023526766"><ele>270.0</ele><time>2026-04-26T14:50:33.999Z</time></trkpt><trkpt lat="43.572671844812234" lon="11.871199201504973"><ele>270.0</ele><time>2026-04-26T14:50:34.999Z</time></trkpt><trkpt lat="43.57257826340628" lon="11.871115598163936"><ele>270.0</ele><time>2026-04-26T14:50:35.999Z</time></trkpt><trkpt lat="43.57249254246618" lon="11.87103857050806"><ele>270.0</ele><time>2026-04-26T14:50:36.999Z</time></trkpt><trkpt lat="43.57240638775322" lon="11.870965197188985"><ele>270.0</ele><time>2026-04-26T14:50:37.999Z</time></trkpt><trkpt lat="43.57231424355651" lon="11.870892639483921"><ele>269.75</ele><time>2026-04-26T14:50:38.999Z</time></trkpt><trkpt lat="43.57221290934248" lon="11.870810373845647"><ele>269.5</ele><time>2026-04-26T14:50:39.999Z</time></trkpt><trkpt lat="43.57210933334818" lon="11.870713639581295"><ele>269.25</ele><time>2026-04-26T14:50:40.999Z</time></trkpt><trkpt lat="43.57200209948576" lon="11.870612216936104"><ele>269.0</ele><time>2026-04-26T14:50:41.999Z</time></trkpt><trkpt lat="43.57189285485906" lon="11.870516838114877"><ele>268.75</ele><time>2026-04-26T14:50:42.999Z</time></trkpt><trkpt lat="43.57178473735661" lon="11.870422008957911"><ele>268.5</ele><time>2026-04-26T14:50:43.999Z</time></trkpt><trkpt lat="43.57167608887444" lon="11.870321015093285"><ele>268.25</ele><time>2026-04-26T14:50:44.999Z</time></trkpt><trkpt lat="43.57156596133286" lon="11.870222351869284"><ele>268.0</ele><time>2026-04-26T14:50:45.999Z</time></trkpt><trkpt lat="43.57145374335553" lon="11.870118265436885"><ele>267.75</ele><time>2026-04-26T14:50:46.999Z</time></trkpt><trkpt lat="43.57133208100524" lon="11.870014086917537"><ele>267.5</ele><time>2026-04-26T14:50:47.999Z</time></trkpt><trkpt lat="43.571208398731244" lon="11.86990748200629"><ele>267.25</ele><time>2026-04-26T14:50:48.999Z</time></trkpt><trkpt lat="43.57108657397327" lon="11.869801497014784"><ele>267.0</ele><time>2026-04-26T14:50:49.999Z</time></trkpt><trkpt lat="43.57096465691839" lon="11.86969442170889"><ele>267.0</ele><time>2026-04-26T14:50:50.999Z</time></trkpt><trkpt lat="43.57084355545601" lon="11.869585422119334"><ele>267.0</ele><time>2026-04-26T14:50:51.999Z</time></trkpt><trkpt lat="43.57071910082314" lon="11.86948548492759"><ele>267.0</ele><time>2026-04-26T14:50:52.999Z</time></trkpt><trkpt lat="43.57060187054797" lon="11.86940018311764"><ele>267.0</ele><time>2026-04-26T14:50:53.999Z</time></trkpt><trkpt lat="43.570495338552384" lon="11.86934039795429"><ele>267.0</ele><time>2026-04-26T14:50:54.999Z</time></trkpt><trkpt lat="43.57040351745323" lon="11.869302021532482"><ele>267.0</ele><time>2026-04-26T14:50:55.999Z</time></trkpt><trkpt lat="43.57034123276999" lon="11.869268660375324"><ele>267.0</ele><time>2026-04-26T14:50:56.999Z</time></trkpt><trkpt lat="43.57023711566649" lon="11.869184091907051"><ele>267.0</ele><time>2026-04-26T14:50:58.999Z</time></trkpt><trkpt lat="43.570195694128046" lon="11.869116668763454"><ele>267.0</ele><time>2026-04-26T14:50:59.999Z</time></trkpt><trkpt lat="43.570155691530836" lon="11.869020719295719"><ele>267.0</ele><time>2026-04-26T14:51:00.999Z</time></trkpt><trkpt lat="43.570112071178194" lon="11.868891794429699"><ele>266.5</ele><time>2026-04-26T14:51:01.999Z</time></trkpt><trkpt lat="43.57005031092227" lon="11.868759706738327"><ele>266.0</ele><time>2026-04-26T14:51:02.999Z</time></trkpt><trkpt lat="43.56996530705933" lon="11.86860832307671"><ele>265.5</ele><time>2026-04-26T14:51:03.999Z</time></trkpt><trkpt lat="43.56989089343242" lon="11.868421065685276"><ele>265.0</ele><time>2026-04-26T14:51:04.999Z</time></trkpt><trkpt lat="43.56980901479049" lon="11.8682256187009"><ele>264.3333333333333</ele><time>2026-04-26T14:51:05.999Z</time></trkpt><trkpt lat="43.56971700449723" lon="11.868011233776409"><ele>263.6666666666667</ele><time>2026-04-26T14:51:06.999Z</time></trkpt><trkpt lat="43.56961073369253" lon="11.867764578846197"><ele>263.0</ele><time>2026-04-26T14:51:07.999Z</time></trkpt><trkpt lat="43.569499653216525" lon="11.86750266672563"><ele>261.5</ele><time>2026-04-26T14:51:08.999Z</time></trkpt><trkpt lat="43.56937626740706" lon="11.867206485547614"><ele>260.0</ele><time>2026-04-26T14:51:10Z</time></trkpt><trkpt lat="43.569256295422605" lon="11.866920775628476"><ele>261.0</ele><time>2026-04-26T14:51:11Z</time></trkpt><trkpt lat="43.56914178547889" lon="11.866646270498075"><ele>262.0</ele><time>2026-04-26T14:51:12Z</time></trkpt><trkpt lat="43.56902587518178" lon="11.866367637461051"><ele>262.0</ele><time>2026-04-26T14:51:13Z</time></trkpt><trkpt lat="43.568895087969366" lon="11.866100791699788"><ele>262.0</ele><time>2026-04-26T14:51:14Z</time></trkpt><trkpt lat="43.56879245047147" lon="11.865810863408557"><ele>262.3333333333333</ele><time>2026-04-26T14:51:15Z</time></trkpt><trkpt lat="43.568665143027076" lon="11.865551077489236"><ele>262.6666666666667</ele><time>2026-04-26T14:51:16Z</time></trkpt><trkpt lat="43.56857150108743" lon="11.86527870697672"><ele>263.0</ele><time>2026-04-26T14:51:17Z</time></trkpt><trkpt lat="43.56846882940735" lon="11.865034504558796"><ele>263.0</ele><time>2026-04-26T14:51:18Z</time></trkpt><trkpt lat="43.568370781524905" lon="11.864799784206594"><ele>263.0</ele><time>2026-04-26T14:51:19Z</time></trkpt><trkpt lat="43.56827003187971" lon="11.864559793921764"><ele>263.0</ele><time>2026-04-26T14:51:20Z</time></trkpt><trkpt lat="43.56816716895576" lon="11.864315675608568"><ele>263.0</ele><time>2026-04-26T14:51:21Z</time></trkpt><trkpt lat="43.56806008088693" lon="11.864058413611687"><ele>263.0</ele><time>2026-04-26T14:51:22Z</time></trkpt><trkpt lat="43.56794616459305" lon="11.863784747962605"><ele>263.0</ele><time>2026-04-26T14:51:23Z</time></trkpt><trkpt lat="43.567825738134694" lon="11.863496817376603"><ele>263.5</ele><time>2026-04-26T14:51:24Z</time></trkpt><trkpt lat="43.567700760492436" lon="11.863195315863074"><ele>264.0</ele><time>2026-04-26T14:51:25Z</time></trkpt><trkpt lat="43.56757433599154" lon="11.862890050828428"><ele>264.0</ele><time>2026-04-26T14:51:26Z</time></trkpt><trkpt lat="43.567448259917676" lon="11.862586921517748"><ele>264.0</ele><time>2026-04-26T14:51:27Z</time></trkpt><trkpt lat="43.567319038913624" lon="11.862278244852307"><ele>264.0</ele><time>2026-04-26T14:51:28Z</time></trkpt><trkpt lat="43.56718793841789" lon="11.861964524019312"><ele>264.0</ele><time>2026-04-26T14:51:29Z</time></trkpt><trkpt lat="43.56705474960419" lon="11.861645805588763"><ele>263.5</ele><time>2026-04-26T14:51:30Z</time></trkpt><trkpt lat="43.56691863938488" lon="11.861320762792413"><ele>263.0</ele><time>2026-04-26T14:51:31Z</time></trkpt><trkpt lat="43.56677948965392" lon="11.860990294237489"><ele>264.5</ele><time>2026-04-26T14:51:32Z</time></trkpt><trkpt lat="43.566639113087355" lon="11.860656240538784"><ele>266.0</ele><time>2026-04-26T14:51:33Z</time></trkpt><trkpt lat="43.56649772066754" lon="11.860317032146204"><ele>272.0</ele><time>2026-04-26T14:51:34Z</time></trkpt><trkpt lat="43.56635652450602" lon="11.859978294433526"><ele>278.0</ele><time>2026-04-26T14:51:35Z</time></trkpt><trkpt lat="43.56621694881483" lon="11.859644294523163"><ele>274.5</ele><time>2026-04-26T14:51:36Z</time></trkpt><trkpt lat="43.56608313340967" lon="11.859318973266925"><ele>271.0</ele><time>2026-04-26T14:51:37Z</time></trkpt><trkpt lat="43.56595271694671" lon="11.858993150127523"><ele>271.0</ele><time>2026-04-26T14:51:38Z</time></trkpt><trkpt lat="43.5658288455483" lon="11.858669917770385"><ele>271.0</ele><time>2026-04-26T14:51:39Z</time></trkpt><trkpt lat="43.56571864242523" lon="11.858336212405991"><ele>272.5</ele><time>2026-04-26T14:51:40Z</time></trkpt><trkpt lat="43.565620519610036" lon="11.85799136030691"><ele>274.0</ele><time>2026-04-26T14:51:41Z</time></trkpt><trkpt lat="43.56553099956324" lon="11.857639204114173"><ele>274.0</ele><time>2026-04-26T14:51:42Z</time></trkpt><trkpt lat="43.56544650797223" lon="11.857281609779607"><ele>274.0</ele><time>2026-04-26T14:51:43Z</time></trkpt><trkpt lat="43.56534958969077" lon="11.856926037146055"><ele>269.0</ele><time>2026-04-26T14:51:44Z</time></trkpt><trkpt lat="43.56526863573277" lon="11.856561918252712"><ele>264.0</ele><time>2026-04-26T14:51:45Z</time></trkpt><trkpt lat="43.56518632177071" lon="11.85619592373215"><ele>264.5</ele><time>2026-04-26T14:51:46Z</time></trkpt><trkpt lat="43.56510352870803" lon="11.855827797579117"><ele>265.0</ele><time>2026-04-26T14:51:47Z</time></trkpt><trkpt lat="43.565021654106836" lon="11.855454792969441"><ele>266.5</ele><time>2026-04-26T14:51:48Z</time></trkpt><trkpt lat="43.56494148035632" lon="11.855083102502423"><ele>268.0</ele><time>2026-04-26T14:51:49Z</time></trkpt><trkpt lat="43.56485774285126" lon="11.85471484803472"><ele>268.0</ele><time>2026-04-26T14:51:50Z</time></trkpt><trkpt lat="43.56477236355645" lon="11.854346911897837"><ele>268.0</ele><time>2026-04-26T14:51:51Z</time></trkpt><trkpt lat="43.56470453991947" lon="11.853974458950951"><ele>267.5</ele><time>2026-04-26T14:51:52Z</time></trkpt><trkpt lat="43.56462419951204" lon="11.85361490995639"><ele>267.0</ele><time>2026-04-26T14:51:53Z</time></trkpt><trkpt lat="43.564528788231264" lon="11.85326823911563"><ele>267.0</ele><time>2026-04-26T14:51:54Z</time></trkpt><trkpt lat="43.56446518113973" lon="11.852909965261935"><ele>267.0</ele><time>2026-04-26T14:51:55Z</time></trkpt><trkpt lat="43.56436433049549" lon="11.852577334034482"><ele>272.0</ele><time>2026-04-26T14:51:56Z</time></trkpt><trkpt lat="43.564272299066296" lon="11.852266330152908"><ele>277.0</ele><time>2026-04-26T14:51:57Z</time></trkpt><trkpt lat="43.56417219860782" lon="11.851974066569428"><ele>279.66666666666663</ele><time>2026-04-26T14:51:58Z</time></trkpt><trkpt lat="43.56406542387432" lon="11.85170412227949"><ele>282.3333333333333</ele><time>2026-04-26T14:51:59Z</time></trkpt><trkpt lat="43.56395406996905" lon="11.851452860941702"><ele>285.0</ele><time>2026-04-26T14:52:00Z</time></trkpt><trkpt lat="43.563834823296766" lon="11.851222438924648"><ele>285.0</ele><time>2026-04-26T14:52:01Z</time></trkpt><trkpt lat="43.56371127095437" lon="11.8510147883576"><ele>285.0</ele><time>2026-04-26T14:52:02Z</time></trkpt><trkpt lat="43.563587862236616" lon="11.850815479451327"><ele>285.0</ele><time>2026-04-26T14:52:03Z</time></trkpt><trkpt lat="43.56346415027094" lon="11.850636149436795"><ele>278.0</ele><time>2026-04-26T14:52:04Z</time></trkpt><trkpt lat="43.56333234135137" lon="11.850463631922398"><ele>271.0</ele><time>2026-04-26T14:52:05Z</time></trkpt><trkpt lat="43.56319605603923" lon="11.850299895014247"><ele>264.0</ele><time>2026-04-26T14:52:06Z</time></trkpt><trkpt lat="43.56305837128316" lon="11.850145511486232"><ele>263.0</ele><time>2026-04-26T14:52:07Z</time></trkpt><trkpt lat="43.56291460629649" lon="11.849996466777261"><ele>262.0</ele><time>2026-04-26T14:52:08Z</time></trkpt><trkpt lat="43.562761239955975" lon="11.849854578423878"><ele>261.0</ele><time>2026-04-26T14:52:09Z</time></trkpt><trkpt lat="43.56259968152109" lon="11.849715593460699"><ele>260.0</ele><time>2026-04-26T14:52:10Z</time></trkpt><trkpt lat="43.56243539870499" lon="11.84959084193539"><ele>259.0</ele><time>2026-04-26T14:52:11Z</time></trkpt><trkpt lat="43.56227506718656" lon="11.849479520042212"><ele>258.0</ele><time>2026-04-26T14:52:12Z</time></trkpt><trkpt lat="43.56211462516608" lon="11.84937867729593"><ele>258.3333333333333</ele><time>2026-04-26T14:52:13Z</time></trkpt><trkpt lat="43.56194815621854" lon="11.849294284286996"><ele>258.66666666666663</ele><time>2026-04-26T14:52:14Z</time></trkpt><trkpt lat="43.56178561941149" lon="11.84920028565744"><ele>259.0</ele><time>2026-04-26T14:52:15Z</time></trkpt><trkpt lat="43.56161725747556" lon="11.849133010578543"><ele>259.0</ele><time>2026-04-26T14:52:16Z</time></trkpt><trkpt lat="43.56145978288215" lon="11.849080015169058"><ele>259.0</ele><time>2026-04-26T14:52:17Z</time></trkpt><trkpt lat="43.56130816758029" lon="11.849050879001652"><ele>259.0</ele><time>2026-04-26T14:52:18Z</time></trkpt><trkpt lat="43.561176917274196" lon="11.849022845613662"><ele>259.0</ele><time>2026-04-26T14:52:19Z</time></trkpt><trkpt lat="43.56106675116897" lon="11.84900595007452"><ele>256.75</ele><time>2026-04-26T14:52:20Z</time></trkpt><trkpt lat="43.56095961765044" lon="11.848988268912457"><ele>254.5</ele><time>2026-04-26T14:52:21Z</time></trkpt><trkpt lat="43.5608484098228" lon="11.848974016640291"><ele>252.25</ele><time>2026-04-26T14:52:22Z</time></trkpt><trkpt lat="43.560726713524595" lon="11.848963400569723"><ele>250.0</ele><time>2026-04-26T14:52:23Z</time></trkpt><trkpt lat="43.560603256648264" lon="11.848958793778985"><ele>250.0</ele><time>2026-04-26T14:52:24Z</time></trkpt><trkpt lat="43.56047423784475" lon="11.84895850946905"><ele>250.0</ele><time>2026-04-26T14:52:25Z</time></trkpt><trkpt lat="43.560340577670914" lon="11.848961924040227"><ele>250.0</ele><time>2026-04-26T14:52:26Z</time></trkpt><trkpt lat="43.56020598980261" lon="11.848970779099982"><ele>250.0</ele><time>2026-04-26T14:52:27Z</time></trkpt><trkpt lat="43.56006414224702" lon="11.848997522946249"><ele>251.0</ele><time>2026-04-26T14:52:28Z</time></trkpt><trkpt lat="43.55989985717769" lon="11.849006163474106"><ele>252.0</ele><time>2026-04-26T14:52:29Z</time></trkpt><trkpt lat="43.55973257309204" lon="11.849074252499962"><ele>253.0</ele><time>2026-04-26T14:52:30Z</time></trkpt><trkpt lat="43.559551227744514" lon="11.849133399614177"><ele>254.0</ele><time>2026-04-26T14:52:31Z</time></trkpt><trkpt lat="43.55935238178982" lon="11.849196416861133"><ele>255.0</ele><time>2026-04-26T14:52:32Z</time></trkpt><trkpt lat="43.55913974878821" lon="11.849308035693541"><ele>256.0</ele><time>2026-04-26T14:52:33Z</time></trkpt><trkpt lat="43.55891276827143" lon="11.84944198492209"><ele>256.5</ele><time>2026-04-26T14:52:34Z</time></trkpt><trkpt lat="43.558694152653004" lon="11.849576270500984"><ele>257.0</ele><time>2026-04-26T14:52:35Z</time></trkpt><trkpt lat="43.5584608546157" lon="11.849721759025973"><ele>257.0</ele><time>2026-04-26T14:52:36Z</time></trkpt><trkpt lat="43.558217453690204" lon="11.849877043778644"><ele>257.0</ele><time>2026-04-26T14:52:37Z</time></trkpt><trkpt lat="43.55796335077575" lon="11.850036798912292"><ele>258.0</ele><time>2026-04-26T14:52:38Z</time></trkpt><trkpt lat="43.55770205858725" lon="11.850201057350397"><ele>259.0</ele><time>2026-04-26T14:52:39Z</time></trkpt><trkpt lat="43.55744992293352" lon="11.850373950148041"><ele>259.0</ele><time>2026-04-26T14:52:40Z</time></trkpt><trkpt lat="43.55719223287301" lon="11.850528150111813"><ele>259.0</ele><time>2026-04-26T14:52:41Z</time></trkpt><trkpt lat="43.55693567464593" lon="11.850695687666011"><ele>259.0</ele><time>2026-04-26T14:52:42Z</time></trkpt><trkpt lat="43.55667923960842" lon="11.850860653317069"><ele>259.0</ele><time>2026-04-26T14:52:43Z</time></trkpt><trkpt lat="43.55642416875311" lon="11.851021213263781"><ele>259.0</ele><time>2026-04-26T14:52:44Z</time></trkpt><trkpt lat="43.55616820694368" lon="11.851181834196119"><ele>259.0</ele><time>2026-04-26T14:52:45Z</time></trkpt><trkpt lat="43.5559167283042" lon="11.851339068091646"><ele>259.0</ele><time>2026-04-26T14:52:46Z</time></trkpt><trkpt lat="43.555667848607435" lon="11.85149602050339"><ele>259.0</ele><time>2026-04-26T14:52:47Z</time></trkpt><trkpt lat="43.555418215176935" lon="11.851645743312496"><ele>259.0</ele><time>2026-04-26T14:52:48Z</time></trkpt><trkpt lat="43.555167139232246" lon="11.851795063720395"><ele>259.0</ele><time>2026-04-26T14:52:49Z</time></trkpt><trkpt lat="43.55491622472823" lon="11.851941605163342"><ele>259.0</ele><time>2026-04-26T14:52:50Z</time></trkpt><trkpt lat="43.55466613987537" lon="11.852089848251477"><ele>259.0</ele><time>2026-04-26T14:52:51Z</time></trkpt><trkpt lat="43.55441309141929" lon="11.852242449117655"><ele>258.5</ele><time>2026-04-26T14:52:52Z</time></trkpt><trkpt lat="43.554158766389605" lon="11.852395512560436"><ele>258.0</ele><time>2026-04-26T14:52:53Z</time></trkpt><trkpt lat="43.55390366284243" lon="11.852551761262204"><ele>259.0</ele><time>2026-04-26T14:52:54Z</time></trkpt><trkpt lat="43.553648845357095" lon="11.852710483810924"><ele>260.0</ele><time>2026-04-26T14:52:55Z</time></trkpt><trkpt lat="43.55339405757377" lon="11.852872560129308"><ele>260.0</ele><time>2026-04-26T14:52:56Z</time></trkpt><trkpt lat="43.55313788861083" lon="11.853031737162585"><ele>260.0</ele><time>2026-04-26T14:52:57Z</time></trkpt><trkpt lat="43.5528805917236" lon="11.853189113728698"><ele>261.0</ele><time>2026-04-26T14:52:58Z</time></trkpt><trkpt lat="43.55262329811579" lon="11.853347272370868"><ele>262.0</ele><time>2026-04-26T14:52:59Z</time></trkpt><trkpt lat="43.552366455791564" lon="11.853504739054594"><ele>262.0</ele><time>2026-04-26T14:53:00Z</time></trkpt><trkpt lat="43.552111331247296" lon="11.853661340834522"><ele>262.0</ele><time>2026-04-26T14:53:01Z</time></trkpt><trkpt lat="43.55185744696235" lon="11.85381864431128"><ele>260.5</ele><time>2026-04-26T14:53:02Z</time></trkpt><trkpt lat="43.55159762292695" lon="11.853954860592488"><ele>259.0</ele><time>2026-04-26T14:53:03Z</time></trkpt><trkpt lat="43.55134508237398" lon="11.854109282716765"><ele>258.5</ele><time>2026-04-26T14:53:04Z</time></trkpt><trkpt lat="43.5510918424838" lon="11.85426407809477"><ele>258.0</ele><time>2026-04-26T14:53:05Z</time></trkpt><trkpt lat="43.55083728508323" lon="11.85441953192273"><ele>258.0</ele><time>2026-04-26T14:53:06Z</time></trkpt><trkpt lat="43.55058485770715" lon="11.85457486859817"><ele>258.0</ele><time>2026-04-26T14:53:07Z</time></trkpt><trkpt lat="43.55032942005874" lon="11.854718887287978"><ele>257.0</ele><time>2026-04-26T14:53:08Z</time></trkpt><trkpt lat="43.550078445246086" lon="11.85486038985373"><ele>256.0</ele><time>2026-04-26T14:53:09Z</time></trkpt><trkpt lat="43.54984084017104" lon="11.854997581508927"><ele>257.0</ele><time>2026-04-26T14:53:10Z</time></trkpt><trkpt lat="43.54962962213109" lon="11.855206609131267"><ele>258.0</ele><time>2026-04-26T14:53:11Z</time></trkpt><trkpt lat="43.549403975598416" lon="11.855371866733543"><ele>258.0</ele><time>2026-04-26T14:53:12Z</time></trkpt><trkpt lat="43.54918341243444" lon="11.855547938742108"><ele>258.0</ele><time>2026-04-26T14:53:13Z</time></trkpt><trkpt lat="43.54896790262508" lon="11.855739001527972"><ele>258.0</ele><time>2026-04-26T14:53:14Z</time></trkpt><trkpt lat="43.54875452652158" lon="11.855938249310984"><ele>258.0</ele><time>2026-04-26T14:53:15Z</time></trkpt><trkpt lat="43.54854520051845" lon="11.856138708348997"><ele>258.5</ele><time>2026-04-26T14:53:16Z</time></trkpt><trkpt lat="43.54834407570478" lon="11.856340896157672"><ele>259.0</ele><time>2026-04-26T14:53:17Z</time></trkpt><trkpt lat="43.54815257510977" lon="11.856549628824894"><ele>259.0</ele><time>2026-04-26T14:53:18Z</time></trkpt><trkpt lat="43.54796289304172" lon="11.856771706295833"><ele>259.0</ele><time>2026-04-26T14:53:19Z</time></trkpt><trkpt lat="43.54777295171516" lon="11.857001723231427"><ele>258.0</ele><time>2026-04-26T14:53:20Z</time></trkpt><trkpt lat="43.547581882552876" lon="11.857235467110577"><ele>257.0</ele><time>2026-04-26T14:53:21Z</time></trkpt><trkpt lat="43.54739024738295" lon="11.857471712448442"><ele>257.5</ele><time>2026-04-26T14:53:22Z</time></trkpt><trkpt lat="43.54719812534958" lon="11.857709790671274"><ele>258.0</ele><time>2026-04-26T14:53:23Z</time></trkpt><trkpt lat="43.54700613953133" lon="11.857948206871217"><ele>258.5</ele><time>2026-04-26T14:53:24Z</time></trkpt><trkpt lat="43.54681624003451" lon="11.85818824510721"><ele>259.0</ele><time>2026-04-26T14:53:25Z</time></trkpt><trkpt lat="43.546624696068974" lon="11.85842738409104"><ele>259.0</ele><time>2026-04-26T14:53:26Z</time></trkpt><trkpt lat="43.54643449451095" lon="11.858667747341224"><ele>259.0</ele><time>2026-04-26T14:53:27Z</time></trkpt><trkpt lat="43.546243927631565" lon="11.858908137312635"><ele>258.5</ele><time>2026-04-26T14:53:28Z</time></trkpt><trkpt lat="43.54605258094261" lon="11.859148102412219"><ele>258.0</ele><time>2026-04-26T14:53:29Z</time></trkpt><trkpt lat="43.54586014587939" lon="11.859386850791717"><ele>259.0</ele><time>2026-04-26T14:53:30Z</time></trkpt><trkpt lat="43.545664222748876" lon="11.859626970204761"><ele>260.0</ele><time>2026-04-26T14:53:31Z</time></trkpt><trkpt lat="43.54546334259705" lon="11.859861815558764"><ele>260.0</ele><time>2026-04-26T14:53:32Z</time></trkpt><trkpt lat="43.54525511047876" lon="11.860086999342466"><ele>260.0</ele><time>2026-04-26T14:53:33Z</time></trkpt><trkpt lat="43.545042703424976" lon="11.860306030109292"><ele>260.0</ele><time>2026-04-26T14:53:34Z</time></trkpt><trkpt lat="43.54482646358146" lon="11.86051910043338"><ele>260.0</ele><time>2026-04-26T14:53:35Z</time></trkpt><trkpt lat="43.5446042023705" lon="11.860721283728498"><ele>260.0</ele><time>2026-04-26T14:53:36Z</time></trkpt><trkpt lat="43.54438172647703" lon="11.86091878038183"><ele>260.0</ele><time>2026-04-26T14:53:37Z</time></trkpt><trkpt lat="43.54415717388854" lon="11.86110739222906"><ele>260.5</ele><time>2026-04-26T14:53:38Z</time></trkpt><trkpt lat="43.54392969258927" lon="11.861285972435386"><ele>261.0</ele><time>2026-04-26T14:53:39Z</time></trkpt><trkpt lat="43.54369873533255" lon="11.861452186393807"><ele>259.5</ele><time>2026-04-26T14:53:40Z</time></trkpt><trkpt lat="43.54346629453813" lon="11.861612734943721"><ele>258.0</ele><time>2026-04-26T14:53:41Z</time></trkpt><trkpt lat="43.5432359728094" lon="11.861767541738"><ele>258.0</ele><time>2026-04-26T14:53:42Z</time></trkpt><trkpt lat="43.54300563401986" lon="11.86191771377233"><ele>258.0</ele><time>2026-04-26T14:53:43Z</time></trkpt><trkpt lat="43.54277417132801" lon="11.862065812623326"><ele>258.0</ele><time>2026-04-26T14:53:44Z</time></trkpt><trkpt lat="43.54254232825473" lon="11.862215527099178"><ele>258.0</ele><time>2026-04-26T14:53:45Z</time></trkpt><trkpt lat="43.54231236886945" lon="11.862367160161961"><ele>258.0</ele><time>2026-04-26T14:53:46Z</time></trkpt><trkpt lat="43.542082240637185" lon="11.862517175970439"><ele>258.0</ele><time>2026-04-26T14:53:47Z</time></trkpt><trkpt lat="43.541849780660556" lon="11.862667115630089"><ele>258.5</ele><time>2026-04-26T14:53:48Z</time></trkpt><trkpt lat="43.54161822015085" lon="11.862817798605443"><ele>259.0</ele><time>2026-04-26T14:53:49Z</time></trkpt><trkpt lat="43.54138597696812" lon="11.862969937000244"><ele>260.0</ele><time>2026-04-26T14:53:50Z</time></trkpt><trkpt lat="43.54115186755788" lon="11.863123296447863"><ele>261.0</ele><time>2026-04-26T14:53:51Z</time></trkpt><trkpt lat="43.54091912608061" lon="11.863272657888347"><ele>261.0</ele><time>2026-04-26T14:53:52Z</time></trkpt><trkpt lat="43.540685786436626" lon="11.86342296385292"><ele>261.0</ele><time>2026-04-26T14:53:53Z</time></trkpt><trkpt lat="43.540451471062184" lon="11.863571634772706"><ele>260.0</ele><time>2026-04-26T14:53:54Z</time></trkpt><trkpt lat="43.54021589840723" lon="11.863722543761881"><ele>259.0</ele><time>2026-04-26T14:53:55Z</time></trkpt><trkpt lat="43.53998097185218" lon="11.863878252694523"><ele>259.0</ele><time>2026-04-26T14:53:56Z</time></trkpt><trkpt lat="43.53974342538155" lon="11.864039023436549"><ele>259.0</ele><time>2026-04-26T14:53:57Z</time></trkpt><trkpt lat="43.53950539006377" lon="11.864200329186943"><ele>259.5</ele><time>2026-04-26T14:53:58Z</time></trkpt><trkpt lat="43.53926584543822" lon="11.864360036543818"><ele>260.0</ele><time>2026-04-26T14:53:59Z</time></trkpt><trkpt lat="43.53902513414486" lon="11.864518940496279"><ele>260.0</ele><time>2026-04-26T14:54:00Z</time></trkpt><trkpt lat="43.53878178388663" lon="11.864679225839012"><ele>260.0</ele><time>2026-04-26T14:54:01Z</time></trkpt><trkpt lat="43.53853670088683" lon="11.864842284995017"><ele>259.5</ele><time>2026-04-26T14:54:02Z</time></trkpt><trkpt lat="43.53829222384481" lon="11.865005427066322"><ele>259.0</ele><time>2026-04-26T14:54:03Z</time></trkpt><trkpt lat="43.53804809838749" lon="11.86516553744589"><ele>256.5</ele><time>2026-04-26T14:54:04Z</time></trkpt><trkpt lat="43.537806369150104" lon="11.865324803074097"><ele>254.0</ele><time>2026-04-26T14:54:05Z</time></trkpt><trkpt lat="43.537567203507294" lon="11.86548195774149"><ele>254.0</ele><time>2026-04-26T14:54:06Z</time></trkpt><trkpt lat="43.53732615561211" lon="11.86563521014434"><ele>254.0</ele><time>2026-04-26T14:54:07Z</time></trkpt><trkpt lat="43.537083575906074" lon="11.865775987917393"><ele>253.0</ele><time>2026-04-26T14:54:08Z</time></trkpt><trkpt lat="43.53684083451655" lon="11.865901785760009"><ele>252.0</ele><time>2026-04-26T14:54:09Z</time></trkpt><trkpt lat="43.53659433213806" lon="11.866019769158592"><ele>252.0</ele><time>2026-04-26T14:54:10Z</time></trkpt><trkpt lat="43.5363443042658" lon="11.86612919159369"><ele>252.0</ele><time>2026-04-26T14:54:11Z</time></trkpt><trkpt lat="43.536092706709475" lon="11.866230329558142"><ele>253.5</ele><time>2026-04-26T14:54:12Z</time></trkpt><trkpt lat="43.53584062589012" lon="11.866323485546111"><ele>255.0</ele><time>2026-04-26T14:54:13Z</time></trkpt><trkpt lat="43.53558720614048" lon="11.86640973244134"><ele>256.0</ele><time>2026-04-26T14:54:14Z</time></trkpt><trkpt lat="43.535326961153594" lon="11.866485457009407"><ele>257.0</ele><time>2026-04-26T14:54:15Z</time></trkpt><trkpt lat="43.535065488557734" lon="11.866562750657433"><ele>257.0</ele><time>2026-04-26T14:54:16Z</time></trkpt><trkpt lat="43.534807193958045" lon="11.866635501233896"><ele>257.0</ele><time>2026-04-26T14:54:17Z</time></trkpt><trkpt lat="43.53455478123504" lon="11.866704807876083"><ele>257.5</ele><time>2026-04-26T14:54:18Z</time></trkpt><trkpt lat="43.534309677424055" lon="11.86677016757649"><ele>258.0</ele><time>2026-04-26T14:54:19Z</time></trkpt><trkpt lat="43.534063006431815" lon="11.86683830293553"><ele>258.0</ele><time>2026-04-26T14:54:20Z</time></trkpt><trkpt lat="43.53381690520354" lon="11.866903547464934"><ele>258.0</ele><time>2026-04-26T14:54:21Z</time></trkpt><trkpt lat="43.53357147045348" lon="11.86697261991634"><ele>258.0</ele><time>2026-04-26T14:54:22Z</time></trkpt><trkpt lat="43.53332554136421" lon="11.867041437670501"><ele>258.0</ele><time>2026-04-26T14:54:23Z</time></trkpt><trkpt lat="43.533075603648115" lon="11.867112761929713"><ele>257.5</ele><time>2026-04-26T14:54:24Z</time></trkpt><trkpt lat="43.532824277633765" lon="11.867184568544932"><ele>257.0</ele><time>2026-04-26T14:54:25Z</time></trkpt><trkpt lat="43.5325680148934" lon="11.86725934783746"><ele>257.0</ele><time>2026-04-26T14:54:26Z</time></trkpt><trkpt lat="43.53231057260593" lon="11.867336472003696"><ele>257.0</ele><time>2026-04-26T14:54:27Z</time></trkpt><trkpt lat="43.53205083187047" lon="11.86741485584249"><ele>257.5</ele><time>2026-04-26T14:54:28Z</time></trkpt><trkpt lat="43.53178774472772" lon="11.867489382520798"><ele>258.0</ele><time>2026-04-26T14:54:29Z</time></trkpt><trkpt lat="43.53152549017526" lon="11.867565476501134"><ele>257.5</ele><time>2026-04-26T14:54:30Z</time></trkpt><trkpt lat="43.53126278988668" lon="11.867641456509595"><ele>257.0</ele><time>2026-04-26T14:54:31Z</time></trkpt><trkpt lat="43.53099957013199" lon="11.867717741317303"><ele>256.5</ele><time>2026-04-26T14:54:32Z</time></trkpt><trkpt lat="43.530736938466575" lon="11.867794559959812"><ele>256.0</ele><time>2026-04-26T14:54:33Z</time></trkpt><trkpt lat="43.53047280398449" lon="11.867871875105214"><ele>256.5</ele><time>2026-04-26T14:54:34Z</time></trkpt><trkpt lat="43.530206995032735" lon="11.867948623776712"><ele>257.0</ele><time>2026-04-26T14:54:35Z</time></trkpt><trkpt lat="43.52994013337878" lon="11.868025234271075"><ele>257.0</ele><time>2026-04-26T14:54:36Z</time></trkpt><trkpt lat="43.52967138469005" lon="11.868101872028792"><ele>257.0</ele><time>2026-04-26T14:54:37Z</time></trkpt><trkpt lat="43.52940473689063" lon="11.868176427999561"><ele>257.0</ele><time>2026-04-26T14:54:38Z</time></trkpt><trkpt lat="43.52913824309657" lon="11.868254568350801"><ele>257.0</ele><time>2026-04-26T14:54:39Z</time></trkpt><trkpt lat="43.52888085045345" lon="11.868323813665384"><ele>256.0</ele><time>2026-04-26T14:54:40Z</time></trkpt><trkpt lat="43.52863202198452" lon="11.868385415270408"><ele>255.0</ele><time>2026-04-26T14:54:41Z</time></trkpt><trkpt lat="43.52838314093395" lon="11.868434242585804"><ele>255.0</ele><time>2026-04-26T14:54:42Z</time></trkpt><trkpt lat="43.52813440631665" lon="11.868475232978021"><ele>255.0</ele><time>2026-04-26T14:54:43Z</time></trkpt><trkpt lat="43.52789024298769" lon="11.86850669017241"><ele>254.0</ele><time>2026-04-26T14:54:44Z</time></trkpt><trkpt lat="43.5276504079925" lon="11.868525875527197"><ele>253.0</ele><time>2026-04-26T14:54:45Z</time></trkpt><trkpt lat="43.52740732516804" lon="11.868518221735796"><ele>253.0</ele><time>2026-04-26T14:54:46Z</time></trkpt><trkpt lat="43.52716060167914" lon="11.86852475232996"><ele>253.0</ele><time>2026-04-26T14:54:47Z</time></trkpt><trkpt lat="43.5269069153613" lon="11.868530112340546"><ele>253.5</ele><time>2026-04-26T14:54:48Z</time></trkpt><trkpt lat="43.526644837739106" lon="11.868536005716686"><ele>254.0</ele><time>2026-04-26T14:54:49Z</time></trkpt><trkpt lat="43.52638016246292" lon="11.868563162093018"><ele>253.0</ele><time>2026-04-26T14:54:50Z</time></trkpt><trkpt lat="43.52611871006911" lon="11.868562214516631"><ele>252.0</ele><time>2026-04-26T14:54:51Z</time></trkpt><trkpt lat="43.52585591448008" lon="11.868566259445002"><ele>252.0</ele><time>2026-04-26T14:54:52Z</time></trkpt><trkpt lat="43.52559676571919" lon="11.868570926920066"><ele>252.0</ele><time>2026-04-26T14:54:53Z</time></trkpt><trkpt lat="43.52533902120575" lon="11.86858148665328"><ele>253.0</ele><time>2026-04-26T14:54:54Z</time></trkpt><trkpt lat="43.525082969872265" lon="11.868563683899229"><ele>254.0</ele><time>2026-04-26T14:54:55Z</time></trkpt><trkpt lat="43.524823616097436" lon="11.868570602650754"><ele>252.5</ele><time>2026-04-26T14:54:56Z</time></trkpt><trkpt lat="43.52456072783195" lon="11.868577420144893"><ele>251.0</ele><time>2026-04-26T14:54:57Z</time></trkpt><trkpt lat="43.524299751733196" lon="11.868602622219925"><ele>251.0</ele><time>2026-04-26T14:54:58Z</time></trkpt><trkpt lat="43.52403658199214" lon="11.868604051341695"><ele>251.0</ele><time>2026-04-26T14:54:59Z</time></trkpt><trkpt lat="43.523774273947126" lon="11.868608965900766"><ele>250.0</ele><time>2026-04-26T14:55:00Z</time></trkpt><trkpt lat="43.5235137727345" lon="11.86861380356931"><ele>249.0</ele><time>2026-04-26T14:55:01Z</time></trkpt><trkpt lat="43.523256338583764" lon="11.868617505221206"><ele>249.0</ele><time>2026-04-26T14:55:02Z</time></trkpt><trkpt lat="43.52300237309009" lon="11.868621683924061"><ele>249.0</ele><time>2026-04-26T14:55:03Z</time></trkpt><trkpt lat="43.52274848109692" lon="11.868627785034308"><ele>249.0</ele><time>2026-04-26T14:55:04Z</time></trkpt><trkpt lat="43.522495407231716" lon="11.868638330009645"><ele>249.0</ele><time>2026-04-26T14:55:05Z</time></trkpt><trkpt lat="43.522240665087146" lon="11.868652515572457"><ele>248.5</ele><time>2026-04-26T14:55:06Z</time></trkpt><trkpt lat="43.52198464585386" lon="11.868638810735085"><ele>248.0</ele><time>2026-04-26T14:55:07Z</time></trkpt><trkpt lat="43.52172720885301" lon="11.868666573938539"><ele>248.0</ele><time>2026-04-26T14:55:08Z</time></trkpt><trkpt lat="43.52147060873399" lon="11.868654162230538"><ele>248.0</ele><time>2026-04-26T14:55:09Z</time></trkpt><trkpt lat="43.52121135493274" lon="11.868652165752644"><ele>248.0</ele><time>2026-04-26T14:55:10Z</time></trkpt><trkpt lat="43.520953131030254" lon="11.868659690458607"><ele>248.0</ele><time>2026-04-26T14:55:11Z</time></trkpt><trkpt lat="43.520697396110776" lon="11.868667747157454"><ele>248.0</ele><time>2026-04-26T14:55:12Z</time></trkpt><trkpt lat="43.52044227536979" lon="11.868673169746737"><ele>248.0</ele><time>2026-04-26T14:55:13Z</time></trkpt><trkpt lat="43.52019427634541" lon="11.86868128240276"><ele>250.0</ele><time>2026-04-26T14:55:14Z</time></trkpt><trkpt lat="43.51995424866927" lon="11.868688070246899"><ele>252.0</ele><time>2026-04-26T14:55:15Z</time></trkpt><trkpt lat="43.519720819895134" lon="11.868699733848167"><ele>252.66666666666669</ele><time>2026-04-26T14:55:16Z</time></trkpt><trkpt lat="43.5194955001219" lon="11.868717621682775"><ele>253.33333333333334</ele><time>2026-04-26T14:55:17Z</time></trkpt><trkpt lat="43.51928147965637" lon="11.868745803178102"><ele>254.0</ele><time>2026-04-26T14:55:18Z</time></trkpt><trkpt lat="43.5190784731339" lon="11.868773476562316"><ele>254.0</ele><time>2026-04-26T14:55:19Z</time></trkpt><trkpt lat="43.51887864657099" lon="11.86881210763228"><ele>254.0</ele><time>2026-04-26T14:55:20Z</time></trkpt><trkpt lat="43.51867810090569" lon="11.868861192180436"><ele>254.0</ele><time>2026-04-26T14:55:21Z</time></trkpt><trkpt lat="43.51848461283867" lon="11.868915243109296"><ele>254.33333333333334</ele><time>2026-04-26T14:55:22Z</time></trkpt><trkpt lat="43.51830308809827" lon="11.868962362345265"><ele>254.66666666666669</ele><time>2026-04-26T14:55:23Z</time></trkpt><trkpt lat="43.51813028507428" lon="11.869003825883297"><ele>255.0</ele><time>2026-04-26T14:55:24Z</time></trkpt><trkpt lat="43.51795786735336" lon="11.869048533466023"><ele>256.0</ele><time>2026-04-26T14:55:25Z</time></trkpt><trkpt lat="43.517787771487676" lon="11.869095995454217"><ele>257.0</ele><time>2026-04-26T14:55:26Z</time></trkpt><trkpt lat="43.51761765074521" lon="11.869136098361777"><ele>258.0</ele><time>2026-04-26T14:55:27Z</time></trkpt><trkpt lat="43.517448842318025" lon="11.869182114800621"><ele>258.0</ele><time>2026-04-26T14:55:28Z</time></trkpt><trkpt lat="43.51728124040217" lon="11.869225676833755"><ele>258.0</ele><time>2026-04-26T14:55:29Z</time></trkpt><trkpt lat="43.517111070605715" lon="11.869270159411471"><ele>258.0</ele><time>2026-04-26T14:55:30Z</time></trkpt><trkpt lat="43.51694182638041" lon="11.86931679984852"><ele>257.0</ele><time>2026-04-26T14:55:31Z</time></trkpt><trkpt lat="43.516772803807925" lon="11.869364280225783"><ele>256.0</ele><time>2026-04-26T14:55:32Z</time></trkpt><trkpt lat="43.51660683451809" lon="11.869411778841544"><ele>255.0</ele><time>2026-04-26T14:55:33Z</time></trkpt><trkpt lat="43.51643973315417" lon="11.869461562516223"><ele>255.0</ele><time>2026-04-26T14:55:34Z</time></trkpt><trkpt lat="43.51627206625828" lon="11.86951126541919"><ele>255.0</ele><time>2026-04-26T14:55:35Z</time></trkpt><trkpt lat="43.5161038943957" lon="11.869557965165487"><ele>255.0</ele><time>2026-04-26T14:55:36Z</time></trkpt><trkpt lat="43.51593240999775" lon="11.869606601956187"><ele>255.33333333333331</ele><time>2026-04-26T14:55:37Z</time></trkpt><trkpt lat="43.51576002794924" lon="11.869654832412134"><ele>255.66666666666666</ele><time>2026-04-26T14:55:38Z</time></trkpt><trkpt lat="43.51558254926791" lon="11.869705737111373"><ele>256.0</ele><time>2026-04-26T14:55:39Z</time></trkpt><trkpt lat="43.51539779711086" lon="11.86976924531544"><ele>256.66666666666663</ele><time>2026-04-26T14:55:40Z</time></trkpt><trkpt lat="43.51519466853945" lon="11.869836391254596"><ele>257.3333333333333</ele><time>2026-04-26T14:55:41Z</time></trkpt><trkpt lat="43.51497746995393" lon="11.869911720462621"><ele>258.0</ele><time>2026-04-26T14:55:42Z</time></trkpt><trkpt lat="43.5147380150794" lon="11.869979115683837"><ele>258.0</ele><time>2026-04-26T14:55:43Z</time></trkpt><trkpt lat="43.51449463958262" lon="11.870036143969886"><ele>258.0</ele><time>2026-04-26T14:55:44Z</time></trkpt><trkpt lat="43.51425219991032" lon="11.870092098473497"><ele>257.5</ele><time>2026-04-26T14:55:45Z</time></trkpt><trkpt lat="43.51401565675582" lon="11.870159452197532"><ele>257.0</ele><time>2026-04-26T14:55:46Z</time></trkpt><trkpt lat="43.51378099123609" lon="11.87022508220761"><ele>258.0</ele><time>2026-04-26T14:55:47Z</time></trkpt><trkpt lat="43.51354823308729" lon="11.870287831738004"><ele>259.0</ele><time>2026-04-26T14:55:48Z</time></trkpt><trkpt lat="43.51332423969854" lon="11.870347121412681"><ele>259.0</ele><time>2026-04-26T14:55:49Z</time></trkpt><trkpt lat="43.51310588525641" lon="11.870392768955512"><ele>259.0</ele><time>2026-04-26T14:55:50Z</time></trkpt><trkpt lat="43.512894358934325" lon="11.870436811342444"><ele>259.0</ele><time>2026-04-26T14:55:51Z</time></trkpt><trkpt lat="43.512678359549945" lon="11.870481673548973"><ele>258.66666666666663</ele><time>2026-04-26T14:55:52Z</time></trkpt><trkpt lat="43.512459810438166" lon="11.870525174890433"><ele>258.3333333333333</ele><time>2026-04-26T14:55:53Z</time></trkpt><trkpt lat="43.5122398007213" lon="11.870568897702936"><ele>258.0</ele><time>2026-04-26T14:55:54Z</time></trkpt><trkpt lat="43.512018383701594" lon="11.870620255758968"><ele>258.0</ele><time>2026-04-26T14:55:55Z</time></trkpt><trkpt lat="43.51178945685226" lon="11.870684360253103"><ele>258.0</ele><time>2026-04-26T14:55:56Z</time></trkpt><trkpt lat="43.511544742482414" lon="11.870743151168227"><ele>258.0</ele><time>2026-04-26T14:55:57Z</time></trkpt><trkpt lat="43.51128410662949" lon="11.870783551502093"><ele>258.0</ele><time>2026-04-26T14:55:58Z</time></trkpt><trkpt lat="43.51100901620054" lon="11.87082455775561"><ele>258.0</ele><time>2026-04-26T14:55:59Z</time></trkpt><trkpt lat="43.51074593940013" lon="11.870877038624535"><ele>258.0</ele><time>2026-04-26T14:56:00Z</time></trkpt><trkpt lat="43.51048922218857" lon="11.870933219599847"><ele>257.0</ele><time>2026-04-26T14:56:01Z</time></trkpt><trkpt lat="43.51023628003414" lon="11.870986316334548"><ele>256.0</ele><time>2026-04-26T14:56:02Z</time></trkpt><trkpt lat="43.50998641827675" lon="11.871039724153134"><ele>256.0</ele><time>2026-04-26T14:56:03Z</time></trkpt><trkpt lat="43.50973765368294" lon="11.871093693380883"><ele>256.0</ele><time>2026-04-26T14:56:04Z</time></trkpt><trkpt lat="43.50949209557612" lon="11.871144702164536"><ele>256.5</ele><time>2026-04-26T14:56:05Z</time></trkpt><trkpt lat="43.5092454763315" lon="11.871194819703499"><ele>257.0</ele><time>2026-04-26T14:56:06Z</time></trkpt><trkpt lat="43.509002581344454" lon="11.871241589734293"><ele>257.0</ele><time>2026-04-26T14:56:07Z</time></trkpt><trkpt lat="43.508760928423584" lon="11.871291748748208"><ele>257.0</ele><time>2026-04-26T14:56:08Z</time></trkpt><trkpt lat="43.50852291402391" lon="11.87134196178907"><ele>256.5</ele><time>2026-04-26T14:56:09Z</time></trkpt><trkpt lat="43.50828554634855" lon="11.871391283309364"><ele>256.0</ele><time>2026-04-26T14:56:10Z</time></trkpt><trkpt lat="43.508047324803094" lon="11.87144043430315"><ele>256.5</ele><time>2026-04-26T14:56:11Z</time></trkpt><trkpt lat="43.507811326828524" lon="11.871489028180639"><ele>257.0</ele><time>2026-04-26T14:56:12Z</time></trkpt><trkpt lat="43.50757525349603" lon="11.871536381957423"><ele>257.0</ele><time>2026-04-26T14:56:13Z</time></trkpt><trkpt lat="43.50733731168013" lon="11.871582313782373"><ele>257.0</ele><time>2026-04-26T14:56:14Z</time></trkpt><trkpt lat="43.50709795092215" lon="11.871634087379276"><ele>255.5</ele><time>2026-04-26T14:56:15Z</time></trkpt><trkpt lat="43.50686017046939" lon="11.871689190871347"><ele>254.0</ele><time>2026-04-26T14:56:16Z</time></trkpt><trkpt lat="43.506623372210036" lon="11.871742943282497"><ele>254.0</ele><time>2026-04-26T14:56:17Z</time></trkpt><trkpt lat="43.50638648443092" lon="11.871794951523915"><ele>254.0</ele><time>2026-04-26T14:56:18Z</time></trkpt><trkpt lat="43.50614908654082" lon="11.871844485510202"><ele>254.0</ele><time>2026-04-26T14:56:19Z</time></trkpt><trkpt lat="43.5059123339507" lon="11.871896443589089"><ele>254.0</ele><time>2026-04-26T14:56:20Z</time></trkpt><trkpt lat="43.50567376623769" lon="11.871948724904621"><ele>254.0</ele><time>2026-04-26T14:56:21Z</time></trkpt><trkpt lat="43.50543316743817" lon="11.871998768429322"><ele>254.0</ele><time>2026-04-26T14:56:22Z</time></trkpt><trkpt lat="43.50519360427686" lon="11.872051925831949"><ele>254.5</ele><time>2026-04-26T14:56:23Z</time></trkpt><trkpt lat="43.50495533299572" lon="11.872107647190777"><ele>255.0</ele><time>2026-04-26T14:56:24Z</time></trkpt><trkpt lat="43.50471462899067" lon="11.872161535313236"><ele>254.0</ele><time>2026-04-26T14:56:25Z</time></trkpt><trkpt lat="43.504473320938395" lon="11.872214071951598"><ele>253.0</ele><time>2026-04-26T14:56:26Z</time></trkpt><trkpt lat="43.50423355994277" lon="11.872266604654476"><ele>253.0</ele><time>2026-04-26T14:56:27Z</time></trkpt><trkpt lat="43.50399507264098" lon="11.872319847001727"><ele>253.0</ele><time>2026-04-26T14:56:28Z</time></trkpt><trkpt lat="43.50375652962136" lon="11.872372519367158"><ele>253.0</ele><time>2026-04-26T14:56:29Z</time></trkpt><trkpt lat="43.503520552674054" lon="11.872426601087025"><ele>253.0</ele><time>2026-04-26T14:56:30Z</time></trkpt><trkpt lat="43.503285287355844" lon="11.872479068815277"><ele>253.0</ele><time>2026-04-26T14:56:31Z</time></trkpt><trkpt lat="43.503048031352236" lon="11.872529426297415"><ele>253.0</ele><time>2026-04-26T14:56:32Z</time></trkpt><trkpt lat="43.50281204101466" lon="11.87258137756871"><ele>253.0</ele><time>2026-04-26T14:56:33Z</time></trkpt><trkpt lat="43.50257618670743" lon="11.872633004312036"><ele>253.0</ele><time>2026-04-26T14:56:34Z</time></trkpt><trkpt lat="43.50234290306802" lon="11.872685671173427"><ele>253.0</ele><time>2026-04-26T14:56:34.999Z</time></trkpt><trkpt lat="43.50210917802934" lon="11.87274119941229"><ele>253.0</ele><time>2026-04-26T14:56:35.999Z</time></trkpt><trkpt lat="43.50187452331812" lon="11.872795433267266"><ele>253.5</ele><time>2026-04-26T14:56:36.999Z</time></trkpt><trkpt lat="43.50164381151671" lon="11.87284598401752"><ele>254.0</ele><time>2026-04-26T14:56:37.999Z</time></trkpt><trkpt lat="43.50140550517263" lon="11.872900928419385"><ele>253.5</ele><time>2026-04-26T14:56:38.999Z</time></trkpt><trkpt lat="43.501173373944056" lon="11.872956180228464"><ele>253.0</ele><time>2026-04-26T14:56:39.999Z</time></trkpt><trkpt lat="43.50095407044692" lon="11.873012625388808"><ele>253.0</ele><time>2026-04-26T14:56:40.999Z</time></trkpt><trkpt lat="43.50075692780299" lon="11.87303651906982"><ele>253.0</ele><time>2026-04-26T14:56:41.999Z</time></trkpt><trkpt lat="43.50049653256381" lon="11.873112780767315"><ele>252.0</ele><time>2026-04-26T14:56:42.999Z</time></trkpt><trkpt lat="43.50026447094875" lon="11.873160186599952"><ele>251.0</ele><time>2026-04-26T14:56:43.999Z</time></trkpt><trkpt lat="43.500033436462054" lon="11.87320636069366"><ele>251.0</ele><time>2026-04-26T14:56:44.999Z</time></trkpt><trkpt lat="43.499804547799" lon="11.873253690555023"><ele>251.0</ele><time>2026-04-26T14:56:45.999Z</time></trkpt><trkpt lat="43.49957517956721" lon="11.873304106555318"><ele>251.5</ele><time>2026-04-26T14:56:46.999Z</time></trkpt><trkpt lat="43.499347498978366" lon="11.873355607222903"><ele>252.0</ele><time>2026-04-26T14:56:47.999Z</time></trkpt><trkpt lat="43.49912623050486" lon="11.873407757118953"><ele>252.33333333333331</ele><time>2026-04-26T14:56:48.999Z</time></trkpt><trkpt lat="43.498920899419346" lon="11.873448104876584"><ele>252.66666666666666</ele><time>2026-04-26T14:56:49.999Z</time></trkpt><trkpt lat="43.49872131309633" lon="11.87348949335405"><ele>253.0</ele><time>2026-04-26T14:56:50.999Z</time></trkpt><trkpt lat="43.498529746610885" lon="11.873526066396247"><ele>253.0</ele><time>2026-04-26T14:56:51.999Z</time></trkpt><trkpt lat="43.49834239310127" lon="11.873563144857963"><ele>253.0</ele><time>2026-04-26T14:56:52.999Z</time></trkpt><trkpt lat="43.49816252274651" lon="11.873592781053663"><ele>253.0</ele><time>2026-04-26T14:56:53.999Z</time></trkpt><trkpt lat="43.49798123592306" lon="11.873626045676906"><ele>252.66666666666666</ele><time>2026-04-26T14:56:54.999Z</time></trkpt><trkpt lat="43.49780231559015" lon="11.873657223102104"><ele>252.33333333333331</ele><time>2026-04-26T14:56:55.999Z</time></trkpt><trkpt lat="43.49762472486388" lon="11.873691025809974"><ele>252.0</ele><time>2026-04-26T14:56:56.999Z</time></trkpt><trkpt lat="43.49744654930988" lon="11.873725814932532"><ele>252.0</ele><time>2026-04-26T14:56:57.999Z</time></trkpt><trkpt lat="43.49727259533325" lon="11.87376712628781"><ele>252.0</ele><time>2026-04-26T14:56:58.999Z</time></trkpt><trkpt lat="43.49710947723081" lon="11.873811288268186"><ele>252.0</ele><time>2026-04-26T14:56:59.999Z</time></trkpt><trkpt lat="43.496938992082534" lon="11.873832066073449"><ele>252.0</ele><time>2026-04-26T14:57:00.999Z</time></trkpt><trkpt lat="43.49677506915787" lon="11.87383241181754"><ele>252.0</ele><time>2026-04-26T14:57:01.999Z</time></trkpt><trkpt lat="43.49661389817042" lon="11.873906067405564"><ele>252.0</ele><time>2026-04-26T14:57:02.999Z</time></trkpt><trkpt lat="43.496459663229864" lon="11.873941876132038"><ele>252.0</ele><time>2026-04-26T14:57:03.999Z</time></trkpt><trkpt lat="43.49630714929164" lon="11.873977629697595"><ele>252.0</ele><time>2026-04-26T14:57:04.999Z</time></trkpt><trkpt lat="43.49616401215501" lon="11.874015045298153"><ele>252.0</ele><time>2026-04-26T14:57:05.999Z</time></trkpt><trkpt lat="43.49601156595417" lon="11.874048578969147"><ele>251.75</ele><time>2026-04-26T14:57:06.999Z</time></trkpt><trkpt lat="43.495876066657424" lon="11.874076578035593"><ele>251.5</ele><time>2026-04-26T14:57:07.999Z</time></trkpt><trkpt lat="43.49573991765739" lon="11.874109628066815"><ele>251.25</ele><time>2026-04-26T14:57:08.999Z</time></trkpt><trkpt lat="43.49559680576735" lon="11.874121948917823"><ele>251.0</ele><time>2026-04-26T14:57:09.999Z</time></trkpt><trkpt lat="43.49546386682165" lon="11.874170163925994"><ele>251.0</ele><time>2026-04-26T14:57:10.999Z</time></trkpt><trkpt lat="43.49532488322776" lon="11.874196767992107"><ele>251.0</ele><time>2026-04-26T14:57:11.999Z</time></trkpt><trkpt lat="43.49519945368099" lon="11.874226701756422"><ele>251.0</ele><time>2026-04-26T14:57:12.999Z</time></trkpt><trkpt lat="43.49507984754443" lon="11.87425055716744"><ele>251.0</ele><time>2026-04-26T14:57:13.999Z</time></trkpt><trkpt lat="43.49495555488474" lon="11.874278878516389"><ele>251.0</ele><time>2026-04-26T14:57:14.999Z</time></trkpt><trkpt lat="43.49483305697143" lon="11.8743073533594"><ele>251.0</ele><time>2026-04-26T14:57:15.999Z</time></trkpt><trkpt lat="43.49470867074932" lon="11.87433409035995"><ele>251.0</ele><time>2026-04-26T14:57:16.999Z</time></trkpt><trkpt lat="43.49458994302743" lon="11.874359015167935"><ele>251.0</ele><time>2026-04-26T14:57:17.999Z</time></trkpt><trkpt lat="43.49445992141499" lon="11.874393087043007"><ele>251.75</ele><time>2026-04-26T14:57:18.999Z</time></trkpt><trkpt lat="43.49431521056284" lon="11.874412682372965"><ele>252.5</ele><time>2026-04-26T14:57:19.999Z</time></trkpt><trkpt lat="43.49418500803125" lon="11.874443067228459"><ele>253.25</ele><time>2026-04-26T14:57:20.999Z</time></trkpt><trkpt lat="43.49405668712766" lon="11.874492439178518"><ele>254.0</ele><time>2026-04-26T14:57:21.999Z</time></trkpt><trkpt lat="43.49392638427663" lon="11.874515674326517"><ele>254.0</ele><time>2026-04-26T14:57:22.999Z</time></trkpt><trkpt lat="43.49379410830925" lon="11.874548680134433"><ele>254.0</ele><time>2026-04-26T14:57:23.999Z</time></trkpt><trkpt lat="43.493665770166054" lon="11.87457898068241"><ele>254.0</ele><time>2026-04-26T14:57:24.999Z</time></trkpt><trkpt lat="43.493531575096206" lon="11.874610293442728"><ele>254.0</ele><time>2026-04-26T14:57:25.999Z</time></trkpt><trkpt lat="43.49339382629498" lon="11.874641076518717"><ele>254.0</ele><time>2026-04-26T14:57:26.999Z</time></trkpt><trkpt lat="43.49325300911832" lon="11.874671954821942"><ele>254.0</ele><time>2026-04-26T14:57:28Z</time></trkpt><trkpt lat="43.493113847713815" lon="11.874705578945559"><ele>254.0</ele><time>2026-04-26T14:57:29Z</time></trkpt><trkpt lat="43.49297598627177" lon="11.874733761231205"><ele>254.0</ele><time>2026-04-26T14:57:30Z</time></trkpt><trkpt lat="43.492834270145295" lon="11.874761632801718"><ele>253.5</ele><time>2026-04-26T14:57:31Z</time></trkpt><trkpt lat="43.49269708565506" lon="11.874785608450097"><ele>253.0</ele><time>2026-04-26T14:57:32Z</time></trkpt><trkpt lat="43.49255997067032" lon="11.874813196391203"><ele>252.5</ele><time>2026-04-26T14:57:33Z</time></trkpt><trkpt lat="43.49242744653633" lon="11.874839185836427"><ele>252.0</ele><time>2026-04-26T14:57:34Z</time></trkpt><trkpt lat="43.49229954530463" lon="11.874871231764246"><ele>252.0</ele><time>2026-04-26T14:57:35Z</time></trkpt><trkpt lat="43.49217127184122" lon="11.874904796457354"><ele>252.0</ele><time>2026-04-26T14:57:36Z</time></trkpt><trkpt lat="43.492051740707055" lon="11.874935670718719"><ele>252.0</ele><time>2026-04-26T14:57:37Z</time></trkpt><trkpt lat="43.491936888441515" lon="11.874955858006272"><ele>252.0</ele><time>2026-04-26T14:57:38Z</time></trkpt><trkpt lat="43.49181839670949" lon="11.874986553942087"><ele>252.25</ele><time>2026-04-26T14:57:39Z</time></trkpt><trkpt lat="43.491673553728745" lon="11.875011386788218"><ele>252.5</ele><time>2026-04-26T14:57:40Z</time></trkpt><trkpt lat="43.491527811071684" lon="11.875042314694763"><ele>252.75</ele><time>2026-04-26T14:57:41Z</time></trkpt><trkpt lat="43.49140553008414" lon="11.875091337648762"><ele>253.0</ele><time>2026-04-26T14:57:42Z</time></trkpt><trkpt lat="43.491290823456616" lon="11.875125591149255"><ele>253.0</ele><time>2026-04-26T14:57:43Z</time></trkpt><trkpt lat="43.491179601654096" lon="11.87517980916983"><ele>253.0</ele><time>2026-04-26T14:57:44Z</time></trkpt><trkpt lat="43.491082061028294" lon="11.875240181280864"><ele>253.0</ele><time>2026-04-26T14:57:45Z</time></trkpt><trkpt lat="43.49099114131959" lon="11.875314142680779"><ele>253.0</ele><time>2026-04-26T14:57:46Z</time></trkpt><trkpt lat="43.49090770398813" lon="11.875383879179903"><ele>253.0</ele><time>2026-04-26T14:57:47Z</time></trkpt><trkpt lat="43.490824644225064" lon="11.875432817923766"><ele>252.99999999999997</ele><time>2026-04-26T14:57:48Z</time></trkpt><trkpt lat="43.49074916986212" lon="11.875461064069066"><ele>253.0</ele><time>2026-04-26T14:57:49Z</time></trkpt><trkpt lat="43.49067420757896" lon="11.87547244035284"><ele>253.0</ele><time>2026-04-26T14:57:50Z</time></trkpt><trkpt lat="43.490591458950725" lon="11.875463561980808"><ele>253.0</ele><time>2026-04-26T14:57:51Z</time></trkpt><trkpt lat="43.490503982202554" lon="11.875448488097362"><ele>252.99999999999997</ele><time>2026-04-26T14:57:52Z</time></trkpt><trkpt lat="43.49041597945176" lon="11.875450411289682"><ele>253.0</ele><time>2026-04-26T14:57:53Z</time></trkpt><trkpt lat="43.49032514529029" lon="11.875495872921407"><ele>252.8</ele><time>2026-04-26T14:57:54Z</time></trkpt><trkpt lat="43.49023467434014" lon="11.875570913821132"><ele>252.60000000000002</ele><time>2026-04-26T14:57:55Z</time></trkpt><trkpt lat="43.49013728630652" lon="11.875637086735411"><ele>252.39999999999998</ele><time>2026-04-26T14:57:56Z</time></trkpt><trkpt lat="43.49002814102795" lon="11.875657609575475"><ele>252.2</ele><time>2026-04-26T14:57:57Z</time></trkpt><trkpt lat="43.48991452928808" lon="11.875597990881019"><ele>252.0</ele><time>2026-04-26T14:57:58Z</time></trkpt><trkpt lat="43.48979493492627" lon="11.875562544195823"><ele>252.0</ele><time>2026-04-26T14:57:59Z</time></trkpt><trkpt lat="43.48966904788433" lon="11.875549290958316"><ele>252.0</ele><time>2026-04-26T14:58:00Z</time></trkpt><trkpt lat="43.489555082375404" lon="11.875517125222391"><ele>252.0</ele><time>2026-04-26T14:58:01Z</time></trkpt><trkpt lat="43.48943955043943" lon="11.875507203544563"><ele>252.0</ele><time>2026-04-26T14:58:02Z</time></trkpt><trkpt lat="43.48931296139218" lon="11.875519452653311"><ele>252.5</ele><time>2026-04-26T14:58:03Z</time></trkpt><trkpt lat="43.48919564928719" lon="11.875546680558047"><ele>253.0</ele><time>2026-04-26T14:58:04Z</time></trkpt><trkpt lat="43.489070017023565" lon="11.875577264550497"><ele>253.5</ele><time>2026-04-26T14:58:05Z</time></trkpt><trkpt lat="43.48893511691146" lon="11.875606143593783"><ele>254.0</ele><time>2026-04-26T14:58:06Z</time></trkpt><trkpt lat="43.488798687137205" lon="11.875637047896216"><ele>253.75</ele><time>2026-04-26T14:58:07Z</time></trkpt><trkpt lat="43.48866689676454" lon="11.875666347149519"><ele>253.5</ele><time>2026-04-26T14:58:08Z</time></trkpt><trkpt lat="43.48853442597943" lon="11.875699074270694"><ele>253.25</ele><time>2026-04-26T14:58:09Z</time></trkpt><trkpt lat="43.48840918518207" lon="11.875730093004723"><ele>253.0</ele><time>2026-04-26T14:58:10Z</time></trkpt><trkpt lat="43.488288947597624" lon="11.875759764009196"><ele>253.0</ele><time>2026-04-26T14:58:11Z</time></trkpt><trkpt lat="43.48816595806386" lon="11.875783370878066"><ele>253.0</ele><time>2026-04-26T14:58:12Z</time></trkpt><trkpt lat="43.48804349490353" lon="11.87580948398471"><ele>253.0</ele><time>2026-04-26T14:58:13Z</time></trkpt><trkpt lat="43.4879233168412" lon="11.875835158641486"><ele>253.0</ele><time>2026-04-26T14:58:14Z</time></trkpt><trkpt lat="43.487803060753166" lon="11.875868294667782"><ele>253.0</ele><time>2026-04-26T14:58:15Z</time></trkpt><trkpt lat="43.48768444781135" lon="11.875894725215295"><ele>253.0</ele><time>2026-04-26T14:58:16Z</time></trkpt><trkpt lat="43.487564997182346" lon="11.875917207741422"><ele>253.0</ele><time>2026-04-26T14:58:17Z</time></trkpt><trkpt lat="43.48744624267805" lon="11.875942507635427"><ele>253.0</ele><time>2026-04-26T14:58:18Z</time></trkpt><trkpt lat="43.487326183409195" lon="11.875969033000601"><ele>253.0</ele><time>2026-04-26T14:58:19Z</time></trkpt><trkpt lat="43.48720516985733" lon="11.875993069041732"><ele>253.0</ele><time>2026-04-26T14:58:20Z</time></trkpt><trkpt lat="43.487088225763756" lon="11.876018397882556"><ele>253.0</ele><time>2026-04-26T14:58:21Z</time></trkpt><trkpt lat="43.48697733310504" lon="11.876045923177164"><ele>253.0</ele><time>2026-04-26T14:58:22Z</time></trkpt><trkpt lat="43.48687452833844" lon="11.876069120809438"><ele>252.83333333333331</ele><time>2026-04-26T14:58:23Z</time></trkpt><trkpt lat="43.486781550466105" lon="11.876090735469054"><ele>252.66666666666666</ele><time>2026-04-26T14:58:24Z</time></trkpt><trkpt lat="43.486692695076584" lon="11.876110620016043"><ele>252.5</ele><time>2026-04-26T14:58:25Z</time></trkpt><trkpt lat="43.486607054416176" lon="11.87612702573917"><ele>252.33333333333331</ele><time>2026-04-26T14:58:26Z</time></trkpt><trkpt lat="43.486530236145676" lon="11.87613904933527"><ele>252.16666666666666</ele><time>2026-04-26T14:58:27Z</time></trkpt><trkpt lat="43.48645564611282" lon="11.87614673668211"><ele>252.0</ele><time>2026-04-26T14:58:28Z</time></trkpt><trkpt lat="43.48634665055578" lon="11.876130219247516"><ele>252.0</ele><time>2026-04-26T14:58:30Z</time></trkpt><trkpt lat="43.486265721869934" lon="11.876081767228168"><ele>252.0</ele><time>2026-04-26T14:58:32Z</time></trkpt><trkpt lat="43.486195692938736" lon="11.876011660447633"><ele>252.0</ele><time>2026-04-26T14:58:33Z</time></trkpt><trkpt lat="43.48611683158319" lon="11.87591331579731"><ele>252.0</ele><time>2026-04-26T14:58:34Z</time></trkpt><trkpt lat="43.48603926835492" lon="11.87581852141588"><ele>252.0</ele><time>2026-04-26T14:58:35Z</time></trkpt><trkpt lat="43.48596297524505" lon="11.875722565295625"><ele>251.75</ele><time>2026-04-26T14:58:36Z</time></trkpt><trkpt lat="43.485904835191704" lon="11.875594992738755"><ele>251.5</ele><time>2026-04-26T14:58:37Z</time></trkpt><trkpt lat="43.48585385580434" lon="11.87544550291237"><ele>251.25</ele><time>2026-04-26T14:58:38Z</time></trkpt><trkpt lat="43.48583522697336" lon="11.875259676045667"><ele>251.0</ele><time>2026-04-26T14:58:39Z</time></trkpt><trkpt lat="43.485793330059906" lon="11.875067682635535"><ele>251.0</ele><time>2026-04-26T14:58:40Z</time></trkpt><trkpt lat="43.4857419582726" lon="11.87485584147278"><ele>251.0</ele><time>2026-04-26T14:58:41Z</time></trkpt><trkpt lat="43.48568636724595" lon="11.874641472047688"><ele>251.0</ele><time>2026-04-26T14:58:42Z</time></trkpt><trkpt lat="43.48562048344934" lon="11.87441832819027"><ele>251.0</ele><time>2026-04-26T14:58:43Z</time></trkpt><trkpt lat="43.48554873587757" lon="11.874191699094538"><ele>251.0</ele><time>2026-04-26T14:58:44Z</time></trkpt><trkpt lat="43.48547336993416" lon="11.873970601683837"><ele>251.0</ele><time>2026-04-26T14:58:45Z</time></trkpt><trkpt lat="43.48538880261325" lon="11.873742000352426"><ele>251.0</ele><time>2026-04-26T14:58:46Z</time></trkpt><trkpt lat="43.48529758412846" lon="11.87351944113385"><ele>251.0</ele><time>2026-04-26T14:58:47Z</time></trkpt><trkpt lat="43.48520088032856" lon="11.87330446101688"><ele>251.0</ele><time>2026-04-26T14:58:48Z</time></trkpt><trkpt lat="43.485091109071966" lon="11.873115363611616"><ele>251.0</ele><time>2026-04-26T14:58:49Z</time></trkpt><trkpt lat="43.48500931714633" lon="11.872918106148704"><ele>251.0</ele><time>2026-04-26T14:58:50Z</time></trkpt><trkpt lat="43.4849147055703" lon="11.872745808832395"><ele>251.0</ele><time>2026-04-26T14:58:51Z</time></trkpt><trkpt lat="43.484803926369636" lon="11.872593335923456"><ele>251.0</ele><time>2026-04-26T14:58:52Z</time></trkpt><trkpt lat="43.4847005600817" lon="11.872427740061477"><ele>251.0</ele><time>2026-04-26T14:58:53Z</time></trkpt><trkpt lat="43.48459454158012" lon="11.87226371566811"><ele>251.0</ele><time>2026-04-26T14:58:54Z</time></trkpt><trkpt lat="43.48449031883778" lon="11.872108300366083"><ele>251.0</ele><time>2026-04-26T14:58:55Z</time></trkpt><trkpt lat="43.48438414354336" lon="11.871965273546113"><ele>251.0</ele><time>2026-04-26T14:58:56Z</time></trkpt><trkpt lat="43.48426829227072" lon="11.871807061834282"><ele>251.0</ele><time>2026-04-26T14:58:57Z</time></trkpt><trkpt lat="43.48413996101319" lon="11.871637623162172"><ele>251.0</ele><time>2026-04-26T14:58:58Z</time></trkpt><trkpt lat="43.483998140677144" lon="11.871463211991156"><ele>251.0</ele><time>2026-04-26T14:58:59Z</time></trkpt><trkpt lat="43.483833550746915" lon="11.871285365415769"><ele>251.0</ele><time>2026-04-26T14:59:00Z</time></trkpt><trkpt lat="43.4836530397308" lon="11.871105253139449"><ele>251.0</ele><time>2026-04-26T14:59:01Z</time></trkpt><trkpt lat="43.48344491376639" lon="11.870928425050847"><ele>251.0</ele><time>2026-04-26T14:59:02Z</time></trkpt><trkpt lat="43.483230004423554" lon="11.870763641340922"><ele>251.0</ele><time>2026-04-26T14:59:03Z</time></trkpt><trkpt lat="43.483010403739534" lon="11.870602416036437"><ele>251.0</ele><time>2026-04-26T14:59:04Z</time></trkpt><trkpt lat="43.48278446666503" lon="11.870429545014316"><ele>251.0</ele><time>2026-04-26T14:59:05Z</time></trkpt><trkpt lat="43.48254855410348" lon="11.870250978754182"><ele>251.0</ele><time>2026-04-26T14:59:06Z</time></trkpt><trkpt lat="43.48231302220773" lon="11.870070270731931"><ele>250.0</ele><time>2026-04-26T14:59:07Z</time></trkpt><trkpt lat="43.48207432114139" lon="11.869885082531468"><ele>249.0</ele><time>2026-04-26T14:59:08Z</time></trkpt><trkpt lat="43.48183838476928" lon="11.86969657956013"><ele>249.0</ele><time>2026-04-26T14:59:09Z</time></trkpt><trkpt lat="43.48159633695477" lon="11.869510317852898"><ele>249.0</ele><time>2026-04-26T14:59:10Z</time></trkpt><trkpt lat="43.481353237246985" lon="11.869328137803532"><ele>248.0</ele><time>2026-04-26T14:59:11Z</time></trkpt><trkpt lat="43.48112419008752" lon="11.869152244300652"><ele>247.0</ele><time>2026-04-26T14:59:12Z</time></trkpt><trkpt lat="43.480910934813295" lon="11.868983262199304"><ele>247.0</ele><time>2026-04-26T14:59:13Z</time></trkpt><trkpt lat="43.48070654894721" lon="11.86882174971935"><ele>247.0</ele><time>2026-04-26T14:59:14Z</time></trkpt><trkpt lat="43.480511959176255" lon="11.868673672699938"><ele>247.0</ele><time>2026-04-26T14:59:15Z</time></trkpt><trkpt lat="43.48032304292799" lon="11.868529253631534"><ele>247.0</ele><time>2026-04-26T14:59:16Z</time></trkpt><trkpt lat="43.48014352679572" lon="11.86838633414887"><ele>247.0</ele><time>2026-04-26T14:59:17Z</time></trkpt><trkpt lat="43.4799701045158" lon="11.868253067437156"><ele>247.0</ele><time>2026-04-26T14:59:18Z</time></trkpt><trkpt lat="43.479795937829046" lon="11.868123154656526"><ele>247.0</ele><time>2026-04-26T14:59:19Z</time></trkpt><trkpt lat="43.47962817274681" lon="11.867995491463816"><ele>247.0</ele><time>2026-04-26T14:59:20Z</time></trkpt><trkpt lat="43.47946782770632" lon="11.867873605155042"><ele>247.0</ele><time>2026-04-26T14:59:21Z</time></trkpt><trkpt lat="43.47932540525792" lon="11.867762152467506"><ele>247.0</ele><time>2026-04-26T14:59:22Z</time></trkpt><trkpt lat="43.47919134873457" lon="11.867647955657171"><ele>247.0</ele><time>2026-04-26T14:59:23Z</time></trkpt><trkpt lat="43.47906343568823" lon="11.8675466307175"><ele>247.2</ele><time>2026-04-26T14:59:24Z</time></trkpt><trkpt lat="43.478944670544124" lon="11.867459647718091"><ele>247.39999999999998</ele><time>2026-04-26T14:59:25Z</time></trkpt><trkpt lat="43.478842070050064" lon="11.86738332025493"><ele>247.60000000000002</ele><time>2026-04-26T14:59:26Z</time></trkpt><trkpt lat="43.47875695165925" lon="11.867311009588075"><ele>247.8</ele><time>2026-04-26T14:59:27Z</time></trkpt><trkpt lat="43.47869122504548" lon="11.867255389642557"><ele>248.0</ele><time>2026-04-26T14:59:28Z</time></trkpt><trkpt lat="43.478635723343025" lon="11.867187992527768"><ele>248.0</ele><time>2026-04-26T14:59:29Z</time></trkpt><trkpt lat="43.47858882683701" lon="11.867110637888063"><ele>248.0</ele><time>2026-04-26T14:59:30Z</time></trkpt><trkpt lat="43.478545988165415" lon="11.867001808380431"><ele>248.0</ele><time>2026-04-26T14:59:31Z</time></trkpt><trkpt lat="43.47850660720742" lon="11.866861531569917"><ele>248.0</ele><time>2026-04-26T14:59:32Z</time></trkpt><trkpt lat="43.47844180435627" lon="11.866725986031419"><ele>248.0</ele><time>2026-04-26T14:59:33Z</time></trkpt><trkpt lat="43.47834554697422" lon="11.866653462923212"><ele>248.2</ele><time>2026-04-26T14:59:34Z</time></trkpt><trkpt lat="43.47824378679526" lon="11.866623546908171"><ele>248.4</ele><time>2026-04-26T14:59:35Z</time></trkpt><trkpt lat="43.47814552947066" lon="11.866633099971702"><ele>248.59999999999997</ele><time>2026-04-26T14:59:36Z</time></trkpt><trkpt lat="43.478042394696956" lon="11.866665876373903"><ele>248.79999999999998</ele><time>2026-04-26T14:59:37Z</time></trkpt><trkpt lat="43.47793534676618" lon="11.866703305717413"><ele>249.0</ele><time>2026-04-26T14:59:38Z</time></trkpt><trkpt lat="43.47781743692934" lon="11.866696738772204"><ele>249.0</ele><time>2026-04-26T14:59:39Z</time></trkpt><trkpt lat="43.477689522563104" lon="11.86663096058291"><ele>249.0</ele><time>2026-04-26T14:59:40Z</time></trkpt><trkpt lat="43.477557210011334" lon="11.866526740861675"><ele>249.0</ele><time>2026-04-26T14:59:41Z</time></trkpt><trkpt lat="43.477411135506316" lon="11.866385296520166"><ele>249.0</ele><time>2026-04-26T14:59:42Z</time></trkpt><trkpt lat="43.47725722878585" lon="11.866249183493752"><ele>249.0</ele><time>2026-04-26T14:59:43Z</time></trkpt><trkpt lat="43.477094770528126" lon="11.866108207013179"><ele>249.0</ele><time>2026-04-26T14:59:44Z</time></trkpt><trkpt lat="43.47691637690518" lon="11.865956763624114"><ele>249.33333333333331</ele><time>2026-04-26T14:59:45Z</time></trkpt><trkpt lat="43.47673561425118" lon="11.865812591043033"><ele>249.66666666666666</ele><time>2026-04-26T14:59:46Z</time></trkpt><trkpt lat="43.47654779782644" lon="11.865667631280154"><ele>250.0</ele><time>2026-04-26T14:59:47Z</time></trkpt><trkpt lat="43.476353312880086" lon="11.865526179600241"><ele>249.0</ele><time>2026-04-26T14:59:48Z</time></trkpt><trkpt lat="43.4761513499365" lon="11.865384306009062"><ele>248.0</ele><time>2026-04-26T14:59:49Z</time></trkpt><trkpt lat="43.47595042040547" lon="11.86523613660097"><ele>247.33333333333334</ele><time>2026-04-26T14:59:50Z</time></trkpt><trkpt lat="43.47575667280754" lon="11.86508516565871"><ele>246.66666666666669</ele><time>2026-04-26T14:59:51Z</time></trkpt><trkpt lat="43.475569223332954" lon="11.864935591910864"><ele>246.0</ele><time>2026-04-26T14:59:52Z</time></trkpt><trkpt lat="43.475387080634704" lon="11.864788847727164"><ele>246.0</ele><time>2026-04-26T14:59:53Z</time></trkpt><trkpt lat="43.47521198640253" lon="11.864652189928112"><ele>246.0</ele><time>2026-04-26T14:59:54Z</time></trkpt><trkpt lat="43.47503508253405" lon="11.864518080765135"><ele>246.0</ele><time>2026-04-26T14:59:55Z</time></trkpt><trkpt lat="43.47486343298608" lon="11.864386474758852"><ele>246.33333333333331</ele><time>2026-04-26T14:59:56Z</time></trkpt><trkpt lat="43.47468774596479" lon="11.864250133179706"><ele>246.66666666666666</ele><time>2026-04-26T14:59:57Z</time></trkpt><trkpt lat="43.4745173981159" lon="11.864115249838381"><ele>247.0</ele><time>2026-04-26T14:59:58Z</time></trkpt><trkpt lat="43.474357145320404" lon="11.863991086828912"><ele>246.33333333333331</ele><time>2026-04-26T14:59:59Z</time></trkpt><trkpt lat="43.474208972503604" lon="11.86387299247623"><ele>245.66666666666669</ele><time>2026-04-26T15:00:00Z</time></trkpt><trkpt lat="43.47406347920885" lon="11.863746709500187"><ele>245.0</ele><time>2026-04-26T15:00:01Z</time></trkpt><trkpt lat="43.47391918895687" lon="11.86363193684523"><ele>245.0</ele><time>2026-04-26T15:00:02Z</time></trkpt><trkpt lat="43.47377527701335" lon="11.863517990109807"><ele>245.0</ele><time>2026-04-26T15:00:03Z</time></trkpt><trkpt lat="43.47363295822663" lon="11.863404141578803"><ele>245.0</ele><time>2026-04-26T15:00:04Z</time></trkpt><trkpt lat="43.47349156973025" lon="11.863296391540171"><ele>245.25</ele><time>2026-04-26T15:00:05Z</time></trkpt><trkpt lat="43.47335281292817" lon="11.863196273161517"><ele>245.5</ele><time>2026-04-26T15:00:06Z</time></trkpt><trkpt lat="43.47322592588941" lon="11.863093318463497"><ele>245.75</ele><time>2026-04-26T15:00:07Z</time></trkpt><trkpt lat="43.473099789500075" lon="11.863003673867526"><ele>246.0</ele><time>2026-04-26T15:00:08Z</time></trkpt><trkpt lat="43.47298284921426" lon="11.86291808235003"><ele>246.0</ele><time>2026-04-26T15:00:09Z</time></trkpt><trkpt lat="43.47287584020431" lon="11.86282851915174"><ele>246.00000000000003</ele><time>2026-04-26T15:00:10Z</time></trkpt><trkpt lat="43.47277788583163" lon="11.862752453432472"><ele>246.00000000000003</ele><time>2026-04-26T15:00:11Z</time></trkpt><trkpt lat="43.47269359156077" lon="11.86269200468131"><ele>246.0</ele><time>2026-04-26T15:00:12Z</time></trkpt><trkpt lat="43.47261448319452" lon="11.862638570365974"><ele>246.0</ele><time>2026-04-26T15:00:13Z</time></trkpt><trkpt lat="43.472535500859394" lon="11.862587738670115"><ele>246.20000000000002</ele><time>2026-04-26T15:00:14Z</time></trkpt><trkpt lat="43.47246801241175" lon="11.862516035359468"><ele>246.40000000000003</ele><time>2026-04-26T15:00:15Z</time></trkpt><trkpt lat="43.472389487625584" lon="11.86245550580733"><ele>246.6</ele><time>2026-04-26T15:00:16Z</time></trkpt><trkpt lat="43.47230528089223" lon="11.862392429923412"><ele>246.8</ele><time>2026-04-26T15:00:17Z</time></trkpt><trkpt lat="43.472218622153356" lon="11.86233232589836"><ele>247.0</ele><time>2026-04-26T15:00:18Z</time></trkpt><trkpt lat="43.472123759486024" lon="11.862271634591998"><ele>247.75</ele><time>2026-04-26T15:00:19Z</time></trkpt><trkpt lat="43.472023250629746" lon="11.86221254624624"><ele>248.5</ele><time>2026-04-26T15:00:20Z</time></trkpt><trkpt lat="43.47191650660434" lon="11.862158744267152"><ele>249.25</ele><time>2026-04-26T15:00:21Z</time></trkpt><trkpt lat="43.47180701182159" lon="11.862111196521926"><ele>250.0</ele><time>2026-04-26T15:00:22Z</time></trkpt><trkpt lat="43.471691628941564" lon="11.862068298317553"><ele>250.0</ele><time>2026-04-26T15:00:23Z</time></trkpt><trkpt lat="43.471579808032494" lon="11.862032036485928"><ele>250.0</ele><time>2026-04-26T15:00:24Z</time></trkpt><trkpt lat="43.47146489550207" lon="11.861994548427308"><ele>250.0</ele><time>2026-04-26T15:00:25Z</time></trkpt><trkpt lat="43.47136055795032" lon="11.86196196586054"><ele>250.0</ele><time>2026-04-26T15:00:26Z</time></trkpt><trkpt lat="43.471259339637726" lon="11.86193035731962"><ele>250.0</ele><time>2026-04-26T15:00:27Z</time></trkpt><trkpt lat="43.471160984981786" lon="11.86189977600188"><ele>249.8</ele><time>2026-04-26T15:00:28Z</time></trkpt><trkpt lat="43.47105685521169" lon="11.8618684786595"><ele>249.6</ele><time>2026-04-26T15:00:29Z</time></trkpt><trkpt lat="43.47095236588972" lon="11.86183515470541"><ele>249.39999999999998</ele><time>2026-04-26T15:00:30Z</time></trkpt><trkpt lat="43.47084148284912" lon="11.861800695721088"><ele>249.2</ele><time>2026-04-26T15:00:31Z</time></trkpt><trkpt lat="43.47072389540304" lon="11.861762753905653"><ele>249.0</ele><time>2026-04-26T15:00:32Z</time></trkpt><trkpt lat="43.470600881883634" lon="11.861723398620732"><ele>248.75</ele><time>2026-04-26T15:00:33Z</time></trkpt><trkpt lat="43.47047310347233" lon="11.861682518909907"><ele>248.5</ele><time>2026-04-26T15:00:34Z</time></trkpt><trkpt lat="43.4703431031146" lon="11.861640930055712"><ele>248.25</ele><time>2026-04-26T15:00:35Z</time></trkpt><trkpt lat="43.47021303588259" lon="11.861599318078042"><ele>248.0</ele><time>2026-04-26T15:00:36Z</time></trkpt><trkpt lat="43.470079218058245" lon="11.861556506214752"><ele>248.0</ele><time>2026-04-26T15:00:37Z</time></trkpt><trkpt lat="43.46995338284909" lon="11.861517595700708"><ele>248.0</ele><time>2026-04-26T15:00:38Z</time></trkpt><trkpt lat="43.46982889361937" lon="11.861478507771805"><ele>248.0</ele><time>2026-04-26T15:00:39Z</time></trkpt><trkpt lat="43.46969978099211" lon="11.861439756945662"><ele>248.0</ele><time>2026-04-26T15:00:40Z</time></trkpt><trkpt lat="43.469561988668644" lon="11.861399916512935"><ele>248.33333333333334</ele><time>2026-04-26T15:00:41Z</time></trkpt><trkpt lat="43.46942339952133" lon="11.861362250189252"><ele>248.66666666666669</ele><time>2026-04-26T15:00:42Z</time></trkpt><trkpt lat="43.46926790482955" lon="11.861324877861657"><ele>249.0</ele><time>2026-04-26T15:00:43Z</time></trkpt><trkpt lat="43.469091824693415" lon="11.861297998039888"><ele>249.0</ele><time>2026-04-26T15:00:44Z</time></trkpt><trkpt lat="43.468914779580004" lon="11.86124889172119"><ele>249.0</ele><time>2026-04-26T15:00:45Z</time></trkpt><trkpt lat="43.468729772313615" lon="11.861202078753186"><ele>249.0</ele><time>2026-04-26T15:00:46Z</time></trkpt><trkpt lat="43.46853483067475" lon="11.861156380216"><ele>249.0</ele><time>2026-04-26T15:00:47Z</time></trkpt><trkpt lat="43.46833594719454" lon="11.86111364615632"><ele>249.0</ele><time>2026-04-26T15:00:48Z</time></trkpt><trkpt lat="43.468144785079446" lon="11.861080213818171"><ele>249.0</ele><time>2026-04-26T15:00:49Z</time></trkpt><trkpt lat="43.467950127481394" lon="11.86105329784996"><ele>248.66666666666669</ele><time>2026-04-26T15:00:50Z</time></trkpt><trkpt lat="43.46775508138512" lon="11.86102622599233"><ele>248.33333333333334</ele><time>2026-04-26T15:00:51Z</time></trkpt><trkpt lat="43.46755888449223" lon="11.860997158748763"><ele>248.0</ele><time>2026-04-26T15:00:52Z</time></trkpt><trkpt lat="43.46735446109167" lon="11.860965496945848"><ele>248.0</ele><time>2026-04-26T15:00:53Z</time></trkpt><trkpt lat="43.46714383042035" lon="11.860937110451728"><ele>248.0</ele><time>2026-04-26T15:00:54Z</time></trkpt><trkpt lat="43.466930739558826" lon="11.860914416953966"><ele>248.0</ele><time>2026-04-26T15:00:55Z</time></trkpt><trkpt lat="43.46671326972781" lon="11.86089880511095"><ele>248.66666666666669</ele><time>2026-04-26T15:00:56Z</time></trkpt><trkpt lat="43.46649673469559" lon="11.860885455504949"><ele>249.33333333333331</ele><time>2026-04-26T15:00:57Z</time></trkpt><trkpt lat="43.46628318024289" lon="11.860882863499501"><ele>250.0</ele><time>2026-04-26T15:00:58Z</time></trkpt><trkpt lat="43.46606670035927" lon="11.860880865014101"><ele>250.33333333333331</ele><time>2026-04-26T15:00:59Z</time></trkpt><trkpt lat="43.46585211371744" lon="11.860883510867925"><ele>250.66666666666669</ele><time>2026-04-26T15:01:00Z</time></trkpt><trkpt lat="43.46563412154214" lon="11.860892859291297"><ele>251.0</ele><time>2026-04-26T15:01:01Z</time></trkpt><trkpt lat="43.46541900565153" lon="11.860902840821474"><ele>250.66666666666669</ele><time>2026-04-26T15:01:02Z</time></trkpt><trkpt lat="43.4652058805969" lon="11.860915688876158"><ele>250.33333333333331</ele><time>2026-04-26T15:01:03Z</time></trkpt><trkpt lat="43.464992226895525" lon="11.860936041023411"><ele>250.0</ele><time>2026-04-26T15:01:04Z</time></trkpt><trkpt lat="43.46477608390563" lon="11.86095751148965"><ele>249.66666666666666</ele><time>2026-04-26T15:01:05Z</time></trkpt><trkpt lat="43.46455751957025" lon="11.860977600674978"><ele>249.33333333333331</ele><time>2026-04-26T15:01:06Z</time></trkpt><trkpt lat="43.46433890000626" lon="11.860998033404325"><ele>249.0</ele><time>2026-04-26T15:01:07Z</time></trkpt><trkpt lat="43.46412163636592" lon="11.861017019290776"><ele>249.0</ele><time>2026-04-26T15:01:08Z</time></trkpt><trkpt lat="43.46390449934256" lon="11.861038633572312"><ele>249.0</ele><time>2026-04-26T15:01:09Z</time></trkpt><trkpt lat="43.46368672233067" lon="11.861062600720762"><ele>249.0</ele><time>2026-04-26T15:01:10Z</time></trkpt><trkpt lat="43.46346816670522" lon="11.861082985476772"><ele>249.0</ele><time>2026-04-26T15:01:11Z</time></trkpt><trkpt lat="43.46324761599993" lon="11.861105231447967"><ele>249.0</ele><time>2026-04-26T15:01:12Z</time></trkpt><trkpt lat="43.463027959337325" lon="11.861125958698583"><ele>249.0</ele><time>2026-04-26T15:01:13Z</time></trkpt><trkpt lat="43.46281018620218" lon="11.861145822130645"><ele>249.0</ele><time>2026-04-26T15:01:14Z</time></trkpt><trkpt lat="43.46259177596127" lon="11.861165549063655"><ele>249.0</ele><time>2026-04-26T15:01:15Z</time></trkpt><trkpt lat="43.46237511666638" lon="11.86118359420371"><ele>249.0</ele><time>2026-04-26T15:01:16Z</time></trkpt><trkpt lat="43.462158029681255" lon="11.861202420295134"><ele>248.66666666666669</ele><time>2026-04-26T15:01:17Z</time></trkpt><trkpt lat="43.461940177225145" lon="11.861221936578755"><ele>248.33333333333334</ele><time>2026-04-26T15:01:18Z</time></trkpt><trkpt lat="43.461723886663805" lon="11.861239484424745"><ele>248.0</ele><time>2026-04-26T15:01:19Z</time></trkpt><trkpt lat="43.461508877604466" lon="11.861253942362367"><ele>248.0</ele><time>2026-04-26T15:01:20Z</time></trkpt><trkpt lat="43.46129485349256" lon="11.861266180617152"><ele>248.0</ele><time>2026-04-26T15:01:21Z</time></trkpt><trkpt lat="43.4610863470868" lon="11.861278980295882"><ele>248.0</ele><time>2026-04-26T15:01:22Z</time></trkpt><trkpt lat="43.460889307438656" lon="11.861293349414415"><ele>248.66666666666669</ele><time>2026-04-26T15:01:23Z</time></trkpt><trkpt lat="43.460703003888995" lon="11.861307096279527"><ele>249.33333333333331</ele><time>2026-04-26T15:01:24Z</time></trkpt><trkpt lat="43.460522506996554" lon="11.861321163090759"><ele>250.0</ele><time>2026-04-26T15:01:25Z</time></trkpt><trkpt lat="43.46035228477609" lon="11.861336392486567"><ele>250.0</ele><time>2026-04-26T15:01:26Z</time></trkpt><trkpt lat="43.460194599045224" lon="11.86135955460072"><ele>250.0</ele><time>2026-04-26T15:01:27Z</time></trkpt><trkpt lat="43.46005329387997" lon="11.861380586991748"><ele>250.0</ele><time>2026-04-26T15:01:28Z</time></trkpt><trkpt lat="43.459928774904085" lon="11.861397674146104"><ele>250.0</ele><time>2026-04-26T15:01:29Z</time></trkpt><trkpt lat="43.45982579116106" lon="11.861416157197457"><ele>250.0</ele><time>2026-04-26T15:01:30Z</time></trkpt><trkpt lat="43.459742421222785" lon="11.861423856159075"><ele>250.0</ele><time>2026-04-26T15:01:31Z</time></trkpt><trkpt lat="43.45967707077367" lon="11.861417118067125"><ele>250.0</ele><time>2026-04-26T15:01:32Z</time></trkpt><trkpt lat="43.45955136561621" lon="11.86133022781454"><ele>250.0</ele><time>2026-04-26T15:01:34Z</time></trkpt><trkpt lat="43.459478301068266" lon="11.8612350320962"><ele>250.0</ele><time>2026-04-26T15:01:35Z</time></trkpt><trkpt lat="43.459394961294066" lon="11.861140349846695"><ele>249.2</ele><time>2026-04-26T15:01:36Z</time></trkpt><trkpt lat="43.45928929698237" lon="11.861086138683564"><ele>248.4</ele><time>2026-04-26T15:01:37Z</time></trkpt><trkpt lat="43.45917434231107" lon="11.861085861638864"><ele>247.60000000000002</ele><time>2026-04-26T15:01:38Z</time></trkpt><trkpt lat="43.45906928287081" lon="11.861130668094244"><ele>246.8</ele><time>2026-04-26T15:01:39Z</time></trkpt><trkpt lat="43.45898372279081" lon="11.861212955363166"><ele>246.0</ele><time>2026-04-26T15:01:40Z</time></trkpt><trkpt lat="43.458916440789814" lon="11.861332009983759"><ele>246.0</ele><time>2026-04-26T15:01:41Z</time></trkpt><trkpt lat="43.458857282258904" lon="11.861461438454466"><ele>246.00000000000003</ele><time>2026-04-26T15:01:42Z</time></trkpt><trkpt lat="43.45880052625891" lon="11.861578993878153"><ele>246.00000000000003</ele><time>2026-04-26T15:01:43Z</time></trkpt><trkpt lat="43.458721061953796" lon="11.861672251591582"><ele>246.0</ele><time>2026-04-26T15:01:44Z</time></trkpt><trkpt lat="43.45861345849901" lon="11.86173823098532"><ele>246.0</ele><time>2026-04-26T15:01:45Z</time></trkpt><trkpt lat="43.45847967874892" lon="11.861786159028851"><ele>246.66666666666669</ele><time>2026-04-26T15:01:46Z</time></trkpt><trkpt lat="43.45833214068487" lon="11.861840251763969"><ele>247.33333333333334</ele><time>2026-04-26T15:01:47Z</time></trkpt><trkpt lat="43.45818460872456" lon="11.861893223888138"><ele>248.0</ele><time>2026-04-26T15:01:48Z</time></trkpt><trkpt lat="43.45804076278312" lon="11.861949447223811"><ele>248.25</ele><time>2026-04-26T15:01:49Z</time></trkpt><trkpt lat="43.457903458429605" lon="11.862005339948889"><ele>248.5</ele><time>2026-04-26T15:01:50Z</time></trkpt><trkpt lat="43.45776552653948" lon="11.862059328119887"><ele>248.75</ele><time>2026-04-26T15:01:51Z</time></trkpt><trkpt lat="43.45762293717518" lon="11.862119334364001"><ele>249.0</ele><time>2026-04-26T15:01:52Z</time></trkpt><trkpt lat="43.457480062646006" lon="11.862181606748276"><ele>249.0</ele><time>2026-04-26T15:01:53Z</time></trkpt><trkpt lat="43.45733880334968" lon="11.862246223497694"><ele>249.0</ele><time>2026-04-26T15:01:54Z</time></trkpt><trkpt lat="43.45719985617371" lon="11.862314505652822"><ele>249.0</ele><time>2026-04-26T15:01:55Z</time></trkpt><trkpt lat="43.457062629803865" lon="11.862385947886779"><ele>249.0</ele><time>2026-04-26T15:01:56Z</time></trkpt><trkpt lat="43.45692914145445" lon="11.862456872321347"><ele>249.5</ele><time>2026-04-26T15:01:57Z</time></trkpt><trkpt lat="43.45679285027037" lon="11.862525678160438"><ele>250.0</ele><time>2026-04-26T15:01:58Z</time></trkpt><trkpt lat="43.45665653249064" lon="11.862598061344672"><ele>250.5</ele><time>2026-04-26T15:01:59Z</time></trkpt><trkpt lat="43.45652180536961" lon="11.862675065264344"><ele>251.0</ele><time>2026-04-26T15:02:00Z</time></trkpt><trkpt lat="43.456387437458865" lon="11.862754540992562"><ele>251.0</ele><time>2026-04-26T15:02:01Z</time></trkpt><trkpt lat="43.45625180297185" lon="11.862834418084118"><ele>251.0</ele><time>2026-04-26T15:02:02Z</time></trkpt><trkpt lat="43.45611598795249" lon="11.862916752605914"><ele>251.0</ele><time>2026-04-26T15:02:03Z</time></trkpt><trkpt lat="43.45598012572014" lon="11.86300296778949"><ele>251.0</ele><time>2026-04-26T15:02:04Z</time></trkpt><trkpt lat="43.45584614097083" lon="11.863091559031089"><ele>251.0</ele><time>2026-04-26T15:02:05Z</time></trkpt><trkpt lat="43.4557117549709" lon="11.863183191098358"><ele>251.0</ele><time>2026-04-26T15:02:06Z</time></trkpt><trkpt lat="43.45557809012296" lon="11.863276610773813"><ele>251.0</ele><time>2026-04-26T15:02:07Z</time></trkpt><trkpt lat="43.45544329158279" lon="11.863372701755242"><ele>251.66666666666669</ele><time>2026-04-26T15:02:08Z</time></trkpt><trkpt lat="43.45530828755348" lon="11.863471954979046"><ele>252.33333333333331</ele><time>2026-04-26T15:02:09Z</time></trkpt><trkpt lat="43.45517409953549" lon="11.86357253848323"><ele>253.0</ele><time>2026-04-26T15:02:10Z</time></trkpt><trkpt lat="43.45503864505187" lon="11.863672708966359"><ele>253.0</ele><time>2026-04-26T15:02:11Z</time></trkpt><trkpt lat="43.45490978621259" lon="11.863783097492538"><ele>253.0</ele><time>2026-04-26T15:02:12Z</time></trkpt><trkpt lat="43.45477947745812" lon="11.863885153175886"><ele>253.0</ele><time>2026-04-26T15:02:13Z</time></trkpt><trkpt lat="43.45465116101438" lon="11.863992083377099"><ele>253.5</ele><time>2026-04-26T15:02:14Z</time></trkpt><trkpt lat="43.45452784138254" lon="11.864099040227192"><ele>254.0</ele><time>2026-04-26T15:02:15Z</time></trkpt><trkpt lat="43.45440438471626" lon="11.864206436639282"><ele>254.5</ele><time>2026-04-26T15:02:16Z</time></trkpt><trkpt lat="43.454282366426625" lon="11.864312197797016"><ele>255.0</ele><time>2026-04-26T15:02:17Z</time></trkpt><trkpt lat="43.45416324000134" lon="11.864419489592532"><ele>255.0</ele><time>2026-04-26T15:02:18Z</time></trkpt><trkpt lat="43.45404721876164" lon="11.864524484451604"><ele>255.0</ele><time>2026-04-26T15:02:19Z</time></trkpt><trkpt lat="43.45393840311404" lon="11.864630281887218"><ele>255.0</ele><time>2026-04-26T15:02:20Z</time></trkpt><trkpt lat="43.45383573050267" lon="11.864731724322661"><ele>255.0</ele><time>2026-04-26T15:02:21Z</time></trkpt><trkpt lat="43.45374178532013" lon="11.864828849098021"><ele>254.66666666666666</ele><time>2026-04-26T15:02:22Z</time></trkpt><trkpt lat="43.45365740592762" lon="11.864917866854299"><ele>254.33333333333331</ele><time>2026-04-26T15:02:23Z</time></trkpt><trkpt lat="43.45358487790877" lon="11.864997191875865"><ele>254.0</ele><time>2026-04-26T15:02:24Z</time></trkpt><trkpt lat="43.453522404981385" lon="11.865062572061804"><ele>253.66666666666666</ele><time>2026-04-26T15:02:25Z</time></trkpt><trkpt lat="43.45346608222418" lon="11.865101446885776"><ele>253.33333333333331</ele><time>2026-04-26T15:02:26Z</time></trkpt><trkpt lat="43.45340332772411" lon="11.86512445471878"><ele>253.0</ele><time>2026-04-26T15:02:27Z</time></trkpt><trkpt lat="43.45332599475051" lon="11.865124077223879"><ele>252.83333333333331</ele><time>2026-04-26T15:02:28Z</time></trkpt><trkpt lat="43.45324152133281" lon="11.865112884678336"><ele>252.66666666666666</ele><time>2026-04-26T15:02:29Z</time></trkpt><trkpt lat="43.45315504972879" lon="11.865137203233097"><ele>252.5</ele><time>2026-04-26T15:02:30Z</time></trkpt><trkpt lat="43.45308724708584" lon="11.865205114652063"><ele>252.33333333333331</ele><time>2026-04-26T15:02:31Z</time></trkpt><trkpt lat="43.4530395935822" lon="11.865308507294003"><ele>252.16666666666666</ele><time>2026-04-26T15:02:32Z</time></trkpt><trkpt lat="43.45301224131377" lon="11.865431583784725"><ele>252.0</ele><time>2026-04-26T15:02:33Z</time></trkpt><trkpt lat="43.4529926296865" lon="11.865560977687434"><ele>252.25</ele><time>2026-04-26T15:02:34Z</time></trkpt><trkpt lat="43.45295579860291" lon="11.8656856134914"><ele>252.5</ele><time>2026-04-26T15:02:35Z</time></trkpt><trkpt lat="43.452883046852556" lon="11.865802019758496"><ele>252.75</ele><time>2026-04-26T15:02:36Z</time></trkpt><trkpt lat="43.45279057524853" lon="11.8659170095851"><ele>253.0</ele><time>2026-04-26T15:02:37Z</time></trkpt><trkpt lat="43.45269148876222" lon="11.86603620045265"><ele>252.5</ele><time>2026-04-26T15:02:38Z</time></trkpt><trkpt lat="43.45258744620316" lon="11.866159272290906"><ele>252.0</ele><time>2026-04-26T15:02:39Z</time></trkpt><trkpt lat="43.45248917055482" lon="11.866284955977973"><ele>251.5</ele><time>2026-04-26T15:02:40Z</time></trkpt><trkpt lat="43.452387067749335" lon="11.866415060534399"><ele>251.0</ele><time>2026-04-26T15:02:41Z</time></trkpt><trkpt lat="43.45228317800182" lon="11.866547012223426"><ele>251.0</ele><time>2026-04-26T15:02:42Z</time></trkpt><trkpt lat="43.45219469724013" lon="11.866664261623255"><ele>251.00000000000003</ele><time>2026-04-26T15:02:43Z</time></trkpt><trkpt lat="43.45212780938184" lon="11.866756928011966"><ele>251.00000000000003</ele><time>2026-04-26T15:02:44Z</time></trkpt><trkpt lat="43.45207804717058" lon="11.86682456268487"><ele>251.0</ele><time>2026-04-26T15:02:45Z</time></trkpt><trkpt lat="43.452030465036344" lon="11.866921164565198"><ele>251.0</ele><time>2026-04-26T15:03:18.999Z</time></trkpt><trkpt lat="43.45193184693472" lon="11.867056311820132"><ele>251.75</ele><time>2026-04-26T15:03:20.999Z</time></trkpt><trkpt lat="43.45185799177089" lon="11.86716309642819"><ele>252.5</ele><time>2026-04-26T15:03:21.999Z</time></trkpt><trkpt lat="43.451783297944495" lon="11.867277621001989"><ele>253.25</ele><time>2026-04-26T15:03:22.999Z</time></trkpt><trkpt lat="43.45169208480828" lon="11.867417948403242"><ele>254.0</ele><time>2026-04-26T15:03:23.999Z</time></trkpt><trkpt lat="43.45160522041232" lon="11.867573246460031"><ele>253.66666666666669</ele><time>2026-04-26T15:03:24.999Z</time></trkpt><trkpt lat="43.45151394998045" lon="11.867725608781377"><ele>253.33333333333331</ele><time>2026-04-26T15:03:25.999Z</time></trkpt><trkpt lat="43.45141490646291" lon="11.867891504237715"><ele>253.0</ele><time>2026-04-26T15:03:26.999Z</time></trkpt><trkpt lat="43.45130877429473" lon="11.868075621367588"><ele>253.66666666666666</ele><time>2026-04-26T15:03:27.999Z</time></trkpt><trkpt lat="43.45119787050467" lon="11.86827153764811"><ele>254.33333333333331</ele><time>2026-04-26T15:03:28.999Z</time></trkpt><trkpt lat="43.45109144460713" lon="11.86845906964843"><ele>255.0</ele><time>2026-04-26T15:03:29.999Z</time></trkpt><trkpt lat="43.450978219589956" lon="11.868655605583747"><ele>255.0</ele><time>2026-04-26T15:03:30.999Z</time></trkpt><trkpt lat="43.45086114758206" lon="11.868855897024158"><ele>255.0</ele><time>2026-04-26T15:03:31.999Z</time></trkpt><trkpt lat="43.45074142413743" lon="11.869064904785134"><ele>255.0</ele><time>2026-04-26T15:03:32.999Z</time></trkpt><trkpt lat="43.45062007926743" lon="11.869277563788888"><ele>255.0</ele><time>2026-04-26T15:03:33.999Z</time></trkpt><trkpt lat="43.450499912851896" lon="11.869482590370646"><ele>255.0</ele><time>2026-04-26T15:03:34.999Z</time></trkpt><trkpt lat="43.450375921344566" lon="11.869692446097671"><ele>255.0</ele><time>2026-04-26T15:03:35.999Z</time></trkpt><trkpt lat="43.450252775888636" lon="11.869907765276638"><ele>255.33333333333331</ele><time>2026-04-26T15:03:36.999Z</time></trkpt><trkpt lat="43.450127998742644" lon="11.870126244503957"><ele>255.66666666666666</ele><time>2026-04-26T15:03:37.999Z</time></trkpt><trkpt lat="43.45000209953347" lon="11.870342747060027"><ele>256.0</ele><time>2026-04-26T15:03:38.999Z</time></trkpt><trkpt lat="43.44987778120711" lon="11.870552140517583"><ele>256.0</ele><time>2026-04-26T15:03:39.999Z</time></trkpt><trkpt lat="43.44975020839729" lon="11.870766075327165"><ele>256.0</ele><time>2026-04-26T15:03:40.999Z</time></trkpt><trkpt lat="43.449627656645426" lon="11.870989660238921"><ele>256.0</ele><time>2026-04-26T15:03:41.999Z</time></trkpt><trkpt lat="43.44949948267921" lon="11.87120545162068"><ele>256.3333333333333</ele><time>2026-04-26T15:03:42.999Z</time></trkpt><trkpt lat="43.44937594165591" lon="11.871428358241278"><ele>256.6666666666667</ele><time>2026-04-26T15:03:43.999Z</time></trkpt><trkpt lat="43.449241257148884" lon="11.871660240506584"><ele>257.0</ele><time>2026-04-26T15:03:44.999Z</time></trkpt><trkpt lat="43.4491232447727" lon="11.87186896732369"><ele>257.33333333333337</ele><time>2026-04-26T15:03:46Z</time></trkpt><trkpt lat="43.44900757448363" lon="11.87206460775905"><ele>257.6666666666667</ele><time>2026-04-26T15:03:47Z</time></trkpt><trkpt lat="43.44889965805519" lon="11.872255063966337"><ele>258.0</ele><time>2026-04-26T15:03:48Z</time></trkpt><trkpt lat="43.448795598508696" lon="11.872433506431598"><ele>257.6666666666667</ele><time>2026-04-26T15:03:49Z</time></trkpt><trkpt lat="43.44869633510181" lon="11.872604845835706"><ele>257.33333333333337</ele><time>2026-04-26T15:03:50Z</time></trkpt><trkpt lat="43.44860196351766" lon="11.872765546162984"><ele>257.0</ele><time>2026-04-26T15:03:51Z</time></trkpt><trkpt lat="43.44851136266127" lon="11.87291318572154"><ele>256.75</ele><time>2026-04-26T15:03:52Z</time></trkpt><trkpt lat="43.44840961331396" lon="11.873037114788971"><ele>256.5</ele><time>2026-04-26T15:03:53Z</time></trkpt><trkpt lat="43.44829287822765" lon="11.873103687841432"><ele>256.25</ele><time>2026-04-26T15:03:54Z</time></trkpt><trkpt lat="43.44817185155823" lon="11.873093684598045"><ele>256.0</ele><time>2026-04-26T15:03:55Z</time></trkpt><trkpt lat="43.44806248433504" lon="11.873056697141868"><ele>256.0</ele><time>2026-04-26T15:03:56Z</time></trkpt><trkpt lat="43.4479481766776" lon="11.873001850528144"><ele>256.0</ele><time>2026-04-26T15:03:57Z</time></trkpt><trkpt lat="43.44788392607678" lon="11.872861767924027"><ele>256.0</ele><time>2026-04-26T15:03:58Z</time></trkpt><trkpt lat="43.447821769257196" lon="11.872727036681544"><ele>256.0</ele><time>2026-04-26T15:03:59Z</time></trkpt><trkpt lat="43.44777232380066" lon="11.87258896979635"><ele>256.16666666666663</ele><time>2026-04-26T15:04:00Z</time></trkpt><trkpt lat="43.44773919732693" lon="11.872454941718393"><ele>256.3333333333333</ele><time>2026-04-26T15:04:01Z</time></trkpt><trkpt lat="43.447704256760424" lon="11.872350492288511"><ele>256.5</ele><time>2026-04-26T15:04:02Z</time></trkpt><trkpt lat="43.44763285396832" lon="11.872268169843913"><ele>256.6666666666667</ele><time>2026-04-26T15:04:04Z</time></trkpt><trkpt lat="43.44754604800023" lon="11.872331338171524"><ele>256.83333333333337</ele><time>2026-04-26T15:04:10Z</time></trkpt><trkpt lat="43.44751538062631" lon="11.872418887707981"><ele>257.0</ele><time>2026-04-26T15:04:11Z</time></trkpt><trkpt lat="43.447500761466245" lon="11.87254471257596"><ele>256.75</ele><time>2026-04-26T15:04:12Z</time></trkpt><trkpt lat="43.44750888911122" lon="11.87270083685135"><ele>256.5</ele><time>2026-04-26T15:04:13Z</time></trkpt><trkpt lat="43.44751738877494" lon="11.872896785428106"><ele>256.25</ele><time>2026-04-26T15:04:14Z</time></trkpt><trkpt lat="43.44751742569003" lon="11.873099568646902"><ele>256.0</ele><time>2026-04-26T15:04:15Z</time></trkpt><trkpt lat="43.447502754490245" lon="11.873344796150628"><ele>256.3333333333333</ele><time>2026-04-26T15:04:16Z</time></trkpt><trkpt lat="43.44748311423145" lon="11.873593081166895"><ele>256.6666666666667</ele><time>2026-04-26T15:04:17Z</time></trkpt><trkpt lat="43.44743881570158" lon="11.873854394690053"><ele>257.0</ele><time>2026-04-26T15:04:18Z</time></trkpt><trkpt lat="43.44738547303743" lon="11.874128088843758"><ele>257.6666666666667</ele><time>2026-04-26T15:04:19Z</time></trkpt><trkpt lat="43.4473214140572" lon="11.874400800595968"><ele>258.3333333333333</ele><time>2026-04-26T15:04:19.999Z</time></trkpt><trkpt lat="43.44724137376874" lon="11.874680683933315"><ele>259.0</ele><time>2026-04-26T15:04:20.999Z</time></trkpt><trkpt lat="43.44714215122848" lon="11.874969102270459"><ele>258.0</ele><time>2026-04-26T15:04:21.999Z</time></trkpt><trkpt lat="43.447027491403595" lon="11.875257586766644"><ele>257.0</ele><time>2026-04-26T15:04:22.999Z</time></trkpt><trkpt lat="43.446903423324414" lon="11.875535340429296"><ele>257.0</ele><time>2026-04-26T15:04:23.999Z</time></trkpt><trkpt lat="43.44676019873449" lon="11.87580102152512"><ele>257.0</ele><time>2026-04-26T15:04:24.999Z</time></trkpt><trkpt lat="43.44659909717359" lon="11.876064224036913"><ele>258.0</ele><time>2026-04-26T15:04:25.999Z</time></trkpt><trkpt lat="43.4464342464685" lon="11.876327338277997"><ele>259.0</ele><time>2026-04-26T15:04:26.999Z</time></trkpt><trkpt lat="43.44626648232739" lon="11.876593671557018"><ele>259.0</ele><time>2026-04-26T15:04:27.999Z</time></trkpt><trkpt lat="43.446099282795835" lon="11.876864034995592"><ele>259.0</ele><time>2026-04-26T15:04:28.999Z</time></trkpt><trkpt lat="43.44593107329893" lon="11.877139045022387"><ele>259.0</ele><time>2026-04-26T15:04:29.999Z</time></trkpt><trkpt lat="43.44576798022028" lon="11.877421361462204"><ele>259.0</ele><time>2026-04-26T15:04:30.999Z</time></trkpt><trkpt lat="43.44560908711888" lon="11.87770758051655"><ele>259.5</ele><time>2026-04-26T15:04:31.999Z</time></trkpt><trkpt lat="43.44545923575478" lon="11.877996625713156"><ele>260.0</ele><time>2026-04-26T15:04:32.999Z</time></trkpt><trkpt lat="43.44531736440316" lon="11.87829112154291"><ele>260.5</ele><time>2026-04-26T15:04:33.999Z</time></trkpt><trkpt lat="43.44518597743222" lon="11.878585411755456"><ele>261.0</ele><time>2026-04-26T15:04:34.999Z</time></trkpt><trkpt lat="43.44506853250769" lon="11.878870490906332"><ele>261.0</ele><time>2026-04-26T15:04:35.999Z</time></trkpt><trkpt lat="43.44496262099614" lon="11.879148841617912"><ele>261.0</ele><time>2026-04-26T15:04:36.999Z</time></trkpt><trkpt lat="43.444865377152496" lon="11.879409945230393"><ele>261.0</ele><time>2026-04-26T15:04:37.999Z</time></trkpt><trkpt lat="43.44477743534459" lon="11.879660369248006"><ele>261.3333333333333</ele><time>2026-04-26T15:04:38.999Z</time></trkpt><trkpt lat="43.44470017162985" lon="11.879897000359206"><ele>261.66666666666663</ele><time>2026-04-26T15:04:39.999Z</time></trkpt><trkpt lat="43.44462751532262" lon="11.88015083416633"><ele>262.0</ele><time>2026-04-26T15:04:40.999Z</time></trkpt><trkpt lat="43.44455404812708" lon="11.880416409980805"><ele>262.3333333333333</ele><time>2026-04-26T15:04:41.999Z</time></trkpt><trkpt lat="43.44448048287752" lon="11.880695979779034"><ele>262.6666666666667</ele><time>2026-04-26T15:04:42.999Z</time></trkpt><trkpt lat="43.44440831399081" lon="11.880984336574679"><ele>263.0</ele><time>2026-04-26T15:04:43.999Z</time></trkpt><trkpt lat="43.444340959725665" lon="11.881286635147452"><ele>263.0</ele><time>2026-04-26T15:04:44.999Z</time></trkpt><trkpt lat="43.44428353975241" lon="11.881600223595697"><ele>263.0</ele><time>2026-04-26T15:04:45.999Z</time></trkpt><trkpt lat="43.44423442010494" lon="11.881928235501617"><ele>264.5</ele><time>2026-04-26T15:04:46.999Z</time></trkpt><trkpt lat="43.44419018366972" lon="11.8822500672698"><ele>266.0</ele><time>2026-04-26T15:04:47.999Z</time></trkpt><trkpt lat="43.44415037558325" lon="11.882575053662041"><ele>266.5</ele><time>2026-04-26T15:04:48.999Z</time></trkpt><trkpt lat="43.444118809094746" lon="11.88290371438235"><ele>267.0</ele><time>2026-04-26T15:04:49.999Z</time></trkpt><trkpt lat="43.444091751657766" lon="11.883237231923061"><ele>271.0</ele><time>2026-04-26T15:04:50.999Z</time></trkpt><trkpt lat="43.44407415871491" lon="11.883575448204864"><ele>275.0</ele><time>2026-04-26T15:04:51.999Z</time></trkpt><trkpt lat="43.44406394021492" lon="11.883914660735913"><ele>275.0</ele><time>2026-04-26T15:04:52.999Z</time></trkpt><trkpt lat="43.44405833711976" lon="11.8842560847784"><ele>275.0</ele><time>2026-04-26T15:04:53.999Z</time></trkpt><trkpt lat="43.44405294526463" lon="11.884602328334852"><ele>276.5</ele><time>2026-04-26T15:04:54.999Z</time></trkpt><trkpt lat="43.444049828586344" lon="11.884939413774756"><ele>278.0</ele><time>2026-04-26T15:04:55.999Z</time></trkpt><trkpt lat="43.44404225100986" lon="11.885254139047897"><ele>278.33333333333337</ele><time>2026-04-26T15:04:56.999Z</time></trkpt><trkpt lat="43.44403781184184" lon="11.885552491603752"><ele>278.6666666666667</ele><time>2026-04-26T15:04:57.999Z</time></trkpt><trkpt lat="43.44403415551653" lon="11.885837181907434"><ele>279.0</ele><time>2026-04-26T15:04:58.999Z</time></trkpt><trkpt lat="43.444027597450116" lon="11.886109221215808"><ele>279.0</ele><time>2026-04-26T15:04:59.999Z</time></trkpt><trkpt lat="43.444021747830796" lon="11.886378303406655"><ele>279.0</ele><time>2026-04-26T15:05:00.999Z</time></trkpt><trkpt lat="43.44401324404638" lon="11.886640330560608"><ele>279.0</ele><time>2026-04-26T15:05:01.999Z</time></trkpt><trkpt lat="43.44400060240096" lon="11.886899451255838"><ele>278.3333333333333</ele><time>2026-04-26T15:05:02.999Z</time></trkpt><trkpt lat="43.443984612368936" lon="11.887153374685504"><ele>277.66666666666663</ele><time>2026-04-26T15:05:03.999Z</time></trkpt><trkpt lat="43.44396456678566" lon="11.887408848114235"><ele>277.0</ele><time>2026-04-26T15:05:04.999Z</time></trkpt><trkpt lat="43.44394398304291" lon="11.887660761567306"><ele>276.3333333333333</ele><time>2026-04-26T15:05:05.999Z</time></trkpt><trkpt lat="43.44392405911942" lon="11.887911536574201"><ele>275.6666666666667</ele><time>2026-04-26T15:05:06.999Z</time></trkpt><trkpt lat="43.443897842247125" lon="11.888154748014966"><ele>275.0</ele><time>2026-04-26T15:05:07.999Z</time></trkpt><trkpt lat="43.44386834834903" lon="11.88839806667639"><ele>274.0</ele><time>2026-04-26T15:05:08.999Z</time></trkpt><trkpt lat="43.44383702921577" lon="11.888641033697212"><ele>273.0</ele><time>2026-04-26T15:05:09.999Z</time></trkpt><trkpt lat="43.44380633116511" lon="11.888882246279119"><ele>272.0</ele><time>2026-04-26T15:05:10.999Z</time></trkpt><trkpt lat="43.44377652146793" lon="11.889123503022642"><ele>277.0</ele><time>2026-04-26T15:05:11.999Z</time></trkpt><trkpt lat="43.44374712258606" lon="11.889365748220582"><ele>282.0</ele><time>2026-04-26T15:05:12.999Z</time></trkpt><trkpt lat="43.44371746402277" lon="11.889606709911503"><ele>287.0</ele><time>2026-04-26T15:05:13.999Z</time></trkpt><trkpt lat="43.443686391754" lon="11.88984438883312"><ele>287.0</ele><time>2026-04-26T15:05:14.999Z</time></trkpt><trkpt lat="43.44365758324258" lon="11.89006431955442"><ele>287.0</ele><time>2026-04-26T15:05:15.999Z</time></trkpt><trkpt lat="43.44363634159476" lon="11.890287662602995"><ele>287.0</ele><time>2026-04-26T15:05:16.999Z</time></trkpt><trkpt lat="43.44360266078846" lon="11.890506376389636"><ele>287.25</ele><time>2026-04-26T15:05:17.999Z</time></trkpt><trkpt lat="43.4435896089259" lon="11.890683701640551"><ele>287.5</ele><time>2026-04-26T15:05:18.999Z</time></trkpt><trkpt lat="43.44356578633258" lon="11.890855306925062"><ele>287.75</ele><time>2026-04-26T15:05:19.999Z</time></trkpt><trkpt lat="43.44354547970042" lon="11.891006957261597"><ele>288.0</ele><time>2026-04-26T15:05:20.999Z</time></trkpt><trkpt lat="43.44352863710018" lon="11.891133962008002"><ele>287.6</ele><time>2026-04-26T15:05:21.999Z</time></trkpt><trkpt lat="43.44351259954415" lon="11.891245906311765"><ele>287.20000000000005</ele><time>2026-04-26T15:05:22.999Z</time></trkpt><trkpt lat="43.44349741092547" lon="11.891346854879663"><ele>286.8</ele><time>2026-04-26T15:05:23.999Z</time></trkpt><trkpt lat="43.44348879621525" lon="11.891441562772561"><ele>286.40000000000003</ele><time>2026-04-26T15:05:24.999Z</time></trkpt><trkpt lat="43.44347414618867" lon="11.891529388590444"><ele>286.0</ele><time>2026-04-26T15:05:25.999Z</time></trkpt><trkpt lat="43.44369430012188" lon="11.891540889785736"><ele>286.0</ele><time>2026-04-26T15:05:27.999Z</time></trkpt><trkpt lat="43.4437808224234" lon="11.891610236574696"><ele>286.0</ele><time>2026-04-26T15:05:28.999Z</time></trkpt><trkpt lat="43.443856602852485" lon="11.891683902027763"><ele>286.0</ele><time>2026-04-26T15:05:29.999Z</time></trkpt><trkpt lat="43.44391010092535" lon="11.891784187560503"><ele>286.0</ele><time>2026-04-26T15:05:30.999Z</time></trkpt><trkpt lat="43.443926384553656" lon="11.891915551159729"><ele>286.0</ele><time>2026-04-26T15:05:31.999Z</time></trkpt><trkpt lat="43.44392614384544" lon="11.892031995754992"><ele>286.0</ele><time>2026-04-26T15:05:32.999Z</time></trkpt><trkpt lat="43.4439524979475" lon="11.892128640556804"><ele>286.0</ele><time>2026-04-26T15:05:33.999Z</time></trkpt><trkpt lat="43.44396524873978" lon="11.892250877818224"><ele>286.0</ele><time>2026-04-26T15:05:34.999Z</time></trkpt><trkpt lat="43.44383657388613" lon="11.892384516875293"><ele>286.0</ele><time>2026-04-26T15:05:35.999Z</time></trkpt><trkpt lat="43.44375617250341" lon="11.892480816065811"><ele>286.0</ele><time>2026-04-26T15:05:36.999Z</time></trkpt><trkpt lat="43.44365153893661" lon="11.89254693987233"><ele>286.0</ele><time>2026-04-26T15:05:37.999Z</time></trkpt><trkpt lat="43.44352278577836" lon="11.89254889004707"><ele>286.0</ele><time>2026-04-26T15:05:38.999Z</time></trkpt><trkpt lat="43.44338817430097" lon="11.892586343548894"><ele>286.0</ele><time>2026-04-26T15:05:39.999Z</time></trkpt><trkpt lat="43.443231435928794" lon="11.892640979411846"><ele>286.0</ele><time>2026-04-26T15:05:40.999Z</time></trkpt><trkpt lat="43.44308580381716" lon="11.892692744536905"><ele>287.0</ele><time>2026-04-26T15:05:41.999Z</time></trkpt><trkpt lat="43.4429364932496" lon="11.892741356874957"><ele>288.0</ele><time>2026-04-26T15:05:42.999Z</time></trkpt><trkpt lat="43.44278150394062" lon="11.892812957525564"><ele>289.0</ele><time>2026-04-26T15:05:43.999Z</time></trkpt><trkpt lat="43.44262041426266" lon="11.892919183794861"><ele>289.0</ele><time>2026-04-26T15:05:44.999Z</time></trkpt><trkpt lat="43.442468841489536" lon="11.893025754438353"><ele>289.0</ele><time>2026-04-26T15:05:45.999Z</time></trkpt><trkpt lat="43.44230814806386" lon="11.893112585290268"><ele>289.0</ele><time>2026-04-26T15:05:46.999Z</time></trkpt><trkpt lat="43.44214695587149" lon="11.893178136901053"><ele>288.3333333333333</ele><time>2026-04-26T15:05:47.999Z</time></trkpt><trkpt lat="43.44197959946252" lon="11.893231943253921"><ele>287.6666666666667</ele><time>2026-04-26T15:05:48.999Z</time></trkpt><trkpt lat="43.44180543950628" lon="11.893269018707949"><ele>287.0</ele><time>2026-04-26T15:05:49.999Z</time></trkpt><trkpt lat="43.441622950244714" lon="11.893283443232452"><ele>287.0</ele><time>2026-04-26T15:05:50.999Z</time></trkpt><trkpt lat="43.44144601526473" lon="11.893253879454937"><ele>287.0</ele><time>2026-04-26T15:05:52Z</time></trkpt><trkpt lat="43.441267331986694" lon="11.893220189779317"><ele>287.0</ele><time>2026-04-26T15:05:53Z</time></trkpt><trkpt lat="43.441066958722715" lon="11.89327645049077"><ele>285.0</ele><time>2026-04-26T15:05:54Z</time></trkpt><trkpt lat="43.440878686928414" lon="11.893264908524916"><ele>283.0</ele><time>2026-04-26T15:05:55Z</time></trkpt><trkpt lat="43.440696095361794" lon="11.893277209824623"><ele>281.0</ele><time>2026-04-26T15:05:56Z</time></trkpt><trkpt lat="43.44051183200743" lon="11.893275034133573"><ele>279.0</ele><time>2026-04-26T15:05:57Z</time></trkpt><trkpt lat="43.440324511848495" lon="11.89328418182322"><ele>277.0</ele><time>2026-04-26T15:05:58Z</time></trkpt><trkpt lat="43.44013714062346" lon="11.89330588725074"><ele>275.0</ele><time>2026-04-26T15:05:59Z</time></trkpt><trkpt lat="43.439955720088875" lon="11.89334852282574"><ele>275.0</ele><time>2026-04-26T15:06:00Z</time></trkpt><trkpt lat="43.439772514230626" lon="11.893403294838441"><ele>275.0</ele><time>2026-04-26T15:06:01Z</time></trkpt><trkpt lat="43.43959175125188" lon="11.8934654150258"><ele>275.0</ele><time>2026-04-26T15:06:02Z</time></trkpt><trkpt lat="43.43940853206447" lon="11.893523330347172"><ele>275.6666666666667</ele><time>2026-04-26T15:06:03Z</time></trkpt><trkpt lat="43.43923011748299" lon="11.89356783491298"><ele>276.3333333333333</ele><time>2026-04-26T15:06:04Z</time></trkpt><trkpt lat="43.4390620873699" lon="11.893600880657466"><ele>277.0</ele><time>2026-04-26T15:06:05Z</time></trkpt><trkpt lat="43.43891099117647" lon="11.893574903442262"><ele>276.75</ele><time>2026-04-26T15:06:06Z</time></trkpt><trkpt lat="43.438773360231494" lon="11.893572823159497"><ele>276.5</ele><time>2026-04-26T15:06:07Z</time></trkpt><trkpt lat="43.43866163654757" lon="11.89359086607416"><ele>276.25</ele><time>2026-04-26T15:06:08Z</time></trkpt><trkpt lat="43.4385521465592" lon="11.893595389923105"><ele>276.0</ele><time>2026-04-26T15:06:09Z</time></trkpt><trkpt lat="43.43843955971596" lon="11.893621705166456"><ele>276.0</ele><time>2026-04-26T15:06:10Z</time></trkpt><trkpt lat="43.438331021753875" lon="11.893651268626865"><ele>276.0</ele><time>2026-04-26T15:06:11Z</time></trkpt><trkpt lat="43.43821268870345" lon="11.893646008399147"><ele>276.0</ele><time>2026-04-26T15:06:12Z</time></trkpt><trkpt lat="43.43808567347112" lon="11.893647749659204"><ele>276.0</ele><time>2026-04-26T15:06:13Z</time></trkpt><trkpt lat="43.43795570488117" lon="11.893635585598789"><ele>277.0</ele><time>2026-04-26T15:06:14Z</time></trkpt><trkpt lat="43.43782162397529" lon="11.893606613022852"><ele>278.0</ele><time>2026-04-26T15:06:15Z</time></trkpt><trkpt lat="43.43768888739272" lon="11.893565382107436"><ele>279.0</ele><time>2026-04-26T15:06:16Z</time></trkpt><trkpt lat="43.437573315157906" lon="11.8935132073993"><ele>280.0</ele><time>2026-04-26T15:06:17Z</time></trkpt><trkpt lat="43.437472747202605" lon="11.893463192678796"><ele>279.0</ele><time>2026-04-26T15:06:18Z</time></trkpt><trkpt lat="43.437388004633064" lon="11.893420270535515"><ele>278.0</ele><time>2026-04-26T15:06:19Z</time></trkpt><trkpt lat="43.43731853430107" lon="11.893384264224705"><ele>277.0</ele><time>2026-04-26T15:06:20Z</time></trkpt><trkpt lat="43.43723401877688" lon="11.89335244248346"><ele>276.0</ele><time>2026-04-26T15:06:22Z</time></trkpt><trkpt lat="43.43711333687972" lon="11.893320100881766"><ele>275.0</ele><time>2026-04-26T15:06:24Z</time></trkpt><trkpt lat="43.43701950308613" lon="11.89327682037416"><ele>275.0</ele><time>2026-04-26T15:06:25Z</time></trkpt><trkpt lat="43.43689987312282" lon="11.89328746864266"><ele>275.0</ele><time>2026-04-26T15:06:26Z</time></trkpt><trkpt lat="43.43676739358162" lon="11.893274953463093"><ele>275.0</ele><time>2026-04-26T15:06:27Z</time></trkpt><trkpt lat="43.436627225490724" lon="11.893259419916271"><ele>275.0</ele><time>2026-04-26T15:06:28Z</time></trkpt><trkpt lat="43.43648082594023" lon="11.89320841196694"><ele>275.0</ele><time>2026-04-26T15:06:29Z</time></trkpt><trkpt lat="43.436316198135906" lon="11.893155649277476"><ele>275.0</ele><time>2026-04-26T15:06:30Z</time></trkpt><trkpt lat="43.43615722695456" lon="11.893093463070343"><ele>275.0</ele><time>2026-04-26T15:06:31Z</time></trkpt><trkpt lat="43.435995701633374" lon="11.893030277867142"><ele>274.6666666666667</ele><time>2026-04-26T15:06:32Z</time></trkpt><trkpt lat="43.43583627690545" lon="11.892966451605872"><ele>274.3333333333333</ele><time>2026-04-26T15:06:33Z</time></trkpt><trkpt lat="43.43567673185452" lon="11.892902971111814"><ele>274.0</ele><time>2026-04-26T15:06:34Z</time></trkpt><trkpt lat="43.4355132450503" lon="11.892844306331735"><ele>274.3333333333333</ele><time>2026-04-26T15:06:35Z</time></trkpt><trkpt lat="43.435352117007355" lon="11.892788490329565"><ele>274.6666666666667</ele><time>2026-04-26T15:06:36Z</time></trkpt><trkpt lat="43.43519767177276" lon="11.892735479103722"><ele>275.0</ele><time>2026-04-26T15:06:37Z</time></trkpt><trkpt lat="43.435064118223146" lon="11.892685211010756"><ele>275.0</ele><time>2026-04-26T15:06:38Z</time></trkpt><trkpt lat="43.43494402188016" lon="11.892640689796782"><ele>275.0</ele><time>2026-04-26T15:06:39Z</time></trkpt><trkpt lat="43.43483987720749" lon="11.892605505671332"><ele>275.0</ele><time>2026-04-26T15:06:40Z</time></trkpt><trkpt lat="43.434748792291415" lon="11.892574238676653"><ele>275.0</ele><time>2026-04-26T15:06:41Z</time></trkpt><trkpt lat="43.43468086193518" lon="11.892539643105172"><ele>275.0</ele><time>2026-04-26T15:06:42Z</time></trkpt><trkpt lat="43.434628008886385" lon="11.892465498969182"><ele>274.8</ele><time>2026-04-26T15:06:44Z</time></trkpt><trkpt lat="43.434711468330285" lon="11.892381773562432"><ele>274.6</ele><time>2026-04-26T15:06:48Z</time></trkpt><trkpt lat="43.434768258320744" lon="11.892326475469584"><ele>274.4</ele><time>2026-04-26T15:06:50Z</time></trkpt><trkpt lat="43.434671783502345" lon="11.892171222204084"><ele>274.2</ele><time>2026-04-26T15:06:51Z</time></trkpt><trkpt lat="43.43461175840726" lon="11.892106663515905"><ele>274.0</ele><time>2026-04-26T15:06:52Z</time></trkpt><trkpt lat="43.434529248448804" lon="11.892046918817917"><ele>274.5</ele><time>2026-04-26T15:06:53Z</time></trkpt><trkpt lat="43.43445192113835" lon="11.89195166031032"><ele>275.0</ele><time>2026-04-26T15:06:54Z</time></trkpt><trkpt lat="43.43435692799047" lon="11.891866746606462"><ele>275.5</ele><time>2026-04-26T15:06:55Z</time></trkpt><trkpt lat="43.43425721322788" lon="11.891781497315257"><ele>276.0</ele><time>2026-04-26T15:06:56Z</time></trkpt><trkpt lat="43.434157649509515" lon="11.891696377042155"><ele>276.0</ele><time>2026-04-26T15:06:57Z</time></trkpt><trkpt lat="43.434051178488374" lon="11.89160535139035"><ele>276.0</ele><time>2026-04-26T15:06:58Z</time></trkpt><trkpt lat="43.433940599171834" lon="11.891510139645147"><ele>276.0</ele><time>2026-04-26T15:06:59Z</time></trkpt><trkpt lat="43.43383018522774" lon="11.891404441383363"><ele>276.0</ele><time>2026-04-26T15:07:00Z</time></trkpt><trkpt lat="43.433717986336866" lon="11.891285324774984"><ele>276.25</ele><time>2026-04-26T15:07:01Z</time></trkpt><trkpt lat="43.43359791379874" lon="11.891163985677364"><ele>276.5</ele><time>2026-04-26T15:07:02Z</time></trkpt><trkpt lat="43.43347160637001" lon="11.891048349427422"><ele>276.75</ele><time>2026-04-26T15:07:03Z</time></trkpt><trkpt lat="43.43334338799141" lon="11.890955359913166"><ele>277.0</ele><time>2026-04-26T15:07:04Z</time></trkpt><trkpt lat="43.43322892966764" lon="11.890814499888018"><ele>277.66666666666663</ele><time>2026-04-26T15:07:05Z</time></trkpt><trkpt lat="43.43310454518437" lon="11.89068217685163"><ele>278.3333333333333</ele><time>2026-04-26T15:07:06Z</time></trkpt><trkpt lat="43.43297921383212" lon="11.89054884644692"><ele>279.0</ele><time>2026-04-26T15:07:07Z</time></trkpt><trkpt lat="43.43285550854754" lon="11.890424643775754"><ele>279.5</ele><time>2026-04-26T15:07:08Z</time></trkpt><trkpt lat="43.432731978864894" lon="11.890321470179035"><ele>280.0</ele><time>2026-04-26T15:07:09Z</time></trkpt><trkpt lat="43.43262073129503" lon="11.890235803302676"><ele>280.5</ele><time>2026-04-26T15:07:10Z</time></trkpt><trkpt lat="43.4325027933346" lon="11.890182774800854"><ele>281.0</ele><time>2026-04-26T15:07:11Z</time></trkpt><trkpt lat="43.4324099967906" lon="11.890104765281555"><ele>280.8</ele><time>2026-04-26T15:07:12Z</time></trkpt><trkpt lat="43.43232979480487" lon="11.890002056269184"><ele>280.6</ele><time>2026-04-26T15:07:13Z</time></trkpt><trkpt lat="43.432242597581045" lon="11.889911943132782"><ele>280.4</ele><time>2026-04-26T15:07:14Z</time></trkpt><trkpt lat="43.43215297777292" lon="11.889822034662002"><ele>280.2</ele><time>2026-04-26T15:07:15Z</time></trkpt><trkpt lat="43.43206181397137" lon="11.889739994104188"><ele>280.0</ele><time>2026-04-26T15:07:16Z</time></trkpt><trkpt lat="43.43196928574319" lon="11.889667937494062"><ele>280.6</ele><time>2026-04-26T15:07:17Z</time></trkpt><trkpt lat="43.4318732162362" lon="11.889599730622363"><ele>281.2</ele><time>2026-04-26T15:07:18Z</time></trkpt><trkpt lat="43.43176677714101" lon="11.889558309347363"><ele>281.8</ele><time>2026-04-26T15:07:19Z</time></trkpt><trkpt lat="43.43166530322311" lon="11.889498574433928"><ele>282.4</ele><time>2026-04-26T15:07:20Z</time></trkpt><trkpt lat="43.43156579448552" lon="11.889439402499178"><ele>283.0</ele><time>2026-04-26T15:07:21Z</time></trkpt><trkpt lat="43.43147084820412" lon="11.889365257842702"><ele>283.0</ele><time>2026-04-26T15:07:22Z</time></trkpt><trkpt lat="43.4313690075441" lon="11.889304036229031"><ele>283.0</ele><time>2026-04-26T15:07:23Z</time></trkpt><trkpt lat="43.43126672482811" lon="11.889244395774607"><ele>283.0</ele><time>2026-04-26T15:07:24Z</time></trkpt><trkpt lat="43.43116194484037" lon="11.889187883613799"><ele>283.0</ele><time>2026-04-26T15:07:25Z</time></trkpt><trkpt lat="43.431059608941915" lon="11.889142201885283"><ele>283.0</ele><time>2026-04-26T15:07:26Z</time></trkpt><trkpt lat="43.43096814084718" lon="11.88910364826185"><ele>283.5</ele><time>2026-04-26T15:07:27Z</time></trkpt><trkpt lat="43.43089264451088" lon="11.889071826773836"><ele>284.0</ele><time>2026-04-26T15:07:28Z</time></trkpt><trkpt lat="43.430791524978254" lon="11.889022506980867"><ele>284.5</ele><time>2026-04-26T15:07:30Z</time></trkpt><trkpt lat="43.43070523516014" lon="11.889237127909027"><ele>285.0</ele><time>2026-04-26T15:07:32Z</time></trkpt><trkpt lat="43.430644145870495" lon="11.889378666087437"><ele>285.0</ele><time>2026-04-26T15:07:34Z</time></trkpt><trkpt lat="43.4305948473728" lon="11.88952709765169"><ele>285.0</ele><time>2026-04-26T15:07:36Z</time></trkpt><trkpt lat="43.43055663882172" lon="11.889692069918791"><ele>285.0</ele><time>2026-04-26T15:07:38Z</time></trkpt><trkpt lat="43.43051786722569" lon="11.88979164913822"><ele>285.0</ele><time>2026-04-26T15:07:39Z</time></trkpt><trkpt lat="43.43046672772967" lon="11.889891317063256"><ele>285.0</ele><time>2026-04-26T15:07:40Z</time></trkpt><trkpt lat="43.4304298606465" lon="11.88998902985155"><ele>285.6</ele><time>2026-04-26T15:07:41Z</time></trkpt><trkpt lat="43.430406511367146" lon="11.890080149356987"><ele>286.2</ele><time>2026-04-26T15:07:42Z</time></trkpt><trkpt lat="43.430360039589225" lon="11.890166405425042"><ele>286.8</ele><time>2026-04-26T15:07:44Z</time></trkpt><trkpt lat="43.43027832634535" lon="11.8903149030313"><ele>287.4</ele><time>2026-04-26T15:08:06Z</time></trkpt><trkpt lat="43.43021627773432" lon="11.890405673229546"><ele>288.0</ele><time>2026-04-26T15:08:08Z</time></trkpt><trkpt lat="43.42982818975655" lon="11.890505812945761"><ele>288.0</ele><time>2026-04-26T15:08:10Z</time></trkpt><trkpt lat="43.430082444529035" lon="11.890051650860837"><ele>288.0</ele><time>2026-04-26T15:08:16Z</time></trkpt></trkseg></trk></gpx>